<?xml version='1.0' encoding='UTF-8'?><gpx version="1.1" creator="JPX - https://github.com/jenetics/jpx" xmlns="http://www.topografix.com/GPX/1/1"><trk><trkseg><trkpt lat="43.96628717892348" lon="12.758293133846228"><ele>9.0</ele><time>2026-05-03T14:35:28.998Z</time></trkpt><trkpt lat="43.96634723244533" lon="12.758188989315078"><ele>9.0</ele><time>2026-05-03T14:35:30.998Z</time></trkpt><trkpt lat="43.966390320934934" lon="12.758017828083142"><ele>9.0</ele><time>2026-05-03T14:35:32.998Z</time></trkpt><trkpt lat="43.966417965954186" lon="12.757909010247962"><ele>9.0</ele><time>2026-05-03T14:35:33.998Z</time></trkpt><trkpt lat="43.96644559788508" lon="12.757800243446098"><ele>9.0</ele><time>2026-05-03T14:35:34.998Z</time></trkpt><trkpt lat="43.96647103944343" lon="12.757698335699468"><ele>9.000000000000002</ele><time>2026-05-03T14:35:35.998Z</time></trkpt><trkpt lat="43.96649603094754" lon="12.757600757270234"><ele>9.0</ele><time>2026-05-03T14:35:36.998Z</time></trkpt><trkpt lat="43.9665215842056" lon="12.757500985479377"><ele>9.0</ele><time>2026-05-03T14:35:37.998Z</time></trkpt><trkpt lat="43.966546014297734" lon="12.75740559906091"><ele>9.0</ele><time>2026-05-03T14:35:38.998Z</time></trkpt><trkpt lat="43.966570168064855" lon="12.757311291538421"><ele>9.0</ele><time>2026-05-03T14:35:39.998Z</time></trkpt><trkpt lat="43.96659340362449" lon="12.757220568682719"><ele>9.000000000000002</ele><time>2026-05-03T14:35:40.998Z</time></trkpt><trkpt lat="43.966614158790215" lon="12.757132773489982"><ele>9.0</ele><time>2026-05-03T14:35:41.999Z</time></trkpt><trkpt lat="43.96663443837318" lon="12.757049266641486"><ele>9.0</ele><time>2026-05-03T14:35:42.999Z</time></trkpt><trkpt lat="43.96665590134129" lon="12.756960193881593"><ele>9.0</ele><time>2026-05-03T14:35:43.999Z</time></trkpt><trkpt lat="43.9666787036255" lon="12.756865562919389"><ele>9.0</ele><time>2026-05-03T14:35:44.999Z</time></trkpt><trkpt lat="43.96670152338503" lon="12.756770859396108"><ele>9.0</ele><time>2026-05-03T14:35:45.999Z</time></trkpt><trkpt lat="43.966744203661996" lon="12.75660767239851"><ele>9.0</ele><time>2026-05-03T14:35:47.999Z</time></trkpt><trkpt lat="43.966767745969236" lon="12.756524372816303"><ele>9.0</ele><time>2026-05-03T14:35:48.999Z</time></trkpt><trkpt lat="43.96678930381147" lon="12.756441165494234"><ele>8.666666666666666</ele><time>2026-05-03T14:35:49.999Z</time></trkpt><trkpt lat="43.966815694361166" lon="12.75630007154418"><ele>8.333333333333334</ele><time>2026-05-03T14:35:51.999Z</time></trkpt><trkpt lat="43.966810688677704" lon="12.756204928320109"><ele>8.0</ele><time>2026-05-03T14:35:52.999Z</time></trkpt><trkpt lat="43.96678271026888" lon="12.756107560836066"><ele>7.666666666666667</ele><time>2026-05-03T14:35:53.999Z</time></trkpt><trkpt lat="43.966699642007114" lon="12.756052514602121"><ele>7.333333333333334</ele><time>2026-05-03T14:35:54.999Z</time></trkpt><trkpt lat="43.96662654680792" lon="12.755998420314219"><ele>7.0</ele><time>2026-05-03T14:35:56Z</time></trkpt><trkpt lat="43.96655348254222" lon="12.755945696683543"><ele>7.000000000000001</ele><time>2026-05-03T14:35:57Z</time></trkpt><trkpt lat="43.96647986263583" lon="12.755894189453182"><ele>7.0</ele><time>2026-05-03T14:35:58Z</time></trkpt><trkpt lat="43.966411185525175" lon="12.755824647130478"><ele>7.0</ele><time>2026-05-03T14:35:59Z</time></trkpt><trkpt lat="43.96633640085216" lon="12.755755985675446"><ele>7.0</ele><time>2026-05-03T14:36:00Z</time></trkpt><trkpt lat="43.96627282004147" lon="12.755681008536678"><ele>7.000000000000001</ele><time>2026-05-03T14:36:01Z</time></trkpt><trkpt lat="43.96618401517227" lon="12.755612942296972"><ele>7.0</ele><time>2026-05-03T14:36:02Z</time></trkpt><trkpt lat="43.96611540327669" lon="12.755548125305936"><ele>7.000000000000001</ele><time>2026-05-03T14:36:03Z</time></trkpt><trkpt lat="43.96605705028932" lon="12.755482907386497"><ele>7.0</ele><time>2026-05-03T14:36:04Z</time></trkpt><trkpt lat="43.965989084536666" lon="12.755448502089703"><ele>7.0</ele><time>2026-05-03T14:36:05Z</time></trkpt><trkpt lat="43.96591886131872" lon="12.755381317836385"><ele>7.0</ele><time>2026-05-03T14:36:06Z</time></trkpt><trkpt lat="43.96581729051113" lon="12.755309489990521"><ele>7.000000000000001</ele><time>2026-05-03T14:36:08Z</time></trkpt><trkpt lat="43.96575683768549" lon="12.755243322345416"><ele>7.0</ele><time>2026-05-03T14:36:09Z</time></trkpt><trkpt lat="43.96570171915234" lon="12.755186277849365"><ele>7.199999999999999</ele><time>2026-05-03T14:36:10Z</time></trkpt><trkpt lat="43.96559781427055" lon="12.755102211014986"><ele>7.3999999999999995</ele><time>2026-05-03T14:36:12Z</time></trkpt><trkpt lat="43.96550540455611" lon="12.7550301080042"><ele>7.6000000000000005</ele><time>2026-05-03T14:36:14Z</time></trkpt><trkpt lat="43.96543005354535" lon="12.754968409622597"><ele>7.800000000000001</ele><time>2026-05-03T14:36:16Z</time></trkpt><trkpt lat="43.96536219602128" lon="12.754907760835335"><ele>8.0</ele><time>2026-05-03T14:36:18Z</time></trkpt><trkpt lat="43.96523436741384" lon="12.755048419207801"><ele>7.999999999999999</ele><time>2026-05-03T14:36:23.001Z</time></trkpt><trkpt lat="43.96520501900584" lon="12.75522637533935"><ele>8.0</ele><time>2026-05-03T14:36:25.001Z</time></trkpt><trkpt lat="43.96517265938576" lon="12.755306807680391"><ele>8.0</ele><time>2026-05-03T14:36:26.001Z</time></trkpt><trkpt lat="43.96514811167313" lon="12.75540509143009"><ele>8.0</ele><time>2026-05-03T14:36:27.001Z</time></trkpt><trkpt lat="43.96511999039787" lon="12.755504498828723"><ele>7.999999999999999</ele><time>2026-05-03T14:36:28.001Z</time></trkpt><trkpt lat="43.965090347095426" lon="12.755608733377487"><ele>8.0</ele><time>2026-05-03T14:36:29.001Z</time></trkpt><trkpt lat="43.96505967757866" lon="12.755716832692269"><ele>8.0</ele><time>2026-05-03T14:36:30.001Z</time></trkpt><trkpt lat="43.96504054856262" lon="12.755835988195782"><ele>8.0</ele><time>2026-05-03T14:36:31.001Z</time></trkpt><trkpt lat="43.96499077326787" lon="12.756035487095428"><ele>8.0</ele><time>2026-05-03T14:36:33.001Z</time></trkpt><trkpt lat="43.9649639355905" lon="12.75612048182022"><ele>8.0</ele><time>2026-05-03T14:36:34.001Z</time></trkpt><trkpt lat="43.96493526833494" lon="12.756263422293834"><ele>8.0</ele><time>2026-05-03T14:36:36.001Z</time></trkpt><trkpt lat="43.96490869759945" lon="12.756345384119387"><ele>9.75</ele><time>2026-05-03T14:36:38.001Z</time></trkpt><trkpt lat="43.964813244043334" lon="12.756389206648205"><ele>11.5</ele><time>2026-05-03T14:36:41.001Z</time></trkpt><trkpt lat="43.964681536818226" lon="12.756381232805413"><ele>13.25</ele><time>2026-05-03T14:36:43.001Z</time></trkpt><trkpt lat="43.96457335388582" lon="12.756364145232485"><ele>15.0</ele><time>2026-05-03T14:36:44.001Z</time></trkpt><trkpt lat="43.96445750327666" lon="12.756365352805393"><ele>15.0</ele><time>2026-05-03T14:36:45.001Z</time></trkpt><trkpt lat="43.96433972943952" lon="12.756365775244676"><ele>15.0</ele><time>2026-05-03T14:36:46.001Z</time></trkpt><trkpt lat="43.964231809587154" lon="12.756381587924059"><ele>15.0</ele><time>2026-05-03T14:36:47.001Z</time></trkpt><trkpt lat="43.96414422470764" lon="12.756396373476335"><ele>15.0</ele><time>2026-05-03T14:36:48.001Z</time></trkpt><trkpt lat="43.96405259397606" lon="12.756403401970031"><ele>15.0</ele><time>2026-05-03T14:36:49.001Z</time></trkpt><trkpt lat="43.963945289903016" lon="12.756426370566368"><ele>14.25</ele><time>2026-05-03T14:36:50.001Z</time></trkpt><trkpt lat="43.96382984295937" lon="12.756441712928474"><ele>13.5</ele><time>2026-05-03T14:36:51.002Z</time></trkpt><trkpt lat="43.963705720851635" lon="12.756455459266029"><ele>12.75</ele><time>2026-05-03T14:36:52.002Z</time></trkpt><trkpt lat="43.96357815271609" lon="12.75647177570759"><ele>12.0</ele><time>2026-05-03T14:36:53.002Z</time></trkpt><trkpt lat="43.96345371580435" lon="12.756490641880378"><ele>11.0</ele><time>2026-05-03T14:36:54.002Z</time></trkpt><trkpt lat="43.963329943179986" lon="12.75651605127512"><ele>10.0</ele><time>2026-05-03T14:36:55.002Z</time></trkpt><trkpt lat="43.963206897872354" lon="12.756525456364376"><ele>9.0</ele><time>2026-05-03T14:36:56.002Z</time></trkpt><trkpt lat="43.963092714425365" lon="12.756546755834243"><ele>8.0</ele><time>2026-05-03T14:36:57.002Z</time></trkpt><trkpt lat="43.96298592931516" lon="12.756557743986416"><ele>7.999999999999999</ele><time>2026-05-03T14:36:58.002Z</time></trkpt><trkpt lat="43.96288929200279" lon="12.756575970268779"><ele>8.0</ele><time>2026-05-03T14:36:59.002Z</time></trkpt><trkpt lat="43.962798482196334" lon="12.756589329112252"><ele>8.0</ele><time>2026-05-03T14:37:00.002Z</time></trkpt><trkpt lat="43.962721265131485" lon="12.756600948544499"><ele>8.0</ele><time>2026-05-03T14:37:01.002Z</time></trkpt><trkpt lat="43.962646435515964" lon="12.75661898520707"><ele>7.999999999999999</ele><time>2026-05-03T14:37:02.002Z</time></trkpt><trkpt lat="43.96257440273" lon="12.756630806684788"><ele>8.0</ele><time>2026-05-03T14:37:03.002Z</time></trkpt><trkpt lat="43.96250854977531" lon="12.756625626409184"><ele>7.666666666666666</ele><time>2026-05-03T14:37:04.002Z</time></trkpt><trkpt lat="43.962445216952766" lon="12.75659818636823"><ele>7.333333333333333</ele><time>2026-05-03T14:37:05.002Z</time></trkpt><trkpt lat="43.96237924362429" lon="12.75660168990335"><ele>7.0</ele><time>2026-05-03T14:37:06.002Z</time></trkpt><trkpt lat="43.96231749994505" lon="12.756731640721856"><ele>6.666666666666666</ele><time>2026-05-03T14:37:08.002Z</time></trkpt><trkpt lat="43.96231187596364" lon="12.75684818628217"><ele>6.333333333333333</ele><time>2026-05-03T14:37:09.002Z</time></trkpt><trkpt lat="43.96228243220737" lon="12.756965331266482"><ele>6.0</ele><time>2026-05-03T14:37:10.002Z</time></trkpt><trkpt lat="43.96221449706507" lon="12.757060140264892"><ele>9.0</ele><time>2026-05-03T14:37:11.002Z</time></trkpt><trkpt lat="43.96213711028704" lon="12.757140714834293"><ele>12.0</ele><time>2026-05-03T14:37:12.002Z</time></trkpt><trkpt lat="43.962057400589295" lon="12.757240225422343"><ele>15.0</ele><time>2026-05-03T14:37:13.002Z</time></trkpt><trkpt lat="43.961970511339466" lon="12.75735848076547"><ele>18.0</ele><time>2026-05-03T14:37:14.002Z</time></trkpt><trkpt lat="43.961886614950835" lon="12.75748753376122"><ele>18.0</ele><time>2026-05-03T14:37:15.002Z</time></trkpt><trkpt lat="43.96180822794501" lon="12.757624343039586"><ele>18.0</ele><time>2026-05-03T14:37:16.002Z</time></trkpt><trkpt lat="43.961728695158676" lon="12.757763425794412"><ele>18.0</ele><time>2026-05-03T14:37:17.002Z</time></trkpt><trkpt lat="43.961649662619855" lon="12.757902915079216"><ele>18.0</ele><time>2026-05-03T14:37:18.002Z</time></trkpt><trkpt lat="43.96157031099497" lon="12.758044208011412"><ele>18.5</ele><time>2026-05-03T14:37:19.002Z</time></trkpt><trkpt lat="43.961481508285146" lon="12.758181737742362"><ele>19.0</ele><time>2026-05-03T14:37:20.002Z</time></trkpt><trkpt lat="43.96138643032201" lon="12.758321245972693"><ele>19.5</ele><time>2026-05-03T14:37:21.002Z</time></trkpt><trkpt lat="43.96130080056995" lon="12.75848059975435"><ele>20.0</ele><time>2026-05-03T14:37:22.002Z</time></trkpt><trkpt lat="43.96120702853008" lon="12.758618741046769"><ele>20.0</ele><time>2026-05-03T14:37:23.002Z</time></trkpt><trkpt lat="43.96111891160785" lon="12.758755869518852"><ele>20.0</ele><time>2026-05-03T14:37:24.003Z</time></trkpt><trkpt lat="43.961029549739656" lon="12.758875793637282"><ele>20.0</ele><time>2026-05-03T14:37:25.003Z</time></trkpt><trkpt lat="43.96093960249717" lon="12.758999690181778"><ele>20.0</ele><time>2026-05-03T14:37:26.003Z</time></trkpt><trkpt lat="43.960850904596754" lon="12.759123031598316"><ele>17.5</ele><time>2026-05-03T14:37:27.003Z</time></trkpt><trkpt lat="43.96076396622444" lon="12.75924376403236"><ele>15.0</ele><time>2026-05-03T14:37:28.003Z</time></trkpt><trkpt lat="43.960674230995714" lon="12.75935579835449"><ele>12.5</ele><time>2026-05-03T14:37:29.003Z</time></trkpt><trkpt lat="43.96057850247431" lon="12.759463869276738"><ele>10.0</ele><time>2026-05-03T14:37:30.003Z</time></trkpt><trkpt lat="43.96047440461601" lon="12.759580696467669"><ele>10.0</ele><time>2026-05-03T14:37:31Z</time></trkpt><trkpt lat="43.96036621587868" lon="12.759710621719087"><ele>10.0</ele><time>2026-05-03T14:37:32Z</time></trkpt><trkpt lat="43.960264884032256" lon="12.759837083511387"><ele>10.0</ele><time>2026-05-03T14:37:33Z</time></trkpt><trkpt lat="43.96017472608756" lon="12.759947441166299"><ele>10.0</ele><time>2026-05-03T14:37:34Z</time></trkpt><trkpt lat="43.96009154926891" lon="12.76004473932231"><ele>9.833333333333334</ele><time>2026-05-03T14:37:35Z</time></trkpt><trkpt lat="43.96001654817255" lon="12.760122921951762"><ele>9.666666666666668</ele><time>2026-05-03T14:37:36Z</time></trkpt><trkpt lat="43.95994488524606" lon="12.760196188416801"><ele>9.5</ele><time>2026-05-03T14:37:37Z</time></trkpt><trkpt lat="43.959889618998744" lon="12.760242426222389"><ele>9.333333333333334</ele><time>2026-05-03T14:37:38Z</time></trkpt><trkpt lat="43.959797207093814" lon="12.760289394428959"><ele>9.166666666666666</ele><time>2026-05-03T14:37:40Z</time></trkpt><trkpt lat="43.95970541791334" lon="12.760326130978099"><ele>9.0</ele><time>2026-05-03T14:37:42Z</time></trkpt><trkpt lat="43.959674508970664" lon="12.7604191091448"><ele>10.166666666666666</ele><time>2026-05-03T14:37:43Z</time></trkpt><trkpt lat="43.959640417462936" lon="12.760547993697221"><ele>11.333333333333332</ele><time>2026-05-03T14:37:44Z</time></trkpt><trkpt lat="43.959604927528645" lon="12.760660369296883"><ele>12.5</ele><time>2026-05-03T14:37:45Z</time></trkpt><trkpt lat="43.95956302821905" lon="12.76074378770041"><ele>13.666666666666666</ele><time>2026-05-03T14:37:46Z</time></trkpt><trkpt lat="43.95952033088081" lon="12.76082837670921"><ele>14.833333333333332</ele><time>2026-05-03T14:37:47Z</time></trkpt><trkpt lat="43.95947746827862" lon="12.76090602111727"><ele>16.0</ele><time>2026-05-03T14:37:48Z</time></trkpt><trkpt lat="43.95942503293809" lon="12.760994793700775"><ele>15.600000000000001</ele><time>2026-05-03T14:37:49Z</time></trkpt><trkpt lat="43.95935916509996" lon="12.761074306778987"><ele>15.200000000000001</ele><time>2026-05-03T14:37:50Z</time></trkpt><trkpt lat="43.95927887900952" lon="12.761154660118901"><ele>14.799999999999999</ele><time>2026-05-03T14:37:51Z</time></trkpt><trkpt lat="43.95918901453028" lon="12.761240749455103"><ele>14.399999999999999</ele><time>2026-05-03T14:37:52Z</time></trkpt><trkpt lat="43.959088654155615" lon="12.761328263447435"><ele>14.0</ele><time>2026-05-03T14:37:53Z</time></trkpt><trkpt lat="43.959000735343885" lon="12.761403194366261"><ele>14.0</ele><time>2026-05-03T14:37:54Z</time></trkpt><trkpt lat="43.95892713161586" lon="12.761467667305107"><ele>13.999999999999998</ele><time>2026-05-03T14:37:55Z</time></trkpt><trkpt lat="43.95883950397263" lon="12.761525968533219"><ele>13.999999999999998</ele><time>2026-05-03T14:37:56Z</time></trkpt><trkpt lat="43.958753188147845" lon="12.761600809953613"><ele>14.0</ele><time>2026-05-03T14:37:57Z</time></trkpt><trkpt lat="43.95866106162834" lon="12.761680930314917"><ele>14.0</ele><time>2026-05-03T14:37:58Z</time></trkpt><trkpt lat="43.95857148908934" lon="12.761758845646561"><ele>14.0</ele><time>2026-05-03T14:37:59Z</time></trkpt><trkpt lat="43.958482831625204" lon="12.76183610372573"><ele>13.999999999999998</ele><time>2026-05-03T14:38:00Z</time></trkpt><trkpt lat="43.95841139325505" lon="12.761922591132022"><ele>13.999999999999998</ele><time>2026-05-03T14:38:01.001Z</time></trkpt><trkpt lat="43.95833474204452" lon="12.761965152543349"><ele>14.0</ele><time>2026-05-03T14:38:02.001Z</time></trkpt><trkpt lat="43.95828420634483" lon="12.762030653848154"><ele>14.0</ele><time>2026-05-03T14:38:03.001Z</time></trkpt><trkpt lat="43.95818533275728" lon="12.762118849160458"><ele>13.799999999999999</ele><time>2026-05-03T14:38:05.001Z</time></trkpt><trkpt lat="43.95810263125888" lon="12.76215632663012"><ele>13.599999999999998</ele><time>2026-05-03T14:38:07.001Z</time></trkpt><trkpt lat="43.95804021906957" lon="12.762060972463747"><ele>13.4</ele><time>2026-05-03T14:38:09.001Z</time></trkpt><trkpt lat="43.95798967048695" lon="12.761904555448615"><ele>13.2</ele><time>2026-05-03T14:38:11.001Z</time></trkpt><trkpt lat="43.957936934579834" lon="12.761772700999131"><ele>13.0</ele><time>2026-05-03T14:38:13.001Z</time></trkpt><trkpt lat="43.9578896619591" lon="12.761657739830012"><ele>13.0</ele><time>2026-05-03T14:38:15.001Z</time></trkpt><trkpt lat="43.957869621755854" lon="12.761566110820171"><ele>13.0</ele><time>2026-05-03T14:38:34.001Z</time></trkpt><trkpt lat="43.95772917225587" lon="12.761747170332077"><ele>13.0</ele><time>2026-05-03T14:38:37.002Z</time></trkpt><trkpt lat="43.957685856821485" lon="12.761848435753258"><ele>13.0</ele><time>2026-05-03T14:38:38.002Z</time></trkpt><trkpt lat="43.95762717448478" lon="12.761968410975793"><ele>13.4</ele><time>2026-05-03T14:38:39.002Z</time></trkpt><trkpt lat="43.95757253147355" lon="12.762071974255583"><ele>13.8</ele><time>2026-05-03T14:38:40.002Z</time></trkpt><trkpt lat="43.95748926073908" lon="12.762159239842548"><ele>14.2</ele><time>2026-05-03T14:38:42.002Z</time></trkpt><trkpt lat="43.95740216708182" lon="12.762248750412626"><ele>14.6</ele><time>2026-05-03T14:38:44.002Z</time></trkpt><trkpt lat="43.95739541276815" lon="12.762403182033815"><ele>15.0</ele><time>2026-05-03T14:38:46.002Z</time></trkpt><trkpt lat="43.95738804204698" lon="12.762493369822304"><ele>15.0</ele><time>2026-05-03T14:38:47.002Z</time></trkpt><trkpt lat="43.95736109361299" lon="12.762582459985312"><ele>15.0</ele><time>2026-05-03T14:38:48.002Z</time></trkpt><trkpt lat="43.957327063824906" lon="12.76265978077915"><ele>15.0</ele><time>2026-05-03T14:38:49.002Z</time></trkpt><trkpt lat="43.957274429834506" lon="12.762732086490438"><ele>15.0</ele><time>2026-05-03T14:38:50.002Z</time></trkpt><trkpt lat="43.95722051575498" lon="12.762885708842791"><ele>15.0</ele><time>2026-05-03T14:38:52.002Z</time></trkpt><trkpt lat="43.95718494858371" lon="12.762967594225087"><ele>15.0</ele><time>2026-05-03T14:38:53.002Z</time></trkpt><trkpt lat="43.95714877907233" lon="12.763054508292837"><ele>16.0</ele><time>2026-05-03T14:38:54.002Z</time></trkpt><trkpt lat="43.95710986840561" lon="12.763143550000581"><ele>17.0</ele><time>2026-05-03T14:38:55.002Z</time></trkpt><trkpt lat="43.957073563495484" lon="12.763222290323643"><ele>18.0</ele><time>2026-05-03T14:38:56.002Z</time></trkpt><trkpt lat="43.957010941064105" lon="12.763350801825991"><ele>19.0</ele><time>2026-05-03T14:38:58.002Z</time></trkpt><trkpt lat="43.956967578030195" lon="12.76346057649755"><ele>20.0</ele><time>2026-05-03T14:39:00.002Z</time></trkpt><trkpt lat="43.95694080917087" lon="12.763550608884124"><ele>21.0</ele><time>2026-05-03T14:39:02.002Z</time></trkpt><trkpt lat="43.95691519971725" lon="12.763632087740852"><ele>21.0</ele><time>2026-05-03T14:39:04.002Z</time></trkpt><trkpt lat="43.95688949530252" lon="12.76372332714572"><ele>21.0</ele><time>2026-05-03T14:39:07.002Z</time></trkpt><trkpt lat="43.95687206075195" lon="12.763826187965048"><ele>21.0</ele><time>2026-05-03T14:39:11.003Z</time></trkpt><trkpt lat="43.95686923685626" lon="12.763933952928713"><ele>21.0</ele><time>2026-05-03T14:39:24.003Z</time></trkpt><trkpt lat="43.95685793370599" lon="12.764112112933987"><ele>21.0</ele><time>2026-05-03T14:39:26.003Z</time></trkpt><trkpt lat="43.956865109064154" lon="12.764238576553442"><ele>21.0</ele><time>2026-05-03T14:39:27.003Z</time></trkpt><trkpt lat="43.95688166764388" lon="12.76437131668377"><ele>20.6</ele><time>2026-05-03T14:39:28.003Z</time></trkpt><trkpt lat="43.95690836947529" lon="12.764512355305797"><ele>20.200000000000003</ele><time>2026-05-03T14:39:29.003Z</time></trkpt><trkpt lat="43.9569428838506" lon="12.764666278188272"><ele>19.799999999999997</ele><time>2026-05-03T14:39:30.003Z</time></trkpt><trkpt lat="43.95698210380067" lon="12.764817810650031"><ele>19.4</ele><time>2026-05-03T14:39:31.003Z</time></trkpt><trkpt lat="43.957014548617245" lon="12.7649529378587"><ele>19.0</ele><time>2026-05-03T14:39:32.003Z</time></trkpt><trkpt lat="43.957042228346936" lon="12.765082510192263"><ele>18.833333333333332</ele><time>2026-05-03T14:39:33.003Z</time></trkpt><trkpt lat="43.95707779692732" lon="12.765215907829282"><ele>18.666666666666664</ele><time>2026-05-03T14:39:34.003Z</time></trkpt><trkpt lat="43.95710869570286" lon="12.765336905685722"><ele>18.5</ele><time>2026-05-03T14:39:35.003Z</time></trkpt><trkpt lat="43.95713679675361" lon="12.765439013949596"><ele>18.333333333333332</ele><time>2026-05-03T14:39:36.003Z</time></trkpt><trkpt lat="43.95715933926441" lon="12.765523064524023"><ele>18.166666666666668</ele><time>2026-05-03T14:39:37Z</time></trkpt><trkpt lat="43.95717718995239" lon="12.765648674118452"><ele>18.0</ele><time>2026-05-03T14:39:39Z</time></trkpt><trkpt lat="43.95715563289777" lon="12.765749861415289"><ele>18.0</ele><time>2026-05-03T14:39:41Z</time></trkpt><trkpt lat="43.95710823543474" lon="12.765841759856485"><ele>18.0</ele><time>2026-05-03T14:39:43Z</time></trkpt><trkpt lat="43.95704132569448" lon="12.765920699470447"><ele>18.0</ele><time>2026-05-03T14:39:45Z</time></trkpt><trkpt lat="43.95694423683668" lon="12.765974190801007"><ele>18.0</ele><time>2026-05-03T14:39:47Z</time></trkpt><trkpt lat="43.956836154401486" lon="12.765962513865922"><ele>18.0</ele><time>2026-05-03T14:39:49Z</time></trkpt><trkpt lat="43.956745389528415" lon="12.76589164977357"><ele>17.333333333333332</ele><time>2026-05-03T14:39:51Z</time></trkpt><trkpt lat="43.956655745653116" lon="12.765871141592948"><ele>16.666666666666668</ele><time>2026-05-03T14:39:53Z</time></trkpt><trkpt lat="43.956661033359396" lon="12.765742981640974"><ele>16.0</ele><time>2026-05-03T14:39:54Z</time></trkpt><trkpt lat="43.95662548137475" lon="12.765627134969575"><ele>15.333333333333334</ele><time>2026-05-03T14:40:01Z</time></trkpt><trkpt lat="43.95665552718794" lon="12.76552237633129"><ele>14.666666666666668</ele><time>2026-05-03T14:40:02Z</time></trkpt><trkpt lat="43.95667232456864" lon="12.765408619764898"><ele>14.0</ele><time>2026-05-03T14:40:03Z</time></trkpt><trkpt lat="43.956685008328456" lon="12.765290284582486"><ele>13.833333333333334</ele><time>2026-05-03T14:40:04Z</time></trkpt><trkpt lat="43.95668944387167" lon="12.765189444122553"><ele>13.666666666666668</ele><time>2026-05-03T14:40:05Z</time></trkpt><trkpt lat="43.95668965461802" lon="12.765080888398662"><ele>13.5</ele><time>2026-05-03T14:40:06Z</time></trkpt><trkpt lat="43.956685212291745" lon="12.764955381294836"><ele>13.333333333333332</ele><time>2026-05-03T14:40:07Z</time></trkpt><trkpt lat="43.95667452331218" lon="12.764815049327577"><ele>13.166666666666666</ele><time>2026-05-03T14:40:08.001Z</time></trkpt><trkpt lat="43.95665646964646" lon="12.764669823875842"><ele>13.0</ele><time>2026-05-03T14:40:09.001Z</time></trkpt><trkpt lat="43.956627757380375" lon="12.764505952882477"><ele>13.75</ele><time>2026-05-03T14:40:10.001Z</time></trkpt><trkpt lat="43.956591012524775" lon="12.764334447254761"><ele>14.5</ele><time>2026-05-03T14:40:11.001Z</time></trkpt><trkpt lat="43.95654130707413" lon="12.764151702507334"><ele>15.25</ele><time>2026-05-03T14:40:12.001Z</time></trkpt><trkpt lat="43.95648680101516" lon="12.763978355963086"><ele>16.0</ele><time>2026-05-03T14:40:13.001Z</time></trkpt><trkpt lat="43.956413940350444" lon="12.763806902268472"><ele>16.0</ele><time>2026-05-03T14:40:14.001Z</time></trkpt><trkpt lat="43.956331492932115" lon="12.763639561272349"><ele>16.0</ele><time>2026-05-03T14:40:15.001Z</time></trkpt><trkpt lat="43.95623251477802" lon="12.763494579988572"><ele>16.0</ele><time>2026-05-03T14:40:16.001Z</time></trkpt><trkpt lat="43.95612750595542" lon="12.763363324985061"><ele>16.0</ele><time>2026-05-03T14:40:17.001Z</time></trkpt><trkpt lat="43.95601860088308" lon="12.76324399075533"><ele>15.75</ele><time>2026-05-03T14:40:18.001Z</time></trkpt><trkpt lat="43.95590625588927" lon="12.763127396276149"><ele>15.5</ele><time>2026-05-03T14:40:19.001Z</time></trkpt><trkpt lat="43.9557960215652" lon="12.763012683242657"><ele>15.25</ele><time>2026-05-03T14:40:20.001Z</time></trkpt><trkpt lat="43.95568164236031" lon="12.76289673033979"><ele>15.0</ele><time>2026-05-03T14:40:21.001Z</time></trkpt><trkpt lat="43.95556915521472" lon="12.762784200373234"><ele>14.0</ele><time>2026-05-03T14:40:22.001Z</time></trkpt><trkpt lat="43.95546241324368" lon="12.762679765999286"><ele>13.0</ele><time>2026-05-03T14:40:23.001Z</time></trkpt><trkpt lat="43.955357875186856" lon="12.762579561772313"><ele>12.0</ele><time>2026-05-03T14:40:24.001Z</time></trkpt><trkpt lat="43.95525647109555" lon="12.76247351521866"><ele>11.0</ele><time>2026-05-03T14:40:25.001Z</time></trkpt><trkpt lat="43.95515158077604" lon="12.762362821510475"><ele>11.0</ele><time>2026-05-03T14:40:26.001Z</time></trkpt><trkpt lat="43.955045367081375" lon="12.76224459553682"><ele>11.0</ele><time>2026-05-03T14:40:27.001Z</time></trkpt><trkpt lat="43.95492957592102" lon="12.762119203284772"><ele>11.0</ele><time>2026-05-03T14:40:28.001Z</time></trkpt><trkpt lat="43.9548107395849" lon="12.761985162091552"><ele>11.0</ele><time>2026-05-03T14:40:29.001Z</time></trkpt><trkpt lat="43.95469614067694" lon="12.761849693302057"><ele>10.333333333333332</ele><time>2026-05-03T14:40:30.001Z</time></trkpt><trkpt lat="43.954585287843" lon="12.761706736047394"><ele>9.666666666666666</ele><time>2026-05-03T14:40:31.001Z</time></trkpt><trkpt lat="43.954475943840244" lon="12.761550154851955"><ele>9.0</ele><time>2026-05-03T14:40:32.001Z</time></trkpt><trkpt lat="43.95437618256916" lon="12.761381156112476"><ele>9.0</ele><time>2026-05-03T14:40:33.001Z</time></trkpt><trkpt lat="43.95429446854758" lon="12.76120876575819"><ele>9.0</ele><time>2026-05-03T14:40:34.001Z</time></trkpt><trkpt lat="43.95421616283838" lon="12.761031630809837"><ele>9.0</ele><time>2026-05-03T14:40:35.001Z</time></trkpt><trkpt lat="43.954147163894426" lon="12.760849665231834"><ele>9.0</ele><time>2026-05-03T14:40:36.001Z</time></trkpt><trkpt lat="43.95408739550139" lon="12.760658548216531"><ele>9.0</ele><time>2026-05-03T14:40:37.001Z</time></trkpt><trkpt lat="43.95403840543486" lon="12.76045975876334"><ele>9.0</ele><time>2026-05-03T14:40:38.001Z</time></trkpt><trkpt lat="43.95398949395885" lon="12.760255264858705"><ele>9.0</ele><time>2026-05-03T14:40:39.001Z</time></trkpt><trkpt lat="43.95395040387898" lon="12.760052110290069"><ele>9.0</ele><time>2026-05-03T14:40:40.001Z</time></trkpt><trkpt lat="43.95391811411156" lon="12.759852897074841"><ele>9.0</ele><time>2026-05-03T14:40:41.001Z</time></trkpt><trkpt lat="43.953886501024066" lon="12.759645643992378"><ele>9.0</ele><time>2026-05-03T14:40:42.001Z</time></trkpt><trkpt lat="43.953854359179566" lon="12.759431837831846"><ele>9.0</ele><time>2026-05-03T14:40:43.001Z</time></trkpt><trkpt lat="43.9538239309885" lon="12.759208257150947"><ele>9.0</ele><time>2026-05-03T14:40:44.002Z</time></trkpt><trkpt lat="43.953798742750806" lon="12.758983725503038"><ele>9.0</ele><time>2026-05-03T14:40:45.002Z</time></trkpt><trkpt lat="43.95376842573161" lon="12.758759266090498"><ele>9.0</ele><time>2026-05-03T14:40:46.002Z</time></trkpt><trkpt lat="43.95373956235118" lon="12.758535020147466"><ele>9.0</ele><time>2026-05-03T14:40:47.002Z</time></trkpt><trkpt lat="43.95370888939112" lon="12.758304376902974"><ele>9.0</ele><time>2026-05-03T14:40:48.002Z</time></trkpt><trkpt lat="43.95367867950743" lon="12.758082125106965"><ele>9.0</ele><time>2026-05-03T14:40:49.002Z</time></trkpt><trkpt lat="43.95364566900403" lon="12.75784685376719"><ele>9.0</ele><time>2026-05-03T14:40:50.002Z</time></trkpt><trkpt lat="43.95361737869396" lon="12.757614322864425"><ele>9.0</ele><time>2026-05-03T14:40:51.002Z</time></trkpt><trkpt lat="43.953587265103955" lon="12.757378253479754"><ele>9.0</ele><time>2026-05-03T14:40:52.002Z</time></trkpt><trkpt lat="43.953556637861865" lon="12.757134450916048"><ele>9.0</ele><time>2026-05-03T14:40:53.002Z</time></trkpt><trkpt lat="43.95352730179542" lon="12.756896782399208"><ele>9.0</ele><time>2026-05-03T14:40:54.002Z</time></trkpt><trkpt lat="43.95349549153257" lon="12.756659251744118"><ele>8.666666666666666</ele><time>2026-05-03T14:40:55.002Z</time></trkpt><trkpt lat="43.95346502484956" lon="12.756419069802684"><ele>8.333333333333332</ele><time>2026-05-03T14:40:56.002Z</time></trkpt><trkpt lat="43.95343789971496" lon="12.756179263896081"><ele>8.0</ele><time>2026-05-03T14:40:57.002Z</time></trkpt><trkpt lat="43.95341057712438" lon="12.755934543656776"><ele>8.0</ele><time>2026-05-03T14:40:58.002Z</time></trkpt><trkpt lat="43.95338516448428" lon="12.755684153357308"><ele>8.0</ele><time>2026-05-03T14:40:59.002Z</time></trkpt><trkpt lat="43.95336611793581" lon="12.755437838627014"><ele>8.0</ele><time>2026-05-03T14:41:00.002Z</time></trkpt><trkpt lat="43.95334884237847" lon="12.75518961506176"><ele>8.333333333333332</ele><time>2026-05-03T14:41:01.002Z</time></trkpt><trkpt lat="43.953333582018104" lon="12.754946356791173"><ele>8.666666666666666</ele><time>2026-05-03T14:41:02.002Z</time></trkpt><trkpt lat="43.95331536757884" lon="12.754696781392656"><ele>9.0</ele><time>2026-05-03T14:41:03.002Z</time></trkpt><trkpt lat="43.95329659954634" lon="12.75444511494677"><ele>9.333333333333334</ele><time>2026-05-03T14:41:04.002Z</time></trkpt><trkpt lat="43.95327869737542" lon="12.754201027864454"><ele>9.666666666666668</ele><time>2026-05-03T14:41:05.002Z</time></trkpt><trkpt lat="43.95326433359967" lon="12.753959674056654"><ele>10.0</ele><time>2026-05-03T14:41:06.002Z</time></trkpt><trkpt lat="43.95325268123162" lon="12.75372170081985"><ele>11.0</ele><time>2026-05-03T14:41:07.002Z</time></trkpt><trkpt lat="43.95323887322947" lon="12.753487744066623"><ele>12.0</ele><time>2026-05-03T14:41:08.002Z</time></trkpt><trkpt lat="43.95323209725493" lon="12.753243953074612"><ele>13.0</ele><time>2026-05-03T14:41:09.002Z</time></trkpt><trkpt lat="43.953226957110154" lon="12.753001737051866"><ele>13.0</ele><time>2026-05-03T14:41:10.002Z</time></trkpt><trkpt lat="43.95322070145934" lon="12.752781246887444"><ele>13.0</ele><time>2026-05-03T14:41:11.002Z</time></trkpt><trkpt lat="43.953216720699736" lon="12.752574550764068"><ele>13.0</ele><time>2026-05-03T14:41:12.002Z</time></trkpt><trkpt lat="43.95321552950842" lon="12.752381825059516"><ele>13.0</ele><time>2026-05-03T14:41:13.002Z</time></trkpt><trkpt lat="43.953214013931536" lon="12.752196333014636"><ele>13.0</ele><time>2026-05-03T14:41:14.002Z</time></trkpt><trkpt lat="43.95321414669616" lon="12.752027626925859"><ele>13.0</ele><time>2026-05-03T14:41:15.002Z</time></trkpt><trkpt lat="43.95321077270999" lon="12.751865519619102"><ele>13.0</ele><time>2026-05-03T14:41:16.002Z</time></trkpt><trkpt lat="43.95321479719243" lon="12.751696498780701"><ele>13.0</ele><time>2026-05-03T14:41:17.002Z</time></trkpt><trkpt lat="43.95321503620773" lon="12.751531392617814"><ele>12.75</ele><time>2026-05-03T14:41:18.002Z</time></trkpt><trkpt lat="43.95321860455636" lon="12.751376622020286"><ele>12.5</ele><time>2026-05-03T14:41:19.002Z</time></trkpt><trkpt lat="43.95321928099357" lon="12.751222496956387"><ele>12.25</ele><time>2026-05-03T14:41:20.003Z</time></trkpt><trkpt lat="43.95321855627862" lon="12.751068254122606"><ele>12.0</ele><time>2026-05-03T14:41:21.003Z</time></trkpt><trkpt lat="43.95321719226957" lon="12.75090358687781"><ele>12.0</ele><time>2026-05-03T14:41:22.003Z</time></trkpt><trkpt lat="43.953217675775086" lon="12.750728701530168"><ele>12.0</ele><time>2026-05-03T14:41:23.003Z</time></trkpt><trkpt lat="43.95321977293118" lon="12.750556835169569"><ele>12.0</ele><time>2026-05-03T14:41:24.003Z</time></trkpt><trkpt lat="43.95322154501975" lon="12.750385454474136"><ele>12.0</ele><time>2026-05-03T14:41:25.003Z</time></trkpt><trkpt lat="43.95322288842056" lon="12.750212483684857"><ele>11.5</ele><time>2026-05-03T14:41:26.003Z</time></trkpt><trkpt lat="43.953226100450024" lon="12.750042319991413"><ele>11.0</ele><time>2026-05-03T14:41:27.003Z</time></trkpt><trkpt lat="43.953229027527435" lon="12.749878808031873"><ele>10.5</ele><time>2026-05-03T14:41:28.003Z</time></trkpt><trkpt lat="43.953231862798404" lon="12.749719082840228"><ele>10.0</ele><time>2026-05-03T14:41:29.003Z</time></trkpt><trkpt lat="43.95323695033091" lon="12.749553355455005"><ele>10.0</ele><time>2026-05-03T14:41:30.003Z</time></trkpt><trkpt lat="43.953237877619245" lon="12.749396948898378"><ele>10.0</ele><time>2026-05-03T14:41:31.003Z</time></trkpt><trkpt lat="43.95323971408022" lon="12.7492490975298"><ele>10.0</ele><time>2026-05-03T14:41:32.003Z</time></trkpt><trkpt lat="43.95324191922184" lon="12.749108839942577"><ele>10.0</ele><time>2026-05-03T14:41:33.003Z</time></trkpt><trkpt lat="43.953242274963806" lon="12.748960721385403"><ele>10.0</ele><time>2026-05-03T14:41:34.003Z</time></trkpt><trkpt lat="43.95324005096028" lon="12.748808280585362"><ele>10.0</ele><time>2026-05-03T14:41:35.003Z</time></trkpt><trkpt lat="43.95324126612966" lon="12.7486569409054"><ele>10.0</ele><time>2026-05-03T14:41:36.003Z</time></trkpt><trkpt lat="43.953237544333504" lon="12.748520951648"><ele>10.0</ele><time>2026-05-03T14:41:37.003Z</time></trkpt><trkpt lat="43.95323681079648" lon="12.748399366925618"><ele>10.0</ele><time>2026-05-03T14:41:38.003Z</time></trkpt><trkpt lat="43.95323153512488" lon="12.748279730670438"><ele>10.0</ele><time>2026-05-03T14:41:39.003Z</time></trkpt><trkpt lat="43.953227207860365" lon="12.748156641040975"><ele>10.0</ele><time>2026-05-03T14:41:40.003Z</time></trkpt><trkpt lat="43.95322211464873" lon="12.74802104856946"><ele>10.0</ele><time>2026-05-03T14:41:41.003Z</time></trkpt><trkpt lat="43.95321915371092" lon="12.747891480906137"><ele>10.0</ele><time>2026-05-03T14:41:42.003Z</time></trkpt><trkpt lat="43.95321134487813" lon="12.74775197955033"><ele>10.0</ele><time>2026-05-03T14:41:43Z</time></trkpt><trkpt lat="43.953201153891236" lon="12.747612583408563"><ele>10.0</ele><time>2026-05-03T14:41:44Z</time></trkpt><trkpt lat="43.95319275143531" lon="12.747466330422496"><ele>10.2</ele><time>2026-05-03T14:41:45Z</time></trkpt><trkpt lat="43.953182342470434" lon="12.747318327520697"><ele>10.4</ele><time>2026-05-03T14:41:46Z</time></trkpt><trkpt lat="43.95317058698386" lon="12.747174967034498"><ele>10.600000000000001</ele><time>2026-05-03T14:41:47Z</time></trkpt><trkpt lat="43.95316047117812" lon="12.74703020121078"><ele>10.8</ele><time>2026-05-03T14:41:48Z</time></trkpt><trkpt lat="43.953140348040876" lon="12.7468772452363"><ele>11.0</ele><time>2026-05-03T14:41:49Z</time></trkpt><trkpt lat="43.953127839910735" lon="12.746723351776794"><ele>11.5</ele><time>2026-05-03T14:41:50Z</time></trkpt><trkpt lat="43.95310731512893" lon="12.746568967697723"><ele>12.0</ele><time>2026-05-03T14:41:51Z</time></trkpt><trkpt lat="43.95308763530529" lon="12.746409577952"><ele>12.5</ele><time>2026-05-03T14:41:52Z</time></trkpt><trkpt lat="43.953065784631626" lon="12.746250747252342"><ele>13.0</ele><time>2026-05-03T14:41:53Z</time></trkpt><trkpt lat="43.953040207278484" lon="12.746085824093562"><ele>13.25</ele><time>2026-05-03T14:41:54Z</time></trkpt><trkpt lat="43.953012274098334" lon="12.745926893527683"><ele>13.5</ele><time>2026-05-03T14:41:55Z</time></trkpt><trkpt lat="43.95298151739133" lon="12.7457716568098"><ele>13.75</ele><time>2026-05-03T14:41:56Z</time></trkpt><trkpt lat="43.952951027429286" lon="12.745626786744344"><ele>14.0</ele><time>2026-05-03T14:41:57Z</time></trkpt><trkpt lat="43.952918813918245" lon="12.745481054989478"><ele>14.0</ele><time>2026-05-03T14:41:58Z</time></trkpt><trkpt lat="43.952890638493216" lon="12.745349111102925"><ele>13.999999999999998</ele><time>2026-05-03T14:41:59Z</time></trkpt><trkpt lat="43.95287186321024" lon="12.74523197611552"><ele>13.999999999999998</ele><time>2026-05-03T14:42:00Z</time></trkpt><trkpt lat="43.95284181310608" lon="12.745111996867841"><ele>14.0</ele><time>2026-05-03T14:42:01Z</time></trkpt><trkpt lat="43.95281174630158" lon="12.744992419804673"><ele>14.0</ele><time>2026-05-03T14:42:02Z</time></trkpt><trkpt lat="43.952786027365356" lon="12.744873445087194"><ele>14.000000000000002</ele><time>2026-05-03T14:42:03Z</time></trkpt><trkpt lat="43.952760673174616" lon="12.744770613480034"><ele>14.0</ele><time>2026-05-03T14:42:04Z</time></trkpt><trkpt lat="43.95273234472738" lon="12.744676220156242"><ele>14.0</ele><time>2026-05-03T14:42:05Z</time></trkpt><trkpt lat="43.952704958354985" lon="12.744561614844915"><ele>14.0</ele><time>2026-05-03T14:42:06Z</time></trkpt><trkpt lat="43.95267327447927" lon="12.744428574985694"><ele>14.000000000000002</ele><time>2026-05-03T14:42:07Z</time></trkpt><trkpt lat="43.95263909809024" lon="12.744284011115747"><ele>14.0</ele><time>2026-05-03T14:42:08Z</time></trkpt><trkpt lat="43.95260031689029" lon="12.744151952536376"><ele>13.5</ele><time>2026-05-03T14:42:09Z</time></trkpt><trkpt lat="43.95256208283739" lon="12.74403174657211"><ele>13.0</ele><time>2026-05-03T14:42:10Z</time></trkpt><trkpt lat="43.95252325868303" lon="12.743897380565398"><ele>12.5</ele><time>2026-05-03T14:42:11Z</time></trkpt><trkpt lat="43.95247823977303" lon="12.743742704515078"><ele>12.0</ele><time>2026-05-03T14:42:12Z</time></trkpt><trkpt lat="43.95242458639931" lon="12.743565790073067"><ele>12.0</ele><time>2026-05-03T14:42:13Z</time></trkpt><trkpt lat="43.95236926825295" lon="12.743348228669522"><ele>12.0</ele><time>2026-05-03T14:42:14Z</time></trkpt><trkpt lat="43.952311026292975" lon="12.743118575678647"><ele>12.0</ele><time>2026-05-03T14:42:15.001Z</time></trkpt><trkpt lat="43.952254372003175" lon="12.742922821639448"><ele>12.0</ele><time>2026-05-03T14:42:16.001Z</time></trkpt><trkpt lat="43.9521999961658" lon="12.742740191845778"><ele>12.0</ele><time>2026-05-03T14:42:17.001Z</time></trkpt><trkpt lat="43.95214552895933" lon="12.742564224916046"><ele>12.0</ele><time>2026-05-03T14:42:18.001Z</time></trkpt><trkpt lat="43.95209471191958" lon="12.742396575514833"><ele>12.0</ele><time>2026-05-03T14:42:19.001Z</time></trkpt><trkpt lat="43.9520432748852" lon="12.74223086186935"><ele>12.0</ele><time>2026-05-03T14:42:20.001Z</time></trkpt><trkpt lat="43.95199193720584" lon="12.742068767469402"><ele>12.0</ele><time>2026-05-03T14:42:21.001Z</time></trkpt><trkpt lat="43.95194781953403" lon="12.741919701483411"><ele>12.0</ele><time>2026-05-03T14:42:22.001Z</time></trkpt><trkpt lat="43.95190300188871" lon="12.741772955899187"><ele>12.0</ele><time>2026-05-03T14:42:23.001Z</time></trkpt><trkpt lat="43.95184904469661" lon="12.741609881848953"><ele>12.0</ele><time>2026-05-03T14:42:24.001Z</time></trkpt><trkpt lat="43.9517914785452" lon="12.741425465611957"><ele>12.0</ele><time>2026-05-03T14:42:25.001Z</time></trkpt><trkpt lat="43.95173366922123" lon="12.741232206425014"><ele>12.0</ele><time>2026-05-03T14:42:26.001Z</time></trkpt><trkpt lat="43.95167907057302" lon="12.741042682453296"><ele>12.0</ele><time>2026-05-03T14:42:27.001Z</time></trkpt><trkpt lat="43.95163204920761" lon="12.74087326265076"><ele>12.399999999999999</ele><time>2026-05-03T14:42:28.001Z</time></trkpt><trkpt lat="43.95159929592689" lon="12.740726781096372"><ele>12.799999999999999</ele><time>2026-05-03T14:42:29.001Z</time></trkpt><trkpt lat="43.95155989424807" lon="12.740596170283029"><ele>13.2</ele><time>2026-05-03T14:42:30.001Z</time></trkpt><trkpt lat="43.951522574495186" lon="12.740481233792398"><ele>13.6</ele><time>2026-05-03T14:42:31.001Z</time></trkpt><trkpt lat="43.951486449452204" lon="12.740356304944942"><ele>14.0</ele><time>2026-05-03T14:42:32.001Z</time></trkpt><trkpt lat="43.95143527458485" lon="12.740196829146342"><ele>14.0</ele><time>2026-05-03T14:42:33.001Z</time></trkpt><trkpt lat="43.951386876494375" lon="12.740008612470191"><ele>14.0</ele><time>2026-05-03T14:42:34.001Z</time></trkpt><trkpt lat="43.95134102459105" lon="12.739810521768993"><ele>14.0</ele><time>2026-05-03T14:42:35.001Z</time></trkpt><trkpt lat="43.95129966474748" lon="12.739613481694368"><ele>14.0</ele><time>2026-05-03T14:42:36.001Z</time></trkpt><trkpt lat="43.95125416785879" lon="12.739411820039512"><ele>14.333333333333334</ele><time>2026-05-03T14:42:37.001Z</time></trkpt><trkpt lat="43.9512093261187" lon="12.739207713657661"><ele>14.666666666666668</ele><time>2026-05-03T14:42:38.001Z</time></trkpt><trkpt lat="43.95116878054601" lon="12.738999180501617"><ele>15.0</ele><time>2026-05-03T14:42:39.001Z</time></trkpt><trkpt lat="43.951128866477426" lon="12.738781704819202"><ele>15.0</ele><time>2026-05-03T14:42:40.001Z</time></trkpt><trkpt lat="43.95109666546313" lon="12.738574275566908"><ele>15.0</ele><time>2026-05-03T14:42:41.001Z</time></trkpt><trkpt lat="43.95106586144855" lon="12.73837595697698"><ele>15.0</ele><time>2026-05-03T14:42:42.001Z</time></trkpt><trkpt lat="43.95104005378773" lon="12.738179509232381"><ele>15.0</ele><time>2026-05-03T14:42:43.001Z</time></trkpt><trkpt lat="43.95101657699757" lon="12.737988729031091"><ele>14.75</ele><time>2026-05-03T14:42:44.001Z</time></trkpt><trkpt lat="43.95099781561763" lon="12.737796312485195"><ele>14.5</ele><time>2026-05-03T14:42:45.001Z</time></trkpt><trkpt lat="43.95098349351577" lon="12.737601917834"><ele>14.25</ele><time>2026-05-03T14:42:46.001Z</time></trkpt><trkpt lat="43.95096902157043" lon="12.737413538468124"><ele>14.0</ele><time>2026-05-03T14:42:47.001Z</time></trkpt><trkpt lat="43.950962567250926" lon="12.7372280393172"><ele>14.0</ele><time>2026-05-03T14:42:48.001Z</time></trkpt><trkpt lat="43.950953158802356" lon="12.737031513952159"><ele>14.0</ele><time>2026-05-03T14:42:49.001Z</time></trkpt><trkpt lat="43.95094863730758" lon="12.736825875105842"><ele>14.0</ele><time>2026-05-03T14:42:50.001Z</time></trkpt><trkpt lat="43.950948341059984" lon="12.73661102964126"><ele>14.0</ele><time>2026-05-03T14:42:51.002Z</time></trkpt><trkpt lat="43.950953989750296" lon="12.736392243722037"><ele>13.75</ele><time>2026-05-03T14:42:52.002Z</time></trkpt><trkpt lat="43.95096624851014" lon="12.736198571921094"><ele>13.5</ele><time>2026-05-03T14:42:53.002Z</time></trkpt><trkpt lat="43.95097911254065" lon="12.736020243078398"><ele>13.25</ele><time>2026-05-03T14:42:54.002Z</time></trkpt><trkpt lat="43.950993634117175" lon="12.735843119276948"><ele>13.0</ele><time>2026-05-03T14:42:55.002Z</time></trkpt><trkpt lat="43.95101225909648" lon="12.735668318797646"><ele>12.8</ele><time>2026-05-03T14:42:56.002Z</time></trkpt><trkpt lat="43.951034219296965" lon="12.735497064065012"><ele>12.600000000000001</ele><time>2026-05-03T14:42:57.002Z</time></trkpt><trkpt lat="43.95105542312751" lon="12.735343515941967"><ele>12.399999999999999</ele><time>2026-05-03T14:42:58.002Z</time></trkpt><trkpt lat="43.951074894427265" lon="12.73520449383728"><ele>12.2</ele><time>2026-05-03T14:42:59.002Z</time></trkpt><trkpt lat="43.951094303009576" lon="12.735075584281002"><ele>12.0</ele><time>2026-05-03T14:43:00.002Z</time></trkpt><trkpt lat="43.9511172079673" lon="12.734964521331888"><ele>11.999999999999998</ele><time>2026-05-03T14:43:01.002Z</time></trkpt><trkpt lat="43.951134627768035" lon="12.734856867833793"><ele>12.0</ele><time>2026-05-03T14:43:02.002Z</time></trkpt><trkpt lat="43.951157074991556" lon="12.73475695341866"><ele>12.0</ele><time>2026-05-03T14:43:03.002Z</time></trkpt><trkpt lat="43.951176858819785" lon="12.734669841108497"><ele>12.0</ele><time>2026-05-03T14:43:04.002Z</time></trkpt><trkpt lat="43.95119701823758" lon="12.73457727937681"><ele>12.0</ele><time>2026-05-03T14:43:05.002Z</time></trkpt><trkpt lat="43.951219084669084" lon="12.73447598920826"><ele>11.999999999999998</ele><time>2026-05-03T14:43:06.002Z</time></trkpt><trkpt lat="43.951243603454294" lon="12.734373643509006"><ele>12.0</ele><time>2026-05-03T14:43:07.002Z</time></trkpt><trkpt lat="43.951270044576155" lon="12.734271942599149"><ele>12.399999999999999</ele><time>2026-05-03T14:43:08.002Z</time></trkpt><trkpt lat="43.95129584253588" lon="12.734175685320352"><ele>12.799999999999999</ele><time>2026-05-03T14:43:09.002Z</time></trkpt><trkpt lat="43.9513243629552" lon="12.734069155990326"><ele>13.2</ele><time>2026-05-03T14:43:10.002Z</time></trkpt><trkpt lat="43.951351876931184" lon="12.733972190330407"><ele>13.6</ele><time>2026-05-03T14:43:11.002Z</time></trkpt><trkpt lat="43.951400811475494" lon="12.733821162508608"><ele>14.0</ele><time>2026-05-03T14:43:13.002Z</time></trkpt><trkpt lat="43.95144869200478" lon="12.73369741282691"><ele>14.0</ele><time>2026-05-03T14:43:15.002Z</time></trkpt><trkpt lat="43.95151235089788" lon="12.733536746553495"><ele>14.0</ele><time>2026-05-03T14:43:17.002Z</time></trkpt><trkpt lat="43.951579018080245" lon="12.733398131997363"><ele>14.0</ele><time>2026-05-03T14:43:19.002Z</time></trkpt><trkpt lat="43.95164354388711" lon="12.733266898101382"><ele>14.0</ele><time>2026-05-03T14:43:21.002Z</time></trkpt><trkpt lat="43.95171496681789" lon="12.733131392242155"><ele>14.000000000000002</ele><time>2026-05-03T14:43:23.002Z</time></trkpt><trkpt lat="43.95178631963967" lon="12.732997370301742"><ele>14.0</ele><time>2026-05-03T14:43:25.002Z</time></trkpt><trkpt lat="43.95182583043016" lon="12.732928428445575"><ele>14.0</ele><time>2026-05-03T14:43:26.003Z</time></trkpt><trkpt lat="43.951868943661104" lon="12.732859394679256"><ele>14.0</ele><time>2026-05-03T14:43:27.003Z</time></trkpt><trkpt lat="43.95194639111447" lon="12.732728938337186"><ele>14.000000000000002</ele><time>2026-05-03T14:43:29.003Z</time></trkpt><trkpt lat="43.951988486904945" lon="12.732662843509589"><ele>14.0</ele><time>2026-05-03T14:43:30.003Z</time></trkpt><trkpt lat="43.9520329037017" lon="12.732587812111408"><ele>13.5</ele><time>2026-05-03T14:43:31.003Z</time></trkpt><trkpt lat="43.952093693686436" lon="12.732493298951443"><ele>13.0</ele><time>2026-05-03T14:43:32.003Z</time></trkpt><trkpt lat="43.952176534790425" lon="12.732377412418883"><ele>12.5</ele><time>2026-05-03T14:43:33.003Z</time></trkpt><trkpt lat="43.95227005651072" lon="12.732237463288717"><ele>12.0</ele><time>2026-05-03T14:43:34.003Z</time></trkpt><trkpt lat="43.952363165349645" lon="12.732110377726354"><ele>12.0</ele><time>2026-05-03T14:43:35.003Z</time></trkpt><trkpt lat="43.95245162906894" lon="12.731988382142923"><ele>12.0</ele><time>2026-05-03T14:43:36.003Z</time></trkpt><trkpt lat="43.952541162749164" lon="12.731868058385945"><ele>12.0</ele><time>2026-05-03T14:43:37.003Z</time></trkpt><trkpt lat="43.95263780373207" lon="12.731750514101607"><ele>12.0</ele><time>2026-05-03T14:43:38.003Z</time></trkpt><trkpt lat="43.952731992980446" lon="12.731626382282569"><ele>13.0</ele><time>2026-05-03T14:43:39.003Z</time></trkpt><trkpt lat="43.9528252381851" lon="12.731510541549333"><ele>14.0</ele><time>2026-05-03T14:43:40.003Z</time></trkpt><trkpt lat="43.95291810663932" lon="12.7314024941427"><ele>15.0</ele><time>2026-05-03T14:43:41.003Z</time></trkpt><trkpt lat="43.95302018655993" lon="12.731286790676128"><ele>16.0</ele><time>2026-05-03T14:43:42.003Z</time></trkpt><trkpt lat="43.953127786871214" lon="12.731160401740613"><ele>16.0</ele><time>2026-05-03T14:43:43.003Z</time></trkpt><trkpt lat="43.95323564508353" lon="12.731039381577201"><ele>16.0</ele><time>2026-05-03T14:43:44.003Z</time></trkpt><trkpt lat="43.9533449869527" lon="12.730915516369791"><ele>16.0</ele><time>2026-05-03T14:43:45.003Z</time></trkpt><trkpt lat="43.953449760550534" lon="12.730798366792031"><ele>16.0</ele><time>2026-05-03T14:43:46.003Z</time></trkpt><trkpt lat="43.953543933675135" lon="12.730689481773286"><ele>16.0</ele><time>2026-05-03T14:43:47.003Z</time></trkpt><trkpt lat="43.953637854505786" lon="12.730587950251484"><ele>16.0</ele><time>2026-05-03T14:43:48.003Z</time></trkpt><trkpt lat="43.953726755595355" lon="12.73048759351621"><ele>16.0</ele><time>2026-05-03T14:43:49.001Z</time></trkpt><trkpt lat="43.95380568341161" lon="12.73039817878909"><ele>16.0</ele><time>2026-05-03T14:43:50.001Z</time></trkpt><trkpt lat="43.95388340624154" lon="12.730310561693036"><ele>16.0</ele><time>2026-05-03T14:43:51.001Z</time></trkpt><trkpt lat="43.953959760541785" lon="12.730224853425938"><ele>15.833333333333332</ele><time>2026-05-03T14:43:52.001Z</time></trkpt><trkpt lat="43.95403193965065" lon="12.730153101612546"><ele>15.666666666666666</ele><time>2026-05-03T14:43:53.001Z</time></trkpt><trkpt lat="43.95410100710876" lon="12.730076713901521"><ele>15.5</ele><time>2026-05-03T14:43:54.001Z</time></trkpt><trkpt lat="43.954161355673854" lon="12.73001355864138"><ele>15.333333333333332</ele><time>2026-05-03T14:43:55.001Z</time></trkpt><trkpt lat="43.95421352799376" lon="12.729961473753765"><ele>15.166666666666666</ele><time>2026-05-03T14:43:56.001Z</time></trkpt><trkpt lat="43.954313763776796" lon="12.729860594590455"><ele>15.0</ele><time>2026-05-03T14:43:58.001Z</time></trkpt><trkpt lat="43.954366795337876" lon="12.729809244002562"><ele>15.333333333333334</ele><time>2026-05-03T14:43:59Z</time></trkpt><trkpt lat="43.95441784231343" lon="12.729757447972375"><ele>15.666666666666668</ele><time>2026-05-03T14:44:00.001Z</time></trkpt><trkpt lat="43.95447147555744" lon="12.72970153406117"><ele>16.0</ele><time>2026-05-03T14:44:01Z</time></trkpt><trkpt lat="43.954528733748006" lon="12.729642205671272"><ele>16.333333333333336</ele><time>2026-05-03T14:44:02Z</time></trkpt><trkpt lat="43.95458465853183" lon="12.729586955972463"><ele>16.666666666666668</ele><time>2026-05-03T14:44:03Z</time></trkpt><trkpt lat="43.95468308640345" lon="12.72950284056552"><ele>17.0</ele><time>2026-05-03T14:44:05Z</time></trkpt><trkpt lat="43.954746742903765" lon="12.729471610983804"><ele>17.0</ele><time>2026-05-03T14:44:06Z</time></trkpt><trkpt lat="43.954819796514954" lon="12.729470264868294"><ele>17.0</ele><time>2026-05-03T14:44:07Z</time></trkpt><trkpt lat="43.95489759955952" lon="12.729483794045908"><ele>17.0</ele><time>2026-05-03T14:44:08.001Z</time></trkpt><trkpt lat="43.95497343879125" lon="12.729502165343742"><ele>17.0</ele><time>2026-05-03T14:44:09.001Z</time></trkpt><trkpt lat="43.95504625282507" lon="12.729498790601237"><ele>17.0</ele><time>2026-05-03T14:44:10.001Z</time></trkpt><trkpt lat="43.95512021885712" lon="12.729616845811517"><ele>17.0</ele><time>2026-05-03T14:44:11.001Z</time></trkpt><trkpt lat="43.95518186337948" lon="12.729716595679667"><ele>16.833333333333336</ele><time>2026-05-03T14:44:12.001Z</time></trkpt><trkpt lat="43.95524306930331" lon="12.729830356302283"><ele>16.666666666666668</ele><time>2026-05-03T14:44:13.001Z</time></trkpt><trkpt lat="43.95530709084118" lon="12.729936954746735"><ele>16.5</ele><time>2026-05-03T14:44:14.001Z</time></trkpt><trkpt lat="43.955369711006206" lon="12.730040815718297"><ele>16.333333333333332</ele><time>2026-05-03T14:44:15.001Z</time></trkpt><trkpt lat="43.95541662774173" lon="12.730128997879108"><ele>16.166666666666664</ele><time>2026-05-03T14:44:16.001Z</time></trkpt><trkpt lat="43.95545111087212" lon="12.730214704246999"><ele>16.0</ele><time>2026-05-03T14:44:17.001Z</time></trkpt><trkpt lat="43.95547523861184" lon="12.730307114663043"><ele>15.833333333333332</ele><time>2026-05-03T14:44:18.001Z</time></trkpt><trkpt lat="43.955482706752406" lon="12.730427875467383"><ele>15.666666666666666</ele><time>2026-05-03T14:44:21.001Z</time></trkpt><trkpt lat="43.955498697168856" lon="12.730573455188264"><ele>15.5</ele><time>2026-05-03T14:44:23.001Z</time></trkpt><trkpt lat="43.95552737775533" lon="12.730662436163724"><ele>15.333333333333332</ele><time>2026-05-03T14:44:24.001Z</time></trkpt><trkpt lat="43.955582569278754" lon="12.730725301789942"><ele>15.166666666666666</ele><time>2026-05-03T14:44:25.001Z</time></trkpt><trkpt lat="43.95565903933368" lon="12.7307399371438"><ele>15.0</ele><time>2026-05-03T14:44:26.001Z</time></trkpt><trkpt lat="43.95574552091122" lon="12.73072970138692"><ele>15.0</ele><time>2026-05-03T14:44:27.001Z</time></trkpt><trkpt lat="43.95584490112307" lon="12.730730790664353"><ele>15.0</ele><time>2026-05-03T14:44:28.001Z</time></trkpt><trkpt lat="43.95594332856489" lon="12.730773376976263"><ele>15.0</ele><time>2026-05-03T14:44:29.001Z</time></trkpt><trkpt lat="43.956046048866455" lon="12.730819395913498"><ele>15.0</ele><time>2026-05-03T14:44:30.001Z</time></trkpt><trkpt lat="43.95616481374553" lon="12.73084016015321"><ele>15.0</ele><time>2026-05-03T14:44:31.001Z</time></trkpt><trkpt lat="43.95629507787697" lon="12.730823816978402"><ele>14.5</ele><time>2026-05-03T14:44:32.001Z</time></trkpt><trkpt lat="43.95641870551609" lon="12.730776812405754"><ele>14.0</ele><time>2026-05-03T14:44:33.001Z</time></trkpt><trkpt lat="43.956541960492444" lon="12.730702368119504"><ele>13.5</ele><time>2026-05-03T14:44:34.001Z</time></trkpt><trkpt lat="43.95665180303684" lon="12.730607497682112"><ele>13.0</ele><time>2026-05-03T14:44:35.001Z</time></trkpt><trkpt lat="43.9567448193309" lon="12.730503174634517"><ele>13.0</ele><time>2026-05-03T14:44:36.001Z</time></trkpt><trkpt lat="43.956831448313785" lon="12.730413718476767"><ele>13.0</ele><time>2026-05-03T14:44:37.001Z</time></trkpt><trkpt lat="43.956902119764" lon="12.730340775340467"><ele>13.0</ele><time>2026-05-03T14:44:38.001Z</time></trkpt><trkpt lat="43.956994304576654" lon="12.73026813938244"><ele>13.0</ele><time>2026-05-03T14:44:40.001Z</time></trkpt><trkpt lat="43.957062752377276" lon="12.730225243720609"><ele>13.0</ele><time>2026-05-03T14:44:43.001Z</time></trkpt><trkpt lat="43.9571498120576" lon="12.7301911371889"><ele>13.333333333333332</ele><time>2026-05-03T14:44:46.001Z</time></trkpt><trkpt lat="43.95722956061692" lon="12.73013850325691"><ele>13.666666666666666</ele><time>2026-05-03T14:44:48.001Z</time></trkpt><trkpt lat="43.95723819537569" lon="12.729984342243826"><ele>14.0</ele><time>2026-05-03T14:44:50.001Z</time></trkpt><trkpt lat="43.95719076064509" lon="12.729922881354417"><ele>14.333333333333332</ele><time>2026-05-03T14:44:51.001Z</time></trkpt><trkpt lat="43.9571348873748" lon="12.729846825287932"><ele>14.666666666666666</ele><time>2026-05-03T14:44:52.001Z</time></trkpt><trkpt lat="43.95704367443501" lon="12.729794248578658"><ele>15.0</ele><time>2026-05-03T14:44:53.001Z</time></trkpt><trkpt lat="43.95698076539269" lon="12.7296992073177"><ele>15.0</ele><time>2026-05-03T14:44:54.001Z</time></trkpt><trkpt lat="43.95692025687578" lon="12.729568635884137"><ele>15.0</ele><time>2026-05-03T14:44:55.001Z</time></trkpt><trkpt lat="43.95685287515146" lon="12.7294178656939"><ele>15.0</ele><time>2026-05-03T14:44:56.002Z</time></trkpt><trkpt lat="43.95677242570187" lon="12.729265370700611"><ele>15.0</ele><time>2026-05-03T14:44:57.002Z</time></trkpt><trkpt lat="43.95669252737536" lon="12.72911238396838"><ele>15.0</ele><time>2026-05-03T14:44:58.002Z</time></trkpt><trkpt lat="43.95660837259479" lon="12.72894926708016"><ele>15.0</ele><time>2026-05-03T14:44:59.002Z</time></trkpt><trkpt lat="43.95651798990585" lon="12.728789545320705"><ele>15.0</ele><time>2026-05-03T14:45:00.002Z</time></trkpt><trkpt lat="43.956422104977555" lon="12.72863459363173"><ele>15.0</ele><time>2026-05-03T14:45:01.002Z</time></trkpt><trkpt lat="43.95631370205583" lon="12.72848598822016"><ele>15.0</ele><time>2026-05-03T14:45:02.002Z</time></trkpt><trkpt lat="43.95621050481828" lon="12.728335131801774"><ele>15.0</ele><time>2026-05-03T14:45:03.002Z</time></trkpt><trkpt lat="43.956112180486876" lon="12.728182072056766"><ele>15.0</ele><time>2026-05-03T14:45:04.002Z</time></trkpt><trkpt lat="43.956006724575495" lon="12.72803971456778"><ele>15.0</ele><time>2026-05-03T14:45:05.002Z</time></trkpt><trkpt lat="43.95589790953449" lon="12.727891918970878"><ele>15.25</ele><time>2026-05-03T14:45:06.002Z</time></trkpt><trkpt lat="43.95579107222768" lon="12.72775090745983"><ele>15.5</ele><time>2026-05-03T14:45:07.002Z</time></trkpt><trkpt lat="43.95568440742258" lon="12.727606565644114"><ele>15.75</ele><time>2026-05-03T14:45:08.002Z</time></trkpt><trkpt lat="43.95557404196546" lon="12.727463639807299"><ele>16.0</ele><time>2026-05-03T14:45:09.002Z</time></trkpt><trkpt lat="43.95546893209434" lon="12.727330016901764"><ele>16.0</ele><time>2026-05-03T14:45:10.002Z</time></trkpt><trkpt lat="43.95536811808405" lon="12.727200234188608"><ele>16.0</ele><time>2026-05-03T14:45:11.002Z</time></trkpt><trkpt lat="43.95526880022077" lon="12.727073819926293"><ele>16.0</ele><time>2026-05-03T14:45:12.002Z</time></trkpt><trkpt lat="43.95516213177377" lon="12.726956134421656"><ele>16.0</ele><time>2026-05-03T14:45:13.002Z</time></trkpt><trkpt lat="43.95505310498787" lon="12.72684786196158"><ele>16.0</ele><time>2026-05-03T14:45:14.002Z</time></trkpt><trkpt lat="43.95494705964434" lon="12.726750586792347"><ele>16.0</ele><time>2026-05-03T14:45:15.002Z</time></trkpt><trkpt lat="43.95484530881146" lon="12.72667081817322"><ele>16.0</ele><time>2026-05-03T14:45:16.002Z</time></trkpt><trkpt lat="43.95475636699114" lon="12.726601024622092"><ele>16.0</ele><time>2026-05-03T14:45:17.002Z</time></trkpt><trkpt lat="43.954677475731756" lon="12.726544074888391"><ele>16.0</ele><time>2026-05-03T14:45:18.002Z</time></trkpt><trkpt lat="43.95460264758023" lon="12.72649195628586"><ele>15.999999999999998</ele><time>2026-05-03T14:45:19.002Z</time></trkpt><trkpt lat="43.95453894315503" lon="12.72644621075843"><ele>16.0</ele><time>2026-05-03T14:45:20.002Z</time></trkpt><trkpt lat="43.95448174638703" lon="12.72640471137524"><ele>16.0</ele><time>2026-05-03T14:45:21.002Z</time></trkpt><trkpt lat="43.9544032791418" lon="12.72632559228904"><ele>16.0</ele><time>2026-05-03T14:45:23.002Z</time></trkpt><trkpt lat="43.95433570067866" lon="12.726175770807588"><ele>15.999999999999998</ele><time>2026-05-03T14:45:25.002Z</time></trkpt><trkpt lat="43.95433632173749" lon="12.726060320721276"><ele>16.0</ele><time>2026-05-03T14:45:26.002Z</time></trkpt><trkpt lat="43.9543449702385" lon="12.725955343616366"><ele>15.857142857142856</ele><time>2026-05-03T14:45:27.002Z</time></trkpt><trkpt lat="43.954328606250435" lon="12.725861208921842"><ele>15.714285714285712</ele><time>2026-05-03T14:45:28.002Z</time></trkpt><trkpt lat="43.954284343581065" lon="12.725781023354825"><ele>15.571428571428571</ele><time>2026-05-03T14:45:29.002Z</time></trkpt><trkpt lat="43.95421669424757" lon="12.725729951904448"><ele>15.428571428571427</ele><time>2026-05-03T14:45:30.002Z</time></trkpt><trkpt lat="43.95414567051007" lon="12.725713884353349"><ele>15.285714285714285</ele><time>2026-05-03T14:45:31.002Z</time></trkpt><trkpt lat="43.954070392552644" lon="12.725744340245086"><ele>15.142857142857142</ele><time>2026-05-03T14:45:32.002Z</time></trkpt><trkpt lat="43.95400726832112" lon="12.72578492175311"><ele>15.0</ele><time>2026-05-03T14:45:33.002Z</time></trkpt><trkpt lat="43.9539416789458" lon="12.725822760260593"><ele>15.5</ele><time>2026-05-03T14:45:34.003Z</time></trkpt><trkpt lat="43.95386871570959" lon="12.72583721649898"><ele>16.0</ele><time>2026-05-03T14:45:35.003Z</time></trkpt><trkpt lat="43.953790312902115" lon="12.72582500105594"><ele>16.5</ele><time>2026-05-03T14:45:36.003Z</time></trkpt><trkpt lat="43.95370398648113" lon="12.72579277207681"><ele>17.0</ele><time>2026-05-03T14:45:37.003Z</time></trkpt><trkpt lat="43.95362204741841" lon="12.72575357650656"><ele>17.5</ele><time>2026-05-03T14:45:38.003Z</time></trkpt><trkpt lat="43.95354453978608" lon="12.725713627197896"><ele>18.0</ele><time>2026-05-03T14:45:39.003Z</time></trkpt><trkpt lat="43.953458917354986" lon="12.72568327213107"><ele>18.4</ele><time>2026-05-03T14:45:40.003Z</time></trkpt><trkpt lat="43.9533638851771" lon="12.725649753097425"><ele>18.8</ele><time>2026-05-03T14:45:41.003Z</time></trkpt><trkpt lat="43.9532678588338" lon="12.725610387852273"><ele>19.2</ele><time>2026-05-03T14:45:42.003Z</time></trkpt><trkpt lat="43.953169862402284" lon="12.725564856456375"><ele>19.6</ele><time>2026-05-03T14:45:43.003Z</time></trkpt><trkpt lat="43.95308014008951" lon="12.725525759406487"><ele>20.0</ele><time>2026-05-03T14:45:44.003Z</time></trkpt><trkpt lat="43.95298884061456" lon="12.725489924109201"><ele>20.0</ele><time>2026-05-03T14:45:45.003Z</time></trkpt><trkpt lat="43.952896928705044" lon="12.725453849341061"><ele>20.0</ele><time>2026-05-03T14:45:46.003Z</time></trkpt><trkpt lat="43.952805926435296" lon="12.725419836112161"><ele>20.0</ele><time>2026-05-03T14:45:47.003Z</time></trkpt><trkpt lat="43.95271501137319" lon="12.7253869409525"><ele>20.0</ele><time>2026-05-03T14:45:48.003Z</time></trkpt><trkpt lat="43.95262570728331" lon="12.725352579879521"><ele>20.0</ele><time>2026-05-03T14:45:49.003Z</time></trkpt><trkpt lat="43.95254267294585" lon="12.72531679551342"><ele>19.8</ele><time>2026-05-03T14:45:50.003Z</time></trkpt><trkpt lat="43.9524580178227" lon="12.725282269690982"><ele>19.6</ele><time>2026-05-03T14:45:51.003Z</time></trkpt><trkpt lat="43.95236929782003" lon="12.725245763255012"><ele>19.4</ele><time>2026-05-03T14:45:52.003Z</time></trkpt><trkpt lat="43.952276884339206" lon="12.725208763520477"><ele>19.2</ele><time>2026-05-03T14:45:53.003Z</time></trkpt><trkpt lat="43.952185188869876" lon="12.72517454591132"><ele>19.0</ele><time>2026-05-03T14:45:54.003Z</time></trkpt><trkpt lat="43.952105903188595" lon="12.725145194903968"><ele>18.833333333333332</ele><time>2026-05-03T14:45:55Z</time></trkpt><trkpt lat="43.95202864979644" lon="12.72511873515414"><ele>18.666666666666664</ele><time>2026-05-03T14:45:56Z</time></trkpt><trkpt lat="43.95195503635472" lon="12.72508939316763"><ele>18.5</ele><time>2026-05-03T14:45:57Z</time></trkpt><trkpt lat="43.95187462173147" lon="12.725056604413608"><ele>18.333333333333332</ele><time>2026-05-03T14:45:58Z</time></trkpt><trkpt lat="43.951794250185635" lon="12.725023958144835"><ele>18.166666666666668</ele><time>2026-05-03T14:45:59Z</time></trkpt><trkpt lat="43.95171371404429" lon="12.724990727518364"><ele>18.0</ele><time>2026-05-03T14:46:00Z</time></trkpt><trkpt lat="43.951644686997234" lon="12.724962422282507"><ele>18.5</ele><time>2026-05-03T14:46:01Z</time></trkpt><trkpt lat="43.951575784197956" lon="12.724932433093054"><ele>19.0</ele><time>2026-05-03T14:46:02Z</time></trkpt><trkpt lat="43.95150600542092" lon="12.72490213378775"><ele>19.5</ele><time>2026-05-03T14:46:03Z</time></trkpt><trkpt lat="43.95142737027524" lon="12.724867140503708"><ele>20.0</ele><time>2026-05-03T14:46:04Z</time></trkpt><trkpt lat="43.95135684223554" lon="12.724834710608643"><ele>20.5</ele><time>2026-05-03T14:46:05Z</time></trkpt><trkpt lat="43.95124650560705" lon="12.724787073853465"><ele>21.0</ele><time>2026-05-03T14:46:07Z</time></trkpt><trkpt lat="43.95112790106378" lon="12.72474502005544"><ele>21.0</ele><time>2026-05-03T14:46:09Z</time></trkpt><trkpt lat="43.95105666174888" lon="12.724716413799436"><ele>21.0</ele><time>2026-05-03T14:46:10Z</time></trkpt><trkpt lat="43.95095060113694" lon="12.724670405215333"><ele>21.0</ele><time>2026-05-03T14:46:12Z</time></trkpt><trkpt lat="43.95085956596776" lon="12.724631492261446"><ele>21.0</ele><time>2026-05-03T14:46:14Z</time></trkpt><trkpt lat="43.9507557974763" lon="12.724581937185539"><ele>21.0</ele><time>2026-05-03T14:46:16Z</time></trkpt><trkpt lat="43.950652192757815" lon="12.724531634805881"><ele>20.6</ele><time>2026-05-03T14:46:18Z</time></trkpt><trkpt lat="43.95056424119408" lon="12.724440261185304"><ele>20.200000000000003</ele><time>2026-05-03T14:46:20Z</time></trkpt><trkpt lat="43.95052259336632" lon="12.724310446885397"><ele>19.799999999999997</ele><time>2026-05-03T14:46:22Z</time></trkpt><trkpt lat="43.950502018825226" lon="12.72417373438158"><ele>19.4</ele><time>2026-05-03T14:46:24Z</time></trkpt><trkpt lat="43.950453735039034" lon="12.72407574295786"><ele>19.0</ele><time>2026-05-03T14:46:27.001Z</time></trkpt><trkpt lat="43.95047672458512" lon="12.723956962236569"><ele>18.833333333333332</ele><time>2026-05-03T14:46:29.001Z</time></trkpt><trkpt lat="43.950497551826956" lon="12.723849706091277"><ele>18.666666666666664</ele><time>2026-05-03T14:46:31.001Z</time></trkpt><trkpt lat="43.950522756836676" lon="12.723757444541215"><ele>18.5</ele><time>2026-05-03T14:46:33.001Z</time></trkpt><trkpt lat="43.95052288539881" lon="12.723657064658228"><ele>18.333333333333332</ele><time>2026-05-03T14:46:35.001Z</time></trkpt><trkpt lat="43.95046119899462" lon="12.723608913179485"><ele>18.166666666666668</ele><time>2026-05-03T14:46:37.001Z</time></trkpt><trkpt lat="43.950391416224306" lon="12.723666470905728"><ele>18.0</ele><time>2026-05-03T14:46:39.001Z</time></trkpt><trkpt lat="43.95032382520317" lon="12.72372925196853"><ele>18.0</ele><time>2026-05-03T14:46:41.001Z</time></trkpt><trkpt lat="43.95027950881556" lon="12.723791582355913"><ele>18.0</ele><time>2026-05-03T14:46:43.001Z</time></trkpt><trkpt lat="43.9502247183633" lon="12.723861216774308"><ele>18.0</ele><time>2026-05-03T14:46:46.001Z</time></trkpt><trkpt lat="43.950077916441025" lon="12.723837563430642"><ele>18.0</ele><time>2026-05-03T14:47:33.002Z</time></trkpt><trkpt lat="43.95024054784053" lon="12.723898580216163"><ele>18.000000000000004</ele><time>2026-05-03T14:52:46.001Z</time></trkpt><trkpt lat="43.95032153518816" lon="12.723925827130888"><ele>18.0</ele><time>2026-05-03T14:52:48.001Z</time></trkpt><trkpt lat="43.95039276020203" lon="12.723952842927034"><ele>18.0</ele><time>2026-05-03T14:52:51.001Z</time></trkpt><trkpt lat="43.95045375077617" lon="12.723983533172202"><ele>18.0</ele><time>2026-05-03T14:52:54.001Z</time></trkpt><trkpt lat="43.950505943763794" lon="12.724050371429838"><ele>18.0</ele><time>2026-05-03T14:52:57.001Z</time></trkpt><trkpt lat="43.95046124602478" lon="12.724114391507474"><ele>18.000000000000004</ele><time>2026-05-03T14:53:01.001Z</time></trkpt><trkpt lat="43.95039279082572" lon="12.72412559397726"><ele>18.0</ele><time>2026-05-03T14:53:20.002Z</time></trkpt><trkpt lat="43.95031883455678" lon="12.724162411435264"><ele>18.000000000000004</ele><time>2026-05-03T14:53:24.002Z</time></trkpt><trkpt lat="43.95025232219793" lon="12.724196610619524"><ele>18.0</ele><time>2026-05-03T14:53:33.002Z</time></trkpt><trkpt lat="43.95018866063592" lon="12.724210796221524"><ele>18.0</ele><time>2026-05-03T14:53:35.002Z</time></trkpt><trkpt lat="43.950133316778796" lon="12.724329120877057"><ele>18.0</ele><time>2026-05-03T14:53:39.002Z</time></trkpt><trkpt lat="43.95012432317782" lon="12.724416015216326"><ele>18.0</ele><time>2026-05-03T14:53:41.002Z</time></trkpt><trkpt lat="43.9501369408256" lon="12.72451584910823"><ele>18.000000000000004</ele><time>2026-05-03T14:53:44.002Z</time></trkpt><trkpt lat="43.95015039228571" lon="12.724609083536857"><ele>18.0</ele><time>2026-05-03T14:53:46.002Z</time></trkpt><trkpt lat="43.950261735023695" lon="12.724663818537987"><ele>18.166666666666668</ele><time>2026-05-03T14:53:47.002Z</time></trkpt><trkpt lat="43.95034129719375" lon="12.724670028753527"><ele>18.333333333333332</ele><time>2026-05-03T14:53:48.002Z</time></trkpt><trkpt lat="43.9504120398199" lon="12.72467320004628"><ele>18.5</ele><time>2026-05-03T14:53:49.002Z</time></trkpt><trkpt lat="43.95049126186681" lon="12.72460532224382"><ele>18.666666666666664</ele><time>2026-05-03T14:53:50.002Z</time></trkpt><trkpt lat="43.95056610276389" lon="12.724598263449165"><ele>18.833333333333332</ele><time>2026-05-03T14:53:51.002Z</time></trkpt><trkpt lat="43.95063488233646" lon="12.72460364737197"><ele>19.0</ele><time>2026-05-03T14:53:52.002Z</time></trkpt><trkpt lat="43.95070435863652" lon="12.724628323871201"><ele>19.0</ele><time>2026-05-03T14:53:53.002Z</time></trkpt><trkpt lat="43.95078049213691" lon="12.724666409121657"><ele>19.0</ele><time>2026-05-03T14:53:54.002Z</time></trkpt><trkpt lat="43.95086228079864" lon="12.724702623373881"><ele>19.0</ele><time>2026-05-03T14:53:55.002Z</time></trkpt><trkpt lat="43.95094298149444" lon="12.724733893597548"><ele>19.0</ele><time>2026-05-03T14:53:56.002Z</time></trkpt><trkpt lat="43.951031995821225" lon="12.724761498567219"><ele>19.0</ele><time>2026-05-03T14:53:57.002Z</time></trkpt><trkpt lat="43.95112634933455" lon="12.72479448012573"><ele>19.0</ele><time>2026-05-03T14:53:58.002Z</time></trkpt><trkpt lat="43.95122373332422" lon="12.724835118978596"><ele>19.4</ele><time>2026-05-03T14:53:59.002Z</time></trkpt><trkpt lat="43.95131688290229" lon="12.72487743714773"><ele>19.799999999999997</ele><time>2026-05-03T14:54:00.002Z</time></trkpt><trkpt lat="43.951409340971225" lon="12.724917598907464"><ele>20.200000000000003</ele><time>2026-05-03T14:54:01.002Z</time></trkpt><trkpt lat="43.95149899490609" lon="12.724954539496478"><ele>20.6</ele><time>2026-05-03T14:54:02.002Z</time></trkpt><trkpt lat="43.95158671958882" lon="12.724989960343438"><ele>21.0</ele><time>2026-05-03T14:54:03.002Z</time></trkpt><trkpt lat="43.95168056321241" lon="12.72502428185665"><ele>20.5</ele><time>2026-05-03T14:54:04.002Z</time></trkpt><trkpt lat="43.951771588528416" lon="12.725059654185577"><ele>20.0</ele><time>2026-05-03T14:54:05.002Z</time></trkpt><trkpt lat="43.951860055075116" lon="12.725094543736628"><ele>19.5</ele><time>2026-05-03T14:54:06.002Z</time></trkpt><trkpt lat="43.951944445682024" lon="12.725127907402928"><ele>19.0</ele><time>2026-05-03T14:54:07.002Z</time></trkpt><trkpt lat="43.95202679908934" lon="12.725161287384228"><ele>18.5</ele><time>2026-05-03T14:54:08.002Z</time></trkpt><trkpt lat="43.952109433724175" lon="12.72519404152188"><ele>18.0</ele><time>2026-05-03T14:54:09.002Z</time></trkpt><trkpt lat="43.95219882571975" lon="12.725228441745113"><ele>18.2</ele><time>2026-05-03T14:54:10.002Z</time></trkpt><trkpt lat="43.95228711497185" lon="12.725263506331384"><ele>18.4</ele><time>2026-05-03T14:54:11.002Z</time></trkpt><trkpt lat="43.95237808811154" lon="12.725299604900364"><ele>18.599999999999998</ele><time>2026-05-03T14:54:12.002Z</time></trkpt><trkpt lat="43.95247410785651" lon="12.725340031878561"><ele>18.8</ele><time>2026-05-03T14:54:13.003Z</time></trkpt><trkpt lat="43.95258002896155" lon="12.725380319095404"><ele>19.0</ele><time>2026-05-03T14:54:14.003Z</time></trkpt><trkpt lat="43.952673808670035" lon="12.725416800369311"><ele>19.166666666666664</ele><time>2026-05-03T14:54:15.003Z</time></trkpt><trkpt lat="43.95275680078046" lon="12.725450941960695"><ele>19.333333333333332</ele><time>2026-05-03T14:54:16.003Z</time></trkpt><trkpt lat="43.952845339041126" lon="12.72548681816317"><ele>19.5</ele><time>2026-05-03T14:54:17.003Z</time></trkpt><trkpt lat="43.952932715340346" lon="12.725519261324441"><ele>19.666666666666668</ele><time>2026-05-03T14:54:18.003Z</time></trkpt><trkpt lat="43.95301747028922" lon="12.725554752186856"><ele>19.833333333333336</ele><time>2026-05-03T14:54:19Z</time></trkpt><trkpt lat="43.95310209811904" lon="12.725590522085676"><ele>20.0</ele><time>2026-05-03T14:54:20Z</time></trkpt><trkpt lat="43.95320058993547" lon="12.725627035766509"><ele>20.0</ele><time>2026-05-03T14:54:21Z</time></trkpt><trkpt lat="43.95330503180607" lon="12.725666391395386"><ele>20.0</ele><time>2026-05-03T14:54:22Z</time></trkpt><trkpt lat="43.953399136652564" lon="12.72570407827905"><ele>20.0</ele><time>2026-05-03T14:54:23Z</time></trkpt><trkpt lat="43.95348668088522" lon="12.725737118288135"><ele>20.0</ele><time>2026-05-03T14:54:24Z</time></trkpt><trkpt lat="43.95356320613327" lon="12.72576576825661"><ele>20.0</ele><time>2026-05-03T14:54:25Z</time></trkpt><trkpt lat="43.953632019400516" lon="12.725792874266727"><ele>20.0</ele><time>2026-05-03T14:54:26Z</time></trkpt><trkpt lat="43.953741402752385" lon="12.725836346903492"><ele>19.6</ele><time>2026-05-03T14:54:28Z</time></trkpt><trkpt lat="43.95382850121892" lon="12.725880931404548"><ele>19.2</ele><time>2026-05-03T14:54:30Z</time></trkpt><trkpt lat="43.95389539792998" lon="12.725920259411858"><ele>18.8</ele><time>2026-05-03T14:54:32Z</time></trkpt><trkpt lat="43.95395170771181" lon="12.725970933510633"><ele>18.4</ele><time>2026-05-03T14:54:34Z</time></trkpt><trkpt lat="43.95401057639944" lon="12.726090039691513"><ele>18.0</ele><time>2026-05-03T14:54:36Z</time></trkpt><trkpt lat="43.95409952600586" lon="12.726200942640219"><ele>18.0</ele><time>2026-05-03T14:54:38Z</time></trkpt><trkpt lat="43.95416095838586" lon="12.726232258744428"><ele>18.0</ele><time>2026-05-03T14:54:39Z</time></trkpt><trkpt lat="43.954228644638064" lon="12.726261328399636"><ele>18.0</ele><time>2026-05-03T14:54:40Z</time></trkpt><trkpt lat="43.95430055578294" lon="12.72629999843451"><ele>18.0</ele><time>2026-05-03T14:54:41Z</time></trkpt><trkpt lat="43.954363759564984" lon="12.726348217421013"><ele>18.0</ele><time>2026-05-03T14:54:42Z</time></trkpt><trkpt lat="43.95442655321845" lon="12.726408915315178"><ele>18.0</ele><time>2026-05-03T14:54:43Z</time></trkpt><trkpt lat="43.954503425191035" lon="12.726480718448853"><ele>17.6</ele><time>2026-05-03T14:54:44Z</time></trkpt><trkpt lat="43.95458328957623" lon="12.726545582130127"><ele>17.200000000000003</ele><time>2026-05-03T14:54:45Z</time></trkpt><trkpt lat="43.9546703619728" lon="12.726607185388895"><ele>16.8</ele><time>2026-05-03T14:54:46Z</time></trkpt><trkpt lat="43.954765395234524" lon="12.726672150418668"><ele>16.400000000000002</ele><time>2026-05-03T14:54:47Z</time></trkpt><trkpt lat="43.95485283813757" lon="12.726737639949507"><ele>16.0</ele><time>2026-05-03T14:54:48Z</time></trkpt><trkpt lat="43.954937471290954" lon="12.726808704980039"><ele>16.0</ele><time>2026-05-03T14:54:49Z</time></trkpt><trkpt lat="43.95502770892348" lon="12.726887001751251"><ele>16.0</ele><time>2026-05-03T14:54:50Z</time></trkpt><trkpt lat="43.95512072127719" lon="12.72697470408497"><ele>16.0</ele><time>2026-05-03T14:54:51Z</time></trkpt><trkpt lat="43.955215789858926" lon="12.727077983366263"><ele>16.0</ele><time>2026-05-03T14:54:52Z</time></trkpt><trkpt lat="43.955326480551875" lon="12.727207972929845"><ele>16.0</ele><time>2026-05-03T14:54:53Z</time></trkpt><trkpt lat="43.955424730464784" lon="12.727333375983099"><ele>16.0</ele><time>2026-05-03T14:54:54Z</time></trkpt><trkpt lat="43.95551535886235" lon="12.727451819741276"><ele>16.0</ele><time>2026-05-03T14:54:55Z</time></trkpt><trkpt lat="43.95560630383777" lon="12.727569357894607"><ele>16.0</ele><time>2026-05-03T14:54:56Z</time></trkpt><trkpt lat="43.95569544977808" lon="12.727686663331822"><ele>16.25</ele><time>2026-05-03T14:54:57Z</time></trkpt><trkpt lat="43.95578003696945" lon="12.727804543299861"><ele>16.5</ele><time>2026-05-03T14:54:58Z</time></trkpt><trkpt lat="43.955865917285486" lon="12.727924591352947"><ele>16.75</ele><time>2026-05-03T14:54:59Z</time></trkpt><trkpt lat="43.95594936957998" lon="12.728037435136041"><ele>17.0</ele><time>2026-05-03T14:55:00Z</time></trkpt><trkpt lat="43.95603355497644" lon="12.728150874632306"><ele>17.0</ele><time>2026-05-03T14:55:01Z</time></trkpt><trkpt lat="43.95611548292893" lon="12.728264185576675"><ele>17.0</ele><time>2026-05-03T14:55:02Z</time></trkpt><trkpt lat="43.95619494512716" lon="12.72837585538452"><ele>17.0</ele><time>2026-05-03T14:55:03Z</time></trkpt><trkpt lat="43.95627435703131" lon="12.728488801831833"><ele>17.0</ele><time>2026-05-03T14:55:04Z</time></trkpt><trkpt lat="43.95635314825646" lon="12.728605413478105"><ele>17.0</ele><time>2026-05-03T14:55:05Z</time></trkpt><trkpt lat="43.95642441643666" lon="12.728719472287375"><ele>17.0</ele><time>2026-05-03T14:55:06Z</time></trkpt><trkpt lat="43.95648713024573" lon="12.728826662008307"><ele>17.0</ele><time>2026-05-03T14:55:07Z</time></trkpt><trkpt lat="43.9565455590739" lon="12.728928996297132"><ele>17.0</ele><time>2026-05-03T14:55:08.001Z</time></trkpt><trkpt lat="43.9565972765629" lon="12.72902493234832"><ele>17.0</ele><time>2026-05-03T14:55:09.001Z</time></trkpt><trkpt lat="43.956646295092426" lon="12.72911935417467"><ele>16.999999999999996</ele><time>2026-05-03T14:55:10.001Z</time></trkpt><trkpt lat="43.95669464042641" lon="12.729213054008707"><ele>17.0</ele><time>2026-05-03T14:55:11.001Z</time></trkpt><trkpt lat="43.956737690333746" lon="12.729298491358492"><ele>17.0</ele><time>2026-05-03T14:55:12.001Z</time></trkpt><trkpt lat="43.956778014994725" lon="12.729382967909114"><ele>17.0</ele><time>2026-05-03T14:55:13.001Z</time></trkpt><trkpt lat="43.956817525925" lon="12.7294652282944"><ele>17.0</ele><time>2026-05-03T14:55:14.001Z</time></trkpt><trkpt lat="43.95685798561174" lon="12.729549164441362"><ele>16.999999999999996</ele><time>2026-05-03T14:55:15.001Z</time></trkpt><trkpt lat="43.95689764909376" lon="12.729632214119059"><ele>17.0</ele><time>2026-05-03T14:55:16.001Z</time></trkpt><trkpt lat="43.95695689675926" lon="12.729750931468459"><ele>16.6</ele><time>2026-05-03T14:55:18.001Z</time></trkpt><trkpt lat="43.95700783844944" lon="12.72985793977501"><ele>16.2</ele><time>2026-05-03T14:55:20.001Z</time></trkpt><trkpt lat="43.957037695658926" lon="12.729999066730457"><ele>15.8</ele><time>2026-05-03T14:55:22.001Z</time></trkpt><trkpt lat="43.95702396495862" lon="12.730109809124842"><ele>15.4</ele><time>2026-05-03T14:55:23.001Z</time></trkpt><trkpt lat="43.95700647176546" lon="12.730222324347515"><ele>15.0</ele><time>2026-05-03T14:55:24.001Z</time></trkpt><trkpt lat="43.95690507117928" lon="12.730281223426786"><ele>14.6</ele><time>2026-05-03T14:55:25.001Z</time></trkpt><trkpt lat="43.95683870425982" lon="12.730373260509344"><ele>14.2</ele><time>2026-05-03T14:55:26.001Z</time></trkpt><trkpt lat="43.95674694397725" lon="12.7304503769352"><ele>13.8</ele><time>2026-05-03T14:55:27.001Z</time></trkpt><trkpt lat="43.95665110368361" lon="12.730538236916878"><ele>13.4</ele><time>2026-05-03T14:55:28.001Z</time></trkpt><trkpt lat="43.956559296405494" lon="12.730622845460237"><ele>13.0</ele><time>2026-05-03T14:55:29.001Z</time></trkpt><trkpt lat="43.95645894374215" lon="12.73070353110332"><ele>13.0</ele><time>2026-05-03T14:55:30.001Z</time></trkpt><trkpt lat="43.95634700144664" lon="12.730763188994922"><ele>13.0</ele><time>2026-05-03T14:55:31.001Z</time></trkpt><trkpt lat="43.956229030216285" lon="12.7307881346783"><ele>13.0</ele><time>2026-05-03T14:55:32.001Z</time></trkpt><trkpt lat="43.95611345983882" lon="12.730782591725989"><ele>13.0</ele><time>2026-05-03T14:55:33.001Z</time></trkpt><trkpt lat="43.95601222512679" lon="12.730756414915799"><ele>12.999999999999998</ele><time>2026-05-03T14:55:34.001Z</time></trkpt><trkpt lat="43.95592437656667" lon="12.730712195092474"><ele>13.0</ele><time>2026-05-03T14:55:35.001Z</time></trkpt><trkpt lat="43.955848690845365" lon="12.730657974256037"><ele>13.0</ele><time>2026-05-03T14:55:36.001Z</time></trkpt><trkpt lat="43.95579143108321" lon="12.73059774888774"><ele>13.0</ele><time>2026-05-03T14:55:37.001Z</time></trkpt><trkpt lat="43.955747383765555" lon="12.730534958146123"><ele>12.999999999999998</ele><time>2026-05-03T14:55:38.001Z</time></trkpt><trkpt lat="43.95569248983832" lon="12.730456617850912"><ele>13.0</ele><time>2026-05-03T14:55:39.001Z</time></trkpt><trkpt lat="43.955629580631545" lon="12.730381549970991"><ele>13.333333333333332</ele><time>2026-05-03T14:55:40.001Z</time></trkpt><trkpt lat="43.95557697235675" lon="12.7303132926113"><ele>13.666666666666666</ele><time>2026-05-03T14:55:41.001Z</time></trkpt><trkpt lat="43.95550354002272" lon="12.730191863563945"><ele>14.0</ele><time>2026-05-03T14:55:43.001Z</time></trkpt><trkpt lat="43.95544855725568" lon="12.730090435081843"><ele>14.333333333333332</ele><time>2026-05-03T14:55:45.001Z</time></trkpt><trkpt lat="43.95540276760886" lon="12.730016805628342"><ele>14.666666666666666</ele><time>2026-05-03T14:55:47.001Z</time></trkpt><trkpt lat="43.95536026257698" lon="12.72995041592202"><ele>15.0</ele><time>2026-05-03T14:55:49.001Z</time></trkpt><trkpt lat="43.95532171734869" lon="12.729876052861032"><ele>15.166666666666666</ele><time>2026-05-03T14:55:52.001Z</time></trkpt><trkpt lat="43.95527106944268" lon="12.729770620078558"><ele>15.333333333333332</ele><time>2026-05-03T14:56:15.002Z</time></trkpt><trkpt lat="43.95522904150043" lon="12.729695369061991"><ele>15.5</ele><time>2026-05-03T14:56:18.002Z</time></trkpt><trkpt lat="43.95518253615343" lon="12.729614749291692"><ele>15.666666666666666</ele><time>2026-05-03T14:56:23.002Z</time></trkpt><trkpt lat="43.955141419100485" lon="12.729522842322547"><ele>15.833333333333332</ele><time>2026-05-03T14:56:27.998Z</time></trkpt><trkpt lat="43.95509461896723" lon="12.729457849670109"><ele>16.0</ele><time>2026-05-03T14:56:41.999Z</time></trkpt><trkpt lat="43.955121487038475" lon="12.729335878787953"><ele>16.2</ele><time>2026-05-03T14:56:44.999Z</time></trkpt><trkpt lat="43.955158518992484" lon="12.729182747007808"><ele>16.400000000000002</ele><time>2026-05-03T14:56:46.999Z</time></trkpt><trkpt lat="43.95516327397028" lon="12.729079554523624"><ele>16.6</ele><time>2026-05-03T14:56:47.999Z</time></trkpt><trkpt lat="43.95517573064151" lon="12.728960235082024"><ele>16.8</ele><time>2026-05-03T14:56:48.999Z</time></trkpt><trkpt lat="43.95522675951266" lon="12.728850839214374"><ele>17.0</ele><time>2026-05-03T14:56:49.999Z</time></trkpt><trkpt lat="43.95530470713" lon="12.728765823314255"><ele>17.0</ele><time>2026-05-03T14:56:50.999Z</time></trkpt><trkpt lat="43.95538050657844" lon="12.728677322372935"><ele>17.0</ele><time>2026-05-03T14:56:51.999Z</time></trkpt><trkpt lat="43.95545792338321" lon="12.728577335209875"><ele>17.0</ele><time>2026-05-03T14:56:52.999Z</time></trkpt><trkpt lat="43.955541992895895" lon="12.728467249206556"><ele>17.0</ele><time>2026-05-03T14:56:53.999Z</time></trkpt><trkpt lat="43.9556279149808" lon="12.728352907729239"><ele>17.0</ele><time>2026-05-03T14:56:55Z</time></trkpt><trkpt lat="43.95571667109586" lon="12.728231261406805"><ele>17.0</ele><time>2026-05-03T14:56:56Z</time></trkpt><trkpt lat="43.955807995589" lon="12.728098756316442"><ele>17.0</ele><time>2026-05-03T14:56:57Z</time></trkpt><trkpt lat="43.955904139862874" lon="12.727959134489446"><ele>17.0</ele><time>2026-05-03T14:56:58Z</time></trkpt><trkpt lat="43.95600416794487" lon="12.727818444504953"><ele>17.0</ele><time>2026-05-03T14:56:59Z</time></trkpt><trkpt lat="43.95609838142934" lon="12.727688641472904"><ele>16.25</ele><time>2026-05-03T14:57:00Z</time></trkpt><trkpt lat="43.956194255600636" lon="12.727523015225112"><ele>15.5</ele><time>2026-05-03T14:57:01Z</time></trkpt><trkpt lat="43.95628634250196" lon="12.727366338190317"><ele>14.75</ele><time>2026-05-03T14:57:02Z</time></trkpt><trkpt lat="43.95638223851901" lon="12.727207073245317"><ele>14.0</ele><time>2026-05-03T14:57:03Z</time></trkpt><trkpt lat="43.95648110928608" lon="12.727043092770767"><ele>14.0</ele><time>2026-05-03T14:57:04Z</time></trkpt><trkpt lat="43.95657243534758" lon="12.72688027081292"><ele>14.0</ele><time>2026-05-03T14:57:05Z</time></trkpt><trkpt lat="43.95666140163144" lon="12.726719083303582"><ele>14.0</ele><time>2026-05-03T14:57:06Z</time></trkpt><trkpt lat="43.956747348157386" lon="12.726551268187967"><ele>14.0</ele><time>2026-05-03T14:57:07Z</time></trkpt><trkpt lat="43.9568299396539" lon="12.72637967700014"><ele>14.0</ele><time>2026-05-03T14:57:08Z</time></trkpt><trkpt lat="43.95690880298667" lon="12.726208994548351"><ele>14.0</ele><time>2026-05-03T14:57:09Z</time></trkpt><trkpt lat="43.956987946991035" lon="12.726034525134004"><ele>14.0</ele><time>2026-05-03T14:57:10Z</time></trkpt><trkpt lat="43.95706622941458" lon="12.725858313017662"><ele>14.0</ele><time>2026-05-03T14:57:11Z</time></trkpt><trkpt lat="43.957148217687816" lon="12.725668290161222"><ele>13.333333333333334</ele><time>2026-05-03T14:57:12Z</time></trkpt><trkpt lat="43.957227791635766" lon="12.725479223796995"><ele>12.666666666666668</ele><time>2026-05-03T14:57:13Z</time></trkpt><trkpt lat="43.957299268536914" lon="12.725286983045454"><ele>12.0</ele><time>2026-05-03T14:57:14Z</time></trkpt><trkpt lat="43.95737697367098" lon="12.725086798941778"><ele>12.0</ele><time>2026-05-03T14:57:15Z</time></trkpt><trkpt lat="43.957451937552534" lon="12.72487352869075"><ele>12.0</ele><time>2026-05-03T14:57:16Z</time></trkpt><trkpt lat="43.95751938426098" lon="12.724667885924783"><ele>12.0</ele><time>2026-05-03T14:57:17Z</time></trkpt><trkpt lat="43.9575834823022" lon="12.724466334641743"><ele>11.0</ele><time>2026-05-03T14:57:18Z</time></trkpt><trkpt lat="43.95764233747045" lon="12.724261709073543"><ele>10.0</ele><time>2026-05-03T14:57:19Z</time></trkpt><trkpt lat="43.95769835588978" lon="12.724051031927331"><ele>9.0</ele><time>2026-05-03T14:57:20Z</time></trkpt><trkpt lat="43.95775002692901" lon="12.723839829813405"><ele>9.0</ele><time>2026-05-03T14:57:21Z</time></trkpt><trkpt lat="43.957806869756446" lon="12.723624276061761"><ele>9.0</ele><time>2026-05-03T14:57:22Z</time></trkpt><trkpt lat="43.95786031144891" lon="12.723415649629644"><ele>9.0</ele><time>2026-05-03T14:57:23Z</time></trkpt><trkpt lat="43.957911728963566" lon="12.72320124495448"><ele>9.666666666666666</ele><time>2026-05-03T14:57:24Z</time></trkpt><trkpt lat="43.95795986611412" lon="12.722987390137074"><ele>10.333333333333332</ele><time>2026-05-03T14:57:25Z</time></trkpt><trkpt lat="43.95800650729169" lon="12.722775021868474"><ele>11.0</ele><time>2026-05-03T14:57:26Z</time></trkpt><trkpt lat="43.958051712194376" lon="12.722562281144958"><ele>11.666666666666666</ele><time>2026-05-03T14:57:27Z</time></trkpt><trkpt lat="43.95809034978796" lon="12.722355167718028"><ele>12.333333333333332</ele><time>2026-05-03T14:57:28Z</time></trkpt><trkpt lat="43.95812557532205" lon="12.722141779329908"><ele>13.0</ele><time>2026-05-03T14:57:29Z</time></trkpt><trkpt lat="43.95815944368162" lon="12.72194521983721"><ele>14.0</ele><time>2026-05-03T14:57:30Z</time></trkpt><trkpt lat="43.95818930614368" lon="12.72176005864448"><ele>15.0</ele><time>2026-05-03T14:57:31Z</time></trkpt><trkpt lat="43.958216348674185" lon="12.7215855303623"><ele>16.0</ele><time>2026-05-03T14:57:32Z</time></trkpt><trkpt lat="43.958240509896925" lon="12.721439418694617"><ele>17.0</ele><time>2026-05-03T14:57:33.001Z</time></trkpt><trkpt lat="43.9582629019924" lon="12.721312178781774"><ele>17.0</ele><time>2026-05-03T14:57:34.001Z</time></trkpt><trkpt lat="43.9582820059218" lon="12.721206578076986"><ele>17.0</ele><time>2026-05-03T14:57:35.001Z</time></trkpt><trkpt lat="43.95829880995716" lon="12.72111836000572"><ele>17.0</ele><time>2026-05-03T14:57:36.001Z</time></trkpt><trkpt lat="43.958318543430686" lon="12.720981364403174"><ele>17.0</ele><time>2026-05-03T14:57:38.001Z</time></trkpt><trkpt lat="43.95832573152412" lon="12.720879595409945"><ele>17.0</ele><time>2026-05-03T14:57:52.001Z</time></trkpt><trkpt lat="43.95834552793067" lon="12.720750753310558"><ele>17.0</ele><time>2026-05-03T14:57:55.001Z</time></trkpt><trkpt lat="43.95837130986021" lon="12.720638731119871"><ele>16.833333333333336</ele><time>2026-05-03T14:58:01.001Z</time></trkpt><trkpt lat="43.9584137078415" lon="12.72054719609208"><ele>16.666666666666668</ele><time>2026-05-03T14:58:03.001Z</time></trkpt><trkpt lat="43.958471770398106" lon="12.720494376440431"><ele>16.5</ele><time>2026-05-03T14:58:04.001Z</time></trkpt><trkpt lat="43.95853352539779" lon="12.720411823442822"><ele>16.333333333333332</ele><time>2026-05-03T14:58:05.001Z</time></trkpt><trkpt lat="43.95856512024336" lon="12.720314321899288"><ele>16.166666666666664</ele><time>2026-05-03T14:58:06.001Z</time></trkpt><trkpt lat="43.95856296020608" lon="12.720203470926062"><ele>16.0</ele><time>2026-05-03T14:58:07.001Z</time></trkpt><trkpt lat="43.958528585812076" lon="12.720092421183228"><ele>15.4</ele><time>2026-05-03T14:58:08.001Z</time></trkpt><trkpt lat="43.958487279332495" lon="12.719985744125712"><ele>14.8</ele><time>2026-05-03T14:58:09.001Z</time></trkpt><trkpt lat="43.9584798517394" lon="12.719871263653568"><ele>14.200000000000001</ele><time>2026-05-03T14:58:10.001Z</time></trkpt><trkpt lat="43.95850438872851" lon="12.719741527205942"><ele>13.600000000000001</ele><time>2026-05-03T14:58:11.001Z</time></trkpt><trkpt lat="43.95853145225035" lon="12.719606560521651"><ele>13.0</ele><time>2026-05-03T14:58:12.001Z</time></trkpt><trkpt lat="43.95855908125869" lon="12.719463458981686"><ele>12.75</ele><time>2026-05-03T14:58:13.001Z</time></trkpt><trkpt lat="43.95859070353602" lon="12.719294042930663"><ele>12.5</ele><time>2026-05-03T14:58:14.001Z</time></trkpt><trkpt lat="43.95862072349652" lon="12.719115343310571"><ele>12.25</ele><time>2026-05-03T14:58:15.001Z</time></trkpt><trkpt lat="43.95865197249769" lon="12.718939349739802"><ele>12.0</ele><time>2026-05-03T14:58:16.001Z</time></trkpt><trkpt lat="43.95868476347962" lon="12.718758047513408"><ele>13.0</ele><time>2026-05-03T14:58:17.001Z</time></trkpt><trkpt lat="43.95872354136254" lon="12.71856259808439"><ele>14.0</ele><time>2026-05-03T14:58:18.001Z</time></trkpt><trkpt lat="43.95876388648881" lon="12.718360367556752"><ele>15.0</ele><time>2026-05-03T14:58:19.002Z</time></trkpt><trkpt lat="43.95881018882158" lon="12.718146473899306"><ele>15.0</ele><time>2026-05-03T14:58:20.002Z</time></trkpt><trkpt lat="43.95885750264074" lon="12.717943353736993"><ele>15.0</ele><time>2026-05-03T14:58:21.002Z</time></trkpt><trkpt lat="43.95890298643231" lon="12.717761096396888"><ele>15.0</ele><time>2026-05-03T14:58:22.002Z</time></trkpt><trkpt lat="43.95895370215848" lon="12.717577123824055"><ele>15.0</ele><time>2026-05-03T14:58:23.002Z</time></trkpt><trkpt lat="43.95901316460117" lon="12.717381378400944"><ele>16.0</ele><time>2026-05-03T14:58:24.002Z</time></trkpt><trkpt lat="43.95907656422197" lon="12.717174958946734"><ele>17.0</ele><time>2026-05-03T14:58:25.002Z</time></trkpt><trkpt lat="43.95914536610993" lon="12.716955899622729"><ele>18.0</ele><time>2026-05-03T14:58:26.002Z</time></trkpt><trkpt lat="43.95921928053868" lon="12.716748959953668"><ele>18.0</ele><time>2026-05-03T14:58:27.002Z</time></trkpt><trkpt lat="43.95929622387467" lon="12.716548250080972"><ele>18.0</ele><time>2026-05-03T14:58:28.002Z</time></trkpt><trkpt lat="43.95937777667859" lon="12.716355442449238"><ele>18.0</ele><time>2026-05-03T14:58:29.002Z</time></trkpt><trkpt lat="43.95946419432079" lon="12.716165761786613"><ele>19.0</ele><time>2026-05-03T14:58:30.002Z</time></trkpt><trkpt lat="43.959558024427885" lon="12.715974811304886"><ele>20.0</ele><time>2026-05-03T14:58:30.999Z</time></trkpt><trkpt lat="43.95965355988796" lon="12.715778927840635"><ele>21.0</ele><time>2026-05-03T14:58:31.999Z</time></trkpt><trkpt lat="43.959756878182894" lon="12.715591111547868"><ele>21.0</ele><time>2026-05-03T14:58:32.999Z</time></trkpt><trkpt lat="43.95986601997724" lon="12.715406300128521"><ele>21.0</ele><time>2026-05-03T14:58:33.999Z</time></trkpt><trkpt lat="43.959982127150134" lon="12.71522029487286"><ele>21.0</ele><time>2026-05-03T14:58:34.999Z</time></trkpt><trkpt lat="43.960106740880164" lon="12.715040222177121"><ele>20.0</ele><time>2026-05-03T14:58:35.999Z</time></trkpt><trkpt lat="43.960216439921666" lon="12.714871470129477"><ele>19.0</ele><time>2026-05-03T14:58:36.999Z</time></trkpt><trkpt lat="43.96033581666786" lon="12.714718865354842"><ele>18.0</ele><time>2026-05-03T14:58:37.999Z</time></trkpt><trkpt lat="43.96045461736451" lon="12.714580833549213"><ele>18.0</ele><time>2026-05-03T14:58:38.999Z</time></trkpt><trkpt lat="43.960576376986374" lon="12.714441427512707"><ele>18.0</ele><time>2026-05-03T14:58:39.999Z</time></trkpt><trkpt lat="43.960700933002165" lon="12.714303560588847"><ele>18.0</ele><time>2026-05-03T14:58:40.999Z</time></trkpt><trkpt lat="43.960830780549315" lon="12.714174951869342"><ele>17.333333333333332</ele><time>2026-05-03T14:58:41.999Z</time></trkpt><trkpt lat="43.96097066162899" lon="12.714042353367672"><ele>16.666666666666664</ele><time>2026-05-03T14:58:42.999Z</time></trkpt><trkpt lat="43.961116560248996" lon="12.71391123844855"><ele>16.0</ele><time>2026-05-03T14:58:43.999Z</time></trkpt><trkpt lat="43.96126783799282" lon="12.713782274286503"><ele>16.0</ele><time>2026-05-03T14:58:44.999Z</time></trkpt><trkpt lat="43.96142336697702" lon="12.713653793944987"><ele>16.0</ele><time>2026-05-03T14:58:45.999Z</time></trkpt><trkpt lat="43.96157697017472" lon="12.713535360038996"><ele>16.0</ele><time>2026-05-03T14:58:46.999Z</time></trkpt><trkpt lat="43.961738656503606" lon="12.713418305845344"><ele>15.333333333333332</ele><time>2026-05-03T14:58:47.999Z</time></trkpt><trkpt lat="43.96189670001013" lon="12.713301800586075"><ele>14.666666666666668</ele><time>2026-05-03T14:58:48.999Z</time></trkpt><trkpt lat="43.96205748676687" lon="12.713190857131165"><ele>14.0</ele><time>2026-05-03T14:58:49.999Z</time></trkpt><trkpt lat="43.96221708373132" lon="12.713083076868676"><ele>14.0</ele><time>2026-05-03T14:58:50.999Z</time></trkpt><trkpt lat="43.96237935814161" lon="12.712980151517543"><ele>14.0</ele><time>2026-05-03T14:58:51.999Z</time></trkpt><trkpt lat="43.96253757425319" lon="12.712869567444468"><ele>14.0</ele><time>2026-05-03T14:58:52.999Z</time></trkpt><trkpt lat="43.96269724850179" lon="12.712765505562642"><ele>13.0</ele><time>2026-05-03T14:58:53.999Z</time></trkpt><trkpt lat="43.96285440756545" lon="12.712660730495607"><ele>12.0</ele><time>2026-05-03T14:58:54.999Z</time></trkpt><trkpt lat="43.96301451062375" lon="12.712551615076855"><ele>11.0</ele><time>2026-05-03T14:58:55.999Z</time></trkpt><trkpt lat="43.96317618077687" lon="12.71244477742294"><ele>11.0</ele><time>2026-05-03T14:58:57Z</time></trkpt><trkpt lat="43.96333235386422" lon="12.712339151850522"><ele>11.0</ele><time>2026-05-03T14:58:58Z</time></trkpt><trkpt lat="43.963491216987286" lon="12.712236745036675"><ele>11.0</ele><time>2026-05-03T14:58:59Z</time></trkpt><trkpt lat="43.96365201207665" lon="12.712127390533302"><ele>9.333333333333332</ele><time>2026-05-03T14:59:00Z</time></trkpt><trkpt lat="43.96381392786764" lon="12.712018899224232"><ele>7.666666666666666</ele><time>2026-05-03T14:59:01Z</time></trkpt><trkpt lat="43.963979567378594" lon="12.711915923343433"><ele>6.0</ele><time>2026-05-03T14:59:02Z</time></trkpt><trkpt lat="43.96413711932946" lon="12.711811806398758"><ele>6.333333333333334</ele><time>2026-05-03T14:59:03Z</time></trkpt><trkpt lat="43.96429736760291" lon="12.711705383101494"><ele>6.666666666666667</ele><time>2026-05-03T14:59:04Z</time></trkpt><trkpt lat="43.96445608946508" lon="12.711597678833204"><ele>7.0</ele><time>2026-05-03T14:59:05Z</time></trkpt><trkpt lat="43.96461077738368" lon="12.711497433533356"><ele>7.0</ele><time>2026-05-03T14:59:06Z</time></trkpt><trkpt lat="43.964767955312745" lon="12.711395002464991"><ele>7.0</ele><time>2026-05-03T14:59:07Z</time></trkpt><trkpt lat="43.96492560299337" lon="12.711291410697216"><ele>7.0</ele><time>2026-05-03T14:59:08Z</time></trkpt><trkpt lat="43.96507990910552" lon="12.711188954762669"><ele>7.666666666666667</ele><time>2026-05-03T14:59:09Z</time></trkpt><trkpt lat="43.96522628562112" lon="12.711092005507016"><ele>8.333333333333334</ele><time>2026-05-03T14:59:10Z</time></trkpt><trkpt lat="43.965362343952506" lon="12.710999387766671"><ele>9.0</ele><time>2026-05-03T14:59:11Z</time></trkpt><trkpt lat="43.965495249843165" lon="12.71090612659734"><ele>8.75</ele><time>2026-05-03T14:59:12Z</time></trkpt><trkpt lat="43.96562055549805" lon="12.71081575681793"><ele>8.5</ele><time>2026-05-03T14:59:13Z</time></trkpt><trkpt lat="43.96574665256136" lon="12.710720734997533"><ele>8.25</ele><time>2026-05-03T14:59:14Z</time></trkpt><trkpt lat="43.9658782873824" lon="12.710620307216413"><ele>8.0</ele><time>2026-05-03T14:59:15Z</time></trkpt><trkpt lat="43.96600098266193" lon="12.710519156554794"><ele>8.0</ele><time>2026-05-03T14:59:16Z</time></trkpt><trkpt lat="43.96612452305313" lon="12.710421190414285"><ele>8.0</ele><time>2026-05-03T14:59:17Z</time></trkpt><trkpt lat="43.966239507100546" lon="12.710326457344305"><ele>8.0</ele><time>2026-05-03T14:59:18Z</time></trkpt><trkpt lat="43.966351056998214" lon="12.710234408521424"><ele>8.0</ele><time>2026-05-03T14:59:19Z</time></trkpt><trkpt lat="43.96645604436092" lon="12.710146801054467"><ele>8.25</ele><time>2026-05-03T14:59:20Z</time></trkpt><trkpt lat="43.96656191200138" lon="12.710058782715695"><ele>8.5</ele><time>2026-05-03T14:59:21Z</time></trkpt><trkpt lat="43.96667339679537" lon="12.709964973955872"><ele>8.75</ele><time>2026-05-03T14:59:22Z</time></trkpt><trkpt lat="43.966782226039186" lon="12.709869809316725"><ele>9.0</ele><time>2026-05-03T14:59:23Z</time></trkpt><trkpt lat="43.96689243652738" lon="12.709770680251797"><ele>7.75</ele><time>2026-05-03T14:59:24Z</time></trkpt><trkpt lat="43.967009366806586" lon="12.709660726839402"><ele>6.5</ele><time>2026-05-03T14:59:25Z</time></trkpt><trkpt lat="43.96712008314516" lon="12.709544851705841"><ele>5.25</ele><time>2026-05-03T14:59:26Z</time></trkpt><trkpt lat="43.967236261488885" lon="12.709428242689105"><ele>4.0</ele><time>2026-05-03T14:59:27Z</time></trkpt><trkpt lat="43.967350748727384" lon="12.709305330962525"><ele>4.0</ele><time>2026-05-03T14:59:28.001Z</time></trkpt><trkpt lat="43.967458202428986" lon="12.709189116855402"><ele>4.0</ele><time>2026-05-03T14:59:29.001Z</time></trkpt><trkpt lat="43.96756328926443" lon="12.709086029384002"><ele>4.0</ele><time>2026-05-03T14:59:30.001Z</time></trkpt><trkpt lat="43.96765952909707" lon="12.708964291158216"><ele>4.0</ele><time>2026-05-03T14:59:31.001Z</time></trkpt><trkpt lat="43.96775488704135" lon="12.708853772289105"><ele>3.75</ele><time>2026-05-03T14:59:32.001Z</time></trkpt><trkpt lat="43.96785080456036" lon="12.708739156058678"><ele>3.5</ele><time>2026-05-03T14:59:33.001Z</time></trkpt><trkpt lat="43.96795078626945" lon="12.70861871450718"><ele>3.25</ele><time>2026-05-03T14:59:34.001Z</time></trkpt><trkpt lat="43.96805587523184" lon="12.70848908636858"><ele>3.0</ele><time>2026-05-03T14:59:35.001Z</time></trkpt><trkpt lat="43.9681618808805" lon="12.70835113492184"><ele>3.0</ele><time>2026-05-03T14:59:36.001Z</time></trkpt><trkpt lat="43.9682605827014" lon="12.708215565716822"><ele>3.0</ele><time>2026-05-03T14:59:37.001Z</time></trkpt><trkpt lat="43.968352745727735" lon="12.708079933322546"><ele>3.0</ele><time>2026-05-03T14:59:38.001Z</time></trkpt><trkpt lat="43.96844149193781" lon="12.707942941597741"><ele>3.0</ele><time>2026-05-03T14:59:39.001Z</time></trkpt><trkpt lat="43.968527457877556" lon="12.707805679941023"><ele>2.75</ele><time>2026-05-03T14:59:40.001Z</time></trkpt><trkpt lat="43.9686117352706" lon="12.707660735014628"><ele>2.5</ele><time>2026-05-03T14:59:41.001Z</time></trkpt><trkpt lat="43.96869730437602" lon="12.70751181611211"><ele>2.25</ele><time>2026-05-03T14:59:42.001Z</time></trkpt><trkpt lat="43.96878829785532" lon="12.707353012216155"><ele>2.0</ele><time>2026-05-03T14:59:43.001Z</time></trkpt><trkpt lat="43.968879607667304" lon="12.707185092301739"><ele>2.0</ele><time>2026-05-03T14:59:44.001Z</time></trkpt><trkpt lat="43.96896797911424" lon="12.707009282252908"><ele>2.0</ele><time>2026-05-03T14:59:45.001Z</time></trkpt><trkpt lat="43.96905624681247" lon="12.706830117437164"><ele>2.0</ele><time>2026-05-03T14:59:46.001Z</time></trkpt><trkpt lat="43.96914318392154" lon="12.706639149190364"><ele>2.25</ele><time>2026-05-03T14:59:47.001Z</time></trkpt><trkpt lat="43.96922521374001" lon="12.706453483553995"><ele>2.5</ele><time>2026-05-03T14:59:48.001Z</time></trkpt><trkpt lat="43.96929918139132" lon="12.706275315690212"><ele>2.75</ele><time>2026-05-03T14:59:49.001Z</time></trkpt><trkpt lat="43.96937030761347" lon="12.706102211437061"><ele>3.0</ele><time>2026-05-03T14:59:50.001Z</time></trkpt><trkpt lat="43.96943940571273" lon="12.705936532185897"><ele>3.5</ele><time>2026-05-03T14:59:51.001Z</time></trkpt><trkpt lat="43.96950842792651" lon="12.70577345610812"><ele>4.0</ele><time>2026-05-03T14:59:52.001Z</time></trkpt><trkpt lat="43.96957690720527" lon="12.705609487614623"><ele>4.5</ele><time>2026-05-03T14:59:53.001Z</time></trkpt><trkpt lat="43.96964391110565" lon="12.705440811878177"><ele>5.0</ele><time>2026-05-03T14:59:54.001Z</time></trkpt><trkpt lat="43.96970906932303" lon="12.705272972619781"><ele>4.5</ele><time>2026-05-03T14:59:55.001Z</time></trkpt><trkpt lat="43.96976761192777" lon="12.70511821004844"><ele>4.0</ele><time>2026-05-03T14:59:56.001Z</time></trkpt><trkpt lat="43.969823998939766" lon="12.704973781788073"><ele>3.5</ele><time>2026-05-03T14:59:57.001Z</time></trkpt><trkpt lat="43.96987808992869" lon="12.704836503313931"><ele>3.0</ele><time>2026-05-03T14:59:58.001Z</time></trkpt><trkpt lat="43.96992755665569" lon="12.704712152411904"><ele>3.0</ele><time>2026-05-03T14:59:59.001Z</time></trkpt><trkpt lat="43.969973798572966" lon="12.704585505389831"><ele>3.0</ele><time>2026-05-03T15:00:00.001Z</time></trkpt><trkpt lat="43.97002692758336" lon="12.704453939159537"><ele>3.0</ele><time>2026-05-03T15:00:01.001Z</time></trkpt><trkpt lat="43.97008279379983" lon="12.70431756026085"><ele>3.0</ele><time>2026-05-03T15:00:02.001Z</time></trkpt><trkpt lat="43.97013952574772" lon="12.704178033951376"><ele>3.0</ele><time>2026-05-03T15:00:03.001Z</time></trkpt><trkpt lat="43.97019353232456" lon="12.70404303640399"><ele>3.0</ele><time>2026-05-03T15:00:04.001Z</time></trkpt><trkpt lat="43.97024424869017" lon="12.703911553164197"><ele>3.0</ele><time>2026-05-03T15:00:05.001Z</time></trkpt><trkpt lat="43.97029004663113" lon="12.703796278261706"><ele>3.0</ele><time>2026-05-03T15:00:06.001Z</time></trkpt><trkpt lat="43.970335839275684" lon="12.703680771724175"><ele>3.0</ele><time>2026-05-03T15:00:07.002Z</time></trkpt><trkpt lat="43.970385425804636" lon="12.7035601548816"><ele>3.0</ele><time>2026-05-03T15:00:08.002Z</time></trkpt><trkpt lat="43.97043668429517" lon="12.703435816561857"><ele>2.8333333333333335</ele><time>2026-05-03T15:00:09.002Z</time></trkpt><trkpt lat="43.97048911524858" lon="12.703316468023726"><ele>2.6666666666666665</ele><time>2026-05-03T15:00:10.002Z</time></trkpt><trkpt lat="43.97053758591813" lon="12.70320486087062"><ele>2.5</ele><time>2026-05-03T15:00:11.002Z</time></trkpt><trkpt lat="43.97058035844248" lon="12.703106314412508"><ele>2.333333333333333</ele><time>2026-05-03T15:00:12.002Z</time></trkpt><trkpt lat="43.97062204315476" lon="12.703005363836962"><ele>2.1666666666666665</ele><time>2026-05-03T15:00:13.002Z</time></trkpt><trkpt lat="43.970664870331134" lon="12.702906146990086"><ele>2.0</ele><time>2026-05-03T15:00:14.002Z</time></trkpt><trkpt lat="43.97070568797389" lon="12.702812245225243"><ele>1.8333333333333333</ele><time>2026-05-03T15:00:15.002Z</time></trkpt><trkpt lat="43.970742570553725" lon="12.702728954141026"><ele>1.6666666666666665</ele><time>2026-05-03T15:00:16.002Z</time></trkpt><trkpt lat="43.97077669711341" lon="12.702652420389235"><ele>1.5</ele><time>2026-05-03T15:00:17.002Z</time></trkpt><trkpt lat="43.97083163526244" lon="12.702528745769872"><ele>1.3333333333333333</ele><time>2026-05-03T15:00:19.002Z</time></trkpt><trkpt lat="43.97088382537962" lon="12.702431649884405"><ele>1.1666666666666665</ele><time>2026-05-03T15:00:21.002Z</time></trkpt><trkpt lat="43.970934970147866" lon="12.702343513170582"><ele>1.0</ele><time>2026-05-03T15:00:26.002Z</time></trkpt><trkpt lat="43.9710391475068" lon="12.702252113313865"><ele>0.8333333333333333</ele><time>2026-05-03T15:00:28.002Z</time></trkpt><trkpt lat="43.97110778393039" lon="12.702218933157601"><ele>0.6666666666666666</ele><time>2026-05-03T15:00:29.002Z</time></trkpt><trkpt lat="43.971170962742285" lon="12.702149221889728"><ele>0.5</ele><time>2026-05-03T15:00:30.002Z</time></trkpt><trkpt lat="43.971211579516364" lon="12.702049251955158"><ele>0.3333333333333333</ele><time>2026-05-03T15:00:31.002Z</time></trkpt><trkpt lat="43.97121962311184" lon="12.701928249521249"><ele>0.16666666666666666</ele><time>2026-05-03T15:00:32.002Z</time></trkpt><trkpt lat="43.97120642657614" lon="12.701823972323655"><ele>0.0</ele><time>2026-05-03T15:00:33.002Z</time></trkpt><trkpt lat="43.97120283899385" lon="12.701716825086898"><ele>-0.2</ele><time>2026-05-03T15:00:34.002Z</time></trkpt><trkpt lat="43.97122215316299" lon="12.701611833174978"><ele>-0.4</ele><time>2026-05-03T15:00:35.002Z</time></trkpt><trkpt lat="43.97126692673044" lon="12.701498399932195"><ele>-0.6000000000000001</ele><time>2026-05-03T15:00:36.002Z</time></trkpt><trkpt lat="43.971321770692235" lon="12.70138400812386"><ele>-0.8</ele><time>2026-05-03T15:00:36.999Z</time></trkpt><trkpt lat="43.97137670603106" lon="12.701275432278628"><ele>-1.0</ele><time>2026-05-03T15:00:37.999Z</time></trkpt><trkpt lat="43.97143245714545" lon="12.701154874870305"><ele>-0.8</ele><time>2026-05-03T15:00:38.999Z</time></trkpt><trkpt lat="43.9714907972024" lon="12.701028781164757"><ele>-0.6000000000000001</ele><time>2026-05-03T15:00:39.999Z</time></trkpt><trkpt lat="43.971548042374884" lon="12.700903961701227"><ele>-0.4</ele><time>2026-05-03T15:00:40.999Z</time></trkpt><trkpt lat="43.97160439143485" lon="12.700782954353423"><ele>-0.2</ele><time>2026-05-03T15:00:41.999Z</time></trkpt><trkpt lat="43.97166079062632" lon="12.70066509355166"><ele>0.0</ele><time>2026-05-03T15:00:42.999Z</time></trkpt><trkpt lat="43.971715848131346" lon="12.700550597186067"><ele>0.0</ele><time>2026-05-03T15:00:43.999Z</time></trkpt><trkpt lat="43.971770838092475" lon="12.700437638436512"><ele>0.0</ele><time>2026-05-03T15:00:44.999Z</time></trkpt><trkpt lat="43.97182462604933" lon="12.700328792303507"><ele>0.0</ele><time>2026-05-03T15:00:45.999Z</time></trkpt><trkpt lat="43.971877793350906" lon="12.700219462206125"><ele>0.0</ele><time>2026-05-03T15:00:46.999Z</time></trkpt><trkpt lat="43.97192917306378" lon="12.700118965338527"><ele>0.0</ele><time>2026-05-03T15:00:47.999Z</time></trkpt><trkpt lat="43.97197659537131" lon="12.700033541608043"><ele>0.0</ele><time>2026-05-03T15:00:48.999Z</time></trkpt><trkpt lat="43.97201882447163" lon="12.699958492598542"><ele>0.0</ele><time>2026-05-03T15:00:49.999Z</time></trkpt><trkpt lat="43.97208708496196" lon="12.699824411162448"><ele>0.0</ele><time>2026-05-03T15:00:52Z</time></trkpt><trkpt lat="43.972147603984226" lon="12.699699856167102"><ele>0.0</ele><time>2026-05-03T15:00:54Z</time></trkpt><trkpt lat="43.97217953623367" lon="12.69962294189676"><ele>0.0</ele><time>2026-05-03T15:00:55Z</time></trkpt><trkpt lat="43.97222084317279" lon="12.699534077738152"><ele>0.0</ele><time>2026-05-03T15:00:56Z</time></trkpt><trkpt lat="43.97226234039329" lon="12.699445368962108"><ele>0.0</ele><time>2026-05-03T15:00:57Z</time></trkpt><trkpt lat="43.9723237003931" lon="12.699312331766293"><ele>0.0</ele><time>2026-05-03T15:00:59Z</time></trkpt><trkpt lat="43.97237291935656" lon="12.699207080774324"><ele>0.0</ele><time>2026-05-03T15:01:01Z</time></trkpt><trkpt lat="43.97240545573745" lon="12.699131880806727"><ele>0.0</ele><time>2026-05-03T15:01:03Z</time></trkpt><trkpt lat="43.972464737310474" lon="12.699009547222209"><ele>0.0</ele><time>2026-05-03T15:01:06Z</time></trkpt><trkpt lat="43.972524214542716" lon="12.698864311141584"><ele>0.0</ele><time>2026-05-03T15:01:08Z</time></trkpt><trkpt lat="43.97258063124795" lon="12.698769544143694"><ele>0.0</ele><time>2026-05-03T15:01:09Z</time></trkpt><trkpt lat="43.97263045909226" lon="12.698665201727131"><ele>0.0</ele><time>2026-05-03T15:01:10Z</time></trkpt><trkpt lat="43.97267555007439" lon="12.698571422455197"><ele>0.0</ele><time>2026-05-03T15:01:11Z</time></trkpt><trkpt lat="43.9727288241135" lon="12.698460624229101"><ele>0.0</ele><time>2026-05-03T15:01:12Z</time></trkpt><trkpt lat="43.972789471361644" lon="12.698334491358693"><ele>0.2</ele><time>2026-05-03T15:01:13Z</time></trkpt><trkpt lat="43.97284642124752" lon="12.698216048185131"><ele>0.4</ele><time>2026-05-03T15:01:14Z</time></trkpt><trkpt lat="43.97290096543553" lon="12.698102608331194"><ele>0.6000000000000001</ele><time>2026-05-03T15:01:15Z</time></trkpt><trkpt lat="43.97295569815625" lon="12.697988776366769"><ele>0.8</ele><time>2026-05-03T15:01:16Z</time></trkpt><trkpt lat="43.972999553775416" lon="12.697858846213705"><ele>1.0</ele><time>2026-05-03T15:01:17.001Z</time></trkpt><trkpt lat="43.97305255233002" lon="12.697747371885795"><ele>1.3333333333333333</ele><time>2026-05-03T15:01:18.001Z</time></trkpt><trkpt lat="43.9731145052913" lon="12.697636118351209"><ele>1.6666666666666665</ele><time>2026-05-03T15:01:19.001Z</time></trkpt><trkpt lat="43.97316703604364" lon="12.697524999428255"><ele>2.0</ele><time>2026-05-03T15:01:20.001Z</time></trkpt><trkpt lat="43.97321280851374" lon="12.697427525341343"><ele>2.3333333333333335</ele><time>2026-05-03T15:01:21.001Z</time></trkpt><trkpt lat="43.97325782482187" lon="12.697337221301812"><ele>2.6666666666666665</ele><time>2026-05-03T15:01:22.001Z</time></trkpt><trkpt lat="43.973304557781454" lon="12.697250298812063"><ele>3.0</ele><time>2026-05-03T15:01:23.001Z</time></trkpt><trkpt lat="43.97334621661431" lon="12.697159680836435"><ele>3.1666666666666665</ele><time>2026-05-03T15:01:24.001Z</time></trkpt><trkpt lat="43.973392552768864" lon="12.697067729368213"><ele>3.333333333333333</ele><time>2026-05-03T15:01:25.001Z</time></trkpt><trkpt lat="43.97344848425622" lon="12.696966888501484"><ele>3.5</ele><time>2026-05-03T15:01:26.001Z</time></trkpt><trkpt lat="43.97349993567143" lon="12.696858706102796"><ele>3.6666666666666665</ele><time>2026-05-03T15:01:27.001Z</time></trkpt><trkpt lat="43.97355532338803" lon="12.696750741657045"><ele>3.833333333333333</ele><time>2026-05-03T15:01:28.001Z</time></trkpt><trkpt lat="43.97360755408922" lon="12.696657041228363"><ele>4.0</ele><time>2026-05-03T15:01:29.001Z</time></trkpt><trkpt lat="43.973666426972414" lon="12.696541511116749"><ele>3.9999999999999996</ele><time>2026-05-03T15:01:31.001Z</time></trkpt><trkpt lat="43.9737016478887" lon="12.69645717463908"><ele>4.0</ele><time>2026-05-03T15:01:33.001Z</time></trkpt><trkpt lat="43.97373679392504" lon="12.696375115679086"><ele>4.0</ele><time>2026-05-03T15:01:52.002Z</time></trkpt><trkpt lat="43.9737890940014" lon="12.696308526645751"><ele>4.0</ele><time>2026-05-03T15:01:57.002Z</time></trkpt><trkpt lat="43.973819497354064" lon="12.696222641873064"><ele>3.9999999999999996</ele><time>2026-05-03T15:01:59.002Z</time></trkpt><trkpt lat="43.973697373380325" lon="12.696083598620934"><ele>4.0</ele><time>2026-05-03T15:02:00.002Z</time></trkpt><trkpt lat="43.97362246366802" lon="12.696018501183618"><ele>3.8000000000000003</ele><time>2026-05-03T15:02:01.002Z</time></trkpt><trkpt lat="43.973540397973096" lon="12.695958744110245"><ele>3.6000000000000005</ele><time>2026-05-03T15:02:02.002Z</time></trkpt><trkpt lat="43.97345083217502" lon="12.695900266185477"><ele>3.4</ele><time>2026-05-03T15:02:03.002Z</time></trkpt><trkpt lat="43.97334504896417" lon="12.695823813214782"><ele>3.2</ele><time>2026-05-03T15:02:04.002Z</time></trkpt><trkpt lat="43.97322679900149" lon="12.695749035867689"><ele>3.0</ele><time>2026-05-03T15:02:05.002Z</time></trkpt><trkpt lat="43.97309651064321" lon="12.695673523477025"><ele>4.0</ele><time>2026-05-03T15:02:06.002Z</time></trkpt><trkpt lat="43.97297098468898" lon="12.695579631858829"><ele>5.0</ele><time>2026-05-03T15:02:07.002Z</time></trkpt><trkpt lat="43.972871843012825" lon="12.695506997574785"><ele>6.0</ele><time>2026-05-03T15:02:08.002Z</time></trkpt><trkpt lat="43.9727710927123" lon="12.695418688210465"><ele>7.0</ele><time>2026-05-03T15:02:09.002Z</time></trkpt><trkpt lat="43.972685894446805" lon="12.695271623224253"><ele>8.25</ele><time>2026-05-03T15:02:10.002Z</time></trkpt><trkpt lat="43.972591753575486" lon="12.695114175160125"><ele>9.5</ele><time>2026-05-03T15:02:11.002Z</time></trkpt><trkpt lat="43.97249347387663" lon="12.694970600946201"><ele>10.75</ele><time>2026-05-03T15:02:12.002Z</time></trkpt><trkpt lat="43.9724073690927" lon="12.694844820778941"><ele>12.0</ele><time>2026-05-03T15:02:13.002Z</time></trkpt><trkpt lat="43.972326832530825" lon="12.694749155677586"><ele>12.833333333333334</ele><time>2026-05-03T15:02:14.002Z</time></trkpt><trkpt lat="43.97225781908271" lon="12.694677277603832"><ele>13.666666666666668</ele><time>2026-05-03T15:02:15.002Z</time></trkpt><trkpt lat="43.97219263505821" lon="12.694635050078901"><ele>14.5</ele><time>2026-05-03T15:02:16.002Z</time></trkpt><trkpt lat="43.972132907841825" lon="12.694603634103391"><ele>15.333333333333334</ele><time>2026-05-03T15:02:17.002Z</time></trkpt><trkpt lat="43.97205681789937" lon="12.694576136110895"><ele>16.166666666666668</ele><time>2026-05-03T15:02:19.002Z</time></trkpt><trkpt lat="43.97199096134958" lon="12.694520574254282"><ele>17.0</ele><time>2026-05-03T15:02:22.002Z</time></trkpt><trkpt lat="43.97190863211083" lon="12.694476986012763"><ele>17.0</ele><time>2026-05-03T15:02:24.002Z</time></trkpt><trkpt lat="43.97186687408872" lon="12.694321544069531"><ele>17.0</ele><time>2026-05-03T15:02:25.002Z</time></trkpt><trkpt lat="43.971813936147626" lon="12.694231625221635"><ele>17.0</ele><time>2026-05-03T15:02:26.002Z</time></trkpt><trkpt lat="43.9717548930847" lon="12.694132353635913"><ele>17.0</ele><time>2026-05-03T15:02:27.002Z</time></trkpt><trkpt lat="43.97169362881702" lon="12.694026850944535"><ele>17.0</ele><time>2026-05-03T15:02:28.002Z</time></trkpt><trkpt lat="43.971636367679" lon="12.693921530982154"><ele>17.0</ele><time>2026-05-03T15:02:29.003Z</time></trkpt><trkpt lat="43.971575206671695" lon="12.693812742251664"><ele>17.0</ele><time>2026-05-03T15:02:30.003Z</time></trkpt><trkpt lat="43.971507044119804" lon="12.693699456968137"><ele>17.0</ele><time>2026-05-03T15:02:31.003Z</time></trkpt><trkpt lat="43.971433371448235" lon="12.693577298367416"><ele>17.0</ele><time>2026-05-03T15:02:32.003Z</time></trkpt><trkpt lat="43.971351793334485" lon="12.693442784770767"><ele>17.0</ele><time>2026-05-03T15:02:33.003Z</time></trkpt><trkpt lat="43.97128039369627" lon="12.693320098188979"><ele>16.6</ele><time>2026-05-03T15:02:34.003Z</time></trkpt><trkpt lat="43.971210881983914" lon="12.693197166697656"><ele>16.2</ele><time>2026-05-03T15:02:35.003Z</time></trkpt><trkpt lat="43.971139750257656" lon="12.693074315233948"><ele>15.8</ele><time>2026-05-03T15:02:36.003Z</time></trkpt><trkpt lat="43.97106907562887" lon="12.692953295702376"><ele>15.4</ele><time>2026-05-03T15:02:37.003Z</time></trkpt><trkpt lat="43.97099971607369" lon="12.692837051328604"><ele>15.0</ele><time>2026-05-03T15:02:38.003Z</time></trkpt><trkpt lat="43.97093335862195" lon="12.692721468749902"><ele>15.0</ele><time>2026-05-03T15:02:39.003Z</time></trkpt><trkpt lat="43.9708738223477" lon="12.69262051443928"><ele>15.0</ele><time>2026-05-03T15:02:40.003Z</time></trkpt><trkpt lat="43.97082342821863" lon="12.69253312008741"><ele>15.0</ele><time>2026-05-03T15:02:41.003Z</time></trkpt><trkpt lat="43.970774578513165" lon="12.692451793434604"><ele>15.0</ele><time>2026-05-03T15:02:42.003Z</time></trkpt><trkpt lat="43.970734161457955" lon="12.69238296308663"><ele>15.0</ele><time>2026-05-03T15:02:43Z</time></trkpt><trkpt lat="43.97066391258451" lon="12.69227220695275"><ele>15.0</ele><time>2026-05-03T15:02:45Z</time></trkpt><trkpt lat="43.9706456436917" lon="12.69217694313406"><ele>15.2</ele><time>2026-05-03T15:02:47Z</time></trkpt><trkpt lat="43.97073329686846" lon="12.692075204585292"><ele>15.4</ele><time>2026-05-03T15:02:48Z</time></trkpt><trkpt lat="43.97081215599258" lon="12.692006782717366"><ele>15.600000000000001</ele><time>2026-05-03T15:02:49Z</time></trkpt><trkpt lat="43.97089795311873" lon="12.691919859126296"><ele>15.8</ele><time>2026-05-03T15:02:50Z</time></trkpt><trkpt lat="43.97098007266227" lon="12.691821857436347"><ele>16.0</ele><time>2026-05-03T15:02:51Z</time></trkpt><trkpt lat="43.971070531441086" lon="12.691712497911364"><ele>15.5</ele><time>2026-05-03T15:02:52Z</time></trkpt><trkpt lat="43.971179867903786" lon="12.691580818010582"><ele>15.0</ele><time>2026-05-03T15:02:53Z</time></trkpt><trkpt lat="43.97128621057387" lon="12.691457225933709"><ele>14.5</ele><time>2026-05-03T15:02:54Z</time></trkpt><trkpt lat="43.97138373115003" lon="12.69134695298548"><ele>14.0</ele><time>2026-05-03T15:02:55Z</time></trkpt><trkpt lat="43.97148452712475" lon="12.691224048563418"><ele>13.75</ele><time>2026-05-03T15:02:56Z</time></trkpt><trkpt lat="43.971590845181204" lon="12.691085618790748"><ele>13.5</ele><time>2026-05-03T15:02:57Z</time></trkpt><trkpt lat="43.97168734409189" lon="12.690938382292327"><ele>13.25</ele><time>2026-05-03T15:02:58Z</time></trkpt><trkpt lat="43.97178185228926" lon="12.690772810460116"><ele>13.0</ele><time>2026-05-03T15:02:59Z</time></trkpt><trkpt lat="43.97187144333955" lon="12.690604347608675"><ele>12.75</ele><time>2026-05-03T15:03:00Z</time></trkpt><trkpt lat="43.97195340946632" lon="12.69044280585288"><ele>12.5</ele><time>2026-05-03T15:03:01Z</time></trkpt><trkpt lat="43.97203618343847" lon="12.690287696271888"><ele>12.25</ele><time>2026-05-03T15:03:02Z</time></trkpt><trkpt lat="43.97210687122986" lon="12.6901386056175"><ele>12.0</ele><time>2026-05-03T15:03:03Z</time></trkpt><trkpt lat="43.97218078240173" lon="12.690007168907021"><ele>12.0</ele><time>2026-05-03T15:03:04Z</time></trkpt><trkpt lat="43.972226374921355" lon="12.689866016512893"><ele>12.0</ele><time>2026-05-03T15:03:05Z</time></trkpt><trkpt lat="43.972283314048646" lon="12.689715281866746"><ele>12.0</ele><time>2026-05-03T15:03:06Z</time></trkpt><trkpt lat="43.972351957277304" lon="12.689557177317395"><ele>12.0</ele><time>2026-05-03T15:03:07Z</time></trkpt><trkpt lat="43.97241994026791" lon="12.689380120053604"><ele>11.5</ele><time>2026-05-03T15:03:08Z</time></trkpt><trkpt lat="43.972484603403736" lon="12.689196645332213"><ele>11.0</ele><time>2026-05-03T15:03:09Z</time></trkpt><trkpt lat="43.97253762553975" lon="12.689025204682617"><ele>10.5</ele><time>2026-05-03T15:03:10Z</time></trkpt><trkpt lat="43.97258646381006" lon="12.68887326976551"><ele>10.0</ele><time>2026-05-03T15:03:11Z</time></trkpt><trkpt lat="43.97262811835138" lon="12.688733156033335"><ele>10.0</ele><time>2026-05-03T15:03:12.001Z</time></trkpt><trkpt lat="43.97265576166217" lon="12.688598180366004"><ele>10.0</ele><time>2026-05-03T15:03:13.001Z</time></trkpt><trkpt lat="43.972671629963344" lon="12.688468602124507"><ele>10.0</ele><time>2026-05-03T15:03:14.001Z</time></trkpt><trkpt lat="43.9726792705378" lon="12.688333864098276"><ele>10.0</ele><time>2026-05-03T15:03:15.001Z</time></trkpt><trkpt lat="43.97265585875045" lon="12.688189610459391"><ele>10.0</ele><time>2026-05-03T15:03:16.001Z</time></trkpt><trkpt lat="43.97260037527964" lon="12.688054033936018"><ele>10.25</ele><time>2026-05-03T15:03:17.001Z</time></trkpt><trkpt lat="43.9725089708365" lon="12.687933359253174"><ele>10.5</ele><time>2026-05-03T15:03:18.001Z</time></trkpt><trkpt lat="43.97240162091936" lon="12.68782198075467"><ele>10.75</ele><time>2026-05-03T15:03:19.001Z</time></trkpt><trkpt lat="43.97228692223436" lon="12.687717759393543"><ele>11.0</ele><time>2026-05-03T15:03:20.001Z</time></trkpt><trkpt lat="43.972187185308066" lon="12.68760168330982"><ele>11.75</ele><time>2026-05-03T15:03:21.001Z</time></trkpt><trkpt lat="43.97208789940079" lon="12.687476657568325"><ele>12.5</ele><time>2026-05-03T15:03:22.001Z</time></trkpt><trkpt lat="43.97200133226614" lon="12.687359238086724"><ele>13.25</ele><time>2026-05-03T15:03:23.001Z</time></trkpt><trkpt lat="43.97192476288859" lon="12.687237138174002"><ele>14.0</ele><time>2026-05-03T15:03:24.001Z</time></trkpt><trkpt lat="43.97185737080502" lon="12.68709996836424"><ele>14.0</ele><time>2026-05-03T15:03:25.001Z</time></trkpt><trkpt lat="43.97180382936736" lon="12.686938390855598"><ele>14.0</ele><time>2026-05-03T15:03:26.001Z</time></trkpt><trkpt lat="43.97177215000435" lon="12.686761980714877"><ele>14.0</ele><time>2026-05-03T15:03:27.001Z</time></trkpt><trkpt lat="43.97175611960042" lon="12.686577893368296"><ele>14.0</ele><time>2026-05-03T15:03:28.001Z</time></trkpt><trkpt lat="43.97175190556425" lon="12.686394721926089"><ele>13.75</ele><time>2026-05-03T15:03:29.001Z</time></trkpt><trkpt lat="43.97175542797992" lon="12.686212957975146"><ele>13.5</ele><time>2026-05-03T15:03:30.001Z</time></trkpt><trkpt lat="43.97175793505179" lon="12.68603181185923"><ele>13.25</ele><time>2026-05-03T15:03:31.001Z</time></trkpt><trkpt lat="43.971757622270395" lon="12.685844830757745"><ele>13.0</ele><time>2026-05-03T15:03:32.001Z</time></trkpt><trkpt lat="43.971751610639444" lon="12.685657554308683"><ele>13.0</ele><time>2026-05-03T15:03:33.001Z</time></trkpt><trkpt lat="43.97174905352698" lon="12.68549377166587"><ele>13.0</ele><time>2026-05-03T15:03:34.001Z</time></trkpt><trkpt lat="43.9717226208289" lon="12.685326817494065"><ele>13.0</ele><time>2026-05-03T15:03:35.001Z</time></trkpt><trkpt lat="43.971687721080194" lon="12.685149059539167"><ele>13.0</ele><time>2026-05-03T15:03:36.001Z</time></trkpt><trkpt lat="43.97167393367364" lon="12.684976469559583"><ele>13.5</ele><time>2026-05-03T15:03:37.001Z</time></trkpt><trkpt lat="43.971679981204936" lon="12.684792615074716"><ele>14.0</ele><time>2026-05-03T15:03:38.001Z</time></trkpt><trkpt lat="43.97170067775961" lon="12.684608770844308"><ele>14.5</ele><time>2026-05-03T15:03:39.001Z</time></trkpt><trkpt lat="43.97173714748222" lon="12.684417656181521"><ele>15.0</ele><time>2026-05-03T15:03:40.001Z</time></trkpt><trkpt lat="43.971784658983786" lon="12.684230091679515"><ele>15.25</ele><time>2026-05-03T15:03:41.001Z</time></trkpt><trkpt lat="43.97182945228557" lon="12.684049597628608"><ele>15.5</ele><time>2026-05-03T15:03:42.001Z</time></trkpt><trkpt lat="43.97186590767918" lon="12.683882833263368"><ele>15.75</ele><time>2026-05-03T15:03:43.001Z</time></trkpt><trkpt lat="43.97188534930649" lon="12.68371598487478"><ele>16.0</ele><time>2026-05-03T15:03:44.001Z</time></trkpt><trkpt lat="43.97187225969135" lon="12.683541038746478"><ele>16.25</ele><time>2026-05-03T15:03:45.001Z</time></trkpt><trkpt lat="43.971841477572276" lon="12.683355967398853"><ele>16.5</ele><time>2026-05-03T15:03:46.001Z</time></trkpt><trkpt lat="43.971803608802766" lon="12.683167319883744"><ele>16.75</ele><time>2026-05-03T15:03:47.001Z</time></trkpt><trkpt lat="43.97176765007525" lon="12.682973416690098"><ele>17.0</ele><time>2026-05-03T15:03:48.001Z</time></trkpt><trkpt lat="43.97173086045358" lon="12.682778539098535"><ele>17.0</ele><time>2026-05-03T15:03:49.001Z</time></trkpt><trkpt lat="43.971693466445835" lon="12.682575273336047"><ele>17.0</ele><time>2026-05-03T15:03:50.001Z</time></trkpt><trkpt lat="43.971656872218446" lon="12.682375852596966"><ele>17.0</ele><time>2026-05-03T15:03:51.002Z</time></trkpt><trkpt lat="43.971623250461285" lon="12.6821787818826"><ele>17.0</ele><time>2026-05-03T15:03:52.002Z</time></trkpt><trkpt lat="43.971588825056784" lon="12.681976589991708"><ele>16.75</ele><time>2026-05-03T15:03:53.002Z</time></trkpt><trkpt lat="43.971555306824754" lon="12.681778666453623"><ele>16.5</ele><time>2026-05-03T15:03:54.002Z</time></trkpt><trkpt lat="43.97153715598597" lon="12.681586314094536"><ele>16.25</ele><time>2026-05-03T15:03:55.002Z</time></trkpt><trkpt lat="43.97153567814988" lon="12.68139259065971"><ele>16.0</ele><time>2026-05-03T15:03:56.002Z</time></trkpt><trkpt lat="43.971551216642474" lon="12.681201023297136"><ele>16.25</ele><time>2026-05-03T15:03:57.002Z</time></trkpt><trkpt lat="43.971574476807135" lon="12.681013758896494"><ele>16.5</ele><time>2026-05-03T15:03:58.002Z</time></trkpt><trkpt lat="43.971603778916645" lon="12.680818723672145"><ele>16.75</ele><time>2026-05-03T15:03:59.002Z</time></trkpt><trkpt lat="43.971642891446336" lon="12.680614544051839"><ele>17.0</ele><time>2026-05-03T15:04:00.002Z</time></trkpt><trkpt lat="43.971680265845826" lon="12.680408901888455"><ele>17.333333333333336</ele><time>2026-05-03T15:04:01.002Z</time></trkpt><trkpt lat="43.971721189132694" lon="12.680195314991407"><ele>17.666666666666668</ele><time>2026-05-03T15:04:02.002Z</time></trkpt><trkpt lat="43.97176661501081" lon="12.679969900883671"><ele>18.0</ele><time>2026-05-03T15:04:03.002Z</time></trkpt><trkpt lat="43.971811376374234" lon="12.679746922185554"><ele>18.0</ele><time>2026-05-03T15:04:04.002Z</time></trkpt><trkpt lat="43.97185136844896" lon="12.679540672944588"><ele>18.0</ele><time>2026-05-03T15:04:05.002Z</time></trkpt><trkpt lat="43.97188775461337" lon="12.679353190953396"><ele>18.0</ele><time>2026-05-03T15:04:06.002Z</time></trkpt><trkpt lat="43.971916545922205" lon="12.679182108553785"><ele>18.0</ele><time>2026-05-03T15:04:07.002Z</time></trkpt><trkpt lat="43.97194621501277" lon="12.679017293001241"><ele>18.0</ele><time>2026-05-03T15:04:08.002Z</time></trkpt><trkpt lat="43.971974523283976" lon="12.678870756437245"><ele>18.0</ele><time>2026-05-03T15:04:09.002Z</time></trkpt><trkpt lat="43.97199567094508" lon="12.678754201329582"><ele>18.0</ele><time>2026-05-03T15:04:10.002Z</time></trkpt><trkpt lat="43.972014761346706" lon="12.67865555239102"><ele>18.0</ele><time>2026-05-03T15:04:11.002Z</time></trkpt><trkpt lat="43.972048270889296" lon="12.678511984953744"><ele>18.0</ele><time>2026-05-03T15:04:13.002Z</time></trkpt><trkpt lat="43.97210337108974" lon="12.67838179138502"><ele>18.25</ele><time>2026-05-03T15:04:15.002Z</time></trkpt><trkpt lat="43.972068756886635" lon="12.678160767561277"><ele>18.5</ele><time>2026-05-03T15:04:17.002Z</time></trkpt><trkpt lat="43.97204865640585" lon="12.678022217811755"><ele>18.75</ele><time>2026-05-03T15:04:18.002Z</time></trkpt><trkpt lat="43.97203514569629" lon="12.677865973757767"><ele>19.0</ele><time>2026-05-03T15:04:19.002Z</time></trkpt><trkpt lat="43.97202575284888" lon="12.67771076645817"><ele>18.599999999999998</ele><time>2026-05-03T15:04:20.002Z</time></trkpt><trkpt lat="43.972019458655154" lon="12.677558714699572"><ele>18.2</ele><time>2026-05-03T15:04:21.002Z</time></trkpt><trkpt lat="43.97201344174457" lon="12.677417557476975"><ele>17.799999999999997</ele><time>2026-05-03T15:04:22.002Z</time></trkpt><trkpt lat="43.972013808969095" lon="12.677284935971427"><ele>17.4</ele><time>2026-05-03T15:04:23.002Z</time></trkpt><trkpt lat="43.972012394721325" lon="12.677156425460813"><ele>17.0</ele><time>2026-05-03T15:04:24.002Z</time></trkpt><trkpt lat="43.97201003668171" lon="12.677022775124072"><ele>17.25</ele><time>2026-05-03T15:04:25.002Z</time></trkpt><trkpt lat="43.972008204050084" lon="12.676880023650792"><ele>17.5</ele><time>2026-05-03T15:04:26.002Z</time></trkpt><trkpt lat="43.972000583156515" lon="12.676713381648593"><ele>17.75</ele><time>2026-05-03T15:04:27.002Z</time></trkpt><trkpt lat="43.97200076115582" lon="12.676537853807801"><ele>18.0</ele><time>2026-05-03T15:04:28.002Z</time></trkpt><trkpt lat="43.97199938325763" lon="12.676368727700012"><ele>18.0</ele><time>2026-05-03T15:04:29.003Z</time></trkpt><trkpt lat="43.971997312923726" lon="12.676204722736603"><ele>18.0</ele><time>2026-05-03T15:04:30.003Z</time></trkpt><trkpt lat="43.971996150137834" lon="12.676046633465463"><ele>18.0</ele><time>2026-05-03T15:04:31.003Z</time></trkpt><trkpt lat="43.97199385857742" lon="12.675914787106347"><ele>18.0</ele><time>2026-05-03T15:04:32.003Z</time></trkpt><trkpt lat="43.97199075335182" lon="12.675803428947217"><ele>18.0</ele><time>2026-05-03T15:04:33.003Z</time></trkpt><trkpt lat="43.971992351004246" lon="12.675707767808856"><ele>18.2</ele><time>2026-05-03T15:04:34.003Z</time></trkpt><trkpt lat="43.97200162594224" lon="12.675578667180302"><ele>18.4</ele><time>2026-05-03T15:04:36.003Z</time></trkpt><trkpt lat="43.9719990899053" lon="12.675437540661802"><ele>18.599999999999998</ele><time>2026-05-03T15:04:38.003Z</time></trkpt><trkpt lat="43.971965901434544" lon="12.675331708215035"><ele>18.8</ele><time>2026-05-03T15:04:39.003Z</time></trkpt><trkpt lat="43.971910381182525" lon="12.67520959134222"><ele>19.0</ele><time>2026-05-03T15:04:40.003Z</time></trkpt><trkpt lat="43.971847049772244" lon="12.675079166025835"><ele>19.25</ele><time>2026-05-03T15:04:41.003Z</time></trkpt><trkpt lat="43.971786788009396" lon="12.674951105272143"><ele>19.5</ele><time>2026-05-03T15:04:42.003Z</time></trkpt><trkpt lat="43.97172500569387" lon="12.67481601446349"><ele>19.75</ele><time>2026-05-03T15:04:43.003Z</time></trkpt><trkpt lat="43.97165510231844" lon="12.67466506014504"><ele>20.0</ele><time>2026-05-03T15:04:44.003Z</time></trkpt><trkpt lat="43.971581585992574" lon="12.67450727789535"><ele>20.2</ele><time>2026-05-03T15:04:45.003Z</time></trkpt><trkpt lat="43.97152318221352" lon="12.674381243208007"><ele>20.4</ele><time>2026-05-03T15:04:46.003Z</time></trkpt><trkpt lat="43.97147764282965" lon="12.674271024019466"><ele>20.6</ele><time>2026-05-03T15:04:47.003Z</time></trkpt><trkpt lat="43.97143336135682" lon="12.674170519421551"><ele>20.8</ele><time>2026-05-03T15:04:48.003Z</time></trkpt><trkpt lat="43.97138800459454" lon="12.674067961827165"><ele>21.0</ele><time>2026-05-03T15:04:49Z</time></trkpt><trkpt lat="43.97134169127261" lon="12.673961919792303"><ele>21.0</ele><time>2026-05-03T15:04:50Z</time></trkpt><trkpt lat="43.97129492146994" lon="12.673860415718751"><ele>21.0</ele><time>2026-05-03T15:04:51Z</time></trkpt><trkpt lat="43.97125523574477" lon="12.673770974829067"><ele>21.0</ele><time>2026-05-03T15:04:52Z</time></trkpt><trkpt lat="43.9712111654514" lon="12.673644021375827"><ele>21.0</ele><time>2026-05-03T15:04:54Z</time></trkpt><trkpt lat="43.97122607537431" lon="12.673537250997875"><ele>21.0</ele><time>2026-05-03T15:04:56Z</time></trkpt><trkpt lat="43.97121820292544" lon="12.673448844225396"><ele>21.0</ele><time>2026-05-03T15:04:57Z</time></trkpt><trkpt lat="43.97116692251579" lon="12.673372193539931"><ele>20.8</ele><time>2026-05-03T15:04:58Z</time></trkpt><trkpt lat="43.97108973388588" lon="12.67329250909287"><ele>20.6</ele><time>2026-05-03T15:04:59Z</time></trkpt><trkpt lat="43.971039362012554" lon="12.673184747551174"><ele>20.4</ele><time>2026-05-03T15:05:00Z</time></trkpt><trkpt lat="43.97103898779575" lon="12.673074753299135"><ele>20.2</ele><time>2026-05-03T15:05:01Z</time></trkpt><trkpt lat="43.97104838218755" lon="12.67294463870632"><ele>20.0</ele><time>2026-05-03T15:05:02Z</time></trkpt><trkpt lat="43.97105542882782" lon="12.672806730046155"><ele>20.0</ele><time>2026-05-03T15:05:03Z</time></trkpt><trkpt lat="43.971054597857545" lon="12.67267095089927"><ele>20.0</ele><time>2026-05-03T15:05:04Z</time></trkpt><trkpt lat="43.97104822606037" lon="12.672418555645379"><ele>20.0</ele><time>2026-05-03T15:05:06Z</time></trkpt><trkpt lat="43.97104838190477" lon="12.672324454842876"><ele>20.0</ele><time>2026-05-03T15:05:07Z</time></trkpt><trkpt lat="43.971069266429204" lon="12.672201827634133"><ele>20.0</ele><time>2026-05-03T15:05:09Z</time></trkpt><trkpt lat="43.97117993481773" lon="12.672077696104747"><ele>20.0</ele><time>2026-05-03T15:05:11Z</time></trkpt><trkpt lat="43.971259967167896" lon="12.6719973211657"><ele>20.0</ele><time>2026-05-03T15:05:12Z</time></trkpt><trkpt lat="43.971307812193814" lon="12.671886689669542"><ele>20.0</ele><time>2026-05-03T15:05:13Z</time></trkpt><trkpt lat="43.971320190881" lon="12.671754965466695"><ele>20.0</ele><time>2026-05-03T15:05:14Z</time></trkpt><trkpt lat="43.97130444473899" lon="12.671604414837262"><ele>20.0</ele><time>2026-05-03T15:05:15Z</time></trkpt><trkpt lat="43.97129178122557" lon="12.67144769087876"><ele>20.2</ele><time>2026-05-03T15:05:16Z</time></trkpt><trkpt lat="43.9712833989972" lon="12.671298807787519"><ele>20.4</ele><time>2026-05-03T15:05:17.001Z</time></trkpt><trkpt lat="43.97127389941978" lon="12.671166352451092"><ele>20.6</ele><time>2026-05-03T15:05:18.001Z</time></trkpt><trkpt lat="43.971195798072294" lon="12.671066601231908"><ele>20.8</ele><time>2026-05-03T15:05:19.001Z</time></trkpt><trkpt lat="43.971116731000826" lon="12.670970538555121"><ele>21.0</ele><time>2026-05-03T15:05:20.001Z</time></trkpt><trkpt lat="43.97105013477253" lon="12.670851206611164"><ele>20.6</ele><time>2026-05-03T15:05:21.001Z</time></trkpt><trkpt lat="43.97101032340279" lon="12.670708546369642"><ele>20.200000000000003</ele><time>2026-05-03T15:05:22.001Z</time></trkpt><trkpt lat="43.97099971733815" lon="12.670560910887787"><ele>19.799999999999997</ele><time>2026-05-03T15:05:23.001Z</time></trkpt><trkpt lat="43.97100269989697" lon="12.670405778221497"><ele>19.4</ele><time>2026-05-03T15:05:24.001Z</time></trkpt><trkpt lat="43.9710119274645" lon="12.67025151155476"><ele>19.0</ele><time>2026-05-03T15:05:25.001Z</time></trkpt><trkpt lat="43.97103638412352" lon="12.670096261184867"><ele>20.25</ele><time>2026-05-03T15:05:26.001Z</time></trkpt><trkpt lat="43.971081267194954" lon="12.669937407822347"><ele>21.5</ele><time>2026-05-03T15:05:27.001Z</time></trkpt><trkpt lat="43.971145960151965" lon="12.669774268273066"><ele>22.75</ele><time>2026-05-03T15:05:28.001Z</time></trkpt><trkpt lat="43.97122150260145" lon="12.669634289134626"><ele>24.0</ele><time>2026-05-03T15:05:29.001Z</time></trkpt><trkpt lat="43.97130029138999" lon="12.669491190707362"><ele>25.0</ele><time>2026-05-03T15:05:30.001Z</time></trkpt><trkpt lat="43.971377385830465" lon="12.669338764500162"><ele>26.0</ele><time>2026-05-03T15:05:31.001Z</time></trkpt><trkpt lat="43.97145262035551" lon="12.669187812065697"><ele>27.0</ele><time>2026-05-03T15:05:32.001Z</time></trkpt><trkpt lat="43.97152861787795" lon="12.669036881788768"><ele>28.0</ele><time>2026-05-03T15:05:33.001Z</time></trkpt><trkpt lat="43.97159855334729" lon="12.668894338144106"><ele>28.0</ele><time>2026-05-03T15:05:34.001Z</time></trkpt><trkpt lat="43.97166019504986" lon="12.66877206681051"><ele>27.999999999999996</ele><time>2026-05-03T15:05:35.001Z</time></trkpt><trkpt lat="43.971709565514686" lon="12.668664104328057"><ele>27.999999999999996</ele><time>2026-05-03T15:05:36.001Z</time></trkpt><trkpt lat="43.97175457171538" lon="12.668555511057175"><ele>28.0</ele><time>2026-05-03T15:05:37.001Z</time></trkpt><trkpt lat="43.971798527881646" lon="12.668429105082494"><ele>28.0</ele><time>2026-05-03T15:05:38.001Z</time></trkpt><trkpt lat="43.97182871315796" lon="12.668292374499597"><ele>28.2</ele><time>2026-05-03T15:05:39.001Z</time></trkpt><trkpt lat="43.971844393835255" lon="12.668157415793265"><ele>28.4</ele><time>2026-05-03T15:05:40.001Z</time></trkpt><trkpt lat="43.971848226485996" lon="12.66803505592621"><ele>28.599999999999998</ele><time>2026-05-03T15:05:41.001Z</time></trkpt><trkpt lat="43.97184592214991" lon="12.667932699397868"><ele>28.799999999999997</ele><time>2026-05-03T15:05:42.001Z</time></trkpt><trkpt lat="43.97186660597646" lon="12.667781348261052"><ele>29.0</ele><time>2026-05-03T15:05:44.001Z</time></trkpt><trkpt lat="43.972033829858326" lon="12.667672108339127"><ele>30.0</ele><time>2026-05-03T15:05:46.001Z</time></trkpt><trkpt lat="43.97213668113156" lon="12.667578575830774"><ele>31.0</ele><time>2026-05-03T15:05:47.001Z</time></trkpt><trkpt lat="43.97224633448948" lon="12.66747843434734"><ele>32.0</ele><time>2026-05-03T15:05:48.001Z</time></trkpt><trkpt lat="43.972371164411044" lon="12.6673740505085"><ele>33.0</ele><time>2026-05-03T15:05:49.001Z</time></trkpt><trkpt lat="43.97248507760482" lon="12.667261360520387"><ele>33.5</ele><time>2026-05-03T15:05:50.001Z</time></trkpt><trkpt lat="43.972603894637494" lon="12.667149739298248"><ele>34.0</ele><time>2026-05-03T15:05:51.001Z</time></trkpt><trkpt lat="43.97274197409019" lon="12.667055752979273"><ele>34.5</ele><time>2026-05-03T15:05:52.001Z</time></trkpt><trkpt lat="43.97287617107289" lon="12.666981000964443"><ele>35.0</ele><time>2026-05-03T15:05:53.001Z</time></trkpt><trkpt lat="43.97302457218745" lon="12.666910356282438"><ele>36.0</ele><time>2026-05-03T15:05:54.001Z</time></trkpt><trkpt lat="43.973179515625276" lon="12.66684515121746"><ele>37.0</ele><time>2026-05-03T15:05:55.002Z</time></trkpt><trkpt lat="43.973317796601506" lon="12.666773272541098"><ele>38.0</ele><time>2026-05-03T15:05:56.002Z</time></trkpt><trkpt lat="43.973445787772306" lon="12.666727053785483"><ele>39.0</ele><time>2026-05-03T15:05:57.002Z</time></trkpt><trkpt lat="43.973568448724706" lon="12.666695228793218"><ele>40.25</ele><time>2026-05-03T15:05:58.002Z</time></trkpt><trkpt lat="43.973679160229985" lon="12.666655521141678"><ele>41.5</ele><time>2026-05-03T15:05:59.002Z</time></trkpt><trkpt lat="43.973791809976376" lon="12.666602042818539"><ele>42.75</ele><time>2026-05-03T15:06:00.002Z</time></trkpt><trkpt lat="43.97392410953836" lon="12.666637200419824"><ele>44.0</ele><time>2026-05-03T15:06:01.002Z</time></trkpt><trkpt lat="43.97405612200991" lon="12.666695042861202"><ele>45.5</ele><time>2026-05-03T15:06:02.002Z</time></trkpt><trkpt lat="43.97419410860458" lon="12.666730467532014"><ele>47.0</ele><time>2026-05-03T15:06:03.002Z</time></trkpt><trkpt lat="43.97431572098066" lon="12.66677109496139"><ele>48.5</ele><time>2026-05-03T15:06:04.002Z</time></trkpt><trkpt lat="43.97442381669892" lon="12.666753625113259"><ele>50.0</ele><time>2026-05-03T15:06:05.002Z</time></trkpt><trkpt lat="43.97452838283876" lon="12.666702237115238"><ele>50.0</ele><time>2026-05-03T15:06:06.002Z</time></trkpt><trkpt lat="43.974632164757196" lon="12.666621595642823"><ele>50.0</ele><time>2026-05-03T15:06:07.002Z</time></trkpt><trkpt lat="43.974743675998695" lon="12.666521876598962"><ele>50.0</ele><time>2026-05-03T15:06:08.002Z</time></trkpt><trkpt lat="43.97485847961863" lon="12.66641528992901"><ele>50.0</ele><time>2026-05-03T15:06:09.002Z</time></trkpt><trkpt lat="43.97497760576622" lon="12.666301839152696"><ele>50.75</ele><time>2026-05-03T15:06:10.002Z</time></trkpt><trkpt lat="43.97509187973263" lon="12.666192193719255"><ele>51.5</ele><time>2026-05-03T15:06:11.002Z</time></trkpt><trkpt lat="43.97520428603933" lon="12.666081854520975"><ele>52.25</ele><time>2026-05-03T15:06:12.002Z</time></trkpt><trkpt lat="43.97531609071257" lon="12.665973670927738"><ele>53.0</ele><time>2026-05-03T15:06:13.002Z</time></trkpt><trkpt lat="43.97543999846322" lon="12.665882090584091"><ele>56.0</ele><time>2026-05-03T15:06:14.002Z</time></trkpt><trkpt lat="43.97556291440749" lon="12.665765230820531"><ele>59.0</ele><time>2026-05-03T15:06:15.002Z</time></trkpt><trkpt lat="43.975693592220374" lon="12.665638913222935"><ele>62.0</ele><time>2026-05-03T15:06:16.002Z</time></trkpt><trkpt lat="43.97581852092216" lon="12.66550336489654"><ele>61.75</ele><time>2026-05-03T15:06:17.002Z</time></trkpt><trkpt lat="43.97593704020594" lon="12.665379934539352"><ele>61.5</ele><time>2026-05-03T15:06:18.002Z</time></trkpt><trkpt lat="43.97604763134786" lon="12.665268448010043"><ele>61.25</ele><time>2026-05-03T15:06:19.002Z</time></trkpt><trkpt lat="43.97615772634708" lon="12.665161171587092"><ele>61.0</ele><time>2026-05-03T15:06:20.002Z</time></trkpt><trkpt lat="43.976287049227054" lon="12.665095530865708"><ele>62.5</ele><time>2026-05-03T15:06:21.002Z</time></trkpt><trkpt lat="43.97641498646128" lon="12.665019840818873"><ele>64.0</ele><time>2026-05-03T15:06:22.002Z</time></trkpt><trkpt lat="43.9765411047273" lon="12.664926091382293"><ele>65.5</ele><time>2026-05-03T15:06:23.002Z</time></trkpt><trkpt lat="43.97667590247392" lon="12.66485251857312"><ele>67.0</ele><time>2026-05-03T15:06:24.002Z</time></trkpt><trkpt lat="43.97679686271219" lon="12.664787088306134"><ele>67.0</ele><time>2026-05-03T15:06:25.002Z</time></trkpt><trkpt lat="43.97692291912956" lon="12.66472444870717"><ele>67.0</ele><time>2026-05-03T15:06:26.002Z</time></trkpt><trkpt lat="43.97703947569882" lon="12.664674220409596"><ele>67.0</ele><time>2026-05-03T15:06:27.002Z</time></trkpt><trkpt lat="43.97714207992725" lon="12.664613040276208"><ele>67.0</ele><time>2026-05-03T15:06:28.002Z</time></trkpt><trkpt lat="43.97724168489856" lon="12.664562293569052"><ele>67.0</ele><time>2026-05-03T15:06:29.002Z</time></trkpt><trkpt lat="43.977346844755935" lon="12.664503077316084"><ele>67.0</ele><time>2026-05-03T15:06:30.002Z</time></trkpt><trkpt lat="43.9774715501952" lon="12.664431986863224"><ele>67.0</ele><time>2026-05-03T15:06:31.002Z</time></trkpt><trkpt lat="43.97761024555941" lon="12.664357214639118"><ele>67.0</ele><time>2026-05-03T15:06:32.002Z</time></trkpt><trkpt lat="43.977746418577226" lon="12.66430047469877"><ele>67.5</ele><time>2026-05-03T15:06:33.003Z</time></trkpt><trkpt lat="43.97786887897324" lon="12.664260991743998"><ele>68.0</ele><time>2026-05-03T15:06:34.003Z</time></trkpt><trkpt lat="43.97799937488884" lon="12.664229761072164"><ele>68.5</ele><time>2026-05-03T15:06:35.003Z</time></trkpt><trkpt lat="43.97812723677245" lon="12.664211122844678"><ele>69.0</ele><time>2026-05-03T15:06:36.003Z</time></trkpt><trkpt lat="43.97823955541159" lon="12.664203241355859"><ele>70.25</ele><time>2026-05-03T15:06:37.003Z</time></trkpt><trkpt lat="43.97835207829349" lon="12.664228040173313"><ele>71.5</ele><time>2026-05-03T15:06:38.003Z</time></trkpt><trkpt lat="43.97846285790181" lon="12.664253184615792"><ele>72.75</ele><time>2026-05-03T15:06:39.003Z</time></trkpt><trkpt lat="43.978580066482" lon="12.664297310330381"><ele>74.0</ele><time>2026-05-03T15:06:40.003Z</time></trkpt><trkpt lat="43.97871163949682" lon="12.664347294119766"><ele>74.0</ele><time>2026-05-03T15:06:41.003Z</time></trkpt><trkpt lat="43.97883597254622" lon="12.664430095079343"><ele>74.0</ele><time>2026-05-03T15:06:42.003Z</time></trkpt><trkpt lat="43.97896416454636" lon="12.66450138991237"><ele>74.0</ele><time>2026-05-03T15:06:43.003Z</time></trkpt><trkpt lat="43.979097571551804" lon="12.664560793475822"><ele>74.0</ele><time>2026-05-03T15:06:44.003Z</time></trkpt><trkpt lat="43.97922607153725" lon="12.664604990294611"><ele>73.0</ele><time>2026-05-03T15:06:45.003Z</time></trkpt><trkpt lat="43.9793521651008" lon="12.66462868900838"><ele>72.0</ele><time>2026-05-03T15:06:46.003Z</time></trkpt><trkpt lat="43.9794728757725" lon="12.664657004408701"><ele>71.0</ele><time>2026-05-03T15:06:47.003Z</time></trkpt><trkpt lat="43.97959413504344" lon="12.664678648896736"><ele>70.0</ele><time>2026-05-03T15:06:48.003Z</time></trkpt><trkpt lat="43.979718216385464" lon="12.664697233034723"><ele>70.0</ele><time>2026-05-03T15:06:49.003Z</time></trkpt><trkpt lat="43.97983121957533" lon="12.664716983236945"><ele>70.0</ele><time>2026-05-03T15:06:50.003Z</time></trkpt><trkpt lat="43.97994256909929" lon="12.664715381698901"><ele>70.0</ele><time>2026-05-03T15:06:51.003Z</time></trkpt><trkpt lat="43.98006107146642" lon="12.664707653261642"><ele>70.0</ele><time>2026-05-03T15:06:52.003Z</time></trkpt><trkpt lat="43.980189472902325" lon="12.664679423551847"><ele>69.5</ele><time>2026-05-03T15:06:53.003Z</time></trkpt><trkpt lat="43.98030511208452" lon="12.664636547415247"><ele>69.0</ele><time>2026-05-03T15:06:54.003Z</time></trkpt><trkpt lat="43.98042300163721" lon="12.664596172722584"><ele>68.5</ele><time>2026-05-03T15:06:55Z</time></trkpt><trkpt lat="43.98053415765433" lon="12.66451763776828"><ele>68.0</ele><time>2026-05-03T15:06:56Z</time></trkpt><trkpt lat="43.98064361005989" lon="12.66443861845105"><ele>68.0</ele><time>2026-05-03T15:06:57Z</time></trkpt><trkpt lat="43.9807543354004" lon="12.664374966306307"><ele>68.0</ele><time>2026-05-03T15:06:58Z</time></trkpt><trkpt lat="43.98086290270367" lon="12.664311413274168"><ele>68.0</ele><time>2026-05-03T15:06:59Z</time></trkpt><trkpt lat="43.98096380768366" lon="12.664242478875124"><ele>68.0</ele><time>2026-05-03T15:07:00Z</time></trkpt><trkpt lat="43.98106866763917" lon="12.664168409630081"><ele>66.25</ele><time>2026-05-03T15:07:01Z</time></trkpt><trkpt lat="43.98117289333712" lon="12.664073641318868"><ele>64.5</ele><time>2026-05-03T15:07:02Z</time></trkpt><trkpt lat="43.98127004852072" lon="12.663958526694744"><ele>62.75</ele><time>2026-05-03T15:07:03Z</time></trkpt><trkpt lat="43.98136748728673" lon="12.663829558738367"><ele>61.0</ele><time>2026-05-03T15:07:04Z</time></trkpt><trkpt lat="43.98145678639193" lon="12.663689122153004"><ele>60.0</ele><time>2026-05-03T15:07:05Z</time></trkpt><trkpt lat="43.98153340153522" lon="12.66354185397895"><ele>59.0</ele><time>2026-05-03T15:07:06Z</time></trkpt><trkpt lat="43.98161364824061" lon="12.663397034498315"><ele>58.0</ele><time>2026-05-03T15:07:07Z</time></trkpt><trkpt lat="43.98169616532396" lon="12.663250590938897"><ele>57.0</ele><time>2026-05-03T15:07:08Z</time></trkpt><trkpt lat="43.98178160091811" lon="12.66310383738056"><ele>57.0</ele><time>2026-05-03T15:07:09Z</time></trkpt><trkpt lat="43.981885870268634" lon="12.66299920386555"><ele>57.0</ele><time>2026-05-03T15:07:10Z</time></trkpt><trkpt lat="43.981996069682275" lon="12.66290096731787"><ele>57.0</ele><time>2026-05-03T15:07:11Z</time></trkpt><trkpt lat="43.982112857653206" lon="12.66281121221397"><ele>57.0</ele><time>2026-05-03T15:07:12Z</time></trkpt><trkpt lat="43.98221300504991" lon="12.662709512783918"><ele>57.666666666666664</ele><time>2026-05-03T15:07:13Z</time></trkpt><trkpt lat="43.98229709264521" lon="12.662663373312917"><ele>58.33333333333333</ele><time>2026-05-03T15:07:14Z</time></trkpt><trkpt lat="43.982385486591845" lon="12.662599290197816"><ele>59.0</ele><time>2026-05-03T15:07:16Z</time></trkpt><trkpt lat="43.98245359286609" lon="12.662549766443483"><ele>59.666666666666664</ele><time>2026-05-03T15:07:19Z</time></trkpt><trkpt lat="43.98250068853421" lon="12.662468418785247"><ele>60.33333333333333</ele><time>2026-05-03T15:07:20Z</time></trkpt><trkpt lat="43.98260353643311" lon="12.66242666122993"><ele>61.0</ele><time>2026-05-03T15:07:21.001Z</time></trkpt><trkpt lat="43.98270383325137" lon="12.662336869945934"><ele>61.0</ele><time>2026-05-03T15:07:22.001Z</time></trkpt><trkpt lat="43.98280688427918" lon="12.66224580540096"><ele>61.0</ele><time>2026-05-03T15:07:23.001Z</time></trkpt><trkpt lat="43.98291812037838" lon="12.662144783533265"><ele>61.0</ele><time>2026-05-03T15:07:24.001Z</time></trkpt><trkpt lat="43.98302755531619" lon="12.66204842294457"><ele>61.0</ele><time>2026-05-03T15:07:25.001Z</time></trkpt><trkpt lat="43.98314115948023" lon="12.661950215304875"><ele>62.25</ele><time>2026-05-03T15:07:26.001Z</time></trkpt><trkpt lat="43.983265625821176" lon="12.66184725334671"><ele>63.5</ele><time>2026-05-03T15:07:27.001Z</time></trkpt><trkpt lat="43.98338556357569" lon="12.661743274380774"><ele>64.75</ele><time>2026-05-03T15:07:28.001Z</time></trkpt><trkpt lat="43.983506992384335" lon="12.661648636804848"><ele>66.0</ele><time>2026-05-03T15:07:29.001Z</time></trkpt><trkpt lat="43.98363153842287" lon="12.66156596891584"><ele>66.0</ele><time>2026-05-03T15:07:30.001Z</time></trkpt><trkpt lat="43.98375652678485" lon="12.661491520628074"><ele>66.0</ele><time>2026-05-03T15:07:31.001Z</time></trkpt><trkpt lat="43.98387855964427" lon="12.661422631452437"><ele>66.0</ele><time>2026-05-03T15:07:32.001Z</time></trkpt><trkpt lat="43.98399477178922" lon="12.661347651775948"><ele>66.0</ele><time>2026-05-03T15:07:33.001Z</time></trkpt><trkpt lat="43.984113062353295" lon="12.66127813620189"><ele>64.25</ele><time>2026-05-03T15:07:34.001Z</time></trkpt><trkpt lat="43.98423865825204" lon="12.661206881337115"><ele>62.5</ele><time>2026-05-03T15:07:35.001Z</time></trkpt><trkpt lat="43.98436303713119" lon="12.661119256950219"><ele>60.75</ele><time>2026-05-03T15:07:36.001Z</time></trkpt><trkpt lat="43.984488105803344" lon="12.661028808767153"><ele>59.0</ele><time>2026-05-03T15:07:37.001Z</time></trkpt><trkpt lat="43.984607186201124" lon="12.660944734678473"><ele>59.0</ele><time>2026-05-03T15:07:38.001Z</time></trkpt><trkpt lat="43.98483451273084" lon="12.660783099041547"><ele>59.0</ele><time>2026-05-03T15:07:40.001Z</time></trkpt><trkpt lat="43.9849569902211" lon="12.660727777105896"><ele>59.0</ele><time>2026-05-03T15:07:41.001Z</time></trkpt><trkpt lat="43.985102978134535" lon="12.660696678122074"><ele>56.5</ele><time>2026-05-03T15:07:42.001Z</time></trkpt><trkpt lat="43.98524656283733" lon="12.66066786811362"><ele>54.0</ele><time>2026-05-03T15:07:43.001Z</time></trkpt><trkpt lat="43.985377419930074" lon="12.660635434170333"><ele>51.5</ele><time>2026-05-03T15:07:44.001Z</time></trkpt><trkpt lat="43.9855040066256" lon="12.660603015733958"><ele>49.0</ele><time>2026-05-03T15:07:45.001Z</time></trkpt><trkpt lat="43.98562428245395" lon="12.660561044259454"><ele>49.0</ele><time>2026-05-03T15:07:46.001Z</time></trkpt><trkpt lat="43.98574609586587" lon="12.660525135604273"><ele>49.0</ele><time>2026-05-03T15:07:47.001Z</time></trkpt><trkpt lat="43.98586096215469" lon="12.660493391305007"><ele>49.0</ele><time>2026-05-03T15:07:48.001Z</time></trkpt><trkpt lat="43.985974705581405" lon="12.660470508524071"><ele>49.0</ele><time>2026-05-03T15:07:49.001Z</time></trkpt><trkpt lat="43.986097278083435" lon="12.66047353783111"><ele>47.5</ele><time>2026-05-03T15:07:50.001Z</time></trkpt><trkpt lat="43.986231787889864" lon="12.66051402005988"><ele>46.0</ele><time>2026-05-03T15:07:51.001Z</time></trkpt><trkpt lat="43.98637146662822" lon="12.66058449132949"><ele>44.5</ele><time>2026-05-03T15:07:52.001Z</time></trkpt><trkpt lat="43.98651473991947" lon="12.660660920820684"><ele>43.0</ele><time>2026-05-03T15:07:53.001Z</time></trkpt><trkpt lat="43.98666647085461" lon="12.660727243326434"><ele>41.66666666666667</ele><time>2026-05-03T15:07:54.001Z</time></trkpt><trkpt lat="43.98681452464833" lon="12.660789548919368"><ele>40.333333333333336</ele><time>2026-05-03T15:07:55.001Z</time></trkpt><trkpt lat="43.98696478560011" lon="12.660845660206025"><ele>39.0</ele><time>2026-05-03T15:07:56.001Z</time></trkpt><trkpt lat="43.987108343847964" lon="12.660897738026225"><ele>39.0</ele><time>2026-05-03T15:07:57.001Z</time></trkpt><trkpt lat="43.9872457545193" lon="12.66093753978638"><ele>39.0</ele><time>2026-05-03T15:07:58.001Z</time></trkpt><trkpt lat="43.98737680326735" lon="12.660969209176786"><ele>39.0</ele><time>2026-05-03T15:07:59.001Z</time></trkpt><trkpt lat="43.98750234405849" lon="12.661001426618734"><ele>39.0</ele><time>2026-05-03T15:08:00.001Z</time></trkpt><trkpt lat="43.98763127627923" lon="12.661034794927616"><ele>37.5</ele><time>2026-05-03T15:08:01.001Z</time></trkpt><trkpt lat="43.9877622337287" lon="12.661064627507841"><ele>36.0</ele><time>2026-05-03T15:08:02.002Z</time></trkpt><trkpt lat="43.98789454644896" lon="12.66108781240685"><ele>34.5</ele><time>2026-05-03T15:08:03.002Z</time></trkpt><trkpt lat="43.988015988917155" lon="12.661103837009387"><ele>33.0</ele><time>2026-05-03T15:08:04.002Z</time></trkpt><trkpt lat="43.988133313866534" lon="12.661110396378136"><ele>33.0</ele><time>2026-05-03T15:08:05.002Z</time></trkpt><trkpt lat="43.98824533547245" lon="12.66111850614223"><ele>33.0</ele><time>2026-05-03T15:08:06.002Z</time></trkpt><trkpt lat="43.98835287771148" lon="12.661116705906204"><ele>33.0</ele><time>2026-05-03T15:08:07.002Z</time></trkpt><trkpt lat="43.988459508804645" lon="12.661083745516722"><ele>33.0</ele><time>2026-05-03T15:08:08.002Z</time></trkpt><trkpt lat="43.98856597006589" lon="12.661012785445322"><ele>33.0</ele><time>2026-05-03T15:08:09.002Z</time></trkpt><trkpt lat="43.98866637325103" lon="12.66092176735051"><ele>31.25</ele><time>2026-05-03T15:08:10.002Z</time></trkpt><trkpt lat="43.988772367387476" lon="12.660815125350748"><ele>29.5</ele><time>2026-05-03T15:08:11.002Z</time></trkpt><trkpt lat="43.98886709399756" lon="12.660721256710303"><ele>27.75</ele><time>2026-05-03T15:08:12.002Z</time></trkpt><trkpt lat="43.98895973097466" lon="12.66060273958843"><ele>26.0</ele><time>2026-05-03T15:08:13.002Z</time></trkpt><trkpt lat="43.989036684939286" lon="12.660496526080841"><ele>26.0</ele><time>2026-05-03T15:08:14.002Z</time></trkpt><trkpt lat="43.989104087603415" lon="12.660383467583166"><ele>26.0</ele><time>2026-05-03T15:08:15.002Z</time></trkpt><trkpt lat="43.989161772657326" lon="12.660302221891577"><ele>26.0</ele><time>2026-05-03T15:08:16.002Z</time></trkpt><trkpt lat="43.989222385524315" lon="12.660214966003549"><ele>26.0</ele><time>2026-05-03T15:08:17.002Z</time></trkpt><trkpt lat="43.98930155762542" lon="12.660109048873107"><ele>26.0</ele><time>2026-05-03T15:08:18.002Z</time></trkpt><trkpt lat="43.98939004762567" lon="12.660036149604286"><ele>24.8</ele><time>2026-05-03T15:08:19.002Z</time></trkpt><trkpt lat="43.989465233831794" lon="12.659962772453001"><ele>23.6</ele><time>2026-05-03T15:08:20.002Z</time></trkpt><trkpt lat="43.98953589903249" lon="12.659892539878657"><ele>22.4</ele><time>2026-05-03T15:08:21.002Z</time></trkpt><trkpt lat="43.98962460155794" lon="12.659816458469722"><ele>21.2</ele><time>2026-05-03T15:08:22.002Z</time></trkpt><trkpt lat="43.989730926512024" lon="12.65974757513908"><ele>20.0</ele><time>2026-05-03T15:08:23.002Z</time></trkpt><trkpt lat="43.989822602865054" lon="12.65965647225396"><ele>20.0</ele><time>2026-05-03T15:08:24.002Z</time></trkpt><trkpt lat="43.98992267085124" lon="12.659589327498372"><ele>20.0</ele><time>2026-05-03T15:08:25.002Z</time></trkpt><trkpt lat="43.99000995370094" lon="12.659517633350374"><ele>20.0</ele><time>2026-05-03T15:08:26.002Z</time></trkpt><trkpt lat="43.99007826731683" lon="12.659449891476896"><ele>20.0</ele><time>2026-05-03T15:08:27.002Z</time></trkpt><trkpt lat="43.990164402190935" lon="12.65938595189442"><ele>20.0</ele><time>2026-05-03T15:08:28.002Z</time></trkpt><trkpt lat="43.99024299250674" lon="12.659342686010193"><ele>19.4</ele><time>2026-05-03T15:08:29.002Z</time></trkpt><trkpt lat="43.99032326047826" lon="12.659271394993365"><ele>18.8</ele><time>2026-05-03T15:08:30.002Z</time></trkpt><trkpt lat="43.99042002001805" lon="12.659189261971857"><ele>18.2</ele><time>2026-05-03T15:08:31.002Z</time></trkpt><trkpt lat="43.99051302176688" lon="12.659111884658902"><ele>17.6</ele><time>2026-05-03T15:08:32.002Z</time></trkpt><trkpt lat="43.9905712426756" lon="12.659050248036607"><ele>17.0</ele><time>2026-05-03T15:08:33.002Z</time></trkpt><trkpt lat="43.99064806756937" lon="12.65896756423383"><ele>17.0</ele><time>2026-05-03T15:08:34.002Z</time></trkpt><trkpt lat="43.99072395793403" lon="12.658890570666767"><ele>17.0</ele><time>2026-05-03T15:08:35.002Z</time></trkpt><trkpt lat="43.99080581261121" lon="12.658806184158367"><ele>17.0</ele><time>2026-05-03T15:08:36.002Z</time></trkpt><trkpt lat="43.9908919696841" lon="12.658721234504002"><ele>17.0</ele><time>2026-05-03T15:08:37.002Z</time></trkpt><trkpt lat="43.99097412399563" lon="12.658641001672711"><ele>17.0</ele><time>2026-05-03T15:08:38.002Z</time></trkpt><trkpt lat="43.99107399125366" lon="12.658559349382239"><ele>16.8</ele><time>2026-05-03T15:08:39.002Z</time></trkpt><trkpt lat="43.99117464927957" lon="12.658480050290287"><ele>16.6</ele><time>2026-05-03T15:08:40.002Z</time></trkpt><trkpt lat="43.99127238834019" lon="12.658399671063336"><ele>16.400000000000002</ele><time>2026-05-03T15:08:41.003Z</time></trkpt><trkpt lat="43.991367833610155" lon="12.65833330896708"><ele>16.2</ele><time>2026-05-03T15:08:42.003Z</time></trkpt><trkpt lat="43.99146997967049" lon="12.658275549508591"><ele>16.0</ele><time>2026-05-03T15:08:43.003Z</time></trkpt><trkpt lat="43.991557737765554" lon="12.65824809870019"><ele>15.999999999999998</ele><time>2026-05-03T15:08:44.003Z</time></trkpt><trkpt lat="43.99164874553359" lon="12.658209550888994"><ele>16.0</ele><time>2026-05-03T15:08:45.003Z</time></trkpt><trkpt lat="43.99172827507288" lon="12.658169763394433"><ele>16.0</ele><time>2026-05-03T15:08:46.003Z</time></trkpt><trkpt lat="43.991797493195996" lon="12.658113623250083"><ele>16.0</ele><time>2026-05-03T15:08:47.003Z</time></trkpt><trkpt lat="43.99187043885486" lon="12.658081241529548"><ele>15.999999999999998</ele><time>2026-05-03T15:08:48.003Z</time></trkpt><trkpt lat="43.991939568562785" lon="12.658055943319926"><ele>16.0</ele><time>2026-05-03T15:08:49.003Z</time></trkpt><trkpt lat="43.99205521033628" lon="12.658006428223496"><ele>15.600000000000001</ele><time>2026-05-03T15:08:51.003Z</time></trkpt><trkpt lat="43.99216542630573" lon="12.657959725638005"><ele>15.200000000000001</ele><time>2026-05-03T15:08:53.003Z</time></trkpt><trkpt lat="43.99226992129055" lon="12.657950887169457"><ele>14.799999999999999</ele><time>2026-05-03T15:08:55.003Z</time></trkpt><trkpt lat="43.992367860249516" lon="12.657892704939636"><ele>14.399999999999999</ele><time>2026-05-03T15:08:57.003Z</time></trkpt><trkpt lat="43.9923833597079" lon="12.657797726712225"><ele>14.0</ele><time>2026-05-03T15:08:58.003Z</time></trkpt><trkpt lat="43.99235486807571" lon="12.65769824677871"><ele>14.0</ele><time>2026-05-03T15:08:59.003Z</time></trkpt><trkpt lat="43.99230758661726" lon="12.657589189662596"><ele>13.999999999999998</ele><time>2026-05-03T15:09:00.003Z</time></trkpt><trkpt lat="43.99227942635418" lon="12.657463212237953"><ele>13.999999999999998</ele><time>2026-05-03T15:09:00.999Z</time></trkpt><trkpt lat="43.99226423256437" lon="12.657331880853375"><ele>14.0</ele><time>2026-05-03T15:09:01.999Z</time></trkpt><trkpt lat="43.992250783329446" lon="12.657206678976769"><ele>14.0</ele><time>2026-05-03T15:09:02.999Z</time></trkpt><trkpt lat="43.992237918764495" lon="12.657086274686673"><ele>14.000000000000002</ele><time>2026-05-03T15:09:03.999Z</time></trkpt><trkpt lat="43.99222762862603" lon="12.656968374022526"><ele>14.0</ele><time>2026-05-03T15:09:04.999Z</time></trkpt><trkpt lat="43.992213201374774" lon="12.656850572012178"><ele>14.0</ele><time>2026-05-03T15:09:05.999Z</time></trkpt><trkpt lat="43.99220038039549" lon="12.656729565569918"><ele>14.0</ele><time>2026-05-03T15:09:06.999Z</time></trkpt><trkpt lat="43.99218603693092" lon="12.656606223465916"><ele>14.000000000000002</ele><time>2026-05-03T15:09:07.999Z</time></trkpt><trkpt lat="43.99217206599635" lon="12.656485584020686"><ele>14.0</ele><time>2026-05-03T15:09:08.999Z</time></trkpt><trkpt lat="43.99215901679076" lon="12.65636674558289"><ele>14.000000000000002</ele><time>2026-05-03T15:09:09.999Z</time></trkpt><trkpt lat="43.99214321613442" lon="12.656251519853058"><ele>14.0</ele><time>2026-05-03T15:09:10.999Z</time></trkpt><trkpt lat="43.99213028096522" lon="12.656137132872997"><ele>14.0</ele><time>2026-05-03T15:09:11.999Z</time></trkpt><trkpt lat="43.992110894779465" lon="12.6560237567619"><ele>14.0</ele><time>2026-05-03T15:09:12.999Z</time></trkpt><trkpt lat="43.992097145898455" lon="12.655909249414718"><ele>14.000000000000002</ele><time>2026-05-03T15:09:13.999Z</time></trkpt><trkpt lat="43.99208132936261" lon="12.65579057253302"><ele>14.0</ele><time>2026-05-03T15:09:14.999Z</time></trkpt><trkpt lat="43.992069443739" lon="12.655671667838147"><ele>14.166666666666668</ele><time>2026-05-03T15:09:15.999Z</time></trkpt><trkpt lat="43.992055867279106" lon="12.65555847143522"><ele>14.333333333333334</ele><time>2026-05-03T15:09:17Z</time></trkpt><trkpt lat="43.99204454269675" lon="12.655437732757871"><ele>14.5</ele><time>2026-05-03T15:09:18Z</time></trkpt><trkpt lat="43.99204004248037" lon="12.655315648523517"><ele>14.666666666666668</ele><time>2026-05-03T15:09:19Z</time></trkpt><trkpt lat="43.9920373037227" lon="12.655188542069057"><ele>14.833333333333334</ele><time>2026-05-03T15:09:20Z</time></trkpt><trkpt lat="43.99203626739696" lon="12.655059045419044"><ele>15.0</ele><time>2026-05-03T15:09:21Z</time></trkpt><trkpt lat="43.992037060544774" lon="12.654928693772446"><ele>15.0</ele><time>2026-05-03T15:09:22Z</time></trkpt><trkpt lat="43.99203762682568" lon="12.654792690783784"><ele>15.0</ele><time>2026-05-03T15:09:23Z</time></trkpt><trkpt lat="43.992040229181846" lon="12.654648455142583"><ele>15.0</ele><time>2026-05-03T15:09:24Z</time></trkpt><trkpt lat="43.992048274532465" lon="12.654513628549948"><ele>15.0</ele><time>2026-05-03T15:09:25Z</time></trkpt><trkpt lat="43.99205809703873" lon="12.654385328969143"><ele>15.0</ele><time>2026-05-03T15:09:26Z</time></trkpt><trkpt lat="43.99207073914913" lon="12.654259515677742"><ele>15.0</ele><time>2026-05-03T15:09:27Z</time></trkpt><trkpt lat="43.99208533694476" lon="12.6541371025247"><ele>15.0</ele><time>2026-05-03T15:09:28Z</time></trkpt><trkpt lat="43.992103235249346" lon="12.654011428991955"><ele>15.0</ele><time>2026-05-03T15:09:29Z</time></trkpt><trkpt lat="43.99212383316266" lon="12.653878921834389"><ele>15.0</ele><time>2026-05-03T15:09:30Z</time></trkpt><trkpt lat="43.99214587995531" lon="12.653744328207722"><ele>15.0</ele><time>2026-05-03T15:09:31Z</time></trkpt><trkpt lat="43.99217344029824" lon="12.6536164997108"><ele>14.6</ele><time>2026-05-03T15:09:32Z</time></trkpt><trkpt lat="43.99220334545088" lon="12.653486703761114"><ele>14.2</ele><time>2026-05-03T15:09:33Z</time></trkpt><trkpt lat="43.99223555025537" lon="12.653353577056498"><ele>13.8</ele><time>2026-05-03T15:09:34Z</time></trkpt><trkpt lat="43.99227206838773" lon="12.653220197333395"><ele>13.4</ele><time>2026-05-03T15:09:35Z</time></trkpt><trkpt lat="43.992311478545005" lon="12.653081774573508"><ele>13.0</ele><time>2026-05-03T15:09:36Z</time></trkpt><trkpt lat="43.992360151180655" lon="12.652923551202065"><ele>13.0</ele><time>2026-05-03T15:09:37Z</time></trkpt><trkpt lat="43.99241506763223" lon="12.652764345623472"><ele>13.0</ele><time>2026-05-03T15:09:38Z</time></trkpt><trkpt lat="43.9924674306564" lon="12.652614810598177"><ele>13.0</ele><time>2026-05-03T15:09:39Z</time></trkpt><trkpt lat="43.992529195799236" lon="12.652470605480993"><ele>13.0</ele><time>2026-05-03T15:09:40Z</time></trkpt><trkpt lat="43.99259153085381" lon="12.652325964722179"><ele>13.0</ele><time>2026-05-03T15:09:41Z</time></trkpt><trkpt lat="43.99265354949594" lon="12.652181614723997"><ele>13.0</ele><time>2026-05-03T15:09:42Z</time></trkpt><trkpt lat="43.99271733677623" lon="12.652040211722726"><ele>13.0</ele><time>2026-05-03T15:09:43Z</time></trkpt><trkpt lat="43.992777552439954" lon="12.651900199705775"><ele>13.0</ele><time>2026-05-03T15:09:44Z</time></trkpt><trkpt lat="43.99283896699434" lon="12.651765408856882"><ele>12.8</ele><time>2026-05-03T15:09:45.001Z</time></trkpt><trkpt lat="43.992898629077715" lon="12.651636723005291"><ele>12.600000000000001</ele><time>2026-05-03T15:09:46.001Z</time></trkpt><trkpt lat="43.99295261191592" lon="12.651505595255188"><ele>12.399999999999999</ele><time>2026-05-03T15:09:47.001Z</time></trkpt><trkpt lat="43.99300761222692" lon="12.651379636791113"><ele>12.2</ele><time>2026-05-03T15:09:48.001Z</time></trkpt><trkpt lat="43.99305989343564" lon="12.651256987486326"><ele>12.0</ele><time>2026-05-03T15:09:49.001Z</time></trkpt><trkpt lat="43.993106056187486" lon="12.651147234387498"><ele>12.0</ele><time>2026-05-03T15:09:50.001Z</time></trkpt><trkpt lat="43.993151257786224" lon="12.651043595161562"><ele>12.0</ele><time>2026-05-03T15:09:51.001Z</time></trkpt><trkpt lat="43.993191698028326" lon="12.650948126850405"><ele>12.0</ele><time>2026-05-03T15:09:52.001Z</time></trkpt><trkpt lat="43.99322565029998" lon="12.650865602615635"><ele>12.0</ele><time>2026-05-03T15:09:53.001Z</time></trkpt><trkpt lat="43.99327505352751" lon="12.650750823911812"><ele>12.0</ele><time>2026-05-03T15:09:55.001Z</time></trkpt><trkpt lat="43.99332814326585" lon="12.65065653724692"><ele>12.0</ele><time>2026-05-03T15:09:57.001Z</time></trkpt><trkpt lat="43.993384613442856" lon="12.650542613078388"><ele>12.0</ele><time>2026-05-03T15:09:59.001Z</time></trkpt><trkpt lat="43.99345668528336" lon="12.650427936678424"><ele>12.0</ele><time>2026-05-03T15:10:01.001Z</time></trkpt><trkpt lat="43.99343475121454" lon="12.650310585967452"><ele>12.0</ele><time>2026-05-03T15:10:03.001Z</time></trkpt><trkpt lat="43.993334378982794" lon="12.6503446381432"><ele>12.0</ele><time>2026-05-03T15:10:05.001Z</time></trkpt><trkpt lat="43.993264775671555" lon="12.650452503475679"><ele>12.0</ele><time>2026-05-03T15:10:07.001Z</time></trkpt><trkpt lat="43.993259803974475" lon="12.650626529572124"><ele>12.0</ele><time>2026-05-03T15:10:08.001Z</time></trkpt><trkpt lat="43.99323004233855" lon="12.650731271412848"><ele>12.0</ele><time>2026-05-03T15:10:09.001Z</time></trkpt><trkpt lat="43.99318119624252" lon="12.650850317972601"><ele>12.0</ele><time>2026-05-03T15:10:10.001Z</time></trkpt><trkpt lat="43.993123955474786" lon="12.65097585395386"><ele>12.0</ele><time>2026-05-03T15:10:11.001Z</time></trkpt><trkpt lat="43.99307142926887" lon="12.65110040798458"><ele>12.0</ele><time>2026-05-03T15:10:12.001Z</time></trkpt><trkpt lat="43.993022074284724" lon="12.651215227843373"><ele>11.999999999999998</ele><time>2026-05-03T15:10:13.001Z</time></trkpt><trkpt lat="43.992980727313146" lon="12.651310417486046"><ele>12.0</ele><time>2026-05-03T15:10:14.001Z</time></trkpt><trkpt lat="43.99294324352715" lon="12.65139140339859"><ele>12.0</ele><time>2026-05-03T15:10:15.001Z</time></trkpt><trkpt lat="43.99290966187591" lon="12.651466007551013"><ele>12.0</ele><time>2026-05-03T15:10:16.001Z</time></trkpt><trkpt lat="43.99283460407108" lon="12.651535296314425"><ele>12.0</ele><time>2026-05-03T15:10:18.001Z</time></trkpt><trkpt lat="43.992775365347335" lon="12.651582746910627"><ele>11.999999999999998</ele><time>2026-05-03T15:10:24.002Z</time></trkpt><trkpt lat="43.99271150178148" lon="12.65156067639044"><ele>12.0</ele><time>2026-05-03T15:15:07.003Z</time></trkpt><trkpt lat="43.992666911583896" lon="12.651640020983658"><ele>12.0</ele><time>2026-05-03T15:17:37.001Z</time></trkpt><trkpt lat="43.992652010170914" lon="12.651741831585774"><ele>12.0</ele><time>2026-05-03T15:17:41.001Z</time></trkpt><trkpt lat="43.99268418122535" lon="12.651862715906702"><ele>12.0</ele><time>2026-05-03T15:18:31.001Z</time></trkpt><trkpt lat="43.99268058281476" lon="12.651977136491334"><ele>12.0</ele><time>2026-05-03T15:18:38.001Z</time></trkpt><trkpt lat="43.992611232796634" lon="12.652121597601253"><ele>12.0</ele><time>2026-05-03T15:18:40.002Z</time></trkpt><trkpt lat="43.99257646529593" lon="12.652197853964848"><ele>12.0</ele><time>2026-05-03T15:18:41.002Z</time></trkpt><trkpt lat="43.992537633247686" lon="12.652290044207339"><ele>12.2</ele><time>2026-05-03T15:18:42.002Z</time></trkpt><trkpt lat="43.992494811502254" lon="12.652402860021065"><ele>12.399999999999999</ele><time>2026-05-03T15:18:43.002Z</time></trkpt><trkpt lat="43.99245390529222" lon="12.652519132299302"><ele>12.600000000000001</ele><time>2026-05-03T15:18:44.002Z</time></trkpt><trkpt lat="43.99240911446604" lon="12.652645683536509"><ele>12.8</ele><time>2026-05-03T15:18:45.002Z</time></trkpt><trkpt lat="43.992363407334004" lon="12.65276912856249"><ele>13.0</ele><time>2026-05-03T15:18:46.002Z</time></trkpt><trkpt lat="43.992314171176574" lon="12.652901365191449"><ele>13.0</ele><time>2026-05-03T15:18:47.002Z</time></trkpt><trkpt lat="43.992263432763316" lon="12.653057740829214"><ele>13.0</ele><time>2026-05-03T15:18:48.002Z</time></trkpt><trkpt lat="43.99221799909698" lon="12.653214341286539"><ele>13.0</ele><time>2026-05-03T15:18:49.002Z</time></trkpt><trkpt lat="43.99218306430798" lon="12.653365942164157"><ele>13.0</ele><time>2026-05-03T15:18:50.002Z</time></trkpt><trkpt lat="43.99215081590774" lon="12.653504314717619"><ele>13.4</ele><time>2026-05-03T15:18:51.002Z</time></trkpt><trkpt lat="43.99212094959943" lon="12.653641039782894"><ele>13.8</ele><time>2026-05-03T15:18:52.002Z</time></trkpt><trkpt lat="43.99209442165731" lon="12.65377323157342"><ele>14.2</ele><time>2026-05-03T15:18:53.002Z</time></trkpt><trkpt lat="43.992072567533604" lon="12.653909596139629"><ele>14.6</ele><time>2026-05-03T15:18:54.002Z</time></trkpt><trkpt lat="43.99205189949783" lon="12.65405821292078"><ele>15.0</ele><time>2026-05-03T15:18:55.002Z</time></trkpt><trkpt lat="43.99203432226836" lon="12.654215064975995"><ele>15.0</ele><time>2026-05-03T15:18:56.002Z</time></trkpt><trkpt lat="43.99201785087857" lon="12.65436655839013"><ele>15.0</ele><time>2026-05-03T15:18:57.002Z</time></trkpt><trkpt lat="43.992007948286265" lon="12.65451016634337"><ele>15.0</ele><time>2026-05-03T15:18:58.002Z</time></trkpt><trkpt lat="43.99200038586619" lon="12.654646603055465"><ele>15.0</ele><time>2026-05-03T15:18:59.002Z</time></trkpt><trkpt lat="43.99199578299816" lon="12.654784042597337"><ele>15.0</ele><time>2026-05-03T15:19:00.002Z</time></trkpt><trkpt lat="43.99199419176383" lon="12.654922298251574"><ele>15.0</ele><time>2026-05-03T15:19:01.002Z</time></trkpt><trkpt lat="43.99199350292744" lon="12.65505030899866"><ele>15.0</ele><time>2026-05-03T15:19:02.002Z</time></trkpt><trkpt lat="43.991990676068916" lon="12.655173175568496"><ele>15.0</ele><time>2026-05-03T15:19:03.002Z</time></trkpt><trkpt lat="43.99199014201029" lon="12.65529849677515"><ele>15.0</ele><time>2026-05-03T15:19:04.002Z</time></trkpt><trkpt lat="43.99199187448689" lon="12.655423279365813"><ele>15.0</ele><time>2026-05-03T15:19:05.002Z</time></trkpt><trkpt lat="43.99199709123949" lon="12.65555218138401"><ele>15.0</ele><time>2026-05-03T15:19:06.002Z</time></trkpt><trkpt lat="43.99200426770462" lon="12.655665336030836"><ele>15.0</ele><time>2026-05-03T15:19:07.002Z</time></trkpt><trkpt lat="43.99202236053503" lon="12.655786603704357"><ele>15.0</ele><time>2026-05-03T15:19:08.002Z</time></trkpt><trkpt lat="43.99203895103835" lon="12.655926275338361"><ele>15.0</ele><time>2026-05-03T15:19:09.002Z</time></trkpt><trkpt lat="43.99205814937649" lon="12.656067847144968"><ele>15.0</ele><time>2026-05-03T15:19:10.002Z</time></trkpt><trkpt lat="43.992078897213794" lon="12.656220802204354"><ele>14.8</ele><time>2026-05-03T15:19:11.002Z</time></trkpt><trkpt lat="43.99209961101955" lon="12.656375696594669"><ele>14.6</ele><time>2026-05-03T15:19:12.002Z</time></trkpt><trkpt lat="43.99212020376639" lon="12.65652318577993"><ele>14.399999999999999</ele><time>2026-05-03T15:19:13.002Z</time></trkpt><trkpt lat="43.992139562930475" lon="12.656668578322945"><ele>14.2</ele><time>2026-05-03T15:19:14.002Z</time></trkpt><trkpt lat="43.99216234870346" lon="12.656819899775074"><ele>14.0</ele><time>2026-05-03T15:19:15.002Z</time></trkpt><trkpt lat="43.99218400435305" lon="12.656974182611664"><ele>14.000000000000002</ele><time>2026-05-03T15:19:16.002Z</time></trkpt><trkpt lat="43.99220170079015" lon="12.657104890993455"><ele>14.0</ele><time>2026-05-03T15:19:17.002Z</time></trkpt><trkpt lat="43.992214700029535" lon="12.657215151083344"><ele>14.0</ele><time>2026-05-03T15:19:18.002Z</time></trkpt><trkpt lat="43.992226516406895" lon="12.657314086235498"><ele>14.0</ele><time>2026-05-03T15:19:19.002Z</time></trkpt><trkpt lat="43.9922374642068" lon="12.657404081451173"><ele>14.000000000000002</ele><time>2026-05-03T15:19:20.002Z</time></trkpt><trkpt lat="43.99225091736613" lon="12.65753551917623"><ele>14.0</ele><time>2026-05-03T15:19:22.002Z</time></trkpt><trkpt lat="43.99225872817957" lon="12.657632808163735"><ele>14.000000000000002</ele><time>2026-05-03T15:19:24.002Z</time></trkpt><trkpt lat="43.99226091665809" lon="12.657727669653935"><ele>14.0</ele><time>2026-05-03T15:19:26.002Z</time></trkpt><trkpt lat="43.992250176484895" lon="12.65787177554194"><ele>14.0</ele><time>2026-05-03T15:19:28.002Z</time></trkpt><trkpt lat="43.992325714330555" lon="12.657938756006894"><ele>14.0</ele><time>2026-05-03T15:19:30.002Z</time></trkpt><trkpt lat="43.99239040153503" lon="12.657813157217383"><ele>14.000000000000002</ele><time>2026-05-03T15:19:31.999Z</time></trkpt><trkpt lat="43.99236302904086" lon="12.657723239954105"><ele>14.0</ele><time>2026-05-03T15:19:32.999Z</time></trkpt><trkpt lat="43.992318487111525" lon="12.657623205521906"><ele>14.0</ele><time>2026-05-03T15:19:33.999Z</time></trkpt><trkpt lat="43.99229416733062" lon="12.657505063851819"><ele>13.999999999999998</ele><time>2026-05-03T15:19:34.999Z</time></trkpt><trkpt lat="43.99228220151827" lon="12.657378291521743"><ele>13.999999999999998</ele><time>2026-05-03T15:19:35.999Z</time></trkpt><trkpt lat="43.99226762614017" lon="12.657239093197408"><ele>14.0</ele><time>2026-05-03T15:19:36.999Z</time></trkpt><trkpt lat="43.99225001886528" lon="12.657097177369252"><ele>14.0</ele><time>2026-05-03T15:19:37.999Z</time></trkpt><trkpt lat="43.99223226554483" lon="12.656959741829384"><ele>14.0</ele><time>2026-05-03T15:19:38.999Z</time></trkpt><trkpt lat="43.9922169317468" lon="12.65682736514831"><ele>13.999999999999998</ele><time>2026-05-03T15:19:39.999Z</time></trkpt><trkpt lat="43.99220190347863" lon="12.65669402259427"><ele>13.999999999999998</ele><time>2026-05-03T15:19:40.999Z</time></trkpt><trkpt lat="43.992188883298475" lon="12.656564482984557"><ele>14.0</ele><time>2026-05-03T15:19:41.999Z</time></trkpt><trkpt lat="43.99217156477113" lon="12.656428929185289"><ele>14.0</ele><time>2026-05-03T15:19:42.999Z</time></trkpt><trkpt lat="43.9921516005208" lon="12.65628733231764"><ele>14.0</ele><time>2026-05-03T15:19:43.999Z</time></trkpt><trkpt lat="43.99213179911007" lon="12.656151561207853"><ele>13.999999999999998</ele><time>2026-05-03T15:19:44.999Z</time></trkpt><trkpt lat="43.99211137045289" lon="12.656008364069804"><ele>13.999999999999998</ele><time>2026-05-03T15:19:45.999Z</time></trkpt><trkpt lat="43.992086655053434" lon="12.655848330537022"><ele>14.0</ele><time>2026-05-03T15:19:46.999Z</time></trkpt><trkpt lat="43.992064520536246" lon="12.655690597955974"><ele>14.0</ele><time>2026-05-03T15:19:47.999Z</time></trkpt><trkpt lat="43.992052337352916" lon="12.655539875648351"><ele>14.25</ele><time>2026-05-03T15:19:48.999Z</time></trkpt><trkpt lat="43.99204523014392" lon="12.655377057758972"><ele>14.5</ele><time>2026-05-03T15:19:49.999Z</time></trkpt><trkpt lat="43.99203822457818" lon="12.655207775016963"><ele>14.75</ele><time>2026-05-03T15:19:50.999Z</time></trkpt><trkpt lat="43.99203489413114" lon="12.65504205034337"><ele>15.0</ele><time>2026-05-03T15:19:51.999Z</time></trkpt><trkpt lat="43.992033952522895" lon="12.654874881421861"><ele>15.0</ele><time>2026-05-03T15:19:52.999Z</time></trkpt><trkpt lat="43.992038371264755" lon="12.654714621902242"><ele>15.0</ele><time>2026-05-03T15:19:53.999Z</time></trkpt><trkpt lat="43.992045210833005" lon="12.654567253466631"><ele>15.0</ele><time>2026-05-03T15:19:54.999Z</time></trkpt><trkpt lat="43.992053385989855" lon="12.654426043936471"><ele>15.0</ele><time>2026-05-03T15:19:55.999Z</time></trkpt><trkpt lat="43.99206526380114" lon="12.654278998684472"><ele>15.0</ele><time>2026-05-03T15:19:56.999Z</time></trkpt><trkpt lat="43.992083774841305" lon="12.654122875334753"><ele>15.0</ele><time>2026-05-03T15:19:58Z</time></trkpt><trkpt lat="43.992110119020836" lon="12.653965644142275"><ele>15.0</ele><time>2026-05-03T15:19:59Z</time></trkpt><trkpt lat="43.9921367007714" lon="12.65380171504715"><ele>15.0</ele><time>2026-05-03T15:20:00Z</time></trkpt><trkpt lat="43.99216786252152" lon="12.653632586039098"><ele>15.0</ele><time>2026-05-03T15:20:01Z</time></trkpt><trkpt lat="43.992204758298506" lon="12.653468145165302"><ele>14.5</ele><time>2026-05-03T15:20:02Z</time></trkpt><trkpt lat="43.9922475437829" lon="12.653315387121449"><ele>14.0</ele><time>2026-05-03T15:20:03Z</time></trkpt><trkpt lat="43.99228870504131" lon="12.653164837508703"><ele>13.5</ele><time>2026-05-03T15:20:04Z</time></trkpt><trkpt lat="43.99233554824184" lon="12.65301202642617"><ele>13.0</ele><time>2026-05-03T15:20:05Z</time></trkpt><trkpt lat="43.99238233336765" lon="12.65286114943642"><ele>13.0</ele><time>2026-05-03T15:20:06Z</time></trkpt><trkpt lat="43.992433368447095" lon="12.65271053207221"><ele>13.0</ele><time>2026-05-03T15:20:07Z</time></trkpt><trkpt lat="43.99248828755482" lon="12.65255763956133"><ele>13.0</ele><time>2026-05-03T15:20:08Z</time></trkpt><trkpt lat="43.99254977327798" lon="12.652428213410609"><ele>13.0</ele><time>2026-05-03T15:20:09Z</time></trkpt><trkpt lat="43.99260599258216" lon="12.652298936064897"><ele>13.0</ele><time>2026-05-03T15:20:10Z</time></trkpt><trkpt lat="43.99266160611536" lon="12.652170083962208"><ele>13.0</ele><time>2026-05-03T15:20:11Z</time></trkpt><trkpt lat="43.99271349212326" lon="12.652047054012561"><ele>13.0</ele><time>2026-05-03T15:20:12Z</time></trkpt><trkpt lat="43.992766044377426" lon="12.651921278877104"><ele>13.0</ele><time>2026-05-03T15:20:13Z</time></trkpt><trkpt lat="43.992821229850556" lon="12.651796953266686"><ele>13.0</ele><time>2026-05-03T15:20:14Z</time></trkpt><trkpt lat="43.99287612290294" lon="12.651674532723087"><ele>12.833333333333332</ele><time>2026-05-03T15:20:15Z</time></trkpt><trkpt lat="43.99292576957127" lon="12.651561089059603"><ele>12.666666666666666</ele><time>2026-05-03T15:20:16Z</time></trkpt><trkpt lat="43.992967992153424" lon="12.651455286762044"><ele>12.5</ele><time>2026-05-03T15:20:17Z</time></trkpt><trkpt lat="43.99300893634041" lon="12.651352780286793"><ele>12.333333333333332</ele><time>2026-05-03T15:20:18Z</time></trkpt><trkpt lat="43.99305217779436" lon="12.651247960368593"><ele>12.166666666666666</ele><time>2026-05-03T15:20:19Z</time></trkpt><trkpt lat="43.99309044252972" lon="12.65115320095256"><ele>12.0</ele><time>2026-05-03T15:20:20Z</time></trkpt><trkpt lat="43.993125302838536" lon="12.651065412316829"><ele>12.0</ele><time>2026-05-03T15:20:21Z</time></trkpt><trkpt lat="43.99316245803986" lon="12.650984145297523"><ele>12.0</ele><time>2026-05-03T15:20:22Z</time></trkpt><trkpt lat="43.99319968126009" lon="12.65090033982301"><ele>12.0</ele><time>2026-05-03T15:20:23Z</time></trkpt><trkpt lat="43.993236364492326" lon="12.6508207334581"><ele>12.0</ele><time>2026-05-03T15:20:24Z</time></trkpt><trkpt lat="43.993299500998724" lon="12.650691381122847"><ele>12.0</ele><time>2026-05-03T15:20:26Z</time></trkpt><trkpt lat="43.99335991456796" lon="12.650568549370412"><ele>12.0</ele><time>2026-05-03T15:20:28Z</time></trkpt><trkpt lat="43.99339871169677" lon="12.650497961998635"><ele>12.333333333333334</ele><time>2026-05-03T15:20:29Z</time></trkpt><trkpt lat="43.99344643866951" lon="12.650415551521244"><ele>12.666666666666668</ele><time>2026-05-03T15:20:30Z</time></trkpt><trkpt lat="43.99349332562654" lon="12.650320213578715"><ele>13.0</ele><time>2026-05-03T15:20:31Z</time></trkpt><trkpt lat="43.993532808926304" lon="12.650226180074176"><ele>13.333333333333334</ele><time>2026-05-03T15:20:32Z</time></trkpt><trkpt lat="43.993581197759326" lon="12.650123519318742"><ele>13.666666666666668</ele><time>2026-05-03T15:20:33Z</time></trkpt><trkpt lat="43.9936403225931" lon="12.650017726643766"><ele>14.0</ele><time>2026-05-03T15:20:34Z</time></trkpt><trkpt lat="43.993701780747166" lon="12.649919954004663"><ele>14.0</ele><time>2026-05-03T15:20:35Z</time></trkpt><trkpt lat="43.99376266796904" lon="12.649826844291079"><ele>13.999999999999998</ele><time>2026-05-03T15:20:36Z</time></trkpt><trkpt lat="43.993827245778945" lon="12.649734937453996"><ele>13.999999999999998</ele><time>2026-05-03T15:20:37Z</time></trkpt><trkpt lat="43.99389695361851" lon="12.649639592447631"><ele>14.0</ele><time>2026-05-03T15:20:38Z</time></trkpt><trkpt lat="43.99396666477782" lon="12.649548835219548"><ele>14.0</ele><time>2026-05-03T15:20:39Z</time></trkpt><trkpt lat="43.994037691086575" lon="12.649465764049777"><ele>13.833333333333334</ele><time>2026-05-03T15:20:40Z</time></trkpt><trkpt lat="43.99410460682496" lon="12.64938720225807"><ele>13.666666666666668</ele><time>2026-05-03T15:20:41Z</time></trkpt><trkpt lat="43.994170320862864" lon="12.649318928574099"><ele>13.5</ele><time>2026-05-03T15:20:42Z</time></trkpt><trkpt lat="43.99423273304876" lon="12.649254329311102"><ele>13.333333333333332</ele><time>2026-05-03T15:20:43Z</time></trkpt><trkpt lat="43.99430361692607" lon="12.64919518437172"><ele>13.166666666666666</ele><time>2026-05-03T15:20:44Z</time></trkpt><trkpt lat="43.99437205514749" lon="12.649140575942802"><ele>13.0</ele><time>2026-05-03T15:20:45.001Z</time></trkpt><trkpt lat="43.99443730171099" lon="12.649081775155777"><ele>13.0</ele><time>2026-05-03T15:20:46.001Z</time></trkpt><trkpt lat="43.99450020185922" lon="12.649033064736798"><ele>13.0</ele><time>2026-05-03T15:20:47.001Z</time></trkpt><trkpt lat="43.99460080998341" lon="12.64896658752615"><ele>13.0</ele><time>2026-05-03T15:20:49.001Z</time></trkpt><trkpt lat="43.99469024902296" lon="12.648931292428866"><ele>13.0</ele><time>2026-05-03T15:20:51.001Z</time></trkpt><trkpt lat="43.99478653973187" lon="12.648896788620583"><ele>13.0</ele><time>2026-05-03T15:20:53.001Z</time></trkpt><trkpt lat="43.99487703792533" lon="12.648883643968091"><ele>12.999999999999998</ele><time>2026-05-03T15:20:55.001Z</time></trkpt><trkpt lat="43.99499381916571" lon="12.648878286208982"><ele>13.0</ele><time>2026-05-03T15:20:57.001Z</time></trkpt><trkpt lat="43.99506138462651" lon="12.648871526693522"><ele>13.0</ele><time>2026-05-03T15:20:58.001Z</time></trkpt><trkpt lat="43.995121365837925" lon="12.648837571907015"><ele>13.0</ele><time>2026-05-03T15:20:59.001Z</time></trkpt><trkpt lat="43.99520610694709" lon="12.64872565048304"><ele>12.999999999999998</ele><time>2026-05-03T15:21:01.001Z</time></trkpt><trkpt lat="43.995261464333346" lon="12.648677244338122"><ele>13.0</ele><time>2026-05-03T15:21:02.001Z</time></trkpt><trkpt lat="43.9953333901364" lon="12.648652794067425"><ele>12.600000000000001</ele><time>2026-05-03T15:21:03.001Z</time></trkpt><trkpt lat="43.99541563263425" lon="12.648643665669793"><ele>12.200000000000001</ele><time>2026-05-03T15:21:04.001Z</time></trkpt><trkpt lat="43.995505249273776" lon="12.648623546794763"><ele>11.8</ele><time>2026-05-03T15:21:05.001Z</time></trkpt><trkpt lat="43.99559596369048" lon="12.648601806662562"><ele>11.4</ele><time>2026-05-03T15:21:06.001Z</time></trkpt><trkpt lat="43.995686727979376" lon="12.648577783088877"><ele>11.0</ele><time>2026-05-03T15:21:07.001Z</time></trkpt><trkpt lat="43.99578246777421" lon="12.648558211988314"><ele>10.8</ele><time>2026-05-03T15:21:08.001Z</time></trkpt><trkpt lat="43.99588453027259" lon="12.648538790694422"><ele>10.600000000000001</ele><time>2026-05-03T15:21:09.001Z</time></trkpt><trkpt lat="43.99598726745613" lon="12.648513354885143"><ele>10.4</ele><time>2026-05-03T15:21:10.001Z</time></trkpt><trkpt lat="43.99608835001406" lon="12.648482338418983"><ele>10.2</ele><time>2026-05-03T15:21:11.001Z</time></trkpt><trkpt lat="43.99619473249801" lon="12.648460781512355"><ele>10.0</ele><time>2026-05-03T15:21:12.001Z</time></trkpt><trkpt lat="43.99628844309295" lon="12.648439840404782"><ele>10.0</ele><time>2026-05-03T15:21:13.001Z</time></trkpt><trkpt lat="43.99636958930007" lon="12.648423050342167"><ele>10.0</ele><time>2026-05-03T15:21:14.001Z</time></trkpt><trkpt lat="43.996450055013526" lon="12.64840538309501"><ele>10.0</ele><time>2026-05-03T15:21:15.001Z</time></trkpt><trkpt lat="43.996537091308035" lon="12.6483808636392"><ele>10.0</ele><time>2026-05-03T15:21:16.001Z</time></trkpt><trkpt lat="43.9966266419568" lon="12.64835708887637"><ele>10.0</ele><time>2026-05-03T15:21:17.001Z</time></trkpt><trkpt lat="43.996709851514254" lon="12.648338175350926"><ele>10.0</ele><time>2026-05-03T15:21:18.001Z</time></trkpt><trkpt lat="43.996794947893505" lon="12.648318880461542"><ele>10.166666666666668</ele><time>2026-05-03T15:21:19.001Z</time></trkpt><trkpt lat="43.99688075980469" lon="12.648298251280977"><ele>10.333333333333334</ele><time>2026-05-03T15:21:20.001Z</time></trkpt><trkpt lat="43.99696379994384" lon="12.648279192934648"><ele>10.5</ele><time>2026-05-03T15:21:21.001Z</time></trkpt><trkpt lat="43.997038794326414" lon="12.648263495797263"><ele>10.666666666666666</ele><time>2026-05-03T15:21:22.001Z</time></trkpt><trkpt lat="43.99711868931516" lon="12.648248067735848"><ele>10.833333333333332</ele><time>2026-05-03T15:21:23.001Z</time></trkpt><trkpt lat="43.997197202211495" lon="12.648234804129055"><ele>11.0</ele><time>2026-05-03T15:21:24.001Z</time></trkpt><trkpt lat="43.99726991945021" lon="12.64822323796711"><ele>11.0</ele><time>2026-05-03T15:21:25.001Z</time></trkpt><trkpt lat="43.9973377451528" lon="12.648214207019638"><ele>11.0</ele><time>2026-05-03T15:21:26.001Z</time></trkpt><trkpt lat="43.99741961063259" lon="12.648205163585791"><ele>11.0</ele><time>2026-05-03T15:21:27.001Z</time></trkpt><trkpt lat="43.997504002732775" lon="12.648195587838787"><ele>11.0</ele><time>2026-05-03T15:21:28.001Z</time></trkpt><trkpt lat="43.9975882963441" lon="12.648181135420218"><ele>11.0</ele><time>2026-05-03T15:21:29.001Z</time></trkpt><trkpt lat="43.99766654254465" lon="12.648149696995942"><ele>11.0</ele><time>2026-05-03T15:21:30.001Z</time></trkpt><trkpt lat="43.997731493370736" lon="12.648104991564892"><ele>10.5</ele><time>2026-05-03T15:21:31.001Z</time></trkpt><trkpt lat="43.9977854069308" lon="12.648058200461008"><ele>10.0</ele><time>2026-05-03T15:21:32.001Z</time></trkpt><trkpt lat="43.99783584497243" lon="12.648002423304753"><ele>9.5</ele><time>2026-05-03T15:21:33.001Z</time></trkpt><trkpt lat="43.99791553010908" lon="12.647923865894006"><ele>9.0</ele><time>2026-05-03T15:21:35.001Z</time></trkpt><trkpt lat="43.99797706846013" lon="12.64784097214318"><ele>8.5</ele><time>2026-05-03T15:21:36.997Z</time></trkpt><trkpt lat="43.99803550482688" lon="12.647773949700442"><ele>8.0</ele><time>2026-05-03T15:21:38.997Z</time></trkpt><trkpt lat="43.998100128175814" lon="12.647702765596637"><ele>7.999999999999999</ele><time>2026-05-03T15:21:41.997Z</time></trkpt><trkpt lat="43.99815547812352" lon="12.647629987237538"><ele>8.0</ele><time>2026-05-03T15:21:43.997Z</time></trkpt><trkpt lat="43.99822373890393" lon="12.6475361768754"><ele>8.0</ele><time>2026-05-03T15:21:45.998Z</time></trkpt><trkpt lat="43.99830364576318" lon="12.647437822697924"><ele>8.0</ele><time>2026-05-03T15:21:47.998Z</time></trkpt><trkpt lat="43.99836726723258" lon="12.647356358498058"><ele>7.999999999999999</ele><time>2026-05-03T15:21:49.998Z</time></trkpt><trkpt lat="43.998437378250884" lon="12.647306421416891"><ele>8.0</ele><time>2026-05-03T15:21:52.998Z</time></trkpt><trkpt lat="43.99851524113376" lon="12.647304268860353"><ele>7.857142857142857</ele><time>2026-05-03T15:21:54.998Z</time></trkpt><trkpt lat="43.99857899660724" lon="12.647310435477825"><ele>7.7142857142857135</ele><time>2026-05-03T15:21:55.998Z</time></trkpt><trkpt lat="43.99864547229968" lon="12.64729473951311"><ele>7.571428571428571</ele><time>2026-05-03T15:21:56.998Z</time></trkpt><trkpt lat="43.99871551965824" lon="12.64724757746343"><ele>7.428571428571429</ele><time>2026-05-03T15:21:57.998Z</time></trkpt><trkpt lat="43.99876757355246" lon="12.647176824297286"><ele>7.285714285714286</ele><time>2026-05-03T15:21:58.998Z</time></trkpt><trkpt lat="43.998797497800325" lon="12.64709869194774"><ele>7.142857142857142</ele><time>2026-05-03T15:21:59.999Z</time></trkpt><trkpt lat="43.99881386057625" lon="12.647005153150603"><ele>7.0</ele><time>2026-05-03T15:22:00.999Z</time></trkpt><trkpt lat="43.99881686863462" lon="12.646903126301678"><ele>7.0</ele><time>2026-05-03T15:22:01.999Z</time></trkpt><trkpt lat="43.99880644906885" lon="12.646801019943904"><ele>6.999999999999999</ele><time>2026-05-03T15:22:02.999Z</time></trkpt><trkpt lat="43.99880031036093" lon="12.646681235873794"><ele>6.999999999999999</ele><time>2026-05-03T15:22:03.999Z</time></trkpt><trkpt lat="43.9988216403984" lon="12.646563778502626"><ele>7.0</ele><time>2026-05-03T15:22:04.999Z</time></trkpt><trkpt lat="43.99884480282902" lon="12.646437630384964"><ele>7.0</ele><time>2026-05-03T15:22:05.999Z</time></trkpt><trkpt lat="43.998893097739305" lon="12.646296540034845"><ele>7.0</ele><time>2026-05-03T15:22:06.999Z</time></trkpt><trkpt lat="43.99895176656009" lon="12.646140766397778"><ele>7.0</ele><time>2026-05-03T15:22:07.999Z</time></trkpt><trkpt lat="43.9990096353248" lon="12.645977568278028"><ele>7.0</ele><time>2026-05-03T15:22:08.999Z</time></trkpt><trkpt lat="43.999066666823104" lon="12.64583819234099"><ele>7.0</ele><time>2026-05-03T15:22:09.999Z</time></trkpt><trkpt lat="43.999120637674196" lon="12.645711351023754"><ele>6.8</ele><time>2026-05-03T15:22:10.999Z</time></trkpt><trkpt lat="43.99916730375217" lon="12.645589579884996"><ele>6.6</ele><time>2026-05-03T15:22:11.999Z</time></trkpt><trkpt lat="43.99921669211065" lon="12.645462895355934"><ele>6.3999999999999995</ele><time>2026-05-03T15:22:12.999Z</time></trkpt><trkpt lat="43.99926216458939" lon="12.645343136069082"><ele>6.199999999999999</ele><time>2026-05-03T15:22:13.999Z</time></trkpt><trkpt lat="43.99930487158663" lon="12.645226205815542"><ele>6.0</ele><time>2026-05-03T15:22:14.999Z</time></trkpt><trkpt lat="43.99935286167798" lon="12.645106747671585"><ele>5.6</ele><time>2026-05-03T15:22:15.999Z</time></trkpt><trkpt lat="43.99940147365927" lon="12.644979656156458"><ele>5.199999999999999</ele><time>2026-05-03T15:22:16.999Z</time></trkpt><trkpt lat="43.99945401879367" lon="12.644849362506267"><ele>4.800000000000001</ele><time>2026-05-03T15:22:17.999Z</time></trkpt><trkpt lat="43.99950832993322" lon="12.644711969490086"><ele>4.4</ele><time>2026-05-03T15:22:18.999Z</time></trkpt><trkpt lat="43.99956272801257" lon="12.644572400298827"><ele>4.0</ele><time>2026-05-03T15:22:19.999Z</time></trkpt><trkpt lat="43.99961516124729" lon="12.644445146301369"><ele>4.0</ele><time>2026-05-03T15:22:20.999Z</time></trkpt><trkpt lat="43.99966367544949" lon="12.64431642040424"><ele>4.0</ele><time>2026-05-03T15:22:22Z</time></trkpt><trkpt lat="43.99971185582855" lon="12.644190982707457"><ele>4.0</ele><time>2026-05-03T15:22:23Z</time></trkpt><trkpt lat="43.999756970958096" lon="12.644070237967409"><ele>4.0</ele><time>2026-05-03T15:22:24Z</time></trkpt><trkpt lat="43.999807278270424" lon="12.643943871358996"><ele>4.0</ele><time>2026-05-03T15:22:25Z</time></trkpt><trkpt lat="43.99985977801747" lon="12.643814642727223"><ele>4.0</ele><time>2026-05-03T15:22:26Z</time></trkpt><trkpt lat="43.99991189106477" lon="12.64367996639214"><ele>4.0</ele><time>2026-05-03T15:22:27Z</time></trkpt><trkpt lat="43.99996594776537" lon="12.643539277433613"><ele>4.0</ele><time>2026-05-03T15:22:28Z</time></trkpt><trkpt lat="44.000022159087216" lon="12.643398880429501"><ele>4.0</ele><time>2026-05-03T15:22:29Z</time></trkpt><trkpt lat="44.00007727346079" lon="12.643254675540307"><ele>4.2</ele><time>2026-05-03T15:22:30Z</time></trkpt><trkpt lat="44.00013306859527" lon="12.643117850842295"><ele>4.4</ele><time>2026-05-03T15:22:31Z</time></trkpt><trkpt lat="44.00018562560082" lon="12.64297876617169"><ele>4.6</ele><time>2026-05-03T15:22:32Z</time></trkpt><trkpt lat="44.000237626521624" lon="12.642840003053612"><ele>4.8</ele><time>2026-05-03T15:22:33Z</time></trkpt><trkpt lat="44.00028644207831" lon="12.64270742311409"><ele>5.0</ele><time>2026-05-03T15:22:34Z</time></trkpt><trkpt lat="44.00033658623203" lon="12.642585667000636"><ele>5.0</ele><time>2026-05-03T15:22:35Z</time></trkpt><trkpt lat="44.0003876233871" lon="12.64246234033723"><ele>5.0</ele><time>2026-05-03T15:22:36Z</time></trkpt><trkpt lat="44.00044212896756" lon="12.642334723887046"><ele>5.0</ele><time>2026-05-03T15:22:37Z</time></trkpt><trkpt lat="44.000494505342374" lon="12.642203568795974"><ele>5.0</ele><time>2026-05-03T15:22:38Z</time></trkpt><trkpt lat="44.00054666863792" lon="12.642067025866455"><ele>5.0</ele><time>2026-05-03T15:22:39Z</time></trkpt><trkpt lat="44.000601690896346" lon="12.641920134833288"><ele>5.0</ele><time>2026-05-03T15:22:40Z</time></trkpt><trkpt lat="44.000662916306446" lon="12.641759420714655"><ele>5.0</ele><time>2026-05-03T15:22:41Z</time></trkpt><trkpt lat="44.000728328325536" lon="12.64158450266473"><ele>5.0</ele><time>2026-05-03T15:22:42Z</time></trkpt><trkpt lat="44.000783233043535" lon="12.641416114909678"><ele>5.0</ele><time>2026-05-03T15:22:43Z</time></trkpt><trkpt lat="44.000822013518054" lon="12.641258428320613"><ele>6.2</ele><time>2026-05-03T15:22:44Z</time></trkpt><trkpt lat="44.00085331825013" lon="12.641103525402688"><ele>7.4</ele><time>2026-05-03T15:22:45Z</time></trkpt><trkpt lat="44.000882969368384" lon="12.64095104004943"><ele>8.600000000000001</ele><time>2026-05-03T15:22:46Z</time></trkpt><trkpt lat="44.00091364532857" lon="12.640803976015263"><ele>9.8</ele><time>2026-05-03T15:22:47Z</time></trkpt><trkpt lat="44.00094232520502" lon="12.640659275910552"><ele>11.0</ele><time>2026-05-03T15:22:48Z</time></trkpt><trkpt lat="44.00096668664222" lon="12.64053019678152"><ele>11.0</ele><time>2026-05-03T15:22:49Z</time></trkpt><trkpt lat="44.00098962255399" lon="12.640412374327743"><ele>11.0</ele><time>2026-05-03T15:22:50Z</time></trkpt><trkpt lat="44.00101326715818" lon="12.640299067474206"><ele>11.0</ele><time>2026-05-03T15:22:51Z</time></trkpt><trkpt lat="44.0010345899674" lon="12.64019137464862"><ele>11.0</ele><time>2026-05-03T15:22:52Z</time></trkpt><trkpt lat="44.001059530823234" lon="12.6400748484005"><ele>11.0</ele><time>2026-05-03T15:22:53Z</time></trkpt><trkpt lat="44.001094832081456" lon="12.639922312034654"><ele>11.0</ele><time>2026-05-03T15:22:54Z</time></trkpt><trkpt lat="44.00113277013608" lon="12.639753433311695"><ele>11.0</ele><time>2026-05-03T15:22:55Z</time></trkpt><trkpt lat="44.00116816676495" lon="12.639600121234192"><ele>11.0</ele><time>2026-05-03T15:22:56Z</time></trkpt><trkpt lat="44.00119717071127" lon="12.639452377438046"><ele>11.0</ele><time>2026-05-03T15:22:57.001Z</time></trkpt><trkpt lat="44.0012288353623" lon="12.639307565202127"><ele>11.0</ele><time>2026-05-03T15:22:58.001Z</time></trkpt><trkpt lat="44.00126284599858" lon="12.639152634607175"><ele>11.0</ele><time>2026-05-03T15:22:59.001Z</time></trkpt><trkpt lat="44.00129794782133" lon="12.638991585791949"><ele>11.0</ele><time>2026-05-03T15:23:00.001Z</time></trkpt><trkpt lat="44.00132991724807" lon="12.63883640651347"><ele>11.0</ele><time>2026-05-03T15:23:01.001Z</time></trkpt><trkpt lat="44.001357962002594" lon="12.638672133479412"><ele>11.0</ele><time>2026-05-03T15:23:02.001Z</time></trkpt><trkpt lat="44.001381936962986" lon="12.638522487797788"><ele>11.0</ele><time>2026-05-03T15:23:03.001Z</time></trkpt><trkpt lat="44.00140209780953" lon="12.638384650969773"><ele>11.0</ele><time>2026-05-03T15:23:04.001Z</time></trkpt><trkpt lat="44.00142092716075" lon="12.63825054694333"><ele>11.0</ele><time>2026-05-03T15:23:05.001Z</time></trkpt><trkpt lat="44.001442511165855" lon="12.63810522460791"><ele>11.0</ele><time>2026-05-03T15:23:06.001Z</time></trkpt><trkpt lat="44.00146731042242" lon="12.637958307279636"><ele>11.0</ele><time>2026-05-03T15:23:07.001Z</time></trkpt><trkpt lat="44.00149013169206" lon="12.63781762820028"><ele>11.0</ele><time>2026-05-03T15:23:08.001Z</time></trkpt><trkpt lat="44.00151395909228" lon="12.637676186459007"><ele>11.0</ele><time>2026-05-03T15:23:09.001Z</time></trkpt><trkpt lat="44.001535397119234" lon="12.637542045576762"><ele>11.0</ele><time>2026-05-03T15:23:10.001Z</time></trkpt><trkpt lat="44.00155597776398" lon="12.637403541534812"><ele>11.0</ele><time>2026-05-03T15:23:11.001Z</time></trkpt><trkpt lat="44.001585577106454" lon="12.637268720454468"><ele>11.0</ele><time>2026-05-03T15:23:12.001Z</time></trkpt><trkpt lat="44.00161566559016" lon="12.637133497695707"><ele>11.0</ele><time>2026-05-03T15:23:13.001Z</time></trkpt><trkpt lat="44.00164661344481" lon="12.637000039675495"><ele>11.0</ele><time>2026-05-03T15:23:14.001Z</time></trkpt><trkpt lat="44.0016805009329" lon="12.636872954915196"><ele>11.0</ele><time>2026-05-03T15:23:15.001Z</time></trkpt><trkpt lat="44.00171492696368" lon="12.636753715216601"><ele>11.0</ele><time>2026-05-03T15:23:16.001Z</time></trkpt><trkpt lat="44.00175078617137" lon="12.636635986236076"><ele>11.0</ele><time>2026-05-03T15:23:17.001Z</time></trkpt><trkpt lat="44.00178955274968" lon="12.636520552701196"><ele>11.0</ele><time>2026-05-03T15:23:18.001Z</time></trkpt><trkpt lat="44.00183021095174" lon="12.636404267001282"><ele>11.0</ele><time>2026-05-03T15:23:19.001Z</time></trkpt><trkpt lat="44.001869855929066" lon="12.636294645745815"><ele>11.0</ele><time>2026-05-03T15:23:20.001Z</time></trkpt><trkpt lat="44.001916938709684" lon="12.636173854314928"><ele>11.0</ele><time>2026-05-03T15:23:21.001Z</time></trkpt><trkpt lat="44.00196263104906" lon="12.636056149506535"><ele>11.0</ele><time>2026-05-03T15:23:22.001Z</time></trkpt><trkpt lat="44.002006663908126" lon="12.63594382415477"><ele>11.0</ele><time>2026-05-03T15:23:23.001Z</time></trkpt><trkpt lat="44.002045568867615" lon="12.635848856977345"><ele>11.0</ele><time>2026-05-03T15:23:24.001Z</time></trkpt><trkpt lat="44.002083395788034" lon="12.635758768365163"><ele>11.0</ele><time>2026-05-03T15:23:25.001Z</time></trkpt><trkpt lat="44.00212071175427" lon="12.635665958357862"><ele>11.0</ele><time>2026-05-03T15:23:26.001Z</time></trkpt><trkpt lat="44.00215399378253" lon="12.635587725086316"><ele>11.0</ele><time>2026-05-03T15:23:27.001Z</time></trkpt><trkpt lat="44.002205795333275" lon="12.635450628254675"><ele>11.0</ele><time>2026-05-03T15:23:29.001Z</time></trkpt><trkpt lat="44.00224109250556" lon="12.635373811925366"><ele>11.0</ele><time>2026-05-03T15:23:30.001Z</time></trkpt><trkpt lat="44.00227585130131" lon="12.635300482526972"><ele>11.0</ele><time>2026-05-03T15:23:31.001Z</time></trkpt><trkpt lat="44.00233582884974" lon="12.63517048926823"><ele>11.0</ele><time>2026-05-03T15:23:33.001Z</time></trkpt><trkpt lat="44.00238378885662" lon="12.635053520102856"><ele>11.0</ele><time>2026-05-03T15:23:35.001Z</time></trkpt><trkpt lat="44.002453913412275" lon="12.63493880837098"><ele>11.0</ele><time>2026-05-03T15:23:37.002Z</time></trkpt><trkpt lat="44.00251974160016" lon="12.634880779253344"><ele>11.200000000000001</ele><time>2026-05-03T15:23:38.002Z</time></trkpt><trkpt lat="44.00263096048435" lon="12.63484056554909"><ele>11.4</ele><time>2026-05-03T15:23:40.002Z</time></trkpt><trkpt lat="44.002723655225864" lon="12.634783110586968"><ele>11.6</ele><time>2026-05-03T15:23:42.002Z</time></trkpt><trkpt lat="44.00281201804972" lon="12.634657511971556"><ele>11.8</ele><time>2026-05-03T15:23:43.998Z</time></trkpt><trkpt lat="44.00286726850485" lon="12.63458045591945"><ele>12.0</ele><time>2026-05-03T15:23:44.998Z</time></trkpt><trkpt lat="44.00292987177207" lon="12.634517476761769"><ele>12.0</ele><time>2026-05-03T15:23:45.998Z</time></trkpt><trkpt lat="44.00299209604896" lon="12.634477179694674"><ele>12.0</ele><time>2026-05-03T15:23:46.998Z</time></trkpt><trkpt lat="44.00310201841418" lon="12.634425034937651"><ele>12.0</ele><time>2026-05-03T15:23:48.998Z</time></trkpt><trkpt lat="44.00318444479321" lon="12.634387118161047"><ele>12.0</ele><time>2026-05-03T15:23:50.998Z</time></trkpt><trkpt lat="44.00325549117207" lon="12.634354844425188"><ele>12.0</ele><time>2026-05-03T15:23:53.998Z</time></trkpt><trkpt lat="44.00332335947924" lon="12.634317578159989"><ele>12.0</ele><time>2026-05-03T15:23:55.998Z</time></trkpt><trkpt lat="44.00338621562833" lon="12.634297301103684"><ele>12.166666666666666</ele><time>2026-05-03T15:23:58.999Z</time></trkpt><trkpt lat="44.0034694305416" lon="12.63426631313462"><ele>12.333333333333332</ele><time>2026-05-03T15:24:02.999Z</time></trkpt><trkpt lat="44.00354487633093" lon="12.634240486246313"><ele>12.5</ele><time>2026-05-03T15:24:05.999Z</time></trkpt><trkpt lat="44.00362070952424" lon="12.634214134588209"><ele>12.666666666666666</ele><time>2026-05-03T15:24:07.999Z</time></trkpt><trkpt lat="44.003690968573444" lon="12.634187786761728"><ele>12.833333333333332</ele><time>2026-05-03T15:24:09.999Z</time></trkpt><trkpt lat="44.00376807896379" lon="12.634159510839666"><ele>13.0</ele><time>2026-05-03T15:24:11.999Z</time></trkpt><trkpt lat="44.003854156902634" lon="12.634123804604226"><ele>12.999999999999998</ele><time>2026-05-03T15:24:14Z</time></trkpt><trkpt lat="44.00393674919825" lon="12.634096693793749"><ele>13.0</ele><time>2026-05-03T15:24:17Z</time></trkpt><trkpt lat="44.00400359941748" lon="12.634070680657311"><ele>13.0</ele><time>2026-05-03T15:24:19Z</time></trkpt><trkpt lat="44.004066681069936" lon="12.634045635477339"><ele>13.0</ele><time>2026-05-03T15:24:21Z</time></trkpt><trkpt lat="44.004161579764514" lon="12.634009849930539"><ele>12.999999999999998</ele><time>2026-05-03T15:24:24Z</time></trkpt><trkpt lat="44.00424921549821" lon="12.633978396442338"><ele>13.0</ele><time>2026-05-03T15:24:27Z</time></trkpt><trkpt lat="44.00434439349064" lon="12.633944766445032"><ele>12.857142857142856</ele><time>2026-05-03T15:24:30Z</time></trkpt><trkpt lat="44.00442259936505" lon="12.633913825514725"><ele>12.714285714285715</ele><time>2026-05-03T15:24:32Z</time></trkpt><trkpt lat="44.004499577908035" lon="12.633886199657777"><ele>12.571428571428571</ele><time>2026-05-03T15:24:34Z</time></trkpt><trkpt lat="44.004571685986186" lon="12.633870321341169"><ele>12.428571428571427</ele><time>2026-05-03T15:24:37Z</time></trkpt><trkpt lat="44.0046390274135" lon="12.633852968494011"><ele>12.285714285714285</ele><time>2026-05-03T15:24:41.001Z</time></trkpt><trkpt lat="44.00471167180761" lon="12.633847816021468"><ele>12.142857142857142</ele><time>2026-05-03T15:24:43.001Z</time></trkpt><trkpt lat="44.004765665028366" lon="12.633904734845773"><ele>12.0</ele><time>2026-05-03T15:24:44.001Z</time></trkpt><trkpt lat="44.004880142454255" lon="12.633990137640117"><ele>12.0</ele><time>2026-05-03T15:24:46.001Z</time></trkpt><trkpt lat="44.00494799022118" lon="12.63400515418867"><ele>12.0</ele><time>2026-05-03T15:24:47.001Z</time></trkpt><trkpt lat="44.00502273126732" lon="12.633982024749628"><ele>12.0</ele><time>2026-05-03T15:24:48.001Z</time></trkpt><trkpt lat="44.00509530314485" lon="12.633922849725748"><ele>12.0</ele><time>2026-05-03T15:24:49.001Z</time></trkpt><trkpt lat="44.005160178178585" lon="12.633830896604133"><ele>12.0</ele><time>2026-05-03T15:24:50.001Z</time></trkpt><trkpt lat="44.00522499431665" lon="12.63373893192408"><ele>12.0</ele><time>2026-05-03T15:24:51.001Z</time></trkpt><trkpt lat="44.005291736031836" lon="12.633664285198327"><ele>12.6</ele><time>2026-05-03T15:24:52.001Z</time></trkpt><trkpt lat="44.005379207643394" lon="12.633627472654863"><ele>13.2</ele><time>2026-05-03T15:24:53.001Z</time></trkpt><trkpt lat="44.00548864959346" lon="12.633617342269766"><ele>13.8</ele><time>2026-05-03T15:24:54.001Z</time></trkpt><trkpt lat="44.00560274045639" lon="12.6336206316446"><ele>14.4</ele><time>2026-05-03T15:24:55.001Z</time></trkpt><trkpt lat="44.00572422298786" lon="12.633619588998386"><ele>15.0</ele><time>2026-05-03T15:24:56.001Z</time></trkpt><trkpt lat="44.00584109597602" lon="12.633612830613112"><ele>15.0</ele><time>2026-05-03T15:24:57.001Z</time></trkpt><trkpt lat="44.005951153644425" lon="12.633601505984046"><ele>15.0</ele><time>2026-05-03T15:24:58.001Z</time></trkpt><trkpt lat="44.006069554051024" lon="12.633592950188834"><ele>15.0</ele><time>2026-05-03T15:24:59.001Z</time></trkpt><trkpt lat="44.006192341238076" lon="12.633589788324219"><ele>15.0</ele><time>2026-05-03T15:25:00.001Z</time></trkpt><trkpt lat="44.00631466272749" lon="12.633581153133468"><ele>15.0</ele><time>2026-05-03T15:25:01.001Z</time></trkpt><trkpt lat="44.006444075668455" lon="12.633569384623957"><ele>15.0</ele><time>2026-05-03T15:25:02.001Z</time></trkpt><trkpt lat="44.00658641814124" lon="12.633562398406218"><ele>15.0</ele><time>2026-05-03T15:25:03.001Z</time></trkpt><trkpt lat="44.00672536471538" lon="12.633547561822752"><ele>15.0</ele><time>2026-05-03T15:25:04.001Z</time></trkpt><trkpt lat="44.00685907265207" lon="12.633533327415567"><ele>14.75</ele><time>2026-05-03T15:25:05.001Z</time></trkpt><trkpt lat="44.007005076874854" lon="12.63352177713561"><ele>14.5</ele><time>2026-05-03T15:25:06.001Z</time></trkpt><trkpt lat="44.00714445599634" lon="12.633512813611041"><ele>14.25</ele><time>2026-05-03T15:25:07.001Z</time></trkpt><trkpt lat="44.00728168199276" lon="12.633500043359447"><ele>14.0</ele><time>2026-05-03T15:25:08.001Z</time></trkpt><trkpt lat="44.00741976893759" lon="12.633489388989098"><ele>14.0</ele><time>2026-05-03T15:25:09.001Z</time></trkpt><trkpt lat="44.00755635275884" lon="12.633477090671738"><ele>14.0</ele><time>2026-05-03T15:25:10.001Z</time></trkpt><trkpt lat="44.00769436663296" lon="12.633467765398528"><ele>14.0</ele><time>2026-05-03T15:25:11.001Z</time></trkpt><trkpt lat="44.0078391433112" lon="12.633456048968384"><ele>14.0</ele><time>2026-05-03T15:25:12.001Z</time></trkpt><trkpt lat="44.00798455420017" lon="12.633446855989018"><ele>14.0</ele><time>2026-05-03T15:25:13.002Z</time></trkpt><trkpt lat="44.008132500074254" lon="12.633433223854157"><ele>14.0</ele><time>2026-05-03T15:25:14.002Z</time></trkpt><trkpt lat="44.008286281480714" lon="12.633429419478752"><ele>14.0</ele><time>2026-05-03T15:25:15.002Z</time></trkpt><trkpt lat="44.00844149905122" lon="12.633418570139598"><ele>13.666666666666668</ele><time>2026-05-03T15:25:16.002Z</time></trkpt><trkpt lat="44.00859779580981" lon="12.633405647112385"><ele>13.333333333333332</ele><time>2026-05-03T15:25:17.002Z</time></trkpt><trkpt lat="44.008754129408594" lon="12.633390885602827"><ele>13.0</ele><time>2026-05-03T15:25:18.002Z</time></trkpt><trkpt lat="44.00890604347118" lon="12.633380911355136"><ele>13.0</ele><time>2026-05-03T15:25:19.002Z</time></trkpt><trkpt lat="44.009054531085404" lon="12.633371081077927"><ele>13.0</ele><time>2026-05-03T15:25:20.002Z</time></trkpt><trkpt lat="44.00919100978898" lon="12.6333586353483"><ele>13.0</ele><time>2026-05-03T15:25:21.002Z</time></trkpt><trkpt lat="44.009309997270506" lon="12.633350065345857"><ele>13.0</ele><time>2026-05-03T15:25:22.002Z</time></trkpt><trkpt lat="44.00941879146776" lon="12.633343205040665"><ele>12.0</ele><time>2026-05-03T15:25:23.002Z</time></trkpt><trkpt lat="44.00962750807091" lon="12.633321277426871"><ele>11.0</ele><time>2026-05-03T15:25:25.002Z</time></trkpt><trkpt lat="44.00975003152329" lon="12.633307405016854"><ele>10.0</ele><time>2026-05-03T15:25:26.002Z</time></trkpt><trkpt lat="44.00987958729212" lon="12.633297174396965"><ele>10.25</ele><time>2026-05-03T15:25:27.002Z</time></trkpt><trkpt lat="44.01000226297886" lon="12.633293316080769"><ele>10.5</ele><time>2026-05-03T15:25:28.002Z</time></trkpt><trkpt lat="44.01012349376939" lon="12.63328612909507"><ele>10.75</ele><time>2026-05-03T15:25:29.002Z</time></trkpt><trkpt lat="44.01024496923247" lon="12.63327450803985"><ele>11.0</ele><time>2026-05-03T15:25:30.002Z</time></trkpt><trkpt lat="44.01037182349947" lon="12.633264526546228"><ele>11.0</ele><time>2026-05-03T15:25:31.002Z</time></trkpt><trkpt lat="44.010499404364" lon="12.633251248156535"><ele>11.0</ele><time>2026-05-03T15:25:32.002Z</time></trkpt><trkpt lat="44.010626767372" lon="12.633236805849114"><ele>11.0</ele><time>2026-05-03T15:25:33.002Z</time></trkpt><trkpt lat="44.0107521325826" lon="12.633227957348817"><ele>11.0</ele><time>2026-05-03T15:25:34.002Z</time></trkpt><trkpt lat="44.010878644387454" lon="12.633224018931818"><ele>10.5</ele><time>2026-05-03T15:25:35.002Z</time></trkpt><trkpt lat="44.011007864927464" lon="12.633212352497965"><ele>10.0</ele><time>2026-05-03T15:25:36.002Z</time></trkpt><trkpt lat="44.01113647633992" lon="12.633196218941267"><ele>9.5</ele><time>2026-05-03T15:25:37.002Z</time></trkpt><trkpt lat="44.01126994794869" lon="12.63317748393437"><ele>9.0</ele><time>2026-05-03T15:25:38.002Z</time></trkpt><trkpt lat="44.01140369563255" lon="12.633165304449527"><ele>9.0</ele><time>2026-05-03T15:25:39.002Z</time></trkpt><trkpt lat="44.01154265321257" lon="12.633155083628353"><ele>9.0</ele><time>2026-05-03T15:25:40.002Z</time></trkpt><trkpt lat="44.011674406768385" lon="12.633136542634071"><ele>9.0</ele><time>2026-05-03T15:25:41.002Z</time></trkpt><trkpt lat="44.01180898989267" lon="12.633113187887407"><ele>9.0</ele><time>2026-05-03T15:25:42.002Z</time></trkpt><trkpt lat="44.01194576023405" lon="12.63308363253749"><ele>9.5</ele><time>2026-05-03T15:25:43.002Z</time></trkpt><trkpt lat="44.01208310793518" lon="12.633058086965196"><ele>10.0</ele><time>2026-05-03T15:25:44.002Z</time></trkpt><trkpt lat="44.01221926599485" lon="12.633027239079063"><ele>10.5</ele><time>2026-05-03T15:25:45.002Z</time></trkpt><trkpt lat="44.0123572179163" lon="12.632989253100279"><ele>11.0</ele><time>2026-05-03T15:25:46.003Z</time></trkpt><trkpt lat="44.01249776991515" lon="12.632954922406627"><ele>9.0</ele><time>2026-05-03T15:25:47.003Z</time></trkpt><trkpt lat="44.01263498734968" lon="12.632918802599619"><ele>7.0</ele><time>2026-05-03T15:25:48.003Z</time></trkpt><trkpt lat="44.012769255507344" lon="12.63288595037976"><ele>5.0</ele><time>2026-05-03T15:25:49Z</time></trkpt><trkpt lat="44.0129061774342" lon="12.632847168563018"><ele>3.0</ele><time>2026-05-03T15:25:50Z</time></trkpt><trkpt lat="44.01304501157126" lon="12.63281258331534"><ele>3.0</ele><time>2026-05-03T15:25:51Z</time></trkpt><trkpt lat="44.013185382547555" lon="12.632778302147916"><ele>3.0</ele><time>2026-05-03T15:25:52Z</time></trkpt><trkpt lat="44.01332284356508" lon="12.632747251795202"><ele>3.0</ele><time>2026-05-03T15:25:53Z</time></trkpt><trkpt lat="44.013458186784085" lon="12.632708591196076"><ele>3.0</ele><time>2026-05-03T15:25:54Z</time></trkpt><trkpt lat="44.013589960929096" lon="12.63268215183261"><ele>2.5</ele><time>2026-05-03T15:25:55Z</time></trkpt><trkpt lat="44.013719383406865" lon="12.632652369139242"><ele>2.0</ele><time>2026-05-03T15:25:56Z</time></trkpt><trkpt lat="44.01385179910751" lon="12.632622592127456"><ele>1.5</ele><time>2026-05-03T15:25:57Z</time></trkpt><trkpt lat="44.01398289969812" lon="12.632587358027596"><ele>1.0</ele><time>2026-05-03T15:25:58Z</time></trkpt><trkpt lat="44.01410685911793" lon="12.632553037884453"><ele>2.75</ele><time>2026-05-03T15:25:59Z</time></trkpt><trkpt lat="44.014218707857545" lon="12.632525748380155"><ele>4.5</ele><time>2026-05-03T15:26:00Z</time></trkpt><trkpt lat="44.014322123467494" lon="12.63249828969192"><ele>6.25</ele><time>2026-05-03T15:26:01Z</time></trkpt><trkpt lat="44.01442064144161" lon="12.632474093641466"><ele>8.0</ele><time>2026-05-03T15:26:02Z</time></trkpt><trkpt lat="44.01461436952514" lon="12.63242432906855"><ele>8.0</ele><time>2026-05-03T15:26:04Z</time></trkpt><trkpt lat="44.01472421469251" lon="12.632393467303162"><ele>8.0</ele><time>2026-05-03T15:26:05Z</time></trkpt><trkpt lat="44.01483845507772" lon="12.632367015158426"><ele>8.0</ele><time>2026-05-03T15:26:06Z</time></trkpt><trkpt lat="44.01495773729249" lon="12.632336971563152"><ele>8.0</ele><time>2026-05-03T15:26:07Z</time></trkpt><trkpt lat="44.015073325246014" lon="12.632308115744644"><ele>6.75</ele><time>2026-05-03T15:26:08Z</time></trkpt><trkpt lat="44.01518682573228" lon="12.63227149834157"><ele>5.5</ele><time>2026-05-03T15:26:09Z</time></trkpt><trkpt lat="44.0152987092713" lon="12.632230419244687"><ele>4.25</ele><time>2026-05-03T15:26:10Z</time></trkpt><trkpt lat="44.015412478377314" lon="12.6321812800398"><ele>3.0</ele><time>2026-05-03T15:26:11Z</time></trkpt><trkpt lat="44.01552269561891" lon="12.632119428605439"><ele>3.0</ele><time>2026-05-03T15:26:12Z</time></trkpt><trkpt lat="44.01563370774637" lon="12.632046571233369"><ele>3.0</ele><time>2026-05-03T15:26:13Z</time></trkpt><trkpt lat="44.015734231957104" lon="12.631965578694032"><ele>3.0</ele><time>2026-05-03T15:26:14Z</time></trkpt><trkpt lat="44.015832271998995" lon="12.631878981448804"><ele>3.0</ele><time>2026-05-03T15:26:15Z</time></trkpt><trkpt lat="44.01593141497768" lon="12.631781694286692"><ele>4.0</ele><time>2026-05-03T15:26:16Z</time></trkpt><trkpt lat="44.016021210388345" lon="12.63168466498486"><ele>5.0</ele><time>2026-05-03T15:26:17Z</time></trkpt><trkpt lat="44.01610191488547" lon="12.63158887502292"><ele>6.0</ele><time>2026-05-03T15:26:18Z</time></trkpt><trkpt lat="44.01617840689797" lon="12.6314806816859"><ele>7.0</ele><time>2026-05-03T15:26:19Z</time></trkpt><trkpt lat="44.01625886106397" lon="12.631355415185377"><ele>7.0</ele><time>2026-05-03T15:26:20Z</time></trkpt><trkpt lat="44.01634263735175" lon="12.631219856317678"><ele>7.0</ele><time>2026-05-03T15:26:21Z</time></trkpt><trkpt lat="44.01651916065139" lon="12.630928137309995"><ele>7.0</ele><time>2026-05-03T15:26:23.001Z</time></trkpt><trkpt lat="44.016613691678806" lon="12.630782939972407"><ele>7.0</ele><time>2026-05-03T15:26:24.001Z</time></trkpt><trkpt lat="44.01670195960235" lon="12.630641386801921"><ele>7.0</ele><time>2026-05-03T15:26:25.001Z</time></trkpt><trkpt lat="44.01679920626669" lon="12.630485614785787"><ele>7.0</ele><time>2026-05-03T15:26:26.001Z</time></trkpt><trkpt lat="44.01690641497151" lon="12.630314224064222"><ele>7.0</ele><time>2026-05-03T15:26:27.001Z</time></trkpt><trkpt lat="44.017003395514855" lon="12.630160245473071"><ele>7.25</ele><time>2026-05-03T15:26:28.001Z</time></trkpt><trkpt lat="44.01709378780428" lon="12.63002006355883"><ele>7.5</ele><time>2026-05-03T15:26:29.001Z</time></trkpt><trkpt lat="44.01717689491078" lon="12.629885201603154"><ele>7.75</ele><time>2026-05-03T15:26:30.001Z</time></trkpt><trkpt lat="44.017257231604674" lon="12.629756623724427"><ele>8.0</ele><time>2026-05-03T15:26:31.001Z</time></trkpt><trkpt lat="44.01733228694307" lon="12.629637310796618"><ele>8.0</ele><time>2026-05-03T15:26:32.001Z</time></trkpt><trkpt lat="44.0174143609095" lon="12.629507248753487"><ele>8.0</ele><time>2026-05-03T15:26:33.001Z</time></trkpt><trkpt lat="44.017503866241405" lon="12.629369574060236"><ele>8.0</ele><time>2026-05-03T15:26:34.001Z</time></trkpt><trkpt lat="44.01760381375955" lon="12.62921833819129"><ele>8.0</ele><time>2026-05-03T15:26:35.001Z</time></trkpt><trkpt lat="44.017705394527376" lon="12.629059037246618"><ele>7.75</ele><time>2026-05-03T15:26:36.001Z</time></trkpt><trkpt lat="44.01780526700978" lon="12.62890492509835"><ele>7.5</ele><time>2026-05-03T15:26:37.001Z</time></trkpt><trkpt lat="44.01790001076112" lon="12.628746693677476"><ele>7.25</ele><time>2026-05-03T15:26:38.001Z</time></trkpt><trkpt lat="44.01798307345638" lon="12.628600815571176"><ele>7.0</ele><time>2026-05-03T15:26:39.001Z</time></trkpt><trkpt lat="44.018071889875536" lon="12.628457769583724"><ele>7.0</ele><time>2026-05-03T15:26:40.001Z</time></trkpt><trkpt lat="44.018162354346835" lon="12.628317584228842"><ele>7.0</ele><time>2026-05-03T15:26:41.001Z</time></trkpt><trkpt lat="44.01825154817913" lon="12.628162353675767"><ele>7.0</ele><time>2026-05-03T15:26:42.001Z</time></trkpt><trkpt lat="44.018342705921064" lon="12.628004405889195"><ele>7.0</ele><time>2026-05-03T15:26:43.001Z</time></trkpt><trkpt lat="44.01843669066518" lon="12.627850539279152"><ele>6.5</ele><time>2026-05-03T15:26:44.001Z</time></trkpt><trkpt lat="44.01853253912461" lon="12.62769901101928"><ele>6.0</ele><time>2026-05-03T15:26:45.001Z</time></trkpt><trkpt lat="44.01862677570728" lon="12.627555137125825"><ele>5.5</ele><time>2026-05-03T15:26:46.001Z</time></trkpt><trkpt lat="44.01872177367857" lon="12.627411208598325"><ele>5.0</ele><time>2026-05-03T15:26:47.001Z</time></trkpt><trkpt lat="44.01881661622436" lon="12.627264055654102"><ele>5.0</ele><time>2026-05-03T15:26:48.001Z</time></trkpt><trkpt lat="44.018912542850266" lon="12.627116000765385"><ele>5.0</ele><time>2026-05-03T15:26:49.001Z</time></trkpt><trkpt lat="44.01900498126914" lon="12.6269747350242"><ele>5.0</ele><time>2026-05-03T15:26:50.001Z</time></trkpt><trkpt lat="44.01909699008795" lon="12.626826758743809"><ele>5.0</ele><time>2026-05-03T15:26:51.001Z</time></trkpt><trkpt lat="44.01918907320489" lon="12.626673893217045"><ele>4.75</ele><time>2026-05-03T15:26:52.001Z</time></trkpt><trkpt lat="44.019279205664844" lon="12.626523855967713"><ele>4.5</ele><time>2026-05-03T15:26:53.001Z</time></trkpt><trkpt lat="44.01936220202529" lon="12.626388304531368"><ele>4.25</ele><time>2026-05-03T15:26:54.001Z</time></trkpt><trkpt lat="44.019439779192815" lon="12.626268622346638"><ele>4.0</ele><time>2026-05-03T15:26:55.002Z</time></trkpt><trkpt lat="44.019503954506064" lon="12.626165185501542"><ele>4.4</ele><time>2026-05-03T15:26:56.002Z</time></trkpt><trkpt lat="44.0195646271842" lon="12.626064342961126"><ele>4.800000000000001</ele><time>2026-05-03T15:26:57.002Z</time></trkpt><trkpt lat="44.01962690062415" lon="12.625962903407554"><ele>5.199999999999999</ele><time>2026-05-03T15:26:58.002Z</time></trkpt><trkpt lat="44.01969352957356" lon="12.625853158469498"><ele>5.6</ele><time>2026-05-03T15:26:59.002Z</time></trkpt><trkpt lat="44.01976288114338" lon="12.62573565691384"><ele>6.0</ele><time>2026-05-03T15:27:00.002Z</time></trkpt><trkpt lat="44.019838533183695" lon="12.625616915879268"><ele>6.0</ele><time>2026-05-03T15:27:01.002Z</time></trkpt><trkpt lat="44.019919348911145" lon="12.62549370046157"><ele>6.0</ele><time>2026-05-03T15:27:02.002Z</time></trkpt><trkpt lat="44.02000209212952" lon="12.625365224521031"><ele>6.0</ele><time>2026-05-03T15:27:03.002Z</time></trkpt><trkpt lat="44.02008270041616" lon="12.625237462372269"><ele>6.0</ele><time>2026-05-03T15:27:04.002Z</time></trkpt><trkpt lat="44.020159484035275" lon="12.625112086092663"><ele>5.5</ele><time>2026-05-03T15:27:05.002Z</time></trkpt><trkpt lat="44.02023505529646" lon="12.62499117201506"><ele>5.0</ele><time>2026-05-03T15:27:06.002Z</time></trkpt><trkpt lat="44.02030934715908" lon="12.624873021605962"><ele>4.5</ele><time>2026-05-03T15:27:07.002Z</time></trkpt><trkpt lat="44.020382518093356" lon="12.624752193909256"><ele>4.0</ele><time>2026-05-03T15:27:08.002Z</time></trkpt><trkpt lat="44.02045855908944" lon="12.624626346702575"><ele>4.0</ele><time>2026-05-03T15:27:09.002Z</time></trkpt><trkpt lat="44.02053795448825" lon="12.624500918638836"><ele>4.0</ele><time>2026-05-03T15:27:10.002Z</time></trkpt><trkpt lat="44.02061159536094" lon="12.624381578133502"><ele>4.0</ele><time>2026-05-03T15:27:11.002Z</time></trkpt><trkpt lat="44.020675360141965" lon="12.624281088134765"><ele>4.0</ele><time>2026-05-03T15:27:12.002Z</time></trkpt><trkpt lat="44.02072797854642" lon="12.62418722994493"><ele>4.0</ele><time>2026-05-03T15:27:13.002Z</time></trkpt><trkpt lat="44.02078821838057" lon="12.624094328421931"><ele>3.9999999999999996</ele><time>2026-05-03T15:27:14.002Z</time></trkpt><trkpt lat="44.02084660839819" lon="12.623999067076726"><ele>4.0</ele><time>2026-05-03T15:27:15.002Z</time></trkpt><trkpt lat="44.02089710307065" lon="12.623917023260688"><ele>4.0</ele><time>2026-05-03T15:27:16.002Z</time></trkpt><trkpt lat="44.02093931648517" lon="12.623845132832074"><ele>4.0</ele><time>2026-05-03T15:27:17.002Z</time></trkpt><trkpt lat="44.020986995474374" lon="12.6237736683637"><ele>3.9999999999999996</ele><time>2026-05-03T15:27:18.002Z</time></trkpt><trkpt lat="44.021037861841585" lon="12.623706930511803"><ele>4.0</ele><time>2026-05-03T15:27:19.002Z</time></trkpt><trkpt lat="44.021144472205386" lon="12.623647392212924"><ele>3.9999999999999996</ele><time>2026-05-03T15:27:21.002Z</time></trkpt><trkpt lat="44.021216114917955" lon="12.623641517689293"><ele>4.0</ele><time>2026-05-03T15:27:22.002Z</time></trkpt><trkpt lat="44.0213018365329" lon="12.623652280571877"><ele>4.0</ele><time>2026-05-03T15:27:23.002Z</time></trkpt><trkpt lat="44.02139880483727" lon="12.623645153096145"><ele>4.0</ele><time>2026-05-03T15:27:24.002Z</time></trkpt><trkpt lat="44.02147704818207" lon="12.623593128784615"><ele>3.9999999999999996</ele><time>2026-05-03T15:27:25.002Z</time></trkpt><trkpt lat="44.02152488260347" lon="12.623498724122738"><ele>4.0</ele><time>2026-05-03T15:27:26.002Z</time></trkpt><trkpt lat="44.021552015203575" lon="12.623377150941517"><ele>4.2</ele><time>2026-05-03T15:27:27.002Z</time></trkpt><trkpt lat="44.021551845065815" lon="12.623242960857327"><ele>4.4</ele><time>2026-05-03T15:27:28.003Z</time></trkpt><trkpt lat="44.0215435771313" lon="12.623111923383398"><ele>4.6</ele><time>2026-05-03T15:27:29.003Z</time></trkpt><trkpt lat="44.02154677737792" lon="12.622980688276614"><ele>4.8</ele><time>2026-05-03T15:27:30.003Z</time></trkpt><trkpt lat="44.02157135176387" lon="12.622847286899633"><ele>5.0</ele><time>2026-05-03T15:27:31.003Z</time></trkpt><trkpt lat="44.021624676637565" lon="12.62272255644196"><ele>5.2</ele><time>2026-05-03T15:27:32.003Z</time></trkpt><trkpt lat="44.02169142698651" lon="12.622623065304072"><ele>5.4</ele><time>2026-05-03T15:27:33.003Z</time></trkpt><trkpt lat="44.02176220805732" lon="12.62252052953296"><ele>5.6</ele><time>2026-05-03T15:27:34.003Z</time></trkpt><trkpt lat="44.021835041149224" lon="12.622409839959026"><ele>5.8</ele><time>2026-05-03T15:27:35.003Z</time></trkpt><trkpt lat="44.021906509896745" lon="12.62229545829343"><ele>6.0</ele><time>2026-05-03T15:27:36.003Z</time></trkpt><trkpt lat="44.02198659100037" lon="12.622167958524209"><ele>6.0</ele><time>2026-05-03T15:27:37.003Z</time></trkpt><trkpt lat="44.022073152342344" lon="12.622025105771"><ele>6.0</ele><time>2026-05-03T15:27:38.003Z</time></trkpt><trkpt lat="44.02216246902181" lon="12.621879337636228"><ele>6.0</ele><time>2026-05-03T15:27:39.003Z</time></trkpt><trkpt lat="44.02225177096351" lon="12.62173596069583"><ele>6.0</ele><time>2026-05-03T15:27:40.003Z</time></trkpt><trkpt lat="44.02234332722585" lon="12.621589292197664"><ele>6.25</ele><time>2026-05-03T15:27:41.003Z</time></trkpt><trkpt lat="44.022437156289406" lon="12.621442787555328"><ele>6.5</ele><time>2026-05-03T15:27:42.003Z</time></trkpt><trkpt lat="44.0225269582224" lon="12.621301310495397"><ele>6.75</ele><time>2026-05-03T15:27:43.003Z</time></trkpt><trkpt lat="44.02261581525932" lon="12.62115868623324"><ele>7.0</ele><time>2026-05-03T15:27:44.003Z</time></trkpt><trkpt lat="44.02270235518854" lon="12.621016415088837"><ele>7.0</ele><time>2026-05-03T15:27:45.003Z</time></trkpt><trkpt lat="44.022788344752406" lon="12.620879341387495"><ele>7.0</ele><time>2026-05-03T15:27:46.003Z</time></trkpt><trkpt lat="44.02288114841442" lon="12.620734400192774"><ele>7.0</ele><time>2026-05-03T15:27:47.003Z</time></trkpt><trkpt lat="44.02297408787582" lon="12.620590676381585"><ele>7.0</ele><time>2026-05-03T15:27:48.003Z</time></trkpt><trkpt lat="44.02306610978579" lon="12.62044290235182"><ele>7.0</ele><time>2026-05-03T15:27:49.003Z</time></trkpt><trkpt lat="44.02315743039999" lon="12.620285830077144"><ele>7.0</ele><time>2026-05-03T15:27:50.003Z</time></trkpt><trkpt lat="44.02325117918027" lon="12.620123707125686"><ele>7.0</ele><time>2026-05-03T15:27:51.003Z</time></trkpt><trkpt lat="44.02334700822463" lon="12.619967689123525"><ele>7.0</ele><time>2026-05-03T15:27:52.003Z</time></trkpt><trkpt lat="44.02344582242559" lon="12.619811158399372"><ele>7.0</ele><time>2026-05-03T15:27:53.003Z</time></trkpt><trkpt lat="44.02353845204289" lon="12.619639961360232"><ele>7.0</ele><time>2026-05-03T15:27:54.003Z</time></trkpt><trkpt lat="44.023642152561735" lon="12.619486616074855"><ele>7.0</ele><time>2026-05-03T15:27:55.001Z</time></trkpt><trkpt lat="44.023735869773695" lon="12.619321901693775"><ele>7.25</ele><time>2026-05-03T15:27:56.001Z</time></trkpt><trkpt lat="44.02382763867718" lon="12.619160178767366"><ele>7.5</ele><time>2026-05-03T15:27:57.001Z</time></trkpt><trkpt lat="44.02392236515854" lon="12.61900433521511"><ele>7.75</ele><time>2026-05-03T15:27:58.001Z</time></trkpt><trkpt lat="44.02402134959298" lon="12.618845737261177"><ele>8.0</ele><time>2026-05-03T15:27:59.001Z</time></trkpt><trkpt lat="44.024121433889604" lon="12.61868521064144"><ele>6.666666666666666</ele><time>2026-05-03T15:28:00.001Z</time></trkpt><trkpt lat="44.02421971689286" lon="12.618515106999222"><ele>5.333333333333333</ele><time>2026-05-03T15:28:01Z</time></trkpt><trkpt lat="44.024319106460744" lon="12.618351199040793"><ele>4.0</ele><time>2026-05-03T15:28:02Z</time></trkpt><trkpt lat="44.024421581800645" lon="12.618185328963325"><ele>4.0</ele><time>2026-05-03T15:28:03Z</time></trkpt><trkpt lat="44.024522967060875" lon="12.618024352049964"><ele>4.0</ele><time>2026-05-03T15:28:04Z</time></trkpt><trkpt lat="44.0246245445493" lon="12.617857311714078"><ele>4.0</ele><time>2026-05-03T15:28:05Z</time></trkpt><trkpt lat="44.0247243171294" lon="12.61769847086312"><ele>4.0</ele><time>2026-05-03T15:28:06Z</time></trkpt><trkpt lat="44.02482477716128" lon="12.617541068866053"><ele>4.0</ele><time>2026-05-03T15:28:07Z</time></trkpt><trkpt lat="44.024924361942034" lon="12.61738580992556"><ele>4.0</ele><time>2026-05-03T15:28:08Z</time></trkpt><trkpt lat="44.02502388686456" lon="12.617236266919114"><ele>4.0</ele><time>2026-05-03T15:28:09Z</time></trkpt><trkpt lat="44.02512334239294" lon="12.617087049097925"><ele>4.25</ele><time>2026-05-03T15:28:10Z</time></trkpt><trkpt lat="44.025218733661504" lon="12.616934604668348"><ele>4.5</ele><time>2026-05-03T15:28:11Z</time></trkpt><trkpt lat="44.02531022542934" lon="12.616782277694284"><ele>4.75</ele><time>2026-05-03T15:28:12Z</time></trkpt><trkpt lat="44.02540350682001" lon="12.616628466138005"><ele>5.0</ele><time>2026-05-03T15:28:13Z</time></trkpt><trkpt lat="44.025499810037736" lon="12.616476595260181"><ele>5.0</ele><time>2026-05-03T15:28:14Z</time></trkpt><trkpt lat="44.025595264025554" lon="12.61633043926545"><ele>5.0</ele><time>2026-05-03T15:28:15Z</time></trkpt><trkpt lat="44.02568187548855" lon="12.616194756060635"><ele>5.0</ele><time>2026-05-03T15:28:16Z</time></trkpt><trkpt lat="44.025761197456575" lon="12.616067783889342"><ele>5.0</ele><time>2026-05-03T15:28:17Z</time></trkpt><trkpt lat="44.02583802050396" lon="12.615943562550312"><ele>4.5</ele><time>2026-05-03T15:28:18Z</time></trkpt><trkpt lat="44.025917815853994" lon="12.615818253984076"><ele>4.0</ele><time>2026-05-03T15:28:19Z</time></trkpt><trkpt lat="44.02599624532674" lon="12.615697167051511"><ele>3.5</ele><time>2026-05-03T15:28:20Z</time></trkpt><trkpt lat="44.02606871465618" lon="12.615582409300739"><ele>3.0</ele><time>2026-05-03T15:28:21Z</time></trkpt><trkpt lat="44.02614376120426" lon="12.615467653324142"><ele>3.0</ele><time>2026-05-03T15:28:22Z</time></trkpt><trkpt lat="44.02622347290984" lon="12.615342718648323"><ele>3.0</ele><time>2026-05-03T15:28:23Z</time></trkpt><trkpt lat="44.02630676061151" lon="12.615210874373131"><ele>3.0</ele><time>2026-05-03T15:28:24Z</time></trkpt><trkpt lat="44.02639092850265" lon="12.615077085650132"><ele>3.0</ele><time>2026-05-03T15:28:25Z</time></trkpt><trkpt lat="44.02647803542027" lon="12.614946983523977"><ele>3.5</ele><time>2026-05-03T15:28:26Z</time></trkpt><trkpt lat="44.02656908700438" lon="12.614806728553155"><ele>4.0</ele><time>2026-05-03T15:28:27.001Z</time></trkpt><trkpt lat="44.026658070648864" lon="12.614660696162513"><ele>4.5</ele><time>2026-05-03T15:28:28.001Z</time></trkpt><trkpt lat="44.026742354766505" lon="12.614517773625263"><ele>5.0</ele><time>2026-05-03T15:28:29.001Z</time></trkpt><trkpt lat="44.02682327260712" lon="12.614383743301682"><ele>5.25</ele><time>2026-05-03T15:28:30.001Z</time></trkpt><trkpt lat="44.02690615942367" lon="12.61424741342348"><ele>5.5</ele><time>2026-05-03T15:28:31.001Z</time></trkpt><trkpt lat="44.02699356840146" lon="12.614106896861644"><ele>5.75</ele><time>2026-05-03T15:28:32.001Z</time></trkpt><trkpt lat="44.02708591351809" lon="12.613964561302735"><ele>6.0</ele><time>2026-05-03T15:28:33.001Z</time></trkpt><trkpt lat="44.027175195015175" lon="12.613822918199501"><ele>6.0</ele><time>2026-05-03T15:28:34.001Z</time></trkpt><trkpt lat="44.02726361469614" lon="12.613676104578959"><ele>6.0</ele><time>2026-05-03T15:28:35.001Z</time></trkpt><trkpt lat="44.027351806015936" lon="12.613526076837056"><ele>6.0</ele><time>2026-05-03T15:28:36.001Z</time></trkpt><trkpt lat="44.027439795955765" lon="12.613384968690768"><ele>6.0</ele><time>2026-05-03T15:28:37.001Z</time></trkpt><trkpt lat="44.027525278884156" lon="12.613247453826805"><ele>5.75</ele><time>2026-05-03T15:28:38.001Z</time></trkpt><trkpt lat="44.027605198479485" lon="12.613117859407357"><ele>5.5</ele><time>2026-05-03T15:28:39.001Z</time></trkpt><trkpt lat="44.027682507486396" lon="12.612991129993624"><ele>5.25</ele><time>2026-05-03T15:28:40.001Z</time></trkpt><trkpt lat="44.02776062080174" lon="12.612861895584038"><ele>5.0</ele><time>2026-05-03T15:28:41.001Z</time></trkpt><trkpt lat="44.027840010718045" lon="12.612732470620568"><ele>5.0</ele><time>2026-05-03T15:28:42.001Z</time></trkpt><trkpt lat="44.027920907271564" lon="12.61260107305938"><ele>5.0</ele><time>2026-05-03T15:28:43.001Z</time></trkpt><trkpt lat="44.02799914009975" lon="12.612471098923084"><ele>5.0</ele><time>2026-05-03T15:28:44.001Z</time></trkpt><trkpt lat="44.0280810631869" lon="12.612344532033335"><ele>5.0</ele><time>2026-05-03T15:28:45.001Z</time></trkpt><trkpt lat="44.028160705264916" lon="12.61221230179345"><ele>5.0</ele><time>2026-05-03T15:28:46.001Z</time></trkpt><trkpt lat="44.02824400463285" lon="12.612084308148221"><ele>5.0</ele><time>2026-05-03T15:28:47.001Z</time></trkpt><trkpt lat="44.02832410785974" lon="12.611954487326614"><ele>5.0</ele><time>2026-05-03T15:28:48.001Z</time></trkpt><trkpt lat="44.02840690248323" lon="12.611829811644231"><ele>5.0</ele><time>2026-05-03T15:28:49.001Z</time></trkpt><trkpt lat="44.02848519383033" lon="12.61170726093354"><ele>4.5</ele><time>2026-05-03T15:28:50.001Z</time></trkpt><trkpt lat="44.028561950456485" lon="12.611583508593855"><ele>4.0</ele><time>2026-05-03T15:28:51.001Z</time></trkpt><trkpt lat="44.02863808788247" lon="12.611459143633526"><ele>3.5</ele><time>2026-05-03T15:28:52.001Z</time></trkpt><trkpt lat="44.028712756308565" lon="12.611339116709592"><ele>3.0</ele><time>2026-05-03T15:28:53.001Z</time></trkpt><trkpt lat="44.0287862764925" lon="12.611224601870598"><ele>3.0</ele><time>2026-05-03T15:28:54.001Z</time></trkpt><trkpt lat="44.02885966534991" lon="12.611106767134766"><ele>3.0</ele><time>2026-05-03T15:28:55.001Z</time></trkpt><trkpt lat="44.02892614661078" lon="12.610999277948288"><ele>3.0</ele><time>2026-05-03T15:28:56.001Z</time></trkpt><trkpt lat="44.028990768907896" lon="12.61089727020856"><ele>3.0</ele><time>2026-05-03T15:28:57.001Z</time></trkpt><trkpt lat="44.02905721763214" lon="12.610789198629254"><ele>3.0</ele><time>2026-05-03T15:28:58.001Z</time></trkpt><trkpt lat="44.029126371913186" lon="12.610677134870821"><ele>3.0</ele><time>2026-05-03T15:28:59.001Z</time></trkpt><trkpt lat="44.02920121113127" lon="12.610560740330293"><ele>3.0</ele><time>2026-05-03T15:29:00.001Z</time></trkpt><trkpt lat="44.029275090041956" lon="12.610430030651921"><ele>3.0</ele><time>2026-05-03T15:29:01.001Z</time></trkpt><trkpt lat="44.0293528312724" lon="12.610298514636868"><ele>3.0</ele><time>2026-05-03T15:29:02.001Z</time></trkpt><trkpt lat="44.02943204190366" lon="12.610166388776035"><ele>3.0</ele><time>2026-05-03T15:29:03.001Z</time></trkpt><trkpt lat="44.02950778144629" lon="12.610034845225881"><ele>3.0</ele><time>2026-05-03T15:29:04.001Z</time></trkpt><trkpt lat="44.029586377946124" lon="12.609908539389147"><ele>3.0</ele><time>2026-05-03T15:29:05.001Z</time></trkpt><trkpt lat="44.02966428533774" lon="12.609771613433201"><ele>3.0</ele><time>2026-05-03T15:29:06.001Z</time></trkpt><trkpt lat="44.02974637485447" lon="12.609633762026167"><ele>3.0</ele><time>2026-05-03T15:29:07.001Z</time></trkpt><trkpt lat="44.02982884530644" lon="12.609496500705063"><ele>3.0</ele><time>2026-05-03T15:29:08.001Z</time></trkpt><trkpt lat="44.029904702404" lon="12.609367077497055"><ele>3.0</ele><time>2026-05-03T15:29:09.001Z</time></trkpt><trkpt lat="44.029976029527965" lon="12.609247622580895"><ele>3.0</ele><time>2026-05-03T15:29:10.001Z</time></trkpt><trkpt lat="44.03004402079209" lon="12.60912854696035"><ele>3.25</ele><time>2026-05-03T15:29:11.001Z</time></trkpt><trkpt lat="44.03012088075846" lon="12.609015449519399"><ele>3.5</ele><time>2026-05-03T15:29:12.001Z</time></trkpt><trkpt lat="44.03019810100607" lon="12.608891981998811"><ele>3.75</ele><time>2026-05-03T15:29:13.002Z</time></trkpt><trkpt lat="44.03027965120561" lon="12.608759927801856"><ele>4.0</ele><time>2026-05-03T15:29:14.002Z</time></trkpt><trkpt lat="44.03036327360322" lon="12.608621699192064"><ele>3.5</ele><time>2026-05-03T15:29:15.002Z</time></trkpt><trkpt lat="44.03044647896749" lon="12.608497038108947"><ele>3.0</ele><time>2026-05-03T15:29:16.002Z</time></trkpt><trkpt lat="44.03052790752893" lon="12.608372845042256"><ele>2.5</ele><time>2026-05-03T15:29:17.002Z</time></trkpt><trkpt lat="44.03060643275383" lon="12.608246500247523"><ele>2.0</ele><time>2026-05-03T15:29:18.002Z</time></trkpt><trkpt lat="44.030677208041425" lon="12.60813210023846"><ele>2.0</ele><time>2026-05-03T15:29:19.002Z</time></trkpt><trkpt lat="44.03074665206457" lon="12.608028240621858"><ele>2.0</ele><time>2026-05-03T15:29:20.002Z</time></trkpt><trkpt lat="44.030814746001944" lon="12.60793083064674"><ele>2.0</ele><time>2026-05-03T15:29:21.002Z</time></trkpt><trkpt lat="44.030892232776594" lon="12.607838372747981"><ele>2.0</ele><time>2026-05-03T15:29:22.002Z</time></trkpt><trkpt lat="44.03098504263331" lon="12.607773150982325"><ele>2.0</ele><time>2026-05-03T15:29:23.002Z</time></trkpt><trkpt lat="44.03108895193688" lon="12.607739013283531"><ele>2.2</ele><time>2026-05-03T15:29:24.002Z</time></trkpt><trkpt lat="44.031180429134984" lon="12.607728643356868"><ele>2.4000000000000004</ele><time>2026-05-03T15:29:25.002Z</time></trkpt><trkpt lat="44.03126486863055" lon="12.607735652564273"><ele>2.5999999999999996</ele><time>2026-05-03T15:29:26.002Z</time></trkpt><trkpt lat="44.03133974047586" lon="12.607738408572036"><ele>2.8</ele><time>2026-05-03T15:29:27.002Z</time></trkpt><trkpt lat="44.031460041867" lon="12.607720134506716"><ele>3.0</ele><time>2026-05-03T15:29:29.002Z</time></trkpt><trkpt lat="44.031569129248275" lon="12.607651794377128"><ele>3.0</ele><time>2026-05-03T15:29:31.002Z</time></trkpt><trkpt lat="44.03162205584696" lon="12.607587517155228"><ele>3.0</ele><time>2026-05-03T15:29:32.002Z</time></trkpt><trkpt lat="44.03169321879997" lon="12.60747177131738"><ele>3.0</ele><time>2026-05-03T15:29:34.002Z</time></trkpt><trkpt lat="44.03174876787223" lon="12.607375546638703"><ele>3.0</ele><time>2026-05-03T15:29:36.002Z</time></trkpt><trkpt lat="44.031837142131444" lon="12.607225340068076"><ele>3.0</ele><time>2026-05-03T15:29:38.002Z</time></trkpt><trkpt lat="44.03190268413238" lon="12.607118193863375"><ele>3.0</ele><time>2026-05-03T15:29:39.002Z</time></trkpt><trkpt lat="44.03196029924727" lon="12.607022655096019"><ele>3.0</ele><time>2026-05-03T15:29:40.002Z</time></trkpt><trkpt lat="44.032018543494814" lon="12.606931472048137"><ele>3.0</ele><time>2026-05-03T15:29:41.002Z</time></trkpt><trkpt lat="44.032076084924405" lon="12.606838148227373"><ele>3.0</ele><time>2026-05-03T15:29:42.002Z</time></trkpt><trkpt lat="44.032127387327996" lon="12.606750560941837"><ele>3.0</ele><time>2026-05-03T15:29:43.002Z</time></trkpt><trkpt lat="44.03216048139044" lon="12.60667091109387"><ele>3.0</ele><time>2026-05-03T15:29:44.002Z</time></trkpt><trkpt lat="44.03217127931471" lon="12.606538347509836"><ele>3.0</ele><time>2026-05-03T15:29:46.002Z</time></trkpt><trkpt lat="44.032141315777324" lon="12.60642168678976"><ele>3.0</ele><time>2026-05-03T15:29:48.002Z</time></trkpt><trkpt lat="44.03209357298642" lon="12.606296719186876"><ele>3.0</ele><time>2026-05-03T15:29:50.002Z</time></trkpt><trkpt lat="44.03204829630218" lon="12.606129153152631"><ele>3.0</ele><time>2026-05-03T15:29:52.002Z</time></trkpt><trkpt lat="44.03204394420528" lon="12.606029421532458"><ele>3.0</ele><time>2026-05-03T15:29:53.002Z</time></trkpt><trkpt lat="44.032064847336606" lon="12.60592656529998"><ele>3.2</ele><time>2026-05-03T15:29:54.003Z</time></trkpt><trkpt lat="44.032105258152484" lon="12.605838930566177"><ele>3.4</ele><time>2026-05-03T15:29:55.003Z</time></trkpt><trkpt lat="44.032161767448905" lon="12.605753230339793"><ele>3.6000000000000005</ele><time>2026-05-03T15:29:56.003Z</time></trkpt><trkpt lat="44.03222315413018" lon="12.605662846940701"><ele>3.8000000000000003</ele><time>2026-05-03T15:29:57.003Z</time></trkpt><trkpt lat="44.032286289198105" lon="12.605560160930153"><ele>4.0</ele><time>2026-05-03T15:29:58.003Z</time></trkpt><trkpt lat="44.03236093502053" lon="12.605441351246014"><ele>4.0</ele><time>2026-05-03T15:29:59.003Z</time></trkpt><trkpt lat="44.03243755136164" lon="12.60531613690202"><ele>4.0</ele><time>2026-05-03T15:30:00.003Z</time></trkpt><trkpt lat="44.03251016233765" lon="12.605195316365993"><ele>4.0</ele><time>2026-05-03T15:30:01Z</time></trkpt><trkpt lat="44.032587367698085" lon="12.605073877723683"><ele>4.0</ele><time>2026-05-03T15:30:02Z</time></trkpt><trkpt lat="44.03265863360341" lon="12.604959147278949"><ele>3.9999999999999996</ele><time>2026-05-03T15:30:03Z</time></trkpt><trkpt lat="44.03273090771703" lon="12.604856721723758"><ele>4.0</ele><time>2026-05-03T15:30:04Z</time></trkpt><trkpt lat="44.03278161820624" lon="12.604770981594404"><ele>4.0</ele><time>2026-05-03T15:30:05Z</time></trkpt><trkpt lat="44.03282596938134" lon="12.604700557189766"><ele>4.0</ele><time>2026-05-03T15:30:06Z</time></trkpt><trkpt lat="44.03286461048363" lon="12.604626683718891"><ele>3.9999999999999996</ele><time>2026-05-03T15:30:07Z</time></trkpt><trkpt lat="44.03290647326414" lon="12.604552849050664"><ele>4.0</ele><time>2026-05-03T15:30:08Z</time></trkpt><trkpt lat="44.03295574437038" lon="12.604474846287667"><ele>4.166666666666666</ele><time>2026-05-03T15:30:09Z</time></trkpt><trkpt lat="44.03300034171944" lon="12.604405343771163"><ele>4.333333333333333</ele><time>2026-05-03T15:30:10Z</time></trkpt><trkpt lat="44.03308266767629" lon="12.604284806864642"><ele>4.5</ele><time>2026-05-03T15:30:12Z</time></trkpt><trkpt lat="44.03312735948065" lon="12.60420892139458"><ele>4.666666666666667</ele><time>2026-05-03T15:30:13Z</time></trkpt><trkpt lat="44.0331757248219" lon="12.60413535101125"><ele>4.833333333333334</ele><time>2026-05-03T15:30:14Z</time></trkpt><trkpt lat="44.0332205246392" lon="12.604063090162532"><ele>5.0</ele><time>2026-05-03T15:30:15Z</time></trkpt><trkpt lat="44.03329037071783" lon="12.60394913598865"><ele>5.0</ele><time>2026-05-03T15:30:17Z</time></trkpt><trkpt lat="44.033350455100525" lon="12.60386758759192"><ele>5.0</ele><time>2026-05-03T15:30:25Z</time></trkpt><trkpt lat="44.03343426657998" lon="12.603746084759496"><ele>5.0</ele><time>2026-05-03T15:30:27Z</time></trkpt><trkpt lat="44.03351330873627" lon="12.603613889964109"><ele>5.0</ele><time>2026-05-03T15:30:29Z</time></trkpt><trkpt lat="44.033558358869485" lon="12.603538903340821"><ele>5.0</ele><time>2026-05-03T15:30:30Z</time></trkpt><trkpt lat="44.03363520917202" lon="12.603404672071965"><ele>5.0</ele><time>2026-05-03T15:30:32.001Z</time></trkpt><trkpt lat="44.03368211431942" lon="12.603326996209478"><ele>5.0</ele><time>2026-05-03T15:30:33.001Z</time></trkpt><trkpt lat="44.033731780360775" lon="12.603244513052335"><ele>5.0</ele><time>2026-05-03T15:30:34.001Z</time></trkpt><trkpt lat="44.03378172848345" lon="12.603162275349083"><ele>5.0</ele><time>2026-05-03T15:30:35.001Z</time></trkpt><trkpt lat="44.03383475244937" lon="12.603071114738752"><ele>5.0</ele><time>2026-05-03T15:30:36.001Z</time></trkpt><trkpt lat="44.03389514684437" lon="12.602974964607846"><ele>5.0</ele><time>2026-05-03T15:30:37.001Z</time></trkpt><trkpt lat="44.033957826825024" lon="12.60287730488478"><ele>4.6</ele><time>2026-05-03T15:30:38.001Z</time></trkpt><trkpt lat="44.03402368559852" lon="12.602776450456046"><ele>4.2</ele><time>2026-05-03T15:30:39.001Z</time></trkpt><trkpt lat="44.034093045507475" lon="12.602668004473456"><ele>3.8</ele><time>2026-05-03T15:30:40.001Z</time></trkpt><trkpt lat="44.03416329115757" lon="12.602552709778735"><ele>3.4</ele><time>2026-05-03T15:30:41.001Z</time></trkpt><trkpt lat="44.034230592179185" lon="12.602443378178943"><ele>3.0</ele><time>2026-05-03T15:30:42.001Z</time></trkpt><trkpt lat="44.034295048865594" lon="12.602338145552007"><ele>3.0</ele><time>2026-05-03T15:30:43.001Z</time></trkpt><trkpt lat="44.034363554968564" lon="12.602224944033862"><ele>3.0</ele><time>2026-05-03T15:30:44.001Z</time></trkpt><trkpt lat="44.03443890870843" lon="12.602104778499015"><ele>3.0</ele><time>2026-05-03T15:30:45.001Z</time></trkpt><trkpt lat="44.0345185275641" lon="12.60198431216438"><ele>3.0</ele><time>2026-05-03T15:30:46.001Z</time></trkpt><trkpt lat="44.034594611685456" lon="12.601859163304795"><ele>3.0</ele><time>2026-05-03T15:30:47.001Z</time></trkpt><trkpt lat="44.03467316388429" lon="12.601728714250136"><ele>3.0</ele><time>2026-05-03T15:30:48.001Z</time></trkpt><trkpt lat="44.0347503903494" lon="12.601604336310894"><ele>3.0</ele><time>2026-05-03T15:30:49.001Z</time></trkpt><trkpt lat="44.034818412790464" lon="12.601491061212315"><ele>3.0</ele><time>2026-05-03T15:30:50.001Z</time></trkpt><trkpt lat="44.034880899094624" lon="12.601396081585582"><ele>3.0</ele><time>2026-05-03T15:30:51.001Z</time></trkpt><trkpt lat="44.034937925436054" lon="12.601303800248408"><ele>3.0</ele><time>2026-05-03T15:30:52.001Z</time></trkpt><trkpt lat="44.03499873419006" lon="12.601211891480684"><ele>3.0</ele><time>2026-05-03T15:30:53.001Z</time></trkpt><trkpt lat="44.03505949476467" lon="12.601111821859613"><ele>3.0</ele><time>2026-05-03T15:30:54.001Z</time></trkpt><trkpt lat="44.035112081688546" lon="12.60102495327836"><ele>3.0</ele><time>2026-05-03T15:30:55.001Z</time></trkpt><trkpt lat="44.035163380612" lon="12.600941705402505"><ele>3.0</ele><time>2026-05-03T15:30:56.001Z</time></trkpt><trkpt lat="44.03521195743266" lon="12.600860745144226"><ele>3.0</ele><time>2026-05-03T15:30:57.001Z</time></trkpt><trkpt lat="44.03526126630048" lon="12.600782697141499"><ele>3.0</ele><time>2026-05-03T15:30:58.001Z</time></trkpt><trkpt lat="44.03531498159516" lon="12.600697797463875"><ele>3.0</ele><time>2026-05-03T15:30:59.001Z</time></trkpt><trkpt lat="44.03536996771255" lon="12.600607358604963"><ele>3.0</ele><time>2026-05-03T15:31:00.001Z</time></trkpt><trkpt lat="44.03542937685786" lon="12.600511862141355"><ele>3.0</ele><time>2026-05-03T15:31:01.001Z</time></trkpt><trkpt lat="44.03549133114802" lon="12.600411097910714"><ele>3.0</ele><time>2026-05-03T15:31:02.001Z</time></trkpt><trkpt lat="44.03555015957763" lon="12.600318653629243"><ele>3.0</ele><time>2026-05-03T15:31:03.001Z</time></trkpt><trkpt lat="44.03560062430486" lon="12.60023705005283"><ele>3.1666666666666665</ele><time>2026-05-03T15:31:04.001Z</time></trkpt><trkpt lat="44.035642334662874" lon="12.600170341388706"><ele>3.333333333333333</ele><time>2026-05-03T15:31:05.001Z</time></trkpt><trkpt lat="44.035724005317235" lon="12.600030274610575"><ele>3.5</ele><time>2026-05-03T15:31:07.001Z</time></trkpt><trkpt lat="44.03577337521825" lon="12.599956012638655"><ele>3.6666666666666665</ele><time>2026-05-03T15:31:08.001Z</time></trkpt><trkpt lat="44.03583024609651" lon="12.599870907789319"><ele>3.833333333333333</ele><time>2026-05-03T15:31:09.001Z</time></trkpt><trkpt lat="44.03588851626316" lon="12.599779272709702"><ele>4.0</ele><time>2026-05-03T15:31:10.001Z</time></trkpt><trkpt lat="44.03595678115683" lon="12.599673544588137"><ele>4.0</ele><time>2026-05-03T15:31:11.001Z</time></trkpt><trkpt lat="44.03602561398243" lon="12.599568183851781"><ele>4.0</ele><time>2026-05-03T15:31:12.001Z</time></trkpt><trkpt lat="44.03608771648815" lon="12.599462931003355"><ele>4.0</ele><time>2026-05-03T15:31:13.001Z</time></trkpt><trkpt lat="44.036152476827056" lon="12.599352982150215"><ele>4.0</ele><time>2026-05-03T15:31:14.001Z</time></trkpt><trkpt lat="44.03621783711332" lon="12.599246351304819"><ele>4.0</ele><time>2026-05-03T15:31:15.001Z</time></trkpt><trkpt lat="44.03627938697679" lon="12.59914814207848"><ele>4.2</ele><time>2026-05-03T15:31:16.001Z</time></trkpt><trkpt lat="44.03634135148804" lon="12.599052488492651"><ele>4.4</ele><time>2026-05-03T15:31:17.001Z</time></trkpt><trkpt lat="44.03639968108129" lon="12.598954301399091"><ele>4.6</ele><time>2026-05-03T15:31:18.001Z</time></trkpt><trkpt lat="44.036457608555686" lon="12.598854200415563"><ele>4.8</ele><time>2026-05-03T15:31:19.002Z</time></trkpt><trkpt lat="44.03651332633504" lon="12.598773842024826"><ele>5.0</ele><time>2026-05-03T15:31:20.002Z</time></trkpt><trkpt lat="44.03657952878485" lon="12.598670845404762"><ele>4.857142857142857</ele><time>2026-05-03T15:31:22.002Z</time></trkpt><trkpt lat="44.03662972697667" lon="12.598586932147294"><ele>4.714285714285714</ele><time>2026-05-03T15:31:24.002Z</time></trkpt><trkpt lat="44.03667569968117" lon="12.59850677386052"><ele>4.571428571428571</ele><time>2026-05-03T15:31:26.002Z</time></trkpt><trkpt lat="44.036715026553075" lon="12.598435274719929"><ele>4.428571428571429</ele><time>2026-05-03T15:31:28.002Z</time></trkpt><trkpt lat="44.036771387156506" lon="12.598372553573796"><ele>4.285714285714286</ele><time>2026-05-03T15:31:32.002Z</time></trkpt><trkpt lat="44.03681450867894" lon="12.598307718567895"><ele>4.142857142857142</ele><time>2026-05-03T15:31:34.002Z</time></trkpt><trkpt lat="44.036869545493765" lon="12.598247192134597"><ele>4.0</ele><time>2026-05-03T15:31:36.002Z</time></trkpt><trkpt lat="44.03693933345852" lon="12.598216683118832"><ele>3.833333333333333</ele><time>2026-05-03T15:31:39.002Z</time></trkpt><trkpt lat="44.03702497738247" lon="12.598205509238019"><ele>3.6666666666666665</ele><time>2026-05-03T15:31:41.002Z</time></trkpt><trkpt lat="44.03709979587965" lon="12.59821924916429"><ele>3.5</ele><time>2026-05-03T15:31:42.002Z</time></trkpt><trkpt lat="44.03717724195339" lon="12.598204505436833"><ele>3.333333333333333</ele><time>2026-05-03T15:31:43.002Z</time></trkpt><trkpt lat="44.03724666825058" lon="12.598171182048356"><ele>3.1666666666666665</ele><time>2026-05-03T15:31:44.002Z</time></trkpt><trkpt lat="44.03730206737186" lon="12.598115154833074"><ele>3.0</ele><time>2026-05-03T15:31:45.002Z</time></trkpt><trkpt lat="44.037348726920484" lon="12.598033144650914"><ele>3.0</ele><time>2026-05-03T15:31:46.002Z</time></trkpt><trkpt lat="44.03738430754395" lon="12.597929294669939"><ele>3.0</ele><time>2026-05-03T15:31:47.002Z</time></trkpt><trkpt lat="44.037394321026504" lon="12.597810648550343"><ele>3.0</ele><time>2026-05-03T15:31:48.002Z</time></trkpt><trkpt lat="44.037388761979" lon="12.597703685820036"><ele>3.0</ele><time>2026-05-03T15:31:49.002Z</time></trkpt><trkpt lat="44.03737980865642" lon="12.597602288160614"><ele>3.0</ele><time>2026-05-03T15:31:50.002Z</time></trkpt><trkpt lat="44.037351472158626" lon="12.597520880813203"><ele>3.0</ele><time>2026-05-03T15:31:51.002Z</time></trkpt><trkpt lat="44.037393252239085" lon="12.597408126742287"><ele>3.0</ele><time>2026-05-03T15:31:52.002Z</time></trkpt><trkpt lat="44.03743553464904" lon="12.597303368350518"><ele>3.0</ele><time>2026-05-03T15:31:53.002Z</time></trkpt><trkpt lat="44.037495747531594" lon="12.597204392882443"><ele>3.0</ele><time>2026-05-03T15:31:54.002Z</time></trkpt><trkpt lat="44.03756867694774" lon="12.597075196976842"><ele>3.0</ele><time>2026-05-03T15:31:55.002Z</time></trkpt><trkpt lat="44.037660142416165" lon="12.596921999161893"><ele>3.0</ele><time>2026-05-03T15:31:56.002Z</time></trkpt><trkpt lat="44.03778085842987" lon="12.596720248977384"><ele>3.0</ele><time>2026-05-03T15:31:57.002Z</time></trkpt><trkpt lat="44.0379229684123" lon="12.596492088274456"><ele>3.0</ele><time>2026-05-03T15:31:58.002Z</time></trkpt><trkpt lat="44.03806292563034" lon="12.596283331255792"><ele>3.0</ele><time>2026-05-03T15:31:59.002Z</time></trkpt><trkpt lat="44.03818925290034" lon="12.596093071984484"><ele>3.0</ele><time>2026-05-03T15:32:00.002Z</time></trkpt><trkpt lat="44.03830465005639" lon="12.595925002102259"><ele>3.0</ele><time>2026-05-03T15:32:01.002Z</time></trkpt><trkpt lat="44.03841099332575" lon="12.595763911663834"><ele>3.0</ele><time>2026-05-03T15:32:02.002Z</time></trkpt><trkpt lat="44.038512429559745" lon="12.59560735430493"><ele>3.0</ele><time>2026-05-03T15:32:03.003Z</time></trkpt><trkpt lat="44.038606338528815" lon="12.595460696659835"><ele>3.0</ele><time>2026-05-03T15:32:04.003Z</time></trkpt><trkpt lat="44.038702346177324" lon="12.595313944073895"><ele>3.0</ele><time>2026-05-03T15:32:05.003Z</time></trkpt><trkpt lat="44.03880498654988" lon="12.595155256872442"><ele>3.0</ele><time>2026-05-03T15:32:06.003Z</time></trkpt><trkpt lat="44.03890595374602" lon="12.594996018110479"><ele>3.0</ele><time>2026-05-03T15:32:07Z</time></trkpt><trkpt lat="44.03901368842943" lon="12.594830272624854"><ele>3.0</ele><time>2026-05-03T15:32:08Z</time></trkpt><trkpt lat="44.039122428643005" lon="12.594664105245645"><ele>3.0</ele><time>2026-05-03T15:32:09Z</time></trkpt><trkpt lat="44.0392257184402" lon="12.594505785120084"><ele>2.75</ele><time>2026-05-03T15:32:10Z</time></trkpt><trkpt lat="44.039323348773685" lon="12.594350873924311"><ele>2.5</ele><time>2026-05-03T15:32:11Z</time></trkpt><trkpt lat="44.03942089238125" lon="12.594195772418635"><ele>2.25</ele><time>2026-05-03T15:32:12Z</time></trkpt><trkpt lat="44.039521933323016" lon="12.594035558599623"><ele>2.0</ele><time>2026-05-03T15:32:13Z</time></trkpt><trkpt lat="44.03961973098625" lon="12.593872401222194"><ele>2.0</ele><time>2026-05-03T15:32:14Z</time></trkpt><trkpt lat="44.039710235991585" lon="12.593711529899549"><ele>2.0</ele><time>2026-05-03T15:32:15Z</time></trkpt><trkpt lat="44.03979701957344" lon="12.59354816542633"><ele>2.0</ele><time>2026-05-03T15:32:16Z</time></trkpt><trkpt lat="44.03988111649329" lon="12.593384745501833"><ele>2.0</ele><time>2026-05-03T15:32:17Z</time></trkpt><trkpt lat="44.03996131210847" lon="12.593225123405228"><ele>2.0</ele><time>2026-05-03T15:32:18Z</time></trkpt><trkpt lat="44.04003290895328" lon="12.59308053549089"><ele>2.0</ele><time>2026-05-03T15:32:19Z</time></trkpt><trkpt lat="44.04010013639325" lon="12.59294677629079"><ele>2.0</ele><time>2026-05-03T15:32:20Z</time></trkpt><trkpt lat="44.04016060827007" lon="12.592812314449253"><ele>2.0</ele><time>2026-05-03T15:32:21Z</time></trkpt><trkpt lat="44.040221071227485" lon="12.5926667351654"><ele>2.0</ele><time>2026-05-03T15:32:22Z</time></trkpt><trkpt lat="44.04027629594039" lon="12.59253030274313"><ele>2.0</ele><time>2026-05-03T15:32:23Z</time></trkpt><trkpt lat="44.04032663241674" lon="12.592402278746018"><ele>2.0</ele><time>2026-05-03T15:32:24Z</time></trkpt><trkpt lat="44.04036889558362" lon="12.592287020784896"><ele>2.0</ele><time>2026-05-03T15:32:25Z</time></trkpt><trkpt lat="44.040402630365904" lon="12.592175056608404"><ele>2.0</ele><time>2026-05-03T15:32:26Z</time></trkpt><trkpt lat="44.040429175294484" lon="12.59206768980345"><ele>2.0</ele><time>2026-05-03T15:32:27Z</time></trkpt><trkpt lat="44.04045695956213" lon="12.591932574082625"><ele>2.0</ele><time>2026-05-03T15:32:29Z</time></trkpt><trkpt lat="44.04050265191908" lon="12.591824355091246"><ele>2.0</ele><time>2026-05-03T15:32:31Z</time></trkpt><trkpt lat="44.04056581165882" lon="12.5917398477474"><ele>2.0</ele><time>2026-05-03T15:32:33Z</time></trkpt><trkpt lat="44.040683677350714" lon="12.591648833534455"><ele>2.0</ele><time>2026-05-03T15:32:35Z</time></trkpt><trkpt lat="44.040780422223634" lon="12.59160844635938"><ele>2.5</ele><time>2026-05-03T15:32:36.001Z</time></trkpt><trkpt lat="44.040860403316636" lon="12.591553137087859"><ele>3.0</ele><time>2026-05-03T15:32:37.001Z</time></trkpt><trkpt lat="44.04092243729159" lon="12.591492297693849"><ele>3.5</ele><time>2026-05-03T15:32:38.001Z</time></trkpt><trkpt lat="44.040975953836025" lon="12.59141885923528"><ele>4.0</ele><time>2026-05-03T15:32:39.001Z</time></trkpt><trkpt lat="44.04102819722543" lon="12.591327259132504"><ele>4.5</ele><time>2026-05-03T15:32:40.001Z</time></trkpt><trkpt lat="44.04107153739331" lon="12.591241546002221"><ele>5.0</ele><time>2026-05-03T15:32:41.001Z</time></trkpt><trkpt lat="44.041093729418016" lon="12.591132413129946"><ele>5.0</ele><time>2026-05-03T15:32:42.001Z</time></trkpt><trkpt lat="44.041105841008225" lon="12.591022043099679"><ele>5.0</ele><time>2026-05-03T15:32:43.001Z</time></trkpt><trkpt lat="44.04110456507989" lon="12.590906039853593"><ele>5.0</ele><time>2026-05-03T15:32:44.001Z</time></trkpt><trkpt lat="44.04108783453583" lon="12.590795572108208"><ele>5.0</ele><time>2026-05-03T15:32:45.001Z</time></trkpt><trkpt lat="44.04106267843449" lon="12.590698019994099"><ele>5.0</ele><time>2026-05-03T15:32:46.001Z</time></trkpt><trkpt lat="44.041036089886425" lon="12.59061732467111"><ele>5.0</ele><time>2026-05-03T15:32:47.001Z</time></trkpt><trkpt lat="44.040986629998166" lon="12.590473692642501"><ele>4.6</ele><time>2026-05-03T15:32:49.001Z</time></trkpt><trkpt lat="44.040951656614574" lon="12.590325091723711"><ele>4.2</ele><time>2026-05-03T15:32:51.001Z</time></trkpt><trkpt lat="44.04093029145542" lon="12.59021042735518"><ele>3.8</ele><time>2026-05-03T15:32:52.001Z</time></trkpt><trkpt lat="44.040925021486714" lon="12.590097476789705"><ele>3.4</ele><time>2026-05-03T15:32:53.001Z</time></trkpt><trkpt lat="44.040944990937376" lon="12.589993483023779"><ele>3.0</ele><time>2026-05-03T15:32:54.001Z</time></trkpt><trkpt lat="44.04099118778197" lon="12.589871681893097"><ele>3.0</ele><time>2026-05-03T15:32:55.001Z</time></trkpt><trkpt lat="44.04104396864762" lon="12.589733579169748"><ele>3.0</ele><time>2026-05-03T15:32:56.001Z</time></trkpt><trkpt lat="44.041095948669984" lon="12.589555327501362"><ele>3.0</ele><time>2026-05-03T15:32:57.001Z</time></trkpt><trkpt lat="44.041135950539385" lon="12.58935395225642"><ele>3.0</ele><time>2026-05-03T15:32:58.001Z</time></trkpt><trkpt lat="44.04115866951056" lon="12.589147398484297"><ele>3.0</ele><time>2026-05-03T15:32:59.001Z</time></trkpt><trkpt lat="44.041171436340086" lon="12.588911884038806"><ele>3.0</ele><time>2026-05-03T15:33:00.001Z</time></trkpt><trkpt lat="44.04118505530465" lon="12.588623141555065"><ele>3.0</ele><time>2026-05-03T15:33:01.001Z</time></trkpt><trkpt lat="44.04119595498631" lon="12.588341860005402"><ele>2.6666666666666665</ele><time>2026-05-03T15:33:02.001Z</time></trkpt><trkpt lat="44.041208739645334" lon="12.588071008598629"><ele>2.333333333333333</ele><time>2026-05-03T15:33:03.001Z</time></trkpt><trkpt lat="44.041221094465264" lon="12.587779346372573"><ele>2.0</ele><time>2026-05-03T15:33:04.001Z</time></trkpt><trkpt lat="44.041235478964396" lon="12.5874913576622"><ele>2.6666666666666665</ele><time>2026-05-03T15:33:05.001Z</time></trkpt><trkpt lat="44.04125335183159" lon="12.587238937282134"><ele>3.333333333333333</ele><time>2026-05-03T15:33:06.001Z</time></trkpt><trkpt lat="44.041271479248344" lon="12.58699950341627"><ele>4.0</ele><time>2026-05-03T15:33:07.001Z</time></trkpt><trkpt lat="44.04129207200831" lon="12.586767285597617"><ele>4.0</ele><time>2026-05-03T15:33:08.001Z</time></trkpt><trkpt lat="44.04130659710443" lon="12.586531762442148"><ele>4.0</ele><time>2026-05-03T15:33:09.001Z</time></trkpt><trkpt lat="44.04131764665423" lon="12.58630789141961"><ele>4.0</ele><time>2026-05-03T15:33:10.001Z</time></trkpt><trkpt lat="44.04132983746193" lon="12.586078450381299"><ele>4.0</ele><time>2026-05-03T15:33:11.001Z</time></trkpt><trkpt lat="44.041341091385505" lon="12.585841857579021"><ele>4.0</ele><time>2026-05-03T15:33:12.001Z</time></trkpt><trkpt lat="44.04135193212151" lon="12.585596252802222"><ele>4.0</ele><time>2026-05-03T15:33:13.001Z</time></trkpt><trkpt lat="44.04136483308698" lon="12.585352884623292"><ele>3.0</ele><time>2026-05-03T15:33:14.001Z</time></trkpt><trkpt lat="44.04137527714689" lon="12.585104633426313"><ele>2.0</ele><time>2026-05-03T15:33:15.001Z</time></trkpt><trkpt lat="44.04138605343876" lon="12.584866066827733"><ele>1.0</ele><time>2026-05-03T15:33:16.001Z</time></trkpt><trkpt lat="44.04139783766103" lon="12.584620950896603"><ele>1.6666666666666665</ele><time>2026-05-03T15:33:17.001Z</time></trkpt><trkpt lat="44.04140434892701" lon="12.584357883745689"><ele>2.3333333333333335</ele><time>2026-05-03T15:33:18.001Z</time></trkpt><trkpt lat="44.04141325612623" lon="12.584083690919092"><ele>3.0</ele><time>2026-05-03T15:33:19.001Z</time></trkpt><trkpt lat="44.041427394224314" lon="12.58381408656957"><ele>4.0</ele><time>2026-05-03T15:33:20.001Z</time></trkpt><trkpt lat="44.0414432683258" lon="12.583541733585125"><ele>5.0</ele><time>2026-05-03T15:33:21.001Z</time></trkpt><trkpt lat="44.04145618734771" lon="12.583264692619277"><ele>6.0</ele><time>2026-05-03T15:33:22.001Z</time></trkpt><trkpt lat="44.04147015243662" lon="12.583002754331376"><ele>5.666666666666667</ele><time>2026-05-03T15:33:23.002Z</time></trkpt><trkpt lat="44.041484704411474" lon="12.582734729661258"><ele>5.333333333333334</ele><time>2026-05-03T15:33:24.002Z</time></trkpt><trkpt lat="44.041500623950284" lon="12.582472139501498"><ele>5.0</ele><time>2026-05-03T15:33:25.002Z</time></trkpt><trkpt lat="44.04151731069929" lon="12.582203543371289"><ele>4.666666666666667</ele><time>2026-05-03T15:33:26.002Z</time></trkpt><trkpt lat="44.041532787168656" lon="12.581953386507157"><ele>4.333333333333333</ele><time>2026-05-03T15:33:27.002Z</time></trkpt><trkpt lat="44.04154649580543" lon="12.581698595358056"><ele>4.0</ele><time>2026-05-03T15:33:28.002Z</time></trkpt><trkpt lat="44.04156032144832" lon="12.581430348845608"><ele>5.333333333333333</ele><time>2026-05-03T15:33:29.002Z</time></trkpt><trkpt lat="44.0415749598997" lon="12.5811612585409"><ele>6.666666666666666</ele><time>2026-05-03T15:33:30.002Z</time></trkpt><trkpt lat="44.041588392803206" lon="12.58088057502644"><ele>8.0</ele><time>2026-05-03T15:33:31.002Z</time></trkpt><trkpt lat="44.04160386706506" lon="12.580619231281124"><ele>8.0</ele><time>2026-05-03T15:33:32.002Z</time></trkpt><trkpt lat="44.04161743477666" lon="12.580352228821297"><ele>8.0</ele><time>2026-05-03T15:33:33.002Z</time></trkpt><trkpt lat="44.04162915694311" lon="12.5800871405529"><ele>8.0</ele><time>2026-05-03T15:33:34.002Z</time></trkpt><trkpt lat="44.04164433988879" lon="12.579825820503494"><ele>7.666666666666666</ele><time>2026-05-03T15:33:35.002Z</time></trkpt><trkpt lat="44.04165800859396" lon="12.579561832245679"><ele>7.333333333333334</ele><time>2026-05-03T15:33:36.002Z</time></trkpt><trkpt lat="44.04167160303247" lon="12.579308217415914"><ele>7.0</ele><time>2026-05-03T15:33:37.002Z</time></trkpt><trkpt lat="44.041684750265155" lon="12.579042750526858"><ele>6.333333333333334</ele><time>2026-05-03T15:33:38.002Z</time></trkpt><trkpt lat="44.04169537686881" lon="12.57878415531124"><ele>5.666666666666667</ele><time>2026-05-03T15:33:39.002Z</time></trkpt><trkpt lat="44.04170455446103" lon="12.578551717476294"><ele>5.0</ele><time>2026-05-03T15:33:40.002Z</time></trkpt><trkpt lat="44.04171277277399" lon="12.578326294736753"><ele>4.75</ele><time>2026-05-03T15:33:41.002Z</time></trkpt><trkpt lat="44.04172503201077" lon="12.578104338445751"><ele>4.5</ele><time>2026-05-03T15:33:42.002Z</time></trkpt><trkpt lat="44.04173604175566" lon="12.57790015885711"><ele>4.25</ele><time>2026-05-03T15:33:43.002Z</time></trkpt><trkpt lat="44.04174482685114" lon="12.577708383980742"><ele>4.0</ele><time>2026-05-03T15:33:44.002Z</time></trkpt><trkpt lat="44.04175324030098" lon="12.577530164645268"><ele>5.0</ele><time>2026-05-03T15:33:45.002Z</time></trkpt><trkpt lat="44.04176253446746" lon="12.577367121485006"><ele>6.0</ele><time>2026-05-03T15:33:46.002Z</time></trkpt><trkpt lat="44.04176856168441" lon="12.57721247707171"><ele>7.0</ele><time>2026-05-03T15:33:47.002Z</time></trkpt><trkpt lat="44.041774597435264" lon="12.577079429770462"><ele>8.0</ele><time>2026-05-03T15:33:48.002Z</time></trkpt><trkpt lat="44.041781113597914" lon="12.576971008784177"><ele>9.0</ele><time>2026-05-03T15:33:49.002Z</time></trkpt><trkpt lat="44.041786259381176" lon="12.57687338985445"><ele>9.2</ele><time>2026-05-03T15:33:50.002Z</time></trkpt><trkpt lat="44.04179373979751" lon="12.57671374154976"><ele>9.4</ele><time>2026-05-03T15:33:52.002Z</time></trkpt><trkpt lat="44.041804864205865" lon="12.576546621377274"><ele>9.6</ele><time>2026-05-03T15:33:54.002Z</time></trkpt><trkpt lat="44.041827017957885" lon="12.576452812978456"><ele>9.8</ele><time>2026-05-03T15:33:55.002Z</time></trkpt><trkpt lat="44.0418774580272" lon="12.576336857686282"><ele>10.0</ele><time>2026-05-03T15:33:56.002Z</time></trkpt><trkpt lat="44.04194083024444" lon="12.576249629445261"><ele>10.166666666666668</ele><time>2026-05-03T15:33:57.002Z</time></trkpt><trkpt lat="44.04201004168546" lon="12.57617048937993"><ele>10.333333333333334</ele><time>2026-05-03T15:33:58.002Z</time></trkpt><trkpt lat="44.042064659158434" lon="12.57607642073391"><ele>10.5</ele><time>2026-05-03T15:33:59.002Z</time></trkpt><trkpt lat="44.04207573554855" lon="12.575972566321381"><ele>10.666666666666666</ele><time>2026-05-03T15:34:00.002Z</time></trkpt><trkpt lat="44.042058168394504" lon="12.575877221213128"><ele>10.833333333333332</ele><time>2026-05-03T15:34:01.002Z</time></trkpt><trkpt lat="44.042017005536295" lon="12.575780250725629"><ele>11.0</ele><time>2026-05-03T15:34:02.002Z</time></trkpt><trkpt lat="44.04196534900248" lon="12.575684522416212"><ele>11.0</ele><time>2026-05-03T15:34:03.002Z</time></trkpt><trkpt lat="44.041919713339425" lon="12.575576509666517"><ele>11.0</ele><time>2026-05-03T15:34:04.002Z</time></trkpt><trkpt lat="44.04189367037917" lon="12.575451144636077"><ele>11.0</ele><time>2026-05-03T15:34:05.002Z</time></trkpt><trkpt lat="44.041887146939125" lon="12.575310055367472"><ele>11.0</ele><time>2026-05-03T15:34:06.002Z</time></trkpt><trkpt lat="44.04189269030168" lon="12.57514934623601"><ele>11.0</ele><time>2026-05-03T15:34:07.002Z</time></trkpt><trkpt lat="44.04190152770841" lon="12.574984168568891"><ele>11.25</ele><time>2026-05-03T15:34:08.002Z</time></trkpt><trkpt lat="44.041906130524275" lon="12.57480737740967"><ele>11.5</ele><time>2026-05-03T15:34:09.003Z</time></trkpt><trkpt lat="44.04190768866871" lon="12.574628404387934"><ele>11.75</ele><time>2026-05-03T15:34:10.003Z</time></trkpt><trkpt lat="44.04190947365174" lon="12.574426634137671"><ele>12.0</ele><time>2026-05-03T15:34:11.003Z</time></trkpt><trkpt lat="44.04191044495993" lon="12.574241685325232"><ele>11.6</ele><time>2026-05-03T15:34:12.003Z</time></trkpt><trkpt lat="44.04191641623165" lon="12.574083041279927"><ele>11.2</ele><time>2026-05-03T15:34:12.999Z</time></trkpt><trkpt lat="44.04191493012775" lon="12.573932508944983"><ele>10.8</ele><time>2026-05-03T15:34:13.999Z</time></trkpt><trkpt lat="44.04190751954632" lon="12.57379507034436"><ele>10.4</ele><time>2026-05-03T15:34:14.999Z</time></trkpt><trkpt lat="44.04189617249689" lon="12.573670890842465"><ele>10.0</ele><time>2026-05-03T15:34:15.999Z</time></trkpt><trkpt lat="44.04188247061422" lon="12.573564583084563"><ele>9.833333333333334</ele><time>2026-05-03T15:34:16.999Z</time></trkpt><trkpt lat="44.04186816090865" lon="12.573477455281443"><ele>9.666666666666668</ele><time>2026-05-03T15:34:17.999Z</time></trkpt><trkpt lat="44.041833548105004" lon="12.573327204808303"><ele>9.5</ele><time>2026-05-03T15:34:19.999Z</time></trkpt><trkpt lat="44.041800545449355" lon="12.573204701839359"><ele>9.333333333333334</ele><time>2026-05-03T15:34:21.999Z</time></trkpt><trkpt lat="44.041771021456746" lon="12.573103128237785"><ele>9.166666666666666</ele><time>2026-05-03T15:34:24.999Z</time></trkpt><trkpt lat="44.04173806135167" lon="12.572992428647185"><ele>9.0</ele><time>2026-05-03T15:34:28Z</time></trkpt><trkpt lat="44.04168984218292" lon="12.572879605800921"><ele>9.285714285714286</ele><time>2026-05-03T15:34:30Z</time></trkpt><trkpt lat="44.041646754090145" lon="12.572782817553074"><ele>9.571428571428571</ele><time>2026-05-03T15:34:32Z</time></trkpt><trkpt lat="44.041606248163994" lon="12.572695795810473"><ele>9.857142857142858</ele><time>2026-05-03T15:34:34Z</time></trkpt><trkpt lat="44.04156878261254" lon="12.572611143735662"><ele>10.142857142857142</ele><time>2026-05-03T15:34:36Z</time></trkpt><trkpt lat="44.04153206000686" lon="12.572531934417185"><ele>10.428571428571429</ele><time>2026-05-03T15:34:38Z</time></trkpt><trkpt lat="44.04149604479704" lon="12.57243427607121"><ele>10.714285714285715</ele><time>2026-05-03T15:34:41Z</time></trkpt><trkpt lat="44.04146290975194" lon="12.572353065447079"><ele>11.0</ele><time>2026-05-03T15:34:44Z</time></trkpt><trkpt lat="44.04142910565842" lon="12.572273922756368"><ele>11.166666666666666</ele><time>2026-05-03T15:34:46Z</time></trkpt><trkpt lat="44.0414022107563" lon="12.572160666868191"><ele>11.333333333333332</ele><time>2026-05-03T15:34:48Z</time></trkpt><trkpt lat="44.0413942388133" lon="12.572065677476113"><ele>11.5</ele><time>2026-05-03T15:34:50Z</time></trkpt><trkpt lat="44.04140678285172" lon="12.571942017142595"><ele>11.666666666666666</ele><time>2026-05-03T15:34:53Z</time></trkpt><trkpt lat="44.04146330939313" lon="12.57185893568928"><ele>11.833333333333334</ele><time>2026-05-03T15:34:55Z</time></trkpt><trkpt lat="44.04155339338522" lon="12.57180535169448"><ele>12.0</ele><time>2026-05-03T15:34:57Z</time></trkpt><trkpt lat="44.04163429882937" lon="12.571800432849827"><ele>11.714285714285714</ele><time>2026-05-03T15:34:58Z</time></trkpt><trkpt lat="44.041700690638265" lon="12.571820820689526"><ele>11.428571428571429</ele><time>2026-05-03T15:34:59Z</time></trkpt><trkpt lat="44.04177370016931" lon="12.571829763935396"><ele>11.142857142857142</ele><time>2026-05-03T15:35:00Z</time></trkpt><trkpt lat="44.04184786480449" lon="12.571842944850479"><ele>10.857142857142858</ele><time>2026-05-03T15:35:01Z</time></trkpt><trkpt lat="44.04191990527866" lon="12.571813023470064"><ele>10.571428571428571</ele><time>2026-05-03T15:35:02.001Z</time></trkpt><trkpt lat="44.04198816378779" lon="12.571776338752672"><ele>10.285714285714285</ele><time>2026-05-03T15:35:03.001Z</time></trkpt><trkpt lat="44.04205356980937" lon="12.571711103663876"><ele>10.0</ele><time>2026-05-03T15:35:04.001Z</time></trkpt><trkpt lat="44.04211678481856" lon="12.571628941688266"><ele>10.0</ele><time>2026-05-03T15:35:05.001Z</time></trkpt><trkpt lat="44.042171085053575" lon="12.571534318851374"><ele>10.0</ele><time>2026-05-03T15:35:06.001Z</time></trkpt><trkpt lat="44.04221737134961" lon="12.571418032822299"><ele>10.0</ele><time>2026-05-03T15:35:07.001Z</time></trkpt><trkpt lat="44.04225581795262" lon="12.571303042298055"><ele>10.0</ele><time>2026-05-03T15:35:08.001Z</time></trkpt><trkpt lat="44.04227391868376" lon="12.571192802249099"><ele>10.0</ele><time>2026-05-03T15:35:09.001Z</time></trkpt><trkpt lat="44.042281863488874" lon="12.571075967808298"><ele>10.0</ele><time>2026-05-03T15:35:10.001Z</time></trkpt><trkpt lat="44.04227155507239" lon="12.57097547172648"><ele>10.0</ele><time>2026-05-03T15:35:11.001Z</time></trkpt><trkpt lat="44.042253276820695" lon="12.570869340434209"><ele>10.0</ele><time>2026-05-03T15:35:12.001Z</time></trkpt><trkpt lat="44.04222331949929" lon="12.570754645372725"><ele>10.0</ele><time>2026-05-03T15:35:13.001Z</time></trkpt><trkpt lat="44.042187692305355" lon="12.570611294595276"><ele>10.0</ele><time>2026-05-03T15:35:14.001Z</time></trkpt><trkpt lat="44.04216798570537" lon="12.570447920894102"><ele>10.0</ele><time>2026-05-03T15:35:15.001Z</time></trkpt><trkpt lat="44.042166652841104" lon="12.57025968278688"><ele>9.75</ele><time>2026-05-03T15:35:16.001Z</time></trkpt><trkpt lat="44.042176391900014" lon="12.570059467920482"><ele>9.5</ele><time>2026-05-03T15:35:17.001Z</time></trkpt><trkpt lat="44.042187151638934" lon="12.569862208527049"><ele>9.25</ele><time>2026-05-03T15:35:18.001Z</time></trkpt><trkpt lat="44.04219941921635" lon="12.569670337207715"><ele>9.0</ele><time>2026-05-03T15:35:19.001Z</time></trkpt><trkpt lat="44.042208118593734" lon="12.569468849744409"><ele>9.0</ele><time>2026-05-03T15:35:20.001Z</time></trkpt><trkpt lat="44.0422180158337" lon="12.56928179536789"><ele>9.0</ele><time>2026-05-03T15:35:21.001Z</time></trkpt><trkpt lat="44.042228664077875" lon="12.569112829665297"><ele>9.0</ele><time>2026-05-03T15:35:22.001Z</time></trkpt><trkpt lat="44.04223720455833" lon="12.568947082964828"><ele>9.0</ele><time>2026-05-03T15:35:23.001Z</time></trkpt><trkpt lat="44.04224729417796" lon="12.568766993131511"><ele>9.75</ele><time>2026-05-03T15:35:24.001Z</time></trkpt><trkpt lat="44.04225522453809" lon="12.56857966599073"><ele>10.5</ele><time>2026-05-03T15:35:25.001Z</time></trkpt><trkpt lat="44.04225887272162" lon="12.56839211268916"><ele>11.25</ele><time>2026-05-03T15:35:26.001Z</time></trkpt><trkpt lat="44.04226487118144" lon="12.568208176723688"><ele>12.0</ele><time>2026-05-03T15:35:27.001Z</time></trkpt><trkpt lat="44.04227218140616" lon="12.56802256182888"><ele>12.0</ele><time>2026-05-03T15:35:28.001Z</time></trkpt><trkpt lat="44.04228943410319" lon="12.567829899815184"><ele>12.0</ele><time>2026-05-03T15:35:29.001Z</time></trkpt><trkpt lat="44.04230652624466" lon="12.56762825748061"><ele>12.0</ele><time>2026-05-03T15:35:30.001Z</time></trkpt><trkpt lat="44.04232601316778" lon="12.567417589474823"><ele>12.0</ele><time>2026-05-03T15:35:31.001Z</time></trkpt><trkpt lat="44.04234863586437" lon="12.567196461996577"><ele>11.0</ele><time>2026-05-03T15:35:32.001Z</time></trkpt><trkpt lat="44.04237654857441" lon="12.566973315445956"><ele>10.0</ele><time>2026-05-03T15:35:33.001Z</time></trkpt><trkpt lat="44.04240670682388" lon="12.56675976258113"><ele>9.0</ele><time>2026-05-03T15:35:34.001Z</time></trkpt><trkpt lat="44.04244033429876" lon="12.566544798606223"><ele>9.0</ele><time>2026-05-03T15:35:35.001Z</time></trkpt><trkpt lat="44.04247874355582" lon="12.566337652356324"><ele>9.0</ele><time>2026-05-03T15:35:36.001Z</time></trkpt><trkpt lat="44.04251519277286" lon="12.566128698314143"><ele>9.0</ele><time>2026-05-03T15:35:37.001Z</time></trkpt><trkpt lat="44.04255561233511" lon="12.565923451943743"><ele>9.0</ele><time>2026-05-03T15:35:38.001Z</time></trkpt><trkpt lat="44.04259344920904" lon="12.565722273655723"><ele>9.0</ele><time>2026-05-03T15:35:39.001Z</time></trkpt><trkpt lat="44.04263374073927" lon="12.565523204837193"><ele>9.0</ele><time>2026-05-03T15:35:40.001Z</time></trkpt><trkpt lat="44.04267790766077" lon="12.565325527177993"><ele>9.0</ele><time>2026-05-03T15:35:41.001Z</time></trkpt><trkpt lat="44.04273251061131" lon="12.565112182806745"><ele>9.0</ele><time>2026-05-03T15:35:42.001Z</time></trkpt><trkpt lat="44.042793559989995" lon="12.564894401070667"><ele>9.0</ele><time>2026-05-03T15:35:43.001Z</time></trkpt><trkpt lat="44.04284742112379" lon="12.564680938567149"><ele>9.0</ele><time>2026-05-03T15:35:44.002Z</time></trkpt><trkpt lat="44.04290089239284" lon="12.564479532268049"><ele>8.666666666666666</ele><time>2026-05-03T15:35:45.002Z</time></trkpt><trkpt lat="44.04295255176821" lon="12.564282847991954"><ele>8.333333333333332</ele><time>2026-05-03T15:35:46.002Z</time></trkpt><trkpt lat="44.043001469513385" lon="12.564087605093663"><ele>8.0</ele><time>2026-05-03T15:35:47.002Z</time></trkpt><trkpt lat="44.043054631956196" lon="12.563890845073075"><ele>8.0</ele><time>2026-05-03T15:35:48.002Z</time></trkpt><trkpt lat="44.04310622740848" lon="12.563692771374763"><ele>8.0</ele><time>2026-05-03T15:35:49.002Z</time></trkpt><trkpt lat="44.04315504938211" lon="12.563502444544898"><ele>8.0</ele><time>2026-05-03T15:35:50.002Z</time></trkpt><trkpt lat="44.04320576137978" lon="12.563312272792393"><ele>8.0</ele><time>2026-05-03T15:35:51.002Z</time></trkpt><trkpt lat="44.043256820308855" lon="12.563127181027047"><ele>8.5</ele><time>2026-05-03T15:35:52.002Z</time></trkpt><trkpt lat="44.043306984779086" lon="12.562942318862705"><ele>9.0</ele><time>2026-05-03T15:35:53.002Z</time></trkpt><trkpt lat="44.043352218315476" lon="12.562772731171666"><ele>9.5</ele><time>2026-05-03T15:35:54.002Z</time></trkpt><trkpt lat="44.04339462540305" lon="12.562612078571748"><ele>10.0</ele><time>2026-05-03T15:35:55.002Z</time></trkpt><trkpt lat="44.04343808851144" lon="12.562454502895775"><ele>10.0</ele><time>2026-05-03T15:35:56.002Z</time></trkpt><trkpt lat="44.04348265565454" lon="12.56229326855915"><ele>10.0</ele><time>2026-05-03T15:35:57.002Z</time></trkpt><trkpt lat="44.04352221891948" lon="12.562141748787733"><ele>10.0</ele><time>2026-05-03T15:35:58.002Z</time></trkpt><trkpt lat="44.043563227230926" lon="12.561985676326767"><ele>10.0</ele><time>2026-05-03T15:35:59.002Z</time></trkpt><trkpt lat="44.04360547370751" lon="12.561815056686907"><ele>10.5</ele><time>2026-05-03T15:36:00.002Z</time></trkpt><trkpt lat="44.043650425466495" lon="12.561625275963566"><ele>11.0</ele><time>2026-05-03T15:36:01.002Z</time></trkpt><trkpt lat="44.04369432831549" lon="12.561437847573142"><ele>11.5</ele><time>2026-05-03T15:36:02.002Z</time></trkpt><trkpt lat="44.043740808259976" lon="12.56126226696391"><ele>12.0</ele><time>2026-05-03T15:36:03.002Z</time></trkpt><trkpt lat="44.043785012054215" lon="12.561092526729945"><ele>12.0</ele><time>2026-05-03T15:36:04.002Z</time></trkpt><trkpt lat="44.043829620567145" lon="12.56093414801174"><ele>12.0</ele><time>2026-05-03T15:36:05.002Z</time></trkpt><trkpt lat="44.04386745698615" lon="12.560787013948927"><ele>12.0</ele><time>2026-05-03T15:36:06.002Z</time></trkpt><trkpt lat="44.04390131657443" lon="12.56065622112356"><ele>12.0</ele><time>2026-05-03T15:36:07.002Z</time></trkpt><trkpt lat="44.04393413144224" lon="12.560535791927157"><ele>12.0</ele><time>2026-05-03T15:36:08.002Z</time></trkpt><trkpt lat="44.04396337639193" lon="12.560424548541194"><ele>12.0</ele><time>2026-05-03T15:36:09.002Z</time></trkpt><trkpt lat="44.043991615449364" lon="12.560320066204849"><ele>12.0</ele><time>2026-05-03T15:36:10.002Z</time></trkpt><trkpt lat="44.04402176209956" lon="12.560233239565411"><ele>12.0</ele><time>2026-05-03T15:36:11.002Z</time></trkpt><trkpt lat="44.04406504909857" lon="12.560145489813875"><ele>12.0</ele><time>2026-05-03T15:36:12.002Z</time></trkpt><trkpt lat="44.04412929874477" lon="12.560056359746916"><ele>12.0</ele><time>2026-05-03T15:36:13.002Z</time></trkpt><trkpt lat="44.04420608224084" lon="12.559990681703827"><ele>12.0</ele><time>2026-05-03T15:36:14.002Z</time></trkpt><trkpt lat="44.04426902783708" lon="12.559894536013333"><ele>12.2</ele><time>2026-05-03T15:36:15.002Z</time></trkpt><trkpt lat="44.044300918073674" lon="12.55976217019246"><ele>12.399999999999999</ele><time>2026-05-03T15:36:16.002Z</time></trkpt><trkpt lat="44.04429716234192" lon="12.559623726053191"><ele>12.600000000000001</ele><time>2026-05-03T15:36:17.002Z</time></trkpt><trkpt lat="44.04427852099188" lon="12.55948255691477"><ele>12.8</ele><time>2026-05-03T15:36:18.002Z</time></trkpt><trkpt lat="44.04427595854103" lon="12.559341990803604"><ele>13.0</ele><time>2026-05-03T15:36:18.999Z</time></trkpt><trkpt lat="44.04429904474824" lon="12.559185971331084"><ele>12.5</ele><time>2026-05-03T15:36:19.999Z</time></trkpt><trkpt lat="44.04433420963745" lon="12.559028251527215"><ele>12.0</ele><time>2026-05-03T15:36:20.999Z</time></trkpt><trkpt lat="44.04437719690368" lon="12.558875834068534"><ele>11.5</ele><time>2026-05-03T15:36:21.999Z</time></trkpt><trkpt lat="44.044422800213255" lon="12.558717790170558"><ele>11.0</ele><time>2026-05-03T15:36:22.999Z</time></trkpt><trkpt lat="44.044469184542976" lon="12.558545891111796"><ele>11.0</ele><time>2026-05-03T15:36:23.999Z</time></trkpt><trkpt lat="44.04451612277458" lon="12.558378093062235"><ele>11.0</ele><time>2026-05-03T15:36:24.999Z</time></trkpt><trkpt lat="44.04455807834456" lon="12.558224358452282"><ele>11.0</ele><time>2026-05-03T15:36:25.999Z</time></trkpt><trkpt lat="44.04459747462362" lon="12.558074601105027"><ele>11.0</ele><time>2026-05-03T15:36:26.999Z</time></trkpt><trkpt lat="44.0446374084016" lon="12.557928772884916"><ele>11.0</ele><time>2026-05-03T15:36:27.999Z</time></trkpt><trkpt lat="44.0446797481961" lon="12.557787640251226"><ele>11.0</ele><time>2026-05-03T15:36:28.999Z</time></trkpt><trkpt lat="44.044721622362815" lon="12.557645419829736"><ele>11.0</ele><time>2026-05-03T15:36:29.999Z</time></trkpt><trkpt lat="44.04476328904183" lon="12.557484304603282"><ele>11.0</ele><time>2026-05-03T15:36:30.999Z</time></trkpt><trkpt lat="44.04480565222236" lon="12.557314453685327"><ele>11.0</ele><time>2026-05-03T15:36:31.999Z</time></trkpt><trkpt lat="44.04484998902642" lon="12.55714548131232"><ele>11.0</ele><time>2026-05-03T15:36:32.999Z</time></trkpt><trkpt lat="44.04489460259701" lon="12.55698602915835"><ele>11.0</ele><time>2026-05-03T15:36:33.999Z</time></trkpt><trkpt lat="44.04493726782334" lon="12.556819727535968"><ele>11.0</ele><time>2026-05-03T15:36:34.999Z</time></trkpt><trkpt lat="44.04498188489706" lon="12.556649763842305"><ele>10.75</ele><time>2026-05-03T15:36:35.999Z</time></trkpt><trkpt lat="44.045026984830116" lon="12.556476566498471"><ele>10.5</ele><time>2026-05-03T15:36:37Z</time></trkpt><trkpt lat="44.04507223485374" lon="12.55630444239198"><ele>10.25</ele><time>2026-05-03T15:36:38Z</time></trkpt><trkpt lat="44.04511144422313" lon="12.556146575701813"><ele>10.0</ele><time>2026-05-03T15:36:39Z</time></trkpt><trkpt lat="44.045151721982364" lon="12.555996229557971"><ele>10.0</ele><time>2026-05-03T15:36:40Z</time></trkpt><trkpt lat="44.04519484919744" lon="12.555843638283429"><ele>10.0</ele><time>2026-05-03T15:36:41Z</time></trkpt><trkpt lat="44.045234324497194" lon="12.555699693036974"><ele>10.0</ele><time>2026-05-03T15:36:42Z</time></trkpt><trkpt lat="44.045270663894065" lon="12.555565984731306"><ele>10.0</ele><time>2026-05-03T15:36:43Z</time></trkpt><trkpt lat="44.04530272739757" lon="12.555444835614912"><ele>10.0</ele><time>2026-05-03T15:36:44Z</time></trkpt><trkpt lat="44.045330590218065" lon="12.555310247827222"><ele>10.2</ele><time>2026-05-03T15:36:45Z</time></trkpt><trkpt lat="44.045358480193535" lon="12.555163842298958"><ele>10.4</ele><time>2026-05-03T15:36:46Z</time></trkpt><trkpt lat="44.04538984413701" lon="12.555024534665375"><ele>10.600000000000001</ele><time>2026-05-03T15:36:47Z</time></trkpt><trkpt lat="44.04542535673038" lon="12.554898714216744"><ele>10.8</ele><time>2026-05-03T15:36:48Z</time></trkpt><trkpt lat="44.04545572536445" lon="12.554795571556285"><ele>11.0</ele><time>2026-05-03T15:36:49Z</time></trkpt><trkpt lat="44.04549784680012" lon="12.554665484864115"><ele>11.0</ele><time>2026-05-03T15:36:51Z</time></trkpt><trkpt lat="44.045519342946854" lon="12.554581722969452"><ele>11.0</ele><time>2026-05-03T15:36:53Z</time></trkpt><trkpt lat="44.0455407133594" lon="12.554495500061142"><ele>11.0</ele><time>2026-05-03T15:36:56Z</time></trkpt><trkpt lat="44.045571315445414" lon="12.554397159233663"><ele>11.0</ele><time>2026-05-03T15:37:08.001Z</time></trkpt><trkpt lat="44.04561720778734" lon="12.554272856338837"><ele>11.0</ele><time>2026-05-03T15:37:11.001Z</time></trkpt><trkpt lat="44.04567027035776" lon="12.554139160452607"><ele>11.0</ele><time>2026-05-03T15:37:13.001Z</time></trkpt><trkpt lat="44.045716169168394" lon="12.55400298549723"><ele>11.333333333333332</ele><time>2026-05-03T15:37:15.001Z</time></trkpt><trkpt lat="44.045769178566836" lon="12.553858907452724"><ele>11.666666666666666</ele><time>2026-05-03T15:37:17.001Z</time></trkpt><trkpt lat="44.0457987065719" lon="12.553779710829112"><ele>12.0</ele><time>2026-05-03T15:37:18.001Z</time></trkpt><trkpt lat="44.04582977493507" lon="12.553694905935151"><ele>12.333333333333332</ele><time>2026-05-03T15:37:19.001Z</time></trkpt><trkpt lat="44.04586504315685" lon="12.553612158905239"><ele>12.666666666666666</ele><time>2026-05-03T15:37:20.001Z</time></trkpt><trkpt lat="44.04593050707038" lon="12.553470038820707"><ele>13.0</ele><time>2026-05-03T15:37:22.001Z</time></trkpt><trkpt lat="44.04598870522603" lon="12.553353401893235"><ele>12.200000000000001</ele><time>2026-05-03T15:37:24.001Z</time></trkpt><trkpt lat="44.04604882262609" lon="12.553261291505505"><ele>11.4</ele><time>2026-05-03T15:37:26.001Z</time></trkpt><trkpt lat="44.04614377535796" lon="12.553179668302795"><ele>10.600000000000001</ele><time>2026-05-03T15:37:28.001Z</time></trkpt><trkpt lat="44.046227524716336" lon="12.553131197682172"><ele>9.8</ele><time>2026-05-03T15:37:29.001Z</time></trkpt><trkpt lat="44.0463225105085" lon="12.553072846017233"><ele>9.0</ele><time>2026-05-03T15:37:30.001Z</time></trkpt><trkpt lat="44.04638333911148" lon="12.55296327413387"><ele>9.6</ele><time>2026-05-03T15:37:31.001Z</time></trkpt><trkpt lat="44.04639977416964" lon="12.552829790552407"><ele>10.2</ele><time>2026-05-03T15:37:32.001Z</time></trkpt><trkpt lat="44.046415383500246" lon="12.552707361439042"><ele>10.799999999999999</ele><time>2026-05-03T15:37:33.001Z</time></trkpt><trkpt lat="44.04643361029611" lon="12.552574915439715"><ele>11.4</ele><time>2026-05-03T15:37:34.001Z</time></trkpt><trkpt lat="44.04647786312174" lon="12.55244071455419"><ele>12.0</ele><time>2026-05-03T15:37:35.001Z</time></trkpt><trkpt lat="44.04653845719831" lon="12.552318470740245"><ele>12.0</ele><time>2026-05-03T15:37:36.001Z</time></trkpt><trkpt lat="44.04661970193938" lon="12.55219156466602"><ele>12.0</ele><time>2026-05-03T15:37:37.001Z</time></trkpt><trkpt lat="44.04670969780126" lon="12.552052728245028"><ele>12.0</ele><time>2026-05-03T15:37:38.001Z</time></trkpt><trkpt lat="44.046797973143214" lon="12.551918687213222"><ele>12.0</ele><time>2026-05-03T15:37:39.001Z</time></trkpt><trkpt lat="44.046888629351585" lon="12.55178181154093"><ele>12.0</ele><time>2026-05-03T15:37:40.001Z</time></trkpt><trkpt lat="44.046978022687675" lon="12.551650844121141"><ele>12.0</ele><time>2026-05-03T15:37:41.001Z</time></trkpt><trkpt lat="44.04707134371305" lon="12.551519660298107"><ele>12.0</ele><time>2026-05-03T15:37:42.001Z</time></trkpt><trkpt lat="44.04717121966876" lon="12.551386948141074"><ele>12.0</ele><time>2026-05-03T15:37:43.001Z</time></trkpt><trkpt lat="44.047277654272534" lon="12.55125039641816"><ele>12.5</ele><time>2026-05-03T15:37:44.002Z</time></trkpt><trkpt lat="44.0473901614915" lon="12.55111236001465"><ele>13.0</ele><time>2026-05-03T15:37:45.002Z</time></trkpt><trkpt lat="44.047503288405224" lon="12.5509818443549"><ele>13.5</ele><time>2026-05-03T15:37:46.002Z</time></trkpt><trkpt lat="44.04761985068136" lon="12.550849499184395"><ele>14.0</ele><time>2026-05-03T15:37:47.002Z</time></trkpt><trkpt lat="44.04773580065366" lon="12.550720780227843"><ele>13.0</ele><time>2026-05-03T15:37:48.002Z</time></trkpt><trkpt lat="44.047850803453066" lon="12.550600212076288"><ele>12.0</ele><time>2026-05-03T15:37:49.002Z</time></trkpt><trkpt lat="44.047962331239205" lon="12.550484926431919"><ele>11.0</ele><time>2026-05-03T15:37:50.002Z</time></trkpt><trkpt lat="44.04807135216965" lon="12.55037345490016"><ele>10.0</ele><time>2026-05-03T15:37:51.002Z</time></trkpt><trkpt lat="44.04817934069729" lon="12.550269449031099"><ele>10.0</ele><time>2026-05-03T15:37:52.002Z</time></trkpt><trkpt lat="44.048285081953765" lon="12.55016856220977"><ele>10.0</ele><time>2026-05-03T15:37:53.002Z</time></trkpt><trkpt lat="44.04839012332251" lon="12.550067196134313"><ele>10.0</ele><time>2026-05-03T15:37:54.002Z</time></trkpt><trkpt lat="44.04849751307546" lon="12.54996364597735"><ele>10.0</ele><time>2026-05-03T15:37:55.002Z</time></trkpt><trkpt lat="44.04860442836114" lon="12.549858809088343"><ele>8.75</ele><time>2026-05-03T15:37:56.002Z</time></trkpt><trkpt lat="44.04870895938792" lon="12.549752761442837"><ele>7.5</ele><time>2026-05-03T15:37:57.002Z</time></trkpt><trkpt lat="44.04881888476709" lon="12.549646053443492"><ele>6.25</ele><time>2026-05-03T15:37:58.002Z</time></trkpt><trkpt lat="44.04893226067332" lon="12.54953855209355"><ele>5.0</ele><time>2026-05-03T15:37:59.002Z</time></trkpt><trkpt lat="44.04903865116959" lon="12.54943258098317"><ele>5.0</ele><time>2026-05-03T15:38:00.002Z</time></trkpt><trkpt lat="44.04913122487881" lon="12.549343997524186"><ele>5.0</ele><time>2026-05-03T15:38:01.002Z</time></trkpt><trkpt lat="44.04921064999659" lon="12.549269782239264"><ele>5.0</ele><time>2026-05-03T15:38:02.002Z</time></trkpt><trkpt lat="44.04928100394197" lon="12.549204249105943"><ele>5.0</ele><time>2026-05-03T15:38:03.002Z</time></trkpt><trkpt lat="44.04935046316446" lon="12.549145768184955"><ele>5.0</ele><time>2026-05-03T15:38:04.002Z</time></trkpt><trkpt lat="44.04942264655922" lon="12.549091896908813"><ele>5.0</ele><time>2026-05-03T15:38:05.002Z</time></trkpt><trkpt lat="44.049491557292505" lon="12.549047374497603"><ele>5.0</ele><time>2026-05-03T15:38:06.002Z</time></trkpt><trkpt lat="44.04955143242494" lon="12.549015631534324"><ele>5.0</ele><time>2026-05-03T15:38:07.002Z</time></trkpt><trkpt lat="44.04968360741298" lon="12.548988709858014"><ele>5.0</ele><time>2026-05-03T15:38:09.002Z</time></trkpt><trkpt lat="44.04976873508338" lon="12.548996306693919"><ele>5.0</ele><time>2026-05-03T15:38:10.002Z</time></trkpt><trkpt lat="44.04985881933561" lon="12.548984149795443"><ele>5.0</ele><time>2026-05-03T15:38:11.002Z</time></trkpt><trkpt lat="44.04993802483164" lon="12.548930788538623"><ele>5.5</ele><time>2026-05-03T15:38:12.002Z</time></trkpt><trkpt lat="44.04999987836362" lon="12.548851934154907"><ele>6.0</ele><time>2026-05-03T15:38:13.002Z</time></trkpt><trkpt lat="44.05004508552257" lon="12.548745264373437"><ele>6.5</ele><time>2026-05-03T15:38:14.002Z</time></trkpt><trkpt lat="44.05007038542665" lon="12.548621441671926"><ele>7.0</ele><time>2026-05-03T15:38:15.002Z</time></trkpt><trkpt lat="44.05009422341949" lon="12.548504824712898"><ele>7.499999999999999</ele><time>2026-05-03T15:38:16.002Z</time></trkpt><trkpt lat="44.05013778608611" lon="12.5483998423827"><ele>8.0</ele><time>2026-05-03T15:38:17.002Z</time></trkpt><trkpt lat="44.05019886585542" lon="12.548307466635963"><ele>8.200000000000001</ele><time>2026-05-03T15:38:18.002Z</time></trkpt><trkpt lat="44.05026880531574" lon="12.548233315800038"><ele>8.4</ele><time>2026-05-03T15:38:19.002Z</time></trkpt><trkpt lat="44.050348309447834" lon="12.548155473523694"><ele>8.600000000000001</ele><time>2026-05-03T15:38:20.002Z</time></trkpt><trkpt lat="44.05044279599981" lon="12.548064859294836"><ele>8.8</ele><time>2026-05-03T15:38:21.002Z</time></trkpt><trkpt lat="44.05054682473988" lon="12.547962725083615"><ele>9.0</ele><time>2026-05-03T15:38:22.002Z</time></trkpt><trkpt lat="44.050648018544415" lon="12.547864527073203"><ele>9.0</ele><time>2026-05-03T15:38:23.003Z</time></trkpt><trkpt lat="44.050749482544475" lon="12.547769388647962"><ele>9.0</ele><time>2026-05-03T15:38:24.003Z</time></trkpt><trkpt lat="44.05085527014777" lon="12.547669030549851"><ele>9.0</ele><time>2026-05-03T15:38:24.999Z</time></trkpt><trkpt lat="44.05095958743228" lon="12.547568809884364"><ele>9.0</ele><time>2026-05-03T15:38:25.999Z</time></trkpt><trkpt lat="44.05105801092346" lon="12.547465796956747"><ele>9.5</ele><time>2026-05-03T15:38:26.999Z</time></trkpt><trkpt lat="44.051161149992645" lon="12.547373888960673"><ele>10.0</ele><time>2026-05-03T15:38:27.999Z</time></trkpt><trkpt lat="44.05126495971697" lon="12.547271244072775"><ele>10.5</ele><time>2026-05-03T15:38:28.999Z</time></trkpt><trkpt lat="44.051373687358755" lon="12.547168336813712"><ele>11.0</ele><time>2026-05-03T15:38:29.999Z</time></trkpt><trkpt lat="44.05149197844192" lon="12.547054936601516"><ele>11.0</ele><time>2026-05-03T15:38:30.999Z</time></trkpt><trkpt lat="44.05161339428745" lon="12.5469390587743"><ele>11.0</ele><time>2026-05-03T15:38:31.999Z</time></trkpt><trkpt lat="44.05173555645335" lon="12.546821159879096"><ele>11.0</ele><time>2026-05-03T15:38:32.999Z</time></trkpt><trkpt lat="44.051852303424766" lon="12.546706215598723"><ele>11.0</ele><time>2026-05-03T15:38:33.999Z</time></trkpt><trkpt lat="44.05195957927625" lon="12.546603083758274"><ele>10.75</ele><time>2026-05-03T15:38:34.999Z</time></trkpt><trkpt lat="44.052063879187926" lon="12.546502504769025"><ele>10.5</ele><time>2026-05-03T15:38:36Z</time></trkpt><trkpt lat="44.05218397112197" lon="12.546380381338823"><ele>10.25</ele><time>2026-05-03T15:38:37Z</time></trkpt><trkpt lat="44.05232218649671" lon="12.546243499565797"><ele>10.0</ele><time>2026-05-03T15:38:38Z</time></trkpt><trkpt lat="44.052472679117315" lon="12.546091069940502"><ele>9.333333333333334</ele><time>2026-05-03T15:38:39Z</time></trkpt><trkpt lat="44.052622961572304" lon="12.545934605910046"><ele>8.666666666666666</ele><time>2026-05-03T15:38:40Z</time></trkpt><trkpt lat="44.0527865859989" lon="12.545764876733482"><ele>8.0</ele><time>2026-05-03T15:38:41Z</time></trkpt><trkpt lat="44.05295066159936" lon="12.545591289426001"><ele>8.0</ele><time>2026-05-03T15:38:42Z</time></trkpt><trkpt lat="44.053103537388566" lon="12.545443894607697"><ele>8.0</ele><time>2026-05-03T15:38:43Z</time></trkpt><trkpt lat="44.05325485869342" lon="12.545298921811995"><ele>8.0</ele><time>2026-05-03T15:38:44Z</time></trkpt><trkpt lat="44.05341093275112" lon="12.54514395648908"><ele>8.0</ele><time>2026-05-03T15:38:45Z</time></trkpt><trkpt lat="44.053569002332566" lon="12.544984312258835"><ele>8.0</ele><time>2026-05-03T15:38:46Z</time></trkpt><trkpt lat="44.053738387256764" lon="12.544821078856868"><ele>8.0</ele><time>2026-05-03T15:38:47Z</time></trkpt><trkpt lat="44.053907649318155" lon="12.54465358850356"><ele>8.0</ele><time>2026-05-03T15:38:48Z</time></trkpt><trkpt lat="44.05407645530947" lon="12.54449007303607"><ele>8.0</ele><time>2026-05-03T15:38:49Z</time></trkpt><trkpt lat="44.05424283923194" lon="12.544329356504331"><ele>8.0</ele><time>2026-05-03T15:38:50Z</time></trkpt><trkpt lat="44.054412019855896" lon="12.544164781174523"><ele>8.0</ele><time>2026-05-03T15:38:51Z</time></trkpt><trkpt lat="44.05458128529284" lon="12.543998017637625"><ele>8.0</ele><time>2026-05-03T15:38:52Z</time></trkpt><trkpt lat="44.05475254461438" lon="12.543832556495541"><ele>8.0</ele><time>2026-05-03T15:38:53Z</time></trkpt><trkpt lat="44.05492424229155" lon="12.543671706286558"><ele>9.0</ele><time>2026-05-03T15:38:54Z</time></trkpt><trkpt lat="44.05510144518593" lon="12.54350802893427"><ele>10.0</ele><time>2026-05-03T15:38:55Z</time></trkpt><trkpt lat="44.055278321729766" lon="12.54334732597045"><ele>11.0</ele><time>2026-05-03T15:38:56Z</time></trkpt><trkpt lat="44.05545400388572" lon="12.543192969180732"><ele>11.0</ele><time>2026-05-03T15:38:57Z</time></trkpt><trkpt lat="44.05563383088083" lon="12.543061640175232"><ele>11.0</ele><time>2026-05-03T15:38:58Z</time></trkpt><trkpt lat="44.05581814960096" lon="12.542948453097367"><ele>11.0</ele><time>2026-05-03T15:38:59Z</time></trkpt><trkpt lat="44.05600319418664" lon="12.542846028616077"><ele>10.333333333333332</ele><time>2026-05-03T15:39:00Z</time></trkpt><trkpt lat="44.05619281540335" lon="12.542746680002981"><ele>9.666666666666666</ele><time>2026-05-03T15:39:01Z</time></trkpt><trkpt lat="44.05638195149371" lon="12.542658366813123"><ele>9.0</ele><time>2026-05-03T15:39:02Z</time></trkpt><trkpt lat="44.05657190543788" lon="12.542586043486883"><ele>9.666666666666666</ele><time>2026-05-03T15:39:03Z</time></trkpt><trkpt lat="44.05677188709573" lon="12.542523838188423"><ele>10.333333333333332</ele><time>2026-05-03T15:39:04Z</time></trkpt><trkpt lat="44.05696730489895" lon="12.542478972605956"><ele>11.0</ele><time>2026-05-03T15:39:05Z</time></trkpt><trkpt lat="44.05716386013187" lon="12.54244686117926"><ele>11.0</ele><time>2026-05-03T15:39:06.001Z</time></trkpt><trkpt lat="44.05736907055946" lon="12.542420071288"><ele>11.0</ele><time>2026-05-03T15:39:07.001Z</time></trkpt><trkpt lat="44.05757846430933" lon="12.542398796486426"><ele>11.0</ele><time>2026-05-03T15:39:08.001Z</time></trkpt><trkpt lat="44.05779190927881" lon="12.542376116510995"><ele>11.333333333333332</ele><time>2026-05-03T15:39:09.001Z</time></trkpt><trkpt lat="44.058012606520954" lon="12.54235245329553"><ele>11.666666666666666</ele><time>2026-05-03T15:39:10.001Z</time></trkpt><trkpt lat="44.058230202479635" lon="12.54233199332881"><ele>12.0</ele><time>2026-05-03T15:39:11.001Z</time></trkpt><trkpt lat="44.05844295338179" lon="12.542312823099095"><ele>11.333333333333334</ele><time>2026-05-03T15:39:12.001Z</time></trkpt><trkpt lat="44.058653152388004" lon="12.542288420388413"><ele>10.666666666666668</ele><time>2026-05-03T15:39:13.001Z</time></trkpt><trkpt lat="44.058857183342774" lon="12.542263990038858"><ele>10.0</ele><time>2026-05-03T15:39:14.001Z</time></trkpt><trkpt lat="44.0590592959269" lon="12.542238471330993"><ele>9.333333333333334</ele><time>2026-05-03T15:39:15.001Z</time></trkpt><trkpt lat="44.05925680416055" lon="12.542211185485405"><ele>8.666666666666666</ele><time>2026-05-03T15:39:16.001Z</time></trkpt><trkpt lat="44.059450354399274" lon="12.542186019329499"><ele>8.0</ele><time>2026-05-03T15:39:17.001Z</time></trkpt><trkpt lat="44.059633032101196" lon="12.542164799992259"><ele>8.0</ele><time>2026-05-03T15:39:18.001Z</time></trkpt><trkpt lat="44.05981896272219" lon="12.542143778904922"><ele>8.0</ele><time>2026-05-03T15:39:19.001Z</time></trkpt><trkpt lat="44.05999242291032" lon="12.54212390458608"><ele>8.0</ele><time>2026-05-03T15:39:20.001Z</time></trkpt><trkpt lat="44.0601650911083" lon="12.542101822693613"><ele>8.333333333333332</ele><time>2026-05-03T15:39:21.001Z</time></trkpt><trkpt lat="44.060336964653736" lon="12.54208533023227"><ele>8.666666666666666</ele><time>2026-05-03T15:39:22.001Z</time></trkpt><trkpt lat="44.06050942622276" lon="12.542070535990128"><ele>9.0</ele><time>2026-05-03T15:39:23.001Z</time></trkpt><trkpt lat="44.060676439492454" lon="12.542053371580668"><ele>7.333333333333333</ele><time>2026-05-03T15:39:24.001Z</time></trkpt><trkpt lat="44.060840855788506" lon="12.542035266939111"><ele>5.666666666666666</ele><time>2026-05-03T15:39:25.001Z</time></trkpt><trkpt lat="44.06100321157897" lon="12.542020234350966"><ele>4.0</ele><time>2026-05-03T15:39:26.001Z</time></trkpt><trkpt lat="44.061161990760866" lon="12.541999077298227"><ele>4.0</ele><time>2026-05-03T15:39:27.001Z</time></trkpt><trkpt lat="44.06131716833923" lon="12.541981879528203"><ele>4.0</ele><time>2026-05-03T15:39:28.001Z</time></trkpt><trkpt lat="44.06146670897552" lon="12.541964333725208"><ele>4.0</ele><time>2026-05-03T15:39:29.001Z</time></trkpt><trkpt lat="44.06161251946594" lon="12.54194604901409"><ele>3.75</ele><time>2026-05-03T15:39:30.001Z</time></trkpt><trkpt lat="44.06175718638942" lon="12.541926007773622"><ele>3.5</ele><time>2026-05-03T15:39:31.001Z</time></trkpt><trkpt lat="44.06189315188762" lon="12.541908046628585"><ele>3.25</ele><time>2026-05-03T15:39:32.001Z</time></trkpt><trkpt lat="44.06203105140041" lon="12.541892338530573"><ele>3.0</ele><time>2026-05-03T15:39:33.001Z</time></trkpt><trkpt lat="44.062156669208996" lon="12.541875365588597"><ele>3.0</ele><time>2026-05-03T15:39:34.001Z</time></trkpt><trkpt lat="44.06227403046098" lon="12.541862034623682"><ele>3.0</ele><time>2026-05-03T15:39:35.001Z</time></trkpt><trkpt lat="44.062392700344006" lon="12.5418503852794"><ele>3.0</ele><time>2026-05-03T15:39:36.001Z</time></trkpt><trkpt lat="44.062517867794966" lon="12.541838844440415"><ele>3.0</ele><time>2026-05-03T15:39:37.001Z</time></trkpt><trkpt lat="44.06264708868876" lon="12.541824220755903"><ele>3.5</ele><time>2026-05-03T15:39:38.001Z</time></trkpt><trkpt lat="44.06277975399807" lon="12.54181149514833"><ele>4.0</ele><time>2026-05-03T15:39:39.001Z</time></trkpt><trkpt lat="44.062913704464805" lon="12.541795550995571"><ele>4.5</ele><time>2026-05-03T15:39:40.001Z</time></trkpt><trkpt lat="44.06303758232084" lon="12.541777702646788"><ele>5.0</ele><time>2026-05-03T15:39:41.001Z</time></trkpt><trkpt lat="44.063149650522014" lon="12.541760824005637"><ele>5.0</ele><time>2026-05-03T15:39:42.002Z</time></trkpt><trkpt lat="44.06325520700845" lon="12.541742903236644"><ele>5.0</ele><time>2026-05-03T15:39:43.002Z</time></trkpt><trkpt lat="44.063349947611336" lon="12.541719706370793"><ele>5.0</ele><time>2026-05-03T15:39:44.002Z</time></trkpt><trkpt lat="44.06344078339092" lon="12.541693050381943"><ele>5.0</ele><time>2026-05-03T15:39:45.002Z</time></trkpt><trkpt lat="44.063526751696415" lon="12.541669295589164"><ele>5.0</ele><time>2026-05-03T15:39:46.002Z</time></trkpt><trkpt lat="44.06361190512238" lon="12.541652478715635"><ele>5.2</ele><time>2026-05-03T15:39:47.002Z</time></trkpt><trkpt lat="44.06371283752746" lon="12.541636952575628"><ele>5.4</ele><time>2026-05-03T15:39:48.002Z</time></trkpt><trkpt lat="44.06382622389413" lon="12.541633820595225"><ele>5.6</ele><time>2026-05-03T15:39:49.002Z</time></trkpt><trkpt lat="44.06394037647493" lon="12.54164867608789"><ele>5.8</ele><time>2026-05-03T15:39:50.002Z</time></trkpt><trkpt lat="44.064048895224225" lon="12.541645718326679"><ele>6.0</ele><time>2026-05-03T15:39:51.002Z</time></trkpt><trkpt lat="44.06415913411749" lon="12.541612381030829"><ele>6.25</ele><time>2026-05-03T15:39:52.002Z</time></trkpt><trkpt lat="44.06428130854564" lon="12.541557873367164"><ele>6.5</ele><time>2026-05-03T15:39:53.002Z</time></trkpt><trkpt lat="44.064407439336044" lon="12.541520884871638"><ele>6.75</ele><time>2026-05-03T15:39:54.002Z</time></trkpt><trkpt lat="44.064544142196226" lon="12.541514265120153"><ele>7.0</ele><time>2026-05-03T15:39:55.002Z</time></trkpt><trkpt lat="44.06468854187422" lon="12.54153779652318"><ele>7.0</ele><time>2026-05-03T15:39:56.002Z</time></trkpt><trkpt lat="44.06483274837131" lon="12.541541839183978"><ele>7.0</ele><time>2026-05-03T15:39:57.002Z</time></trkpt><trkpt lat="44.06498085100026" lon="12.541526645207133"><ele>7.0</ele><time>2026-05-03T15:39:58.002Z</time></trkpt><trkpt lat="44.065130182850986" lon="12.541508634750262"><ele>7.0</ele><time>2026-05-03T15:39:59.002Z</time></trkpt><trkpt lat="44.06528451069339" lon="12.541485888719084"><ele>7.333333333333334</ele><time>2026-05-03T15:40:00.002Z</time></trkpt><trkpt lat="44.065449285317015" lon="12.541457294785529"><ele>7.666666666666666</ele><time>2026-05-03T15:40:01.002Z</time></trkpt><trkpt lat="44.06562909835159" lon="12.54142777401207"><ele>8.0</ele><time>2026-05-03T15:40:02.002Z</time></trkpt><trkpt lat="44.06581504807887" lon="12.541405149747504"><ele>8.333333333333332</ele><time>2026-05-03T15:40:03.002Z</time></trkpt><trkpt lat="44.066008983589654" lon="12.541379583742495"><ele>8.666666666666666</ele><time>2026-05-03T15:40:04.002Z</time></trkpt><trkpt lat="44.066203596417985" lon="12.54135549379252"><ele>9.0</ele><time>2026-05-03T15:40:05.002Z</time></trkpt><trkpt lat="44.06639237137479" lon="12.541334706174078"><ele>9.0</ele><time>2026-05-03T15:40:06.002Z</time></trkpt><trkpt lat="44.06657769672725" lon="12.541310975241213"><ele>9.0</ele><time>2026-05-03T15:40:07.002Z</time></trkpt><trkpt lat="44.0667672346899" lon="12.541285081320316"><ele>9.0</ele><time>2026-05-03T15:40:08.002Z</time></trkpt><trkpt lat="44.066960259685885" lon="12.541265415275449"><ele>9.0</ele><time>2026-05-03T15:40:09.002Z</time></trkpt><trkpt lat="44.06715099831864" lon="12.541242252356314"><ele>9.0</ele><time>2026-05-03T15:40:10.002Z</time></trkpt><trkpt lat="44.067348496692226" lon="12.54121805631448"><ele>9.0</ele><time>2026-05-03T15:40:11.002Z</time></trkpt><trkpt lat="44.067547953779794" lon="12.54119617698558"><ele>8.333333333333334</ele><time>2026-05-03T15:40:12.002Z</time></trkpt><trkpt lat="44.06774982839576" lon="12.541174290818118"><ele>7.666666666666667</ele><time>2026-05-03T15:40:13.002Z</time></trkpt><trkpt lat="44.06795490817238" lon="12.541157663713644"><ele>7.0</ele><time>2026-05-03T15:40:14.002Z</time></trkpt><trkpt lat="44.06815693446412" lon="12.541137818890592"><ele>7.333333333333334</ele><time>2026-05-03T15:40:15.002Z</time></trkpt><trkpt lat="44.068358684586904" lon="12.54111500705199"><ele>7.666666666666666</ele><time>2026-05-03T15:40:16.002Z</time></trkpt><trkpt lat="44.06856060002567" lon="12.541093646889038"><ele>8.0</ele><time>2026-05-03T15:40:17.002Z</time></trkpt><trkpt lat="44.06875534646648" lon="12.541069361609171"><ele>8.0</ele><time>2026-05-03T15:40:18.003Z</time></trkpt><trkpt lat="44.06895081277352" lon="12.541043016002602"><ele>8.0</ele><time>2026-05-03T15:40:19.003Z</time></trkpt><trkpt lat="44.069152375220874" lon="12.54100973682794"><ele>8.0</ele><time>2026-05-03T15:40:20.003Z</time></trkpt><trkpt lat="44.06934867104196" lon="12.540970394937572"><ele>7.666666666666666</ele><time>2026-05-03T15:40:21.003Z</time></trkpt><trkpt lat="44.06954745589353" lon="12.540919324172524"><ele>7.333333333333334</ele><time>2026-05-03T15:40:22.003Z</time></trkpt><trkpt lat="44.06974524613361" lon="12.540861695127541"><ele>7.0</ele><time>2026-05-03T15:40:23.003Z</time></trkpt><trkpt lat="44.06994683198714" lon="12.540799588145251"><ele>7.666666666666667</ele><time>2026-05-03T15:40:24.003Z</time></trkpt><trkpt lat="44.070144964006815" lon="12.540736846856252"><ele>8.333333333333334</ele><time>2026-05-03T15:40:25.003Z</time></trkpt><trkpt lat="44.07034207355341" lon="12.54066639910919"><ele>9.0</ele><time>2026-05-03T15:40:26.003Z</time></trkpt><trkpt lat="44.070542297577965" lon="12.54059059244268"><ele>9.0</ele><time>2026-05-03T15:40:27.003Z</time></trkpt><trkpt lat="44.07074037721926" lon="12.540505880297033"><ele>9.0</ele><time>2026-05-03T15:40:28.003Z</time></trkpt><trkpt lat="44.07093941138798" lon="12.540415853897224"><ele>9.0</ele><time>2026-05-03T15:40:29.003Z</time></trkpt><trkpt lat="44.07113874127612" lon="12.540316318511627"><ele>8.666666666666666</ele><time>2026-05-03T15:40:30.003Z</time></trkpt><trkpt lat="44.07133526913574" lon="12.540215487690888"><ele>8.333333333333332</ele><time>2026-05-03T15:40:31Z</time></trkpt><trkpt lat="44.07152774584753" lon="12.540113328816437"><ele>8.0</ele><time>2026-05-03T15:40:32Z</time></trkpt><trkpt lat="44.07171309903623" lon="12.54000325388506"><ele>7.666666666666666</ele><time>2026-05-03T15:40:33Z</time></trkpt><trkpt lat="44.071898864136955" lon="12.539885423439285"><ele>7.333333333333334</ele><time>2026-05-03T15:40:34Z</time></trkpt><trkpt lat="44.07208903522221" lon="12.539762658747351"><ele>7.0</ele><time>2026-05-03T15:40:35Z</time></trkpt><trkpt lat="44.07228407754672" lon="12.539632945244676"><ele>7.0</ele><time>2026-05-03T15:40:36Z</time></trkpt><trkpt lat="44.07247846360693" lon="12.53949467458029"><ele>7.0</ele><time>2026-05-03T15:40:37Z</time></trkpt><trkpt lat="44.072671510731475" lon="12.539349174971008"><ele>7.0</ele><time>2026-05-03T15:40:38Z</time></trkpt><trkpt lat="44.0728625301993" lon="12.539196910482428"><ele>7.0</ele><time>2026-05-03T15:40:39Z</time></trkpt><trkpt lat="44.073048118664126" lon="12.539037780590135"><ele>7.0</ele><time>2026-05-03T15:40:40Z</time></trkpt><trkpt lat="44.07323326722734" lon="12.538872942616695"><ele>7.0</ele><time>2026-05-03T15:40:41Z</time></trkpt><trkpt lat="44.07341772045277" lon="12.538713615295135"><ele>7.0</ele><time>2026-05-03T15:40:42Z</time></trkpt><trkpt lat="44.0735992572991" lon="12.53854379102994"><ele>7.0</ele><time>2026-05-03T15:40:43Z</time></trkpt><trkpt lat="44.073771553538656" lon="12.538365821607602"><ele>7.0</ele><time>2026-05-03T15:40:44Z</time></trkpt><trkpt lat="44.07393646499858" lon="12.538188567499608"><ele>7.0</ele><time>2026-05-03T15:40:45Z</time></trkpt><trkpt lat="44.07409435162455" lon="12.538011533210074"><ele>7.0</ele><time>2026-05-03T15:40:46Z</time></trkpt><trkpt lat="44.074247420213915" lon="12.537833660278169"><ele>7.0</ele><time>2026-05-03T15:40:47Z</time></trkpt><trkpt lat="44.07439981665317" lon="12.537653710159761"><ele>6.666666666666667</ele><time>2026-05-03T15:40:48Z</time></trkpt><trkpt lat="44.07455186638453" lon="12.537469360455814"><ele>6.333333333333334</ele><time>2026-05-03T15:40:49Z</time></trkpt><trkpt lat="44.074698180977904" lon="12.537280237681667"><ele>6.0</ele><time>2026-05-03T15:40:50Z</time></trkpt><trkpt lat="44.0748434732684" lon="12.537081895851797"><ele>6.333333333333334</ele><time>2026-05-03T15:40:51Z</time></trkpt><trkpt lat="44.07498538057682" lon="12.536881160083984"><ele>6.666666666666667</ele><time>2026-05-03T15:40:52Z</time></trkpt><trkpt lat="44.07512378206652" lon="12.536681689222673"><ele>7.0</ele><time>2026-05-03T15:40:53Z</time></trkpt><trkpt lat="44.07526077523221" lon="12.536472132522253"><ele>7.0</ele><time>2026-05-03T15:40:54Z</time></trkpt><trkpt lat="44.07538969347832" lon="12.53626433265501"><ele>7.0</ele><time>2026-05-03T15:40:55Z</time></trkpt><trkpt lat="44.07551952943635" lon="12.536048347972988"><ele>7.0</ele><time>2026-05-03T15:40:56Z</time></trkpt><trkpt lat="44.07564729798172" lon="12.535836817393163"><ele>7.333333333333334</ele><time>2026-05-03T15:40:57Z</time></trkpt><trkpt lat="44.0757790588085" lon="12.535621342681663"><ele>7.666666666666666</ele><time>2026-05-03T15:40:58Z</time></trkpt><trkpt lat="44.075913429798504" lon="12.535404706448205"><ele>8.0</ele><time>2026-05-03T15:40:59Z</time></trkpt><trkpt lat="44.076042688729544" lon="12.535178901012324"><ele>8.0</ele><time>2026-05-03T15:41:00Z</time></trkpt><trkpt lat="44.076176859137064" lon="12.53495323800561"><ele>8.0</ele><time>2026-05-03T15:41:01Z</time></trkpt><trkpt lat="44.0763138731454" lon="12.534733971481058"><ele>8.0</ele><time>2026-05-03T15:41:02Z</time></trkpt><trkpt lat="44.07644710138579" lon="12.534514607908477"><ele>8.0</ele><time>2026-05-03T15:41:03Z</time></trkpt><trkpt lat="44.07657638070023" lon="12.534286386128068"><ele>8.0</ele><time>2026-05-03T15:41:04Z</time></trkpt><trkpt lat="44.07670972147401" lon="12.534065923141616"><ele>8.0</ele><time>2026-05-03T15:41:05Z</time></trkpt><trkpt lat="44.076839736549715" lon="12.533852232859786"><ele>7.0</ele><time>2026-05-03T15:41:06Z</time></trkpt><trkpt lat="44.07696933951188" lon="12.533636934479697"><ele>6.0</ele><time>2026-05-03T15:41:07Z</time></trkpt><trkpt lat="44.07709637788381" lon="12.533426948234313"><ele>5.0</ele><time>2026-05-03T15:41:08.001Z</time></trkpt><trkpt lat="44.07722268859783" lon="12.5332143299902"><ele>5.0</ele><time>2026-05-03T15:41:09.001Z</time></trkpt><trkpt lat="44.07735060276323" lon="12.533000683287527"><ele>5.0</ele><time>2026-05-03T15:41:10.001Z</time></trkpt><trkpt lat="44.07747459469275" lon="12.532784509609153"><ele>5.0</ele><time>2026-05-03T15:41:11.001Z</time></trkpt><trkpt lat="44.07759993751895" lon="12.532567597415948"><ele>6.333333333333334</ele><time>2026-05-03T15:41:12.001Z</time></trkpt><trkpt lat="44.07772600514594" lon="12.532349205223342"><ele>7.666666666666667</ele><time>2026-05-03T15:41:13.001Z</time></trkpt><trkpt lat="44.07786053634271" lon="12.532128539364752"><ele>9.0</ele><time>2026-05-03T15:41:14.001Z</time></trkpt><trkpt lat="44.07799625724248" lon="12.531900747025833"><ele>9.333333333333334</ele><time>2026-05-03T15:41:15.001Z</time></trkpt><trkpt lat="44.07812722892113" lon="12.531667616682087"><ele>9.666666666666668</ele><time>2026-05-03T15:41:16.001Z</time></trkpt><trkpt lat="44.078254995861464" lon="12.531432318292703"><ele>10.0</ele><time>2026-05-03T15:41:17.001Z</time></trkpt><trkpt lat="44.07838568056792" lon="12.531200628359333"><ele>9.0</ele><time>2026-05-03T15:41:18.001Z</time></trkpt><trkpt lat="44.07852224276308" lon="12.530961623676742"><ele>8.0</ele><time>2026-05-03T15:41:19.001Z</time></trkpt><trkpt lat="44.07866711528156" lon="12.53070484923173"><ele>8.0</ele><time>2026-05-03T15:41:20.001Z</time></trkpt><trkpt lat="44.078822645433206" lon="12.530431523004138"><ele>8.0</ele><time>2026-05-03T15:41:21.001Z</time></trkpt><trkpt lat="44.078963085236175" lon="12.530191733449977"><ele>8.0</ele><time>2026-05-03T15:41:22.001Z</time></trkpt><trkpt lat="44.07909520194419" lon="12.529960491556421"><ele>8.0</ele><time>2026-05-03T15:41:23.001Z</time></trkpt><trkpt lat="44.07922504073324" lon="12.529731677428568"><ele>8.0</ele><time>2026-05-03T15:41:24.001Z</time></trkpt><trkpt lat="44.0793565889697" lon="12.529497604662875"><ele>8.333333333333332</ele><time>2026-05-03T15:41:25.001Z</time></trkpt><trkpt lat="44.079488883690786" lon="12.52926458412864"><ele>8.666666666666666</ele><time>2026-05-03T15:41:26.001Z</time></trkpt><trkpt lat="44.07961734665556" lon="12.529036537644295"><ele>9.0</ele><time>2026-05-03T15:41:27.001Z</time></trkpt><trkpt lat="44.07974231539076" lon="12.528807951622271"><ele>9.333333333333334</ele><time>2026-05-03T15:41:28.001Z</time></trkpt><trkpt lat="44.07986311776368" lon="12.528586245762323"><ele>9.666666666666668</ele><time>2026-05-03T15:41:29.001Z</time></trkpt><trkpt lat="44.07998473754884" lon="12.528360372818199"><ele>10.0</ele><time>2026-05-03T15:41:30.001Z</time></trkpt><trkpt lat="44.08010480381907" lon="12.528122705552914"><ele>10.0</ele><time>2026-05-03T15:41:31.001Z</time></trkpt><trkpt lat="44.08021585898093" lon="12.527884594398877"><ele>10.0</ele><time>2026-05-03T15:41:32.001Z</time></trkpt><trkpt lat="44.08032790864186" lon="12.527646849834042"><ele>10.0</ele><time>2026-05-03T15:41:33.001Z</time></trkpt><trkpt lat="44.080443046734665" lon="12.527402031481177"><ele>10.0</ele><time>2026-05-03T15:41:34.001Z</time></trkpt><trkpt lat="44.080558815920476" lon="12.527162094633189"><ele>10.0</ele><time>2026-05-03T15:41:35.001Z</time></trkpt><trkpt lat="44.08067630738087" lon="12.526915203985608"><ele>10.0</ele><time>2026-05-03T15:41:36.001Z</time></trkpt><trkpt lat="44.080793761891336" lon="12.526667209491018"><ele>9.333333333333334</ele><time>2026-05-03T15:41:37.001Z</time></trkpt><trkpt lat="44.08090860408334" lon="12.526419259587122"><ele>8.666666666666666</ele><time>2026-05-03T15:41:38.001Z</time></trkpt><trkpt lat="44.08102382588987" lon="12.526174511448938"><ele>8.0</ele><time>2026-05-03T15:41:39.001Z</time></trkpt><trkpt lat="44.081142506873675" lon="12.525926925212419"><ele>8.0</ele><time>2026-05-03T15:41:40.001Z</time></trkpt><trkpt lat="44.08125804834521" lon="12.525685633862928"><ele>8.0</ele><time>2026-05-03T15:41:41.001Z</time></trkpt><trkpt lat="44.0813730501399" lon="12.525438880442913"><ele>8.0</ele><time>2026-05-03T15:41:42.001Z</time></trkpt><trkpt lat="44.08148812411859" lon="12.525195939205261"><ele>8.333333333333332</ele><time>2026-05-03T15:41:43.001Z</time></trkpt><trkpt lat="44.08160181887345" lon="12.524959738218628"><ele>8.666666666666666</ele><time>2026-05-03T15:41:44.002Z</time></trkpt><trkpt lat="44.08171535031787" lon="12.524724056838407"><ele>9.0</ele><time>2026-05-03T15:41:45.002Z</time></trkpt><trkpt lat="44.08182530699343" lon="12.524491383706582"><ele>9.0</ele><time>2026-05-03T15:41:46.002Z</time></trkpt><trkpt lat="44.08193891209119" lon="12.524254506391543"><ele>9.0</ele><time>2026-05-03T15:41:47.002Z</time></trkpt><trkpt lat="44.08205369677017" lon="12.524017948023861"><ele>9.0</ele><time>2026-05-03T15:41:48.002Z</time></trkpt><trkpt lat="44.082168763676535" lon="12.523782764543013"><ele>8.666666666666666</ele><time>2026-05-03T15:41:49.002Z</time></trkpt><trkpt lat="44.082289183062535" lon="12.523546163494132"><ele>8.333333333333332</ele><time>2026-05-03T15:41:50.002Z</time></trkpt><trkpt lat="44.08241413682408" lon="12.523316765032098"><ele>8.0</ele><time>2026-05-03T15:41:51.002Z</time></trkpt><trkpt lat="44.08254721635123" lon="12.523096879956146"><ele>8.333333333333332</ele><time>2026-05-03T15:41:52.002Z</time></trkpt><trkpt lat="44.08269033277072" lon="12.52288241338355"><ele>8.666666666666666</ele><time>2026-05-03T15:41:53.002Z</time></trkpt><trkpt lat="44.082842915853604" lon="12.52267844356516"><ele>9.0</ele><time>2026-05-03T15:41:54.002Z</time></trkpt><trkpt lat="44.083004575653284" lon="12.522486726679796"><ele>9.0</ele><time>2026-05-03T15:41:55.002Z</time></trkpt><trkpt lat="44.083172424332886" lon="12.522303701339387"><ele>9.0</ele><time>2026-05-03T15:41:56.002Z</time></trkpt><trkpt lat="44.08334592318615" lon="12.522128912405114"><ele>9.0</ele><time>2026-05-03T15:41:57.002Z</time></trkpt><trkpt lat="44.08352681310662" lon="12.521956040199948"><ele>9.0</ele><time>2026-05-03T15:41:58.002Z</time></trkpt><trkpt lat="44.08370870823086" lon="12.521792112550422"><ele>9.0</ele><time>2026-05-03T15:41:59.002Z</time></trkpt><trkpt lat="44.083884893205386" lon="12.521623940867684"><ele>9.0</ele><time>2026-05-03T15:42:00.002Z</time></trkpt><trkpt lat="44.08405991363178" lon="12.521447330965056"><ele>9.333333333333334</ele><time>2026-05-03T15:42:01.002Z</time></trkpt><trkpt lat="44.08423440835903" lon="12.521273063597842"><ele>9.666666666666668</ele><time>2026-05-03T15:42:02.002Z</time></trkpt><trkpt lat="44.08440600707433" lon="12.521113226218976"><ele>10.0</ele><time>2026-05-03T15:42:03.002Z</time></trkpt><trkpt lat="44.084573604246245" lon="12.520949965262883"><ele>10.0</ele><time>2026-05-03T15:42:04.002Z</time></trkpt><trkpt lat="44.08474129663154" lon="12.520788051792183"><ele>10.0</ele><time>2026-05-03T15:42:05.002Z</time></trkpt><trkpt lat="44.084905551647715" lon="12.520626342226999"><ele>10.0</ele><time>2026-05-03T15:42:06.002Z</time></trkpt><trkpt lat="44.08506830941" lon="12.520468198640174"><ele>10.0</ele><time>2026-05-03T15:42:07.002Z</time></trkpt><trkpt lat="44.08523224386408" lon="12.52030635221669"><ele>10.0</ele><time>2026-05-03T15:42:08.002Z</time></trkpt><trkpt lat="44.08538881120053" lon="12.520138264993964"><ele>10.0</ele><time>2026-05-03T15:42:09.002Z</time></trkpt><trkpt lat="44.085541736823906" lon="12.51996190627901"><ele>10.0</ele><time>2026-05-03T15:42:10.002Z</time></trkpt><trkpt lat="44.08568802887204" lon="12.519773634755644"><ele>10.0</ele><time>2026-05-03T15:42:11.002Z</time></trkpt><trkpt lat="44.08581933264757" lon="12.519577269807131"><ele>10.0</ele><time>2026-05-03T15:42:12.002Z</time></trkpt><trkpt lat="44.08594046616387" lon="12.519374302411752"><ele>10.333333333333334</ele><time>2026-05-03T15:42:13.002Z</time></trkpt><trkpt lat="44.086060502233806" lon="12.519162137143098"><ele>10.666666666666666</ele><time>2026-05-03T15:42:14.002Z</time></trkpt><trkpt lat="44.086182115905316" lon="12.51894586325424"><ele>11.0</ele><time>2026-05-03T15:42:15.002Z</time></trkpt><trkpt lat="44.08630841979396" lon="12.518729643788548"><ele>11.0</ele><time>2026-05-03T15:42:16.002Z</time></trkpt><trkpt lat="44.086434176540344" lon="12.518515605611075"><ele>11.0</ele><time>2026-05-03T15:42:17.002Z</time></trkpt><trkpt lat="44.086559982262735" lon="12.518298565997902"><ele>11.0</ele><time>2026-05-03T15:42:18.002Z</time></trkpt><trkpt lat="44.08668513708026" lon="12.518082266215474"><ele>11.0</ele><time>2026-05-03T15:42:19.003Z</time></trkpt><trkpt lat="44.086812613683776" lon="12.517866416257737"><ele>11.0</ele><time>2026-05-03T15:42:20.003Z</time></trkpt><trkpt lat="44.08694208108693" lon="12.517646560974963"><ele>11.0</ele><time>2026-05-03T15:42:21.003Z</time></trkpt><trkpt lat="44.087070450315025" lon="12.517437920618423"><ele>11.0</ele><time>2026-05-03T15:42:22.003Z</time></trkpt><trkpt lat="44.08719670734888" lon="12.517230947335541"><ele>11.0</ele><time>2026-05-03T15:42:23.003Z</time></trkpt><trkpt lat="44.08732366426303" lon="12.517025777050959"><ele>11.0</ele><time>2026-05-03T15:42:24.003Z</time></trkpt><trkpt lat="44.08744463486375" lon="12.51683210211378"><ele>11.333333333333332</ele><time>2026-05-03T15:42:25.003Z</time></trkpt><trkpt lat="44.08755591059834" lon="12.5166487632538"><ele>11.666666666666666</ele><time>2026-05-03T15:42:26.003Z</time></trkpt><trkpt lat="44.087661369829576" lon="12.516480816595996"><ele>12.0</ele><time>2026-05-03T15:42:27.003Z</time></trkpt><trkpt lat="44.08776418775028" lon="12.51631363635176"><ele>11.333333333333334</ele><time>2026-05-03T15:42:28.003Z</time></trkpt><trkpt lat="44.08786893120042" lon="12.516145366696502"><ele>10.666666666666668</ele><time>2026-05-03T15:42:29.003Z</time></trkpt><trkpt lat="44.087974829702716" lon="12.515975315103985"><ele>10.0</ele><time>2026-05-03T15:42:30.003Z</time></trkpt><trkpt lat="44.08808139290693" lon="12.515797131378807"><ele>10.0</ele><time>2026-05-03T15:42:31.003Z</time></trkpt><trkpt lat="44.08818905940534" lon="12.515629079099845"><ele>10.0</ele><time>2026-05-03T15:42:32.003Z</time></trkpt><trkpt lat="44.08828655172553" lon="12.515463744944"><ele>10.0</ele><time>2026-05-03T15:42:33.003Z</time></trkpt><trkpt lat="44.088386662348775" lon="12.515300814073496"><ele>10.0</ele><time>2026-05-03T15:42:34.003Z</time></trkpt><trkpt lat="44.0884856537342" lon="12.51514373661422"><ele>10.0</ele><time>2026-05-03T15:42:35.003Z</time></trkpt><trkpt lat="44.08858512300431" lon="12.514988330360538"><ele>10.0</ele><time>2026-05-03T15:42:36.003Z</time></trkpt><trkpt lat="44.08868058927795" lon="12.514828989664995"><ele>10.0</ele><time>2026-05-03T15:42:37Z</time></trkpt><trkpt lat="44.08877432438168" lon="12.514671087724562"><ele>10.0</ele><time>2026-05-03T15:42:38Z</time></trkpt><trkpt lat="44.08887263094499" lon="12.514512649111602"><ele>10.0</ele><time>2026-05-03T15:42:39Z</time></trkpt><trkpt lat="44.08896667312184" lon="12.51436372451842"><ele>10.0</ele><time>2026-05-03T15:42:40Z</time></trkpt><trkpt lat="44.08905232478994" lon="12.514225628855096"><ele>10.0</ele><time>2026-05-03T15:42:41Z</time></trkpt><trkpt lat="44.08914429194477" lon="12.514082274931525"><ele>10.0</ele><time>2026-05-03T15:42:42Z</time></trkpt><trkpt lat="44.08923409274102" lon="12.513933839691166"><ele>10.0</ele><time>2026-05-03T15:42:43Z</time></trkpt><trkpt lat="44.08932012019789" lon="12.513796945964817"><ele>10.0</ele><time>2026-05-03T15:42:44Z</time></trkpt><trkpt lat="44.08940143461492" lon="12.51366386677649"><ele>10.0</ele><time>2026-05-03T15:42:45Z</time></trkpt><trkpt lat="44.089487917521296" lon="12.513523715844025"><ele>10.0</ele><time>2026-05-03T15:42:46Z</time></trkpt><trkpt lat="44.08957641154727" lon="12.513379745921696"><ele>10.0</ele><time>2026-05-03T15:42:47Z</time></trkpt><trkpt lat="44.08966629499792" lon="12.513238164709325"><ele>10.0</ele><time>2026-05-03T15:42:48Z</time></trkpt><trkpt lat="44.08974908754363" lon="12.513106825895655"><ele>10.0</ele><time>2026-05-03T15:42:49Z</time></trkpt><trkpt lat="44.08983018547935" lon="12.512973354723202"><ele>10.25</ele><time>2026-05-03T15:42:50Z</time></trkpt><trkpt lat="44.08991223357238" lon="12.512837430817259"><ele>10.5</ele><time>2026-05-03T15:42:51Z</time></trkpt><trkpt lat="44.089998394634186" lon="12.512698998830402"><ele>10.75</ele><time>2026-05-03T15:42:52Z</time></trkpt><trkpt lat="44.090082205685306" lon="12.512559799304817"><ele>11.0</ele><time>2026-05-03T15:42:53Z</time></trkpt><trkpt lat="44.090167104236784" lon="12.51241624016746"><ele>11.0</ele><time>2026-05-03T15:42:54Z</time></trkpt><trkpt lat="44.09024967842809" lon="12.512275510253804"><ele>11.0</ele><time>2026-05-03T15:42:55Z</time></trkpt><trkpt lat="44.090327902614625" lon="12.51214741129045"><ele>11.0</ele><time>2026-05-03T15:42:56Z</time></trkpt><trkpt lat="44.09040231687668" lon="12.512029813741359"><ele>11.0</ele><time>2026-05-03T15:42:57Z</time></trkpt><trkpt lat="44.09047525515017" lon="12.511912462919076"><ele>11.0</ele><time>2026-05-03T15:42:58Z</time></trkpt><trkpt lat="44.09055249304328" lon="12.511785764183582"><ele>11.0</ele><time>2026-05-03T15:42:59.001Z</time></trkpt><trkpt lat="44.090633098403046" lon="12.511654577135547"><ele>11.0</ele><time>2026-05-03T15:43:00.001Z</time></trkpt><trkpt lat="44.0907140713147" lon="12.511522000285478"><ele>11.0</ele><time>2026-05-03T15:43:01.001Z</time></trkpt><trkpt lat="44.0907922676271" lon="12.51139704219562"><ele>11.0</ele><time>2026-05-03T15:43:02.001Z</time></trkpt><trkpt lat="44.0908690001633" lon="12.511275123131965"><ele>11.0</ele><time>2026-05-03T15:43:03.001Z</time></trkpt><trkpt lat="44.090949696780335" lon="12.511146008087374"><ele>11.0</ele><time>2026-05-03T15:43:04.001Z</time></trkpt><trkpt lat="44.09103605561829" lon="12.511007906109894"><ele>11.0</ele><time>2026-05-03T15:43:05.001Z</time></trkpt><trkpt lat="44.09111707261868" lon="12.510876350938904"><ele>10.8</ele><time>2026-05-03T15:43:06.001Z</time></trkpt><trkpt lat="44.09119316457782" lon="12.510766466543856"><ele>10.600000000000001</ele><time>2026-05-03T15:43:07.001Z</time></trkpt><trkpt lat="44.091266754239804" lon="12.510657820148843"><ele>10.4</ele><time>2026-05-03T15:43:08.001Z</time></trkpt><trkpt lat="44.09134195073077" lon="12.510544360067636"><ele>10.2</ele><time>2026-05-03T15:43:09.001Z</time></trkpt><trkpt lat="44.0914174381692" lon="12.510440337535766"><ele>10.0</ele><time>2026-05-03T15:43:10.001Z</time></trkpt><trkpt lat="44.091494907959984" lon="12.51036851456666"><ele>10.0</ele><time>2026-05-03T15:43:11.001Z</time></trkpt><trkpt lat="44.09155635288506" lon="12.510294506699626"><ele>10.0</ele><time>2026-05-03T15:43:12.001Z</time></trkpt><trkpt lat="44.09160560631752" lon="12.510225869471702"><ele>10.0</ele><time>2026-05-03T15:43:13.001Z</time></trkpt><trkpt lat="44.0916700287587" lon="12.510173997219118"><ele>10.0</ele><time>2026-05-03T15:43:14.001Z</time></trkpt><trkpt lat="44.091754072611465" lon="12.510129594567347"><ele>10.0</ele><time>2026-05-03T15:43:15.001Z</time></trkpt><trkpt lat="44.091856254201836" lon="12.510123925270722"><ele>10.0</ele><time>2026-05-03T15:43:16.001Z</time></trkpt><trkpt lat="44.09196609542434" lon="12.510104645126788"><ele>10.0</ele><time>2026-05-03T15:43:17.001Z</time></trkpt><trkpt lat="44.0920543905322" lon="12.510030529461371"><ele>10.0</ele><time>2026-05-03T15:43:18.001Z</time></trkpt><trkpt lat="44.09210542767528" lon="12.509916442530379"><ele>10.0</ele><time>2026-05-03T15:43:19.001Z</time></trkpt><trkpt lat="44.09212291543009" lon="12.509778756813667"><ele>10.0</ele><time>2026-05-03T15:43:20.001Z</time></trkpt><trkpt lat="44.0921222041847" lon="12.509625684087895"><ele>10.0</ele><time>2026-05-03T15:43:21.001Z</time></trkpt><trkpt lat="44.09212826943718" lon="12.509456921975506"><ele>9.5</ele><time>2026-05-03T15:43:22.001Z</time></trkpt><trkpt lat="44.09215408023008" lon="12.50927622171527"><ele>9.0</ele><time>2026-05-03T15:43:23.001Z</time></trkpt><trkpt lat="44.09220004399823" lon="12.509096546304859"><ele>8.5</ele><time>2026-05-03T15:43:24.001Z</time></trkpt><trkpt lat="44.092273556046315" lon="12.508922555415218"><ele>8.0</ele><time>2026-05-03T15:43:25.001Z</time></trkpt><trkpt lat="44.092352745065355" lon="12.5087770278156"><ele>8.25</ele><time>2026-05-03T15:43:26.001Z</time></trkpt><trkpt lat="44.092435926471104" lon="12.508653296023171"><ele>8.5</ele><time>2026-05-03T15:43:27.001Z</time></trkpt><trkpt lat="44.092519735927276" lon="12.508524964622655"><ele>8.75</ele><time>2026-05-03T15:43:28.001Z</time></trkpt><trkpt lat="44.092602505987074" lon="12.50838618060157"><ele>9.0</ele><time>2026-05-03T15:43:29.001Z</time></trkpt><trkpt lat="44.092686185909535" lon="12.508236952033197"><ele>9.0</ele><time>2026-05-03T15:43:30.001Z</time></trkpt><trkpt lat="44.092771413865826" lon="12.50809005144303"><ele>9.0</ele><time>2026-05-03T15:43:31.001Z</time></trkpt><trkpt lat="44.092855072265266" lon="12.507952584214436"><ele>9.0</ele><time>2026-05-03T15:43:32.001Z</time></trkpt><trkpt lat="44.09294235449458" lon="12.5078124233947"><ele>9.0</ele><time>2026-05-03T15:43:33.001Z</time></trkpt><trkpt lat="44.09302800544344" lon="12.507673353684892"><ele>9.25</ele><time>2026-05-03T15:43:34.001Z</time></trkpt><trkpt lat="44.09311315441371" lon="12.507530555608017"><ele>9.5</ele><time>2026-05-03T15:43:35.001Z</time></trkpt><trkpt lat="44.09320179821013" lon="12.507391106913909"><ele>9.75</ele><time>2026-05-03T15:43:36.001Z</time></trkpt><trkpt lat="44.09329078883005" lon="12.507245909642505"><ele>10.0</ele><time>2026-05-03T15:43:37.001Z</time></trkpt><trkpt lat="44.093378188669206" lon="12.507101824639392"><ele>9.75</ele><time>2026-05-03T15:43:38.001Z</time></trkpt><trkpt lat="44.09346589639037" lon="12.506958016389037"><ele>9.5</ele><time>2026-05-03T15:43:39.002Z</time></trkpt><trkpt lat="44.09355591856822" lon="12.506815486922752"><ele>9.25</ele><time>2026-05-03T15:43:40.002Z</time></trkpt><trkpt lat="44.09364474274514" lon="12.506670711602139"><ele>9.0</ele><time>2026-05-03T15:43:41.002Z</time></trkpt><trkpt lat="44.09373392079464" lon="12.506521495837971"><ele>9.0</ele><time>2026-05-03T15:43:42.002Z</time></trkpt><trkpt lat="44.093819999673286" lon="12.50638393689335"><ele>9.0</ele><time>2026-05-03T15:43:43.002Z</time></trkpt><trkpt lat="44.09390194127446" lon="12.506255236258744"><ele>9.0</ele><time>2026-05-03T15:43:44.002Z</time></trkpt><trkpt lat="44.09397471066838" lon="12.506136223758356"><ele>9.0</ele><time>2026-05-03T15:43:45.002Z</time></trkpt><trkpt lat="44.094043821850555" lon="12.506022333755855"><ele>8.75</ele><time>2026-05-03T15:43:46.002Z</time></trkpt><trkpt lat="44.09411508698306" lon="12.505904403052428"><ele>8.5</ele><time>2026-05-03T15:43:47.002Z</time></trkpt><trkpt lat="44.09419272690838" lon="12.50578044649301"><ele>8.25</ele><time>2026-05-03T15:43:48.002Z</time></trkpt><trkpt lat="44.094271567847834" lon="12.50565178797923"><ele>8.0</ele><time>2026-05-03T15:43:49.002Z</time></trkpt><trkpt lat="44.09435381700291" lon="12.505510974439925"><ele>7.75</ele><time>2026-05-03T15:43:50.002Z</time></trkpt><trkpt lat="44.09444200355596" lon="12.5053675998873"><ele>7.5</ele><time>2026-05-03T15:43:51.002Z</time></trkpt><trkpt lat="44.09453456958905" lon="12.5052195613984"><ele>7.25</ele><time>2026-05-03T15:43:52.002Z</time></trkpt><trkpt lat="44.09462357050125" lon="12.505078077414517"><ele>7.0</ele><time>2026-05-03T15:43:53.002Z</time></trkpt><trkpt lat="44.094707440642715" lon="12.504943442814918"><ele>7.0</ele><time>2026-05-03T15:43:54.002Z</time></trkpt><trkpt lat="44.09479061537563" lon="12.504808503658973"><ele>7.0</ele><time>2026-05-03T15:43:55.002Z</time></trkpt><trkpt lat="44.094876529099146" lon="12.504671020914422"><ele>7.0</ele><time>2026-05-03T15:43:56.002Z</time></trkpt><trkpt lat="44.094968003587965" lon="12.504526802651982"><ele>7.0</ele><time>2026-05-03T15:43:57.002Z</time></trkpt><trkpt lat="44.09506032121951" lon="12.504383137325465"><ele>7.75</ele><time>2026-05-03T15:43:58.002Z</time></trkpt><trkpt lat="44.09515021349302" lon="12.504240065201358"><ele>8.5</ele><time>2026-05-03T15:43:59.002Z</time></trkpt><trkpt lat="44.0952421410799" lon="12.5040956865393"><ele>9.25</ele><time>2026-05-03T15:44:00.002Z</time></trkpt><trkpt lat="44.09532736045223" lon="12.503961921847303"><ele>10.0</ele><time>2026-05-03T15:44:01.002Z</time></trkpt><trkpt lat="44.095403753335674" lon="12.503839569728186"><ele>10.0</ele><time>2026-05-03T15:44:02.002Z</time></trkpt><trkpt lat="44.09547770657283" lon="12.50372165318753"><ele>10.0</ele><time>2026-05-03T15:44:03.002Z</time></trkpt><trkpt lat="44.09555615829376" lon="12.50359974947415"><ele>10.0</ele><time>2026-05-03T15:44:04.002Z</time></trkpt><trkpt lat="44.09563617170135" lon="12.503476594109193"><ele>10.0</ele><time>2026-05-03T15:44:05.002Z</time></trkpt><trkpt lat="44.095716732935465" lon="12.503350864054678"><ele>9.75</ele><time>2026-05-03T15:44:06.002Z</time></trkpt><trkpt lat="44.09579123356565" lon="12.503236551125543"><ele>9.5</ele><time>2026-05-03T15:44:07.002Z</time></trkpt><trkpt lat="44.09586186732568" lon="12.503126649553996"><ele>9.25</ele><time>2026-05-03T15:44:08.002Z</time></trkpt><trkpt lat="44.09594073580666" lon="12.50300802190896"><ele>9.0</ele><time>2026-05-03T15:44:09.002Z</time></trkpt><trkpt lat="44.09602265916946" lon="12.502881796116256"><ele>8.75</ele><time>2026-05-03T15:44:10.002Z</time></trkpt><trkpt lat="44.096104603559354" lon="12.50275589620455"><ele>8.5</ele><time>2026-05-03T15:44:11.002Z</time></trkpt><trkpt lat="44.09618620112853" lon="12.502631304212914"><ele>8.25</ele><time>2026-05-03T15:44:12.002Z</time></trkpt><trkpt lat="44.09626146471844" lon="12.502511166288029"><ele>8.0</ele><time>2026-05-03T15:44:13.002Z</time></trkpt><trkpt lat="44.096340167577154" lon="12.502383060968489"><ele>8.0</ele><time>2026-05-03T15:44:14.002Z</time></trkpt><trkpt lat="44.09642282876941" lon="12.502246464915823"><ele>8.0</ele><time>2026-05-03T15:44:15.002Z</time></trkpt><trkpt lat="44.09650926767575" lon="12.502105714304898"><ele>8.0</ele><time>2026-05-03T15:44:16.003Z</time></trkpt><trkpt lat="44.09659589042593" lon="12.501968014732913"><ele>8.0</ele><time>2026-05-03T15:44:17.003Z</time></trkpt><trkpt lat="44.09667923167873" lon="12.501837396350442"><ele>8.5</ele><time>2026-05-03T15:44:18.003Z</time></trkpt><trkpt lat="44.09675837498422" lon="12.501706243445872"><ele>9.0</ele><time>2026-05-03T15:44:19.003Z</time></trkpt><trkpt lat="44.09683507291536" lon="12.501577980628568"><ele>9.5</ele><time>2026-05-03T15:44:20.003Z</time></trkpt><trkpt lat="44.09691139107094" lon="12.501446816425863"><ele>10.0</ele><time>2026-05-03T15:44:21.003Z</time></trkpt><trkpt lat="44.096992539814906" lon="12.501314251544997"><ele>10.0</ele><time>2026-05-03T15:44:22.003Z</time></trkpt><trkpt lat="44.09707567541061" lon="12.50118112051343"><ele>10.0</ele><time>2026-05-03T15:44:23.003Z</time></trkpt><trkpt lat="44.09715920982164" lon="12.50105199444429"><ele>10.0</ele><time>2026-05-03T15:44:24.003Z</time></trkpt><trkpt lat="44.097237265541764" lon="12.500933645626505"><ele>10.0</ele><time>2026-05-03T15:44:25.003Z</time></trkpt><trkpt lat="44.097316619295235" lon="12.500808222173124"><ele>10.0</ele><time>2026-05-03T15:44:26.003Z</time></trkpt><trkpt lat="44.09739913704607" lon="12.500677918426002"><ele>10.0</ele><time>2026-05-03T15:44:27.003Z</time></trkpt><trkpt lat="44.09762591684861" lon="12.500301813878812"><ele>10.0</ele><time>2026-05-03T15:44:30.003Z</time></trkpt><trkpt lat="44.09769856621804" lon="12.50018517070006"><ele>10.0</ele><time>2026-05-03T15:44:31.003Z</time></trkpt><trkpt lat="44.097764920908" lon="12.500077362277327"><ele>10.0</ele><time>2026-05-03T15:44:32.003Z</time></trkpt><trkpt lat="44.09783268527566" lon="12.499964628208987"><ele>10.0</ele><time>2026-05-03T15:44:33.003Z</time></trkpt><trkpt lat="44.09798399709975" lon="12.499708013658406"><ele>10.0</ele><time>2026-05-03T15:44:35.003Z</time></trkpt><trkpt lat="44.098120749460726" lon="12.499477497386799"><ele>10.0</ele><time>2026-05-03T15:44:37.003Z</time></trkpt><trkpt lat="44.09819391154177" lon="12.499346297852568"><ele>10.0</ele><time>2026-05-03T15:44:38.003Z</time></trkpt><trkpt lat="44.098268467097796" lon="12.499219174526338"><ele>10.0</ele><time>2026-05-03T15:44:39.003Z</time></trkpt><trkpt lat="44.09834625956797" lon="12.499098298082567"><ele>10.0</ele><time>2026-05-03T15:44:40.003Z</time></trkpt><trkpt lat="44.09842680719874" lon="12.498974642951785"><ele>10.0</ele><time>2026-05-03T15:44:41.003Z</time></trkpt><trkpt lat="44.09851167665128" lon="12.498843035945454"><ele>10.0</ele><time>2026-05-03T15:44:42.003Z</time></trkpt><trkpt lat="44.09859317281621" lon="12.498711258799469"><ele>10.0</ele><time>2026-05-03T15:44:42.997Z</time></trkpt><trkpt lat="44.09886869825876" lon="12.498263126024883"><ele>10.0</ele><time>2026-05-03T15:44:45.997Z</time></trkpt><trkpt lat="44.098956639578844" lon="12.4981252253185"><ele>10.0</ele><time>2026-05-03T15:44:46.997Z</time></trkpt><trkpt lat="44.099041126974676" lon="12.497987316633267"><ele>10.0</ele><time>2026-05-03T15:44:47.997Z</time></trkpt><trkpt lat="44.09911991494164" lon="12.497855725285035"><ele>10.0</ele><time>2026-05-03T15:44:48.997Z</time></trkpt><trkpt lat="44.09919446252041" lon="12.497732737342385"><ele>10.0</ele><time>2026-05-03T15:44:49.997Z</time></trkpt><trkpt lat="44.09927410166809" lon="12.497603987247956"><ele>10.0</ele><time>2026-05-03T15:44:50.997Z</time></trkpt><trkpt lat="44.099353188150424" lon="12.497475757191086"><ele>10.0</ele><time>2026-05-03T15:44:51.997Z</time></trkpt><trkpt lat="44.09943508074298" lon="12.497341767613584"><ele>10.0</ele><time>2026-05-03T15:44:52.997Z</time></trkpt><trkpt lat="44.09951911822998" lon="12.497197909215457"><ele>10.0</ele><time>2026-05-03T15:44:53.997Z</time></trkpt><trkpt lat="44.09960639650121" lon="12.497050806166918"><ele>10.0</ele><time>2026-05-03T15:44:54.997Z</time></trkpt><trkpt lat="44.09969564663256" lon="12.496902520850083"><ele>10.0</ele><time>2026-05-03T15:44:55.997Z</time></trkpt><trkpt lat="44.099784740434615" lon="12.496763263524732"><ele>10.0</ele><time>2026-05-03T15:44:56.997Z</time></trkpt><trkpt lat="44.09987144281253" lon="12.49662417114107"><ele>10.0</ele><time>2026-05-03T15:44:57.998Z</time></trkpt><trkpt lat="44.09995626414968" lon="12.496494780696462"><ele>9.75</ele><time>2026-05-03T15:44:58.998Z</time></trkpt><trkpt lat="44.100041065831164" lon="12.496361149508749"><ele>9.5</ele><time>2026-05-03T15:44:59.998Z</time></trkpt><trkpt lat="44.10012373275157" lon="12.496223614727336"><ele>9.25</ele><time>2026-05-03T15:45:00.998Z</time></trkpt><trkpt lat="44.100211993287786" lon="12.49607711988913"><ele>9.0</ele><time>2026-05-03T15:45:01.998Z</time></trkpt><trkpt lat="44.100299147851246" lon="12.495935741681466"><ele>9.0</ele><time>2026-05-03T15:45:02.998Z</time></trkpt><trkpt lat="44.10038644505267" lon="12.495791302837656"><ele>9.0</ele><time>2026-05-03T15:45:03.998Z</time></trkpt><trkpt lat="44.1004771453637" lon="12.495641563041348"><ele>9.0</ele><time>2026-05-03T15:45:04.998Z</time></trkpt><trkpt lat="44.10057372704047" lon="12.495484629312752"><ele>9.0</ele><time>2026-05-03T15:45:05.998Z</time></trkpt><trkpt lat="44.100672522257746" lon="12.495324439962575"><ele>9.5</ele><time>2026-05-03T15:45:06.998Z</time></trkpt><trkpt lat="44.10076918989232" lon="12.495168075830891"><ele>10.0</ele><time>2026-05-03T15:45:07.998Z</time></trkpt><trkpt lat="44.100862934519455" lon="12.495023465951803"><ele>10.5</ele><time>2026-05-03T15:45:08.998Z</time></trkpt><trkpt lat="44.10094952578729" lon="12.494878145887363"><ele>11.0</ele><time>2026-05-03T15:45:09.999Z</time></trkpt><trkpt lat="44.1010368736248" lon="12.494731157617984"><ele>10.75</ele><time>2026-05-03T15:45:10.999Z</time></trkpt><trkpt lat="44.10112318964356" lon="12.494587641138473"><ele>10.5</ele><time>2026-05-03T15:45:11.999Z</time></trkpt><trkpt lat="44.101206228977574" lon="12.494448684510074"><ele>10.25</ele><time>2026-05-03T15:45:12.999Z</time></trkpt><trkpt lat="44.1012938965913" lon="12.494314611650575"><ele>10.0</ele><time>2026-05-03T15:45:13.999Z</time></trkpt><trkpt lat="44.10138065628037" lon="12.494169200237252"><ele>10.0</ele><time>2026-05-03T15:45:14.999Z</time></trkpt><trkpt lat="44.10147114621788" lon="12.494019651660128"><ele>10.0</ele><time>2026-05-03T15:45:15.999Z</time></trkpt><trkpt lat="44.10155464505224" lon="12.493889706268387"><ele>10.0</ele><time>2026-05-03T15:45:16.999Z</time></trkpt><trkpt lat="44.10163573545466" lon="12.4937635125978"><ele>10.0</ele><time>2026-05-03T15:45:17.999Z</time></trkpt><trkpt lat="44.101716814379" lon="12.49363450851244"><ele>10.0</ele><time>2026-05-03T15:45:18.999Z</time></trkpt><trkpt lat="44.101792876638285" lon="12.493509220722602"><ele>10.0</ele><time>2026-05-03T15:45:19.999Z</time></trkpt><trkpt lat="44.10186341511509" lon="12.4933923706057"><ele>10.0</ele><time>2026-05-03T15:45:20.999Z</time></trkpt><trkpt lat="44.101932252948586" lon="12.493279733562717"><ele>10.0</ele><time>2026-05-03T15:45:21.999Z</time></trkpt><trkpt lat="44.10200778257635" lon="12.49315244121913"><ele>10.0</ele><time>2026-05-03T15:45:22.999Z</time></trkpt><trkpt lat="44.102083742547286" lon="12.493031600103606"><ele>10.0</ele><time>2026-05-03T15:45:23.999Z</time></trkpt><trkpt lat="44.10214912416574" lon="12.492926963253101"><ele>10.0</ele><time>2026-05-03T15:45:24.999Z</time></trkpt><trkpt lat="44.102208017008316" lon="12.49283140650487"><ele>10.0</ele><time>2026-05-03T15:45:25.999Z</time></trkpt><trkpt lat="44.102266062203604" lon="12.492740210118463"><ele>10.0</ele><time>2026-05-03T15:45:26.999Z</time></trkpt><trkpt lat="44.102324056300425" lon="12.492647502912448"><ele>10.0</ele><time>2026-05-03T15:45:28Z</time></trkpt><trkpt lat="44.10238617441176" lon="12.492544601962287"><ele>10.0</ele><time>2026-05-03T15:45:29Z</time></trkpt><trkpt lat="44.102443184745816" lon="12.49244976812921"><ele>10.0</ele><time>2026-05-03T15:45:30Z</time></trkpt><trkpt lat="44.102495574234105" lon="12.49236548360653"><ele>10.0</ele><time>2026-05-03T15:45:31Z</time></trkpt><trkpt lat="44.102551135980086" lon="12.492275496218943"><ele>10.0</ele><time>2026-05-03T15:45:32Z</time></trkpt><trkpt lat="44.102604731895035" lon="12.492191618635909"><ele>10.0</ele><time>2026-05-03T15:45:33Z</time></trkpt><trkpt lat="44.10264401885772" lon="12.49212200391651"><ele>10.2</ele><time>2026-05-03T15:45:34Z</time></trkpt><trkpt lat="44.10271201564028" lon="12.492009351325263"><ele>10.4</ele><time>2026-05-03T15:45:36Z</time></trkpt><trkpt lat="44.10279122887501" lon="12.491911123214264"><ele>10.600000000000001</ele><time>2026-05-03T15:45:38Z</time></trkpt><trkpt lat="44.102846987002536" lon="12.491862394446022"><ele>10.8</ele><time>2026-05-03T15:45:40Z</time></trkpt><trkpt lat="44.10291093188799" lon="12.491830111581566"><ele>11.0</ele><time>2026-05-03T15:45:43Z</time></trkpt><trkpt lat="44.103052507081216" lon="12.491796693358436"><ele>11.0</ele><time>2026-05-03T15:45:45Z</time></trkpt><trkpt lat="44.103154854275" lon="12.491776134513845"><ele>11.0</ele><time>2026-05-03T15:45:46Z</time></trkpt><trkpt lat="44.10326036579072" lon="12.491709450727543"><ele>11.0</ele><time>2026-05-03T15:45:47Z</time></trkpt><trkpt lat="44.10332847101103" lon="12.49160101080582"><ele>11.0</ele><time>2026-05-03T15:45:48Z</time></trkpt><trkpt lat="44.10335749715938" lon="12.491477259744688"><ele>11.0</ele><time>2026-05-03T15:45:49Z</time></trkpt><trkpt lat="44.10337111951727" lon="12.491341134724738"><ele>10.8</ele><time>2026-05-03T15:45:50Z</time></trkpt><trkpt lat="44.103370671623765" lon="12.491210422100654"><ele>10.600000000000001</ele><time>2026-05-03T15:45:51Z</time></trkpt><trkpt lat="44.103372589526444" lon="12.491090401291324"><ele>10.4</ele><time>2026-05-03T15:45:52Z</time></trkpt><trkpt lat="44.10339337682237" lon="12.490968147361661"><ele>10.2</ele><time>2026-05-03T15:45:53Z</time></trkpt><trkpt lat="44.10343883508082" lon="12.490831041963359"><ele>10.0</ele><time>2026-05-03T15:45:54Z</time></trkpt><trkpt lat="44.103501949747326" lon="12.49069838093537"><ele>10.0</ele><time>2026-05-03T15:45:55Z</time></trkpt><trkpt lat="44.10359982190585" lon="12.490577978285568"><ele>10.0</ele><time>2026-05-03T15:45:56.001Z</time></trkpt><trkpt lat="44.10370076274905" lon="12.490414166146316"><ele>10.0</ele><time>2026-05-03T15:45:57.001Z</time></trkpt><trkpt lat="44.10383073083112" lon="12.490203281237557"><ele>10.333333333333334</ele><time>2026-05-03T15:45:58.001Z</time></trkpt><trkpt lat="44.10395126754164" lon="12.4900090895076"><ele>10.666666666666666</ele><time>2026-05-03T15:45:59.001Z</time></trkpt><trkpt lat="44.10405673058277" lon="12.48983796525288"><ele>11.0</ele><time>2026-05-03T15:46:00.001Z</time></trkpt><trkpt lat="44.10414844822302" lon="12.489688294305697"><ele>11.25</ele><time>2026-05-03T15:46:01.001Z</time></trkpt><trkpt lat="44.10422359903414" lon="12.489533604648226"><ele>11.5</ele><time>2026-05-03T15:46:02.001Z</time></trkpt><trkpt lat="44.10430842404233" lon="12.489400621384258"><ele>11.75</ele><time>2026-05-03T15:46:03.001Z</time></trkpt><trkpt lat="44.10439566641179" lon="12.489262117769352"><ele>12.0</ele><time>2026-05-03T15:46:04.001Z</time></trkpt><trkpt lat="44.10448374070955" lon="12.489121486075264"><ele>12.0</ele><time>2026-05-03T15:46:05.001Z</time></trkpt><trkpt lat="44.104574735915286" lon="12.488976235791032"><ele>12.0</ele><time>2026-05-03T15:46:06.001Z</time></trkpt><trkpt lat="44.10466742364658" lon="12.488825832420732"><ele>12.0</ele><time>2026-05-03T15:46:07.001Z</time></trkpt><trkpt lat="44.10476081169259" lon="12.488677161058632"><ele>12.0</ele><time>2026-05-03T15:46:08.001Z</time></trkpt><trkpt lat="44.1048538817916" lon="12.48852220850949"><ele>12.0</ele><time>2026-05-03T15:46:09.001Z</time></trkpt><trkpt lat="44.104951540558154" lon="12.488366148800342"><ele>12.0</ele><time>2026-05-03T15:46:10.001Z</time></trkpt><trkpt lat="44.10504706702161" lon="12.48821086110149"><ele>12.0</ele><time>2026-05-03T15:46:11.001Z</time></trkpt><trkpt lat="44.10514200194316" lon="12.488055226661684"><ele>12.0</ele><time>2026-05-03T15:46:12.001Z</time></trkpt><trkpt lat="44.10524012336081" lon="12.487893423710991"><ele>12.0</ele><time>2026-05-03T15:46:13.001Z</time></trkpt><trkpt lat="44.1053421293648" lon="12.487728898038824"><ele>12.0</ele><time>2026-05-03T15:46:14.001Z</time></trkpt><trkpt lat="44.1054428330766" lon="12.487564461037644"><ele>12.0</ele><time>2026-05-03T15:46:15.001Z</time></trkpt><trkpt lat="44.10554185382166" lon="12.487402396802905"><ele>12.0</ele><time>2026-05-03T15:46:16.001Z</time></trkpt><trkpt lat="44.10564298361213" lon="12.487241587736955"><ele>12.0</ele><time>2026-05-03T15:46:17.001Z</time></trkpt><trkpt lat="44.10574232651666" lon="12.487079491582668"><ele>12.0</ele><time>2026-05-03T15:46:18.001Z</time></trkpt><trkpt lat="44.10584175615565" lon="12.486919366036204"><ele>11.666666666666666</ele><time>2026-05-03T15:46:19.001Z</time></trkpt><trkpt lat="44.10594139218671" lon="12.486760190442793"><ele>11.333333333333332</ele><time>2026-05-03T15:46:20.001Z</time></trkpt><trkpt lat="44.10604173286755" lon="12.486595703636633"><ele>11.0</ele><time>2026-05-03T15:46:21.001Z</time></trkpt><trkpt lat="44.10614739659071" lon="12.48643352452637"><ele>11.0</ele><time>2026-05-03T15:46:22.001Z</time></trkpt><trkpt lat="44.10625119901204" lon="12.486280605122824"><ele>11.0</ele><time>2026-05-03T15:46:23.001Z</time></trkpt><trkpt lat="44.10636180584401" lon="12.486135110880696"><ele>11.0</ele><time>2026-05-03T15:46:24.001Z</time></trkpt><trkpt lat="44.10647566117378" lon="12.485998901130339"><ele>11.25</ele><time>2026-05-03T15:46:25.001Z</time></trkpt><trkpt lat="44.106591959343014" lon="12.485872492889131"><ele>11.5</ele><time>2026-05-03T15:46:26.001Z</time></trkpt><trkpt lat="44.106712559152946" lon="12.48575382568498"><ele>11.75</ele><time>2026-05-03T15:46:27.001Z</time></trkpt><trkpt lat="44.10683880755152" lon="12.485641869243809"><ele>12.0</ele><time>2026-05-03T15:46:28.001Z</time></trkpt><trkpt lat="44.106972642154574" lon="12.485528795270072"><ele>11.333333333333334</ele><time>2026-05-03T15:46:29.002Z</time></trkpt><trkpt lat="44.1071072003226" lon="12.485417683739874"><ele>10.666666666666668</ele><time>2026-05-03T15:46:30.002Z</time></trkpt><trkpt lat="44.10724948844774" lon="12.485308328925784"><ele>10.0</ele><time>2026-05-03T15:46:31.002Z</time></trkpt><trkpt lat="44.10739497646726" lon="12.485190255639196"><ele>9.333333333333334</ele><time>2026-05-03T15:46:32.002Z</time></trkpt><trkpt lat="44.10753486773023" lon="12.485075271763172"><ele>8.666666666666666</ele><time>2026-05-03T15:46:33.002Z</time></trkpt><trkpt lat="44.10767804859636" lon="12.484962953203203"><ele>8.0</ele><time>2026-05-03T15:46:34.002Z</time></trkpt><trkpt lat="44.10782054884862" lon="12.484850535107453"><ele>8.0</ele><time>2026-05-03T15:46:35.002Z</time></trkpt><trkpt lat="44.10796276524328" lon="12.484736057197242"><ele>8.0</ele><time>2026-05-03T15:46:36.002Z</time></trkpt><trkpt lat="44.10810300948363" lon="12.484621509025372"><ele>8.0</ele><time>2026-05-03T15:46:37.002Z</time></trkpt><trkpt lat="44.10824296991245" lon="12.484509063428334"><ele>9.666666666666666</ele><time>2026-05-03T15:46:38.002Z</time></trkpt><trkpt lat="44.108384501728274" lon="12.484393365054823"><ele>11.333333333333332</ele><time>2026-05-03T15:46:39.002Z</time></trkpt><trkpt lat="44.10852315151802" lon="12.484287221638347"><ele>13.0</ele><time>2026-05-03T15:46:40.002Z</time></trkpt><trkpt lat="44.108663605807344" lon="12.48417465466889"><ele>13.0</ele><time>2026-05-03T15:46:41.002Z</time></trkpt><trkpt lat="44.1088167076076" lon="12.484060723284912"><ele>13.0</ele><time>2026-05-03T15:46:42.002Z</time></trkpt><trkpt lat="44.10897983048939" lon="12.483948465667101"><ele>13.0</ele><time>2026-05-03T15:46:43.002Z</time></trkpt><trkpt lat="44.1091392110851" lon="12.483820462446548"><ele>12.666666666666666</ele><time>2026-05-03T15:46:44.002Z</time></trkpt><trkpt lat="44.109305465931065" lon="12.483680610464106"><ele>12.333333333333332</ele><time>2026-05-03T15:46:45.002Z</time></trkpt><trkpt lat="44.109494327093785" lon="12.483521810379338"><ele>12.0</ele><time>2026-05-03T15:46:46.002Z</time></trkpt><trkpt lat="44.10969578965676" lon="12.483352229185689"><ele>12.0</ele><time>2026-05-03T15:46:47.002Z</time></trkpt><trkpt lat="44.109881065644686" lon="12.483192345776958"><ele>12.0</ele><time>2026-05-03T15:46:48.002Z</time></trkpt><trkpt lat="44.11004573040008" lon="12.483047245394319"><ele>12.0</ele><time>2026-05-03T15:46:48.997Z</time></trkpt><trkpt lat="44.110201305508255" lon="12.482902641749448"><ele>11.333333333333334</ele><time>2026-05-03T15:46:49.997Z</time></trkpt><trkpt lat="44.110347442740746" lon="12.48275428242955"><ele>10.666666666666668</ele><time>2026-05-03T15:46:50.997Z</time></trkpt><trkpt lat="44.110497733505206" lon="12.482601102986981"><ele>10.0</ele><time>2026-05-03T15:46:51.997Z</time></trkpt><trkpt lat="44.11064647906239" lon="12.482447597102754"><ele>10.0</ele><time>2026-05-03T15:46:52.997Z</time></trkpt><trkpt lat="44.1107842236257" lon="12.482285629864501"><ele>10.0</ele><time>2026-05-03T15:46:53.998Z</time></trkpt><trkpt lat="44.1109250886674" lon="12.482112000568897"><ele>10.0</ele><time>2026-05-03T15:46:54.998Z</time></trkpt><trkpt lat="44.11106536294888" lon="12.481944755189685"><ele>9.666666666666668</ele><time>2026-05-03T15:46:55.998Z</time></trkpt><trkpt lat="44.11121137211353" lon="12.481769714199157"><ele>9.333333333333334</ele><time>2026-05-03T15:46:56.998Z</time></trkpt><trkpt lat="44.111355646268805" lon="12.48159939782257"><ele>9.0</ele><time>2026-05-03T15:46:57.998Z</time></trkpt><trkpt lat="44.11149554418417" lon="12.481430842563082"><ele>9.666666666666666</ele><time>2026-05-03T15:46:58.998Z</time></trkpt><trkpt lat="44.11163561661676" lon="12.48126079297705"><ele>10.333333333333332</ele><time>2026-05-03T15:46:59.998Z</time></trkpt><trkpt lat="44.11178156676465" lon="12.481076312492917"><ele>11.0</ele><time>2026-05-03T15:47:00.999Z</time></trkpt><trkpt lat="44.11192118087973" lon="12.480892419303043"><ele>11.0</ele><time>2026-05-03T15:47:01.999Z</time></trkpt><trkpt lat="44.11206861888751" lon="12.480695373256813"><ele>11.0</ele><time>2026-05-03T15:47:02.999Z</time></trkpt><trkpt lat="44.112235727895836" lon="12.480475495405488"><ele>11.0</ele><time>2026-05-03T15:47:03.999Z</time></trkpt><trkpt lat="44.11240146996616" lon="12.48025440582164"><ele>11.0</ele><time>2026-05-03T15:47:04.999Z</time></trkpt><trkpt lat="44.11256875139797" lon="12.480026341875842"><ele>11.0</ele><time>2026-05-03T15:47:05.999Z</time></trkpt><trkpt lat="44.11274297405615" lon="12.479781785569095"><ele>11.0</ele><time>2026-05-03T15:47:06.999Z</time></trkpt><trkpt lat="44.11293006652368" lon="12.47952131148585"><ele>11.0</ele><time>2026-05-03T15:47:07.999Z</time></trkpt><trkpt lat="44.11312216753736" lon="12.479259163645"><ele>10.5</ele><time>2026-05-03T15:47:08.999Z</time></trkpt><trkpt lat="44.1133140598534" lon="12.479001249357871"><ele>10.0</ele><time>2026-05-03T15:47:10Z</time></trkpt><trkpt lat="44.113509371773794" lon="12.478737710291286"><ele>10.0</ele><time>2026-05-03T15:47:11Z</time></trkpt><trkpt lat="44.11370153887394" lon="12.478481162526046"><ele>10.0</ele><time>2026-05-03T15:47:12Z</time></trkpt><trkpt lat="44.11389656802308" lon="12.478219715522084"><ele>9.5</ele><time>2026-05-03T15:47:13Z</time></trkpt><trkpt lat="44.11409025621705" lon="12.477962281224622"><ele>9.0</ele><time>2026-05-03T15:47:14Z</time></trkpt><trkpt lat="44.11428465590768" lon="12.477708900473747"><ele>10.5</ele><time>2026-05-03T15:47:15Z</time></trkpt><trkpt lat="44.114481743749565" lon="12.477457245859492"><ele>12.0</ele><time>2026-05-03T15:47:16Z</time></trkpt><trkpt lat="44.114680818012694" lon="12.477208913335275"><ele>11.5</ele><time>2026-05-03T15:47:17Z</time></trkpt><trkpt lat="44.11488455657731" lon="12.476969415196058"><ele>11.0</ele><time>2026-05-03T15:47:18Z</time></trkpt><trkpt lat="44.115079461288744" lon="12.476746476115347"><ele>10.0</ele><time>2026-05-03T15:47:19Z</time></trkpt><trkpt lat="44.115283293357045" lon="12.476522087611958"><ele>9.0</ele><time>2026-05-03T15:47:20Z</time></trkpt><trkpt lat="44.11549137336639" lon="12.476306304530707"><ele>9.0</ele><time>2026-05-03T15:47:21Z</time></trkpt><trkpt lat="44.11570479135969" lon="12.47610081511556"><ele>9.0</ele><time>2026-05-03T15:47:22Z</time></trkpt><trkpt lat="44.1159223237759" lon="12.475904308574858"><ele>8.5</ele><time>2026-05-03T15:47:23Z</time></trkpt><trkpt lat="44.116136476708" lon="12.475718465666942"><ele>8.0</ele><time>2026-05-03T15:47:24Z</time></trkpt><trkpt lat="44.11635325790213" lon="12.475542921996714"><ele>9.0</ele><time>2026-05-03T15:47:25.001Z</time></trkpt><trkpt lat="44.11657404902047" lon="12.475378594137595"><ele>10.0</ele><time>2026-05-03T15:47:26.001Z</time></trkpt><trkpt lat="44.116800794802664" lon="12.475220087304123"><ele>10.0</ele><time>2026-05-03T15:47:27.001Z</time></trkpt><trkpt lat="44.11703217906748" lon="12.47506580115798"><ele>10.0</ele><time>2026-05-03T15:47:28.001Z</time></trkpt><trkpt lat="44.1172629680202" lon="12.474920819224092"><ele>9.0</ele><time>2026-05-03T15:47:29.001Z</time></trkpt><trkpt lat="44.117486959838075" lon="12.474789880864417"><ele>8.0</ele><time>2026-05-03T15:47:30.001Z</time></trkpt><trkpt lat="44.117699832254736" lon="12.474674459899367"><ele>8.5</ele><time>2026-05-03T15:47:31.001Z</time></trkpt><trkpt lat="44.11791920450283" lon="12.474553333237731"><ele>9.0</ele><time>2026-05-03T15:47:32.001Z</time></trkpt><trkpt lat="44.11815732941726" lon="12.47442107655957"><ele>9.0</ele><time>2026-05-03T15:47:33.001Z</time></trkpt><trkpt lat="44.118418352675725" lon="12.474272604237777"><ele>9.0</ele><time>2026-05-03T15:47:34.001Z</time></trkpt><trkpt lat="44.118674965534716" lon="12.474128211891452"><ele>9.0</ele><time>2026-05-03T15:47:35.001Z</time></trkpt><trkpt lat="44.11892012376693" lon="12.473996437619654"><ele>9.0</ele><time>2026-05-03T15:47:36.001Z</time></trkpt><trkpt lat="44.119165073172596" lon="12.473867447517598"><ele>9.0</ele><time>2026-05-03T15:47:37.001Z</time></trkpt><trkpt lat="44.11941193013431" lon="12.473735296841959"><ele>9.0</ele><time>2026-05-03T15:47:38.001Z</time></trkpt><trkpt lat="44.11965775820266" lon="12.473609050500372"><ele>9.0</ele><time>2026-05-03T15:47:39.001Z</time></trkpt><trkpt lat="44.119897545646815" lon="12.473479173478912"><ele>9.0</ele><time>2026-05-03T15:47:40.001Z</time></trkpt><trkpt lat="44.12013607273784" lon="12.47335394529343"><ele>8.0</ele><time>2026-05-03T15:47:41.001Z</time></trkpt><trkpt lat="44.1203713737643" lon="12.473227067394191"><ele>7.0</ele><time>2026-05-03T15:47:42.001Z</time></trkpt><trkpt lat="44.120607166266794" lon="12.47309758496492"><ele>7.0</ele><time>2026-05-03T15:47:43.001Z</time></trkpt><trkpt lat="44.12084669322439" lon="12.472974106113769"><ele>7.0</ele><time>2026-05-03T15:47:44.001Z</time></trkpt><trkpt lat="44.12108567879561" lon="12.472851305888668"><ele>7.0</ele><time>2026-05-03T15:47:45.001Z</time></trkpt><trkpt lat="44.121325813372295" lon="12.472726870029959"><ele>7.0</ele><time>2026-05-03T15:47:46.001Z</time></trkpt><trkpt lat="44.12157004273711" lon="12.472598020706098"><ele>7.5</ele><time>2026-05-03T15:47:47.001Z</time></trkpt><trkpt lat="44.12181340900162" lon="12.47246843587399"><ele>8.0</ele><time>2026-05-03T15:47:48.001Z</time></trkpt><trkpt lat="44.12206262612956" lon="12.47233662288614"><ele>8.0</ele><time>2026-05-03T15:47:49.001Z</time></trkpt><trkpt lat="44.12230945356355" lon="12.472205494404532"><ele>8.0</ele><time>2026-05-03T15:47:50.002Z</time></trkpt><trkpt lat="44.12255523552095" lon="12.472074420144622"><ele>7.5</ele><time>2026-05-03T15:47:51.002Z</time></trkpt><trkpt lat="44.12279518755296" lon="12.471946771692396"><ele>7.0</ele><time>2026-05-03T15:47:52.002Z</time></trkpt><trkpt lat="44.12303241696272" lon="12.471820577946877"><ele>6.0</ele><time>2026-05-03T15:47:53.002Z</time></trkpt><trkpt lat="44.12326643235874" lon="12.47169430435771"><ele>5.0</ele><time>2026-05-03T15:47:54.002Z</time></trkpt><trkpt lat="44.12349971244053" lon="12.471569435303234"><ele>5.0</ele><time>2026-05-03T15:47:55.002Z</time></trkpt><trkpt lat="44.12373760439902" lon="12.471442552555285"><ele>5.0</ele><time>2026-05-03T15:47:56.002Z</time></trkpt><trkpt lat="44.123976838142944" lon="12.471316163725092"><ele>6.5</ele><time>2026-05-03T15:47:57.002Z</time></trkpt><trkpt lat="44.124212428412825" lon="12.47119191404793"><ele>8.0</ele><time>2026-05-03T15:47:58.002Z</time></trkpt><trkpt lat="44.12445309330246" lon="12.471064317496328"><ele>8.0</ele><time>2026-05-03T15:47:59.002Z</time></trkpt><trkpt lat="44.12469001822424" lon="12.47094758816849"><ele>8.0</ele><time>2026-05-03T15:48:00.002Z</time></trkpt><trkpt lat="44.12493149985261" lon="12.470827981713128"><ele>7.5</ele><time>2026-05-03T15:48:01.002Z</time></trkpt><trkpt lat="44.12516691465616" lon="12.47071492171642"><ele>7.0</ele><time>2026-05-03T15:48:02.002Z</time></trkpt><trkpt lat="44.125413077700266" lon="12.470590354541073"><ele>7.0</ele><time>2026-05-03T15:48:03.002Z</time></trkpt><trkpt lat="44.12565098141646" lon="12.47047056956822"><ele>7.0</ele><time>2026-05-03T15:48:04.002Z</time></trkpt><trkpt lat="44.125889241809645" lon="12.4703433498361"><ele>6.0</ele><time>2026-05-03T15:48:05.002Z</time></trkpt><trkpt lat="44.12612471001279" lon="12.470216177183561"><ele>5.0</ele><time>2026-05-03T15:48:06.002Z</time></trkpt><trkpt lat="44.12635830068705" lon="12.470084350930968"><ele>5.5</ele><time>2026-05-03T15:48:07.002Z</time></trkpt><trkpt lat="44.126588677690236" lon="12.469949509851476"><ele>6.0</ele><time>2026-05-03T15:48:08.002Z</time></trkpt><trkpt lat="44.126824294635725" lon="12.469809844026559"><ele>6.0</ele><time>2026-05-03T15:48:09.002Z</time></trkpt><trkpt lat="44.12705468926644" lon="12.469667784238789"><ele>6.0</ele><time>2026-05-03T15:48:10.002Z</time></trkpt><trkpt lat="44.12728733616441" lon="12.469518588730057"><ele>6.5</ele><time>2026-05-03T15:48:11.002Z</time></trkpt><trkpt lat="44.12751557781563" lon="12.469365344491973"><ele>7.0</ele><time>2026-05-03T15:48:12.002Z</time></trkpt><trkpt lat="44.12774370151578" lon="12.469200781717714"><ele>7.0</ele><time>2026-05-03T15:48:13.002Z</time></trkpt><trkpt lat="44.12796524953197" lon="12.469033017409085"><ele>7.0</ele><time>2026-05-03T15:48:14.002Z</time></trkpt><trkpt lat="44.12819159360061" lon="12.46885837664803"><ele>5.5</ele><time>2026-05-03T15:48:15.002Z</time></trkpt><trkpt lat="44.128415973013965" lon="12.468682075587727"><ele>4.0</ele><time>2026-05-03T15:48:16.002Z</time></trkpt><trkpt lat="44.12863480554307" lon="12.46851162512414"><ele>4.0</ele><time>2026-05-03T15:48:17.002Z</time></trkpt><trkpt lat="44.128850061477245" lon="12.468339249701078"><ele>4.0</ele><time>2026-05-03T15:48:18.002Z</time></trkpt><trkpt lat="44.12906513210719" lon="12.468161856718181"><ele>4.5</ele><time>2026-05-03T15:48:19.002Z</time></trkpt><trkpt lat="44.12927439255529" lon="12.467994080782004"><ele>5.0</ele><time>2026-05-03T15:48:20.002Z</time></trkpt><trkpt lat="44.12949068918995" lon="12.467813259260524"><ele>5.0</ele><time>2026-05-03T15:48:21.003Z</time></trkpt><trkpt lat="44.12970135299056" lon="12.46763569957878"><ele>5.0</ele><time>2026-05-03T15:48:22.003Z</time></trkpt><trkpt lat="44.12990805199345" lon="12.46745313121755"><ele>4.5</ele><time>2026-05-03T15:48:23.003Z</time></trkpt><trkpt lat="44.13011188535481" lon="12.467265670764396"><ele>4.0</ele><time>2026-05-03T15:48:24.003Z</time></trkpt><trkpt lat="44.13031561353614" lon="12.467084039214068"><ele>4.0</ele><time>2026-05-03T15:48:25.003Z</time></trkpt><trkpt lat="44.13053098414946" lon="12.466899543634707"><ele>4.0</ele><time>2026-05-03T15:48:26.003Z</time></trkpt><trkpt lat="44.13074986552434" lon="12.466719644210189"><ele>3.0</ele><time>2026-05-03T15:48:27.003Z</time></trkpt><trkpt lat="44.130971066982355" lon="12.466542063974662"><ele>2.0</ele><time>2026-05-03T15:48:28.003Z</time></trkpt><trkpt lat="44.13119438862625" lon="12.466362079248647"><ele>2.5</ele><time>2026-05-03T15:48:29.003Z</time></trkpt><trkpt lat="44.13142470156141" lon="12.466184836501842"><ele>3.0</ele><time>2026-05-03T15:48:30.003Z</time></trkpt><trkpt lat="44.13165328602815" lon="12.466019472434668"><ele>3.0</ele><time>2026-05-03T15:48:31.003Z</time></trkpt><trkpt lat="44.131883988720794" lon="12.465848537165975"><ele>3.0</ele><time>2026-05-03T15:48:32.003Z</time></trkpt><trkpt lat="44.13210437233319" lon="12.46567131172264"><ele>3.0</ele><time>2026-05-03T15:48:33.003Z</time></trkpt><trkpt lat="44.13232463483648" lon="12.465486250384146"><ele>3.0</ele><time>2026-05-03T15:48:34.003Z</time></trkpt><trkpt lat="44.13254374553214" lon="12.465303976303462"><ele>3.0</ele><time>2026-05-03T15:48:35.003Z</time></trkpt><trkpt lat="44.13276395010104" lon="12.4651234451936"><ele>3.0</ele><time>2026-05-03T15:48:36.003Z</time></trkpt><trkpt lat="44.13297978421094" lon="12.464948744004761"><ele>3.0</ele><time>2026-05-03T15:48:37.003Z</time></trkpt><trkpt lat="44.133200704542276" lon="12.464763826837414"><ele>3.0</ele><time>2026-05-03T15:48:38.003Z</time></trkpt><trkpt lat="44.13342123260076" lon="12.46458684926941"><ele>2.5</ele><time>2026-05-03T15:48:39.003Z</time></trkpt><trkpt lat="44.13363703294826" lon="12.46440795299137"><ele>2.0</ele><time>2026-05-03T15:48:40.003Z</time></trkpt><trkpt lat="44.13385553777489" lon="12.464228792010108"><ele>2.5</ele><time>2026-05-03T15:48:41.003Z</time></trkpt><trkpt lat="44.134076840467685" lon="12.464049841815335"><ele>3.0</ele><time>2026-05-03T15:48:42.003Z</time></trkpt><trkpt lat="44.13429555216976" lon="12.463871066689286"><ele>2.5</ele><time>2026-05-03T15:48:43.003Z</time></trkpt><trkpt lat="44.13451325645914" lon="12.463692658648236"><ele>2.0</ele><time>2026-05-03T15:48:44.003Z</time></trkpt><trkpt lat="44.13473119878633" lon="12.463513760355374"><ele>0.5</ele><time>2026-05-03T15:48:45.003Z</time></trkpt><trkpt lat="44.13494978779241" lon="12.463333639750594"><ele>-1.0</ele><time>2026-05-03T15:48:46.003Z</time></trkpt><trkpt lat="44.13516941693027" lon="12.46315254686828"><ele>-1.0</ele><time>2026-05-03T15:48:47.003Z</time></trkpt><trkpt lat="44.13538967270767" lon="12.462972063199432"><ele>-1.0</ele><time>2026-05-03T15:48:48.003Z</time></trkpt><trkpt lat="44.1356096241313" lon="12.462790468337678"><ele>-0.5</ele><time>2026-05-03T15:48:49.003Z</time></trkpt><trkpt lat="44.1358281376392" lon="12.462612317186524"><ele>0.0</ele><time>2026-05-03T15:48:50.003Z</time></trkpt><trkpt lat="44.136041285002555" lon="12.462437646472791"><ele>0.0</ele><time>2026-05-03T15:48:51.003Z</time></trkpt><trkpt lat="44.13624402903274" lon="12.462269508977723"><ele>0.0</ele><time>2026-05-03T15:48:52.003Z</time></trkpt><trkpt lat="44.136451198443716" lon="12.46210578199185"><ele>0.3333333333333333</ele><time>2026-05-03T15:48:53.003Z</time></trkpt><trkpt lat="44.13664059963867" lon="12.461944491865326"><ele>0.6666666666666666</ele><time>2026-05-03T15:48:54.004Z</time></trkpt><trkpt lat="44.136819451223964" lon="12.46179998626892"><ele>1.0</ele><time>2026-05-03T15:48:55.001Z</time></trkpt><trkpt lat="44.13699962581172" lon="12.461651587803662"><ele>1.0</ele><time>2026-05-03T15:48:56.001Z</time></trkpt><trkpt lat="44.137180802295816" lon="12.461502091622332"><ele>1.0</ele><time>2026-05-03T15:48:57.001Z</time></trkpt><trkpt lat="44.13735844752189" lon="12.461355986538354"><ele>1.0</ele><time>2026-05-03T15:48:58.001Z</time></trkpt><trkpt lat="44.137540819070864" lon="12.46120684161072"><ele>0.3333333333333333</ele><time>2026-05-03T15:48:59.001Z</time></trkpt><trkpt lat="44.137717321776" lon="12.461061424925097"><ele>-0.3333333333333333</ele><time>2026-05-03T15:49:00.001Z</time></trkpt><trkpt lat="44.13789948672305" lon="12.460913826681749"><ele>-1.0</ele><time>2026-05-03T15:49:01.001Z</time></trkpt><trkpt lat="44.13808353926463" lon="12.460764509849179"><ele>-0.6666666666666666</ele><time>2026-05-03T15:49:02.001Z</time></trkpt><trkpt lat="44.13826807399343" lon="12.460613663000967"><ele>-0.3333333333333333</ele><time>2026-05-03T15:49:03.001Z</time></trkpt><trkpt lat="44.138456819417236" lon="12.460456016439647"><ele>0.0</ele><time>2026-05-03T15:49:04.001Z</time></trkpt><trkpt lat="44.13865782807091" lon="12.460291769833816"><ele>0.0</ele><time>2026-05-03T15:49:05.001Z</time></trkpt><trkpt lat="44.13886437782811" lon="12.460124088834368"><ele>0.0</ele><time>2026-05-03T15:49:06.001Z</time></trkpt><trkpt lat="44.13907356614097" lon="12.459954418385296"><ele>0.5</ele><time>2026-05-03T15:49:07.001Z</time></trkpt><trkpt lat="44.139283661841766" lon="12.459779180931216"><ele>1.0</ele><time>2026-05-03T15:49:08.001Z</time></trkpt><trkpt lat="44.13949711349184" lon="12.459606077034408"><ele>2.0</ele><time>2026-05-03T15:49:09.001Z</time></trkpt><trkpt lat="44.139712283487654" lon="12.459430206902018"><ele>3.0</ele><time>2026-05-03T15:49:10.001Z</time></trkpt><trkpt lat="44.13992504565551" lon="12.45925724331949"><ele>3.0</ele><time>2026-05-03T15:49:11.001Z</time></trkpt><trkpt lat="44.14014115629163" lon="12.459078941636815"><ele>3.0</ele><time>2026-05-03T15:49:12.001Z</time></trkpt><trkpt lat="44.1403564555689" lon="12.458901188593925"><ele>2.5</ele><time>2026-05-03T15:49:13.001Z</time></trkpt><trkpt lat="44.140568261481896" lon="12.45872520204139"><ele>2.0</ele><time>2026-05-03T15:49:14.001Z</time></trkpt><trkpt lat="44.1407801908446" lon="12.458548585472045"><ele>1.0</ele><time>2026-05-03T15:49:15.001Z</time></trkpt><trkpt lat="44.140991774458946" lon="12.458375993343624"><ele>0.0</ele><time>2026-05-03T15:49:16.001Z</time></trkpt><trkpt lat="44.14120295411079" lon="12.458201859753698"><ele>0.0</ele><time>2026-05-03T15:49:17.001Z</time></trkpt><trkpt lat="44.1414155629814" lon="12.458033305169222"><ele>0.0</ele><time>2026-05-03T15:49:18.001Z</time></trkpt><trkpt lat="44.141628167231886" lon="12.45786017301805"><ele>0.5</ele><time>2026-05-03T15:49:19.001Z</time></trkpt><trkpt lat="44.14183985414188" lon="12.457684616476827"><ele>1.0</ele><time>2026-05-03T15:49:20.001Z</time></trkpt><trkpt lat="44.14204681066909" lon="12.457509994850746"><ele>1.0</ele><time>2026-05-03T15:49:21.001Z</time></trkpt><trkpt lat="44.1422474813352" lon="12.457332891321824"><ele>1.0</ele><time>2026-05-03T15:49:22.001Z</time></trkpt><trkpt lat="44.142455323864475" lon="12.457144355622919"><ele>0.5</ele><time>2026-05-03T15:49:23.001Z</time></trkpt><trkpt lat="44.142653195583776" lon="12.456953645626589"><ele>0.0</ele><time>2026-05-03T15:49:24.001Z</time></trkpt><trkpt lat="44.14284677796609" lon="12.45674817687359"><ele>0.0</ele><time>2026-05-03T15:49:25.001Z</time></trkpt><trkpt lat="44.143034807061944" lon="12.456538540925113"><ele>0.0</ele><time>2026-05-03T15:49:26.001Z</time></trkpt><trkpt lat="44.143219547970375" lon="12.456322565227875"><ele>0.5</ele><time>2026-05-03T15:49:27.001Z</time></trkpt><trkpt lat="44.143401148357405" lon="12.456099284567893"><ele>1.0</ele><time>2026-05-03T15:49:28.001Z</time></trkpt><trkpt lat="44.14358095839399" lon="12.455860382951434"><ele>1.0</ele><time>2026-05-03T15:49:29.001Z</time></trkpt><trkpt lat="44.143753669708246" lon="12.455617713596283"><ele>1.0</ele><time>2026-05-03T15:49:30.001Z</time></trkpt><trkpt lat="44.1439256739288" lon="12.45536067238552"><ele>0.5</ele><time>2026-05-03T15:49:31.001Z</time></trkpt><trkpt lat="44.14409336795833" lon="12.455091618013627"><ele>0.0</ele><time>2026-05-03T15:49:32.001Z</time></trkpt><trkpt lat="44.14425259295935" lon="12.454820724642065"><ele>0.0</ele><time>2026-05-03T15:49:33.001Z</time></trkpt><trkpt lat="44.14440778995355" lon="12.454546388594006"><ele>0.0</ele><time>2026-05-03T15:49:34.001Z</time></trkpt><trkpt lat="44.14455675568839" lon="12.454266722755024"><ele>0.0</ele><time>2026-05-03T15:49:35.001Z</time></trkpt><trkpt lat="44.14470380656569" lon="12.453985334823425"><ele>0.0</ele><time>2026-05-03T15:49:36.001Z</time></trkpt><trkpt lat="44.144847508831845" lon="12.453699137070032"><ele>1.0</ele><time>2026-05-03T15:49:37.001Z</time></trkpt><trkpt lat="44.144989532021754" lon="12.45341924536036"><ele>2.0</ele><time>2026-05-03T15:49:38.001Z</time></trkpt><trkpt lat="44.14512675594298" lon="12.45315148161804"><ele>1.5</ele><time>2026-05-03T15:49:39.001Z</time></trkpt><trkpt lat="44.14526124825321" lon="12.452890873616242"><ele>1.0</ele><time>2026-05-03T15:49:40.001Z</time></trkpt><trkpt lat="44.1454022132277" lon="12.452615387055863"><ele>1.0</ele><time>2026-05-03T15:49:41.001Z</time></trkpt><trkpt lat="44.145537705114855" lon="12.452351352786406"><ele>1.0</ele><time>2026-05-03T15:49:42.001Z</time></trkpt><trkpt lat="44.145677691654" lon="12.452081746765488"><ele>1.5</ele><time>2026-05-03T15:49:43.001Z</time></trkpt><trkpt lat="44.1458141052298" lon="12.451815972175025"><ele>2.0</ele><time>2026-05-03T15:49:44.001Z</time></trkpt><trkpt lat="44.145958370559065" lon="12.451543452445415"><ele>0.5</ele><time>2026-05-03T15:49:45.001Z</time></trkpt><trkpt lat="44.14609459838899" lon="12.451279170132969"><ele>-1.0</ele><time>2026-05-03T15:49:46.001Z</time></trkpt><trkpt lat="44.146232271867106" lon="12.451008099388114"><ele>-1.0</ele><time>2026-05-03T15:49:47.001Z</time></trkpt><trkpt lat="44.14637095530742" lon="12.450727848745588"><ele>-1.0</ele><time>2026-05-03T15:49:48.001Z</time></trkpt><trkpt lat="44.14650987073598" lon="12.450452234075385"><ele>0.5</ele><time>2026-05-03T15:49:49.001Z</time></trkpt><trkpt lat="44.146650972248906" lon="12.45017860577643"><ele>2.0</ele><time>2026-05-03T15:49:50.001Z</time></trkpt><trkpt lat="44.14679438218374" lon="12.449906147746074"><ele>2.0</ele><time>2026-05-03T15:49:51.001Z</time></trkpt><trkpt lat="44.14693832475063" lon="12.449627721683205"><ele>2.0</ele><time>2026-05-03T15:49:52.001Z</time></trkpt><trkpt lat="44.14707903008591" lon="12.449349272745527"><ele>2.0</ele><time>2026-05-03T15:49:53.001Z</time></trkpt><trkpt lat="44.1472277983506" lon="12.449064053099294"><ele>2.0</ele><time>2026-05-03T15:49:54.001Z</time></trkpt><trkpt lat="44.147372154563456" lon="12.448786451204123"><ele>0.5</ele><time>2026-05-03T15:49:55.001Z</time></trkpt><trkpt lat="44.1475125599003" lon="12.448511965893935"><ele>-1.0</ele><time>2026-05-03T15:49:56.001Z</time></trkpt><trkpt lat="44.14765168417727" lon="12.448237605960237"><ele>-1.0</ele><time>2026-05-03T15:49:57.001Z</time></trkpt><trkpt lat="44.14778993318212" lon="12.447963258362165"><ele>-1.0</ele><time>2026-05-03T15:49:58.001Z</time></trkpt><trkpt lat="44.14793163756484" lon="12.447686430110478"><ele>-1.5</ele><time>2026-05-03T15:49:59.001Z</time></trkpt><trkpt lat="44.14807613966521" lon="12.447413592767212"><ele>-2.0</ele><time>2026-05-03T15:50:00.001Z</time></trkpt><trkpt lat="44.14821830183296" lon="12.447134918507913"><ele>-1.5</ele><time>2026-05-03T15:50:01.001Z</time></trkpt><trkpt lat="44.148357686777786" lon="12.44686113183108"><ele>-1.0</ele><time>2026-05-03T15:50:02.001Z</time></trkpt><trkpt lat="44.14849711327866" lon="12.446583525695685"><ele>-1.0</ele><time>2026-05-03T15:50:03.001Z</time></trkpt><trkpt lat="44.148637323466744" lon="12.446312200550867"><ele>-1.0</ele><time>2026-05-03T15:50:04.001Z</time></trkpt><trkpt lat="44.148779974528445" lon="12.446043849638635"><ele>-1.0</ele><time>2026-05-03T15:50:05.001Z</time></trkpt><trkpt lat="44.14892720861288" lon="12.445779109193879"><ele>-1.0</ele><time>2026-05-03T15:50:06.001Z</time></trkpt><trkpt lat="44.14907606128762" lon="12.4455257450231"><ele>0.0</ele><time>2026-05-03T15:50:07.001Z</time></trkpt><trkpt lat="44.149230885372475" lon="12.445273598335998"><ele>1.0</ele><time>2026-05-03T15:50:08.001Z</time></trkpt><trkpt lat="44.149390249796745" lon="12.445033363834074"><ele>1.0</ele><time>2026-05-03T15:50:09.001Z</time></trkpt><trkpt lat="44.149552207798116" lon="12.444794545551227"><ele>1.0</ele><time>2026-05-03T15:50:10.001Z</time></trkpt><trkpt lat="44.1497188907653" lon="12.444563538001741"><ele>1.0</ele><time>2026-05-03T15:50:11.001Z</time></trkpt><trkpt lat="44.149889957742204" lon="12.4443382477805"><ele>1.0</ele><time>2026-05-03T15:50:12.001Z</time></trkpt><trkpt lat="44.1500706484046" lon="12.444117911423058"><ele>1.0</ele><time>2026-05-03T15:50:13.001Z</time></trkpt><trkpt lat="44.15025218545366" lon="12.443904447310498"><ele>1.0</ele><time>2026-05-03T15:50:14.001Z</time></trkpt><trkpt lat="44.15043779238149" lon="12.443703130801499"><ele>0.5</ele><time>2026-05-03T15:50:15.001Z</time></trkpt><trkpt lat="44.150630930038076" lon="12.443505423663288"><ele>0.0</ele><time>2026-05-03T15:50:16.001Z</time></trkpt><trkpt lat="44.15082497485595" lon="12.443309112077106"><ele>-2.5</ele><time>2026-05-03T15:50:17.002Z</time></trkpt><trkpt lat="44.151025982730374" lon="12.443137790342035"><ele>-5.0</ele><time>2026-05-03T15:50:18.002Z</time></trkpt><trkpt lat="44.15122541170298" lon="12.442964840875437"><ele>-4.5</ele><time>2026-05-03T15:50:19.002Z</time></trkpt><trkpt lat="44.15142745874664" lon="12.442798459090556"><ele>-4.0</ele><time>2026-05-03T15:50:20.002Z</time></trkpt><trkpt lat="44.15162938885854" lon="12.442639678502333"><ele>-3.0</ele><time>2026-05-03T15:50:21.002Z</time></trkpt><trkpt lat="44.151830766927674" lon="12.442483650464858"><ele>-2.0</ele><time>2026-05-03T15:50:22.002Z</time></trkpt><trkpt lat="44.152032234309075" lon="12.44232989447581"><ele>-2.0</ele><time>2026-05-03T15:50:23.002Z</time></trkpt><trkpt lat="44.15223294667583" lon="12.442176824199208"><ele>-2.0</ele><time>2026-05-03T15:50:24.002Z</time></trkpt><trkpt lat="44.15243485361712" lon="12.442023399363293"><ele>-2.0</ele><time>2026-05-03T15:50:25.002Z</time></trkpt><trkpt lat="44.15263706819975" lon="12.441870585287155"><ele>-2.0</ele><time>2026-05-03T15:50:26.002Z</time></trkpt><trkpt lat="44.15283847993143" lon="12.441714594164743"><ele>-2.0</ele><time>2026-05-03T15:50:27.002Z</time></trkpt><trkpt lat="44.15303615374775" lon="12.441559304205514"><ele>-2.0</ele><time>2026-05-03T15:50:28.002Z</time></trkpt><trkpt lat="44.15323640949476" lon="12.441405662387702"><ele>-1.0</ele><time>2026-05-03T15:50:29.002Z</time></trkpt><trkpt lat="44.15343881724127" lon="12.44125013313461"><ele>0.0</ele><time>2026-05-03T15:50:30.002Z</time></trkpt><trkpt lat="44.15365511393001" lon="12.441098749247164"><ele>0.0</ele><time>2026-05-03T15:50:31.002Z</time></trkpt><trkpt lat="44.15383932122566" lon="12.440950136356056"><ele>0.0</ele><time>2026-05-03T15:50:32.002Z</time></trkpt><trkpt lat="44.15403554920088" lon="12.440801709360136"><ele>0.0</ele><time>2026-05-03T15:50:33.002Z</time></trkpt><trkpt lat="44.15423068239385" lon="12.440649896439977"><ele>-1.5</ele><time>2026-05-03T15:50:34.002Z</time></trkpt><trkpt lat="44.1544341069712" lon="12.440495376761112"><ele>-3.0</ele><time>2026-05-03T15:50:35.002Z</time></trkpt><trkpt lat="44.15463658243166" lon="12.440336700269462"><ele>-3.0</ele><time>2026-05-03T15:50:36.002Z</time></trkpt><trkpt lat="44.15483843031515" lon="12.440181580585163"><ele>-3.0</ele><time>2026-05-03T15:50:37.002Z</time></trkpt><trkpt lat="44.155042834465256" lon="12.44002504139856"><ele>-3.0</ele><time>2026-05-03T15:50:38.002Z</time></trkpt><trkpt lat="44.155245178088535" lon="12.439870697899442"><ele>-3.0</ele><time>2026-05-03T15:50:39.002Z</time></trkpt><trkpt lat="44.155444405486634" lon="12.439721659695886"><ele>-3.0</ele><time>2026-05-03T15:50:40.002Z</time></trkpt><trkpt lat="44.15564078722181" lon="12.439573044161373"><ele>-3.0</ele><time>2026-05-03T15:50:41.002Z</time></trkpt><trkpt lat="44.155837142474844" lon="12.439421643528147"><ele>-3.0</ele><time>2026-05-03T15:50:42.002Z</time></trkpt><trkpt lat="44.15602075498013" lon="12.439276215336974"><ele>-3.0</ele><time>2026-05-03T15:50:43.002Z</time></trkpt><trkpt lat="44.156199656510026" lon="12.439136194646073"><ele>-3.0</ele><time>2026-05-03T15:50:44.002Z</time></trkpt><trkpt lat="44.15638179349044" lon="12.438993362316847"><ele>-3.0</ele><time>2026-05-03T15:50:45.002Z</time></trkpt><trkpt lat="44.156572974692914" lon="12.438845132356182"><ele>-1.6666666666666667</ele><time>2026-05-03T15:50:46.002Z</time></trkpt><trkpt lat="44.15676426801645" lon="12.438696264554126"><ele>-0.33333333333333337</ele><time>2026-05-03T15:50:47.002Z</time></trkpt><trkpt lat="44.156947956594955" lon="12.438551026148"><ele>1.0</ele><time>2026-05-03T15:50:48.002Z</time></trkpt><trkpt lat="44.15711697712231" lon="12.438412822750545"><ele>1.0</ele><time>2026-05-03T15:50:49.002Z</time></trkpt><trkpt lat="44.1572848316086" lon="12.438266659922249"><ele>1.0</ele><time>2026-05-03T15:50:50.002Z</time></trkpt><trkpt lat="44.157460298839176" lon="12.438102195790767"><ele>1.0</ele><time>2026-05-03T15:50:51.002Z</time></trkpt><trkpt lat="44.15763450307726" lon="12.437932298876879"><ele>1.3333333333333333</ele><time>2026-05-03T15:50:52.002Z</time></trkpt><trkpt lat="44.15781334334003" lon="12.437748668127751"><ele>1.6666666666666665</ele><time>2026-05-03T15:50:53.002Z</time></trkpt><trkpt lat="44.15799250044942" lon="12.437562534275067"><ele>2.0</ele><time>2026-05-03T15:50:54.002Z</time></trkpt><trkpt lat="44.158162299834075" lon="12.437380960637968"><ele>1.6666666666666665</ele><time>2026-05-03T15:50:55.002Z</time></trkpt><trkpt lat="44.15832196821055" lon="12.437203704541508"><ele>1.3333333333333333</ele><time>2026-05-03T15:50:56.002Z</time></trkpt><trkpt lat="44.158478100563144" lon="12.43702298412664"><ele>1.0</ele><time>2026-05-03T15:50:57.002Z</time></trkpt><trkpt lat="44.15863658777597" lon="12.4368359684645"><ele>1.0</ele><time>2026-05-03T15:50:58.002Z</time></trkpt><trkpt lat="44.158795781334796" lon="12.436638177271089"><ele>1.0</ele><time>2026-05-03T15:50:59.002Z</time></trkpt><trkpt lat="44.15895752864461" lon="12.436434378191684"><ele>1.0</ele><time>2026-05-03T15:51:00.002Z</time></trkpt><trkpt lat="44.159121771390105" lon="12.43622122956031"><ele>1.5</ele><time>2026-05-03T15:51:01.001Z</time></trkpt><trkpt lat="44.15928501422872" lon="12.435996908204887"><ele>2.0</ele><time>2026-05-03T15:51:02.001Z</time></trkpt><trkpt lat="44.15943981666277" lon="12.435773962422635"><ele>2.0</ele><time>2026-05-03T15:51:03.001Z</time></trkpt><trkpt lat="44.15958750029835" lon="12.435547076691757"><ele>2.0</ele><time>2026-05-03T15:51:04.001Z</time></trkpt><trkpt lat="44.159737365109855" lon="12.435310682422287"><ele>2.0</ele><time>2026-05-03T15:51:05.001Z</time></trkpt><trkpt lat="44.15988592310762" lon="12.435071373222344"><ele>1.5</ele><time>2026-05-03T15:51:06.001Z</time></trkpt><trkpt lat="44.16003355899723" lon="12.434822433460967"><ele>1.0</ele><time>2026-05-03T15:51:07.001Z</time></trkpt><trkpt lat="44.16017710254075" lon="12.43456941010476"><ele>0.0</ele><time>2026-05-03T15:51:08.001Z</time></trkpt><trkpt lat="44.16032028195328" lon="12.43431856246188"><ele>-1.0</ele><time>2026-05-03T15:51:09.001Z</time></trkpt><trkpt lat="44.160465095713384" lon="12.43407059427068"><ele>-1.0</ele><time>2026-05-03T15:51:10.001Z</time></trkpt><trkpt lat="44.160608176168076" lon="12.433822802649544"><ele>-1.0</ele><time>2026-05-03T15:51:11.001Z</time></trkpt><trkpt lat="44.160755365683336" lon="12.433566343689233"><ele>-1.0</ele><time>2026-05-03T15:51:12.001Z</time></trkpt><trkpt lat="44.16089842561811" lon="12.43331407708738"><ele>-1.0</ele><time>2026-05-03T15:51:13.001Z</time></trkpt><trkpt lat="44.1610440624577" lon="12.43306022952667"><ele>-0.5</ele><time>2026-05-03T15:51:14.001Z</time></trkpt><trkpt lat="44.16119125120447" lon="12.432804978368148"><ele>0.0</ele><time>2026-05-03T15:51:15.001Z</time></trkpt><trkpt lat="44.16133544823277" lon="12.432558645328747"><ele>0.0</ele><time>2026-05-03T15:51:16.001Z</time></trkpt><trkpt lat="44.161479638586265" lon="12.432315710800012"><ele>0.0</ele><time>2026-05-03T15:51:17.001Z</time></trkpt><trkpt lat="44.161616928586554" lon="12.43207939803162"><ele>0.0</ele><time>2026-05-03T15:51:18.001Z</time></trkpt><trkpt lat="44.16175730763097" lon="12.431838966696489"><ele>-0.5</ele><time>2026-05-03T15:51:19.001Z</time></trkpt><trkpt lat="44.161898475598086" lon="12.431591303620943"><ele>-1.0</ele><time>2026-05-03T15:51:20.001Z</time></trkpt><trkpt lat="44.16204381181657" lon="12.43134198697196"><ele>-1.5</ele><time>2026-05-03T15:51:21.001Z</time></trkpt><trkpt lat="44.16218795314283" lon="12.43109171583668"><ele>-2.0</ele><time>2026-05-03T15:51:22.001Z</time></trkpt><trkpt lat="44.1623322058245" lon="12.430845298385687"><ele>-1.0</ele><time>2026-05-03T15:51:23.001Z</time></trkpt><trkpt lat="44.162481943792336" lon="12.430597496144582"><ele>0.0</ele><time>2026-05-03T15:51:24.001Z</time></trkpt><trkpt lat="44.16263705792393" lon="12.430353592371429"><ele>0.5</ele><time>2026-05-03T15:51:25.001Z</time></trkpt><trkpt lat="44.16279245479712" lon="12.430113528896975"><ele>1.0</ele><time>2026-05-03T15:51:26.001Z</time></trkpt><trkpt lat="44.16295197205772" lon="12.429866732232028"><ele>1.0</ele><time>2026-05-03T15:51:27.001Z</time></trkpt><trkpt lat="44.163114311270405" lon="12.429636077100241"><ele>1.0</ele><time>2026-05-03T15:51:28.001Z</time></trkpt><trkpt lat="44.16328369662397" lon="12.429398275781445"><ele>1.5</ele><time>2026-05-03T15:51:29.001Z</time></trkpt><trkpt lat="44.16345713985548" lon="12.42916268304186"><ele>2.0</ele><time>2026-05-03T15:51:30.001Z</time></trkpt><trkpt lat="44.16363690367803" lon="12.428931670107131"><ele>1.5</ele><time>2026-05-03T15:51:31.001Z</time></trkpt><trkpt lat="44.16382957410764" lon="12.42870159726446"><ele>1.0</ele><time>2026-05-03T15:51:32.001Z</time></trkpt><trkpt lat="44.16402695384313" lon="12.428477145067028"><ele>1.5</ele><time>2026-05-03T15:51:33.001Z</time></trkpt><trkpt lat="44.16423062274213" lon="12.428257113971837"><ele>2.0</ele><time>2026-05-03T15:51:34.001Z</time></trkpt><trkpt lat="44.16444332462604" lon="12.428040671381495"><ele>1.5</ele><time>2026-05-03T15:51:35.001Z</time></trkpt><trkpt lat="44.16465469005996" lon="12.42782486826174"><ele>1.0</ele><time>2026-05-03T15:51:36.001Z</time></trkpt><trkpt lat="44.1648599759159" lon="12.42761208881744"><ele>1.5</ele><time>2026-05-03T15:51:37.001Z</time></trkpt><trkpt lat="44.1650586727721" lon="12.427401397032865"><ele>2.0</ele><time>2026-05-03T15:51:38.001Z</time></trkpt><trkpt lat="44.165244906078826" lon="12.427200085779253"><ele>1.3333333333333333</ele><time>2026-05-03T15:51:39.001Z</time></trkpt><trkpt lat="44.165425975916385" lon="12.427008525881302"><ele>0.6666666666666666</ele><time>2026-05-03T15:51:40.001Z</time></trkpt><trkpt lat="44.16560136675298" lon="12.426822110786931"><ele>0.0</ele><time>2026-05-03T15:51:41.001Z</time></trkpt><trkpt lat="44.16578215588991" lon="12.426630261530866"><ele>0.0</ele><time>2026-05-03T15:51:42.001Z</time></trkpt><trkpt lat="44.16596977983772" lon="12.42643357114782"><ele>0.0</ele><time>2026-05-03T15:51:43.001Z</time></trkpt><trkpt lat="44.166160246091295" lon="12.42623207439293"><ele>0.5</ele><time>2026-05-03T15:51:44.001Z</time></trkpt><trkpt lat="44.16635084639647" lon="12.426023436311937"><ele>1.0</ele><time>2026-05-03T15:51:45.001Z</time></trkpt><trkpt lat="44.166541292203696" lon="12.42581832142701"><ele>1.0</ele><time>2026-05-03T15:51:46.001Z</time></trkpt><trkpt lat="44.16672960439481" lon="12.425617422218902"><ele>1.0</ele><time>2026-05-03T15:51:47.001Z</time></trkpt><trkpt lat="44.166919521579885" lon="12.42541781302653"><ele>1.0</ele><time>2026-05-03T15:51:48.001Z</time></trkpt><trkpt lat="44.16710956898554" lon="12.425215900208165"><ele>1.0</ele><time>2026-05-03T15:51:49.001Z</time></trkpt><trkpt lat="44.16729840075726" lon="12.425014851930197"><ele>1.0</ele><time>2026-05-03T15:51:50.001Z</time></trkpt><trkpt lat="44.16748309785583" lon="12.424815560865847"><ele>1.0</ele><time>2026-05-03T15:51:51.001Z</time></trkpt><trkpt lat="44.16767429149272" lon="12.424610122225074"><ele>1.0</ele><time>2026-05-03T15:51:52.001Z</time></trkpt><trkpt lat="44.167866497664505" lon="12.424407535319258"><ele>1.0</ele><time>2026-05-03T15:51:53.001Z</time></trkpt><trkpt lat="44.168059242847484" lon="12.424207525270834"><ele>1.5</ele><time>2026-05-03T15:51:54.001Z</time></trkpt><trkpt lat="44.168253197966266" lon="12.42400155626826"><ele>2.0</ele><time>2026-05-03T15:51:55.001Z</time></trkpt><trkpt lat="44.16844381755324" lon="12.423798696993389"><ele>2.0</ele><time>2026-05-03T15:51:56.001Z</time></trkpt><trkpt lat="44.16863480820102" lon="12.423596158807925"><ele>2.0</ele><time>2026-05-03T15:51:57.001Z</time></trkpt><trkpt lat="44.16881962609316" lon="12.423400246109097"><ele>2.0</ele><time>2026-05-03T15:51:58.001Z</time></trkpt><trkpt lat="44.16900742232893" lon="12.423198664285964"><ele>2.0</ele><time>2026-05-03T15:51:59.001Z</time></trkpt><trkpt lat="44.169192943082756" lon="12.423002360576177"><ele>1.0</ele><time>2026-05-03T15:52:00.001Z</time></trkpt><trkpt lat="44.16956827704177" lon="12.422605849015167"><ele>0.0</ele><time>2026-05-03T15:52:02.001Z</time></trkpt><trkpt lat="44.16994273334367" lon="12.422209656023115"><ele>-0.5</ele><time>2026-05-03T15:52:04.001Z</time></trkpt><trkpt lat="44.170127336508315" lon="12.422016019203745"><ele>-1.0</ele><time>2026-05-03T15:52:05.001Z</time></trkpt><trkpt lat="44.17069400605214" lon="12.42140645615732"><ele>-1.0</ele><time>2026-05-03T15:52:08.001Z</time></trkpt><trkpt lat="44.171081774123714" lon="12.420991826339728"><ele>-1.0</ele><time>2026-05-03T15:52:10.001Z</time></trkpt><trkpt lat="44.17128157431506" lon="12.420777525698005"><ele>-1.0</ele><time>2026-05-03T15:52:11.001Z</time></trkpt><trkpt lat="44.17148244046384" lon="12.420563929745464"><ele>-1.0</ele><time>2026-05-03T15:52:12.001Z</time></trkpt><trkpt lat="44.171686581577475" lon="12.420348891358513"><ele>-1.0</ele><time>2026-05-03T15:52:13.001Z</time></trkpt><trkpt lat="44.17188959297284" lon="12.420132270503009"><ele>-1.0</ele><time>2026-05-03T15:52:14.001Z</time></trkpt><trkpt lat="44.17209187902536" lon="12.41991802898629"><ele>-1.0</ele><time>2026-05-03T15:52:15.001Z</time></trkpt><trkpt lat="44.17229558992118" lon="12.419703005779912"><ele>-0.5</ele><time>2026-05-03T15:52:16.001Z</time></trkpt><trkpt lat="44.17250094580133" lon="12.419486739155502"><ele>0.0</ele><time>2026-05-03T15:52:17.001Z</time></trkpt><trkpt lat="44.17270683222958" lon="12.41926830462681"><ele>0.0</ele><time>2026-05-03T15:52:18.001Z</time></trkpt><trkpt lat="44.172909203904425" lon="12.419052807521053"><ele>0.0</ele><time>2026-05-03T15:52:19.001Z</time></trkpt><trkpt lat="44.17311189150641" lon="12.418840749663625"><ele>-0.5</ele><time>2026-05-03T15:52:20.001Z</time></trkpt><trkpt lat="44.173312709671386" lon="12.418630497625784"><ele>-1.0</ele><time>2026-05-03T15:52:21.001Z</time></trkpt><trkpt lat="44.17351908332115" lon="12.41840364786561"><ele>-1.0</ele><time>2026-05-03T15:52:22.001Z</time></trkpt><trkpt lat="44.17371720427948" lon="12.418199713272966"><ele>-1.0</ele><time>2026-05-03T15:52:23.001Z</time></trkpt><trkpt lat="44.17390924842605" lon="12.417992149307318"><ele>-2.5</ele><time>2026-05-03T15:52:24.001Z</time></trkpt><trkpt lat="44.1741022772532" lon="12.417782103857093"><ele>-4.0</ele><time>2026-05-03T15:52:25.001Z</time></trkpt><trkpt lat="44.174295402008426" lon="12.417576248426228"><ele>-4.0</ele><time>2026-05-03T15:52:26.001Z</time></trkpt><trkpt lat="44.17448455001073" lon="12.417377503779486"><ele>-4.0</ele><time>2026-05-03T15:52:27.001Z</time></trkpt><trkpt lat="44.17466630979685" lon="12.41718469671536"><ele>-3.5</ele><time>2026-05-03T15:52:28.001Z</time></trkpt><trkpt lat="44.174847232809405" lon="12.416995795208305"><ele>-3.0</ele><time>2026-05-03T15:52:29.002Z</time></trkpt><trkpt lat="44.175030732602615" lon="12.416803292718262"><ele>-3.0</ele><time>2026-05-03T15:52:30.002Z</time></trkpt><trkpt lat="44.1752117998754" lon="12.416612914589834"><ele>-3.0</ele><time>2026-05-03T15:52:31.002Z</time></trkpt><trkpt lat="44.17539111210716" lon="12.416418805620655"><ele>-2.0</ele><time>2026-05-03T15:52:32.002Z</time></trkpt><trkpt lat="44.1755773590557" lon="12.416220956702668"><ele>-1.0</ele><time>2026-05-03T15:52:33.002Z</time></trkpt><trkpt lat="44.17577007152398" lon="12.416016298349584"><ele>-1.0</ele><time>2026-05-03T15:52:34.002Z</time></trkpt><trkpt lat="44.17596386996611" lon="12.415809056530103"><ele>-1.0</ele><time>2026-05-03T15:52:35.002Z</time></trkpt><trkpt lat="44.176153263718696" lon="12.415608690374942"><ele>-1.0</ele><time>2026-05-03T15:52:36.002Z</time></trkpt><trkpt lat="44.17634348617366" lon="12.415410896940871"><ele>-1.0</ele><time>2026-05-03T15:52:37.002Z</time></trkpt><trkpt lat="44.176535571917135" lon="12.415215758277732"><ele>-1.0</ele><time>2026-05-03T15:52:38.002Z</time></trkpt><trkpt lat="44.17673358574337" lon="12.415019945559617"><ele>-1.0</ele><time>2026-05-03T15:52:39.002Z</time></trkpt><trkpt lat="44.176925881234155" lon="12.414833136732316"><ele>-0.5</ele><time>2026-05-03T15:52:40.002Z</time></trkpt><trkpt lat="44.17711983982206" lon="12.414652818613"><ele>0.0</ele><time>2026-05-03T15:52:41.002Z</time></trkpt><trkpt lat="44.177318950830674" lon="12.414471811693367"><ele>0.0</ele><time>2026-05-03T15:52:42.002Z</time></trkpt><trkpt lat="44.17751899612521" lon="12.414296475521303"><ele>0.0</ele><time>2026-05-03T15:52:43.002Z</time></trkpt><trkpt lat="44.17771982921476" lon="12.41412169767004"><ele>0.0</ele><time>2026-05-03T15:52:44.002Z</time></trkpt><trkpt lat="44.1779234429119" lon="12.413958329241392"><ele>0.0</ele><time>2026-05-03T15:52:45.002Z</time></trkpt><trkpt lat="44.17812976156324" lon="12.413808239519748"><ele>0.0</ele><time>2026-05-03T15:52:46.002Z</time></trkpt><trkpt lat="44.17833974916595" lon="12.413655282167818"><ele>0.0</ele><time>2026-05-03T15:52:47.002Z</time></trkpt><trkpt lat="44.178552754084976" lon="12.413502423378283"><ele>0.0</ele><time>2026-05-03T15:52:48.002Z</time></trkpt><trkpt lat="44.17876556263001" lon="12.413355867405764"><ele>0.0</ele><time>2026-05-03T15:52:49.002Z</time></trkpt><trkpt lat="44.1789820330292" lon="12.41320916319091"><ele>-0.5</ele><time>2026-05-03T15:52:50.002Z</time></trkpt><trkpt lat="44.17920756851244" lon="12.413055529595056"><ele>-1.0</ele><time>2026-05-03T15:52:51.002Z</time></trkpt><trkpt lat="44.17942093858339" lon="12.412913385280481"><ele>-1.5</ele><time>2026-05-03T15:52:52.002Z</time></trkpt><trkpt lat="44.17963912741319" lon="12.41276818787165"><ele>-2.0</ele><time>2026-05-03T15:52:53.002Z</time></trkpt><trkpt lat="44.179858848834144" lon="12.41262435321137"><ele>-2.0</ele><time>2026-05-03T15:52:54.002Z</time></trkpt><trkpt lat="44.1800757012366" lon="12.412481701828682"><ele>-2.0</ele><time>2026-05-03T15:52:55.002Z</time></trkpt><trkpt lat="44.18029063360195" lon="12.412337668202172"><ele>-2.0</ele><time>2026-05-03T15:52:56.002Z</time></trkpt><trkpt lat="44.18051021277193" lon="12.41218839344883"><ele>-2.0</ele><time>2026-05-03T15:52:57.002Z</time></trkpt><trkpt lat="44.18072537876714" lon="12.41204513716832"><ele>-1.5</ele><time>2026-05-03T15:52:58.002Z</time></trkpt><trkpt lat="44.18093869691156" lon="12.411902017962396"><ele>-1.0</ele><time>2026-05-03T15:52:59.002Z</time></trkpt><trkpt lat="44.181141992009834" lon="12.411767450277685"><ele>-1.0</ele><time>2026-05-03T15:53:00.002Z</time></trkpt><trkpt lat="44.18133474471941" lon="12.41163816493687"><ele>-1.0</ele><time>2026-05-03T15:53:01.002Z</time></trkpt><trkpt lat="44.181533509488396" lon="12.411506632972644"><ele>-1.0</ele><time>2026-05-03T15:53:02.002Z</time></trkpt><trkpt lat="44.18173445519186" lon="12.411370463931032"><ele>-1.5</ele><time>2026-05-03T15:53:03.002Z</time></trkpt><trkpt lat="44.18193239326321" lon="12.411229048040699"><ele>-2.0</ele><time>2026-05-03T15:53:04.002Z</time></trkpt><trkpt lat="44.18214002507421" lon="12.411076993961487"><ele>-2.0</ele><time>2026-05-03T15:53:05.002Z</time></trkpt><trkpt lat="44.18236774152087" lon="12.410915666992386"><ele>-2.0</ele><time>2026-05-03T15:53:06.002Z</time></trkpt><trkpt lat="44.182610003153286" lon="12.410752094991157"><ele>-2.0</ele><time>2026-05-03T15:53:06.998Z</time></trkpt><trkpt lat="44.18285680635267" lon="12.410587814264641"><ele>-2.0</ele><time>2026-05-03T15:53:07.998Z</time></trkpt><trkpt lat="44.18310930476187" lon="12.410418278249256"><ele>-1.5</ele><time>2026-05-03T15:53:08.998Z</time></trkpt><trkpt lat="44.18335772963992" lon="12.41025780664721"><ele>-1.0</ele><time>2026-05-03T15:53:09.998Z</time></trkpt><trkpt lat="44.18359454312196" lon="12.410107597779183"><ele>-1.0</ele><time>2026-05-03T15:53:10.998Z</time></trkpt><trkpt lat="44.183814149699394" lon="12.409968729133174"><ele>-1.0</ele><time>2026-05-03T15:53:11.998Z</time></trkpt><trkpt lat="44.1840345092559" lon="12.409833506232227"><ele>-1.0</ele><time>2026-05-03T15:53:12.998Z</time></trkpt><trkpt lat="44.184257703705704" lon="12.409693094614441"><ele>-1.0</ele><time>2026-05-03T15:53:13.998Z</time></trkpt><trkpt lat="44.18447386362785" lon="12.409553804055394"><ele>-1.5</ele><time>2026-05-03T15:53:14.998Z</time></trkpt><trkpt lat="44.184685894967615" lon="12.409406236876663"><ele>-2.0</ele><time>2026-05-03T15:53:15.998Z</time></trkpt><trkpt lat="44.18489028584722" lon="12.409273010144613"><ele>-2.0</ele><time>2026-05-03T15:53:16.998Z</time></trkpt><trkpt lat="44.18509273394359" lon="12.40913355703466"><ele>-2.0</ele><time>2026-05-03T15:53:17.998Z</time></trkpt><trkpt lat="44.185288705340355" lon="12.408990442523134"><ele>-2.0</ele><time>2026-05-03T15:53:18.998Z</time></trkpt><trkpt lat="44.1854830757398" lon="12.408841488693099"><ele>-2.0</ele><time>2026-05-03T15:53:19.998Z</time></trkpt><trkpt lat="44.185670801420954" lon="12.408693872060688"><ele>-2.0</ele><time>2026-05-03T15:53:20.999Z</time></trkpt><trkpt lat="44.18585895355732" lon="12.408541390741016"><ele>-2.0</ele><time>2026-05-03T15:53:21.999Z</time></trkpt><trkpt lat="44.186043534527116" lon="12.408381841391277"><ele>-1.3333333333333333</ele><time>2026-05-03T15:53:22.999Z</time></trkpt><trkpt lat="44.18622930386629" lon="12.40821390894605"><ele>-0.6666666666666666</ele><time>2026-05-03T15:53:23.999Z</time></trkpt><trkpt lat="44.18641677173387" lon="12.408036502741947"><ele>0.0</ele><time>2026-05-03T15:53:24.999Z</time></trkpt><trkpt lat="44.186601554181486" lon="12.407853336797734"><ele>1.0</ele><time>2026-05-03T15:53:25.999Z</time></trkpt><trkpt lat="44.18678375209312" lon="12.40766608274224"><ele>2.0</ele><time>2026-05-03T15:53:26.999Z</time></trkpt><trkpt lat="44.186962811260976" lon="12.407473042333217"><ele>2.0</ele><time>2026-05-03T15:53:27.999Z</time></trkpt><trkpt lat="44.1871420582171" lon="12.407269265144258"><ele>2.0</ele><time>2026-05-03T15:53:28.999Z</time></trkpt><trkpt lat="44.18731805830887" lon="12.407064557588756"><ele>2.0</ele><time>2026-05-03T15:53:29.999Z</time></trkpt><trkpt lat="44.18749084515632" lon="12.406849725556134"><ele>2.0</ele><time>2026-05-03T15:53:30.999Z</time></trkpt><trkpt lat="44.1876570008508" lon="12.406634972718576"><ele>2.0</ele><time>2026-05-03T15:53:31.999Z</time></trkpt><trkpt lat="44.18781491298316" lon="12.406426366613418"><ele>2.0</ele><time>2026-05-03T15:53:32.999Z</time></trkpt><trkpt lat="44.187967374677385" lon="12.406218231702214"><ele>2.0</ele><time>2026-05-03T15:53:33.999Z</time></trkpt><trkpt lat="44.18811715873966" lon="12.406001091256327"><ele>2.0</ele><time>2026-05-03T15:53:34.999Z</time></trkpt><trkpt lat="44.188262454243386" lon="12.405782520190247"><ele>2.0</ele><time>2026-05-03T15:53:35.999Z</time></trkpt><trkpt lat="44.18840865126498" lon="12.405554523532226"><ele>2.0</ele><time>2026-05-03T15:53:37Z</time></trkpt><trkpt lat="44.18855116946649" lon="12.405328256004092"><ele>2.0</ele><time>2026-05-03T15:53:38Z</time></trkpt><trkpt lat="44.18868781836304" lon="12.405100872024448"><ele>2.0</ele><time>2026-05-03T15:53:39Z</time></trkpt><trkpt lat="44.1888263983829" lon="12.404864824104534"><ele>2.0</ele><time>2026-05-03T15:53:40Z</time></trkpt><trkpt lat="44.18896419021234" lon="12.40463301064627"><ele>2.0</ele><time>2026-05-03T15:53:41Z</time></trkpt><trkpt lat="44.18909892441514" lon="12.4044058822341"><ele>2.0</ele><time>2026-05-03T15:53:42Z</time></trkpt><trkpt lat="44.18923234170339" lon="12.404182360984432"><ele>2.0</ele><time>2026-05-03T15:53:43Z</time></trkpt><trkpt lat="44.18936521982649" lon="12.403965184754641"><ele>2.0</ele><time>2026-05-03T15:53:44Z</time></trkpt><trkpt lat="44.189497860722355" lon="12.403753431039428"><ele>2.0</ele><time>2026-05-03T15:53:45Z</time></trkpt><trkpt lat="44.189627937714796" lon="12.403541979909702"><ele>2.0</ele><time>2026-05-03T15:53:46Z</time></trkpt><trkpt lat="44.189762602988345" lon="12.403324622635742"><ele>2.0</ele><time>2026-05-03T15:53:47Z</time></trkpt><trkpt lat="44.1898923214341" lon="12.403115183336569"><ele>2.0</ele><time>2026-05-03T15:53:48Z</time></trkpt><trkpt lat="44.19001768177624" lon="12.402911107900302"><ele>2.0</ele><time>2026-05-03T15:53:49Z</time></trkpt><trkpt lat="44.19013847764904" lon="12.402717401011117"><ele>1.5</ele><time>2026-05-03T15:53:50Z</time></trkpt><trkpt lat="44.190368915000754" lon="12.402340541151812"><ele>1.0</ele><time>2026-05-03T15:53:52Z</time></trkpt><trkpt lat="44.190490535846486" lon="12.402147719947912"><ele>1.0</ele><time>2026-05-03T15:53:53Z</time></trkpt><trkpt lat="44.19061650082895" lon="12.401946336372008"><ele>1.0</ele><time>2026-05-03T15:53:54Z</time></trkpt><trkpt lat="44.190742301238885" lon="12.40174309125812"><ele>1.0</ele><time>2026-05-03T15:53:55Z</time></trkpt><trkpt lat="44.19087136477759" lon="12.401531961517756"><ele>0.6666666666666666</ele><time>2026-05-03T15:53:56Z</time></trkpt><trkpt lat="44.1910034530858" lon="12.401318067449811"><ele>0.3333333333333333</ele><time>2026-05-03T15:53:57Z</time></trkpt><trkpt lat="44.191130647044204" lon="12.401112092363663"><ele>0.0</ele><time>2026-05-03T15:53:58Z</time></trkpt><trkpt lat="44.19125775048734" lon="12.400904793300867"><ele>0.0</ele><time>2026-05-03T15:53:59Z</time></trkpt><trkpt lat="44.19138493763876" lon="12.400701102271627"><ele>0.0</ele><time>2026-05-03T15:54:00Z</time></trkpt><trkpt lat="44.19151416231534" lon="12.400495638870206"><ele>0.0</ele><time>2026-05-03T15:54:01Z</time></trkpt><trkpt lat="44.19164740456417" lon="12.400282634488972"><ele>0.0</ele><time>2026-05-03T15:54:02Z</time></trkpt><trkpt lat="44.19177540370525" lon="12.400072203220887"><ele>0.0</ele><time>2026-05-03T15:54:03Z</time></trkpt><trkpt lat="44.19190829226259" lon="12.399856896027838"><ele>0.0</ele><time>2026-05-03T15:54:04Z</time></trkpt><trkpt lat="44.192033912750965" lon="12.399653099902709"><ele>0.3333333333333333</ele><time>2026-05-03T15:54:05.001Z</time></trkpt><trkpt lat="44.19216491335414" lon="12.399445763507556"><ele>0.6666666666666666</ele><time>2026-05-03T15:54:06.001Z</time></trkpt><trkpt lat="44.19229325109844" lon="12.399240445733197"><ele>1.0</ele><time>2026-05-03T15:54:07.001Z</time></trkpt><trkpt lat="44.192411368427294" lon="12.399050285534337"><ele>1.0</ele><time>2026-05-03T15:54:08.001Z</time></trkpt><trkpt lat="44.19253414601276" lon="12.398851660457021"><ele>1.0</ele><time>2026-05-03T15:54:09.001Z</time></trkpt><trkpt lat="44.192658905992836" lon="12.398652730434415"><ele>1.0</ele><time>2026-05-03T15:54:10.001Z</time></trkpt><trkpt lat="44.19279055702552" lon="12.398442420278109"><ele>0.6666666666666666</ele><time>2026-05-03T15:54:11.001Z</time></trkpt><trkpt lat="44.19292144352317" lon="12.398228082840062"><ele>0.3333333333333333</ele><time>2026-05-03T15:54:12.001Z</time></trkpt><trkpt lat="44.1930522453665" lon="12.39801678101392"><ele>0.0</ele><time>2026-05-03T15:54:13.001Z</time></trkpt><trkpt lat="44.19318077956889" lon="12.397808826798402"><ele>0.0</ele><time>2026-05-03T15:54:14.001Z</time></trkpt><trkpt lat="44.19330070229346" lon="12.397615154105043"><ele>0.0</ele><time>2026-05-03T15:54:15.001Z</time></trkpt><trkpt lat="44.193427919753134" lon="12.3974074430773"><ele>0.0</ele><time>2026-05-03T15:54:16.001Z</time></trkpt><trkpt lat="44.1935588869916" lon="12.397191544881048"><ele>0.3333333333333333</ele><time>2026-05-03T15:54:17.001Z</time></trkpt><trkpt lat="44.19369855976507" lon="12.396963693582544"><ele>0.6666666666666666</ele><time>2026-05-03T15:54:18.001Z</time></trkpt><trkpt lat="44.19381752011259" lon="12.396777214075044"><ele>1.0</ele><time>2026-05-03T15:54:19.001Z</time></trkpt><trkpt lat="44.193948585261566" lon="12.396567758450585"><ele>0.6666666666666666</ele><time>2026-05-03T15:54:20.001Z</time></trkpt><trkpt lat="44.194082570073064" lon="12.396354185747809"><ele>0.3333333333333333</ele><time>2026-05-03T15:54:21.001Z</time></trkpt><trkpt lat="44.194216824525284" lon="12.396138124758586"><ele>0.0</ele><time>2026-05-03T15:54:22.001Z</time></trkpt><trkpt lat="44.194349141101846" lon="12.395923473600213"><ele>0.0</ele><time>2026-05-03T15:54:23.001Z</time></trkpt><trkpt lat="44.19448195165865" lon="12.395710175877815"><ele>0.0</ele><time>2026-05-03T15:54:24.001Z</time></trkpt><trkpt lat="44.194613280912556" lon="12.395497353220845"><ele>0.0</ele><time>2026-05-03T15:54:25.001Z</time></trkpt><trkpt lat="44.19474555843572" lon="12.39528385769587"><ele>0.0</ele><time>2026-05-03T15:54:26.001Z</time></trkpt><trkpt lat="44.194875086856506" lon="12.395074811036396"><ele>0.0</ele><time>2026-05-03T15:54:27.001Z</time></trkpt><trkpt lat="44.19500210148312" lon="12.394870859649684"><ele>0.0</ele><time>2026-05-03T15:54:28.001Z</time></trkpt><trkpt lat="44.19513203064556" lon="12.394660328098794"><ele>0.0</ele><time>2026-05-03T15:54:29.001Z</time></trkpt><trkpt lat="44.19525871370811" lon="12.394454531773217"><ele>0.0</ele><time>2026-05-03T15:54:30.001Z</time></trkpt><trkpt lat="44.19538850376134" lon="12.394244506513722"><ele>0.0</ele><time>2026-05-03T15:54:31.001Z</time></trkpt><trkpt lat="44.195519576193774" lon="12.394032344668084"><ele>-0.3333333333333333</ele><time>2026-05-03T15:54:32.001Z</time></trkpt><trkpt lat="44.1956485550229" lon="12.393817308483701"><ele>-0.6666666666666666</ele><time>2026-05-03T15:54:33.001Z</time></trkpt><trkpt lat="44.195774272711695" lon="12.393606237363631"><ele>-1.0</ele><time>2026-05-03T15:54:34.001Z</time></trkpt><trkpt lat="44.195904893089526" lon="12.393400226235121"><ele>-1.0</ele><time>2026-05-03T15:54:35.001Z</time></trkpt><trkpt lat="44.196029911096275" lon="12.393206252259144"><ele>-1.0</ele><time>2026-05-03T15:54:36.001Z</time></trkpt><trkpt lat="44.196147150381236" lon="12.393017446219927"><ele>-1.0</ele><time>2026-05-03T15:54:37.001Z</time></trkpt><trkpt lat="44.19626124273653" lon="12.392834110768835"><ele>-1.0</ele><time>2026-05-03T15:54:38.001Z</time></trkpt><trkpt lat="44.1963758777498" lon="12.392648696658455"><ele>-1.0</ele><time>2026-05-03T15:54:39.001Z</time></trkpt><trkpt lat="44.196490150846" lon="12.392463452163573"><ele>-1.0</ele><time>2026-05-03T15:54:40.001Z</time></trkpt><trkpt lat="44.19660539792639" lon="12.392279364262455"><ele>-0.6666666666666666</ele><time>2026-05-03T15:54:41.001Z</time></trkpt><trkpt lat="44.19672118484953" lon="12.392095606042728"><ele>-0.3333333333333333</ele><time>2026-05-03T15:54:42.001Z</time></trkpt><trkpt lat="44.19682269990832" lon="12.391932571479487"><ele>0.0</ele><time>2026-05-03T15:54:43.001Z</time></trkpt><trkpt lat="44.196923654681825" lon="12.39177005428012"><ele>0.0</ele><time>2026-05-03T15:54:44.001Z</time></trkpt><trkpt lat="44.19702457535574" lon="12.391610022393655"><ele>0.0</ele><time>2026-05-03T15:54:45.002Z</time></trkpt><trkpt lat="44.19712049506581" lon="12.391458877077062"><ele>0.0</ele><time>2026-05-03T15:54:46.002Z</time></trkpt><trkpt lat="44.19720966873885" lon="12.391321476910885"><ele>0.0</ele><time>2026-05-03T15:54:47.002Z</time></trkpt><trkpt lat="44.19730042562978" lon="12.39118733325041"><ele>0.0</ele><time>2026-05-03T15:54:48.002Z</time></trkpt><trkpt lat="44.19738906029876" lon="12.391065932495303"><ele>0.0</ele><time>2026-05-03T15:54:49.002Z</time></trkpt><trkpt lat="44.19747368732085" lon="12.390956805103357"><ele>0.0</ele><time>2026-05-03T15:54:50.002Z</time></trkpt><trkpt lat="44.197550157061144" lon="12.390865074675116"><ele>0.0</ele><time>2026-05-03T15:54:51.002Z</time></trkpt><trkpt lat="44.19762214980427" lon="12.390781340416256"><ele>0.0</ele><time>2026-05-03T15:54:52.002Z</time></trkpt><trkpt lat="44.19769581839816" lon="12.390692698145193"><ele>0.0</ele><time>2026-05-03T15:54:53.002Z</time></trkpt><trkpt lat="44.19776951210165" lon="12.390610468798762"><ele>0.0</ele><time>2026-05-03T15:54:54.002Z</time></trkpt><trkpt lat="44.19784623786544" lon="12.390527402098304"><ele>0.0</ele><time>2026-05-03T15:54:55.002Z</time></trkpt><trkpt lat="44.19792643025485" lon="12.390441272018329"><ele>0.0</ele><time>2026-05-03T15:54:56.002Z</time></trkpt><trkpt lat="44.198010576013374" lon="12.390354577546795"><ele>0.0</ele><time>2026-05-03T15:54:57.002Z</time></trkpt><trkpt lat="44.19809429398021" lon="12.390276287186875"><ele>0.2</ele><time>2026-05-03T15:54:58.002Z</time></trkpt><trkpt lat="44.19817579506732" lon="12.39019953323138"><ele>0.4</ele><time>2026-05-03T15:54:59.002Z</time></trkpt><trkpt lat="44.19825664927428" lon="12.390126271257213"><ele>0.6000000000000001</ele><time>2026-05-03T15:55:00.002Z</time></trkpt><trkpt lat="44.19834297219871" lon="12.390053720214674"><ele>0.8</ele><time>2026-05-03T15:55:01.002Z</time></trkpt><trkpt lat="44.198433644205736" lon="12.389979647673302"><ele>1.0</ele><time>2026-05-03T15:55:02.002Z</time></trkpt><trkpt lat="44.198516446568156" lon="12.389913781102951"><ele>1.0</ele><time>2026-05-03T15:55:03.002Z</time></trkpt><trkpt lat="44.19859958892802" lon="12.389849656198257"><ele>1.0</ele><time>2026-05-03T15:55:04.002Z</time></trkpt><trkpt lat="44.19869205515401" lon="12.389784216333378"><ele>1.0</ele><time>2026-05-03T15:55:05.002Z</time></trkpt><trkpt lat="44.1987890967955" lon="12.38972344369684"><ele>1.0</ele><time>2026-05-03T15:55:06.002Z</time></trkpt><trkpt lat="44.19888370731548" lon="12.389660025988936"><ele>1.0</ele><time>2026-05-03T15:55:07.002Z</time></trkpt><trkpt lat="44.19897200253114" lon="12.38959875252643"><ele>0.20000000000000007</ele><time>2026-05-03T15:55:08.002Z</time></trkpt><trkpt lat="44.19906530712617" lon="12.38954058730463"><ele>-0.5999999999999999</ele><time>2026-05-03T15:55:09.002Z</time></trkpt><trkpt lat="44.19916673483838" lon="12.389483881928019"><ele>-1.4</ele><time>2026-05-03T15:55:10.002Z</time></trkpt><trkpt lat="44.19926603822607" lon="12.389433675840486"><ele>-2.1999999999999997</ele><time>2026-05-03T15:55:11.002Z</time></trkpt><trkpt lat="44.19936632951191" lon="12.389381290162087"><ele>-3.0</ele><time>2026-05-03T15:55:12.002Z</time></trkpt><trkpt lat="44.199467746542894" lon="12.389329706862831"><ele>-3.0</ele><time>2026-05-03T15:55:13Z</time></trkpt><trkpt lat="44.199565037884476" lon="12.38928901118763"><ele>-3.0</ele><time>2026-05-03T15:55:14Z</time></trkpt><trkpt lat="44.19966323324095" lon="12.389250944783937"><ele>-3.0</ele><time>2026-05-03T15:55:15Z</time></trkpt><trkpt lat="44.199768622668486" lon="12.389212050328835"><ele>-3.0</ele><time>2026-05-03T15:55:16Z</time></trkpt><trkpt lat="44.199876444215334" lon="12.389178655812172"><ele>-3.0</ele><time>2026-05-03T15:55:17Z</time></trkpt><trkpt lat="44.19999243848431" lon="12.389142639323651"><ele>-3.2</ele><time>2026-05-03T15:55:18Z</time></trkpt><trkpt lat="44.20011435865132" lon="12.389107132974193"><ele>-3.4</ele><time>2026-05-03T15:55:19Z</time></trkpt><trkpt lat="44.200225928190726" lon="12.389073046741107"><ele>-3.6000000000000005</ele><time>2026-05-03T15:55:20Z</time></trkpt><trkpt lat="44.200328394236216" lon="12.389044524189757"><ele>-3.8000000000000003</ele><time>2026-05-03T15:55:21Z</time></trkpt><trkpt lat="44.20042363403583" lon="12.389018642727672"><ele>-4.0</ele><time>2026-05-03T15:55:22Z</time></trkpt><trkpt lat="44.20052222831551" lon="12.388987919499742"><ele>-4.0</ele><time>2026-05-03T15:55:23Z</time></trkpt><trkpt lat="44.200620845211326" lon="12.388957078062116"><ele>-4.0</ele><time>2026-05-03T15:55:24Z</time></trkpt><trkpt lat="44.200723105701535" lon="12.38892650855605"><ele>-4.0</ele><time>2026-05-03T15:55:25Z</time></trkpt><trkpt lat="44.200824393197394" lon="12.388896731597178"><ele>-4.0</ele><time>2026-05-03T15:55:26Z</time></trkpt><trkpt lat="44.20092531506018" lon="12.388865356879748"><ele>-4.0</ele><time>2026-05-03T15:55:27Z</time></trkpt><trkpt lat="44.201027451298515" lon="12.388839367057889"><ele>-3.4000000000000004</ele><time>2026-05-03T15:55:28Z</time></trkpt><trkpt lat="44.20113601011158" lon="12.388811233846358"><ele>-2.8000000000000003</ele><time>2026-05-03T15:55:29Z</time></trkpt><trkpt lat="44.20124474047669" lon="12.388782264385712"><ele>-2.2</ele><time>2026-05-03T15:55:30Z</time></trkpt><trkpt lat="44.201351082014945" lon="12.388752009016853"><ele>-1.6</ele><time>2026-05-03T15:55:31Z</time></trkpt><trkpt lat="44.20145005053681" lon="12.388725549802869"><ele>-1.0</ele><time>2026-05-03T15:55:32Z</time></trkpt><trkpt lat="44.20153720341098" lon="12.388701810111643"><ele>-0.4</ele><time>2026-05-03T15:55:33Z</time></trkpt><trkpt lat="44.2016161748184" lon="12.388676913599708"><ele>0.19999999999999996</ele><time>2026-05-03T15:55:34Z</time></trkpt><trkpt lat="44.20169365606383" lon="12.388653980420301"><ele>0.8000000000000002</ele><time>2026-05-03T15:55:35Z</time></trkpt><trkpt lat="44.201784093117446" lon="12.388629014637532"><ele>1.4000000000000001</ele><time>2026-05-03T15:55:36Z</time></trkpt><trkpt lat="44.20188618439386" lon="12.388601316500536"><ele>2.0</ele><time>2026-05-03T15:55:37Z</time></trkpt><trkpt lat="44.201988236611015" lon="12.388571699376724"><ele>2.0</ele><time>2026-05-03T15:55:38.001Z</time></trkpt><trkpt lat="44.20209287124961" lon="12.38854040690667"><ele>2.0</ele><time>2026-05-03T15:55:39.001Z</time></trkpt><trkpt lat="44.20220621014914" lon="12.388509881709465"><ele>2.0</ele><time>2026-05-03T15:55:40.001Z</time></trkpt><trkpt lat="44.20233751225964" lon="12.388472627048158"><ele>2.0</ele><time>2026-05-03T15:55:41.001Z</time></trkpt><trkpt lat="44.20248319242677" lon="12.388432836528382"><ele>1.3333333333333333</ele><time>2026-05-03T15:55:42.001Z</time></trkpt><trkpt lat="44.202628098243046" lon="12.388392000312018"><ele>0.6666666666666666</ele><time>2026-05-03T15:55:43.001Z</time></trkpt><trkpt lat="44.202777560460994" lon="12.388346154697931"><ele>0.0</ele><time>2026-05-03T15:55:44.001Z</time></trkpt><trkpt lat="44.202935822163425" lon="12.388301952807161"><ele>0.0</ele><time>2026-05-03T15:55:45.001Z</time></trkpt><trkpt lat="44.20309427738768" lon="12.388260857139192"><ele>0.0</ele><time>2026-05-03T15:55:46.001Z</time></trkpt><trkpt lat="44.20324498069884" lon="12.388219738774437"><ele>0.0</ele><time>2026-05-03T15:55:47.001Z</time></trkpt><trkpt lat="44.203397971545705" lon="12.388177240002939"><ele>-0.3333333333333333</ele><time>2026-05-03T15:55:48.001Z</time></trkpt><trkpt lat="44.203555838338985" lon="12.388133396877532"><ele>-0.6666666666666666</ele><time>2026-05-03T15:55:49.001Z</time></trkpt><trkpt lat="44.203716748065524" lon="12.388089556137665"><ele>-1.0</ele><time>2026-05-03T15:55:50.001Z</time></trkpt><trkpt lat="44.20387881264012" lon="12.38804197637405"><ele>-1.3333333333333333</ele><time>2026-05-03T15:55:51.001Z</time></trkpt><trkpt lat="44.20404822829398" lon="12.387990277674108"><ele>-1.6666666666666665</ele><time>2026-05-03T15:55:52.001Z</time></trkpt><trkpt lat="44.20421639891603" lon="12.387936684345938"><ele>-2.0</ele><time>2026-05-03T15:55:53.001Z</time></trkpt><trkpt lat="44.20438566573679" lon="12.387877395061981"><ele>-2.0</ele><time>2026-05-03T15:55:54.001Z</time></trkpt><trkpt lat="44.20455104154878" lon="12.387815502814375"><ele>-2.0</ele><time>2026-05-03T15:55:55.001Z</time></trkpt><trkpt lat="44.20471121292484" lon="12.3877413676452"><ele>-2.0</ele><time>2026-05-03T15:55:56.001Z</time></trkpt><trkpt lat="44.20487107048487" lon="12.38766739620842"><ele>-2.6666666666666665</ele><time>2026-05-03T15:55:57.001Z</time></trkpt><trkpt lat="44.20502693027986" lon="12.387594709483405"><ele>-3.333333333333333</ele><time>2026-05-03T15:55:58.001Z</time></trkpt><trkpt lat="44.20518126932023" lon="12.387511451665457"><ele>-4.0</ele><time>2026-05-03T15:55:59.001Z</time></trkpt><trkpt lat="44.205335561316055" lon="12.387417421191435"><ele>-4.0</ele><time>2026-05-03T15:56:00.001Z</time></trkpt><trkpt lat="44.20548845527777" lon="12.387320928975079"><ele>-4.0</ele><time>2026-05-03T15:56:01.001Z</time></trkpt><trkpt lat="44.20564608156702" lon="12.387218461264414"><ele>-4.0</ele><time>2026-05-03T15:56:02.001Z</time></trkpt><trkpt lat="44.20579780635096" lon="12.3871118971312"><ele>-3.6666666666666665</ele><time>2026-05-03T15:56:03.001Z</time></trkpt><trkpt lat="44.20595153634261" lon="12.386995236915192"><ele>-3.333333333333333</ele><time>2026-05-03T15:56:04.001Z</time></trkpt><trkpt lat="44.20610016201041" lon="12.386880391970655"><ele>-3.0</ele><time>2026-05-03T15:56:05.001Z</time></trkpt><trkpt lat="44.206253222641394" lon="12.386752476890225"><ele>-3.0</ele><time>2026-05-03T15:56:06.001Z</time></trkpt><trkpt lat="44.2064014582986" lon="12.386624391486857"><ele>-3.0</ele><time>2026-05-03T15:56:07.001Z</time></trkpt><trkpt lat="44.206549365586234" lon="12.38648854866529"><ele>-3.0</ele><time>2026-05-03T15:56:08.001Z</time></trkpt><trkpt lat="44.20669484924764" lon="12.38634706754225"><ele>-2.3333333333333335</ele><time>2026-05-03T15:56:09.001Z</time></trkpt><trkpt lat="44.20684098557799" lon="12.386201025780277"><ele>-1.6666666666666665</ele><time>2026-05-03T15:56:10.001Z</time></trkpt><trkpt lat="44.206986392941275" lon="12.386053802526073"><ele>-1.0</ele><time>2026-05-03T15:56:11.001Z</time></trkpt><trkpt lat="44.20726651734404" lon="12.385761569438698"><ele>-1.0</ele><time>2026-05-03T15:56:13.001Z</time></trkpt><trkpt lat="44.20740757398589" lon="12.385615138343674"><ele>-1.0</ele><time>2026-05-03T15:56:14.001Z</time></trkpt><trkpt lat="44.20754578049213" lon="12.3854753919886"><ele>-1.0</ele><time>2026-05-03T15:56:15.001Z</time></trkpt><trkpt lat="44.20768427081251" lon="12.385337741227708"><ele>-1.0</ele><time>2026-05-03T15:56:16.001Z</time></trkpt><trkpt lat="44.20782144482368" lon="12.385199660727508"><ele>-1.0</ele><time>2026-05-03T15:56:17.001Z</time></trkpt><trkpt lat="44.207962376734535" lon="12.38505549434805"><ele>-1.0</ele><time>2026-05-03T15:56:18.001Z</time></trkpt><trkpt lat="44.208097197531046" lon="12.384914931728307"><ele>-0.3333333333333333</ele><time>2026-05-03T15:56:19.001Z</time></trkpt><trkpt lat="44.20822957921598" lon="12.384776943649234"><ele>0.3333333333333333</ele><time>2026-05-03T15:56:20.001Z</time></trkpt><trkpt lat="44.20836537509346" lon="12.384639713680947"><ele>1.0</ele><time>2026-05-03T15:56:21.001Z</time></trkpt><trkpt lat="44.2084972260986" lon="12.38450195821642"><ele>1.0</ele><time>2026-05-03T15:56:22.002Z</time></trkpt><trkpt lat="44.208624882707994" lon="12.384374138231557"><ele>1.0</ele><time>2026-05-03T15:56:23.002Z</time></trkpt><trkpt lat="44.20875255170758" lon="12.38424561829044"><ele>1.0</ele><time>2026-05-03T15:56:24.002Z</time></trkpt><trkpt lat="44.20887767852195" lon="12.384117558784588"><ele>0.6666666666666666</ele><time>2026-05-03T15:56:25.002Z</time></trkpt><trkpt lat="44.20899952205667" lon="12.383990087848487"><ele>0.3333333333333333</ele><time>2026-05-03T15:56:26.002Z</time></trkpt><trkpt lat="44.20911962367953" lon="12.383867565057548"><ele>0.0</ele><time>2026-05-03T15:56:27.002Z</time></trkpt><trkpt lat="44.20924043465852" lon="12.383741088983397"><ele>-0.25</ele><time>2026-05-03T15:56:28.002Z</time></trkpt><trkpt lat="44.20935882254144" lon="12.383624249986802"><ele>-0.5</ele><time>2026-05-03T15:56:29.002Z</time></trkpt><trkpt lat="44.209478123722675" lon="12.383504760919902"><ele>-0.75</ele><time>2026-05-03T15:56:30.002Z</time></trkpt><trkpt lat="44.209600576121005" lon="12.38337807297692"><ele>-1.0</ele><time>2026-05-03T15:56:31.002Z</time></trkpt><trkpt lat="44.20972046029092" lon="12.383256640851947"><ele>-1.25</ele><time>2026-05-03T15:56:32.002Z</time></trkpt><trkpt lat="44.209830745683604" lon="12.38314299946787"><ele>-1.5</ele><time>2026-05-03T15:56:33.002Z</time></trkpt><trkpt lat="44.209940369815115" lon="12.383027425205492"><ele>-1.75</ele><time>2026-05-03T15:56:34.002Z</time></trkpt><trkpt lat="44.21005577861418" lon="12.382910299192154"><ele>-2.0</ele><time>2026-05-03T15:56:35.002Z</time></trkpt><trkpt lat="44.21018328855024" lon="12.382783430213534"><ele>-2.333333333333333</ele><time>2026-05-03T15:56:36.002Z</time></trkpt><trkpt lat="44.21031657917427" lon="12.382647682512678"><ele>-2.6666666666666665</ele><time>2026-05-03T15:56:37.002Z</time></trkpt><trkpt lat="44.21044762918313" lon="12.382512896367036"><ele>-3.0</ele><time>2026-05-03T15:56:38.002Z</time></trkpt><trkpt lat="44.21058925293221" lon="12.38236695570079"><ele>-2.6666666666666665</ele><time>2026-05-03T15:56:39.002Z</time></trkpt><trkpt lat="44.210723778042336" lon="12.382231639664308"><ele>-2.333333333333333</ele><time>2026-05-03T15:56:40.002Z</time></trkpt><trkpt lat="44.21085999345488" lon="12.38208957033824"><ele>-2.0</ele><time>2026-05-03T15:56:41.002Z</time></trkpt><trkpt lat="44.21100939058662" lon="12.381934412685164"><ele>-2.0</ele><time>2026-05-03T15:56:42.002Z</time></trkpt><trkpt lat="44.2111605851349" lon="12.381776352663246"><ele>-2.0</ele><time>2026-05-03T15:56:43.002Z</time></trkpt><trkpt lat="44.21133051695648" lon="12.381605159808293"><ele>-2.0</ele><time>2026-05-03T15:56:44.002Z</time></trkpt><trkpt lat="44.21149503935838" lon="12.381442436350426"><ele>-2.0</ele><time>2026-05-03T15:56:45.002Z</time></trkpt><trkpt lat="44.2116453310474" lon="12.381288581967347"><ele>-2.0</ele><time>2026-05-03T15:56:46.002Z</time></trkpt><trkpt lat="44.21178975617154" lon="12.381141333813437"><ele>-2.0</ele><time>2026-05-03T15:56:47.002Z</time></trkpt><trkpt lat="44.211926503056034" lon="12.380998864562995"><ele>-2.0</ele><time>2026-05-03T15:56:48.002Z</time></trkpt><trkpt lat="44.21206546747263" lon="12.38085262809469"><ele>-2.0</ele><time>2026-05-03T15:56:49.002Z</time></trkpt><trkpt lat="44.21220744970267" lon="12.380705931772995"><ele>-2.0</ele><time>2026-05-03T15:56:50.002Z</time></trkpt><trkpt lat="44.21235826698063" lon="12.380551600960173"><ele>-2.0</ele><time>2026-05-03T15:56:51.002Z</time></trkpt><trkpt lat="44.2124990327971" lon="12.380412181733554"><ele>-2.0</ele><time>2026-05-03T15:56:52.002Z</time></trkpt><trkpt lat="44.21264085988343" lon="12.38026876768456"><ele>-2.0</ele><time>2026-05-03T15:56:53.002Z</time></trkpt><trkpt lat="44.21278279622013" lon="12.38012206336008"><ele>-2.0</ele><time>2026-05-03T15:56:54.002Z</time></trkpt><trkpt lat="44.212920722057305" lon="12.379980480514686"><ele>-2.0</ele><time>2026-05-03T15:56:55.002Z</time></trkpt><trkpt lat="44.21305674384747" lon="12.37984064335293"><ele>-2.0</ele><time>2026-05-03T15:56:56.002Z</time></trkpt><trkpt lat="44.213181929622415" lon="12.379712991262119"><ele>-2.25</ele><time>2026-05-03T15:56:57.002Z</time></trkpt><trkpt lat="44.2132925899505" lon="12.379598910533895"><ele>-2.5</ele><time>2026-05-03T15:56:58.002Z</time></trkpt><trkpt lat="44.213394278625614" lon="12.3794909180166"><ele>-2.75</ele><time>2026-05-03T15:56:59.002Z</time></trkpt><trkpt lat="44.21348637060705" lon="12.379390877384967"><ele>-3.0</ele><time>2026-05-03T15:57:00.002Z</time></trkpt><trkpt lat="44.21357727492864" lon="12.379307219290517"><ele>-3.0</ele><time>2026-05-03T15:57:01.002Z</time></trkpt><trkpt lat="44.21367122437887" lon="12.379221881734283"><ele>-3.0</ele><time>2026-05-03T15:57:02.002Z</time></trkpt><trkpt lat="44.213771012897865" lon="12.379134564856233"><ele>-3.0</ele><time>2026-05-03T15:57:03.002Z</time></trkpt><trkpt lat="44.213871427791034" lon="12.379049144954935"><ele>-3.0</ele><time>2026-05-03T15:57:04.002Z</time></trkpt><trkpt lat="44.213962075216465" lon="12.378974039879976"><ele>-2.8</ele><time>2026-05-03T15:57:05.003Z</time></trkpt><trkpt lat="44.2140502575431" lon="12.3788947353014"><ele>-2.5999999999999996</ele><time>2026-05-03T15:57:06.003Z</time></trkpt><trkpt lat="44.214147696239344" lon="12.37881557605952"><ele>-2.4000000000000004</ele><time>2026-05-03T15:57:07.003Z</time></trkpt><trkpt lat="44.21424096708254" lon="12.378732108299046"><ele>-2.2</ele><time>2026-05-03T15:57:08.003Z</time></trkpt><trkpt lat="44.21432695092003" lon="12.378661545474928"><ele>-2.0</ele><time>2026-05-03T15:57:09.003Z</time></trkpt><trkpt lat="44.214401647951256" lon="12.378597497986572"><ele>-1.9999999999999998</ele><time>2026-05-03T15:57:10.003Z</time></trkpt><trkpt lat="44.21448360428443" lon="12.378527555432349"><ele>-2.0</ele><time>2026-05-03T15:57:12.003Z</time></trkpt><trkpt lat="44.21453848825421" lon="12.37847462614612"><ele>-2.0</ele><time>2026-05-03T15:57:15.003Z</time></trkpt><trkpt lat="44.214614034028344" lon="12.378405602451537"><ele>-2.0</ele><time>2026-05-03T15:57:17.003Z</time></trkpt><trkpt lat="44.21467232176172" lon="12.378354798727647"><ele>-1.9999999999999998</ele><time>2026-05-03T15:57:18.003Z</time></trkpt><trkpt lat="44.21474401795834" lon="12.378290094499715"><ele>-2.0</ele><time>2026-05-03T15:57:19.002Z</time></trkpt><trkpt lat="44.21483729753969" lon="12.378213506864533"><ele>-2.0</ele><time>2026-05-03T15:57:20.002Z</time></trkpt><trkpt lat="44.214931113632964" lon="12.378134011476234"><ele>-2.0</ele><time>2026-05-03T15:57:21.002Z</time></trkpt><trkpt lat="44.215028032855024" lon="12.378057447787722"><ele>-2.0</ele><time>2026-05-03T15:57:22.002Z</time></trkpt><trkpt lat="44.215118860192796" lon="12.377977804468275"><ele>-2.0</ele><time>2026-05-03T15:57:23.002Z</time></trkpt><trkpt lat="44.215209536980325" lon="12.377898755707877"><ele>-2.0</ele><time>2026-05-03T15:57:24.002Z</time></trkpt><trkpt lat="44.21529156527943" lon="12.377833490118011"><ele>-2.0</ele><time>2026-05-03T15:57:25.002Z</time></trkpt><trkpt lat="44.215366626243366" lon="12.377770880266196"><ele>-2.0</ele><time>2026-05-03T15:57:26.001Z</time></trkpt><trkpt lat="44.21543069544327" lon="12.377715427729544"><ele>-2.0</ele><time>2026-05-03T15:57:27.001Z</time></trkpt><trkpt lat="44.21549965579924" lon="12.377652409664888"><ele>-2.0</ele><time>2026-05-03T15:57:28.001Z</time></trkpt><trkpt lat="44.215594654014886" lon="12.377573873611217"><ele>-2.0</ele><time>2026-05-03T15:57:29.001Z</time></trkpt><trkpt lat="44.215681794724084" lon="12.377501345362893"><ele>-1.8</ele><time>2026-05-03T15:57:30.001Z</time></trkpt><trkpt lat="44.215754572257445" lon="12.377442438099957"><ele>-1.6</ele><time>2026-05-03T15:57:31.001Z</time></trkpt><trkpt lat="44.21582346958837" lon="12.377378772537767"><ele>-1.4000000000000001</ele><time>2026-05-03T15:57:32.001Z</time></trkpt><trkpt lat="44.21591652839597" lon="12.377300429026844"><ele>-1.2000000000000002</ele><time>2026-05-03T15:57:33.001Z</time></trkpt><trkpt lat="44.21602620974558" lon="12.377207470420268"><ele>-1.0</ele><time>2026-05-03T15:57:34.001Z</time></trkpt><trkpt lat="44.216140963344664" lon="12.37710967604949"><ele>-1.0</ele><time>2026-05-03T15:57:35.001Z</time></trkpt><trkpt lat="44.21626855333195" lon="12.377005190389237"><ele>-1.0</ele><time>2026-05-03T15:57:36.001Z</time></trkpt><trkpt lat="44.216390295785416" lon="12.376908839722871"><ele>-1.0</ele><time>2026-05-03T15:57:37.001Z</time></trkpt><trkpt lat="44.21651162335751" lon="12.376802600110212"><ele>-1.0</ele><time>2026-05-03T15:57:38.001Z</time></trkpt><trkpt lat="44.216634502239835" lon="12.376700352321285"><ele>-1.0</ele><time>2026-05-03T15:57:39.001Z</time></trkpt><trkpt lat="44.216750044154686" lon="12.376607602392692"><ele>-1.0</ele><time>2026-05-03T15:57:40.001Z</time></trkpt><trkpt lat="44.21685820079375" lon="12.376516530069813"><ele>-1.0</ele><time>2026-05-03T15:57:41.001Z</time></trkpt><trkpt lat="44.216960870902106" lon="12.376428609552521"><ele>-1.0</ele><time>2026-05-03T15:57:42.001Z</time></trkpt><trkpt lat="44.21707040890592" lon="12.376332042876689"><ele>-1.0</ele><time>2026-05-03T15:57:43.001Z</time></trkpt><trkpt lat="44.217194214976665" lon="12.376224918652738"><ele>-1.0</ele><time>2026-05-03T15:57:44.001Z</time></trkpt><trkpt lat="44.21733063559407" lon="12.37611509055674"><ele>-1.0</ele><time>2026-05-03T15:57:45.001Z</time></trkpt><trkpt lat="44.21747717536856" lon="12.37599706218445"><ele>-1.0</ele><time>2026-05-03T15:57:46.001Z</time></trkpt><trkpt lat="44.21761531802083" lon="12.375881595671961"><ele>-1.0</ele><time>2026-05-03T15:57:47.001Z</time></trkpt><trkpt lat="44.217738572078304" lon="12.375777333272865"><ele>-1.0</ele><time>2026-05-03T15:57:48.001Z</time></trkpt><trkpt lat="44.217853754157055" lon="12.375683780154514"><ele>-1.0</ele><time>2026-05-03T15:57:49.001Z</time></trkpt><trkpt lat="44.21795900619856" lon="12.375609318817641"><ele>-1.0</ele><time>2026-05-03T15:57:50.001Z</time></trkpt><trkpt lat="44.21806409118264" lon="12.375527129630147"><ele>-1.0</ele><time>2026-05-03T15:57:51.001Z</time></trkpt><trkpt lat="44.218155751839255" lon="12.375457881514171"><ele>-1.0</ele><time>2026-05-03T15:57:52.001Z</time></trkpt><trkpt lat="44.21825193707268" lon="12.375381639643852"><ele>-1.0</ele><time>2026-05-03T15:57:53.001Z</time></trkpt><trkpt lat="44.21835649265559" lon="12.375294069240287"><ele>-1.0</ele><time>2026-05-03T15:57:54.001Z</time></trkpt><trkpt lat="44.21846998331442" lon="12.37519632417677"><ele>-1.0</ele><time>2026-05-03T15:57:55.001Z</time></trkpt><trkpt lat="44.21858745568041" lon="12.375092435524914"><ele>-1.0</ele><time>2026-05-03T15:57:56.001Z</time></trkpt><trkpt lat="44.218697572716046" lon="12.374997168434481"><ele>-1.0</ele><time>2026-05-03T15:57:57.001Z</time></trkpt><trkpt lat="44.21879719100373" lon="12.374915131072433"><ele>-1.0</ele><time>2026-05-03T15:57:58.001Z</time></trkpt><trkpt lat="44.21889492930086" lon="12.374837138025395"><ele>-1.0</ele><time>2026-05-03T15:57:59.001Z</time></trkpt><trkpt lat="44.219005343935905" lon="12.374733803090836"><ele>-1.0</ele><time>2026-05-03T15:58:00.001Z</time></trkpt><trkpt lat="44.21912269291523" lon="12.374626559931405"><ele>-1.0</ele><time>2026-05-03T15:58:01.001Z</time></trkpt><trkpt lat="44.219241896059735" lon="12.374519160890697"><ele>-0.5</ele><time>2026-05-03T15:58:02.001Z</time></trkpt><trkpt lat="44.219356245596266" lon="12.374415275356272"><ele>0.0</ele><time>2026-05-03T15:58:03.001Z</time></trkpt><trkpt lat="44.21945834269802" lon="12.374316764328597"><ele>0.5</ele><time>2026-05-03T15:58:04.001Z</time></trkpt><trkpt lat="44.21956986151365" lon="12.374218101097803"><ele>1.0</ele><time>2026-05-03T15:58:05.001Z</time></trkpt><trkpt lat="44.21968487722898" lon="12.374112091493647"><ele>1.0</ele><time>2026-05-03T15:58:06.001Z</time></trkpt><trkpt lat="44.21978364905665" lon="12.374021184388894"><ele>1.0</ele><time>2026-05-03T15:58:07.001Z</time></trkpt><trkpt lat="44.21987997156397" lon="12.373934283485067"><ele>1.0</ele><time>2026-05-03T15:58:08.001Z</time></trkpt><trkpt lat="44.21997457762824" lon="12.373837771390138"><ele>1.0</ele><time>2026-05-03T15:58:09.001Z</time></trkpt><trkpt lat="44.2200747040515" lon="12.373738859751054"><ele>1.4</ele><time>2026-05-03T15:58:10.001Z</time></trkpt><trkpt lat="44.22016483350858" lon="12.373655267290573"><ele>1.8</ele><time>2026-05-03T15:58:11.001Z</time></trkpt><trkpt lat="44.22024629882872" lon="12.373576541401487"><ele>2.1999999999999997</ele><time>2026-05-03T15:58:12.001Z</time></trkpt><trkpt lat="44.220320654446425" lon="12.373503971687713"><ele>2.6</ele><time>2026-05-03T15:58:13.001Z</time></trkpt><trkpt lat="44.22039131234135" lon="12.3734351767147"><ele>3.0</ele><time>2026-05-03T15:58:14.001Z</time></trkpt><trkpt lat="44.22046292723065" lon="12.373371660782308"><ele>3.0</ele><time>2026-05-03T15:58:15.001Z</time></trkpt><trkpt lat="44.220536294518844" lon="12.373303309349721"><ele>3.0</ele><time>2026-05-03T15:58:16.002Z</time></trkpt><trkpt lat="44.22061755850176" lon="12.373224566251583"><ele>3.0</ele><time>2026-05-03T15:58:17.002Z</time></trkpt><trkpt lat="44.22070265796432" lon="12.373141852943446"><ele>3.0</ele><time>2026-05-03T15:58:18.002Z</time></trkpt><trkpt lat="44.22079129568217" lon="12.373060448063148"><ele>3.0</ele><time>2026-05-03T15:58:19.002Z</time></trkpt><trkpt lat="44.220882356352924" lon="12.372977210206432"><ele>1.75</ele><time>2026-05-03T15:58:20.002Z</time></trkpt><trkpt lat="44.22098827635071" lon="12.37287134737813"><ele>0.5</ele><time>2026-05-03T15:58:21.002Z</time></trkpt><trkpt lat="44.22110510016493" lon="12.372746686837273"><ele>-0.75</ele><time>2026-05-03T15:58:22.002Z</time></trkpt><trkpt lat="44.221225397130254" lon="12.372627283474335"><ele>-2.0</ele><time>2026-05-03T15:58:23.002Z</time></trkpt><trkpt lat="44.22135508331497" lon="12.372497890052777"><ele>-2.0</ele><time>2026-05-03T15:58:24.002Z</time></trkpt><trkpt lat="44.22149283601234" lon="12.3723623738162"><ele>-2.0</ele><time>2026-05-03T15:58:25.002Z</time></trkpt><trkpt lat="44.22165688400208" lon="12.372237331436327"><ele>-2.0</ele><time>2026-05-03T15:58:26.002Z</time></trkpt><trkpt lat="44.22181791166214" lon="12.372082642116112"><ele>-2.0</ele><time>2026-05-03T15:58:27.002Z</time></trkpt><trkpt lat="44.221986898518395" lon="12.37192030699991"><ele>-2.0</ele><time>2026-05-03T15:58:28.002Z</time></trkpt><trkpt lat="44.222173010837245" lon="12.37171531006934"><ele>-2.0</ele><time>2026-05-03T15:58:29.002Z</time></trkpt><trkpt lat="44.22238473197147" lon="12.37151563903455"><ele>-2.333333333333333</ele><time>2026-05-03T15:58:30.002Z</time></trkpt><trkpt lat="44.22257823250924" lon="12.371335060342796"><ele>-2.6666666666666665</ele><time>2026-05-03T15:58:31.002Z</time></trkpt><trkpt lat="44.22275086409654" lon="12.371174701639335"><ele>-3.0</ele><time>2026-05-03T15:58:32.002Z</time></trkpt><trkpt lat="44.222916631308436" lon="12.371020851562426"><ele>-3.0</ele><time>2026-05-03T15:58:33.002Z</time></trkpt><trkpt lat="44.22307283792936" lon="12.37087388670425"><ele>-3.0</ele><time>2026-05-03T15:58:34.002Z</time></trkpt><trkpt lat="44.22321928076879" lon="12.370732402928997"><ele>-3.0</ele><time>2026-05-03T15:58:35.002Z</time></trkpt><trkpt lat="44.22335688322085" lon="12.37060122386802"><ele>-3.0</ele><time>2026-05-03T15:58:36.002Z</time></trkpt><trkpt lat="44.22349360379745" lon="12.370471050662266"><ele>-3.0</ele><time>2026-05-03T15:58:37.002Z</time></trkpt><trkpt lat="44.22363399996985" lon="12.370333877056312"><ele>-3.0</ele><time>2026-05-03T15:58:38.002Z</time></trkpt><trkpt lat="44.22377247525391" lon="12.370198350619049"><ele>-3.0</ele><time>2026-05-03T15:58:39.002Z</time></trkpt><trkpt lat="44.223911431302234" lon="12.370073274749831"><ele>-3.0</ele><time>2026-05-03T15:58:40.002Z</time></trkpt><trkpt lat="44.22404703002522" lon="12.369939607145366"><ele>-3.0</ele><time>2026-05-03T15:58:41.002Z</time></trkpt><trkpt lat="44.22418910195248" lon="12.369806160937138"><ele>-3.0</ele><time>2026-05-03T15:58:42.002Z</time></trkpt><trkpt lat="44.22432981125251" lon="12.369667769823566"><ele>-3.0</ele><time>2026-05-03T15:58:43.002Z</time></trkpt><trkpt lat="44.22447431340538" lon="12.36952648477217"><ele>-3.0</ele><time>2026-05-03T15:58:44.002Z</time></trkpt><trkpt lat="44.22462406285311" lon="12.36939118055457"><ele>-3.0</ele><time>2026-05-03T15:58:45.002Z</time></trkpt><trkpt lat="44.224772633918356" lon="12.369248554666738"><ele>-3.0</ele><time>2026-05-03T15:58:46.002Z</time></trkpt><trkpt lat="44.22491833586049" lon="12.369107979966618"><ele>-3.0</ele><time>2026-05-03T15:58:47.002Z</time></trkpt><trkpt lat="44.225060881399" lon="12.368964563518093"><ele>-3.0</ele><time>2026-05-03T15:58:48.002Z</time></trkpt><trkpt lat="44.2252046370517" lon="12.368822649646871"><ele>-3.0</ele><time>2026-05-03T15:58:49.002Z</time></trkpt><trkpt lat="44.22535135769335" lon="12.368685580584422"><ele>-3.0</ele><time>2026-05-03T15:58:50.002Z</time></trkpt><trkpt lat="44.22549253355886" lon="12.368547778755746"><ele>-3.0</ele><time>2026-05-03T15:58:51.002Z</time></trkpt><trkpt lat="44.2256348743368" lon="12.36840949074778"><ele>-3.0</ele><time>2026-05-03T15:58:52.002Z</time></trkpt><trkpt lat="44.225773582519615" lon="12.36826699929669"><ele>-3.0</ele><time>2026-05-03T15:58:53.002Z</time></trkpt><trkpt lat="44.22591561621713" lon="12.368133889860214"><ele>-2.3333333333333335</ele><time>2026-05-03T15:58:54.002Z</time></trkpt><trkpt lat="44.226055318860375" lon="12.367999256075326"><ele>-1.6666666666666665</ele><time>2026-05-03T15:58:55.002Z</time></trkpt><trkpt lat="44.226193659224" lon="12.367864599232666"><ele>-1.0</ele><time>2026-05-03T15:58:56.002Z</time></trkpt><trkpt lat="44.226328632438964" lon="12.367729057634948"><ele>-1.0</ele><time>2026-05-03T15:58:57.002Z</time></trkpt><trkpt lat="44.22646525471334" lon="12.367595998560166"><ele>-1.0</ele><time>2026-05-03T15:58:58.002Z</time></trkpt><trkpt lat="44.22660584962952" lon="12.367456401072266"><ele>-1.0</ele><time>2026-05-03T15:58:59.002Z</time></trkpt><trkpt lat="44.22674863327944" lon="12.36732132428943"><ele>-2.0</ele><time>2026-05-03T15:59:00.002Z</time></trkpt><trkpt lat="44.2268904026441" lon="12.367185850506816"><ele>-3.0</ele><time>2026-05-03T15:59:01.002Z</time></trkpt><trkpt lat="44.22703246775649" lon="12.367051774231982"><ele>-4.0</ele><time>2026-05-03T15:59:02.002Z</time></trkpt><trkpt lat="44.22716686487343" lon="12.366927369545861"><ele>-4.0</ele><time>2026-05-03T15:59:03.002Z</time></trkpt><trkpt lat="44.22730472893674" lon="12.36679105161195"><ele>-4.0</ele><time>2026-05-03T15:59:04.002Z</time></trkpt><trkpt lat="44.22744590326578" lon="12.366654390489868"><ele>-4.0</ele><time>2026-05-03T15:59:05.002Z</time></trkpt><trkpt lat="44.227584771434664" lon="12.366521339678322"><ele>-3.6666666666666665</ele><time>2026-05-03T15:59:06.002Z</time></trkpt><trkpt lat="44.2277238496033" lon="12.366384764158685"><ele>-3.333333333333333</ele><time>2026-05-03T15:59:07.002Z</time></trkpt><trkpt lat="44.227859522181085" lon="12.366254880621739"><ele>-3.0</ele><time>2026-05-03T15:59:08.002Z</time></trkpt><trkpt lat="44.2279939941951" lon="12.36612347491046"><ele>-3.0</ele><time>2026-05-03T15:59:09.002Z</time></trkpt><trkpt lat="44.22812156702314" lon="12.36599790239777"><ele>-3.0</ele><time>2026-05-03T15:59:10.003Z</time></trkpt><trkpt lat="44.22823998745356" lon="12.365877779872655"><ele>-3.0</ele><time>2026-05-03T15:59:11.003Z</time></trkpt><trkpt lat="44.22835376328713" lon="12.365768040139013"><ele>-3.0</ele><time>2026-05-03T15:59:12.003Z</time></trkpt><trkpt lat="44.22847089548244" lon="12.365655537586669"><ele>-2.75</ele><time>2026-05-03T15:59:13.003Z</time></trkpt><trkpt lat="44.22859144294733" lon="12.36554082474585"><ele>-2.5</ele><time>2026-05-03T15:59:14.003Z</time></trkpt><trkpt lat="44.22870842008164" lon="12.36542755769891"><ele>-2.25</ele><time>2026-05-03T15:59:15.003Z</time></trkpt><trkpt lat="44.22883122689896" lon="12.36530905347746"><ele>-2.0</ele><time>2026-05-03T15:59:16.003Z</time></trkpt><trkpt lat="44.22895587278239" lon="12.36518615187335"><ele>-1.5</ele><time>2026-05-03T15:59:17.003Z</time></trkpt><trkpt lat="44.22907759098427" lon="12.365063766758876"><ele>-1.0</ele><time>2026-05-03T15:59:18.003Z</time></trkpt><trkpt lat="44.229194780039556" lon="12.364953627088461"><ele>-0.5</ele><time>2026-05-03T15:59:19.003Z</time></trkpt><trkpt lat="44.22930113525473" lon="12.364855432791517"><ele>0.0</ele><time>2026-05-03T15:59:20.003Z</time></trkpt><trkpt lat="44.229403876917054" lon="12.364751217868372"><ele>0.0</ele><time>2026-05-03T15:59:21.003Z</time></trkpt><trkpt lat="44.22951630077795" lon="12.364645881568372"><ele>0.0</ele><time>2026-05-03T15:59:22.003Z</time></trkpt><trkpt lat="44.22962677851363" lon="12.364546268295584"><ele>0.0</ele><time>2026-05-03T15:59:23.003Z</time></trkpt><trkpt lat="44.22972822343465" lon="12.364449324387817"><ele>0.0</ele><time>2026-05-03T15:59:24.003Z</time></trkpt><trkpt lat="44.229822077658405" lon="12.3643559549708"><ele>0.0</ele><time>2026-05-03T15:59:24.999Z</time></trkpt><trkpt lat="44.229915075514626" lon="12.364266122943786"><ele>0.0</ele><time>2026-05-03T15:59:25.999Z</time></trkpt><trkpt lat="44.23001107460476" lon="12.36417534770646"><ele>0.0</ele><time>2026-05-03T15:59:26.999Z</time></trkpt><trkpt lat="44.23010114311243" lon="12.364098437467364"><ele>0.0</ele><time>2026-05-03T15:59:27.999Z</time></trkpt><trkpt lat="44.23019233008566" lon="12.36401743884079"><ele>0.0</ele><time>2026-05-03T15:59:28.999Z</time></trkpt><trkpt lat="44.23028818593516" lon="12.363934666124333"><ele>0.0</ele><time>2026-05-03T15:59:29.999Z</time></trkpt><trkpt lat="44.23039797602679" lon="12.36385505118081"><ele>0.0</ele><time>2026-05-03T15:59:30.999Z</time></trkpt><trkpt lat="44.23051888121878" lon="12.363781549562688"><ele>0.0</ele><time>2026-05-03T15:59:31.999Z</time></trkpt><trkpt lat="44.23064750100506" lon="12.363708358465871"><ele>0.0</ele><time>2026-05-03T15:59:32.999Z</time></trkpt><trkpt lat="44.230763926565324" lon="12.363634428641566"><ele>0.0</ele><time>2026-05-03T15:59:33.999Z</time></trkpt><trkpt lat="44.23086479043093" lon="12.36355648087211"><ele>0.0</ele><time>2026-05-03T15:59:34.999Z</time></trkpt><trkpt lat="44.23096263769311" lon="12.363472512853553"><ele>0.0</ele><time>2026-05-03T15:59:35.999Z</time></trkpt><trkpt lat="44.23106264363627" lon="12.36338433443996"><ele>0.0</ele><time>2026-05-03T15:59:36.999Z</time></trkpt><trkpt lat="44.231170091143376" lon="12.363297543410223"><ele>0.0</ele><time>2026-05-03T15:59:37.999Z</time></trkpt><trkpt lat="44.23127940417694" lon="12.363216981980148"><ele>0.0</ele><time>2026-05-03T15:59:38.999Z</time></trkpt><trkpt lat="44.23140089311367" lon="12.363128635341269"><ele>0.0</ele><time>2026-05-03T15:59:39.999Z</time></trkpt><trkpt lat="44.231527665209185" lon="12.363036970717474"><ele>0.0</ele><time>2026-05-03T15:59:40.999Z</time></trkpt><trkpt lat="44.23164675477917" lon="12.362946885879973"><ele>-0.25</ele><time>2026-05-03T15:59:41.999Z</time></trkpt><trkpt lat="44.23175710856041" lon="12.362860112714865"><ele>-0.5</ele><time>2026-05-03T15:59:42.999Z</time></trkpt><trkpt lat="44.23185741101915" lon="12.362782343320886"><ele>-0.75</ele><time>2026-05-03T15:59:43.999Z</time></trkpt><trkpt lat="44.23195540530084" lon="12.362707994026778"><ele>-1.0</ele><time>2026-05-03T15:59:44.999Z</time></trkpt><trkpt lat="44.232044516026335" lon="12.362649304103533"><ele>-1.0</ele><time>2026-05-03T15:59:46Z</time></trkpt><trkpt lat="44.2321487367829" lon="12.3626015246753"><ele>-1.0</ele><time>2026-05-03T15:59:47Z</time></trkpt><trkpt lat="44.23227087902892" lon="12.362585246327015"><ele>-1.0</ele><time>2026-05-03T15:59:48Z</time></trkpt><trkpt lat="44.23240478678434" lon="12.362560267845453"><ele>-1.0</ele><time>2026-05-03T15:59:49Z</time></trkpt><trkpt lat="44.23251786119699" lon="12.362488889075342"><ele>-1.0</ele><time>2026-05-03T15:59:50Z</time></trkpt><trkpt lat="44.23260225238064" lon="12.36237263494239"><ele>-1.0</ele><time>2026-05-03T15:59:51Z</time></trkpt><trkpt lat="44.23266229488171" lon="12.362232862088359"><ele>-1.0</ele><time>2026-05-03T15:59:52Z</time></trkpt><trkpt lat="44.23272030678922" lon="12.362063729776064"><ele>-1.0</ele><time>2026-05-03T15:59:53Z</time></trkpt><trkpt lat="44.23278877352366" lon="12.361883629312576"><ele>-1.0</ele><time>2026-05-03T15:59:54Z</time></trkpt><trkpt lat="44.23289077590626" lon="12.361706904886114"><ele>-1.0</ele><time>2026-05-03T15:59:55Z</time></trkpt><trkpt lat="44.233039882845446" lon="12.361545586384825"><ele>-1.0</ele><time>2026-05-03T15:59:56Z</time></trkpt><trkpt lat="44.23322093153203" lon="12.361356308255282"><ele>-1.0</ele><time>2026-05-03T15:59:57Z</time></trkpt><trkpt lat="44.23339889675913" lon="12.361163388927546"><ele>-1.0</ele><time>2026-05-03T15:59:58Z</time></trkpt><trkpt lat="44.23354551163705" lon="12.361003894409032"><ele>-1.0</ele><time>2026-05-03T15:59:59Z</time></trkpt><trkpt lat="44.23368171793069" lon="12.360858211053158"><ele>-1.0</ele><time>2026-05-03T16:00:00Z</time></trkpt><trkpt lat="44.23380342701956" lon="12.36072466000674"><ele>-1.0</ele><time>2026-05-03T16:00:01Z</time></trkpt><trkpt lat="44.23391181237308" lon="12.360597165728642"><ele>-1.0</ele><time>2026-05-03T16:00:02Z</time></trkpt><trkpt lat="44.234016634947224" lon="12.36045993059775"><ele>-1.0</ele><time>2026-05-03T16:00:03Z</time></trkpt><trkpt lat="44.23410821187013" lon="12.360316134816614"><ele>-0.75</ele><time>2026-05-03T16:00:04Z</time></trkpt><trkpt lat="44.234189110884415" lon="12.360170886726081"><ele>-0.5</ele><time>2026-05-03T16:00:05Z</time></trkpt><trkpt lat="44.2342794065784" lon="12.36002589442436"><ele>-0.25</ele><time>2026-05-03T16:00:06Z</time></trkpt><trkpt lat="44.23439632539069" lon="12.35988823969109"><ele>0.0</ele><time>2026-05-03T16:00:07Z</time></trkpt><trkpt lat="44.23454169667423" lon="12.359746441676258"><ele>0.0</ele><time>2026-05-03T16:00:08Z</time></trkpt><trkpt lat="44.23468337556105" lon="12.359613514745432"><ele>0.0</ele><time>2026-05-03T16:00:09Z</time></trkpt><trkpt lat="44.234826492977874" lon="12.35948526041169"><ele>0.0</ele><time>2026-05-03T16:00:10Z</time></trkpt><trkpt lat="44.234968359787224" lon="12.359350879923724"><ele>0.0</ele><time>2026-05-03T16:00:11Z</time></trkpt><trkpt lat="44.23510645909192" lon="12.359218885032506"><ele>0.0</ele><time>2026-05-03T16:00:12Z</time></trkpt><trkpt lat="44.23524771534779" lon="12.359077553575464"><ele>0.0</ele><time>2026-05-03T16:00:13Z</time></trkpt><trkpt lat="44.23538312531892" lon="12.358941970949672"><ele>-0.3333333333333333</ele><time>2026-05-03T16:00:14Z</time></trkpt><trkpt lat="44.235520957994716" lon="12.358806457709205"><ele>-0.6666666666666666</ele><time>2026-05-03T16:00:15Z</time></trkpt><trkpt lat="44.23566032530651" lon="12.358672123590482"><ele>-1.0</ele><time>2026-05-03T16:00:16Z</time></trkpt><trkpt lat="44.2357935052663" lon="12.358543697498504"><ele>-1.0</ele><time>2026-05-03T16:00:17Z</time></trkpt><trkpt lat="44.23592875946739" lon="12.358416169926072"><ele>-1.0</ele><time>2026-05-03T16:00:18Z</time></trkpt><trkpt lat="44.236064384446834" lon="12.358286569733256"><ele>-1.0</ele><time>2026-05-03T16:00:19.001Z</time></trkpt><trkpt lat="44.23619811696363" lon="12.358157521346552"><ele>-1.0</ele><time>2026-05-03T16:00:20.001Z</time></trkpt><trkpt lat="44.23633696851912" lon="12.358023365127327"><ele>-1.0</ele><time>2026-05-03T16:00:21.001Z</time></trkpt><trkpt lat="44.23647602560841" lon="12.357891002565122"><ele>-1.0</ele><time>2026-05-03T16:00:22.001Z</time></trkpt><trkpt lat="44.23661673468594" lon="12.35775165196466"><ele>-1.0</ele><time>2026-05-03T16:00:23.001Z</time></trkpt><trkpt lat="44.23675769545789" lon="12.357613634235763"><ele>-1.0</ele><time>2026-05-03T16:00:24.001Z</time></trkpt><trkpt lat="44.23689817752028" lon="12.357473893830749"><ele>-1.0</ele><time>2026-05-03T16:00:25.001Z</time></trkpt><trkpt lat="44.23703674941462" lon="12.35734079156479"><ele>-1.0</ele><time>2026-05-03T16:00:26.001Z</time></trkpt><trkpt lat="44.237174175081456" lon="12.35720611504489"><ele>-1.0</ele><time>2026-05-03T16:00:27.001Z</time></trkpt><trkpt lat="44.23731245911702" lon="12.357068930263887"><ele>-1.0</ele><time>2026-05-03T16:00:28.001Z</time></trkpt><trkpt lat="44.23745008908377" lon="12.356934129459557"><ele>-1.0</ele><time>2026-05-03T16:00:29.001Z</time></trkpt><trkpt lat="44.2375879590078" lon="12.356801382853925"><ele>-1.0</ele><time>2026-05-03T16:00:30.001Z</time></trkpt><trkpt lat="44.23772901748084" lon="12.356660415174979"><ele>-1.0</ele><time>2026-05-03T16:00:31.001Z</time></trkpt><trkpt lat="44.23787744852317" lon="12.356519624422129"><ele>-1.0</ele><time>2026-05-03T16:00:32.001Z</time></trkpt><trkpt lat="44.238028167722284" lon="12.356372677439143"><ele>-1.0</ele><time>2026-05-03T16:00:33.001Z</time></trkpt><trkpt lat="44.23817453411509" lon="12.356231734137378"><ele>-1.0</ele><time>2026-05-03T16:00:34.001Z</time></trkpt><trkpt lat="44.23831862178466" lon="12.356090153869868"><ele>-1.6666666666666665</ele><time>2026-05-03T16:00:35.001Z</time></trkpt><trkpt lat="44.238459424046134" lon="12.35595667333955"><ele>-2.3333333333333335</ele><time>2026-05-03T16:00:36.001Z</time></trkpt><trkpt lat="44.23860245249956" lon="12.355817722704812"><ele>-3.0</ele><time>2026-05-03T16:00:37.001Z</time></trkpt><trkpt lat="44.23874306268755" lon="12.355681108735864"><ele>-3.0</ele><time>2026-05-03T16:00:38.001Z</time></trkpt><trkpt lat="44.23888306673319" lon="12.35554025785661"><ele>-3.0</ele><time>2026-05-03T16:00:39.001Z</time></trkpt><trkpt lat="44.239022445150425" lon="12.355398361129954"><ele>-3.0</ele><time>2026-05-03T16:00:40.001Z</time></trkpt><trkpt lat="44.239160665172705" lon="12.355265111440588"><ele>-2.6666666666666665</ele><time>2026-05-03T16:00:41.001Z</time></trkpt><trkpt lat="44.239298013635036" lon="12.355133194852979"><ele>-2.333333333333333</ele><time>2026-05-03T16:00:42.001Z</time></trkpt><trkpt lat="44.239435777703434" lon="12.355000400920616"><ele>-2.0</ele><time>2026-05-03T16:00:43.001Z</time></trkpt><trkpt lat="44.239574482318666" lon="12.354863837143164"><ele>-2.0</ele><time>2026-05-03T16:00:44.001Z</time></trkpt><trkpt lat="44.23970951249423" lon="12.354731981972515"><ele>-2.0</ele><time>2026-05-03T16:00:45.001Z</time></trkpt><trkpt lat="44.23984259699975" lon="12.354601505770965"><ele>-2.0</ele><time>2026-05-03T16:00:46.001Z</time></trkpt><trkpt lat="44.23997285541468" lon="12.354477637367319"><ele>-1.6666666666666665</ele><time>2026-05-03T16:00:47.001Z</time></trkpt><trkpt lat="44.24011080307447" lon="12.354349949023955"><ele>-1.3333333333333333</ele><time>2026-05-03T16:00:48.001Z</time></trkpt><trkpt lat="44.24025212712477" lon="12.354223615622487"><ele>-1.0</ele><time>2026-05-03T16:00:49.001Z</time></trkpt><trkpt lat="44.24039809632941" lon="12.354101659877323"><ele>-1.0</ele><time>2026-05-03T16:00:50.001Z</time></trkpt><trkpt lat="44.240544869070284" lon="12.353990871901882"><ele>-1.0</ele><time>2026-05-03T16:00:51.001Z</time></trkpt><trkpt lat="44.240689661199845" lon="12.353881978000762"><ele>-1.0</ele><time>2026-05-03T16:00:52.001Z</time></trkpt><trkpt lat="44.2408244119464" lon="12.353783072343942"><ele>-1.6666666666666665</ele><time>2026-05-03T16:00:53.001Z</time></trkpt><trkpt lat="44.2409535471106" lon="12.353692399387304"><ele>-2.3333333333333335</ele><time>2026-05-03T16:00:54.001Z</time></trkpt><trkpt lat="44.24108546777935" lon="12.353596273702195"><ele>-3.0</ele><time>2026-05-03T16:00:55.001Z</time></trkpt><trkpt lat="44.24122745436115" lon="12.353493977530345"><ele>-3.0</ele><time>2026-05-03T16:00:56.001Z</time></trkpt><trkpt lat="44.24137357169749" lon="12.353385182496359"><ele>-3.0</ele><time>2026-05-03T16:00:57.001Z</time></trkpt><trkpt lat="44.24151681811637" lon="12.353280472024476"><ele>-3.0</ele><time>2026-05-03T16:00:58.001Z</time></trkpt><trkpt lat="44.241660957357496" lon="12.353175230958774"><ele>-3.0</ele><time>2026-05-03T16:00:59.001Z</time></trkpt><trkpt lat="44.24180666022614" lon="12.353068106529523"><ele>-3.0</ele><time>2026-05-03T16:01:00.001Z</time></trkpt><trkpt lat="44.241952463640516" lon="12.352959710863267"><ele>-3.0</ele><time>2026-05-03T16:01:01.001Z</time></trkpt><trkpt lat="44.242094868182186" lon="12.35285651256387"><ele>-3.0</ele><time>2026-05-03T16:01:02.002Z</time></trkpt><trkpt lat="44.24223131692445" lon="12.352749707522056"><ele>-3.0</ele><time>2026-05-03T16:01:03.002Z</time></trkpt><trkpt lat="44.2423645868954" lon="12.35265434653569"><ele>-3.0</ele><time>2026-05-03T16:01:04.002Z</time></trkpt><trkpt lat="44.24250218060955" lon="12.35255033387228"><ele>-2.3333333333333335</ele><time>2026-05-03T16:01:05.002Z</time></trkpt><trkpt lat="44.24264405228653" lon="12.352447387750207"><ele>-1.6666666666666665</ele><time>2026-05-03T16:01:06.002Z</time></trkpt><trkpt lat="44.24278764055006" lon="12.352348913362594"><ele>-1.0</ele><time>2026-05-03T16:01:07.002Z</time></trkpt><trkpt lat="44.24293681079875" lon="12.352242077488826"><ele>-1.0</ele><time>2026-05-03T16:01:08.002Z</time></trkpt><trkpt lat="44.24308660724814" lon="12.352133822175798"><ele>-1.0</ele><time>2026-05-03T16:01:09.002Z</time></trkpt><trkpt lat="44.243233481639635" lon="12.352028781445792"><ele>-1.0</ele><time>2026-05-03T16:01:10.002Z</time></trkpt><trkpt lat="44.24337360257451" lon="12.351923788995062"><ele>-1.0</ele><time>2026-05-03T16:01:11.002Z</time></trkpt><trkpt lat="44.24351846933408" lon="12.351818991156103"><ele>-1.0</ele><time>2026-05-03T16:01:12.002Z</time></trkpt><trkpt lat="44.24365554616322" lon="12.351711411388125"><ele>-1.0</ele><time>2026-05-03T16:01:13.002Z</time></trkpt><trkpt lat="44.24379618476457" lon="12.35161006826037"><ele>-1.0</ele><time>2026-05-03T16:01:14.002Z</time></trkpt><trkpt lat="44.243927143574375" lon="12.351518904897604"><ele>-1.0</ele><time>2026-05-03T16:01:15.002Z</time></trkpt><trkpt lat="44.2440621066398" lon="12.351421847300845"><ele>-1.0</ele><time>2026-05-03T16:01:16.002Z</time></trkpt><trkpt lat="44.244196318267385" lon="12.351319886276242"><ele>-1.25</ele><time>2026-05-03T16:01:17.002Z</time></trkpt><trkpt lat="44.24432512104558" lon="12.351224916156573"><ele>-1.5</ele><time>2026-05-03T16:01:18.002Z</time></trkpt><trkpt lat="44.244449273754476" lon="12.351126993339289"><ele>-1.75</ele><time>2026-05-03T16:01:19.002Z</time></trkpt><trkpt lat="44.24458148932836" lon="12.351034656187293"><ele>-2.0</ele><time>2026-05-03T16:01:20.002Z</time></trkpt><trkpt lat="44.24471254355009" lon="12.350941708287916"><ele>-1.5</ele><time>2026-05-03T16:01:21.002Z</time></trkpt><trkpt lat="44.24484185067007" lon="12.35084536806124"><ele>-1.0</ele><time>2026-05-03T16:01:22.002Z</time></trkpt><trkpt lat="44.244967248741396" lon="12.350751853103556"><ele>-0.5</ele><time>2026-05-03T16:01:23.002Z</time></trkpt><trkpt lat="44.24509379038481" lon="12.350659609309755"><ele>0.0</ele><time>2026-05-03T16:01:24.002Z</time></trkpt><trkpt lat="44.245223235160175" lon="12.350564058284315"><ele>-0.75</ele><time>2026-05-03T16:01:25.002Z</time></trkpt><trkpt lat="44.24535329590816" lon="12.35046772673974"><ele>-1.5</ele><time>2026-05-03T16:01:26.002Z</time></trkpt><trkpt lat="44.24548736658705" lon="12.35036706526336"><ele>-2.25</ele><time>2026-05-03T16:01:27.002Z</time></trkpt><trkpt lat="44.24561792274712" lon="12.350274793881335"><ele>-3.0</ele><time>2026-05-03T16:01:28.002Z</time></trkpt><trkpt lat="44.24574524679301" lon="12.350179888665698"><ele>-3.0</ele><time>2026-05-03T16:01:29.002Z</time></trkpt><trkpt lat="44.24587869412225" lon="12.350088565399222"><ele>-3.0</ele><time>2026-05-03T16:01:30.002Z</time></trkpt><trkpt lat="44.24602106277235" lon="12.349985808368"><ele>-3.0</ele><time>2026-05-03T16:01:31Z</time></trkpt><trkpt lat="44.24616281859801" lon="12.349880367205305"><ele>-3.0</ele><time>2026-05-03T16:01:32Z</time></trkpt><trkpt lat="44.24629411610992" lon="12.34978713091372"><ele>-3.0</ele><time>2026-05-03T16:01:33Z</time></trkpt><trkpt lat="44.24642727339834" lon="12.349687192384787"><ele>-3.0</ele><time>2026-05-03T16:01:34Z</time></trkpt><trkpt lat="44.246560235523624" lon="12.349589621939703"><ele>-3.0</ele><time>2026-05-03T16:01:35Z</time></trkpt><trkpt lat="44.24669470465025" lon="12.349492129043401"><ele>-3.0</ele><time>2026-05-03T16:01:36Z</time></trkpt><trkpt lat="44.24683088110274" lon="12.349393486524932"><ele>-3.0</ele><time>2026-05-03T16:01:37Z</time></trkpt><trkpt lat="44.24696833923074" lon="12.349293302556465"><ele>-3.0</ele><time>2026-05-03T16:01:38Z</time></trkpt><trkpt lat="44.24710483780432" lon="12.349192871987466"><ele>-3.0</ele><time>2026-05-03T16:01:39Z</time></trkpt><trkpt lat="44.247245373621624" lon="12.349088784877154"><ele>-3.0</ele><time>2026-05-03T16:01:40Z</time></trkpt><trkpt lat="44.247391441501335" lon="12.348990957254326"><ele>-3.0</ele><time>2026-05-03T16:01:41Z</time></trkpt><trkpt lat="44.24753171639049" lon="12.348895689077791"><ele>-3.25</ele><time>2026-05-03T16:01:42Z</time></trkpt><trkpt lat="44.24766059420843" lon="12.348798189911394"><ele>-3.5</ele><time>2026-05-03T16:01:43Z</time></trkpt><trkpt lat="44.2477889106082" lon="12.348704059964154"><ele>-3.75</ele><time>2026-05-03T16:01:44Z</time></trkpt><trkpt lat="44.247916301828226" lon="12.348617290121933"><ele>-4.0</ele><time>2026-05-03T16:01:45Z</time></trkpt><trkpt lat="44.24804348853376" lon="12.34851880893083"><ele>-3.0</ele><time>2026-05-03T16:01:46Z</time></trkpt><trkpt lat="44.248179020099315" lon="12.348413105509959"><ele>-2.0</ele><time>2026-05-03T16:01:47Z</time></trkpt><trkpt lat="44.248312009626105" lon="12.348316983960329"><ele>-1.0</ele><time>2026-05-03T16:01:48Z</time></trkpt><trkpt lat="44.248447322446125" lon="12.34822163680338"><ele>-1.0</ele><time>2026-05-03T16:01:49Z</time></trkpt><trkpt lat="44.2485829460997" lon="12.348120951920281"><ele>-1.0</ele><time>2026-05-03T16:01:50Z</time></trkpt><trkpt lat="44.24871768522568" lon="12.348022452706893"><ele>-1.0</ele><time>2026-05-03T16:01:51Z</time></trkpt><trkpt lat="44.2488512338611" lon="12.347924359096119"><ele>-1.0</ele><time>2026-05-03T16:01:52Z</time></trkpt><trkpt lat="44.248984103953916" lon="12.34782717353687"><ele>-1.0</ele><time>2026-05-03T16:01:53Z</time></trkpt><trkpt lat="44.24911866677827" lon="12.347728988307185"><ele>-1.0</ele><time>2026-05-03T16:01:54Z</time></trkpt><trkpt lat="44.249252011533166" lon="12.347631584721693"><ele>-1.0</ele><time>2026-05-03T16:01:55Z</time></trkpt><trkpt lat="44.24938339933058" lon="12.347537278187477"><ele>-1.0</ele><time>2026-05-03T16:01:56Z</time></trkpt><trkpt lat="44.24951872154289" lon="12.347442764614273"><ele>-1.0</ele><time>2026-05-03T16:01:57Z</time></trkpt><trkpt lat="44.249654059138486" lon="12.347341247612226"><ele>-1.0</ele><time>2026-05-03T16:01:58Z</time></trkpt><trkpt lat="44.24978646032488" lon="12.347243569785814"><ele>-1.0</ele><time>2026-05-03T16:01:59Z</time></trkpt><trkpt lat="44.24992614535936" lon="12.347138214566293"><ele>-1.0</ele><time>2026-05-03T16:02:00Z</time></trkpt><trkpt lat="44.25006636532684" lon="12.34702521675621"><ele>-1.3333333333333333</ele><time>2026-05-03T16:02:01.001Z</time></trkpt><trkpt lat="44.25020445334569" lon="12.346914277015268"><ele>-1.6666666666666665</ele><time>2026-05-03T16:02:02.001Z</time></trkpt><trkpt lat="44.25033422536925" lon="12.346800363891852"><ele>-2.0</ele><time>2026-05-03T16:02:03.001Z</time></trkpt><trkpt lat="44.25046242722916" lon="12.346681930934565"><ele>-2.0</ele><time>2026-05-03T16:02:04.001Z</time></trkpt><trkpt lat="44.25059258356064" lon="12.346556774175278"><ele>-2.0</ele><time>2026-05-03T16:02:05.001Z</time></trkpt><trkpt lat="44.250722668321515" lon="12.346426302438946"><ele>-2.0</ele><time>2026-05-03T16:02:06.001Z</time></trkpt><trkpt lat="44.25085100916703" lon="12.346298588927258"><ele>-1.75</ele><time>2026-05-03T16:02:07.001Z</time></trkpt><trkpt lat="44.250976181843036" lon="12.346171055003754"><ele>-1.5</ele><time>2026-05-03T16:02:08.001Z</time></trkpt><trkpt lat="44.25109415192985" lon="12.34604489891659"><ele>-1.25</ele><time>2026-05-03T16:02:09.001Z</time></trkpt><trkpt lat="44.25120511630318" lon="12.345921282572139"><ele>-1.0</ele><time>2026-05-03T16:02:10.001Z</time></trkpt><trkpt lat="44.25131351140391" lon="12.345793550766615"><ele>-1.0</ele><time>2026-05-03T16:02:11.001Z</time></trkpt><trkpt lat="44.251417955955716" lon="12.345675519826123"><ele>-1.0</ele><time>2026-05-03T16:02:12.001Z</time></trkpt><trkpt lat="44.251515101508076" lon="12.345559095156277"><ele>-1.0</ele><time>2026-05-03T16:02:13.001Z</time></trkpt><trkpt lat="44.25161348466068" lon="12.345434868951523"><ele>-1.0</ele><time>2026-05-03T16:02:14.001Z</time></trkpt><trkpt lat="44.25170542577832" lon="12.345315071463384"><ele>-0.25</ele><time>2026-05-03T16:02:15.001Z</time></trkpt><trkpt lat="44.251798116705366" lon="12.345192993046874"><ele>0.5</ele><time>2026-05-03T16:02:16.001Z</time></trkpt><trkpt lat="44.251898373912425" lon="12.34505745426784"><ele>1.25</ele><time>2026-05-03T16:02:17.001Z</time></trkpt><trkpt lat="44.251991589073626" lon="12.344922203397076"><ele>2.0</ele><time>2026-05-03T16:02:18.001Z</time></trkpt><trkpt lat="44.252082065866674" lon="12.34477782432125"><ele>1.75</ele><time>2026-05-03T16:02:19.001Z</time></trkpt><trkpt lat="44.252172873951714" lon="12.34463023260574"><ele>1.5</ele><time>2026-05-03T16:02:20.001Z</time></trkpt><trkpt lat="44.25226406604767" lon="12.344492794940566"><ele>1.25</ele><time>2026-05-03T16:02:21.001Z</time></trkpt><trkpt lat="44.252361314022146" lon="12.344352904463303"><ele>1.0</ele><time>2026-05-03T16:02:22.001Z</time></trkpt><trkpt lat="44.25244250752031" lon="12.344231609484282"><ele>1.0</ele><time>2026-05-03T16:02:23.001Z</time></trkpt><trkpt lat="44.25250835842663" lon="12.344132442300634"><ele>1.0</ele><time>2026-05-03T16:02:24.001Z</time></trkpt><trkpt lat="44.252569140412895" lon="12.34404178937821"><ele>1.0</ele><time>2026-05-03T16:02:25.001Z</time></trkpt><trkpt lat="44.252637463246245" lon="12.343936768174231"><ele>1.0</ele><time>2026-05-03T16:02:26.001Z</time></trkpt><trkpt lat="44.25272270752644" lon="12.343806642451709"><ele>1.0</ele><time>2026-05-03T16:02:27.001Z</time></trkpt><trkpt lat="44.25281785150532" lon="12.3436549767424"><ele>0.5</ele><time>2026-05-03T16:02:28.001Z</time></trkpt><trkpt lat="44.252919645446894" lon="12.343509432107545"><ele>0.0</ele><time>2026-05-03T16:02:29.001Z</time></trkpt><trkpt lat="44.2530129521825" lon="12.343382680487073"><ele>-0.5</ele><time>2026-05-03T16:02:30.001Z</time></trkpt><trkpt lat="44.25309481197223" lon="12.343264651944757"><ele>-1.0</ele><time>2026-05-03T16:02:31.001Z</time></trkpt><trkpt lat="44.253169499772895" lon="12.343155105846558"><ele>-1.0</ele><time>2026-05-03T16:02:32.001Z</time></trkpt><trkpt lat="44.25324555715353" lon="12.343043745114265"><ele>-1.0</ele><time>2026-05-03T16:02:33.001Z</time></trkpt><trkpt lat="44.25332804825531" lon="12.342924040891859"><ele>-1.0</ele><time>2026-05-03T16:02:34.001Z</time></trkpt><trkpt lat="44.25341440568704" lon="12.342796637094386"><ele>-1.0</ele><time>2026-05-03T16:02:35.001Z</time></trkpt><trkpt lat="44.25349755736148" lon="12.34266882454007"><ele>-1.0</ele><time>2026-05-03T16:02:36.001Z</time></trkpt><trkpt lat="44.25359249543752" lon="12.342524740750079"><ele>-1.0</ele><time>2026-05-03T16:02:37.001Z</time></trkpt><trkpt lat="44.2537203824128" lon="12.342336520945588"><ele>-1.0</ele><time>2026-05-03T16:02:38.001Z</time></trkpt><trkpt lat="44.253872747368376" lon="12.342112754972394"><ele>-1.3333333333333333</ele><time>2026-05-03T16:02:39.001Z</time></trkpt><trkpt lat="44.254003662130565" lon="12.341922178117404"><ele>-1.6666666666666665</ele><time>2026-05-03T16:02:40.001Z</time></trkpt><trkpt lat="44.25412159694211" lon="12.34175801907606"><ele>-2.0</ele><time>2026-05-03T16:02:41.001Z</time></trkpt><trkpt lat="44.25422869346016" lon="12.34160873969955"><ele>-2.0</ele><time>2026-05-03T16:02:42.001Z</time></trkpt><trkpt lat="44.25433292662775" lon="12.341459409060588"><ele>-2.0</ele><time>2026-05-03T16:02:43.001Z</time></trkpt><trkpt lat="44.25443564757573" lon="12.341309816065623"><ele>-2.0</ele><time>2026-05-03T16:02:44.001Z</time></trkpt><trkpt lat="44.25453446507505" lon="12.34116443062056"><ele>-2.0</ele><time>2026-05-03T16:02:45.001Z</time></trkpt><trkpt lat="44.25463648916001" lon="12.34101648880568"><ele>-2.0</ele><time>2026-05-03T16:02:46.001Z</time></trkpt><trkpt lat="44.25473243686458" lon="12.340880118067119"><ele>-2.0</ele><time>2026-05-03T16:02:47.001Z</time></trkpt><trkpt lat="44.25481725167802" lon="12.34075732882805"><ele>-2.0</ele><time>2026-05-03T16:02:48.001Z</time></trkpt><trkpt lat="44.25490527965272" lon="12.340628501689638"><ele>-2.0</ele><time>2026-05-03T16:02:49.001Z</time></trkpt><trkpt lat="44.25500851161462" lon="12.34047611131096"><ele>-1.75</ele><time>2026-05-03T16:02:50.002Z</time></trkpt><trkpt lat="44.25511483187565" lon="12.340319335751667"><ele>-1.5</ele><time>2026-05-03T16:02:51.002Z</time></trkpt><trkpt lat="44.255213597677475" lon="12.340177495055501"><ele>-1.25</ele><time>2026-05-03T16:02:52.002Z</time></trkpt><trkpt lat="44.25530200351501" lon="12.34004313160899"><ele>-1.0</ele><time>2026-05-03T16:02:53.002Z</time></trkpt><trkpt lat="44.25539410347052" lon="12.339909120924766"><ele>-1.0</ele><time>2026-05-03T16:02:54.002Z</time></trkpt><trkpt lat="44.25548672482018" lon="12.339774751780825"><ele>-1.0</ele><time>2026-05-03T16:02:55.002Z</time></trkpt><trkpt lat="44.255581545668136" lon="12.339633154297958"><ele>-1.0</ele><time>2026-05-03T16:02:56.002Z</time></trkpt><trkpt lat="44.25568119824472" lon="12.339488935414854"><ele>-1.0</ele><time>2026-05-03T16:02:57.002Z</time></trkpt><trkpt lat="44.255778982319015" lon="12.339346046772944"><ele>-1.0</ele><time>2026-05-03T16:02:58.002Z</time></trkpt><trkpt lat="44.25587925108906" lon="12.3391990261398"><ele>-1.0</ele><time>2026-05-03T16:02:59.002Z</time></trkpt><trkpt lat="44.25598059720439" lon="12.339050288603794"><ele>-1.0</ele><time>2026-05-03T16:03:00.002Z</time></trkpt><trkpt lat="44.25607172233215" lon="12.338914441864"><ele>-1.0</ele><time>2026-05-03T16:03:01.002Z</time></trkpt><trkpt lat="44.256149562886996" lon="12.338799759760489"><ele>-1.0</ele><time>2026-05-03T16:03:02.002Z</time></trkpt><trkpt lat="44.25622133085022" lon="12.338692924252097"><ele>-1.0</ele><time>2026-05-03T16:03:03.002Z</time></trkpt><trkpt lat="44.256291889168345" lon="12.338591069370747"><ele>-1.0</ele><time>2026-05-03T16:03:04.002Z</time></trkpt><trkpt lat="44.256368081971736" lon="12.33848083809074"><ele>-1.0</ele><time>2026-05-03T16:03:05.002Z</time></trkpt><trkpt lat="44.25644707497371" lon="12.338363746461113"><ele>-1.0</ele><time>2026-05-03T16:03:06.002Z</time></trkpt><trkpt lat="44.256517496686534" lon="12.338261247140258"><ele>-0.9999999999999999</ele><time>2026-05-03T16:03:07.002Z</time></trkpt><trkpt lat="44.25658248879688" lon="12.33816768166158"><ele>-1.0</ele><time>2026-05-03T16:03:08.002Z</time></trkpt><trkpt lat="44.25665235418906" lon="12.338063835523265"><ele>-1.0</ele><time>2026-05-03T16:03:09.002Z</time></trkpt><trkpt lat="44.25671433060759" lon="12.33796669543768"><ele>-1.0</ele><time>2026-05-03T16:03:10.002Z</time></trkpt><trkpt lat="44.25676508503122" lon="12.337879813686383"><ele>-0.9999999999999999</ele><time>2026-05-03T16:03:11.002Z</time></trkpt><trkpt lat="44.25681146700147" lon="12.337792877117828"><ele>-1.0</ele><time>2026-05-03T16:03:12.002Z</time></trkpt><trkpt lat="44.25685626325403" lon="12.33771068319961"><ele>-0.9999999999999999</ele><time>2026-05-03T16:03:13.002Z</time></trkpt><trkpt lat="44.256904120940504" lon="12.337642810751728"><ele>-1.0</ele><time>2026-05-03T16:03:14.002Z</time></trkpt><trkpt lat="44.25697116786321" lon="12.337577115647559"><ele>-1.0</ele><time>2026-05-03T16:03:15.002Z</time></trkpt><trkpt lat="44.25705393684019" lon="12.33754851258261"><ele>-1.0</ele><time>2026-05-03T16:03:16.002Z</time></trkpt><trkpt lat="44.257151913530635" lon="12.337554638877188"><ele>-0.9999999999999999</ele><time>2026-05-03T16:03:17.002Z</time></trkpt><trkpt lat="44.25725687774846" lon="12.337559731538903"><ele>-1.0</ele><time>2026-05-03T16:03:18.002Z</time></trkpt><trkpt lat="44.25736128953317" lon="12.337527587987632"><ele>-1.0</ele><time>2026-05-03T16:03:19.002Z</time></trkpt><trkpt lat="44.257459813193535" lon="12.337452324602943"><ele>-1.0</ele><time>2026-05-03T16:03:20.002Z</time></trkpt><trkpt lat="44.25754267142809" lon="12.337352275516363"><ele>-1.0</ele><time>2026-05-03T16:03:21.002Z</time></trkpt><trkpt lat="44.25760104609719" lon="12.337222184949466"><ele>-1.0</ele><time>2026-05-03T16:03:22.002Z</time></trkpt><trkpt lat="44.25764117440394" lon="12.337061343945173"><ele>-1.25</ele><time>2026-05-03T16:03:23.002Z</time></trkpt><trkpt lat="44.25766055908325" lon="12.336894937785104"><ele>-1.5</ele><time>2026-05-03T16:03:24.002Z</time></trkpt><trkpt lat="44.25766937710962" lon="12.336720885227214"><ele>-1.75</ele><time>2026-05-03T16:03:25.002Z</time></trkpt><trkpt lat="44.257703611519844" lon="12.336552933044317"><ele>-2.0</ele><time>2026-05-03T16:03:26.002Z</time></trkpt><trkpt lat="44.25778412776245" lon="12.336406717413245"><ele>-2.25</ele><time>2026-05-03T16:03:27.002Z</time></trkpt><trkpt lat="44.25787553784469" lon="12.33629114319645"><ele>-2.5</ele><time>2026-05-03T16:03:28.002Z</time></trkpt><trkpt lat="44.25797703453143" lon="12.336156042629268"><ele>-2.75</ele><time>2026-05-03T16:03:29.002Z</time></trkpt><trkpt lat="44.258073937970785" lon="12.336017948613087"><ele>-3.0</ele><time>2026-05-03T16:03:30.002Z</time></trkpt><trkpt lat="44.258170601729724" lon="12.335876700593241"><ele>-3.0</ele><time>2026-05-03T16:03:31.002Z</time></trkpt><trkpt lat="44.25827657067155" lon="12.335727122703958"><ele>-3.0</ele><time>2026-05-03T16:03:32.002Z</time></trkpt><trkpt lat="44.25838921453748" lon="12.335567063156523"><ele>-3.0</ele><time>2026-05-03T16:03:33.002Z</time></trkpt><trkpt lat="44.258503103311696" lon="12.335413082525145"><ele>-3.0</ele><time>2026-05-03T16:03:34.002Z</time></trkpt><trkpt lat="44.258621481048515" lon="12.335261986644477"><ele>-3.0</ele><time>2026-05-03T16:03:35.003Z</time></trkpt><trkpt lat="44.25873948522217" lon="12.335113765642653"><ele>-3.0</ele><time>2026-05-03T16:03:36.003Z</time></trkpt><trkpt lat="44.25885852046882" lon="12.334970277561723"><ele>-2.6666666666666665</ele><time>2026-05-03T16:03:37.001Z</time></trkpt><trkpt lat="44.25898364033659" lon="12.334825621332827"><ele>-2.333333333333333</ele><time>2026-05-03T16:03:38.001Z</time></trkpt><trkpt lat="44.25911899649266" lon="12.334679819285643"><ele>-2.0</ele><time>2026-05-03T16:03:39.001Z</time></trkpt><trkpt lat="44.25925978824579" lon="12.334544619730352"><ele>-2.6666666666666665</ele><time>2026-05-03T16:03:40.001Z</time></trkpt><trkpt lat="44.25940866619418" lon="12.334403763580795"><ele>-3.333333333333333</ele><time>2026-05-03T16:03:41.001Z</time></trkpt><trkpt lat="44.25955907761635" lon="12.334264692030956"><ele>-4.0</ele><time>2026-05-03T16:03:42.001Z</time></trkpt><trkpt lat="44.259714418553735" lon="12.334136735714505"><ele>-4.0</ele><time>2026-05-03T16:03:43.001Z</time></trkpt><trkpt lat="44.259865485014636" lon="12.334018144112884"><ele>-4.0</ele><time>2026-05-03T16:03:44.001Z</time></trkpt><trkpt lat="44.260012319616976" lon="12.333910412524903"><ele>-4.0</ele><time>2026-05-03T16:03:45.001Z</time></trkpt><trkpt lat="44.26015721897123" lon="12.333804671784335"><ele>-4.333333333333333</ele><time>2026-05-03T16:03:46.001Z</time></trkpt><trkpt lat="44.26030528059925" lon="12.333694152980309"><ele>-4.666666666666667</ele><time>2026-05-03T16:03:47.001Z</time></trkpt><trkpt lat="44.260451160803775" lon="12.333589096305687"><ele>-5.0</ele><time>2026-05-03T16:03:48.001Z</time></trkpt><trkpt lat="44.26058955042191" lon="12.333491894618746"><ele>-4.0</ele><time>2026-05-03T16:03:49.001Z</time></trkpt><trkpt lat="44.26072057010198" lon="12.333397834005"><ele>-3.0</ele><time>2026-05-03T16:03:50.001Z</time></trkpt><trkpt lat="44.260856645173305" lon="12.333301776436956"><ele>-2.0</ele><time>2026-05-03T16:03:51.001Z</time></trkpt><trkpt lat="44.26099524636069" lon="12.333202935909762"><ele>-2.0</ele><time>2026-05-03T16:03:52.001Z</time></trkpt><trkpt lat="44.261133117525816" lon="12.33310650849697"><ele>-2.0</ele><time>2026-05-03T16:03:53.001Z</time></trkpt><trkpt lat="44.261278969260125" lon="12.333002356532166"><ele>-2.0</ele><time>2026-05-03T16:03:54.001Z</time></trkpt><trkpt lat="44.2614243111062" lon="12.332899169628678"><ele>-2.0</ele><time>2026-05-03T16:03:55.001Z</time></trkpt><trkpt lat="44.26157233716606" lon="12.332791797651225"><ele>-2.0</ele><time>2026-05-03T16:03:56.001Z</time></trkpt><trkpt lat="44.26171750402292" lon="12.332688153654084"><ele>-2.0</ele><time>2026-05-03T16:03:57.001Z</time></trkpt><trkpt lat="44.26185758870734" lon="12.332588857102637"><ele>-2.0</ele><time>2026-05-03T16:03:58.001Z</time></trkpt><trkpt lat="44.262007238542814" lon="12.332484450005964"><ele>-2.0</ele><time>2026-05-03T16:03:59.001Z</time></trkpt><trkpt lat="44.26215942496353" lon="12.332377416519957"><ele>-2.0</ele><time>2026-05-03T16:04:00.001Z</time></trkpt><trkpt lat="44.262306667107566" lon="12.332271438406943"><ele>-2.6666666666666665</ele><time>2026-05-03T16:04:01.001Z</time></trkpt><trkpt lat="44.26245720303758" lon="12.332163490044856"><ele>-3.333333333333333</ele><time>2026-05-03T16:04:02.001Z</time></trkpt><trkpt lat="44.262605379569145" lon="12.332057991267975"><ele>-4.0</ele><time>2026-05-03T16:04:03.001Z</time></trkpt><trkpt lat="44.26275969612817" lon="12.331948742664045"><ele>-4.0</ele><time>2026-05-03T16:04:04.001Z</time></trkpt><trkpt lat="44.26291777593853" lon="12.331835244304878"><ele>-4.0</ele><time>2026-05-03T16:04:05.001Z</time></trkpt><trkpt lat="44.26307414039467" lon="12.331722128844271"><ele>-4.0</ele><time>2026-05-03T16:04:06.001Z</time></trkpt><trkpt lat="44.26323244286769" lon="12.33160858441257"><ele>-4.0</ele><time>2026-05-03T16:04:07.001Z</time></trkpt><trkpt lat="44.2633897996323" lon="12.331497324210451"><ele>-4.0</ele><time>2026-05-03T16:04:08.001Z</time></trkpt><trkpt lat="44.26354700335211" lon="12.331385348318904"><ele>-4.0</ele><time>2026-05-03T16:04:09.001Z</time></trkpt><trkpt lat="44.26370765548948" lon="12.33127096003662"><ele>-4.0</ele><time>2026-05-03T16:04:10.001Z</time></trkpt><trkpt lat="44.263875416997486" lon="12.331143685958912"><ele>-4.0</ele><time>2026-05-03T16:04:11.001Z</time></trkpt><trkpt lat="44.26404922549999" lon="12.33101871300859"><ele>-4.0</ele><time>2026-05-03T16:04:12.001Z</time></trkpt><trkpt lat="44.2642206055991" lon="12.330898903718596"><ele>-3.6666666666666665</ele><time>2026-05-03T16:04:13.001Z</time></trkpt><trkpt lat="44.26439309751362" lon="12.330782489350465"><ele>-3.333333333333333</ele><time>2026-05-03T16:04:14.001Z</time></trkpt><trkpt lat="44.26456059335795" lon="12.330652885941971"><ele>-3.0</ele><time>2026-05-03T16:04:15.001Z</time></trkpt><trkpt lat="44.26473197052173" lon="12.33053137087842"><ele>-3.0</ele><time>2026-05-03T16:04:16.001Z</time></trkpt><trkpt lat="44.264899682191626" lon="12.330412647729434"><ele>-3.0</ele><time>2026-05-03T16:04:17.001Z</time></trkpt><trkpt lat="44.265063947101304" lon="12.330296659481553"><ele>-3.0</ele><time>2026-05-03T16:04:18.001Z</time></trkpt><trkpt lat="44.26522813161886" lon="12.330178818495053"><ele>-3.0</ele><time>2026-05-03T16:04:19.001Z</time></trkpt><trkpt lat="44.26539344265132" lon="12.330061649934535"><ele>-3.0</ele><time>2026-05-03T16:04:20.001Z</time></trkpt><trkpt lat="44.26555055808639" lon="12.329949688887764"><ele>-3.0</ele><time>2026-05-03T16:04:21.001Z</time></trkpt><trkpt lat="44.26570605614167" lon="12.329839874567373"><ele>-3.0</ele><time>2026-05-03T16:04:22.001Z</time></trkpt><trkpt lat="44.26585160996196" lon="12.32973854968338"><ele>-3.0</ele><time>2026-05-03T16:04:23.001Z</time></trkpt><trkpt lat="44.265986656642546" lon="12.329641251092022"><ele>-3.0</ele><time>2026-05-03T16:04:24.001Z</time></trkpt><trkpt lat="44.26611613437857" lon="12.329546696415628"><ele>-3.0</ele><time>2026-05-03T16:04:25.001Z</time></trkpt><trkpt lat="44.266248957791085" lon="12.329451988102432"><ele>-3.0</ele><time>2026-05-03T16:04:26.001Z</time></trkpt><trkpt lat="44.266386314424" lon="12.329352590878392"><ele>-3.0</ele><time>2026-05-03T16:04:27.001Z</time></trkpt><trkpt lat="44.2665279921126" lon="12.329250837998273"><ele>-2.3333333333333335</ele><time>2026-05-03T16:04:28.001Z</time></trkpt><trkpt lat="44.2666733802021" lon="12.3291473268948"><ele>-1.6666666666666665</ele><time>2026-05-03T16:04:29.001Z</time></trkpt><trkpt lat="44.266824702584884" lon="12.329039462125802"><ele>-1.0</ele><time>2026-05-03T16:04:30.001Z</time></trkpt><trkpt lat="44.26698434179541" lon="12.328921596031654"><ele>-1.0</ele><time>2026-05-03T16:04:31.001Z</time></trkpt><trkpt lat="44.26714630668981" lon="12.328803682578748"><ele>-1.0</ele><time>2026-05-03T16:04:32.001Z</time></trkpt><trkpt lat="44.26730745155936" lon="12.328691259190169"><ele>-1.0</ele><time>2026-05-03T16:04:33.001Z</time></trkpt><trkpt lat="44.2674711053171" lon="12.328573805923858"><ele>-1.0</ele><time>2026-05-03T16:04:34.001Z</time></trkpt><trkpt lat="44.26762817018055" lon="12.328459841190847"><ele>-1.0</ele><time>2026-05-03T16:04:35.001Z</time></trkpt><trkpt lat="44.26776994423533" lon="12.328358437731385"><ele>-1.0</ele><time>2026-05-03T16:04:36.001Z</time></trkpt><trkpt lat="44.267898552282006" lon="12.328267755807135"><ele>-1.0</ele><time>2026-05-03T16:04:37.001Z</time></trkpt><trkpt lat="44.26801629553634" lon="12.328184783632006"><ele>-1.0</ele><time>2026-05-03T16:04:38.001Z</time></trkpt><trkpt lat="44.26813152888066" lon="12.328102595045769"><ele>-1.0</ele><time>2026-05-03T16:04:39.001Z</time></trkpt><trkpt lat="44.26824326609043" lon="12.328025756136851"><ele>-1.0</ele><time>2026-05-03T16:04:40.001Z</time></trkpt><trkpt lat="44.268347798343804" lon="12.327948177163462"><ele>-1.2000000000000002</ele><time>2026-05-03T16:04:41.001Z</time></trkpt><trkpt lat="44.26844417017259" lon="12.327882207691962"><ele>-1.4000000000000001</ele><time>2026-05-03T16:04:42.001Z</time></trkpt><trkpt lat="44.26854398552686" lon="12.32781049266997"><ele>-1.6</ele><time>2026-05-03T16:04:43.002Z</time></trkpt><trkpt lat="44.26864551955909" lon="12.327738875853285"><ele>-1.8</ele><time>2026-05-03T16:04:44.002Z</time></trkpt><trkpt lat="44.26874721529313" lon="12.327666312130866"><ele>-2.0</ele><time>2026-05-03T16:04:45.002Z</time></trkpt><trkpt lat="44.268849930856064" lon="12.327592221431445"><ele>-1.75</ele><time>2026-05-03T16:04:46.002Z</time></trkpt><trkpt lat="44.268954965389604" lon="12.327517496835082"><ele>-1.5</ele><time>2026-05-03T16:04:47.002Z</time></trkpt><trkpt lat="44.26906088391499" lon="12.327442403770819"><ele>-1.25</ele><time>2026-05-03T16:04:48.002Z</time></trkpt><trkpt lat="44.269170594852426" lon="12.327366210552901"><ele>-1.0</ele><time>2026-05-03T16:04:49.002Z</time></trkpt><trkpt lat="44.26928438777132" lon="12.327284878933654"><ele>-2.0</ele><time>2026-05-03T16:04:50.002Z</time></trkpt><trkpt lat="44.269409450851334" lon="12.327193313285617"><ele>-3.0</ele><time>2026-05-03T16:04:51.002Z</time></trkpt><trkpt lat="44.26955147511727" lon="12.327092270401508"><ele>-4.0</ele><time>2026-05-03T16:04:52.002Z</time></trkpt><trkpt lat="44.26972474999245" lon="12.326972721043191"><ele>-3.0</ele><time>2026-05-03T16:04:53.002Z</time></trkpt><trkpt lat="44.269907067786754" lon="12.326849509908644"><ele>-2.0</ele><time>2026-05-03T16:04:54.002Z</time></trkpt><trkpt lat="44.27007595129881" lon="12.326728124786959"><ele>-1.0</ele><time>2026-05-03T16:04:55.002Z</time></trkpt><trkpt lat="44.27024765563703" lon="12.326605065840075"><ele>-1.0</ele><time>2026-05-03T16:04:56.002Z</time></trkpt><trkpt lat="44.27042002026047" lon="12.326473930799155"><ele>-1.0</ele><time>2026-05-03T16:04:57.002Z</time></trkpt><trkpt lat="44.27058530315583" lon="12.326359039067327"><ele>-1.0</ele><time>2026-05-03T16:04:58.002Z</time></trkpt><trkpt lat="44.270743224381604" lon="12.326246653343821"><ele>-0.3333333333333333</ele><time>2026-05-03T16:04:59.002Z</time></trkpt><trkpt lat="44.270895867317954" lon="12.326136729350223"><ele>0.3333333333333333</ele><time>2026-05-03T16:05:00.002Z</time></trkpt><trkpt lat="44.27105234307334" lon="12.326023298879708"><ele>1.0</ele><time>2026-05-03T16:05:01.002Z</time></trkpt><trkpt lat="44.271216650822346" lon="12.325911444423737"><ele>1.0</ele><time>2026-05-03T16:05:02.002Z</time></trkpt><trkpt lat="44.27138225345024" lon="12.325796669042768"><ele>1.0</ele><time>2026-05-03T16:05:03.002Z</time></trkpt><trkpt lat="44.27154750110037" lon="12.325677486339613"><ele>1.0</ele><time>2026-05-03T16:05:04.002Z</time></trkpt><trkpt lat="44.2717096291574" lon="12.32556028252509"><ele>1.0</ele><time>2026-05-03T16:05:05.002Z</time></trkpt><trkpt lat="44.27187824308816" lon="12.32544364115324"><ele>1.0</ele><time>2026-05-03T16:05:06.002Z</time></trkpt><trkpt lat="44.272043251774036" lon="12.325329468711843"><ele>1.0</ele><time>2026-05-03T16:05:07.002Z</time></trkpt><trkpt lat="44.27220959438821" lon="12.325210664564999"><ele>0.3333333333333333</ele><time>2026-05-03T16:05:08.002Z</time></trkpt><trkpt lat="44.27237414494002" lon="12.325088934411113"><ele>-0.3333333333333333</ele><time>2026-05-03T16:05:09.002Z</time></trkpt><trkpt lat="44.272532930007195" lon="12.324972634816671"><ele>-1.0</ele><time>2026-05-03T16:05:10.002Z</time></trkpt><trkpt lat="44.27268913057688" lon="12.32485079540064"><ele>-1.0</ele><time>2026-05-03T16:05:11.002Z</time></trkpt><trkpt lat="44.272847908756646" lon="12.32472357142983"><ele>-1.0</ele><time>2026-05-03T16:05:12.002Z</time></trkpt><trkpt lat="44.273007837979144" lon="12.324589394073941"><ele>-1.0</ele><time>2026-05-03T16:05:13.002Z</time></trkpt><trkpt lat="44.273167947097086" lon="12.324455678698248"><ele>-0.3333333333333333</ele><time>2026-05-03T16:05:14.002Z</time></trkpt><trkpt lat="44.27332660627357" lon="12.324320435491217"><ele>0.3333333333333333</ele><time>2026-05-03T16:05:15.002Z</time></trkpt><trkpt lat="44.27348421678163" lon="12.324183141362978"><ele>1.0</ele><time>2026-05-03T16:05:16.002Z</time></trkpt><trkpt lat="44.27363734338199" lon="12.324050581919723"><ele>1.0</ele><time>2026-05-03T16:05:17.002Z</time></trkpt><trkpt lat="44.27378851165897" lon="12.323921143769784"><ele>1.0</ele><time>2026-05-03T16:05:18.002Z</time></trkpt><trkpt lat="44.273935251366645" lon="12.323795755725781"><ele>1.0</ele><time>2026-05-03T16:05:19.002Z</time></trkpt><trkpt lat="44.27407963403113" lon="12.323670998612618"><ele>0.0</ele><time>2026-05-03T16:05:20.002Z</time></trkpt><trkpt lat="44.274226213693694" lon="12.32354667037079"><ele>-1.0</ele><time>2026-05-03T16:05:21.002Z</time></trkpt><trkpt lat="44.274367725207206" lon="12.323425502371128"><ele>-2.0</ele><time>2026-05-03T16:05:22.002Z</time></trkpt><trkpt lat="44.27451134456801" lon="12.323301317045711"><ele>-2.0</ele><time>2026-05-03T16:05:23.002Z</time></trkpt><trkpt lat="44.274655510777386" lon="12.323179263960563"><ele>-2.0</ele><time>2026-05-03T16:05:24.002Z</time></trkpt><trkpt lat="44.274792248188795" lon="12.323062086508909"><ele>-2.0</ele><time>2026-05-03T16:05:25.002Z</time></trkpt><trkpt lat="44.27492874625343" lon="12.322946322138591"><ele>-2.333333333333333</ele><time>2026-05-03T16:05:26.002Z</time></trkpt><trkpt lat="44.275062535011955" lon="12.32282971280053"><ele>-2.6666666666666665</ele><time>2026-05-03T16:05:27.002Z</time></trkpt><trkpt lat="44.275188264486175" lon="12.32272166591291"><ele>-3.0</ele><time>2026-05-03T16:05:28.002Z</time></trkpt><trkpt lat="44.27532031084609" lon="12.322609112364079"><ele>-3.0</ele><time>2026-05-03T16:05:29.002Z</time></trkpt><trkpt lat="44.27545743888791" lon="12.322489375350692"><ele>-3.0</ele><time>2026-05-03T16:05:30.002Z</time></trkpt><trkpt lat="44.275596046639976" lon="12.322369233772298"><ele>-3.0</ele><time>2026-05-03T16:05:31.002Z</time></trkpt><trkpt lat="44.27572468015185" lon="12.32225751722124"><ele>-2.6666666666666665</ele><time>2026-05-03T16:05:32.002Z</time></trkpt><trkpt lat="44.27585876589363" lon="12.322146132975801"><ele>-2.333333333333333</ele><time>2026-05-03T16:05:33.002Z</time></trkpt><trkpt lat="44.27599830929961" lon="12.322029527187183"><ele>-2.0</ele><time>2026-05-03T16:05:34.002Z</time></trkpt><trkpt lat="44.276137771831706" lon="12.321915999500078"><ele>-2.0</ele><time>2026-05-03T16:05:35.002Z</time></trkpt><trkpt lat="44.276270068040134" lon="12.321799416974585"><ele>-2.0</ele><time>2026-05-03T16:05:36.002Z</time></trkpt><trkpt lat="44.276404160028804" lon="12.321685027619571"><ele>-2.0</ele><time>2026-05-03T16:05:37.003Z</time></trkpt><trkpt lat="44.276542231175966" lon="12.32156590483761"><ele>-1.6666666666666665</ele><time>2026-05-03T16:05:38.003Z</time></trkpt><trkpt lat="44.27667631725337" lon="12.321451753312852"><ele>-1.3333333333333333</ele><time>2026-05-03T16:05:39.003Z</time></trkpt><trkpt lat="44.276801756318505" lon="12.321344027027349"><ele>-1.0</ele><time>2026-05-03T16:05:40.003Z</time></trkpt><trkpt lat="44.27693176053128" lon="12.321233953905365"><ele>-0.6666666666666666</ele><time>2026-05-03T16:05:41.003Z</time></trkpt><trkpt lat="44.277070537783764" lon="12.321113414859056"><ele>-0.3333333333333333</ele><time>2026-05-03T16:05:42.003Z</time></trkpt><trkpt lat="44.277214032839716" lon="12.320991019668195"><ele>0.0</ele><time>2026-05-03T16:05:42.998Z</time></trkpt><trkpt lat="44.27736626012851" lon="12.32086232578465"><ele>-0.6666666666666666</ele><time>2026-05-03T16:05:43.998Z</time></trkpt><trkpt lat="44.27751541035768" lon="12.32073825400302"><ele>-1.3333333333333333</ele><time>2026-05-03T16:05:44.998Z</time></trkpt><trkpt lat="44.27766544256722" lon="12.320613419212817"><ele>-2.0</ele><time>2026-05-03T16:05:45.998Z</time></trkpt><trkpt lat="44.2778090327935" lon="12.320492192270233"><ele>-2.0</ele><time>2026-05-03T16:05:46.998Z</time></trkpt><trkpt lat="44.27795810729193" lon="12.32036643976382"><ele>-2.0</ele><time>2026-05-03T16:05:47.998Z</time></trkpt><trkpt lat="44.2781038965009" lon="12.320243118537423"><ele>-2.0</ele><time>2026-05-03T16:05:48.998Z</time></trkpt><trkpt lat="44.278253029040236" lon="12.320118474888039"><ele>-2.0</ele><time>2026-05-03T16:05:49.998Z</time></trkpt><trkpt lat="44.27840350663695" lon="12.319989385563375"><ele>-2.0</ele><time>2026-05-03T16:05:50.998Z</time></trkpt><trkpt lat="44.27856354925915" lon="12.319853623875872"><ele>-2.0</ele><time>2026-05-03T16:05:51.998Z</time></trkpt><trkpt lat="44.27872310029112" lon="12.319717237251135"><ele>-2.6666666666666665</ele><time>2026-05-03T16:05:52.998Z</time></trkpt><trkpt lat="44.27887557699682" lon="12.319586009028125"><ele>-3.333333333333333</ele><time>2026-05-03T16:05:53.998Z</time></trkpt><trkpt lat="44.279022635211156" lon="12.319460582032868"><ele>-4.0</ele><time>2026-05-03T16:05:54.998Z</time></trkpt><trkpt lat="44.27917679590229" lon="12.319326324337483"><ele>-2.6666666666666665</ele><time>2026-05-03T16:05:55.998Z</time></trkpt><trkpt lat="44.279333853472984" lon="12.319190817605094"><ele>-1.3333333333333333</ele><time>2026-05-03T16:05:56.998Z</time></trkpt><trkpt lat="44.279492992760474" lon="12.31905683065053"><ele>0.0</ele><time>2026-05-03T16:05:57.999Z</time></trkpt><trkpt lat="44.27965558083798" lon="12.318916021905174"><ele>-0.3333333333333333</ele><time>2026-05-03T16:05:58.999Z</time></trkpt><trkpt lat="44.27981760039683" lon="12.318776136852836"><ele>-0.6666666666666666</ele><time>2026-05-03T16:05:59.999Z</time></trkpt><trkpt lat="44.27997725467585" lon="12.318640922664056"><ele>-1.0</ele><time>2026-05-03T16:06:00.999Z</time></trkpt><trkpt lat="44.28013742067338" lon="12.318508615222152"><ele>-1.0</ele><time>2026-05-03T16:06:01.999Z</time></trkpt><trkpt lat="44.28029417817259" lon="12.318377774085754"><ele>-1.0</ele><time>2026-05-03T16:06:02.999Z</time></trkpt><trkpt lat="44.28045239952532" lon="12.318245440110648"><ele>-1.0</ele><time>2026-05-03T16:06:03.999Z</time></trkpt><trkpt lat="44.28061170190969" lon="12.318109832557631"><ele>-1.3333333333333333</ele><time>2026-05-03T16:06:04.999Z</time></trkpt><trkpt lat="44.28076823853835" lon="12.31797373869555"><ele>-1.6666666666666665</ele><time>2026-05-03T16:06:05.999Z</time></trkpt><trkpt lat="44.280924421112786" lon="12.317835817512428"><ele>-2.0</ele><time>2026-05-03T16:06:06.999Z</time></trkpt><trkpt lat="44.2810817607005" lon="12.317700729572994"><ele>-2.0</ele><time>2026-05-03T16:06:07.999Z</time></trkpt><trkpt lat="44.281239401353595" lon="12.317566554603061"><ele>-2.0</ele><time>2026-05-03T16:06:08.999Z</time></trkpt><trkpt lat="44.28139522000287" lon="12.317435343219618"><ele>-2.0</ele><time>2026-05-03T16:06:09.999Z</time></trkpt><trkpt lat="44.28154518687637" lon="12.317313868830967"><ele>-2.0</ele><time>2026-05-03T16:06:10.999Z</time></trkpt><trkpt lat="44.28169074441262" lon="12.317185608499626"><ele>-2.0</ele><time>2026-05-03T16:06:11.999Z</time></trkpt><trkpt lat="44.281841849436795" lon="12.317052540956585"><ele>-2.0</ele><time>2026-05-03T16:06:12.999Z</time></trkpt><trkpt lat="44.281987136270935" lon="12.316924470997552"><ele>-2.0</ele><time>2026-05-03T16:06:13.999Z</time></trkpt><trkpt lat="44.28212325074985" lon="12.316801521452122"><ele>-2.0</ele><time>2026-05-03T16:06:14.999Z</time></trkpt><trkpt lat="44.282257763602196" lon="12.316681104818189"><ele>-2.0</ele><time>2026-05-03T16:06:16Z</time></trkpt><trkpt lat="44.282394182843355" lon="12.316555523000316"><ele>-1.6666666666666665</ele><time>2026-05-03T16:06:17Z</time></trkpt><trkpt lat="44.28253937881909" lon="12.316420610030736"><ele>-1.3333333333333333</ele><time>2026-05-03T16:06:18Z</time></trkpt><trkpt lat="44.282681389270145" lon="12.3162885617287"><ele>-1.0</ele><time>2026-05-03T16:06:19Z</time></trkpt><trkpt lat="44.28281792410904" lon="12.316160599447084"><ele>-0.6666666666666666</ele><time>2026-05-03T16:06:20Z</time></trkpt><trkpt lat="44.2829611188536" lon="12.31603839806213"><ele>-0.3333333333333333</ele><time>2026-05-03T16:06:21Z</time></trkpt><trkpt lat="44.28310372672709" lon="12.315919434973145"><ele>0.0</ele><time>2026-05-03T16:06:22Z</time></trkpt><trkpt lat="44.28324424703388" lon="12.315800552231693"><ele>0.0</ele><time>2026-05-03T16:06:23Z</time></trkpt><trkpt lat="44.283388198852556" lon="12.315677248997009"><ele>0.0</ele><time>2026-05-03T16:06:24Z</time></trkpt><trkpt lat="44.283524548333965" lon="12.315561171170847"><ele>0.0</ele><time>2026-05-03T16:06:25Z</time></trkpt><trkpt lat="44.28365970899107" lon="12.315444301451457"><ele>-0.3333333333333333</ele><time>2026-05-03T16:06:26Z</time></trkpt><trkpt lat="44.28379777327157" lon="12.315322973817901"><ele>-0.6666666666666666</ele><time>2026-05-03T16:06:27Z</time></trkpt><trkpt lat="44.28394385553241" lon="12.315194907975563"><ele>-1.0</ele><time>2026-05-03T16:06:28Z</time></trkpt><trkpt lat="44.28409397215738" lon="12.315062512914238"><ele>-1.0</ele><time>2026-05-03T16:06:29Z</time></trkpt><trkpt lat="44.28424224652472" lon="12.31493190132426"><ele>-1.0</ele><time>2026-05-03T16:06:30Z</time></trkpt><trkpt lat="44.28438936617924" lon="12.314807253319644"><ele>-1.0</ele><time>2026-05-03T16:06:31Z</time></trkpt><trkpt lat="44.284542298052884" lon="12.314675913547912"><ele>-1.0</ele><time>2026-05-03T16:06:32Z</time></trkpt><trkpt lat="44.28469138554142" lon="12.314545585299141"><ele>-1.0</ele><time>2026-05-03T16:06:33Z</time></trkpt><trkpt lat="44.284837272558946" lon="12.314419530290357"><ele>-1.0</ele><time>2026-05-03T16:06:34Z</time></trkpt><trkpt lat="44.28498317092653" lon="12.314298291676739"><ele>-1.0</ele><time>2026-05-03T16:06:35Z</time></trkpt><trkpt lat="44.28512854269699" lon="12.31417646482668"><ele>-1.0</ele><time>2026-05-03T16:06:36Z</time></trkpt><trkpt lat="44.285275982521966" lon="12.314049721225668"><ele>-1.0</ele><time>2026-05-03T16:06:37Z</time></trkpt><trkpt lat="44.285419790970515" lon="12.313922848952226"><ele>-1.3333333333333333</ele><time>2026-05-03T16:06:38Z</time></trkpt><trkpt lat="44.28555788848778" lon="12.31380570992048"><ele>-1.6666666666666665</ele><time>2026-05-03T16:06:39Z</time></trkpt><trkpt lat="44.28569190954745" lon="12.313690083266126"><ele>-2.0</ele><time>2026-05-03T16:06:40Z</time></trkpt><trkpt lat="44.28583483390242" lon="12.313568688559142"><ele>-2.0</ele><time>2026-05-03T16:06:41Z</time></trkpt><trkpt lat="44.285978565495945" lon="12.313446316672717"><ele>-2.0</ele><time>2026-05-03T16:06:42Z</time></trkpt><trkpt lat="44.286124266268814" lon="12.313321083081492"><ele>-2.0</ele><time>2026-05-03T16:06:43Z</time></trkpt><trkpt lat="44.28627435160293" lon="12.313193978961445"><ele>-2.333333333333333</ele><time>2026-05-03T16:06:44Z</time></trkpt><trkpt lat="44.286435652352125" lon="12.313049961746664"><ele>-2.6666666666666665</ele><time>2026-05-03T16:06:45Z</time></trkpt><trkpt lat="44.28659763179682" lon="12.312907758339882"><ele>-3.0</ele><time>2026-05-03T16:06:46Z</time></trkpt><trkpt lat="44.28675144108726" lon="12.312772128034876"><ele>-3.0</ele><time>2026-05-03T16:06:47Z</time></trkpt><trkpt lat="44.28689407563074" lon="12.312648226394643"><ele>-3.0</ele><time>2026-05-03T16:06:48Z</time></trkpt><trkpt lat="44.287041848893395" lon="12.312549202157822"><ele>-3.0</ele><time>2026-05-03T16:06:49.001Z</time></trkpt><trkpt lat="44.287174589403854" lon="12.312437095930155"><ele>-2.75</ele><time>2026-05-03T16:06:50.001Z</time></trkpt><trkpt lat="44.28729719121689" lon="12.312333194175357"><ele>-2.5</ele><time>2026-05-03T16:06:51.001Z</time></trkpt><trkpt lat="44.28740451361976" lon="12.31221388597285"><ele>-2.25</ele><time>2026-05-03T16:06:52.001Z</time></trkpt><trkpt lat="44.28752326105673" lon="12.312113834659643"><ele>-2.0</ele><time>2026-05-03T16:06:53.001Z</time></trkpt><trkpt lat="44.287643244421936" lon="12.31201250467024"><ele>-2.0</ele><time>2026-05-03T16:06:54.001Z</time></trkpt><trkpt lat="44.28775931475676" lon="12.311914942204583"><ele>-2.0</ele><time>2026-05-03T16:06:55.001Z</time></trkpt><trkpt lat="44.28787627464262" lon="12.3118134943328"><ele>-2.0</ele><time>2026-05-03T16:06:56.001Z</time></trkpt><trkpt lat="44.28800464987951" lon="12.31170317622492"><ele>-2.0</ele><time>2026-05-03T16:06:57.001Z</time></trkpt><trkpt lat="44.28814192886472" lon="12.311579367813328"><ele>-2.0</ele><time>2026-05-03T16:06:58.001Z</time></trkpt><trkpt lat="44.28827848677512" lon="12.311448473360599"><ele>-2.0</ele><time>2026-05-03T16:06:59.001Z</time></trkpt><trkpt lat="44.288419280845396" lon="12.311305859643674"><ele>-2.0</ele><time>2026-05-03T16:07:00.001Z</time></trkpt><trkpt lat="44.288565794030376" lon="12.311132858588591"><ele>-2.333333333333333</ele><time>2026-05-03T16:07:01.001Z</time></trkpt><trkpt lat="44.28871350412246" lon="12.310922000668693"><ele>-2.6666666666666665</ele><time>2026-05-03T16:07:02.001Z</time></trkpt><trkpt lat="44.28885462807525" lon="12.310694728442256"><ele>-3.0</ele><time>2026-05-03T16:07:03.001Z</time></trkpt><trkpt lat="44.28899647852684" lon="12.3104441445898"><ele>-3.0</ele><time>2026-05-03T16:07:04.001Z</time></trkpt><trkpt lat="44.289125912016694" lon="12.310185599576704"><ele>-3.0</ele><time>2026-05-03T16:07:05.001Z</time></trkpt><trkpt lat="44.28924474702199" lon="12.309914669892466"><ele>-3.0</ele><time>2026-05-03T16:07:06.001Z</time></trkpt><trkpt lat="44.28935386171988" lon="12.309632767837355"><ele>-3.0</ele><time>2026-05-03T16:07:07.001Z</time></trkpt><trkpt lat="44.28945211337299" lon="12.309337414433871"><ele>-3.0</ele><time>2026-05-03T16:07:08.001Z</time></trkpt><trkpt lat="44.28953489702695" lon="12.309030444473658"><ele>-3.0</ele><time>2026-05-03T16:07:09.001Z</time></trkpt><trkpt lat="44.289601842018165" lon="12.308716083004189"><ele>-3.0</ele><time>2026-05-03T16:07:10.001Z</time></trkpt><trkpt lat="44.28965425870979" lon="12.30839777601669"><ele>-3.0</ele><time>2026-05-03T16:07:11.001Z</time></trkpt><trkpt lat="44.28969391705504" lon="12.308069005006269"><ele>-3.0</ele><time>2026-05-03T16:07:12.001Z</time></trkpt><trkpt lat="44.28971566315232" lon="12.307740292013623"><ele>-3.0</ele><time>2026-05-03T16:07:13.001Z</time></trkpt><trkpt lat="44.289726141856946" lon="12.307407982903332"><ele>-3.5</ele><time>2026-05-03T16:07:14.001Z</time></trkpt><trkpt lat="44.289734524281776" lon="12.307063530866996"><ele>-4.0</ele><time>2026-05-03T16:07:15.001Z</time></trkpt><trkpt lat="44.28975154145521" lon="12.306708247747064"><ele>-3.5</ele><time>2026-05-03T16:07:16.001Z</time></trkpt><trkpt lat="44.28976911847445" lon="12.306347183171663"><ele>-3.0</ele><time>2026-05-03T16:07:17.001Z</time></trkpt><trkpt lat="44.28978754656857" lon="12.305982892234416"><ele>-3.0</ele><time>2026-05-03T16:07:18.001Z</time></trkpt><trkpt lat="44.289810057975764" lon="12.305612957638571"><ele>-3.0</ele><time>2026-05-03T16:07:19.001Z</time></trkpt><trkpt lat="44.289833817076705" lon="12.305254622632267"><ele>-3.0</ele><time>2026-05-03T16:07:20.001Z</time></trkpt><trkpt lat="44.289866735233744" lon="12.304897029562673"><ele>-3.0</ele><time>2026-05-03T16:07:21.001Z</time></trkpt><trkpt lat="44.28991498937998" lon="12.304542197324533"><ele>-3.0</ele><time>2026-05-03T16:07:22.001Z</time></trkpt><trkpt lat="44.28997602545405" lon="12.304200225223054"><ele>-3.0</ele><time>2026-05-03T16:07:23.001Z</time></trkpt><trkpt lat="44.29005330130498" lon="12.303861645481582"><ele>-3.5</ele><time>2026-05-03T16:07:24.001Z</time></trkpt><trkpt lat="44.290140183824434" lon="12.30352823370409"><ele>-4.0</ele><time>2026-05-03T16:07:25.001Z</time></trkpt><trkpt lat="44.29023999222948" lon="12.303203846890314"><ele>-4.0</ele><time>2026-05-03T16:07:26.001Z</time></trkpt><trkpt lat="44.29035312658955" lon="12.302884714697452"><ele>-4.0</ele><time>2026-05-03T16:07:27.001Z</time></trkpt><trkpt lat="44.290479500159066" lon="12.302579968075777"><ele>-3.5</ele><time>2026-05-03T16:07:28.001Z</time></trkpt><trkpt lat="44.290618970502074" lon="12.302281720463494"><ele>-3.0</ele><time>2026-05-03T16:07:29.002Z</time></trkpt><trkpt lat="44.29076686500371" lon="12.301996928365256"><ele>-3.0</ele><time>2026-05-03T16:07:30.002Z</time></trkpt><trkpt lat="44.29091774091438" lon="12.301731836285132"><ele>-3.0</ele><time>2026-05-03T16:07:31.002Z</time></trkpt><trkpt lat="44.29107552994518" lon="12.301485419142784"><ele>-3.0</ele><time>2026-05-03T16:07:32.002Z</time></trkpt><trkpt lat="44.291237105354206" lon="12.30126484898059"><ele>-3.0</ele><time>2026-05-03T16:07:33.002Z</time></trkpt><trkpt lat="44.29139658800234" lon="12.30106085273358"><ele>-3.0</ele><time>2026-05-03T16:07:34.002Z</time></trkpt><trkpt lat="44.29155115358435" lon="12.300869778721987"><ele>-3.0</ele><time>2026-05-03T16:07:35.002Z</time></trkpt><trkpt lat="44.29170860101659" lon="12.300680654037356"><ele>-3.0</ele><time>2026-05-03T16:07:36.002Z</time></trkpt><trkpt lat="44.29187627811574" lon="12.300484644314489"><ele>-3.0</ele><time>2026-05-03T16:07:37.002Z</time></trkpt><trkpt lat="44.292043967276484" lon="12.300299558945692"><ele>-3.0</ele><time>2026-05-03T16:07:38.002Z</time></trkpt><trkpt lat="44.29220420587095" lon="12.300124914921321"><ele>-3.0</ele><time>2026-05-03T16:07:39.002Z</time></trkpt><trkpt lat="44.2923604236115" lon="12.299963175258414"><ele>-3.0</ele><time>2026-05-03T16:07:40.002Z</time></trkpt><trkpt lat="44.29251878528311" lon="12.299801940296545"><ele>-2.6666666666666665</ele><time>2026-05-03T16:07:41.002Z</time></trkpt><trkpt lat="44.29267894330115" lon="12.299638150205078"><ele>-2.333333333333333</ele><time>2026-05-03T16:07:42.002Z</time></trkpt><trkpt lat="44.292835385327066" lon="12.299476522925222"><ele>-2.0</ele><time>2026-05-03T16:07:43.002Z</time></trkpt><trkpt lat="44.29298779810514" lon="12.299317152337759"><ele>-2.0</ele><time>2026-05-03T16:07:44.002Z</time></trkpt><trkpt lat="44.29314173871426" lon="12.299157312493701"><ele>-2.0</ele><time>2026-05-03T16:07:45.002Z</time></trkpt><trkpt lat="44.29329909713681" lon="12.298998636144134"><ele>-2.0</ele><time>2026-05-03T16:07:46.002Z</time></trkpt><trkpt lat="44.29345488210278" lon="12.29883838407571"><ele>-2.0</ele><time>2026-05-03T16:07:47.002Z</time></trkpt><trkpt lat="44.29360448776426" lon="12.298681409714009"><ele>-2.0</ele><time>2026-05-03T16:07:48.002Z</time></trkpt><trkpt lat="44.293742414603784" lon="12.29853738272564"><ele>-2.0</ele><time>2026-05-03T16:07:49Z</time></trkpt><trkpt lat="44.29387441275043" lon="12.298398175148638"><ele>-1.6666666666666665</ele><time>2026-05-03T16:07:50Z</time></trkpt><trkpt lat="44.29400601285994" lon="12.298264180746404"><ele>-1.3333333333333333</ele><time>2026-05-03T16:07:51Z</time></trkpt><trkpt lat="44.294128659745596" lon="12.29813713352974"><ele>-1.0</ele><time>2026-05-03T16:07:52Z</time></trkpt><trkpt lat="44.294252127764416" lon="12.29800976956102"><ele>-1.6666666666666665</ele><time>2026-05-03T16:07:53Z</time></trkpt><trkpt lat="44.29437419381898" lon="12.297880724122278"><ele>-2.3333333333333335</ele><time>2026-05-03T16:07:54Z</time></trkpt><trkpt lat="44.29450473990529" lon="12.29773957564243"><ele>-3.0</ele><time>2026-05-03T16:07:55Z</time></trkpt><trkpt lat="44.29464061771729" lon="12.297594254050606"><ele>-3.0</ele><time>2026-05-03T16:07:56Z</time></trkpt><trkpt lat="44.294771610382746" lon="12.297457170690853"><ele>-3.0</ele><time>2026-05-03T16:07:57Z</time></trkpt><trkpt lat="44.29490115705682" lon="12.29732353590305"><ele>-3.0</ele><time>2026-05-03T16:07:58Z</time></trkpt><trkpt lat="44.29503712331335" lon="12.29718270092791"><ele>-2.6666666666666665</ele><time>2026-05-03T16:07:59Z</time></trkpt><trkpt lat="44.295182043720935" lon="12.297031925151531"><ele>-2.333333333333333</ele><time>2026-05-03T16:08:00Z</time></trkpt><trkpt lat="44.29533483322997" lon="12.296866569783793"><ele>-2.0</ele><time>2026-05-03T16:08:01Z</time></trkpt><trkpt lat="44.29550301329388" lon="12.296713843931586"><ele>-2.0</ele><time>2026-05-03T16:08:02Z</time></trkpt><trkpt lat="44.29566639094311" lon="12.296543261455822"><ele>-2.0</ele><time>2026-05-03T16:08:03Z</time></trkpt><trkpt lat="44.295839239693215" lon="12.296363607836815"><ele>-2.0</ele><time>2026-05-03T16:08:04Z</time></trkpt><trkpt lat="44.29603344775689" lon="12.296162541229336"><ele>-2.0</ele><time>2026-05-03T16:08:05Z</time></trkpt><trkpt lat="44.296224480731986" lon="12.295964761878482"><ele>-2.0</ele><time>2026-05-03T16:08:06Z</time></trkpt><trkpt lat="44.296388638678295" lon="12.295777318303898"><ele>-2.0</ele><time>2026-05-03T16:08:07Z</time></trkpt><trkpt lat="44.29654517848959" lon="12.295618015519947"><ele>-2.0</ele><time>2026-05-03T16:08:08Z</time></trkpt><trkpt lat="44.296693725834665" lon="12.295464472169199"><ele>-2.0</ele><time>2026-05-03T16:08:09Z</time></trkpt><trkpt lat="44.29683476447902" lon="12.295322406962251"><ele>-2.0</ele><time>2026-05-03T16:08:10Z</time></trkpt><trkpt lat="44.29697598032639" lon="12.295179870908962"><ele>-2.0</ele><time>2026-05-03T16:08:11Z</time></trkpt><trkpt lat="44.297125672967496" lon="12.295026393728747"><ele>-2.0</ele><time>2026-05-03T16:08:12Z</time></trkpt><trkpt lat="44.297282271020656" lon="12.294865975266156"><ele>-2.0</ele><time>2026-05-03T16:08:13Z</time></trkpt><trkpt lat="44.297444594273706" lon="12.29470242874919"><ele>-2.0</ele><time>2026-05-03T16:08:14Z</time></trkpt><trkpt lat="44.29760886555821" lon="12.294541773819216"><ele>-2.0</ele><time>2026-05-03T16:08:15.001Z</time></trkpt><trkpt lat="44.29777420877752" lon="12.294382732444564"><ele>-2.0</ele><time>2026-05-03T16:08:16.001Z</time></trkpt><trkpt lat="44.297936197883956" lon="12.294229184239487"><ele>-2.0</ele><time>2026-05-03T16:08:17.001Z</time></trkpt><trkpt lat="44.29809459400148" lon="12.294089829900512"><ele>-2.0</ele><time>2026-05-03T16:08:18.001Z</time></trkpt><trkpt lat="44.29825183012906" lon="12.293955210528248"><ele>-2.333333333333333</ele><time>2026-05-03T16:08:19.001Z</time></trkpt><trkpt lat="44.29840840599696" lon="12.293823463138008"><ele>-2.6666666666666665</ele><time>2026-05-03T16:08:20.001Z</time></trkpt><trkpt lat="44.29855573163893" lon="12.293701490212554"><ele>-3.0</ele><time>2026-05-03T16:08:21.001Z</time></trkpt><trkpt lat="44.29870397717944" lon="12.293578213381458"><ele>-3.0</ele><time>2026-05-03T16:08:22.001Z</time></trkpt><trkpt lat="44.29885445445757" lon="12.293455878307388"><ele>-3.0</ele><time>2026-05-03T16:08:23.001Z</time></trkpt><trkpt lat="44.299006118616354" lon="12.293335221318882"><ele>-3.0</ele><time>2026-05-03T16:08:24.001Z</time></trkpt><trkpt lat="44.29915956998524" lon="12.293214422937211"><ele>-3.333333333333333</ele><time>2026-05-03T16:08:25.001Z</time></trkpt><trkpt lat="44.299315771023785" lon="12.293093505668523"><ele>-3.6666666666666665</ele><time>2026-05-03T16:08:26.001Z</time></trkpt><trkpt lat="44.29946372763327" lon="12.292975041581798"><ele>-4.0</ele><time>2026-05-03T16:08:27.001Z</time></trkpt><trkpt lat="44.29961932568124" lon="12.292854808877191"><ele>-4.333333333333333</ele><time>2026-05-03T16:08:28.001Z</time></trkpt><trkpt lat="44.29977661440782" lon="12.292733197754279"><ele>-4.666666666666667</ele><time>2026-05-03T16:08:29.001Z</time></trkpt><trkpt lat="44.29993452136437" lon="12.29261783498177"><ele>-5.0</ele><time>2026-05-03T16:08:30.001Z</time></trkpt><trkpt lat="44.30009683257544" lon="12.292494409556156"><ele>-5.0</ele><time>2026-05-03T16:08:31.001Z</time></trkpt><trkpt lat="44.30025904279864" lon="12.292368284705992"><ele>-5.0</ele><time>2026-05-03T16:08:32.001Z</time></trkpt><trkpt lat="44.30042243285951" lon="12.292242932576356"><ele>-5.0</ele><time>2026-05-03T16:08:33.001Z</time></trkpt><trkpt lat="44.30058941309843" lon="12.292118090532593"><ele>-4.0</ele><time>2026-05-03T16:08:34.001Z</time></trkpt><trkpt lat="44.30075661805678" lon="12.291993380488531"><ele>-3.0</ele><time>2026-05-03T16:08:35.001Z</time></trkpt><trkpt lat="44.30091950621947" lon="12.291868630563236"><ele>-2.0</ele><time>2026-05-03T16:08:36.001Z</time></trkpt><trkpt lat="44.30108130156314" lon="12.291743175517711"><ele>-2.0</ele><time>2026-05-03T16:08:37.001Z</time></trkpt><trkpt lat="44.3012448621159" lon="12.291614329162966"><ele>-2.0</ele><time>2026-05-03T16:08:38.001Z</time></trkpt><trkpt lat="44.30140131111373" lon="12.291490341316251"><ele>-2.0</ele><time>2026-05-03T16:08:39.001Z</time></trkpt><trkpt lat="44.30155311531059" lon="12.291374737271282"><ele>-1.6666666666666665</ele><time>2026-05-03T16:08:40.001Z</time></trkpt><trkpt lat="44.30169605196771" lon="12.291264474712758"><ele>-1.3333333333333333</ele><time>2026-05-03T16:08:41.001Z</time></trkpt><trkpt lat="44.301832166979246" lon="12.291157645454032"><ele>-1.0</ele><time>2026-05-03T16:08:42.001Z</time></trkpt><trkpt lat="44.30196538556887" lon="12.29105662397394"><ele>-1.0</ele><time>2026-05-03T16:08:43.001Z</time></trkpt><trkpt lat="44.30210023185731" lon="12.290956580876177"><ele>-1.0</ele><time>2026-05-03T16:08:44.001Z</time></trkpt><trkpt lat="44.30223517702079" lon="12.290855549204236"><ele>-1.0</ele><time>2026-05-03T16:08:45.001Z</time></trkpt><trkpt lat="44.30236876448438" lon="12.290750799592532"><ele>-1.0</ele><time>2026-05-03T16:08:46.001Z</time></trkpt><trkpt lat="44.302503939401355" lon="12.290645043638488"><ele>-1.0</ele><time>2026-05-03T16:08:47.001Z</time></trkpt><trkpt lat="44.30264107795711" lon="12.290539581234121"><ele>-1.0</ele><time>2026-05-03T16:08:48.001Z</time></trkpt><trkpt lat="44.302778774256794" lon="12.290432543412784"><ele>-1.0</ele><time>2026-05-03T16:08:49.001Z</time></trkpt><trkpt lat="44.30291527364369" lon="12.290331081357586"><ele>-1.0</ele><time>2026-05-03T16:08:50.001Z</time></trkpt><trkpt lat="44.30305266668687" lon="12.290229321971852"><ele>-1.0</ele><time>2026-05-03T16:08:51.001Z</time></trkpt><trkpt lat="44.303191888521546" lon="12.290124256860551"><ele>-0.6666666666666666</ele><time>2026-05-03T16:08:52.001Z</time></trkpt><trkpt lat="44.30333364246168" lon="12.290015200840864"><ele>-0.3333333333333333</ele><time>2026-05-03T16:08:53.001Z</time></trkpt><trkpt lat="44.30347825204871" lon="12.289903247379305"><ele>0.0</ele><time>2026-05-03T16:08:54.001Z</time></trkpt><trkpt lat="44.30362003882391" lon="12.289793134773682"><ele>0.0</ele><time>2026-05-03T16:08:55.001Z</time></trkpt><trkpt lat="44.30374915523795" lon="12.289692253669685"><ele>0.0</ele><time>2026-05-03T16:08:56.001Z</time></trkpt><trkpt lat="44.30388042654802" lon="12.289590212640531"><ele>0.0</ele><time>2026-05-03T16:08:57.001Z</time></trkpt><trkpt lat="44.30400846415086" lon="12.28949075928789"><ele>0.0</ele><time>2026-05-03T16:08:58.002Z</time></trkpt><trkpt lat="44.30414267691122" lon="12.289385324152175"><ele>0.0</ele><time>2026-05-03T16:08:59.002Z</time></trkpt><trkpt lat="44.30428360480212" lon="12.289276329472305"><ele>0.0</ele><time>2026-05-03T16:09:00.002Z</time></trkpt><trkpt lat="44.304427016478066" lon="12.289171080517402"><ele>0.0</ele><time>2026-05-03T16:09:01.002Z</time></trkpt><trkpt lat="44.304577917129954" lon="12.28905962590438"><ele>0.0</ele><time>2026-05-03T16:09:02.002Z</time></trkpt><trkpt lat="44.30473348332508" lon="12.28893941590898"><ele>0.0</ele><time>2026-05-03T16:09:03.002Z</time></trkpt><trkpt lat="44.30488932502623" lon="12.288823697067578"><ele>0.0</ele><time>2026-05-03T16:09:04.002Z</time></trkpt><trkpt lat="44.305044969878864" lon="12.288708725301072"><ele>0.0</ele><time>2026-05-03T16:09:05.002Z</time></trkpt><trkpt lat="44.305197060736695" lon="12.288595375361849"><ele>0.0</ele><time>2026-05-03T16:09:06.002Z</time></trkpt><trkpt lat="44.305350083832124" lon="12.28847916121556"><ele>0.0</ele><time>2026-05-03T16:09:07.002Z</time></trkpt><trkpt lat="44.305504365185605" lon="12.288364333808477"><ele>-0.3333333333333333</ele><time>2026-05-03T16:09:08.002Z</time></trkpt><trkpt lat="44.30565778478628" lon="12.288247272887483"><ele>-0.6666666666666666</ele><time>2026-05-03T16:09:09.002Z</time></trkpt><trkpt lat="44.30581379747759" lon="12.288129887163914"><ele>-1.0</ele><time>2026-05-03T16:09:10.002Z</time></trkpt><trkpt lat="44.30597107203002" lon="12.28801051189202"><ele>-1.3333333333333333</ele><time>2026-05-03T16:09:11.002Z</time></trkpt><trkpt lat="44.30612566439862" lon="12.287889812058355"><ele>-1.6666666666666665</ele><time>2026-05-03T16:09:12.002Z</time></trkpt><trkpt lat="44.306281966325535" lon="12.287769241675612"><ele>-2.0</ele><time>2026-05-03T16:09:13.002Z</time></trkpt><trkpt lat="44.30644051240132" lon="12.287646191233186"><ele>-2.0</ele><time>2026-05-03T16:09:14.002Z</time></trkpt><trkpt lat="44.30660258822412" lon="12.287523967420187"><ele>-2.0</ele><time>2026-05-03T16:09:15.002Z</time></trkpt><trkpt lat="44.30676513541119" lon="12.287401913598039"><ele>-2.0</ele><time>2026-05-03T16:09:16.002Z</time></trkpt><trkpt lat="44.3069363789315" lon="12.287276304503875"><ele>-1.6666666666666665</ele><time>2026-05-03T16:09:17.002Z</time></trkpt><trkpt lat="44.30710661701659" lon="12.287145635616994"><ele>-1.3333333333333333</ele><time>2026-05-03T16:09:18.002Z</time></trkpt><trkpt lat="44.30728451824227" lon="12.28700941080833"><ele>-1.0</ele><time>2026-05-03T16:09:19.002Z</time></trkpt><trkpt lat="44.30745143567355" lon="12.286884545246641"><ele>-1.0</ele><time>2026-05-03T16:09:20.002Z</time></trkpt><trkpt lat="44.30759889820314" lon="12.28677252789545"><ele>-1.0</ele><time>2026-05-03T16:09:21.002Z</time></trkpt><trkpt lat="44.307736164718946" lon="12.286671124293614"><ele>-1.0</ele><time>2026-05-03T16:09:22.002Z</time></trkpt><trkpt lat="44.30786531096019" lon="12.2865753741619"><ele>-1.0</ele><time>2026-05-03T16:09:23.002Z</time></trkpt><trkpt lat="44.3079893434215" lon="12.286480382476878"><ele>-1.0</ele><time>2026-05-03T16:09:24.002Z</time></trkpt><trkpt lat="44.30810998009836" lon="12.286395568503966"><ele>-1.0</ele><time>2026-05-03T16:09:25.002Z</time></trkpt><trkpt lat="44.30822089688006" lon="12.286312689815599"><ele>-1.0</ele><time>2026-05-03T16:09:26.002Z</time></trkpt><trkpt lat="44.308329440493914" lon="12.286231746381496"><ele>-1.4</ele><time>2026-05-03T16:09:27.002Z</time></trkpt><trkpt lat="44.30843724375636" lon="12.286152808673775"><ele>-1.8</ele><time>2026-05-03T16:09:28.002Z</time></trkpt><trkpt lat="44.30853661732529" lon="12.286084055640856"><ele>-2.1999999999999997</ele><time>2026-05-03T16:09:29.002Z</time></trkpt><trkpt lat="44.308629463465365" lon="12.286016716619436"><ele>-2.6</ele><time>2026-05-03T16:09:30.002Z</time></trkpt><trkpt lat="44.30873025618216" lon="12.28595296786092"><ele>-3.0</ele><time>2026-05-03T16:09:31.002Z</time></trkpt><trkpt lat="44.30883214566684" lon="12.285888952249234"><ele>-2.6</ele><time>2026-05-03T16:09:32.002Z</time></trkpt><trkpt lat="44.30893771867543" lon="12.28581817276175"><ele>-2.1999999999999997</ele><time>2026-05-03T16:09:33.002Z</time></trkpt><trkpt lat="44.30904266251171" lon="12.28576172873668"><ele>-1.8</ele><time>2026-05-03T16:09:34.002Z</time></trkpt><trkpt lat="44.309130014428796" lon="12.285706461886651"><ele>-1.4</ele><time>2026-05-03T16:09:35.002Z</time></trkpt><trkpt lat="44.3092105538571" lon="12.285655784486663"><ele>-1.0</ele><time>2026-05-03T16:09:36.002Z</time></trkpt><trkpt lat="44.3092908892917" lon="12.285612172287886"><ele>-1.1666666666666665</ele><time>2026-05-03T16:09:37.002Z</time></trkpt><trkpt lat="44.30936528974347" lon="12.285561484380956"><ele>-1.3333333333333333</ele><time>2026-05-03T16:09:38.002Z</time></trkpt><trkpt lat="44.309443822364784" lon="12.285520254915639"><ele>-1.5</ele><time>2026-05-03T16:09:39.002Z</time></trkpt><trkpt lat="44.30951078641983" lon="12.285480273575754"><ele>-1.6666666666666665</ele><time>2026-05-03T16:09:40.003Z</time></trkpt><trkpt lat="44.30960653343583" lon="12.2854210733036"><ele>-1.8333333333333333</ele><time>2026-05-03T16:09:42.003Z</time></trkpt><trkpt lat="44.309704372021365" lon="12.285391767419483"><ele>-2.0</ele><time>2026-05-03T16:09:44.003Z</time></trkpt><trkpt lat="44.30978181188276" lon="12.28535574641969"><ele>-2.0</ele><time>2026-05-03T16:09:45.003Z</time></trkpt><trkpt lat="44.30988932205964" lon="12.285306306574501"><ele>-2.0</ele><time>2026-05-03T16:09:46.003Z</time></trkpt><trkpt lat="44.31001020071726" lon="12.285250719046283"><ele>-2.0</ele><time>2026-05-03T16:09:47.003Z</time></trkpt><trkpt lat="44.31012513368041" lon="12.285198411547803"><ele>-2.0</ele><time>2026-05-03T16:09:48.003Z</time></trkpt><trkpt lat="44.310248100142246" lon="12.285147031476942"><ele>-2.0</ele><time>2026-05-03T16:09:49.003Z</time></trkpt><trkpt lat="44.31037468386756" lon="12.28509651684929"><ele>-2.0</ele><time>2026-05-03T16:09:50.003Z</time></trkpt><trkpt lat="44.31048709642617" lon="12.285057566886634"><ele>-2.0</ele><time>2026-05-03T16:09:51.003Z</time></trkpt><trkpt lat="44.3105887631319" lon="12.285023351727403"><ele>-2.0</ele><time>2026-05-03T16:09:52.003Z</time></trkpt><trkpt lat="44.31070109233939" lon="12.284986529614423"><ele>-1.8333333333333333</ele><time>2026-05-03T16:09:53.003Z</time></trkpt><trkpt lat="44.31080851762351" lon="12.284952438472011"><ele>-1.6666666666666665</ele><time>2026-05-03T16:09:54.003Z</time></trkpt><trkpt lat="44.31090133892717" lon="12.284925463572717"><ele>-1.5</ele><time>2026-05-03T16:09:55.002Z</time></trkpt><trkpt lat="44.310982704206495" lon="12.284902119642886"><ele>-1.3333333333333333</ele><time>2026-05-03T16:09:56.002Z</time></trkpt><trkpt lat="44.31105535129356" lon="12.284883390015471"><ele>-1.1666666666666665</ele><time>2026-05-03T16:09:57.002Z</time></trkpt><trkpt lat="44.311123756419946" lon="12.284865754031705"><ele>-1.0</ele><time>2026-05-03T16:09:58.002Z</time></trkpt><trkpt lat="44.3112006037185" lon="12.28484695713616"><ele>-1.0</ele><time>2026-05-03T16:09:59.002Z</time></trkpt><trkpt lat="44.31131494197375" lon="12.284820598068034"><ele>-1.0</ele><time>2026-05-03T16:10:00.002Z</time></trkpt><trkpt lat="44.31146574299659" lon="12.284788454708837"><ele>-1.0</ele><time>2026-05-03T16:10:01.002Z</time></trkpt><trkpt lat="44.31164781632501" lon="12.284754583792921"><ele>-1.0</ele><time>2026-05-03T16:10:02.001Z</time></trkpt><trkpt lat="44.31181641934524" lon="12.284727836980428"><ele>-1.0</ele><time>2026-05-03T16:10:03.001Z</time></trkpt><trkpt lat="44.311955815018784" lon="12.284707946086918"><ele>-1.0</ele><time>2026-05-03T16:10:04.001Z</time></trkpt><trkpt lat="44.31208542377094" lon="12.284690613192456"><ele>-1.0</ele><time>2026-05-03T16:10:05.001Z</time></trkpt><trkpt lat="44.31223625134921" lon="12.284671762805802"><ele>-1.3333333333333333</ele><time>2026-05-03T16:10:06.001Z</time></trkpt><trkpt lat="44.312425528630584" lon="12.284649478804221"><ele>-1.6666666666666665</ele><time>2026-05-03T16:10:07.001Z</time></trkpt><trkpt lat="44.312657215159646" lon="12.284607822187112"><ele>-2.0</ele><time>2026-05-03T16:10:08.001Z</time></trkpt><trkpt lat="44.31290201853718" lon="12.284592100546986"><ele>-1.6666666666666665</ele><time>2026-05-03T16:10:09.001Z</time></trkpt><trkpt lat="44.313103316582875" lon="12.284570526767288"><ele>-1.3333333333333333</ele><time>2026-05-03T16:10:10.001Z</time></trkpt><trkpt lat="44.313272106518596" lon="12.284562602889459"><ele>-1.0</ele><time>2026-05-03T16:10:11.001Z</time></trkpt><trkpt lat="44.313397634023005" lon="12.284556900183066"><ele>-1.0</ele><time>2026-05-03T16:10:12.001Z</time></trkpt><trkpt lat="44.313481603799126" lon="12.28455000138288"><ele>-1.0</ele><time>2026-05-03T16:10:13.001Z</time></trkpt><trkpt lat="44.31355397291634" lon="12.284545028862818"><ele>-1.0</ele><time>2026-05-03T16:10:15.001Z</time></trkpt><trkpt lat="44.313635061161264" lon="12.28454546723238"><ele>-1.0</ele><time>2026-05-03T16:10:31.001Z</time></trkpt><trkpt lat="44.313757353094296" lon="12.284535532824195"><ele>-1.0</ele><time>2026-05-03T16:10:33.001Z</time></trkpt><trkpt lat="44.31385491325627" lon="12.284527590194799"><ele>-1.0</ele><time>2026-05-03T16:10:34.001Z</time></trkpt><trkpt lat="44.31395909331063" lon="12.284519036204873"><ele>-1.0</ele><time>2026-05-03T16:10:35.001Z</time></trkpt><trkpt lat="44.31407695958947" lon="12.2845094920589"><ele>-1.0</ele><time>2026-05-03T16:10:36.001Z</time></trkpt><trkpt lat="44.31420253661944" lon="12.284498925923058"><ele>-1.0</ele><time>2026-05-03T16:10:37.001Z</time></trkpt><trkpt lat="44.314347437244884" lon="12.284486817684439"><ele>-1.0</ele><time>2026-05-03T16:10:38.001Z</time></trkpt><trkpt lat="44.31448818021907" lon="12.284475449478476"><ele>-1.0</ele><time>2026-05-03T16:10:39.001Z</time></trkpt><trkpt lat="44.31460543481519" lon="12.28446597849035"><ele>-1.0</ele><time>2026-05-03T16:10:40.001Z</time></trkpt><trkpt lat="44.31470489070452" lon="12.28445794513382"><ele>-1.0</ele><time>2026-05-03T16:10:41.001Z</time></trkpt><trkpt lat="44.314780478891244" lon="12.28445183968214"><ele>-1.0</ele><time>2026-05-03T16:10:42.001Z</time></trkpt><trkpt lat="44.31486376612386" lon="12.284445112312072"><ele>-0.8333333333333333</ele><time>2026-05-03T16:10:44.001Z</time></trkpt><trkpt lat="44.31495906753008" lon="12.284437558947237"><ele>-0.6666666666666666</ele><time>2026-05-03T16:10:46.001Z</time></trkpt><trkpt lat="44.31502995350455" lon="12.284432147006616"><ele>-0.5</ele><time>2026-05-03T16:10:47.001Z</time></trkpt><trkpt lat="44.31511975410853" lon="12.284425290965542"><ele>-0.3333333333333333</ele><time>2026-05-03T16:10:48.002Z</time></trkpt><trkpt lat="44.315213606811106" lon="12.28441812740326"><ele>-0.16666666666666666</ele><time>2026-05-03T16:10:49.002Z</time></trkpt><trkpt lat="44.31528586172522" lon="12.284412610940352"><ele>0.0</ele><time>2026-05-03T16:10:50.002Z</time></trkpt><trkpt lat="44.31540672169259" lon="12.28440338360758"><ele>0.0</ele><time>2026-05-03T16:10:52.002Z</time></trkpt><trkpt lat="44.315476033040504" lon="12.284398091873802"><ele>0.0</ele><time>2026-05-03T16:10:53.002Z</time></trkpt><trkpt lat="44.315543736971385" lon="12.284392922864113"><ele>0.0</ele><time>2026-05-03T16:10:54.002Z</time></trkpt><trkpt lat="44.31564887168283" lon="12.284384801043604"><ele>0.0</ele><time>2026-05-03T16:10:56.002Z</time></trkpt><trkpt lat="44.31577332162371" lon="12.284375082337716"><ele>0.0</ele><time>2026-05-03T16:10:58.002Z</time></trkpt><trkpt lat="44.315855196411974" lon="12.284368688466738"><ele>0.0</ele><time>2026-05-03T16:10:59.002Z</time></trkpt><trkpt lat="44.31593914008036" lon="12.284362133024713"><ele>0.0</ele><time>2026-05-03T16:11:00.002Z</time></trkpt><trkpt lat="44.31602355780259" lon="12.28435524772365"><ele>0.0</ele><time>2026-05-03T16:11:01.002Z</time></trkpt><trkpt lat="44.31610547605494" lon="12.284349147161585"><ele>0.0</ele><time>2026-05-03T16:11:02.002Z</time></trkpt><trkpt lat="44.316177778832675" lon="12.28434418203533"><ele>0.0</ele><time>2026-05-03T16:11:03.002Z</time></trkpt><trkpt lat="44.31624272804264" lon="12.28433957082349"><ele>0.0</ele><time>2026-05-03T16:11:04.002Z</time></trkpt><trkpt lat="44.31632809451902" lon="12.28433335360463"><ele>0.0</ele><time>2026-05-03T16:11:06.002Z</time></trkpt><trkpt lat="44.316390563586104" lon="12.284314037521527"><ele>0.0</ele><time>2026-05-03T16:11:09.002Z</time></trkpt><trkpt lat="44.31645619278451" lon="12.284311273591124"><ele>0.0</ele><time>2026-05-03T16:11:12.002Z</time></trkpt><trkpt lat="44.31652464207906" lon="12.284305119231526"><ele>0.0</ele><time>2026-05-03T16:11:15.002Z</time></trkpt><trkpt lat="44.31659663616882" lon="12.284297959100975"><ele>0.0</ele><time>2026-05-03T16:11:17.002Z</time></trkpt><trkpt lat="44.31672981132668" lon="12.284303005774776"><ele>0.0</ele><time>2026-05-03T16:11:19.002Z</time></trkpt><trkpt lat="44.31680484236034" lon="12.284273981506148"><ele>0.0</ele><time>2026-05-03T16:11:20.002Z</time></trkpt><trkpt lat="44.31688211079789" lon="12.284277625137063"><ele>0.0</ele><time>2026-05-03T16:11:21.002Z</time></trkpt><trkpt lat="44.31696106123311" lon="12.284273333952655"><ele>0.0</ele><time>2026-05-03T16:11:22.002Z</time></trkpt><trkpt lat="44.31704260127561" lon="12.284270266324084"><ele>0.0</ele><time>2026-05-03T16:11:23.002Z</time></trkpt><trkpt lat="44.31710601603317" lon="12.284263335885255"><ele>0.0</ele><time>2026-05-03T16:11:24.002Z</time></trkpt><trkpt lat="44.31723017117168" lon="12.284246431085377"><ele>0.0</ele><time>2026-05-03T16:11:26.002Z</time></trkpt><trkpt lat="44.31731043262848" lon="12.284244785766523"><ele>0.0</ele><time>2026-05-03T16:11:27.002Z</time></trkpt><trkpt lat="44.317386468536974" lon="12.28423722186991"><ele>-0.4</ele><time>2026-05-03T16:11:28.002Z</time></trkpt><trkpt lat="44.31746392253155" lon="12.284224749552267"><ele>-0.8</ele><time>2026-05-03T16:11:29.002Z</time></trkpt><trkpt lat="44.31757131056466" lon="12.284215511930945"><ele>-1.2000000000000002</ele><time>2026-05-03T16:11:30.002Z</time></trkpt><trkpt lat="44.317671531716066" lon="12.284209233075325"><ele>-1.6</ele><time>2026-05-03T16:11:31.002Z</time></trkpt><trkpt lat="44.31775536200965" lon="12.284199173091176"><ele>-2.0</ele><time>2026-05-03T16:11:32.002Z</time></trkpt><trkpt lat="44.31783787876693" lon="12.284181482512162"><ele>-2.0</ele><time>2026-05-03T16:11:33.002Z</time></trkpt><trkpt lat="44.31793129902684" lon="12.28416380533348"><ele>-2.0</ele><time>2026-05-03T16:11:34.002Z</time></trkpt><trkpt lat="44.31803338029648" lon="12.284139729102671"><ele>-2.0</ele><time>2026-05-03T16:11:35.002Z</time></trkpt><trkpt lat="44.31815020566602" lon="12.284116414147844"><ele>-2.0</ele><time>2026-05-03T16:11:36.002Z</time></trkpt><trkpt lat="44.31828277226743" lon="12.28409506298952"><ele>-2.0</ele><time>2026-05-03T16:11:37.002Z</time></trkpt><trkpt lat="44.31840628655319" lon="12.28405986166696"><ele>-1.75</ele><time>2026-05-03T16:11:38.002Z</time></trkpt><trkpt lat="44.31853855334767" lon="12.2840441277138"><ele>-1.5</ele><time>2026-05-03T16:11:39.002Z</time></trkpt><trkpt lat="44.318671740195924" lon="12.284007196195205"><ele>-1.25</ele><time>2026-05-03T16:11:40.003Z</time></trkpt><trkpt lat="44.31877915362363" lon="12.283951629470913"><ele>-1.0</ele><time>2026-05-03T16:11:41.003Z</time></trkpt><trkpt lat="44.31888477525282" lon="12.283930765908638"><ele>-1.0</ele><time>2026-05-03T16:11:42.003Z</time></trkpt><trkpt lat="44.31898011671511" lon="12.283902723302417"><ele>-1.0</ele><time>2026-05-03T16:11:43.003Z</time></trkpt><trkpt lat="44.31906671721694" lon="12.28387103213022"><ele>-1.0</ele><time>2026-05-03T16:11:44.003Z</time></trkpt><trkpt lat="44.319150594071935" lon="12.283832802377727"><ele>-1.0</ele><time>2026-05-03T16:11:45.003Z</time></trkpt><trkpt lat="44.31923981986279" lon="12.283790217747939"><ele>-1.0</ele><time>2026-05-03T16:11:46.003Z</time></trkpt><trkpt lat="44.31933753929283" lon="12.283751008878012"><ele>-1.0</ele><time>2026-05-03T16:11:47.003Z</time></trkpt><trkpt lat="44.31944274494339" lon="12.283701032890734"><ele>-1.0</ele><time>2026-05-03T16:11:48.003Z</time></trkpt><trkpt lat="44.31954903463452" lon="12.283652309793256"><ele>-1.0</ele><time>2026-05-03T16:11:49.003Z</time></trkpt><trkpt lat="44.319651316930866" lon="12.283600109172784"><ele>-1.0</ele><time>2026-05-03T16:11:50.003Z</time></trkpt><trkpt lat="44.31974524535664" lon="12.283553331816442"><ele>-1.0</ele><time>2026-05-03T16:11:51.003Z</time></trkpt><trkpt lat="44.319836900929225" lon="12.28350328970777"><ele>-0.8</ele><time>2026-05-03T16:11:52.003Z</time></trkpt><trkpt lat="44.31990616463786" lon="12.283466654987107"><ele>-0.6000000000000001</ele><time>2026-05-03T16:11:53.003Z</time></trkpt><trkpt lat="44.32001639562856" lon="12.28339519169676"><ele>-0.4</ele><time>2026-05-03T16:11:55.003Z</time></trkpt><trkpt lat="44.32009729818001" lon="12.283345179424593"><ele>-0.2</ele><time>2026-05-03T16:11:56.003Z</time></trkpt><trkpt lat="44.32019517677633" lon="12.28329047514366"><ele>0.0</ele><time>2026-05-03T16:11:57.003Z</time></trkpt><trkpt lat="44.32028652119959" lon="12.283230984578374"><ele>0.0</ele><time>2026-05-03T16:11:58.003Z</time></trkpt><trkpt lat="44.32036002015635" lon="12.283182285949179"><ele>0.0</ele><time>2026-05-03T16:11:59.003Z</time></trkpt><trkpt lat="44.320427451076704" lon="12.283141980537414"><ele>0.0</ele><time>2026-05-03T16:12:00.003Z</time></trkpt><trkpt lat="44.32050183086843" lon="12.283096284208833"><ele>0.0</ele><time>2026-05-03T16:12:00.997Z</time></trkpt><trkpt lat="44.32057755696752" lon="12.283047792649608"><ele>0.0</ele><time>2026-05-03T16:12:01.997Z</time></trkpt><trkpt lat="44.32067389938469" lon="12.282983974534428"><ele>0.0</ele><time>2026-05-03T16:12:03.997Z</time></trkpt><trkpt lat="44.32075376876299" lon="12.282924451264131"><ele>-0.2</ele><time>2026-05-03T16:12:05.997Z</time></trkpt><trkpt lat="44.32081062868058" lon="12.282880564160957"><ele>-0.4</ele><time>2026-05-03T16:12:06.997Z</time></trkpt><trkpt lat="44.32090102297832" lon="12.282809654354976"><ele>-0.6000000000000001</ele><time>2026-05-03T16:12:07.997Z</time></trkpt><trkpt lat="44.3209891687538" lon="12.282748679827723"><ele>-0.8</ele><time>2026-05-03T16:12:08.997Z</time></trkpt><trkpt lat="44.32107919728205" lon="12.282687362000441"><ele>-1.0</ele><time>2026-05-03T16:12:09.997Z</time></trkpt><trkpt lat="44.32117768117336" lon="12.28261529464799"><ele>-1.0</ele><time>2026-05-03T16:12:10.997Z</time></trkpt><trkpt lat="44.32128440991125" lon="12.282531801195994"><ele>-1.0</ele><time>2026-05-03T16:12:11.997Z</time></trkpt><trkpt lat="44.321392366721895" lon="12.282448243533112"><ele>-1.0</ele><time>2026-05-03T16:12:12.997Z</time></trkpt><trkpt lat="44.32149048047435" lon="12.282363707098314"><ele>-1.0</ele><time>2026-05-03T16:12:13.997Z</time></trkpt><trkpt lat="44.321580787262036" lon="12.282283813474548"><ele>-0.8</ele><time>2026-05-03T16:12:14.997Z</time></trkpt><trkpt lat="44.321671179339596" lon="12.282207421789773"><ele>-0.6000000000000001</ele><time>2026-05-03T16:12:15.997Z</time></trkpt><trkpt lat="44.32176374821756" lon="12.28212939666097"><ele>-0.4</ele><time>2026-05-03T16:12:16.998Z</time></trkpt><trkpt lat="44.3218617427418" lon="12.28204721244433"><ele>-0.2</ele><time>2026-05-03T16:12:17.998Z</time></trkpt><trkpt lat="44.321951190043244" lon="12.281967590587165"><ele>0.0</ele><time>2026-05-03T16:12:18.998Z</time></trkpt><trkpt lat="44.32204785429031" lon="12.281887453766561"><ele>0.0</ele><time>2026-05-03T16:12:19.998Z</time></trkpt><trkpt lat="44.32215473863734" lon="12.281797320134462"><ele>0.0</ele><time>2026-05-03T16:12:20.998Z</time></trkpt><trkpt lat="44.3222614845724" lon="12.281704705935832"><ele>0.0</ele><time>2026-05-03T16:12:21.998Z</time></trkpt><trkpt lat="44.32236811504932" lon="12.281626833140203"><ele>0.0</ele><time>2026-05-03T16:12:22.998Z</time></trkpt><trkpt lat="44.322485048973995" lon="12.281529172503628"><ele>-0.25</ele><time>2026-05-03T16:12:23.998Z</time></trkpt><trkpt lat="44.322613289161595" lon="12.281417159249974"><ele>-0.5</ele><time>2026-05-03T16:12:24.998Z</time></trkpt><trkpt lat="44.322742943908125" lon="12.281307431175897"><ele>-0.75</ele><time>2026-05-03T16:12:25.998Z</time></trkpt><trkpt lat="44.32286720046857" lon="12.281201521610628"><ele>-1.0</ele><time>2026-05-03T16:12:26.998Z</time></trkpt><trkpt lat="44.32298090018934" lon="12.281102721761227"><ele>-1.0</ele><time>2026-05-03T16:12:27.998Z</time></trkpt><trkpt lat="44.32309248461395" lon="12.281005174758077"><ele>-1.0</ele><time>2026-05-03T16:12:28.999Z</time></trkpt><trkpt lat="44.3232078490805" lon="12.280909171280912"><ele>-1.0</ele><time>2026-05-03T16:12:29.999Z</time></trkpt><trkpt lat="44.32332155290451" lon="12.280813783035066"><ele>-1.0</ele><time>2026-05-03T16:12:30.999Z</time></trkpt><trkpt lat="44.32342990301372" lon="12.28072347912299"><ele>-1.0</ele><time>2026-05-03T16:12:31.999Z</time></trkpt><trkpt lat="44.323529297296716" lon="12.280636638042713"><ele>-1.0</ele><time>2026-05-03T16:12:32.999Z</time></trkpt><trkpt lat="44.32362199149113" lon="12.280557684978074"><ele>-1.0</ele><time>2026-05-03T16:12:33.999Z</time></trkpt><trkpt lat="44.32372030356957" lon="12.280472007194298"><ele>-1.0</ele><time>2026-05-03T16:12:34.999Z</time></trkpt><trkpt lat="44.32382216681878" lon="12.280386065713849"><ele>-0.75</ele><time>2026-05-03T16:12:35.999Z</time></trkpt><trkpt lat="44.32393344104489" lon="12.280289990454795"><ele>-0.5</ele><time>2026-05-03T16:12:36.999Z</time></trkpt><trkpt lat="44.32404969247474" lon="12.28018358139524"><ele>-0.25</ele><time>2026-05-03T16:12:37.999Z</time></trkpt><trkpt lat="44.32417898670873" lon="12.280062874913792"><ele>0.0</ele><time>2026-05-03T16:12:38.999Z</time></trkpt><trkpt lat="44.324318259015534" lon="12.279942315554523"><ele>0.0</ele><time>2026-05-03T16:12:39.999Z</time></trkpt><trkpt lat="44.32446364096323" lon="12.279817954181246"><ele>0.0</ele><time>2026-05-03T16:12:40.999Z</time></trkpt><trkpt lat="44.32460522228925" lon="12.279699385467337"><ele>0.0</ele><time>2026-05-03T16:12:41.999Z</time></trkpt><trkpt lat="44.32473498011656" lon="12.279591028882729"><ele>0.0</ele><time>2026-05-03T16:12:42.999Z</time></trkpt><trkpt lat="44.32485633682934" lon="12.279490048093097"><ele>0.0</ele><time>2026-05-03T16:12:43.999Z</time></trkpt><trkpt lat="44.324967216748426" lon="12.279399578560898"><ele>0.0</ele><time>2026-05-03T16:12:44.999Z</time></trkpt><trkpt lat="44.32508135073985" lon="12.279303881414828"><ele>0.0</ele><time>2026-05-03T16:12:45.999Z</time></trkpt><trkpt lat="44.32520500091452" lon="12.27920209700805"><ele>0.0</ele><time>2026-05-03T16:12:46.999Z</time></trkpt><trkpt lat="44.32532264050125" lon="12.279102183479155"><ele>0.0</ele><time>2026-05-03T16:12:47.999Z</time></trkpt><trkpt lat="44.325439344657084" lon="12.279007366556286"><ele>0.0</ele><time>2026-05-03T16:12:48.999Z</time></trkpt><trkpt lat="44.325553312614375" lon="12.278917766497353"><ele>0.0</ele><time>2026-05-03T16:12:49.999Z</time></trkpt><trkpt lat="44.32566498161308" lon="12.278821630671922"><ele>0.0</ele><time>2026-05-03T16:12:51Z</time></trkpt><trkpt lat="44.32578105039525" lon="12.278722338746672"><ele>0.0</ele><time>2026-05-03T16:12:52Z</time></trkpt><trkpt lat="44.325899724421824" lon="12.278621269762183"><ele>0.0</ele><time>2026-05-03T16:12:53Z</time></trkpt><trkpt lat="44.32602185406116" lon="12.278522437227243"><ele>0.0</ele><time>2026-05-03T16:12:54Z</time></trkpt><trkpt lat="44.326140973245835" lon="12.278416884879526"><ele>0.0</ele><time>2026-05-03T16:12:55Z</time></trkpt><trkpt lat="44.326261082265894" lon="12.278319991618275"><ele>0.0</ele><time>2026-05-03T16:12:56Z</time></trkpt><trkpt lat="44.326374951266516" lon="12.278218268735198"><ele>0.0</ele><time>2026-05-03T16:12:57Z</time></trkpt><trkpt lat="44.32649011217894" lon="12.278124203796375"><ele>0.0</ele><time>2026-05-03T16:12:58Z</time></trkpt><trkpt lat="44.32661642649027" lon="12.278021854431733"><ele>0.25</ele><time>2026-05-03T16:12:59Z</time></trkpt><trkpt lat="44.326746181023296" lon="12.277917731998421"><ele>0.5</ele><time>2026-05-03T16:13:00Z</time></trkpt><trkpt lat="44.32686859537016" lon="12.277811139248263"><ele>0.75</ele><time>2026-05-03T16:13:01Z</time></trkpt><trkpt lat="44.32699221166986" lon="12.277710845600383"><ele>1.0</ele><time>2026-05-03T16:13:02Z</time></trkpt><trkpt lat="44.327113382112174" lon="12.277611420329357"><ele>0.5</ele><time>2026-05-03T16:13:03Z</time></trkpt><trkpt lat="44.32723197147008" lon="12.27751169447308"><ele>0.0</ele><time>2026-05-03T16:13:04Z</time></trkpt><trkpt lat="44.327348008924" lon="12.277415106867291"><ele>-0.5</ele><time>2026-05-03T16:13:05Z</time></trkpt><trkpt lat="44.327467816568294" lon="12.277314393416919"><ele>-1.0</ele><time>2026-05-03T16:13:06Z</time></trkpt><trkpt lat="44.327587008564215" lon="12.277213576577799"><ele>-1.0</ele><time>2026-05-03T16:13:07Z</time></trkpt><trkpt lat="44.32771411559632" lon="12.277112988171995"><ele>-1.0</ele><time>2026-05-03T16:13:08Z</time></trkpt><trkpt lat="44.3278467646079" lon="12.277001944529273"><ele>-1.0</ele><time>2026-05-03T16:13:09Z</time></trkpt><trkpt lat="44.327976727963495" lon="12.276890554891345"><ele>-0.6666666666666666</ele><time>2026-05-03T16:13:10Z</time></trkpt><trkpt lat="44.32810742529538" lon="12.276785607500278"><ele>-0.3333333333333333</ele><time>2026-05-03T16:13:11Z</time></trkpt><trkpt lat="44.32823863236211" lon="12.276680346916976"><ele>0.0</ele><time>2026-05-03T16:13:12Z</time></trkpt><trkpt lat="44.3283712106571" lon="12.27656856596439"><ele>0.0</ele><time>2026-05-03T16:13:13Z</time></trkpt><trkpt lat="44.3285041764806" lon="12.276460983245745"><ele>0.0</ele><time>2026-05-03T16:13:14Z</time></trkpt><trkpt lat="44.32863798395248" lon="12.276351276258614"><ele>0.0</ele><time>2026-05-03T16:13:15Z</time></trkpt><trkpt lat="44.328773693419286" lon="12.276240550293869"><ele>-0.25</ele><time>2026-05-03T16:13:16Z</time></trkpt><trkpt lat="44.32890221565701" lon="12.276132343315028"><ele>-0.5</ele><time>2026-05-03T16:13:17Z</time></trkpt><trkpt lat="44.32902492465964" lon="12.276029196288125"><ele>-0.75</ele><time>2026-05-03T16:13:18Z</time></trkpt><trkpt lat="44.32915061395402" lon="12.275929229079559"><ele>-1.0</ele><time>2026-05-03T16:13:19Z</time></trkpt><trkpt lat="44.32928722011023" lon="12.275819915962435"><ele>-1.0</ele><time>2026-05-03T16:13:20Z</time></trkpt><trkpt lat="44.329421007509794" lon="12.275713628426427"><ele>-1.0</ele><time>2026-05-03T16:13:21Z</time></trkpt><trkpt lat="44.32954956004662" lon="12.275606661076797"><ele>-1.0</ele><time>2026-05-03T16:13:22.001Z</time></trkpt><trkpt lat="44.329685529953906" lon="12.27549331721939"><ele>-0.75</ele><time>2026-05-03T16:13:23.001Z</time></trkpt><trkpt lat="44.32982074720246" lon="12.27537883274426"><ele>-0.5</ele><time>2026-05-03T16:13:24.001Z</time></trkpt><trkpt lat="44.3299443673279" lon="12.275277197154967"><ele>-0.25</ele><time>2026-05-03T16:13:25.001Z</time></trkpt><trkpt lat="44.33006205239965" lon="12.275180217958178"><ele>0.0</ele><time>2026-05-03T16:13:26.001Z</time></trkpt><trkpt lat="44.33018434482211" lon="12.275073589531676"><ele>0.0</ele><time>2026-05-03T16:13:27.001Z</time></trkpt><trkpt lat="44.330315339619595" lon="12.274959485073014"><ele>0.0</ele><time>2026-05-03T16:13:28.001Z</time></trkpt><trkpt lat="44.330448229519135" lon="12.274853402985423"><ele>0.0</ele><time>2026-05-03T16:13:29.001Z</time></trkpt><trkpt lat="44.33058091418168" lon="12.274751422734568"><ele>-0.3333333333333333</ele><time>2026-05-03T16:13:30.001Z</time></trkpt><trkpt lat="44.330718336967855" lon="12.274650292130755"><ele>-0.6666666666666666</ele><time>2026-05-03T16:13:31.001Z</time></trkpt><trkpt lat="44.33085482582362" lon="12.27455715912834"><ele>-1.0</ele><time>2026-05-03T16:13:32.001Z</time></trkpt><trkpt lat="44.330992947366134" lon="12.274467732441593"><ele>-1.0</ele><time>2026-05-03T16:13:33.001Z</time></trkpt><trkpt lat="44.3311302273017" lon="12.274379496761924"><ele>-1.0</ele><time>2026-05-03T16:13:34.001Z</time></trkpt><trkpt lat="44.3312710456142" lon="12.274289812565598"><ele>-1.0</ele><time>2026-05-03T16:13:35.001Z</time></trkpt><trkpt lat="44.331413179244656" lon="12.274191713593689"><ele>-1.3333333333333333</ele><time>2026-05-03T16:13:36.001Z</time></trkpt><trkpt lat="44.331565013102505" lon="12.274087668165372"><ele>-1.6666666666666665</ele><time>2026-05-03T16:13:37.001Z</time></trkpt><trkpt lat="44.33172152620761" lon="12.273979403954314"><ele>-2.0</ele><time>2026-05-03T16:13:38.001Z</time></trkpt><trkpt lat="44.33187223851006" lon="12.273878399341804"><ele>-2.0</ele><time>2026-05-03T16:13:39.001Z</time></trkpt><trkpt lat="44.33201353547508" lon="12.273784210697794"><ele>-2.0</ele><time>2026-05-03T16:13:40.001Z</time></trkpt><trkpt lat="44.33215445448944" lon="12.273685838761162"><ele>-2.0</ele><time>2026-05-03T16:13:41.001Z</time></trkpt><trkpt lat="44.33230037953118" lon="12.273595944115138"><ele>-2.0</ele><time>2026-05-03T16:13:42.001Z</time></trkpt><trkpt lat="44.332435804337436" lon="12.273505139035771"><ele>-2.0</ele><time>2026-05-03T16:13:43.001Z</time></trkpt><trkpt lat="44.33256433787163" lon="12.273412577772445"><ele>-2.0</ele><time>2026-05-03T16:13:44.001Z</time></trkpt><trkpt lat="44.33269655595969" lon="12.27332323934897"><ele>-2.0</ele><time>2026-05-03T16:13:45.001Z</time></trkpt><trkpt lat="44.3328304000667" lon="12.273234950947467"><ele>-2.0</ele><time>2026-05-03T16:13:46.001Z</time></trkpt><trkpt lat="44.33294978495257" lon="12.273153949633155"><ele>-2.0</ele><time>2026-05-03T16:13:47.001Z</time></trkpt><trkpt lat="44.33305860512693" lon="12.273078780385116"><ele>-2.0</ele><time>2026-05-03T16:13:48.001Z</time></trkpt><trkpt lat="44.33316494153283" lon="12.273001047688686"><ele>-2.0</ele><time>2026-05-03T16:13:49.001Z</time></trkpt><trkpt lat="44.33327643692057" lon="12.27291547185992"><ele>-1.8</ele><time>2026-05-03T16:13:50.001Z</time></trkpt><trkpt lat="44.333368245925854" lon="12.272849265986304"><ele>-1.6</ele><time>2026-05-03T16:13:51.001Z</time></trkpt><trkpt lat="44.333434553907274" lon="12.27280470839756"><ele>-1.4000000000000001</ele><time>2026-05-03T16:13:52.001Z</time></trkpt><trkpt lat="44.33354537879147" lon="12.27272567380324"><ele>-1.2000000000000002</ele><time>2026-05-03T16:13:54.001Z</time></trkpt><trkpt lat="44.33360885665939" lon="12.272680297857054"><ele>-1.0</ele><time>2026-05-03T16:13:55.001Z</time></trkpt><trkpt lat="44.3337054388286" lon="12.272602460195925"><ele>-0.9999999999999999</ele><time>2026-05-03T16:13:57.002Z</time></trkpt><trkpt lat="44.333760239502226" lon="12.272557612447962"><ele>-1.0</ele><time>2026-05-03T16:13:58.002Z</time></trkpt><trkpt lat="44.333837507204144" lon="12.272514131028641"><ele>-1.0</ele><time>2026-05-03T16:14:00.002Z</time></trkpt><trkpt lat="44.333924118428484" lon="12.27249560214206"><ele>-1.0</ele><time>2026-05-03T16:14:03.002Z</time></trkpt><trkpt lat="44.3339994963817" lon="12.27248864866998"><ele>-0.9999999999999999</ele><time>2026-05-03T16:14:04.002Z</time></trkpt><trkpt lat="44.33408383761716" lon="12.272489217247173"><ele>-1.0</ele><time>2026-05-03T16:14:05.002Z</time></trkpt><trkpt lat="44.33416724277687" lon="12.272488065552016"><ele>-0.8333333333333333</ele><time>2026-05-03T16:14:06.002Z</time></trkpt><trkpt lat="44.33423824057113" lon="12.27247786361298"><ele>-0.6666666666666666</ele><time>2026-05-03T16:14:06.997Z</time></trkpt><trkpt lat="44.33435065625983" lon="12.272419073750013"><ele>-0.5</ele><time>2026-05-03T16:14:08.997Z</time></trkpt><trkpt lat="44.334408389586564" lon="12.272367477066338"><ele>-0.3333333333333333</ele><time>2026-05-03T16:14:09.997Z</time></trkpt><trkpt lat="44.334466378788065" lon="12.272295213316276"><ele>-0.16666666666666666</ele><time>2026-05-03T16:14:10.997Z</time></trkpt><trkpt lat="44.33452093848292" lon="12.272209339424656"><ele>0.0</ele><time>2026-05-03T16:14:11.997Z</time></trkpt><trkpt lat="44.33456526559477" lon="12.272122743106253"><ele>-0.2857142857142857</ele><time>2026-05-03T16:14:12.998Z</time></trkpt><trkpt lat="44.33460007395703" lon="12.272041295944522"><ele>-0.5714285714285714</ele><time>2026-05-03T16:14:13.998Z</time></trkpt><trkpt lat="44.33463482706453" lon="12.271958830270542"><ele>-0.8571428571428571</ele><time>2026-05-03T16:14:14.998Z</time></trkpt><trkpt lat="44.334671983849574" lon="12.271885475606432"><ele>-1.1428571428571428</ele><time>2026-05-03T16:14:15.998Z</time></trkpt><trkpt lat="44.3347330581715" lon="12.271796332525787"><ele>-1.4285714285714284</ele><time>2026-05-03T16:14:17.998Z</time></trkpt><trkpt lat="44.33479273304533" lon="12.27173258466147"><ele>-1.7142857142857142</ele><time>2026-05-03T16:14:19.998Z</time></trkpt><trkpt lat="44.33485147992152" lon="12.271666597372086"><ele>-2.0</ele><time>2026-05-03T16:14:21.998Z</time></trkpt><trkpt lat="44.33491191437827" lon="12.271602567136934"><ele>-1.9999999999999998</ele><time>2026-05-03T16:14:23.998Z</time></trkpt><trkpt lat="44.33499867001769" lon="12.271520073559875"><ele>-2.0</ele><time>2026-05-03T16:14:25.999Z</time></trkpt><trkpt lat="44.335069170549204" lon="12.271461246559932"><ele>-2.0</ele><time>2026-05-03T16:14:27.999Z</time></trkpt><trkpt lat="44.33512278682173" lon="12.27140583097947"><ele>-2.0</ele><time>2026-05-03T16:14:29.999Z</time></trkpt><trkpt lat="44.3351760767749" lon="12.27135169355972"><ele>-1.9999999999999998</ele><time>2026-05-03T16:14:31.999Z</time></trkpt><trkpt lat="44.33523107137432" lon="12.271294905697362"><ele>-2.0</ele><time>2026-05-03T16:14:33.999Z</time></trkpt><trkpt lat="44.335297305517805" lon="12.271225657560244"><ele>-1.9999999999999998</ele><time>2026-05-03T16:14:35.999Z</time></trkpt><trkpt lat="44.33534957305072" lon="12.271173426637912"><ele>-2.0</ele><time>2026-05-03T16:14:37.999Z</time></trkpt><trkpt lat="44.33541057540015" lon="12.271116685931483"><ele>-2.0</ele><time>2026-05-03T16:14:39.999Z</time></trkpt><trkpt lat="44.335490034169396" lon="12.271038461552228"><ele>-2.0</ele><time>2026-05-03T16:14:42Z</time></trkpt><trkpt lat="44.3355764919362" lon="12.27094727199954"><ele>-1.9999999999999998</ele><time>2026-05-03T16:14:44Z</time></trkpt><trkpt lat="44.33563699973229" lon="12.27089145294696"><ele>-2.0</ele><time>2026-05-03T16:14:45Z</time></trkpt><trkpt lat="44.335717719832296" lon="12.27082545752571"><ele>-2.0</ele><time>2026-05-03T16:14:46Z</time></trkpt><trkpt lat="44.33579634992765" lon="12.270767228342663"><ele>-2.0</ele><time>2026-05-03T16:14:47Z</time></trkpt><trkpt lat="44.335853361107496" lon="12.270719595469984"><ele>-2.0</ele><time>2026-05-03T16:14:48Z</time></trkpt><trkpt lat="44.335922057235955" lon="12.270636103455105"><ele>-2.0</ele><time>2026-05-03T16:14:50Z</time></trkpt><trkpt lat="44.335988142138795" lon="12.270559643084445"><ele>-2.0</ele><time>2026-05-03T16:14:52Z</time></trkpt><trkpt lat="44.3360806337519" lon="12.270458038759838"><ele>-1.8</ele><time>2026-05-03T16:14:54Z</time></trkpt><trkpt lat="44.33617703669199" lon="12.270367027782775"><ele>-1.6</ele><time>2026-05-03T16:14:56Z</time></trkpt><trkpt lat="44.33623169925594" lon="12.270315460086557"><ele>-1.4000000000000001</ele><time>2026-05-03T16:14:57Z</time></trkpt><trkpt lat="44.33628468484994" lon="12.270263882552898"><ele>-1.2000000000000002</ele><time>2026-05-03T16:14:58Z</time></trkpt><trkpt lat="44.33638089815173" lon="12.270168738177228"><ele>-1.0</ele><time>2026-05-03T16:15:00Z</time></trkpt><trkpt lat="44.33646962499594" lon="12.2700856675125"><ele>-1.0</ele><time>2026-05-03T16:15:02Z</time></trkpt><trkpt lat="44.33655853239551" lon="12.269995711296536"><ele>-1.0</ele><time>2026-05-03T16:15:04Z</time></trkpt><trkpt lat="44.33664936463196" lon="12.269901945927867"><ele>-1.0</ele><time>2026-05-03T16:15:06.001Z</time></trkpt><trkpt lat="44.33671023179764" lon="12.269853244837147"><ele>-1.0</ele><time>2026-05-03T16:15:07.001Z</time></trkpt><trkpt lat="44.33681045024923" lon="12.269752891449711"><ele>-1.0</ele><time>2026-05-03T16:15:09.001Z</time></trkpt><trkpt lat="44.33686123870771" lon="12.26969920501414"><ele>-0.8</ele><time>2026-05-03T16:15:10.001Z</time></trkpt><trkpt lat="44.33694476922133" lon="12.269601259396952"><ele>-0.6000000000000001</ele><time>2026-05-03T16:15:12.001Z</time></trkpt><trkpt lat="44.33700736874679" lon="12.269509777290919"><ele>-0.4</ele><time>2026-05-03T16:15:14.001Z</time></trkpt><trkpt lat="44.33708221546307" lon="12.269427700515138"><ele>-0.2</ele><time>2026-05-03T16:15:15.001Z</time></trkpt><trkpt lat="44.337178888611746" lon="12.269327714075839"><ele>0.0</ele><time>2026-05-03T16:15:16.001Z</time></trkpt><trkpt lat="44.33727523462581" lon="12.269236579050476"><ele>0.25</ele><time>2026-05-03T16:15:17.001Z</time></trkpt><trkpt lat="44.337386520984985" lon="12.269169213582208"><ele>0.5</ele><time>2026-05-03T16:15:18.001Z</time></trkpt><trkpt lat="44.33748467363046" lon="12.269087779745437"><ele>0.75</ele><time>2026-05-03T16:15:19.001Z</time></trkpt><trkpt lat="44.33758598075794" lon="12.269004623809812"><ele>1.0</ele><time>2026-05-03T16:15:20.001Z</time></trkpt><trkpt lat="44.337688407450464" lon="12.268906419064836"><ele>1.0</ele><time>2026-05-03T16:15:21.001Z</time></trkpt><trkpt lat="44.33780237954692" lon="12.26881717677438"><ele>1.0</ele><time>2026-05-03T16:15:22.001Z</time></trkpt><trkpt lat="44.33790665733506" lon="12.268730779522551"><ele>1.0</ele><time>2026-05-03T16:15:23.001Z</time></trkpt><trkpt lat="44.338002024329576" lon="12.26864630699294"><ele>1.0</ele><time>2026-05-03T16:15:24.001Z</time></trkpt><trkpt lat="44.338113112642525" lon="12.268557832220647"><ele>1.3333333333333333</ele><time>2026-05-03T16:15:25.001Z</time></trkpt><trkpt lat="44.33824721281906" lon="12.268447089006653"><ele>1.6666666666666665</ele><time>2026-05-03T16:15:26.001Z</time></trkpt><trkpt lat="44.338400476289095" lon="12.268323316565372"><ele>2.0</ele><time>2026-05-03T16:15:27.001Z</time></trkpt><trkpt lat="44.33854719914572" lon="12.268204174096072"><ele>1.75</ele><time>2026-05-03T16:15:28.001Z</time></trkpt><trkpt lat="44.3386763410357" lon="12.268105995389043"><ele>1.5</ele><time>2026-05-03T16:15:29.001Z</time></trkpt><trkpt lat="44.338802246391" lon="12.268004097706163"><ele>1.25</ele><time>2026-05-03T16:15:30.001Z</time></trkpt><trkpt lat="44.33893083027804" lon="12.267894531619735"><ele>1.0</ele><time>2026-05-03T16:15:31.001Z</time></trkpt><trkpt lat="44.339080389193164" lon="12.267786390690995"><ele>1.0</ele><time>2026-05-03T16:15:32.001Z</time></trkpt><trkpt lat="44.339228573112585" lon="12.267678518300393"><ele>1.0</ele><time>2026-05-03T16:15:33.001Z</time></trkpt><trkpt lat="44.33935897989292" lon="12.267580031735251"><ele>1.0</ele><time>2026-05-03T16:15:34.001Z</time></trkpt><trkpt lat="44.339474499362" lon="12.267492564344419"><ele>1.0</ele><time>2026-05-03T16:15:35.001Z</time></trkpt><trkpt lat="44.339578369834676" lon="12.267413760846772"><ele>1.0</ele><time>2026-05-03T16:15:36.001Z</time></trkpt><trkpt lat="44.33967755750752" lon="12.267341042839016"><ele>1.0</ele><time>2026-05-03T16:15:37.001Z</time></trkpt><trkpt lat="44.33978330416205" lon="12.267264268082178"><ele>1.0</ele><time>2026-05-03T16:15:38.002Z</time></trkpt><trkpt lat="44.33989536664296" lon="12.267183022705016"><ele>1.0</ele><time>2026-05-03T16:15:39.002Z</time></trkpt><trkpt lat="44.340006049104524" lon="12.267100465058409"><ele>0.5</ele><time>2026-05-03T16:15:40.002Z</time></trkpt><trkpt lat="44.34011626214281" lon="12.267016487559475"><ele>0.0</ele><time>2026-05-03T16:15:41.002Z</time></trkpt><trkpt lat="44.340217206169086" lon="12.26694045516414"><ele>-0.5</ele><time>2026-05-03T16:15:42.002Z</time></trkpt><trkpt lat="44.34031613664276" lon="12.266870426212124"><ele>-1.0</ele><time>2026-05-03T16:15:43.002Z</time></trkpt><trkpt lat="44.34042745766701" lon="12.266787880130751"><ele>-1.0</ele><time>2026-05-03T16:15:44.002Z</time></trkpt><trkpt lat="44.340542704971526" lon="12.266704379957314"><ele>-1.0</ele><time>2026-05-03T16:15:45.002Z</time></trkpt><trkpt lat="44.34065745010779" lon="12.26662035108243"><ele>-1.0</ele><time>2026-05-03T16:15:46.002Z</time></trkpt><trkpt lat="44.34077406749996" lon="12.266530136479531"><ele>-1.0</ele><time>2026-05-03T16:15:47.002Z</time></trkpt><trkpt lat="44.34089030406771" lon="12.26644372214757"><ele>-1.0</ele><time>2026-05-03T16:15:48.002Z</time></trkpt><trkpt lat="44.34100928470671" lon="12.266356775133541"><ele>-1.0</ele><time>2026-05-03T16:15:49.002Z</time></trkpt><trkpt lat="44.341124328517296" lon="12.266273567950032"><ele>-1.0</ele><time>2026-05-03T16:15:50.002Z</time></trkpt><trkpt lat="44.34123669425035" lon="12.266193453873488"><ele>-1.0</ele><time>2026-05-03T16:15:51.002Z</time></trkpt><trkpt lat="44.34134525103505" lon="12.266115845203368"><ele>-1.0</ele><time>2026-05-03T16:15:52.002Z</time></trkpt><trkpt lat="44.341452954010364" lon="12.266037087389861"><ele>-1.0</ele><time>2026-05-03T16:15:53.002Z</time></trkpt><trkpt lat="44.341555265997556" lon="12.265959448560464"><ele>-1.0</ele><time>2026-05-03T16:15:54.002Z</time></trkpt><trkpt lat="44.34165586866405" lon="12.26587989703165"><ele>-1.0</ele><time>2026-05-03T16:15:55.002Z</time></trkpt><trkpt lat="44.341758849840105" lon="12.265805127503649"><ele>-1.0</ele><time>2026-05-03T16:15:56.002Z</time></trkpt><trkpt lat="44.34186213970483" lon="12.265726852074117"><ele>-1.0</ele><time>2026-05-03T16:15:57.002Z</time></trkpt><trkpt lat="44.34196568591191" lon="12.265650010999051"><ele>-1.0</ele><time>2026-05-03T16:15:58.002Z</time></trkpt><trkpt lat="44.34206961627218" lon="12.265571383768261"><ele>-1.0</ele><time>2026-05-03T16:15:59.002Z</time></trkpt><trkpt lat="44.34217880471937" lon="12.265490188685364"><ele>-0.75</ele><time>2026-05-03T16:16:00.002Z</time></trkpt><trkpt lat="44.342294015591804" lon="12.265400519615676"><ele>-0.5</ele><time>2026-05-03T16:16:01.002Z</time></trkpt><trkpt lat="44.34241987669125" lon="12.26530620291991"><ele>-0.25</ele><time>2026-05-03T16:16:02.002Z</time></trkpt><trkpt lat="44.3425435046885" lon="12.265213290796183"><ele>0.0</ele><time>2026-05-03T16:16:03.002Z</time></trkpt><trkpt lat="44.34266596776967" lon="12.265127110049244"><ele>0.0</ele><time>2026-05-03T16:16:04.002Z</time></trkpt><trkpt lat="44.3427960550891" lon="12.265028210960956"><ele>0.0</ele><time>2026-05-03T16:16:05.002Z</time></trkpt><trkpt lat="44.34293955164608" lon="12.264911785445738"><ele>0.0</ele><time>2026-05-03T16:16:06.002Z</time></trkpt><trkpt lat="44.343121637930274" lon="12.26479398922542"><ele>-1.0</ele><time>2026-05-03T16:16:07.002Z</time></trkpt><trkpt lat="44.343310544654656" lon="12.26464978873686"><ele>-2.0</ele><time>2026-05-03T16:16:08.002Z</time></trkpt><trkpt lat="44.34348477637443" lon="12.264516801376274"><ele>-3.0</ele><time>2026-05-03T16:16:09.002Z</time></trkpt><trkpt lat="44.343641152265704" lon="12.26439744332256"><ele>-3.0</ele><time>2026-05-03T16:16:10.002Z</time></trkpt><trkpt lat="44.34379315920295" lon="12.26428141984076"><ele>-3.0</ele><time>2026-05-03T16:16:11.003Z</time></trkpt><trkpt lat="44.34394894200998" lon="12.264162514557883"><ele>-3.0</ele><time>2026-05-03T16:16:12.003Z</time></trkpt><trkpt lat="44.344104967130185" lon="12.264043424207294"><ele>-3.0</ele><time>2026-05-03T16:16:13.001Z</time></trkpt><trkpt lat="44.34427547084111" lon="12.263913282695727"><ele>-3.0</ele><time>2026-05-03T16:16:14.001Z</time></trkpt><trkpt lat="44.34446131791635" lon="12.26377143007205"><ele>-3.0</ele><time>2026-05-03T16:16:15.001Z</time></trkpt><trkpt lat="44.34465644255576" lon="12.263622495929587"><ele>-2.3333333333333335</ele><time>2026-05-03T16:16:16.001Z</time></trkpt><trkpt lat="44.344847360819955" lon="12.26347677246238"><ele>-1.6666666666666665</ele><time>2026-05-03T16:16:17.001Z</time></trkpt><trkpt lat="44.34503436688568" lon="12.26333403669169"><ele>-1.0</ele><time>2026-05-03T16:16:18.001Z</time></trkpt><trkpt lat="44.34519998253046" lon="12.263184304075516"><ele>-1.3333333333333333</ele><time>2026-05-03T16:16:19.001Z</time></trkpt><trkpt lat="44.345366115137004" lon="12.263059414071009"><ele>-1.6666666666666665</ele><time>2026-05-03T16:16:20.001Z</time></trkpt><trkpt lat="44.34552390878495" lon="12.26294110068949"><ele>-2.0</ele><time>2026-05-03T16:16:21.001Z</time></trkpt><trkpt lat="44.34566953587954" lon="12.26283337406185"><ele>-2.0</ele><time>2026-05-03T16:16:22Z</time></trkpt><trkpt lat="44.34580472670351" lon="12.262733815435881"><ele>-2.0</ele><time>2026-05-03T16:16:23Z</time></trkpt><trkpt lat="44.34593403500592" lon="12.262638777972528"><ele>-2.0</ele><time>2026-05-03T16:16:24Z</time></trkpt><trkpt lat="44.346053277140356" lon="12.262550952191614"><ele>-2.0</ele><time>2026-05-03T16:16:25Z</time></trkpt><trkpt lat="44.34616167531922" lon="12.262471462356128"><ele>-2.0</ele><time>2026-05-03T16:16:26Z</time></trkpt><trkpt lat="44.346267825037884" lon="12.262392871406947"><ele>-2.0</ele><time>2026-05-03T16:16:27Z</time></trkpt><trkpt lat="44.346369326281874" lon="12.26231756999368"><ele>-2.0</ele><time>2026-05-03T16:16:28Z</time></trkpt><trkpt lat="44.34647205269171" lon="12.262247984460476"><ele>-2.0</ele><time>2026-05-03T16:16:29Z</time></trkpt><trkpt lat="44.346575540738264" lon="12.26217216235018"><ele>-2.0</ele><time>2026-05-03T16:16:30Z</time></trkpt><trkpt lat="44.34667581428876" lon="12.2620950674562"><ele>-2.0</ele><time>2026-05-03T16:16:31Z</time></trkpt><trkpt lat="44.34678308864495" lon="12.262014383324741"><ele>-2.0</ele><time>2026-05-03T16:16:32Z</time></trkpt><trkpt lat="44.34690034373322" lon="12.261923977673248"><ele>-2.0</ele><time>2026-05-03T16:16:33Z</time></trkpt><trkpt lat="44.34701610019585" lon="12.261838611169821"><ele>-2.0</ele><time>2026-05-03T16:16:34Z</time></trkpt><trkpt lat="44.34713164497746" lon="12.261754645489171"><ele>-2.0</ele><time>2026-05-03T16:16:35.001Z</time></trkpt><trkpt lat="44.3472445904679" lon="12.261667893765091"><ele>-2.0</ele><time>2026-05-03T16:16:36.001Z</time></trkpt><trkpt lat="44.34735613036451" lon="12.26157967144613"><ele>-2.0</ele><time>2026-05-03T16:16:37.001Z</time></trkpt><trkpt lat="44.34746704985385" lon="12.261491860842126"><ele>-1.75</ele><time>2026-05-03T16:16:38.001Z</time></trkpt><trkpt lat="44.34758239917854" lon="12.261401331518387"><ele>-1.5</ele><time>2026-05-03T16:16:39.001Z</time></trkpt><trkpt lat="44.34769651345409" lon="12.261314248780415"><ele>-1.25</ele><time>2026-05-03T16:16:40.001Z</time></trkpt><trkpt lat="44.34781387337946" lon="12.261221568162272"><ele>-1.0</ele><time>2026-05-03T16:16:41.001Z</time></trkpt><trkpt lat="44.3479333692876" lon="12.261130341149025"><ele>-1.0</ele><time>2026-05-03T16:16:42.001Z</time></trkpt><trkpt lat="44.34803950093928" lon="12.261051348801365"><ele>-1.0</ele><time>2026-05-03T16:16:43.001Z</time></trkpt><trkpt lat="44.34813830441358" lon="12.260974518362387"><ele>-1.0</ele><time>2026-05-03T16:16:44.001Z</time></trkpt><trkpt lat="44.34822670332399" lon="12.260902403990913"><ele>-1.0</ele><time>2026-05-03T16:16:45.001Z</time></trkpt><trkpt lat="44.34831054157868" lon="12.260840096659013"><ele>-1.0</ele><time>2026-05-03T16:16:46.001Z</time></trkpt><trkpt lat="44.34840009366032" lon="12.26077265442841"><ele>-0.8333333333333333</ele><time>2026-05-03T16:16:47.001Z</time></trkpt><trkpt lat="44.348492306518224" lon="12.260701946781246"><ele>-0.6666666666666666</ele><time>2026-05-03T16:16:48.001Z</time></trkpt><trkpt lat="44.34857174945741" lon="12.260641204723836"><ele>-0.5</ele><time>2026-05-03T16:16:49.001Z</time></trkpt><trkpt lat="44.34864135222306" lon="12.26058774625411"><ele>-0.3333333333333333</ele><time>2026-05-03T16:16:50.001Z</time></trkpt><trkpt lat="44.34870947803055" lon="12.260535060634501"><ele>-0.16666666666666666</ele><time>2026-05-03T16:16:51.001Z</time></trkpt><trkpt lat="44.34877923003854" lon="12.260477805311082"><ele>0.0</ele><time>2026-05-03T16:16:52.001Z</time></trkpt><trkpt lat="44.34885553316191" lon="12.260417380869566"><ele>0.2</ele><time>2026-05-03T16:16:53.001Z</time></trkpt><trkpt lat="44.34892817962452" lon="12.260361246931279"><ele>0.4</ele><time>2026-05-03T16:16:54.001Z</time></trkpt><trkpt lat="44.349013137014225" lon="12.260298712009094"><ele>0.6000000000000001</ele><time>2026-05-03T16:16:55.001Z</time></trkpt><trkpt lat="44.349100001919915" lon="12.260232416285163"><ele>0.8</ele><time>2026-05-03T16:16:56.001Z</time></trkpt><trkpt lat="44.34918968435023" lon="12.26016411964869"><ele>1.0</ele><time>2026-05-03T16:16:57.001Z</time></trkpt><trkpt lat="44.349277852107676" lon="12.260095753290202"><ele>1.0</ele><time>2026-05-03T16:16:58.001Z</time></trkpt><trkpt lat="44.34936587402499" lon="12.260025670995246"><ele>1.0</ele><time>2026-05-03T16:16:59.001Z</time></trkpt><trkpt lat="44.349444189956245" lon="12.259965739922228"><ele>1.0</ele><time>2026-05-03T16:17:00.001Z</time></trkpt><trkpt lat="44.34952347770978" lon="12.259906900596224"><ele>1.0</ele><time>2026-05-03T16:17:01.001Z</time></trkpt><trkpt lat="44.3496198906852" lon="12.259833043746701"><ele>1.0</ele><time>2026-05-03T16:17:02.001Z</time></trkpt><trkpt lat="44.349721980740945" lon="12.259758523742901"><ele>0.4</ele><time>2026-05-03T16:17:03.001Z</time></trkpt><trkpt lat="44.34981509854354" lon="12.25968772836128"><ele>-0.19999999999999996</ele><time>2026-05-03T16:17:04.001Z</time></trkpt><trkpt lat="44.34990895284443" lon="12.259618507434421"><ele>-0.8000000000000002</ele><time>2026-05-03T16:17:05.001Z</time></trkpt><trkpt lat="44.350001739725776" lon="12.259546269479799"><ele>-1.4000000000000001</ele><time>2026-05-03T16:17:06.001Z</time></trkpt><trkpt lat="44.350094350353224" lon="12.259476078053396"><ele>-2.0</ele><time>2026-05-03T16:17:07.001Z</time></trkpt><trkpt lat="44.35018266575241" lon="12.259407005543196"><ele>-1.9999999999999998</ele><time>2026-05-03T16:17:08.001Z</time></trkpt><trkpt lat="44.35027064108695" lon="12.259341653031193"><ele>-2.0</ele><time>2026-05-03T16:17:09.001Z</time></trkpt><trkpt lat="44.35035400241094" lon="12.259278000475176"><ele>-2.0</ele><time>2026-05-03T16:17:10.001Z</time></trkpt><trkpt lat="44.35042798305031" lon="12.259222537633725"><ele>-2.0</ele><time>2026-05-03T16:17:11.001Z</time></trkpt><trkpt lat="44.350493717612046" lon="12.259172876620605"><ele>-1.9999999999999998</ele><time>2026-05-03T16:17:12.001Z</time></trkpt><trkpt lat="44.35055435259893" lon="12.259126767329395"><ele>-2.0</ele><time>2026-05-03T16:17:13.001Z</time></trkpt><trkpt lat="44.35062903174748" lon="12.25906643559713"><ele>-1.75</ele><time>2026-05-03T16:17:14.001Z</time></trkpt><trkpt lat="44.35072409768328" lon="12.25898477511318"><ele>-1.5</ele><time>2026-05-03T16:17:15.001Z</time></trkpt><trkpt lat="44.35084155535066" lon="12.258910226027876"><ele>-1.25</ele><time>2026-05-03T16:17:16.001Z</time></trkpt><trkpt lat="44.35093858730895" lon="12.258826042392629"><ele>-1.0</ele><time>2026-05-03T16:17:17.001Z</time></trkpt><trkpt lat="44.35101364814174" lon="12.258723152085746"><ele>-1.0</ele><time>2026-05-03T16:17:18.001Z</time></trkpt><trkpt lat="44.35107311684339" lon="12.2586555856827"><ele>-1.0</ele><time>2026-05-03T16:17:19.001Z</time></trkpt><trkpt lat="44.35116334072316" lon="12.258558582158606"><ele>-1.0</ele><time>2026-05-03T16:17:21.002Z</time></trkpt><trkpt lat="44.351283550335125" lon="12.258472732466567"><ele>-1.0</ele><time>2026-05-03T16:17:23.002Z</time></trkpt><trkpt lat="44.35138575501897" lon="12.258433238981269"><ele>-1.0</ele><time>2026-05-03T16:17:24.002Z</time></trkpt><trkpt lat="44.35150524372692" lon="12.258364656017166"><ele>-1.0</ele><time>2026-05-03T16:17:25.002Z</time></trkpt><trkpt lat="44.35160769294674" lon="12.258273857848097"><ele>-1.0</ele><time>2026-05-03T16:17:26.002Z</time></trkpt><trkpt lat="44.35170200685923" lon="12.258171214887222"><ele>-1.0</ele><time>2026-05-03T16:17:27.002Z</time></trkpt><trkpt lat="44.351795349774285" lon="12.258095827627953"><ele>-1.0</ele><time>2026-05-03T16:17:28.002Z</time></trkpt><trkpt lat="44.351869940394174" lon="12.258072684738726"><ele>-1.0</ele><time>2026-05-03T16:17:29.002Z</time></trkpt><trkpt lat="44.35196987203071" lon="12.258044290957914"><ele>-1.2000000000000002</ele><time>2026-05-03T16:17:31.002Z</time></trkpt><trkpt lat="44.352034995145495" lon="12.257996864778208"><ele>-1.4000000000000001</ele><time>2026-05-03T16:17:34.002Z</time></trkpt><trkpt lat="44.352102533975696" lon="12.25793773875273"><ele>-1.6</ele><time>2026-05-03T16:17:36.002Z</time></trkpt><trkpt lat="44.35221766229011" lon="12.257845983888073"><ele>-1.8</ele><time>2026-05-03T16:17:38.002Z</time></trkpt><trkpt lat="44.352295509713166" lon="12.257807576111855"><ele>-2.0</ele><time>2026-05-03T16:17:39.002Z</time></trkpt><trkpt lat="44.35238288820512" lon="12.257744251746807"><ele>-2.0</ele><time>2026-05-03T16:17:40.002Z</time></trkpt><trkpt lat="44.35246909407268" lon="12.257683070801892"><ele>-2.0</ele><time>2026-05-03T16:17:41.002Z</time></trkpt><trkpt lat="44.352542946048295" lon="12.257630655955039"><ele>-2.0</ele><time>2026-05-03T16:17:42.002Z</time></trkpt><trkpt lat="44.352627435166006" lon="12.257570936317947"><ele>-2.0</ele><time>2026-05-03T16:17:43.002Z</time></trkpt><trkpt lat="44.352725889225376" lon="12.25750256691253"><ele>-2.0</ele><time>2026-05-03T16:17:44.002Z</time></trkpt><trkpt lat="44.35282039016123" lon="12.257420521770758"><ele>-2.0</ele><time>2026-05-03T16:17:45.002Z</time></trkpt><trkpt lat="44.352914457823665" lon="12.257361734998533"><ele>-2.0</ele><time>2026-05-03T16:17:46.002Z</time></trkpt><trkpt lat="44.35300114110695" lon="12.257315222269312"><ele>-2.0</ele><time>2026-05-03T16:17:47.002Z</time></trkpt><trkpt lat="44.35309246685869" lon="12.257269311820501"><ele>-2.0</ele><time>2026-05-03T16:17:48.002Z</time></trkpt><trkpt lat="44.35320368636192" lon="12.257219804686283"><ele>-2.0</ele><time>2026-05-03T16:17:49.002Z</time></trkpt><trkpt lat="44.353354763342644" lon="12.257145319016162"><ele>-2.0</ele><time>2026-05-03T16:17:50.002Z</time></trkpt><trkpt lat="44.35354754116609" lon="12.257071308395373"><ele>-2.0</ele><time>2026-05-03T16:17:51.002Z</time></trkpt><trkpt lat="44.353744946540985" lon="12.257021793362277"><ele>-2.0</ele><time>2026-05-03T16:17:52.002Z</time></trkpt><trkpt lat="44.3539180135574" lon="12.256976718918821"><ele>-1.3333333333333333</ele><time>2026-05-03T16:17:53.002Z</time></trkpt><trkpt lat="44.35407228336197" lon="12.256932696828288"><ele>-0.6666666666666666</ele><time>2026-05-03T16:17:54.002Z</time></trkpt><trkpt lat="44.35421663024933" lon="12.256887810588898"><ele>0.0</ele><time>2026-05-03T16:17:55.002Z</time></trkpt><trkpt lat="44.35435968040018" lon="12.256841964719834"><ele>0.0</ele><time>2026-05-03T16:17:56.002Z</time></trkpt><trkpt lat="44.354506409035444" lon="12.256796472697276"><ele>0.0</ele><time>2026-05-03T16:17:57.002Z</time></trkpt><trkpt lat="44.3546619249439" lon="12.256752188343569"><ele>0.0</ele><time>2026-05-03T16:17:58.002Z</time></trkpt><trkpt lat="44.35481804361074" lon="12.256712501120704"><ele>0.0</ele><time>2026-05-03T16:17:59.002Z</time></trkpt><trkpt lat="44.35497134246424" lon="12.256681204003051"><ele>0.0</ele><time>2026-05-03T16:18:00.002Z</time></trkpt><trkpt lat="44.35511677867974" lon="12.256659399427058"><ele>0.0</ele><time>2026-05-03T16:18:01.002Z</time></trkpt><trkpt lat="44.355264064840625" lon="12.256636253558069"><ele>0.0</ele><time>2026-05-03T16:18:02.003Z</time></trkpt><trkpt lat="44.355408743871486" lon="12.256617396322882"><ele>0.0</ele><time>2026-05-03T16:18:03.003Z</time></trkpt><trkpt lat="44.355553405142764" lon="12.256600980673399"><ele>0.0</ele><time>2026-05-03T16:18:04.003Z</time></trkpt><trkpt lat="44.35570363818458" lon="12.256586402410308"><ele>0.0</ele><time>2026-05-03T16:18:05.003Z</time></trkpt><trkpt lat="44.355848548466426" lon="12.256575369418483"><ele>0.0</ele><time>2026-05-03T16:18:06.003Z</time></trkpt><trkpt lat="44.35599677851639" lon="12.256559655627418"><ele>0.0</ele><time>2026-05-03T16:18:07.003Z</time></trkpt><trkpt lat="44.356139050704435" lon="12.256542475106194"><ele>0.0</ele><time>2026-05-03T16:18:08.003Z</time></trkpt><trkpt lat="44.35627608221343" lon="12.256524724956426"><ele>0.0</ele><time>2026-05-03T16:18:09.003Z</time></trkpt><trkpt lat="44.35640157267529" lon="12.25651397782144"><ele>0.0</ele><time>2026-05-03T16:18:10.003Z</time></trkpt><trkpt lat="44.35652741403042" lon="12.256497673280524"><ele>0.0</ele><time>2026-05-03T16:18:11.003Z</time></trkpt><trkpt lat="44.35665807785069" lon="12.25648563177231"><ele>0.0</ele><time>2026-05-03T16:18:12.003Z</time></trkpt><trkpt lat="44.35679377537601" lon="12.25646611635599"><ele>0.0</ele><time>2026-05-03T16:18:13.003Z</time></trkpt><trkpt lat="44.35693340508918" lon="12.256451831076227"><ele>0.0</ele><time>2026-05-03T16:18:14.003Z</time></trkpt><trkpt lat="44.35706359718118" lon="12.256422956258895"><ele>0.0</ele><time>2026-05-03T16:18:15.003Z</time></trkpt><trkpt lat="44.35718897469763" lon="12.256387610711785"><ele>0.0</ele><time>2026-05-03T16:18:16.003Z</time></trkpt><trkpt lat="44.35731884611957" lon="12.256353907779165"><ele>0.0</ele><time>2026-05-03T16:18:17.003Z</time></trkpt><trkpt lat="44.357453966964464" lon="12.256310586318692"><ele>0.0</ele><time>2026-05-03T16:18:18.003Z</time></trkpt><trkpt lat="44.35759292410431" lon="12.256271277894802"><ele>0.0</ele><time>2026-05-03T16:18:19.001Z</time></trkpt><trkpt lat="44.35773287841998" lon="12.256222889600394"><ele>0.0</ele><time>2026-05-03T16:18:20.001Z</time></trkpt><trkpt lat="44.35787571103954" lon="12.256178179795155"><ele>0.0</ele><time>2026-05-03T16:18:21.001Z</time></trkpt><trkpt lat="44.35801510167634" lon="12.25612726152605"><ele>0.0</ele><time>2026-05-03T16:18:22.001Z</time></trkpt><trkpt lat="44.35815572537599" lon="12.256075514023065"><ele>0.0</ele><time>2026-05-03T16:18:23Z</time></trkpt><trkpt lat="44.35829415041291" lon="12.256028168168966"><ele>0.0</ele><time>2026-05-03T16:18:24Z</time></trkpt><trkpt lat="44.358433433089964" lon="12.255980598303985"><ele>0.0</ele><time>2026-05-03T16:18:25Z</time></trkpt><trkpt lat="44.358567930630095" lon="12.25593829680235"><ele>0.0</ele><time>2026-05-03T16:18:26Z</time></trkpt><trkpt lat="44.35870203801852" lon="12.2558989400066"><ele>0.0</ele><time>2026-05-03T16:18:27Z</time></trkpt><trkpt lat="44.35883270918128" lon="12.255853455516691"><ele>0.0</ele><time>2026-05-03T16:18:28Z</time></trkpt><trkpt lat="44.35895654398463" lon="12.255808441300172"><ele>0.0</ele><time>2026-05-03T16:18:29Z</time></trkpt><trkpt lat="44.359073765464544" lon="12.255764860249657"><ele>0.0</ele><time>2026-05-03T16:18:30Z</time></trkpt><trkpt lat="44.359196912564514" lon="12.255716215236161"><ele>0.0</ele><time>2026-05-03T16:18:31Z</time></trkpt><trkpt lat="44.35932538587006" lon="12.25566227245974"><ele>0.0</ele><time>2026-05-03T16:18:32Z</time></trkpt><trkpt lat="44.35945800581721" lon="12.255616144184273"><ele>0.0</ele><time>2026-05-03T16:18:33Z</time></trkpt><trkpt lat="44.35959335457727" lon="12.255564527323886"><ele>0.0</ele><time>2026-05-03T16:18:34Z</time></trkpt><trkpt lat="44.35973373192073" lon="12.255511687625262"><ele>0.0</ele><time>2026-05-03T16:18:35Z</time></trkpt><trkpt lat="44.35987172735171" lon="12.25545099494745"><ele>0.0</ele><time>2026-05-03T16:18:36Z</time></trkpt><trkpt lat="44.36000805801405" lon="12.25539254499747"><ele>0.0</ele><time>2026-05-03T16:18:37Z</time></trkpt><trkpt lat="44.360140608646134" lon="12.255329411867455"><ele>0.0</ele><time>2026-05-03T16:18:38Z</time></trkpt><trkpt lat="44.360273479668436" lon="12.255252973530736"><ele>0.0</ele><time>2026-05-03T16:18:39Z</time></trkpt><trkpt lat="44.36040363606425" lon="12.255170668650571"><ele>0.0</ele><time>2026-05-03T16:18:40Z</time></trkpt><trkpt lat="44.36054137878366" lon="12.255079964443636"><ele>0.0</ele><time>2026-05-03T16:18:41Z</time></trkpt><trkpt lat="44.360677830107946" lon="12.25498561687529"><ele>0.0</ele><time>2026-05-03T16:18:42Z</time></trkpt><trkpt lat="44.36081596803986" lon="12.254881818992898"><ele>-0.3333333333333333</ele><time>2026-05-03T16:18:43Z</time></trkpt><trkpt lat="44.36095892769943" lon="12.254764656495304"><ele>-0.6666666666666666</ele><time>2026-05-03T16:18:44Z</time></trkpt><trkpt lat="44.36109950544446" lon="12.254647688067699"><ele>-1.0</ele><time>2026-05-03T16:18:45Z</time></trkpt><trkpt lat="44.36124317236443" lon="12.254521473476395"><ele>-1.0</ele><time>2026-05-03T16:18:46Z</time></trkpt><trkpt lat="44.36138445085653" lon="12.254389674936014"><ele>-1.0</ele><time>2026-05-03T16:18:47Z</time></trkpt><trkpt lat="44.36152563014477" lon="12.254249285012232"><ele>-1.0</ele><time>2026-05-03T16:18:48Z</time></trkpt><trkpt lat="44.36166574090386" lon="12.254102477098458"><ele>-1.0</ele><time>2026-05-03T16:18:49Z</time></trkpt><trkpt lat="44.361802422773145" lon="12.253957888098599"><ele>-1.0</ele><time>2026-05-03T16:18:50Z</time></trkpt><trkpt lat="44.361940850572985" lon="12.253811317068257"><ele>-1.0</ele><time>2026-05-03T16:18:51Z</time></trkpt><trkpt lat="44.36207764694214" lon="12.25366844067429"><ele>-2.0</ele><time>2026-05-03T16:18:52Z</time></trkpt><trkpt lat="44.362225498292" lon="12.253515756401125"><ele>-3.0</ele><time>2026-05-03T16:18:53Z</time></trkpt><trkpt lat="44.362367096133035" lon="12.253366535553026"><ele>-4.0</ele><time>2026-05-03T16:18:54Z</time></trkpt><trkpt lat="44.36250262987089" lon="12.253219374004415"><ele>-4.0</ele><time>2026-05-03T16:18:55Z</time></trkpt><trkpt lat="44.36264452185295" lon="12.253062351548065"><ele>-4.0</ele><time>2026-05-03T16:18:56Z</time></trkpt><trkpt lat="44.36278682880473" lon="12.252908796818403"><ele>-4.0</ele><time>2026-05-03T16:18:57Z</time></trkpt><trkpt lat="44.362932378866994" lon="12.252758815364908"><ele>-4.333333333333333</ele><time>2026-05-03T16:18:58Z</time></trkpt><trkpt lat="44.363076728305245" lon="12.252606702767736"><ele>-4.666666666666667</ele><time>2026-05-03T16:18:59.001Z</time></trkpt><trkpt lat="44.3632225154711" lon="12.252451989607849"><ele>-5.0</ele><time>2026-05-03T16:19:00.001Z</time></trkpt><trkpt lat="44.36336008112768" lon="12.252305156023857"><ele>-5.0</ele><time>2026-05-03T16:19:01.001Z</time></trkpt><trkpt lat="44.363501877941665" lon="12.25215440678154"><ele>-5.0</ele><time>2026-05-03T16:19:02.001Z</time></trkpt><trkpt lat="44.36363710948769" lon="12.252012547479596"><ele>-5.0</ele><time>2026-05-03T16:19:03.001Z</time></trkpt><trkpt lat="44.363771823226465" lon="12.251864843006393"><ele>-4.666666666666667</ele><time>2026-05-03T16:19:04.001Z</time></trkpt><trkpt lat="44.363906444736564" lon="12.25172501653744"><ele>-4.333333333333333</ele><time>2026-05-03T16:19:05.001Z</time></trkpt><trkpt lat="44.364040553514876" lon="12.251583133475"><ele>-4.0</ele><time>2026-05-03T16:19:06.001Z</time></trkpt><trkpt lat="44.364174114550494" lon="12.251442637298398"><ele>-4.0</ele><time>2026-05-03T16:19:07.001Z</time></trkpt><trkpt lat="44.364308755784165" lon="12.251296926171412"><ele>-4.0</ele><time>2026-05-03T16:19:08.001Z</time></trkpt><trkpt lat="44.36444536754847" lon="12.25115057344391"><ele>-4.0</ele><time>2026-05-03T16:19:09.001Z</time></trkpt><trkpt lat="44.364576269136585" lon="12.251003341277436"><ele>-3.6666666666666665</ele><time>2026-05-03T16:19:10.001Z</time></trkpt><trkpt lat="44.36471280383992" lon="12.250861520846568"><ele>-3.333333333333333</ele><time>2026-05-03T16:19:11.001Z</time></trkpt><trkpt lat="44.36484775352372" lon="12.250714527898761"><ele>-3.0</ele><time>2026-05-03T16:19:12.001Z</time></trkpt><trkpt lat="44.36498008849611" lon="12.250569761350201"><ele>-2.6666666666666665</ele><time>2026-05-03T16:19:13.001Z</time></trkpt><trkpt lat="44.36511260898055" lon="12.250423904011004"><ele>-2.333333333333333</ele><time>2026-05-03T16:19:14.001Z</time></trkpt><trkpt lat="44.36524881675497" lon="12.250280850171183"><ele>-2.0</ele><time>2026-05-03T16:19:15.001Z</time></trkpt><trkpt lat="44.36538565737467" lon="12.25013691490381"><ele>-2.0</ele><time>2026-05-03T16:19:16.001Z</time></trkpt><trkpt lat="44.36552340530478" lon="12.24999309300634"><ele>-2.0</ele><time>2026-05-03T16:19:17.001Z</time></trkpt><trkpt lat="44.36566039878185" lon="12.249850574411242"><ele>-2.0</ele><time>2026-05-03T16:19:18.001Z</time></trkpt><trkpt lat="44.36579784493899" lon="12.249706786326454"><ele>-2.6666666666666665</ele><time>2026-05-03T16:19:19.001Z</time></trkpt><trkpt lat="44.36593312847372" lon="12.249563668614435"><ele>-3.333333333333333</ele><time>2026-05-03T16:19:20.001Z</time></trkpt><trkpt lat="44.36605876476703" lon="12.249426326303603"><ele>-4.0</ele><time>2026-05-03T16:19:21.001Z</time></trkpt><trkpt lat="44.36618130222239" lon="12.249294626139086"><ele>-4.0</ele><time>2026-05-03T16:19:22.001Z</time></trkpt><trkpt lat="44.36630198664652" lon="12.249165241493397"><ele>-4.0</ele><time>2026-05-03T16:19:23.001Z</time></trkpt><trkpt lat="44.36642465273443" lon="12.249037061398646"><ele>-4.0</ele><time>2026-05-03T16:19:24.001Z</time></trkpt><trkpt lat="44.36654637183999" lon="12.248910197331748"><ele>-4.0</ele><time>2026-05-03T16:19:25.001Z</time></trkpt><trkpt lat="44.3666611868555" lon="12.248790986027585"><ele>-4.0</ele><time>2026-05-03T16:19:26.001Z</time></trkpt><trkpt lat="44.36677210349262" lon="12.248676555365329"><ele>-4.0</ele><time>2026-05-03T16:19:27.001Z</time></trkpt><trkpt lat="44.366889099144466" lon="12.248553559813706"><ele>-4.0</ele><time>2026-05-03T16:19:28.001Z</time></trkpt><trkpt lat="44.36700971268036" lon="12.248423346563506"><ele>-4.0</ele><time>2026-05-03T16:19:29.001Z</time></trkpt><trkpt lat="44.367134286565715" lon="12.248288706576517"><ele>-4.0</ele><time>2026-05-03T16:19:30.001Z</time></trkpt><trkpt lat="44.367262902391616" lon="12.24815280915212"><ele>-4.0</ele><time>2026-05-03T16:19:31.001Z</time></trkpt><trkpt lat="44.36739341139843" lon="12.248019366380733"><ele>-3.333333333333333</ele><time>2026-05-03T16:19:32.001Z</time></trkpt><trkpt lat="44.36751941940951" lon="12.247888037467359"><ele>-2.6666666666666665</ele><time>2026-05-03T16:19:33.001Z</time></trkpt><trkpt lat="44.36764711930945" lon="12.247751215592807"><ele>-2.0</ele><time>2026-05-03T16:19:34.001Z</time></trkpt><trkpt lat="44.367777583464466" lon="12.247609302986458"><ele>-2.0</ele><time>2026-05-03T16:19:35.001Z</time></trkpt><trkpt lat="44.36790755721627" lon="12.247459096509901"><ele>-2.0</ele><time>2026-05-03T16:19:36.001Z</time></trkpt><trkpt lat="44.368034503510344" lon="12.247298075297984"><ele>-2.0</ele><time>2026-05-03T16:19:37.001Z</time></trkpt><trkpt lat="44.368152167341854" lon="12.247129394281462"><ele>-1.6666666666666665</ele><time>2026-05-03T16:19:38.001Z</time></trkpt><trkpt lat="44.368263326059534" lon="12.246946547009237"><ele>-1.3333333333333333</ele><time>2026-05-03T16:19:39.001Z</time></trkpt><trkpt lat="44.36836998118539" lon="12.246745685401976"><ele>-1.0</ele><time>2026-05-03T16:19:40.001Z</time></trkpt><trkpt lat="44.36846804298155" lon="12.246537929250213"><ele>-1.0</ele><time>2026-05-03T16:19:41.001Z</time></trkpt><trkpt lat="44.36856279143165" lon="12.246323672559813"><ele>-1.0</ele><time>2026-05-03T16:19:42.001Z</time></trkpt><trkpt lat="44.368648372242" lon="12.246097421726326"><ele>-1.0</ele><time>2026-05-03T16:19:43.002Z</time></trkpt><trkpt lat="44.36872908851176" lon="12.245871497605163"><ele>-1.0</ele><time>2026-05-03T16:19:44.002Z</time></trkpt><trkpt lat="44.368812533401325" lon="12.245647034482596"><ele>-1.0</ele><time>2026-05-03T16:19:45.002Z</time></trkpt><trkpt lat="44.36889852142264" lon="12.245425093369844"><ele>-1.0</ele><time>2026-05-03T16:19:46.002Z</time></trkpt><trkpt lat="44.36898213817519" lon="12.245200767749346"><ele>-0.6666666666666666</ele><time>2026-05-03T16:19:47.002Z</time></trkpt><trkpt lat="44.36906488767452" lon="12.244965384039293"><ele>-0.3333333333333333</ele><time>2026-05-03T16:19:48.002Z</time></trkpt><trkpt lat="44.36914794595987" lon="12.244731691731069"><ele>0.0</ele><time>2026-05-03T16:19:49.002Z</time></trkpt><trkpt lat="44.3692344245159" lon="12.244493490397241"><ele>-0.6666666666666666</ele><time>2026-05-03T16:19:50.002Z</time></trkpt><trkpt lat="44.369328215900374" lon="12.244237058695191"><ele>-1.3333333333333333</ele><time>2026-05-03T16:19:51.002Z</time></trkpt><trkpt lat="44.36942411304042" lon="12.243974677035931"><ele>-2.0</ele><time>2026-05-03T16:19:52.002Z</time></trkpt><trkpt lat="44.36952359239763" lon="12.243708444733077"><ele>-2.0</ele><time>2026-05-03T16:19:53.002Z</time></trkpt><trkpt lat="44.36962219099267" lon="12.243438279991526"><ele>-2.0</ele><time>2026-05-03T16:19:54.002Z</time></trkpt><trkpt lat="44.36971965463679" lon="12.243174487838484"><ele>-2.0</ele><time>2026-05-03T16:19:55.002Z</time></trkpt><trkpt lat="44.36981216728259" lon="12.242907727040187"><ele>-2.333333333333333</ele><time>2026-05-03T16:19:56.002Z</time></trkpt><trkpt lat="44.36991203155742" lon="12.242635894058923"><ele>-2.6666666666666665</ele><time>2026-05-03T16:19:57.002Z</time></trkpt><trkpt lat="44.370011064725446" lon="12.242367824263967"><ele>-3.0</ele><time>2026-05-03T16:19:58.002Z</time></trkpt><trkpt lat="44.370111890069104" lon="12.242098438543227"><ele>-3.0</ele><time>2026-05-03T16:19:59.002Z</time></trkpt><trkpt lat="44.37021143735789" lon="12.241826230116857"><ele>-3.0</ele><time>2026-05-03T16:20:00.002Z</time></trkpt><trkpt lat="44.37031151409156" lon="12.241557576458376"><ele>-3.0</ele><time>2026-05-03T16:20:01.002Z</time></trkpt><trkpt lat="44.37041428470516" lon="12.24128682650608"><ele>-3.0</ele><time>2026-05-03T16:20:02.002Z</time></trkpt><trkpt lat="44.370518165113566" lon="12.241006189874499"><ele>-3.0</ele><time>2026-05-03T16:20:03.002Z</time></trkpt><trkpt lat="44.37062731025455" lon="12.240714026982713"><ele>-3.0</ele><time>2026-05-03T16:20:04.002Z</time></trkpt><trkpt lat="44.37074147273614" lon="12.240410797943163"><ele>-3.0</ele><time>2026-05-03T16:20:05.002Z</time></trkpt><trkpt lat="44.37085297366324" lon="12.24009988000545"><ele>-2.5</ele><time>2026-05-03T16:20:06.002Z</time></trkpt><trkpt lat="44.37096627870065" lon="12.23979336242202"><ele>-2.0</ele><time>2026-05-03T16:20:07.002Z</time></trkpt><trkpt lat="44.371078289656346" lon="12.239484539162707"><ele>-2.0</ele><time>2026-05-03T16:20:08.002Z</time></trkpt><trkpt lat="44.37119252155382" lon="12.239174894912287"><ele>-2.0</ele><time>2026-05-03T16:20:09.002Z</time></trkpt><trkpt lat="44.37130334106618" lon="12.238866106966043"><ele>-2.5</ele><time>2026-05-03T16:20:10.002Z</time></trkpt><trkpt lat="44.371413652903385" lon="12.238562156279635"><ele>-3.0</ele><time>2026-05-03T16:20:11.002Z</time></trkpt><trkpt lat="44.371526251639416" lon="12.238258787318829"><ele>-2.0</ele><time>2026-05-03T16:20:12.002Z</time></trkpt><trkpt lat="44.37163845842019" lon="12.237950915468486"><ele>-1.0</ele><time>2026-05-03T16:20:13.002Z</time></trkpt><trkpt lat="44.371757132207556" lon="12.237633012760508"><ele>-0.5</ele><time>2026-05-03T16:20:14.002Z</time></trkpt><trkpt lat="44.37188223189227" lon="12.23729867985724"><ele>0.0</ele><time>2026-05-03T16:20:15.002Z</time></trkpt><trkpt lat="44.37201234013216" lon="12.236963791443914"><ele>0.0</ele><time>2026-05-03T16:20:16.002Z</time></trkpt><trkpt lat="44.37213780765751" lon="12.236639196820155"><ele>0.0</ele><time>2026-05-03T16:20:17.002Z</time></trkpt><trkpt lat="44.37225353628086" lon="12.23632102661454"><ele>0.5</ele><time>2026-05-03T16:20:18.002Z</time></trkpt><trkpt lat="44.37236887985271" lon="12.236007668929565"><ele>1.0</ele><time>2026-05-03T16:20:19.002Z</time></trkpt><trkpt lat="44.372483507710704" lon="12.235690704380154"><ele>-1.0</ele><time>2026-05-03T16:20:20.002Z</time></trkpt><trkpt lat="44.37259355373409" lon="12.235389054003694"><ele>-3.0</ele><time>2026-05-03T16:20:21.002Z</time></trkpt><trkpt lat="44.37270523558027" lon="12.235081362556718"><ele>-3.0</ele><time>2026-05-03T16:20:22.002Z</time></trkpt><trkpt lat="44.37281862914548" lon="12.234769429188615"><ele>-3.0</ele><time>2026-05-03T16:20:23.002Z</time></trkpt><trkpt lat="44.37293249788783" lon="12.234456088133086"><ele>-3.0</ele><time>2026-05-03T16:20:24.002Z</time></trkpt><trkpt lat="44.373045513836836" lon="12.234146837022662"><ele>-3.0</ele><time>2026-05-03T16:20:24.995Z</time></trkpt><trkpt lat="44.3731607848975" lon="12.233832703697049"><ele>-2.5</ele><time>2026-05-03T16:20:25.995Z</time></trkpt><trkpt lat="44.37328032784851" lon="12.233505838563495"><ele>-2.0</ele><time>2026-05-03T16:20:26.995Z</time></trkpt><trkpt lat="44.37340267170277" lon="12.233173031090272"><ele>-2.0</ele><time>2026-05-03T16:20:27.995Z</time></trkpt><trkpt lat="44.37352610706712" lon="12.232837090007957"><ele>-2.0</ele><time>2026-05-03T16:20:28.995Z</time></trkpt><trkpt lat="44.373648787575576" lon="12.232507801877686"><ele>-2.5</ele><time>2026-05-03T16:20:29.995Z</time></trkpt><trkpt lat="44.37376697832539" lon="12.232183940586662"><ele>-3.0</ele><time>2026-05-03T16:20:30.995Z</time></trkpt><trkpt lat="44.37388531636555" lon="12.231862650374412"><ele>-3.0</ele><time>2026-05-03T16:20:31.995Z</time></trkpt><trkpt lat="44.37400263068036" lon="12.23154060464396"><ele>-3.0</ele><time>2026-05-03T16:20:32.996Z</time></trkpt><trkpt lat="44.374117125205636" lon="12.23121954994407"><ele>-3.0</ele><time>2026-05-03T16:20:33.996Z</time></trkpt><trkpt lat="44.37422481759511" lon="12.23090178297007"><ele>-3.0</ele><time>2026-05-03T16:20:34.996Z</time></trkpt><trkpt lat="44.37432396787835" lon="12.230577905951549"><ele>-2.5</ele><time>2026-05-03T16:20:35.996Z</time></trkpt><trkpt lat="44.374413974261095" lon="12.230250965765313"><ele>-2.0</ele><time>2026-05-03T16:20:36.996Z</time></trkpt><trkpt lat="44.37449857259863" lon="12.22991942089056"><ele>-2.5</ele><time>2026-05-03T16:20:37.996Z</time></trkpt><trkpt lat="44.37457960368485" lon="12.229583695592371"><ele>-3.0</ele><time>2026-05-03T16:20:38.996Z</time></trkpt><trkpt lat="44.374656037359046" lon="12.22924430158515"><ele>-2.5</ele><time>2026-05-03T16:20:39.997Z</time></trkpt><trkpt lat="44.37472829863271" lon="12.228911751803373"><ele>-2.0</ele><time>2026-05-03T16:20:40.997Z</time></trkpt><trkpt lat="44.37479869617913" lon="12.228575942681315"><ele>-2.0</ele><time>2026-05-03T16:20:41.997Z</time></trkpt><trkpt lat="44.3748684867309" lon="12.228246609557193"><ele>-2.0</ele><time>2026-05-03T16:20:42.997Z</time></trkpt><trkpt lat="44.374941477248136" lon="12.22791204900261"><ele>-2.0</ele><time>2026-05-03T16:20:43.997Z</time></trkpt><trkpt lat="44.37501588957308" lon="12.2275752151183"><ele>-2.0</ele><time>2026-05-03T16:20:44.997Z</time></trkpt><trkpt lat="44.37508572577499" lon="12.227238906073005"><ele>-2.0</ele><time>2026-05-03T16:20:45.997Z</time></trkpt><trkpt lat="44.37515260931503" lon="12.226910462076148"><ele>-2.0</ele><time>2026-05-03T16:20:46.998Z</time></trkpt><trkpt lat="44.37522034351493" lon="12.226578661011127"><ele>-1.5</ele><time>2026-05-03T16:20:47.998Z</time></trkpt><trkpt lat="44.375287498812824" lon="12.226250084507935"><ele>-1.0</ele><time>2026-05-03T16:20:48.998Z</time></trkpt><trkpt lat="44.375353122092925" lon="12.225920372371231"><ele>-1.0</ele><time>2026-05-03T16:20:49.998Z</time></trkpt><trkpt lat="44.37541876368947" lon="12.225586251147254"><ele>-1.0</ele><time>2026-05-03T16:20:50.998Z</time></trkpt><trkpt lat="44.37548575984386" lon="12.22525488962312"><ele>-1.5</ele><time>2026-05-03T16:20:51.998Z</time></trkpt><trkpt lat="44.37555702758709" lon="12.22490602501941"><ele>-2.0</ele><time>2026-05-03T16:20:52.998Z</time></trkpt><trkpt lat="44.37562978599412" lon="12.224547646961133"><ele>-2.0</ele><time>2026-05-03T16:20:53.998Z</time></trkpt><trkpt lat="44.3757036416201" lon="12.224183682617136"><ele>-2.0</ele><time>2026-05-03T16:20:54.998Z</time></trkpt><trkpt lat="44.375776495999304" lon="12.223826619115885"><ele>-2.0</ele><time>2026-05-03T16:20:55.998Z</time></trkpt><trkpt lat="44.37585118380873" lon="12.223468221180001"><ele>-2.0</ele><time>2026-05-03T16:20:56.999Z</time></trkpt><trkpt lat="44.375923221974986" lon="12.223108922872687"><ele>-2.0</ele><time>2026-05-03T16:20:57.999Z</time></trkpt><trkpt lat="44.37599581521506" lon="12.222751268756898"><ele>-2.0</ele><time>2026-05-03T16:20:58.999Z</time></trkpt><trkpt lat="44.37606691828753" lon="12.222402978521416"><ele>-1.5</ele><time>2026-05-03T16:20:59.999Z</time></trkpt><trkpt lat="44.37613400230933" lon="12.222077730203283"><ele>-1.0</ele><time>2026-05-03T16:21:00.999Z</time></trkpt><trkpt lat="44.376199012184166" lon="12.221765317925716"><ele>-1.5</ele><time>2026-05-03T16:21:01.999Z</time></trkpt><trkpt lat="44.37626073049076" lon="12.221456870557327"><ele>-2.0</ele><time>2026-05-03T16:21:02.999Z</time></trkpt><trkpt lat="44.376324170884864" lon="12.221155141955215"><ele>-2.0</ele><time>2026-05-03T16:21:03.999Z</time></trkpt><trkpt lat="44.376385686880546" lon="12.220843688715215"><ele>-2.0</ele><time>2026-05-03T16:21:04.999Z</time></trkpt><trkpt lat="44.37644782856935" lon="12.220529758057427"><ele>-2.0</ele><time>2026-05-03T16:21:05.999Z</time></trkpt><trkpt lat="44.376511814926914" lon="12.220222469021968"><ele>-2.0</ele><time>2026-05-03T16:21:06.999Z</time></trkpt><trkpt lat="44.37657118528534" lon="12.219931400795822"><ele>-2.0</ele><time>2026-05-03T16:21:07.999Z</time></trkpt><trkpt lat="44.37662780086112" lon="12.219637613937213"><ele>-2.0</ele><time>2026-05-03T16:21:08.999Z</time></trkpt><trkpt lat="44.37668080729494" lon="12.2193315067003"><ele>-2.0</ele><time>2026-05-03T16:21:09.999Z</time></trkpt><trkpt lat="44.376729560682556" lon="12.21903835048748"><ele>-2.0</ele><time>2026-05-03T16:21:10.999Z</time></trkpt><trkpt lat="44.376780809086206" lon="12.218770344915606"><ele>-1.6666666666666665</ele><time>2026-05-03T16:21:11.999Z</time></trkpt><trkpt lat="44.3768364024779" lon="12.21851376487288"><ele>-1.3333333333333333</ele><time>2026-05-03T16:21:12.999Z</time></trkpt><trkpt lat="44.37689720828188" lon="12.218258326698923"><ele>-1.0</ele><time>2026-05-03T16:21:13.999Z</time></trkpt><trkpt lat="44.37696517251679" lon="12.21801132803835"><ele>-0.6666666666666666</ele><time>2026-05-03T16:21:15Z</time></trkpt><trkpt lat="44.377032399352544" lon="12.217766759518664"><ele>-0.3333333333333333</ele><time>2026-05-03T16:21:16Z</time></trkpt><trkpt lat="44.37709923220435" lon="12.217516864152707"><ele>0.0</ele><time>2026-05-03T16:21:17Z</time></trkpt><trkpt lat="44.37716508143331" lon="12.217285738276749"><ele>-0.6666666666666666</ele><time>2026-05-03T16:21:18Z</time></trkpt><trkpt lat="44.3772327352659" lon="12.217064585507787"><ele>-1.3333333333333333</ele><time>2026-05-03T16:21:19Z</time></trkpt><trkpt lat="44.37729730957386" lon="12.216864233666573"><ele>-2.0</ele><time>2026-05-03T16:21:20Z</time></trkpt><trkpt lat="44.377357201924674" lon="12.216675647880024"><ele>-2.0</ele><time>2026-05-03T16:21:21Z</time></trkpt><trkpt lat="44.37741308603357" lon="12.216501781890493"><ele>-2.0</ele><time>2026-05-03T16:21:22Z</time></trkpt><trkpt lat="44.37746434827909" lon="12.21635809791053"><ele>-2.0</ele><time>2026-05-03T16:21:23Z</time></trkpt><trkpt lat="44.37750661440353" lon="12.216219966094796"><ele>-2.0</ele><time>2026-05-03T16:21:24Z</time></trkpt><trkpt lat="44.3775435279056" lon="12.216092037839074"><ele>-1.8</ele><time>2026-05-03T16:21:25Z</time></trkpt><trkpt lat="44.37758092991879" lon="12.21595523848676"><ele>-1.6</ele><time>2026-05-03T16:21:26Z</time></trkpt><trkpt lat="44.377619650491646" lon="12.215810904535859"><ele>-1.4000000000000001</ele><time>2026-05-03T16:21:27Z</time></trkpt><trkpt lat="44.37766271343682" lon="12.215672161163852"><ele>-1.2000000000000002</ele><time>2026-05-03T16:21:28Z</time></trkpt><trkpt lat="44.37770484815144" lon="12.21554911579487"><ele>-1.0</ele><time>2026-05-03T16:21:29Z</time></trkpt><trkpt lat="44.37774328095868" lon="12.215446376668279"><ele>-1.0</ele><time>2026-05-03T16:21:30Z</time></trkpt><trkpt lat="44.377774621809344" lon="12.21535354340465"><ele>-1.0</ele><time>2026-05-03T16:21:31Z</time></trkpt><trkpt lat="44.37781352363615" lon="12.215243540252516"><ele>-1.0</ele><time>2026-05-03T16:21:32Z</time></trkpt><trkpt lat="44.37786438027566" lon="12.215122453793578"><ele>-1.0</ele><time>2026-05-03T16:21:33Z</time></trkpt><trkpt lat="44.377919241779026" lon="12.215004127677904"><ele>-1.0</ele><time>2026-05-03T16:21:34Z</time></trkpt><trkpt lat="44.377970618292885" lon="12.21489754375263"><ele>-0.9999999999999999</ele><time>2026-05-03T16:21:35Z</time></trkpt><trkpt lat="44.37801319544515" lon="12.214809733245824"><ele>-1.0</ele><time>2026-05-03T16:21:36Z</time></trkpt><trkpt lat="44.37804937569625" lon="12.214732968835461"><ele>-1.0</ele><time>2026-05-03T16:21:37Z</time></trkpt><trkpt lat="44.37809444082232" lon="12.21459727074709"><ele>-1.0</ele><time>2026-05-03T16:21:39Z</time></trkpt><trkpt lat="44.37811835293443" lon="12.21451240471024"><ele>-0.9999999999999999</ele><time>2026-05-03T16:21:40Z</time></trkpt><trkpt lat="44.37814473817667" lon="12.214431792512556"><ele>-1.0</ele><time>2026-05-03T16:21:41Z</time></trkpt><trkpt lat="44.37818853386088" lon="12.214275696780243"><ele>-0.9999999999999999</ele><time>2026-05-03T16:21:43.001Z</time></trkpt><trkpt lat="44.37823561248285" lon="12.214113002910308"><ele>-1.0</ele><time>2026-05-03T16:21:45.001Z</time></trkpt><trkpt lat="44.37827196747643" lon="12.213987229011153"><ele>-1.0</ele><time>2026-05-03T16:21:47.001Z</time></trkpt><trkpt lat="44.37829958985671" lon="12.213876304149698"><ele>-1.0</ele><time>2026-05-03T16:21:52.001Z</time></trkpt><trkpt lat="44.3783177873063" lon="12.213788277281639"><ele>-0.9999999999999999</ele><time>2026-05-03T16:21:56.001Z</time></trkpt><trkpt lat="44.37834521042663" lon="12.213702833544051"><ele>-1.0</ele><time>2026-05-03T16:22:04.001Z</time></trkpt><trkpt lat="44.3783862103133" lon="12.21358579696909"><ele>-1.1428571428571428</ele><time>2026-05-03T16:22:10.001Z</time></trkpt><trkpt lat="44.37841228557837" lon="12.21349600145984"><ele>-1.2857142857142856</ele><time>2026-05-03T16:22:12.001Z</time></trkpt><trkpt lat="44.37844104940335" lon="12.213411678023991"><ele>-1.4285714285714284</ele><time>2026-05-03T16:22:14.001Z</time></trkpt><trkpt lat="44.37847171929696" lon="12.213322337239607"><ele>-1.5714285714285714</ele><time>2026-05-03T16:22:16.002Z</time></trkpt><trkpt lat="44.37850443877736" lon="12.21323629746266"><ele>-1.714285714285714</ele><time>2026-05-03T16:22:18.002Z</time></trkpt><trkpt lat="44.37852962800074" lon="12.213143954754637"><ele>-1.857142857142857</ele><time>2026-05-03T16:22:20.002Z</time></trkpt><trkpt lat="44.37855768563269" lon="12.21305191474642"><ele>-2.0</ele><time>2026-05-03T16:22:22.002Z</time></trkpt><trkpt lat="44.37858899081804" lon="12.212963365104216"><ele>-1.9999999999999998</ele><time>2026-05-03T16:22:24.002Z</time></trkpt><trkpt lat="44.37862055150882" lon="12.212868545828913"><ele>-2.0</ele><time>2026-05-03T16:22:26.002Z</time></trkpt><trkpt lat="44.37865245825069" lon="12.212769589473313"><ele>-2.0</ele><time>2026-05-03T16:22:28.002Z</time></trkpt><trkpt lat="44.378686424431336" lon="12.212652884173856"><ele>-2.0</ele><time>2026-05-03T16:22:30.999Z</time></trkpt><trkpt lat="44.37872052902461" lon="12.212541501901843"><ele>-1.9999999999999998</ele><time>2026-05-03T16:22:34Z</time></trkpt><trkpt lat="44.37875962900916" lon="12.212468519193681"><ele>-2.0</ele><time>2026-05-03T16:22:38Z</time></trkpt><trkpt lat="44.37879903683112" lon="12.212388525820124"><ele>-1.9999999999999998</ele><time>2026-05-03T16:22:44Z</time></trkpt><trkpt lat="44.378829931917345" lon="12.212310178148499"><ele>-2.0</ele><time>2026-05-03T16:22:46Z</time></trkpt><trkpt lat="44.378868594967905" lon="12.21219676272776"><ele>-2.0</ele><time>2026-05-03T16:22:48Z</time></trkpt><trkpt lat="44.37890550719703" lon="12.212061244705607"><ele>-2.0</ele><time>2026-05-03T16:22:50Z</time></trkpt><trkpt lat="44.37893742043548" lon="12.211984257320168"><ele>-1.9999999999999998</ele><time>2026-05-03T16:22:51Z</time></trkpt><trkpt lat="44.37897258410549" lon="12.21189671785106"><ele>-2.0</ele><time>2026-05-03T16:22:52Z</time></trkpt><trkpt lat="44.37901669058242" lon="12.211748008686854"><ele>-1.857142857142857</ele><time>2026-05-03T16:22:54Z</time></trkpt><trkpt lat="44.37905365971314" lon="12.211610864689671"><ele>-1.714285714285714</ele><time>2026-05-03T16:22:56Z</time></trkpt><trkpt lat="44.37907858066265" lon="12.211527718832345"><ele>-1.5714285714285714</ele><time>2026-05-03T16:22:58Z</time></trkpt><trkpt lat="44.379099204955814" lon="12.211440280978493"><ele>-1.4285714285714284</ele><time>2026-05-03T16:23:04.001Z</time></trkpt><trkpt lat="44.37912647696482" lon="12.211343888718183"><ele>-1.2857142857142856</ele><time>2026-05-03T16:23:09.001Z</time></trkpt><trkpt lat="44.37914288830613" lon="12.21124666370154"><ele>-1.1428571428571428</ele><time>2026-05-03T16:23:14.001Z</time></trkpt><trkpt lat="44.37916395619534" lon="12.211156982846367"><ele>-1.0</ele><time>2026-05-03T16:23:22.001Z</time></trkpt><trkpt lat="44.37919593322542" lon="12.211066828106278"><ele>-0.8333333333333333</ele><time>2026-05-03T16:23:30.001Z</time></trkpt><trkpt lat="44.37922667118136" lon="12.210970102695399"><ele>-0.6666666666666666</ele><time>2026-05-03T16:23:33.001Z</time></trkpt><trkpt lat="44.37925951604187" lon="12.210879565778528"><ele>-0.5</ele><time>2026-05-03T16:23:37.002Z</time></trkpt><trkpt lat="44.37928939682708" lon="12.210797820097152"><ele>-0.3333333333333333</ele><time>2026-05-03T16:23:42.002Z</time></trkpt><trkpt lat="44.37931964875997" lon="12.210704295487318"><ele>-0.16666666666666666</ele><time>2026-05-03T16:23:57.002Z</time></trkpt><trkpt lat="44.379346411255106" lon="12.210612839720564"><ele>0.0</ele><time>2026-05-03T16:24:02.002Z</time></trkpt><trkpt lat="44.37937870004819" lon="12.210489453420582"><ele>0.16666666666666666</ele><time>2026-05-03T16:24:08.003Z</time></trkpt><trkpt lat="44.37939793783831" lon="12.210395065872556"><ele>0.3333333333333333</ele><time>2026-05-03T16:24:11.003Z</time></trkpt><trkpt lat="44.37942860205575" lon="12.210301238760366"><ele>0.5</ele><time>2026-05-03T16:24:17.003Z</time></trkpt><trkpt lat="44.37945755887338" lon="12.210203239762043"><ele>0.6666666666666666</ele><time>2026-05-03T16:24:21.003Z</time></trkpt><trkpt lat="44.379498660594166" lon="12.210096741988092"><ele>0.8333333333333333</ele><time>2026-05-03T16:24:25.003Z</time></trkpt><trkpt lat="44.37952295639555" lon="12.210002996385144"><ele>1.0</ele><time>2026-05-03T16:24:31.003Z</time></trkpt><trkpt lat="44.37957754088632" lon="12.209884359788592"><ele>1.1666666666666665</ele><time>2026-05-03T16:24:50.001Z</time></trkpt><trkpt lat="44.37960449934473" lon="12.209803180635387"><ele>1.3333333333333333</ele><time>2026-05-03T16:24:52.001Z</time></trkpt><trkpt lat="44.379631747238264" lon="12.209717340379562"><ele>1.5</ele><time>2026-05-03T16:24:54Z</time></trkpt><trkpt lat="44.37966608765794" lon="12.209614705255657"><ele>1.6666666666666665</ele><time>2026-05-03T16:24:57Z</time></trkpt><trkpt lat="44.37971650175046" lon="12.20953677505022"><ele>1.8333333333333333</ele><time>2026-05-03T16:25:00Z</time></trkpt><trkpt lat="44.379788422343736" lon="12.209423511062166"><ele>2.0</ele><time>2026-05-03T16:25:02Z</time></trkpt><trkpt lat="44.37981183651797" lon="12.209318443510504"><ele>1.9999999999999998</ele><time>2026-05-03T16:25:03Z</time></trkpt><trkpt lat="44.37985586943667" lon="12.209174231468793"><ele>2.0</ele><time>2026-05-03T16:25:04Z</time></trkpt><trkpt lat="44.37989007977298" lon="12.209054904918414"><ele>2.0</ele><time>2026-05-03T16:25:05Z</time></trkpt><trkpt lat="44.37991825515911" lon="12.208955969239994"><ele>2.0</ele><time>2026-05-03T16:25:06Z</time></trkpt><trkpt lat="44.37995459900192" lon="12.208837606025442"><ele>1.9999999999999998</ele><time>2026-05-03T16:25:08Z</time></trkpt><trkpt lat="44.379975173769324" lon="12.208746405863492"><ele>2.0</ele><time>2026-05-03T16:25:20Z</time></trkpt><trkpt lat="44.38001319346801" lon="12.208627679334151"><ele>1.8333333333333333</ele><time>2026-05-03T16:25:25Z</time></trkpt><trkpt lat="44.380053114588286" lon="12.20851881651092"><ele>1.6666666666666665</ele><time>2026-05-03T16:25:27Z</time></trkpt><trkpt lat="44.380085974716344" lon="12.208411678989464"><ele>1.5</ele><time>2026-05-03T16:25:29Z</time></trkpt><trkpt lat="44.38011848671164" lon="12.208325759261767"><ele>1.3333333333333333</ele><time>2026-05-03T16:25:33Z</time></trkpt><trkpt lat="44.38012323011953" lon="12.208187304972551"><ele>1.1666666666666665</ele><time>2026-05-03T16:25:39Z</time></trkpt><trkpt lat="44.38014558816368" lon="12.208069287906902"><ele>1.0</ele><time>2026-05-03T16:25:41Z</time></trkpt><trkpt lat="44.38018344110274" lon="12.207972572745069"><ele>0.9999999999999999</ele><time>2026-05-03T16:25:44Z</time></trkpt><trkpt lat="44.38021604156677" lon="12.207884872383957"><ele>1.0</ele><time>2026-05-03T16:25:50.001Z</time></trkpt><trkpt lat="44.38024995295499" lon="12.207797927700728"><ele>1.0</ele><time>2026-05-03T16:26:06.001Z</time></trkpt><trkpt lat="44.380289833577194" lon="12.207682598819709"><ele>1.0</ele><time>2026-05-03T16:26:20.001Z</time></trkpt><trkpt lat="44.38032644276409" lon="12.207567586378413"><ele>0.9999999999999999</ele><time>2026-05-03T16:26:23.001Z</time></trkpt><trkpt lat="44.38037471804914" lon="12.207491741934046"><ele>1.0</ele><time>2026-05-03T16:26:25.001Z</time></trkpt><trkpt lat="44.380387509699396" lon="12.207372269672387"><ele>1.0</ele><time>2026-05-03T16:27:00Z</time></trkpt><trkpt lat="44.38042008540477" lon="12.207289915835403"><ele>1.0</ele><time>2026-05-03T16:27:02Z</time></trkpt><trkpt lat="44.38046648796309" lon="12.20717317065121"><ele>1.0</ele><time>2026-05-03T16:27:04Z</time></trkpt><trkpt lat="44.38049802677644" lon="12.20708675372049"><ele>1.0</ele><time>2026-05-03T16:27:05Z</time></trkpt><trkpt lat="44.38054663773933" lon="12.206944844972881"><ele>1.0</ele><time>2026-05-03T16:27:07Z</time></trkpt><trkpt lat="44.38059218682799" lon="12.206807989015259"><ele>1.0</ele><time>2026-05-03T16:27:09Z</time></trkpt><trkpt lat="44.38063868015599" lon="12.206665165692474"><ele>1.0</ele><time>2026-05-03T16:27:11Z</time></trkpt><trkpt lat="44.38066691253092" lon="12.206579625344258"><ele>1.0</ele><time>2026-05-03T16:27:12Z</time></trkpt><trkpt lat="44.3807058756106" lon="12.206451485184033"><ele>1.0</ele><time>2026-05-03T16:27:14Z</time></trkpt><trkpt lat="44.3807429539013" lon="12.206325973018414"><ele>1.0</ele><time>2026-05-03T16:27:16Z</time></trkpt><trkpt lat="44.380778039360266" lon="12.206200680364363"><ele>1.0</ele><time>2026-05-03T16:27:18Z</time></trkpt><trkpt lat="44.38080516733029" lon="12.206087168845373"><ele>1.0</ele><time>2026-05-03T16:27:20Z</time></trkpt><trkpt lat="44.38084367258855" lon="12.205957433040352"><ele>1.0</ele><time>2026-05-03T16:27:22Z</time></trkpt><trkpt lat="44.380896360171825" lon="12.205792159152697"><ele>1.0</ele><time>2026-05-03T16:27:24Z</time></trkpt><trkpt lat="44.38092410755933" lon="12.205711562177243"><ele>1.0</ele><time>2026-05-03T16:27:25Z</time></trkpt><trkpt lat="44.380964023877446" lon="12.2055893806"><ele>0.6666666666666666</ele><time>2026-05-03T16:27:27Z</time></trkpt><trkpt lat="44.38100055576641" lon="12.205478068770422"><ele>0.3333333333333333</ele><time>2026-05-03T16:27:29.001Z</time></trkpt><trkpt lat="44.381033114786305" lon="12.205381994871543"><ele>0.0</ele><time>2026-05-03T16:27:32.001Z</time></trkpt><trkpt lat="44.38109123340192" lon="12.20527593707322"><ele>-0.3333333333333333</ele><time>2026-05-03T16:27:37.001Z</time></trkpt><trkpt lat="44.381122168279376" lon="12.205186858642348"><ele>-0.6666666666666666</ele><time>2026-05-03T16:27:39.001Z</time></trkpt><trkpt lat="44.3811369326947" lon="12.205098101120303"><ele>-1.0</ele><time>2026-05-03T16:27:41.001Z</time></trkpt><trkpt lat="44.38116055544616" lon="12.20500251111827"><ele>-0.9999999999999999</ele><time>2026-05-03T16:27:44.001Z</time></trkpt><trkpt lat="44.38118322765713" lon="12.204906296836391"><ele>-1.0</ele><time>2026-05-03T16:28:06.001Z</time></trkpt><trkpt lat="44.381231406255296" lon="12.204810328746559"><ele>-1.0</ele><time>2026-05-03T16:28:08.001Z</time></trkpt><trkpt lat="44.381275652892064" lon="12.204671218721682"><ele>-1.0</ele><time>2026-05-03T16:28:10.001Z</time></trkpt><trkpt lat="44.38130030201303" lon="12.204531375278572"><ele>-0.9999999999999999</ele><time>2026-05-03T16:28:12.001Z</time></trkpt><trkpt lat="44.38132495752624" lon="12.204445204653041"><ele>-1.0</ele><time>2026-05-03T16:28:14.001Z</time></trkpt><trkpt lat="44.38135094319993" lon="12.204362558746283"><ele>-0.8</ele><time>2026-05-03T16:28:16.001Z</time></trkpt><trkpt lat="44.38137853853198" lon="12.204274736825361"><ele>-0.6000000000000001</ele><time>2026-05-03T16:28:18.001Z</time></trkpt><trkpt lat="44.38142059639589" lon="12.204152156852274"><ele>-0.4</ele><time>2026-05-03T16:28:21.001Z</time></trkpt><trkpt lat="44.381470927807676" lon="12.20401008747339"><ele>-0.2</ele><time>2026-05-03T16:28:23.001Z</time></trkpt><trkpt lat="44.38151678066032" lon="12.203881127658962"><ele>0.0</ele><time>2026-05-03T16:28:25.001Z</time></trkpt><trkpt lat="44.38157278937889" lon="12.203721446367814"><ele>0.16666666666666666</ele><time>2026-05-03T16:28:27.002Z</time></trkpt><trkpt lat="44.38160675186369" lon="12.20363010090917"><ele>0.3333333333333333</ele><time>2026-05-03T16:28:28.002Z</time></trkpt><trkpt lat="44.38163888493687" lon="12.203537908174082"><ele>0.5</ele><time>2026-05-03T16:28:29.002Z</time></trkpt><trkpt lat="44.38166779336345" lon="12.20345516407544"><ele>0.6666666666666666</ele><time>2026-05-03T16:28:30.002Z</time></trkpt><trkpt lat="44.381719852275126" lon="12.203295375251521"><ele>0.8333333333333333</ele><time>2026-05-03T16:28:32.002Z</time></trkpt><trkpt lat="44.381748211063744" lon="12.203214247041478"><ele>1.0</ele><time>2026-05-03T16:28:33.002Z</time></trkpt><trkpt lat="44.381778137011004" lon="12.203130607717757"><ele>0.9999999999999999</ele><time>2026-05-03T16:28:34.002Z</time></trkpt><trkpt lat="44.38180571544936" lon="12.203046374589233"><ele>1.0</ele><time>2026-05-03T16:28:35.002Z</time></trkpt><trkpt lat="44.381834689990015" lon="12.202964135157124"><ele>1.0</ele><time>2026-05-03T16:28:36.002Z</time></trkpt><trkpt lat="44.381867600792354" lon="12.202873672177672"><ele>1.0</ele><time>2026-05-03T16:28:37.002Z</time></trkpt><trkpt lat="44.38190908671848" lon="12.202772721606312"><ele>0.9999999999999999</ele><time>2026-05-03T16:28:38.002Z</time></trkpt><trkpt lat="44.38195624748517" lon="12.202664461746723"><ele>1.0</ele><time>2026-05-03T16:28:39.002Z</time></trkpt><trkpt lat="44.382004099148105" lon="12.20254073777945"><ele>1.0</ele><time>2026-05-03T16:28:40.002Z</time></trkpt><trkpt lat="44.382051182299634" lon="12.202404023709388"><ele>1.0</ele><time>2026-05-03T16:28:41.002Z</time></trkpt><trkpt lat="44.3820864842811" lon="12.202286833393957"><ele>1.0</ele><time>2026-05-03T16:28:42.002Z</time></trkpt><trkpt lat="44.38212003209448" lon="12.202176196005567"><ele>1.0</ele><time>2026-05-03T16:28:43.002Z</time></trkpt><trkpt lat="44.3821464807618" lon="12.20207953177438"><ele>1.0</ele><time>2026-05-03T16:28:44.002Z</time></trkpt><trkpt lat="44.382185746168034" lon="12.201936494300934"><ele>0.9999999999999999</ele><time>2026-05-03T16:28:46.002Z</time></trkpt><trkpt lat="44.382201520175705" lon="12.201841590242783"><ele>1.0</ele><time>2026-05-03T16:28:48.002Z</time></trkpt><trkpt lat="44.3822371635509" lon="12.201732554747283"><ele>1.0</ele><time>2026-05-03T16:28:49.999Z</time></trkpt><trkpt lat="44.38227620423344" lon="12.201613552707567"><ele>1.0</ele><time>2026-05-03T16:28:51.999Z</time></trkpt><trkpt lat="44.382304460189054" lon="12.20152116015483"><ele>0.9999999999999999</ele><time>2026-05-03T16:28:53.999Z</time></trkpt><trkpt lat="44.382332281338435" lon="12.201441404030117"><ele>1.0</ele><time>2026-05-03T16:28:55.999Z</time></trkpt><trkpt lat="44.38237365372321" lon="12.201312373636306"><ele>0.9999999999999999</ele><time>2026-05-03T16:28:57.999Z</time></trkpt><trkpt lat="44.382410471678284" lon="12.201195917815596"><ele>1.0</ele><time>2026-05-03T16:28:59.999Z</time></trkpt><trkpt lat="44.38245547754949" lon="12.201054190881766"><ele>1.0</ele><time>2026-05-03T16:29:01.999Z</time></trkpt><trkpt lat="44.382484783096" lon="12.200967365361858"><ele>1.0</ele><time>2026-05-03T16:29:02.999Z</time></trkpt><trkpt lat="44.38251778822794" lon="12.200870739510789"><ele>0.9999999999999999</ele><time>2026-05-03T16:29:03.999Z</time></trkpt><trkpt lat="44.38254422529949" lon="12.20078417728441"><ele>1.0</ele><time>2026-05-03T16:29:05Z</time></trkpt><trkpt lat="44.38258445564721" lon="12.200659672511874"><ele>1.2000000000000002</ele><time>2026-05-03T16:29:07Z</time></trkpt><trkpt lat="44.38262312431852" lon="12.200537695764416"><ele>1.4000000000000001</ele><time>2026-05-03T16:29:09Z</time></trkpt><trkpt lat="44.3826609674773" lon="12.200419874342566"><ele>1.6</ele><time>2026-05-03T16:29:11Z</time></trkpt><trkpt lat="44.38270888300493" lon="12.200267666854575"><ele>1.8</ele><time>2026-05-03T16:29:13Z</time></trkpt><trkpt lat="44.382739690207295" lon="12.200174112767803"><ele>2.0</ele><time>2026-05-03T16:29:14Z</time></trkpt><trkpt lat="44.382773590320106" lon="12.200066103595999"><ele>1.9999999999999998</ele><time>2026-05-03T16:29:15Z</time></trkpt><trkpt lat="44.38280886922654" lon="12.199958903070385"><ele>2.0</ele><time>2026-05-03T16:29:16Z</time></trkpt><trkpt lat="44.38284088841064" lon="12.199855667154285"><ele>2.0</ele><time>2026-05-03T16:29:17Z</time></trkpt><trkpt lat="44.382869237823044" lon="12.1997521574191"><ele>2.0</ele><time>2026-05-03T16:29:18Z</time></trkpt><trkpt lat="44.3828920304192" lon="12.199652644605408"><ele>1.9999999999999998</ele><time>2026-05-03T16:29:19Z</time></trkpt><trkpt lat="44.38290823813322" lon="12.199564488796927"><ele>2.0</ele><time>2026-05-03T16:29:20Z</time></trkpt><trkpt lat="44.38293108603445" lon="12.199427756100413"><ele>1.9999999999999998</ele><time>2026-05-03T16:29:22Z</time></trkpt><trkpt lat="44.382951729659524" lon="12.199329411945612"><ele>2.0</ele><time>2026-05-03T16:29:24Z</time></trkpt><trkpt lat="44.38297487102134" lon="12.199217329103362"><ele>2.0</ele><time>2026-05-03T16:29:27Z</time></trkpt><trkpt lat="44.38300307111115" lon="12.19910898692186"><ele>2.0</ele><time>2026-05-03T16:29:30Z</time></trkpt><trkpt lat="44.38304010346255" lon="12.199011414705849"><ele>1.9999999999999998</ele><time>2026-05-03T16:29:33Z</time></trkpt><trkpt lat="44.38306449534666" lon="12.198927033891161"><ele>2.0</ele><time>2026-05-03T16:29:35Z</time></trkpt><trkpt lat="44.383108466929286" lon="12.198804087883618"><ele>1.9999999999999998</ele><time>2026-05-03T16:29:37Z</time></trkpt><trkpt lat="44.383152927635074" lon="12.19866555831914"><ele>2.0</ele><time>2026-05-03T16:29:39Z</time></trkpt><trkpt lat="44.38319094497999" lon="12.198545825793538"><ele>2.0</ele><time>2026-05-03T16:29:41.001Z</time></trkpt><trkpt lat="44.383223103940345" lon="12.198444971770964"><ele>2.0</ele><time>2026-05-03T16:29:43.001Z</time></trkpt><trkpt lat="44.38326067517092" lon="12.198333577315095"><ele>1.9999999999999998</ele><time>2026-05-03T16:29:46.001Z</time></trkpt><trkpt lat="44.38328331905293" lon="12.19824523578631"><ele>2.0</ele><time>2026-05-03T16:29:53.001Z</time></trkpt><trkpt lat="44.38331030355091" lon="12.198164303689282"><ele>1.9999999999999998</ele><time>2026-05-03T16:29:55.001Z</time></trkpt><trkpt lat="44.38334730737085" lon="12.198057187018378"><ele>2.0</ele><time>2026-05-03T16:29:57.001Z</time></trkpt><trkpt lat="44.383379956287904" lon="12.197958858748319"><ele>2.0</ele><time>2026-05-03T16:29:59.001Z</time></trkpt><trkpt lat="44.38341658647529" lon="12.197841139503547"><ele>2.0</ele><time>2026-05-03T16:30:01.001Z</time></trkpt><trkpt lat="44.3834588136302" lon="12.197720265655159"><ele>1.9999999999999998</ele><time>2026-05-03T16:30:03.001Z</time></trkpt><trkpt lat="44.383500062596866" lon="12.197595025572525"><ele>2.0</ele><time>2026-05-03T16:30:05.001Z</time></trkpt><trkpt lat="44.38353423966394" lon="12.197485254752653"><ele>1.9999999999999998</ele><time>2026-05-03T16:30:07.001Z</time></trkpt><trkpt lat="44.3835638380976" lon="12.197386302570486"><ele>2.0</ele><time>2026-05-03T16:30:09.001Z</time></trkpt><trkpt lat="44.383600177821876" lon="12.197269374743167"><ele>2.0</ele><time>2026-05-03T16:30:11.001Z</time></trkpt><trkpt lat="44.3836531375908" lon="12.19711015112238"><ele>2.0</ele><time>2026-05-03T16:30:13.001Z</time></trkpt><trkpt lat="44.383683909926766" lon="12.197021668513607"><ele>1.9999999999999998</ele><time>2026-05-03T16:30:14.001Z</time></trkpt><trkpt lat="44.38371580315068" lon="12.196923470993134"><ele>2.0</ele><time>2026-05-03T16:30:15.001Z</time></trkpt><trkpt lat="44.38374971935717" lon="12.196819754852433"><ele>1.8333333333333333</ele><time>2026-05-03T16:30:16.001Z</time></trkpt><trkpt lat="44.38378373119765" lon="12.196713814132275"><ele>1.6666666666666665</ele><time>2026-05-03T16:30:17.001Z</time></trkpt><trkpt lat="44.38381810665726" lon="12.196610583781734"><ele>1.5</ele><time>2026-05-03T16:30:18.001Z</time></trkpt><trkpt lat="44.38385226665541" lon="12.196502523478696"><ele>1.3333333333333333</ele><time>2026-05-03T16:30:19.001Z</time></trkpt><trkpt lat="44.38388710337189" lon="12.196395396245446"><ele>1.1666666666666665</ele><time>2026-05-03T16:30:20.001Z</time></trkpt><trkpt lat="44.38392030333138" lon="12.196292172549848"><ele>1.0</ele><time>2026-05-03T16:30:21.001Z</time></trkpt><trkpt lat="44.38395029781983" lon="12.196204849013197"><ele>1.3333333333333333</ele><time>2026-05-03T16:30:22.001Z</time></trkpt><trkpt lat="44.383998581408676" lon="12.19605546103905"><ele>1.6666666666666665</ele><time>2026-05-03T16:30:24.001Z</time></trkpt><trkpt lat="44.38404519835514" lon="12.19591097085368"><ele>2.0</ele><time>2026-05-03T16:30:26.001Z</time></trkpt><trkpt lat="44.38407602438686" lon="12.195821927348346"><ele>2.3333333333333335</ele><time>2026-05-03T16:30:27.001Z</time></trkpt><trkpt lat="44.384109370518956" lon="12.195724178488303"><ele>2.6666666666666665</ele><time>2026-05-03T16:30:28.001Z</time></trkpt><trkpt lat="44.384136230685314" lon="12.195636362905907"><ele>3.0</ele><time>2026-05-03T16:30:29.001Z</time></trkpt><trkpt lat="44.38418825254465" lon="12.195474473054608"><ele>3.3333333333333335</ele><time>2026-05-03T16:30:31.002Z</time></trkpt><trkpt lat="44.38421382663128" lon="12.195392292340122"><ele>3.666666666666667</ele><time>2026-05-03T16:30:32.002Z</time></trkpt><trkpt lat="44.38425422850917" lon="12.19527715686279"><ele>4.0</ele><time>2026-05-03T16:30:34.002Z</time></trkpt><trkpt lat="44.384299191124356" lon="12.195204410880129"><ele>4.333333333333334</ele><time>2026-05-03T16:30:37.002Z</time></trkpt><trkpt lat="44.38437647455355" lon="12.195117831481605"><ele>4.666666666666667</ele><time>2026-05-03T16:30:41.002Z</time></trkpt><trkpt lat="44.38443728271583" lon="12.195084722118796"><ele>5.0</ele><time>2026-05-03T16:30:42.002Z</time></trkpt><trkpt lat="44.38450259254949" lon="12.195043425396667"><ele>5.0</ele><time>2026-05-03T16:30:43.002Z</time></trkpt><trkpt lat="44.38455962995646" lon="12.194975481383795"><ele>5.0</ele><time>2026-05-03T16:30:44.002Z</time></trkpt><trkpt lat="44.38459780330374" lon="12.194881283816542"><ele>5.0</ele><time>2026-05-03T16:30:45.002Z</time></trkpt><trkpt lat="44.384601454487694" lon="12.194781056653444"><ele>5.0</ele><time>2026-05-03T16:30:46.002Z</time></trkpt><trkpt lat="44.38457659014793" lon="12.194692619841526"><ele>5.0</ele><time>2026-05-03T16:30:47.002Z</time></trkpt><trkpt lat="44.384523119157734" lon="12.194607022623652"><ele>5.0</ele><time>2026-05-03T16:30:48.002Z</time></trkpt><trkpt lat="44.38445039851607" lon="12.194559472775273"><ele>4.6</ele><time>2026-05-03T16:30:49.002Z</time></trkpt><trkpt lat="44.384370593742794" lon="12.19455966780176"><ele>4.2</ele><time>2026-05-03T16:30:50.002Z</time></trkpt><trkpt lat="44.384277462135906" lon="12.194583879308347"><ele>3.8</ele><time>2026-05-03T16:30:51.002Z</time></trkpt><trkpt lat="44.384170518645384" lon="12.194631566456794"><ele>3.4</ele><time>2026-05-03T16:30:52.002Z</time></trkpt><trkpt lat="44.38406617521563" lon="12.19464893766167"><ele>3.0</ele><time>2026-05-03T16:30:53.002Z</time></trkpt><trkpt lat="44.38396882405407" lon="12.194625922632198"><ele>3.0</ele><time>2026-05-03T16:30:54.002Z</time></trkpt><trkpt lat="44.38386352659024" lon="12.194537158140564"><ele>3.0</ele><time>2026-05-03T16:30:54.999Z</time></trkpt><trkpt lat="44.38375889540924" lon="12.194466536673746"><ele>3.0</ele><time>2026-05-03T16:30:55.999Z</time></trkpt><trkpt lat="44.38366491528964" lon="12.194411892349786"><ele>3.0</ele><time>2026-05-03T16:30:56.999Z</time></trkpt><trkpt lat="44.38359396370804" lon="12.194316198489423"><ele>3.0</ele><time>2026-05-03T16:30:57.999Z</time></trkpt><trkpt lat="44.38353706839132" lon="12.19418482878158"><ele>3.0</ele><time>2026-05-03T16:30:58.999Z</time></trkpt><trkpt lat="44.38347942609615" lon="12.194046755471444"><ele>3.0</ele><time>2026-05-03T16:30:59.999Z</time></trkpt><trkpt lat="44.38341955128576" lon="12.193914935842713"><ele>3.0</ele><time>2026-05-03T16:31:00.999Z</time></trkpt><trkpt lat="44.383356355494705" lon="12.193777007780827"><ele>3.0</ele><time>2026-05-03T16:31:01.999Z</time></trkpt><trkpt lat="44.383280681022065" lon="12.193622294662136"><ele>3.0</ele><time>2026-05-03T16:31:02.999Z</time></trkpt><trkpt lat="44.38317516379763" lon="12.193452163183368"><ele>3.0</ele><time>2026-05-03T16:31:03.999Z</time></trkpt><trkpt lat="44.38306201442765" lon="12.193287302509189"><ele>3.0</ele><time>2026-05-03T16:31:04.999Z</time></trkpt><trkpt lat="44.38296210454144" lon="12.19315943503353"><ele>2.6</ele><time>2026-05-03T16:31:05.999Z</time></trkpt><trkpt lat="44.38287010286443" lon="12.193042218918622"><ele>2.1999999999999997</ele><time>2026-05-03T16:31:06.999Z</time></trkpt><trkpt lat="44.38279558873011" lon="12.192967390203767"><ele>1.8</ele><time>2026-05-03T16:31:07.999Z</time></trkpt><trkpt lat="44.38272027476819" lon="12.192899647660324"><ele>1.4</ele><time>2026-05-03T16:31:09.999Z</time></trkpt><trkpt lat="44.38267670720837" lon="12.192818653890958"><ele>1.0</ele><time>2026-05-03T16:32:04.001Z</time></trkpt><trkpt lat="44.382715276736974" lon="12.192926167255111"><ele>1.0</ele><time>2026-05-03T16:32:25.001Z</time></trkpt><trkpt lat="44.382842475576545" lon="12.193043905218147"><ele>1.0</ele><time>2026-05-03T16:32:27.001Z</time></trkpt><trkpt lat="44.38292582952354" lon="12.193129671099769"><ele>1.0</ele><time>2026-05-03T16:32:28.001Z</time></trkpt><trkpt lat="44.38299374438349" lon="12.193197313462115"><ele>1.0</ele><time>2026-05-03T16:32:29.001Z</time></trkpt><trkpt lat="44.383064124688616" lon="12.19328376341872"><ele>1.0</ele><time>2026-05-03T16:32:30.001Z</time></trkpt><trkpt lat="44.38314932996654" lon="12.193395831287749"><ele>1.3333333333333333</ele><time>2026-05-03T16:32:31.001Z</time></trkpt><trkpt lat="44.383242452096646" lon="12.193573213184658"><ele>1.6666666666666665</ele><time>2026-05-03T16:32:32.001Z</time></trkpt><trkpt lat="44.38337111836964" lon="12.193773242150709"><ele>2.0</ele><time>2026-05-03T16:32:33.001Z</time></trkpt><trkpt lat="44.38346638939394" lon="12.19402175071112"><ele>2.0</ele><time>2026-05-03T16:32:34.001Z</time></trkpt><trkpt lat="44.38355923217974" lon="12.194216462096781"><ele>2.0</ele><time>2026-05-03T16:32:35.001Z</time></trkpt><trkpt lat="44.38362931013546" lon="12.194399575132042"><ele>2.0</ele><time>2026-05-03T16:32:36.001Z</time></trkpt><trkpt lat="44.38369190461154" lon="12.194539889897937"><ele>2.0</ele><time>2026-05-03T16:32:37.002Z</time></trkpt><trkpt lat="44.383801929775586" lon="12.194546212478567"><ele>2.1666666666666665</ele><time>2026-05-03T16:32:38.002Z</time></trkpt><trkpt lat="44.38385076221256" lon="12.194639662888697"><ele>2.333333333333333</ele><time>2026-05-03T16:32:39.002Z</time></trkpt><trkpt lat="44.383942919232965" lon="12.194661499664901"><ele>2.5</ele><time>2026-05-03T16:32:41.002Z</time></trkpt><trkpt lat="44.384005538578954" lon="12.194700614829157"><ele>2.6666666666666665</ele><time>2026-05-03T16:32:50.002Z</time></trkpt><trkpt lat="44.384065345003286" lon="12.194737108025752"><ele>2.8333333333333335</ele><time>2026-05-03T16:32:53.002Z</time></trkpt><trkpt lat="44.38417554014649" lon="12.19474499960153"><ele>3.0</ele><time>2026-05-03T16:33:00.002Z</time></trkpt><trkpt lat="44.384261999724416" lon="12.194749217905652"><ele>3.4</ele><time>2026-05-03T16:33:02Z</time></trkpt><trkpt lat="44.3843274244642" lon="12.19501697514396"><ele>3.8</ele><time>2026-05-03T16:33:03Z</time></trkpt><trkpt lat="44.38439002065668" lon="12.195064693022523"><ele>4.2</ele><time>2026-05-03T16:33:04Z</time></trkpt><trkpt lat="44.38446000672287" lon="12.195074543787811"><ele>4.6</ele><time>2026-05-03T16:33:05Z</time></trkpt><trkpt lat="44.38453222724529" lon="12.195032058901143"><ele>5.0</ele><time>2026-05-03T16:33:06Z</time></trkpt><trkpt lat="44.38458614967394" lon="12.194943378725819"><ele>4.6</ele><time>2026-05-03T16:33:07Z</time></trkpt><trkpt lat="44.38460899555156" lon="12.194823565033554"><ele>4.2</ele><time>2026-05-03T16:33:08Z</time></trkpt><trkpt lat="44.38461130099287" lon="12.194686769389323"><ele>3.8</ele><time>2026-05-03T16:33:09Z</time></trkpt><trkpt lat="44.384601264383136" lon="12.194533328349882"><ele>3.4</ele><time>2026-05-03T16:33:10Z</time></trkpt><trkpt lat="44.384608429828674" lon="12.194358899474636"><ele>3.0</ele><time>2026-05-03T16:33:11Z</time></trkpt><trkpt lat="44.38467023938539" lon="12.1941750064922"><ele>3.666666666666667</ele><time>2026-05-03T16:33:12Z</time></trkpt><trkpt lat="44.38475377105146" lon="12.193944013895413"><ele>4.333333333333334</ele><time>2026-05-03T16:33:13Z</time></trkpt><trkpt lat="44.38483198822281" lon="12.193713782839525"><ele>5.0</ele><time>2026-05-03T16:33:14Z</time></trkpt><trkpt lat="44.38490628018889" lon="12.19345018559643"><ele>4.0</ele><time>2026-05-03T16:33:15Z</time></trkpt><trkpt lat="44.38499206637121" lon="12.193165829924844"><ele>3.0</ele><time>2026-05-03T16:33:16Z</time></trkpt><trkpt lat="44.38509474746256" lon="12.192858743523567"><ele>3.0</ele><time>2026-05-03T16:33:17Z</time></trkpt><trkpt lat="44.38519521344574" lon="12.192556330869884"><ele>3.0</ele><time>2026-05-03T16:33:18Z</time></trkpt><trkpt lat="44.385293149912215" lon="12.192280976645776"><ele>2.6666666666666665</ele><time>2026-05-03T16:33:19Z</time></trkpt><trkpt lat="44.38538369605506" lon="12.192008658653313"><ele>2.333333333333333</ele><time>2026-05-03T16:33:20Z</time></trkpt><trkpt lat="44.38547153798927" lon="12.191745593231655"><ele>2.0</ele><time>2026-05-03T16:33:21Z</time></trkpt><trkpt lat="44.385560978457924" lon="12.19148209836349"><ele>2.6666666666666665</ele><time>2026-05-03T16:33:22Z</time></trkpt><trkpt lat="44.38565780666959" lon="12.19123067918352"><ele>3.333333333333333</ele><time>2026-05-03T16:33:23Z</time></trkpt><trkpt lat="44.385764168557635" lon="12.190987557324515"><ele>4.0</ele><time>2026-05-03T16:33:24Z</time></trkpt><trkpt lat="44.38588123930581" lon="12.190750107595521"><ele>3.333333333333333</ele><time>2026-05-03T16:33:25Z</time></trkpt><trkpt lat="44.38600667301924" lon="12.190529219658462"><ele>2.6666666666666665</ele><time>2026-05-03T16:33:26Z</time></trkpt><trkpt lat="44.38613857766185" lon="12.19033177321276"><ele>2.0</ele><time>2026-05-03T16:33:27Z</time></trkpt><trkpt lat="44.38627844905933" lon="12.190144453926129"><ele>2.0</ele><time>2026-05-03T16:33:28Z</time></trkpt><trkpt lat="44.38643771990106" lon="12.189978063855182"><ele>2.0</ele><time>2026-05-03T16:33:29Z</time></trkpt><trkpt lat="44.38660932035105" lon="12.18981720815794"><ele>2.0</ele><time>2026-05-03T16:33:30Z</time></trkpt><trkpt lat="44.38678919594318" lon="12.189662344518592"><ele>2.0</ele><time>2026-05-03T16:33:31Z</time></trkpt><trkpt lat="44.38696251413548" lon="12.189526557056128"><ele>2.0</ele><time>2026-05-03T16:33:32Z</time></trkpt><trkpt lat="44.38712125150643" lon="12.189407592456165"><ele>2.0</ele><time>2026-05-03T16:33:33Z</time></trkpt><trkpt lat="44.38727148387323" lon="12.189296702692875"><ele>2.0</ele><time>2026-05-03T16:33:34Z</time></trkpt><trkpt lat="44.38741003003759" lon="12.18919911608111"><ele>2.0</ele><time>2026-05-03T16:33:35Z</time></trkpt><trkpt lat="44.38754476979792" lon="12.189100093438574"><ele>2.0</ele><time>2026-05-03T16:33:36Z</time></trkpt><trkpt lat="44.38768177460149" lon="12.18899855622899"><ele>2.0</ele><time>2026-05-03T16:33:37Z</time></trkpt><trkpt lat="44.38782874663486" lon="12.188893263344665"><ele>2.0</ele><time>2026-05-03T16:33:38Z</time></trkpt><trkpt lat="44.38798061252095" lon="12.18878884387313"><ele>2.0</ele><time>2026-05-03T16:33:39Z</time></trkpt><trkpt lat="44.388133082649055" lon="12.18868019204436"><ele>1.75</ele><time>2026-05-03T16:33:40Z</time></trkpt><trkpt lat="44.38826804574601" lon="12.188577846464906"><ele>1.5</ele><time>2026-05-03T16:33:41Z</time></trkpt><trkpt lat="44.38839512145495" lon="12.188488737139107"><ele>1.25</ele><time>2026-05-03T16:33:42Z</time></trkpt><trkpt lat="44.38852450961994" lon="12.188395856281554"><ele>1.0</ele><time>2026-05-03T16:33:43Z</time></trkpt><trkpt lat="44.388659311434125" lon="12.188299228896659"><ele>1.0</ele><time>2026-05-03T16:33:44Z</time></trkpt><trkpt lat="44.38879682292697" lon="12.188202163892084"><ele>1.0</ele><time>2026-05-03T16:33:45Z</time></trkpt><trkpt lat="44.388929246783775" lon="12.188105753009843"><ele>1.0</ele><time>2026-05-03T16:33:46.001Z</time></trkpt><trkpt lat="44.389054640620444" lon="12.188014086632817"><ele>1.0</ele><time>2026-05-03T16:33:47.001Z</time></trkpt><trkpt lat="44.38918247963215" lon="12.187922589682207"><ele>1.6666666666666665</ele><time>2026-05-03T16:33:48.001Z</time></trkpt><trkpt lat="44.3893171809695" lon="12.18782576986289"><ele>2.3333333333333335</ele><time>2026-05-03T16:33:49.001Z</time></trkpt><trkpt lat="44.389459506437674" lon="12.18772499784416"><ele>3.0</ele><time>2026-05-03T16:33:50.001Z</time></trkpt><trkpt lat="44.38960324296998" lon="12.187619500214726"><ele>2.6666666666666665</ele><time>2026-05-03T16:33:51.001Z</time></trkpt><trkpt lat="44.389740951202384" lon="12.187520917132737"><ele>2.333333333333333</ele><time>2026-05-03T16:33:52.001Z</time></trkpt><trkpt lat="44.38988341873377" lon="12.18741823454278"><ele>2.0</ele><time>2026-05-03T16:33:53.001Z</time></trkpt><trkpt lat="44.390021236938836" lon="12.187322465210267"><ele>2.0</ele><time>2026-05-03T16:33:54.001Z</time></trkpt><trkpt lat="44.390149818579964" lon="12.187231673120607"><ele>2.0</ele><time>2026-05-03T16:33:55.001Z</time></trkpt><trkpt lat="44.3902699828915" lon="12.187143663145486"><ele>2.0</ele><time>2026-05-03T16:33:56.001Z</time></trkpt><trkpt lat="44.3903831480674" lon="12.187055691437665"><ele>2.0</ele><time>2026-05-03T16:33:57.001Z</time></trkpt><trkpt lat="44.39049483096928" lon="12.18697992222826"><ele>2.5</ele><time>2026-05-03T16:33:58.001Z</time></trkpt><trkpt lat="44.39060302926375" lon="12.186903814539765"><ele>3.0</ele><time>2026-05-03T16:33:59.001Z</time></trkpt><trkpt lat="44.39071255863774" lon="12.186825281952876"><ele>3.5</ele><time>2026-05-03T16:34:00.001Z</time></trkpt><trkpt lat="44.39081494567406" lon="12.186752073529396"><ele>4.0</ele><time>2026-05-03T16:34:01.001Z</time></trkpt><trkpt lat="44.39090670739452" lon="12.186685396125647"><ele>4.0</ele><time>2026-05-03T16:34:02.001Z</time></trkpt><trkpt lat="44.39100605482515" lon="12.186610065059346"><ele>4.0</ele><time>2026-05-03T16:34:03.001Z</time></trkpt><trkpt lat="44.39111312730709" lon="12.186522519066147"><ele>4.0</ele><time>2026-05-03T16:34:04.001Z</time></trkpt><trkpt lat="44.39121853975914" lon="12.186429920661542"><ele>4.0</ele><time>2026-05-03T16:34:05.001Z</time></trkpt><trkpt lat="44.391319799208325" lon="12.186334849766483"><ele>4.25</ele><time>2026-05-03T16:34:06.001Z</time></trkpt><trkpt lat="44.39142879859596" lon="12.186248694791326"><ele>4.5</ele><time>2026-05-03T16:34:07.001Z</time></trkpt><trkpt lat="44.39155090888617" lon="12.186163540772052"><ele>4.75</ele><time>2026-05-03T16:34:08.001Z</time></trkpt><trkpt lat="44.391678419190384" lon="12.186075971237594"><ele>5.0</ele><time>2026-05-03T16:34:09.001Z</time></trkpt><trkpt lat="44.39180434130896" lon="12.185985738264518"><ele>5.0</ele><time>2026-05-03T16:34:10.001Z</time></trkpt><trkpt lat="44.391928446295246" lon="12.185898154887418"><ele>5.0</ele><time>2026-05-03T16:34:11.001Z</time></trkpt><trkpt lat="44.392046728425306" lon="12.185816871439554"><ele>5.0</ele><time>2026-05-03T16:34:12.001Z</time></trkpt><trkpt lat="44.39215503322926" lon="12.185741771927637"><ele>5.0</ele><time>2026-05-03T16:34:13.001Z</time></trkpt><trkpt lat="44.39225258315808" lon="12.185673987241719"><ele>5.2</ele><time>2026-05-03T16:34:14.001Z</time></trkpt><trkpt lat="44.39234382847969" lon="12.185609779290925"><ele>5.4</ele><time>2026-05-03T16:34:15.001Z</time></trkpt><trkpt lat="44.39244201608035" lon="12.185542265561676"><ele>5.6</ele><time>2026-05-03T16:34:16.001Z</time></trkpt><trkpt lat="44.392543926900814" lon="12.18547103817057"><ele>5.8</ele><time>2026-05-03T16:34:17.001Z</time></trkpt><trkpt lat="44.39264490891524" lon="12.18539839078533"><ele>6.0</ele><time>2026-05-03T16:34:18.001Z</time></trkpt><trkpt lat="44.39275324494778" lon="12.185325569039351"><ele>6.0</ele><time>2026-05-03T16:34:19.001Z</time></trkpt><trkpt lat="44.392861396885685" lon="12.185249669116768"><ele>6.0</ele><time>2026-05-03T16:34:20.001Z</time></trkpt><trkpt lat="44.39297084767577" lon="12.185169876366317"><ele>6.0</ele><time>2026-05-03T16:34:21.001Z</time></trkpt><trkpt lat="44.393073938256244" lon="12.185093617623085"><ele>6.0</ele><time>2026-05-03T16:34:22.001Z</time></trkpt><trkpt lat="44.3931633370246" lon="12.185028933066125"><ele>5.2</ele><time>2026-05-03T16:34:23.001Z</time></trkpt><trkpt lat="44.39325218609367" lon="12.184965744123367"><ele>4.3999999999999995</ele><time>2026-05-03T16:34:24.001Z</time></trkpt><trkpt lat="44.3933515985027" lon="12.184894345261608"><ele>3.6</ele><time>2026-05-03T16:34:25.001Z</time></trkpt><trkpt lat="44.39345556570099" lon="12.184821817947727"><ele>2.8</ele><time>2026-05-03T16:34:26.002Z</time></trkpt><trkpt lat="44.393559990535536" lon="12.184749571104817"><ele>2.0</ele><time>2026-05-03T16:34:27.002Z</time></trkpt><trkpt lat="44.39366299482338" lon="12.184676364024536"><ele>1.75</ele><time>2026-05-03T16:34:28.002Z</time></trkpt><trkpt lat="44.3937664427703" lon="12.184600783842843"><ele>1.5</ele><time>2026-05-03T16:34:29.002Z</time></trkpt><trkpt lat="44.3938774869919" lon="12.184522541946468"><ele>1.25</ele><time>2026-05-03T16:34:30.002Z</time></trkpt><trkpt lat="44.39399070699777" lon="12.184445056835523"><ele>1.0</ele><time>2026-05-03T16:34:31.002Z</time></trkpt><trkpt lat="44.3941104027762" lon="12.184368128541328"><ele>1.5</ele><time>2026-05-03T16:34:32.002Z</time></trkpt><trkpt lat="44.39423385533167" lon="12.184293055432441"><ele>2.0</ele><time>2026-05-03T16:34:33.002Z</time></trkpt><trkpt lat="44.39436015706809" lon="12.18422561868255"><ele>2.5</ele><time>2026-05-03T16:34:34.002Z</time></trkpt><trkpt lat="44.3944938922422" lon="12.184155693896829"><ele>3.0</ele><time>2026-05-03T16:34:35.002Z</time></trkpt><trkpt lat="44.39463737115359" lon="12.184057138016515"><ele>2.6666666666666665</ele><time>2026-05-03T16:34:36.002Z</time></trkpt><trkpt lat="44.394794393971814" lon="12.183941102807974"><ele>2.333333333333333</ele><time>2026-05-03T16:34:37.002Z</time></trkpt><trkpt lat="44.39495861481632" lon="12.18382459506979"><ele>2.0</ele><time>2026-05-03T16:34:38.002Z</time></trkpt><trkpt lat="44.39512613434302" lon="12.183701990740726"><ele>2.0</ele><time>2026-05-03T16:34:39.002Z</time></trkpt><trkpt lat="44.39530438562388" lon="12.183574738318846"><ele>2.0</ele><time>2026-05-03T16:34:40.002Z</time></trkpt><trkpt lat="44.39550057584444" lon="12.18343678673087"><ele>2.0</ele><time>2026-05-03T16:34:41.002Z</time></trkpt><trkpt lat="44.39569809373275" lon="12.18329566241817"><ele>2.6666666666666665</ele><time>2026-05-03T16:34:42.002Z</time></trkpt><trkpt lat="44.39589440855059" lon="12.1831566453975"><ele>3.333333333333333</ele><time>2026-05-03T16:34:43.002Z</time></trkpt><trkpt lat="44.396097889438444" lon="12.183011448307825"><ele>4.0</ele><time>2026-05-03T16:34:44.002Z</time></trkpt><trkpt lat="44.39629753789023" lon="12.182866679099048"><ele>4.0</ele><time>2026-05-03T16:34:45.002Z</time></trkpt><trkpt lat="44.396493107176866" lon="12.18272626070391"><ele>4.0</ele><time>2026-05-03T16:34:46.002Z</time></trkpt><trkpt lat="44.39669791411236" lon="12.182581496394178"><ele>4.0</ele><time>2026-05-03T16:34:47.002Z</time></trkpt><trkpt lat="44.39691061260158" lon="12.1824314640293"><ele>4.5</ele><time>2026-05-03T16:34:48.002Z</time></trkpt><trkpt lat="44.397132401367415" lon="12.182272604801447"><ele>5.0</ele><time>2026-05-03T16:34:49.002Z</time></trkpt><trkpt lat="44.39736046223109" lon="12.182111780283941"><ele>5.0</ele><time>2026-05-03T16:34:50.002Z</time></trkpt><trkpt lat="44.397586108622875" lon="12.181950939698794"><ele>5.0</ele><time>2026-05-03T16:34:51.002Z</time></trkpt><trkpt lat="44.39781213931706" lon="12.181791728305042"><ele>4.5</ele><time>2026-05-03T16:34:52.002Z</time></trkpt><trkpt lat="44.39804084450981" lon="12.18163270613836"><ele>4.0</ele><time>2026-05-03T16:34:53.002Z</time></trkpt><trkpt lat="44.39827360708386" lon="12.181466317420751"><ele>3.0</ele><time>2026-05-03T16:34:54.002Z</time></trkpt><trkpt lat="44.39850570429833" lon="12.181301536901822"><ele>2.0</ele><time>2026-05-03T16:34:55.002Z</time></trkpt><trkpt lat="44.39873939466123" lon="12.181139003400974"><ele>3.0</ele><time>2026-05-03T16:34:56.002Z</time></trkpt><trkpt lat="44.39897273891754" lon="12.180974400309621"><ele>4.0</ele><time>2026-05-03T16:34:57.002Z</time></trkpt><trkpt lat="44.3992032774818" lon="12.180816849470762"><ele>3.5</ele><time>2026-05-03T16:34:58.002Z</time></trkpt><trkpt lat="44.399439091487174" lon="12.180648799865915"><ele>3.0</ele><time>2026-05-03T16:34:59.002Z</time></trkpt><trkpt lat="44.39967168025957" lon="12.180484630420839"><ele>3.0</ele><time>2026-05-03T16:35:00.002Z</time></trkpt><trkpt lat="44.39990268368957" lon="12.180313100074406"><ele>3.0</ele><time>2026-05-03T16:35:01.002Z</time></trkpt><trkpt lat="44.40013490913357" lon="12.180145033137913"><ele>3.0</ele><time>2026-05-03T16:35:02.002Z</time></trkpt><trkpt lat="44.40036914519494" lon="12.179980403434932"><ele>3.0</ele><time>2026-05-03T16:35:03.002Z</time></trkpt><trkpt lat="44.40060200219336" lon="12.179814341671504"><ele>2.0</ele><time>2026-05-03T16:35:04.002Z</time></trkpt><trkpt lat="44.40083303571499" lon="12.17965043790176"><ele>1.0</ele><time>2026-05-03T16:35:05.002Z</time></trkpt><trkpt lat="44.40106445372741" lon="12.179486821491547"><ele>1.0</ele><time>2026-05-03T16:35:06.002Z</time></trkpt><trkpt lat="44.40129041942245" lon="12.179329826843547"><ele>1.0</ele><time>2026-05-03T16:35:06.996Z</time></trkpt><trkpt lat="44.40151862952641" lon="12.179167623572898"><ele>1.5</ele><time>2026-05-03T16:35:07.996Z</time></trkpt><trkpt lat="44.40174470036007" lon="12.179007764057356"><ele>2.0</ele><time>2026-05-03T16:35:08.996Z</time></trkpt><trkpt lat="44.40197204290213" lon="12.178835629320254"><ele>2.0</ele><time>2026-05-03T16:35:09.996Z</time></trkpt><trkpt lat="44.40221388721956" lon="12.178669237398383"><ele>2.0</ele><time>2026-05-03T16:35:10.996Z</time></trkpt><trkpt lat="44.40246353494355" lon="12.17849717308765"><ele>2.0</ele><time>2026-05-03T16:35:11.997Z</time></trkpt><trkpt lat="44.4027137528382" lon="12.17831881742824"><ele>2.0</ele><time>2026-05-03T16:35:12.997Z</time></trkpt><trkpt lat="44.40297131571945" lon="12.178141289455715"><ele>1.5</ele><time>2026-05-03T16:35:13.997Z</time></trkpt><trkpt lat="44.4032278723605" lon="12.177958017186228"><ele>1.0</ele><time>2026-05-03T16:35:14.997Z</time></trkpt><trkpt lat="44.403475733788994" lon="12.177780026233131"><ele>1.0</ele><time>2026-05-03T16:35:15.997Z</time></trkpt><trkpt lat="44.40370627089128" lon="12.177614112073245"><ele>1.0</ele><time>2026-05-03T16:35:16.997Z</time></trkpt><trkpt lat="44.403925362001104" lon="12.177461430528313"><ele>2.5</ele><time>2026-05-03T16:35:17.997Z</time></trkpt><trkpt lat="44.40413863244508" lon="12.177309583551638"><ele>4.0</ele><time>2026-05-03T16:35:18.997Z</time></trkpt><trkpt lat="44.40435502588425" lon="12.17715858236254"><ele>4.0</ele><time>2026-05-03T16:35:19.997Z</time></trkpt><trkpt lat="44.404579573041765" lon="12.176998804703848"><ele>4.0</ele><time>2026-05-03T16:35:20.997Z</time></trkpt><trkpt lat="44.40480672616021" lon="12.176835614836076"><ele>3.0</ele><time>2026-05-03T16:35:21.997Z</time></trkpt><trkpt lat="44.40502781865707" lon="12.176677991878819"><ele>2.0</ele><time>2026-05-03T16:35:22.998Z</time></trkpt><trkpt lat="44.40524221388865" lon="12.176529211522777"><ele>1.5</ele><time>2026-05-03T16:35:23.998Z</time></trkpt><trkpt lat="44.405449739576476" lon="12.176382466952248"><ele>1.0</ele><time>2026-05-03T16:35:24.998Z</time></trkpt><trkpt lat="44.40564656861208" lon="12.176243348611738"><ele>1.0</ele><time>2026-05-03T16:35:25.998Z</time></trkpt><trkpt lat="44.40583354725031" lon="12.176124906918279"><ele>1.0</ele><time>2026-05-03T16:35:26.998Z</time></trkpt><trkpt lat="44.406014953383384" lon="12.175986259483272"><ele>1.0</ele><time>2026-05-03T16:35:27.998Z</time></trkpt><trkpt lat="44.40620230441078" lon="12.17585407105916"><ele>1.3333333333333333</ele><time>2026-05-03T16:35:28.998Z</time></trkpt><trkpt lat="44.40638035267029" lon="12.175734283609394"><ele>1.6666666666666665</ele><time>2026-05-03T16:35:29.998Z</time></trkpt><trkpt lat="44.4065592417881" lon="12.175607681038851"><ele>2.0</ele><time>2026-05-03T16:35:30.998Z</time></trkpt><trkpt lat="44.40673651037835" lon="12.175480459883072"><ele>2.0</ele><time>2026-05-03T16:35:31.998Z</time></trkpt><trkpt lat="44.40691320586433" lon="12.175354166442"><ele>2.0</ele><time>2026-05-03T16:35:32.998Z</time></trkpt><trkpt lat="44.4070874784297" lon="12.175227609626027"><ele>2.0</ele><time>2026-05-03T16:35:33.999Z</time></trkpt><trkpt lat="44.40726236211488" lon="12.17509858042462"><ele>2.333333333333333</ele><time>2026-05-03T16:35:34.999Z</time></trkpt><trkpt lat="44.407444748524526" lon="12.174968798279957"><ele>2.6666666666666665</ele><time>2026-05-03T16:35:35.999Z</time></trkpt><trkpt lat="44.407629862009024" lon="12.174830807355747"><ele>3.0</ele><time>2026-05-03T16:35:36.999Z</time></trkpt><trkpt lat="44.40781330458905" lon="12.17469163817891"><ele>2.0</ele><time>2026-05-03T16:35:37.999Z</time></trkpt><trkpt lat="44.40799790768967" lon="12.174544505136872"><ele>1.0</ele><time>2026-05-03T16:35:38.999Z</time></trkpt><trkpt lat="44.40818777271732" lon="12.174397452634594"><ele>0.0</ele><time>2026-05-03T16:35:39.999Z</time></trkpt><trkpt lat="44.40838529269456" lon="12.174252538067588"><ele>0.0</ele><time>2026-05-03T16:35:40.999Z</time></trkpt><trkpt lat="44.40858957774525" lon="12.17410525437951"><ele>0.0</ele><time>2026-05-03T16:35:41.999Z</time></trkpt><trkpt lat="44.408798051614475" lon="12.173964144734356"><ele>1.5</ele><time>2026-05-03T16:35:42.999Z</time></trkpt><trkpt lat="44.409013181760066" lon="12.173820316361871"><ele>3.0</ele><time>2026-05-03T16:35:43.999Z</time></trkpt><trkpt lat="44.40922893368202" lon="12.173673841503437"><ele>3.0</ele><time>2026-05-03T16:35:44.999Z</time></trkpt><trkpt lat="44.40945167017532" lon="12.17352357302605"><ele>3.0</ele><time>2026-05-03T16:35:45.999Z</time></trkpt><trkpt lat="44.40968308126089" lon="12.17336343873782"><ele>2.0</ele><time>2026-05-03T16:35:46.999Z</time></trkpt><trkpt lat="44.40992490762013" lon="12.173194975686933"><ele>1.0</ele><time>2026-05-03T16:35:47.999Z</time></trkpt><trkpt lat="44.410171380803526" lon="12.17302342553744"><ele>0.5</ele><time>2026-05-03T16:35:48.999Z</time></trkpt><trkpt lat="44.41041673387983" lon="12.172852356175584"><ele>0.0</ele><time>2026-05-03T16:35:49.999Z</time></trkpt><trkpt lat="44.410663219972676" lon="12.172679833650038"><ele>1.5</ele><time>2026-05-03T16:35:50.999Z</time></trkpt><trkpt lat="44.41090940740047" lon="12.172505519149016"><ele>3.0</ele><time>2026-05-03T16:35:51.999Z</time></trkpt><trkpt lat="44.41115121103257" lon="12.172340169778748"><ele>2.0</ele><time>2026-05-03T16:35:53Z</time></trkpt><trkpt lat="44.41139146691939" lon="12.17216193624215"><ele>1.0</ele><time>2026-05-03T16:35:54Z</time></trkpt><trkpt lat="44.411628112205136" lon="12.171994466808549"><ele>1.0</ele><time>2026-05-03T16:35:55Z</time></trkpt><trkpt lat="44.411866644265054" lon="12.171827801569568"><ele>1.0</ele><time>2026-05-03T16:35:56Z</time></trkpt><trkpt lat="44.412104017269556" lon="12.171663740571988"><ele>0.5</ele><time>2026-05-03T16:35:57Z</time></trkpt><trkpt lat="44.41234048217611" lon="12.171503533250263"><ele>0.0</ele><time>2026-05-03T16:35:58Z</time></trkpt><trkpt lat="44.4125681704631" lon="12.171347613711724"><ele>0.0</ele><time>2026-05-03T16:35:59Z</time></trkpt><trkpt lat="44.41279292248727" lon="12.171195631982217"><ele>0.0</ele><time>2026-05-03T16:36:00Z</time></trkpt><trkpt lat="44.41301417280359" lon="12.171044439018974"><ele>0.5</ele><time>2026-05-03T16:36:01Z</time></trkpt><trkpt lat="44.41322913050934" lon="12.17089559522025"><ele>1.0</ele><time>2026-05-03T16:36:02Z</time></trkpt><trkpt lat="44.41344368593337" lon="12.170746007607596"><ele>2.0</ele><time>2026-05-03T16:36:03Z</time></trkpt><trkpt lat="44.41366079952186" lon="12.170592935761288"><ele>3.0</ele><time>2026-05-03T16:36:04Z</time></trkpt><trkpt lat="44.41388561436642" lon="12.170433746426378"><ele>1.0</ele><time>2026-05-03T16:36:05Z</time></trkpt><trkpt lat="44.41412137958685" lon="12.170266265908026"><ele>-1.0</ele><time>2026-05-03T16:36:06Z</time></trkpt><trkpt lat="44.41436846337921" lon="12.17009205626951"><ele>-1.0</ele><time>2026-05-03T16:36:07Z</time></trkpt><trkpt lat="44.41460686325187" lon="12.169924622687423"><ele>-1.0</ele><time>2026-05-03T16:36:08Z</time></trkpt><trkpt lat="44.41483331964974" lon="12.169767690423717"><ele>0.0</ele><time>2026-05-03T16:36:09Z</time></trkpt><trkpt lat="44.41505754419794" lon="12.169608683976978"><ele>1.0</ele><time>2026-05-03T16:36:10Z</time></trkpt><trkpt lat="44.41528033245395" lon="12.169450605553964"><ele>0.0</ele><time>2026-05-03T16:36:11Z</time></trkpt><trkpt lat="44.41550283367786" lon="12.169290135905673"><ele>-1.0</ele><time>2026-05-03T16:36:12Z</time></trkpt><trkpt lat="44.415725387123615" lon="12.169130560794654"><ele>-0.5</ele><time>2026-05-03T16:36:13Z</time></trkpt><trkpt lat="44.415944354771504" lon="12.168976621820509"><ele>0.0</ele><time>2026-05-03T16:36:14Z</time></trkpt><trkpt lat="44.416164599502366" lon="12.168822621431502"><ele>-0.5</ele><time>2026-05-03T16:36:15Z</time></trkpt><trkpt lat="44.41638181113227" lon="12.168669809336599"><ele>-1.0</ele><time>2026-05-03T16:36:16Z</time></trkpt><trkpt lat="44.4165986633961" lon="12.168517014061079"><ele>-1.0</ele><time>2026-05-03T16:36:17Z</time></trkpt><trkpt lat="44.41681806931529" lon="12.168364600099054"><ele>-1.0</ele><time>2026-05-03T16:36:18Z</time></trkpt><trkpt lat="44.417039136259596" lon="12.168211995228585"><ele>-1.0</ele><time>2026-05-03T16:36:19Z</time></trkpt><trkpt lat="44.41725473275065" lon="12.168065686080064"><ele>-1.0</ele><time>2026-05-03T16:36:20Z</time></trkpt><trkpt lat="44.41746263062963" lon="12.167902522770872"><ele>-1.0</ele><time>2026-05-03T16:36:21Z</time></trkpt><trkpt lat="44.4176641771824" lon="12.167733863298983"><ele>-1.0</ele><time>2026-05-03T16:36:22.001Z</time></trkpt><trkpt lat="44.41786388765322" lon="12.167553619452164"><ele>-1.0</ele><time>2026-05-03T16:36:23.001Z</time></trkpt><trkpt lat="44.418062558854295" lon="12.167365562228314"><ele>-1.0</ele><time>2026-05-03T16:36:24.001Z</time></trkpt><trkpt lat="44.41825911330406" lon="12.16717539794402"><ele>-1.5</ele><time>2026-05-03T16:36:25.001Z</time></trkpt><trkpt lat="44.41845493500785" lon="12.166986087449818"><ele>-2.0</ele><time>2026-05-03T16:36:26.001Z</time></trkpt><trkpt lat="44.41864278407526" lon="12.16680506822502"><ele>-1.3333333333333333</ele><time>2026-05-03T16:36:27.001Z</time></trkpt><trkpt lat="44.41882127879393" lon="12.16662736205033"><ele>-0.6666666666666666</ele><time>2026-05-03T16:36:28.001Z</time></trkpt><trkpt lat="44.418989310589595" lon="12.166448075345949"><ele>0.0</ele><time>2026-05-03T16:36:29.001Z</time></trkpt><trkpt lat="44.41915966245933" lon="12.16626694440348"><ele>0.0</ele><time>2026-05-03T16:36:30.001Z</time></trkpt><trkpt lat="44.41933026319037" lon="12.166095055505808"><ele>0.0</ele><time>2026-05-03T16:36:31.001Z</time></trkpt><trkpt lat="44.41950565874204" lon="12.165918799022105"><ele>0.0</ele><time>2026-05-03T16:36:32.001Z</time></trkpt><trkpt lat="44.419683218869196" lon="12.165741951333668"><ele>0.5</ele><time>2026-05-03T16:36:33.001Z</time></trkpt><trkpt lat="44.419870294040244" lon="12.16555502487616"><ele>1.0</ele><time>2026-05-03T16:36:34.001Z</time></trkpt><trkpt lat="44.42006422352872" lon="12.165360380030233"><ele>1.0</ele><time>2026-05-03T16:36:35.001Z</time></trkpt><trkpt lat="44.42026225871134" lon="12.165158448020527"><ele>1.0</ele><time>2026-05-03T16:36:36.001Z</time></trkpt><trkpt lat="44.42044834925921" lon="12.164957145239862"><ele>2.0</ele><time>2026-05-03T16:36:37.001Z</time></trkpt><trkpt lat="44.420627107055225" lon="12.16474031276027"><ele>3.0</ele><time>2026-05-03T16:36:38.001Z</time></trkpt><trkpt lat="44.42079295187088" lon="12.164516849971847"><ele>3.0</ele><time>2026-05-03T16:36:39.001Z</time></trkpt><trkpt lat="44.42095659957303" lon="12.164284754423983"><ele>3.0</ele><time>2026-05-03T16:36:40.001Z</time></trkpt><trkpt lat="44.421129189631415" lon="12.164048625998728"><ele>2.5</ele><time>2026-05-03T16:36:41.001Z</time></trkpt><trkpt lat="44.42131491322276" lon="12.163800210854285"><ele>2.0</ele><time>2026-05-03T16:36:42.001Z</time></trkpt><trkpt lat="44.42151214093283" lon="12.163536338815092"><ele>2.0</ele><time>2026-05-03T16:36:43.001Z</time></trkpt><trkpt lat="44.42170950260604" lon="12.163272805388603"><ele>2.0</ele><time>2026-05-03T16:36:44.001Z</time></trkpt><trkpt lat="44.42190431330524" lon="12.163016922031726"><ele>1.5</ele><time>2026-05-03T16:36:45.001Z</time></trkpt><trkpt lat="44.42209278414044" lon="12.162766295157038"><ele>1.0</ele><time>2026-05-03T16:36:46.001Z</time></trkpt><trkpt lat="44.422282119244194" lon="12.162514853518617"><ele>1.5</ele><time>2026-05-03T16:36:47.001Z</time></trkpt><trkpt lat="44.422471289721244" lon="12.162260881393745"><ele>2.0</ele><time>2026-05-03T16:36:48.001Z</time></trkpt><trkpt lat="44.42266594863289" lon="12.162002274710554"><ele>2.0</ele><time>2026-05-03T16:36:49.001Z</time></trkpt><trkpt lat="44.42285608675754" lon="12.161746827736632"><ele>2.0</ele><time>2026-05-03T16:36:50.001Z</time></trkpt><trkpt lat="44.423045936119635" lon="12.161491932680908"><ele>1.5</ele><time>2026-05-03T16:36:51.001Z</time></trkpt><trkpt lat="44.42322963165145" lon="12.161248422723931"><ele>1.0</ele><time>2026-05-03T16:36:52.001Z</time></trkpt><trkpt lat="44.42341910783138" lon="12.160999670423793"><ele>1.0</ele><time>2026-05-03T16:36:53.001Z</time></trkpt><trkpt lat="44.42361146080917" lon="12.160747779421477"><ele>1.0</ele><time>2026-05-03T16:36:54.002Z</time></trkpt><trkpt lat="44.4238006086841" lon="12.160498823046847"><ele>-0.5</ele><time>2026-05-03T16:36:55.002Z</time></trkpt><trkpt lat="44.42399240476207" lon="12.1602447787765"><ele>-2.0</ele><time>2026-05-03T16:36:56.002Z</time></trkpt><trkpt lat="44.42418333060971" lon="12.15999197159751"><ele>-2.0</ele><time>2026-05-03T16:36:57.002Z</time></trkpt><trkpt lat="44.42437665847892" lon="12.159739566865602"><ele>-2.0</ele><time>2026-05-03T16:36:58.002Z</time></trkpt><trkpt lat="44.42457045637345" lon="12.159487112836025"><ele>-2.0</ele><time>2026-05-03T16:36:59.002Z</time></trkpt><trkpt lat="44.42476247734351" lon="12.159240127235842"><ele>-2.0</ele><time>2026-05-03T16:37:00.002Z</time></trkpt><trkpt lat="44.42495135488154" lon="12.158998541152526"><ele>-2.5</ele><time>2026-05-03T16:37:01.002Z</time></trkpt><trkpt lat="44.42513289989193" lon="12.158764525970547"><ele>-3.0</ele><time>2026-05-03T16:37:02.002Z</time></trkpt><trkpt lat="44.425315054229074" lon="12.158527587828555"><ele>-2.0</ele><time>2026-05-03T16:37:03.002Z</time></trkpt><trkpt lat="44.42549407189193" lon="12.158292957510666"><ele>-1.0</ele><time>2026-05-03T16:37:04.002Z</time></trkpt><trkpt lat="44.425675817436385" lon="12.158054983669999"><ele>-0.5</ele><time>2026-05-03T16:37:05.002Z</time></trkpt><trkpt lat="44.42585823437692" lon="12.157816761218541"><ele>0.0</ele><time>2026-05-03T16:37:06.002Z</time></trkpt><trkpt lat="44.42603871775294" lon="12.157572603975357"><ele>0.0</ele><time>2026-05-03T16:37:07.002Z</time></trkpt><trkpt lat="44.426215100782144" lon="12.157331501668077"><ele>0.0</ele><time>2026-05-03T16:37:08.002Z</time></trkpt><trkpt lat="44.42639454820501" lon="12.157093541954081"><ele>0.0</ele><time>2026-05-03T16:37:09.002Z</time></trkpt><trkpt lat="44.42657261575883" lon="12.15685768232731"><ele>0.0</ele><time>2026-05-03T16:37:10.002Z</time></trkpt><trkpt lat="44.42675324888271" lon="12.156618731181768"><ele>0.0</ele><time>2026-05-03T16:37:11.002Z</time></trkpt><trkpt lat="44.4269359025125" lon="12.156378520658835"><ele>0.0</ele><time>2026-05-03T16:37:12.002Z</time></trkpt><trkpt lat="44.427116819663254" lon="12.156140418848317"><ele>1.5</ele><time>2026-05-03T16:37:12.999Z</time></trkpt><trkpt lat="44.42730075708331" lon="12.155892139535792"><ele>3.0</ele><time>2026-05-03T16:37:14Z</time></trkpt><trkpt lat="44.42748616168816" lon="12.155644375937268"><ele>4.0</ele><time>2026-05-03T16:37:15Z</time></trkpt><trkpt lat="44.42767268971671" lon="12.155396933926754"><ele>5.0</ele><time>2026-05-03T16:37:16Z</time></trkpt><trkpt lat="44.42785579508458" lon="12.155154918630604"><ele>5.5</ele><time>2026-05-03T16:37:17Z</time></trkpt><trkpt lat="44.42803931106054" lon="12.154911362087466"><ele>6.0</ele><time>2026-05-03T16:37:18Z</time></trkpt><trkpt lat="44.428220106929246" lon="12.154674444882408"><ele>4.0</ele><time>2026-05-03T16:37:19Z</time></trkpt><trkpt lat="44.42840170484198" lon="12.154433425684541"><ele>2.0</ele><time>2026-05-03T16:37:20Z</time></trkpt><trkpt lat="44.42858349597571" lon="12.154193666238374"><ele>0.0</ele><time>2026-05-03T16:37:21Z</time></trkpt><trkpt lat="44.42876680073673" lon="12.153950479685927"><ele>-2.0</ele><time>2026-05-03T16:37:22Z</time></trkpt><trkpt lat="44.42894861423902" lon="12.153710111135396"><ele>-2.5</ele><time>2026-05-03T16:37:23Z</time></trkpt><trkpt lat="44.4291275814853" lon="12.15347168325995"><ele>-3.0</ele><time>2026-05-03T16:37:24Z</time></trkpt><trkpt lat="44.42930316829906" lon="12.153233951065696"><ele>-2.0</ele><time>2026-05-03T16:37:25Z</time></trkpt><trkpt lat="44.42947418046811" lon="12.152993444183698"><ele>-1.0</ele><time>2026-05-03T16:37:26Z</time></trkpt><trkpt lat="44.42964333281618" lon="12.152746340385658"><ele>-1.0</ele><time>2026-05-03T16:37:27Z</time></trkpt><trkpt lat="44.42980440565046" lon="12.152509398526618"><ele>-1.0</ele><time>2026-05-03T16:37:28Z</time></trkpt><trkpt lat="44.429957606039046" lon="12.152292841694601"><ele>-1.0</ele><time>2026-05-03T16:37:29Z</time></trkpt><trkpt lat="44.43010111887068" lon="12.152098711300429"><ele>-1.0</ele><time>2026-05-03T16:37:30Z</time></trkpt><trkpt lat="44.43023459279576" lon="12.151921814729668"><ele>-1.0</ele><time>2026-05-03T16:37:31Z</time></trkpt><trkpt lat="44.43035088234335" lon="12.151763410220942"><ele>-1.0</ele><time>2026-05-03T16:37:32Z</time></trkpt><trkpt lat="44.430458319420346" lon="12.151622741136583"><ele>-1.0</ele><time>2026-05-03T16:37:33Z</time></trkpt><trkpt lat="44.43056588872867" lon="12.151472552000554"><ele>-1.0</ele><time>2026-05-03T16:37:34Z</time></trkpt><trkpt lat="44.43067678147581" lon="12.1513191595595"><ele>-0.6666666666666666</ele><time>2026-05-03T16:37:35Z</time></trkpt><trkpt lat="44.43079924715225" lon="12.15116070018607"><ele>-0.3333333333333333</ele><time>2026-05-03T16:37:36Z</time></trkpt><trkpt lat="44.43091975299524" lon="12.151007705574987"><ele>0.0</ele><time>2026-05-03T16:37:37Z</time></trkpt><trkpt lat="44.431024952980756" lon="12.15086953770678"><ele>0.0</ele><time>2026-05-03T16:37:38Z</time></trkpt><trkpt lat="44.431125630059256" lon="12.150732427006533"><ele>0.0</ele><time>2026-05-03T16:37:39Z</time></trkpt><trkpt lat="44.431247212838706" lon="12.150584011698012"><ele>0.0</ele><time>2026-05-03T16:37:40Z</time></trkpt><trkpt lat="44.43137985044134" lon="12.150412619417818"><ele>0.3333333333333333</ele><time>2026-05-03T16:37:41.001Z</time></trkpt><trkpt lat="44.43152264035039" lon="12.150213595176936"><ele>0.6666666666666666</ele><time>2026-05-03T16:37:42.001Z</time></trkpt><trkpt lat="44.43167474498927" lon="12.149998068456314"><ele>1.0</ele><time>2026-05-03T16:37:43.001Z</time></trkpt><trkpt lat="44.43184487854377" lon="12.149761146325929"><ele>1.5</ele><time>2026-05-03T16:37:44.001Z</time></trkpt><trkpt lat="44.43203454123274" lon="12.149506267465764"><ele>2.0</ele><time>2026-05-03T16:37:45.001Z</time></trkpt><trkpt lat="44.43222543605506" lon="12.149245498791785"><ele>1.0</ele><time>2026-05-03T16:37:46.001Z</time></trkpt><trkpt lat="44.43240764391362" lon="12.148997958879324"><ele>0.0</ele><time>2026-05-03T16:37:47.001Z</time></trkpt><trkpt lat="44.43259065363358" lon="12.14875621293479"><ele>0.0</ele><time>2026-05-03T16:37:48.001Z</time></trkpt><trkpt lat="44.432774027758285" lon="12.14851476088035"><ele>0.0</ele><time>2026-05-03T16:37:49.001Z</time></trkpt><trkpt lat="44.43295254140004" lon="12.148280249532768"><ele>0.3333333333333333</ele><time>2026-05-03T16:37:50.001Z</time></trkpt><trkpt lat="44.43311793056787" lon="12.148063821276864"><ele>0.6666666666666666</ele><time>2026-05-03T16:37:51.001Z</time></trkpt><trkpt lat="44.4332798140271" lon="12.147850167831843"><ele>1.0</ele><time>2026-05-03T16:37:52.001Z</time></trkpt><trkpt lat="44.43344272150502" lon="12.147630679392488"><ele>1.0</ele><time>2026-05-03T16:37:53.001Z</time></trkpt><trkpt lat="44.433607154179626" lon="12.14740986361699"><ele>1.0</ele><time>2026-05-03T16:37:54.001Z</time></trkpt><trkpt lat="44.43376886301549" lon="12.147188749023405"><ele>1.0</ele><time>2026-05-03T16:37:55.001Z</time></trkpt><trkpt lat="44.43392794299041" lon="12.146972965585121"><ele>1.0</ele><time>2026-05-03T16:37:56.001Z</time></trkpt><trkpt lat="44.434089296127475" lon="12.146758028807362"><ele>1.0</ele><time>2026-05-03T16:37:57.001Z</time></trkpt><trkpt lat="44.43425382470463" lon="12.14653942900053"><ele>2.0</ele><time>2026-05-03T16:37:58.001Z</time></trkpt><trkpt lat="44.43442196931498" lon="12.146314137283476"><ele>3.0</ele><time>2026-05-03T16:37:59.001Z</time></trkpt><trkpt lat="44.43458250876666" lon="12.14609832524598"><ele>2.6666666666666665</ele><time>2026-05-03T16:38:00.001Z</time></trkpt><trkpt lat="44.43473546903521" lon="12.145893958082477"><ele>2.333333333333333</ele><time>2026-05-03T16:38:01.001Z</time></trkpt><trkpt lat="44.43488683954214" lon="12.145692014300211"><ele>2.0</ele><time>2026-05-03T16:38:02.001Z</time></trkpt><trkpt lat="44.435039619875404" lon="12.145492231642521"><ele>1.6666666666666665</ele><time>2026-05-03T16:38:03.001Z</time></trkpt><trkpt lat="44.4351909119976" lon="12.145290620086877"><ele>1.3333333333333333</ele><time>2026-05-03T16:38:04.001Z</time></trkpt><trkpt lat="44.43534313112962" lon="12.145086499124279"><ele>1.0</ele><time>2026-05-03T16:38:05.001Z</time></trkpt><trkpt lat="44.43549786533571" lon="12.144879379095514"><ele>1.0</ele><time>2026-05-03T16:38:06.001Z</time></trkpt><trkpt lat="44.43565540088473" lon="12.14466889290713"><ele>1.0</ele><time>2026-05-03T16:38:07.001Z</time></trkpt><trkpt lat="44.43581165179387" lon="12.14446013534837"><ele>1.0</ele><time>2026-05-03T16:38:08.001Z</time></trkpt><trkpt lat="44.435963303358044" lon="12.144259760436736"><ele>1.0</ele><time>2026-05-03T16:38:09.001Z</time></trkpt><trkpt lat="44.43611167311689" lon="12.144063299364065"><ele>1.0</ele><time>2026-05-03T16:38:10.001Z</time></trkpt><trkpt lat="44.436258949009755" lon="12.143871414443746"><ele>1.0</ele><time>2026-05-03T16:38:11.001Z</time></trkpt><trkpt lat="44.43639838590221" lon="12.143694918790608"><ele>0.6666666666666666</ele><time>2026-05-03T16:38:12.001Z</time></trkpt><trkpt lat="44.43653130609015" lon="12.14352138321427"><ele>0.3333333333333333</ele><time>2026-05-03T16:38:13.002Z</time></trkpt><trkpt lat="44.436672997193476" lon="12.143333187531997"><ele>0.0</ele><time>2026-05-03T16:38:14.002Z</time></trkpt><trkpt lat="44.43681555656565" lon="12.143141705389924"><ele>0.0</ele><time>2026-05-03T16:38:15.002Z</time></trkpt><trkpt lat="44.43694831666635" lon="12.142963781937768"><ele>0.0</ele><time>2026-05-03T16:38:16.002Z</time></trkpt><trkpt lat="44.43707382517601" lon="12.142798460120137"><ele>0.0</ele><time>2026-05-03T16:38:17.002Z</time></trkpt><trkpt lat="44.43719394623207" lon="12.14263657415884"><ele>-0.3333333333333333</ele><time>2026-05-03T16:38:18.002Z</time></trkpt><trkpt lat="44.43731251443808" lon="12.142472187773445"><ele>-0.6666666666666666</ele><time>2026-05-03T16:38:19.002Z</time></trkpt><trkpt lat="44.43744164060969" lon="12.14230076643697"><ele>-1.0</ele><time>2026-05-03T16:38:20.002Z</time></trkpt><trkpt lat="44.437574278549654" lon="12.142132391781441"><ele>-1.0</ele><time>2026-05-03T16:38:21.002Z</time></trkpt><trkpt lat="44.437710595623834" lon="12.141957501453756"><ele>-1.0</ele><time>2026-05-03T16:38:22.002Z</time></trkpt><trkpt lat="44.43785325262266" lon="12.141765545448399"><ele>-1.0</ele><time>2026-05-03T16:38:23.002Z</time></trkpt><trkpt lat="44.43799837686023" lon="12.141567981078062"><ele>-0.6666666666666666</ele><time>2026-05-03T16:38:24.002Z</time></trkpt><trkpt lat="44.43814282037298" lon="12.14137326680262"><ele>-0.3333333333333333</ele><time>2026-05-03T16:38:25.002Z</time></trkpt><trkpt lat="44.43829107084229" lon="12.141174410629878"><ele>0.0</ele><time>2026-05-03T16:38:26.002Z</time></trkpt><trkpt lat="44.438440859332836" lon="12.140972773956642"><ele>0.0</ele><time>2026-05-03T16:38:27.002Z</time></trkpt><trkpt lat="44.43858973980201" lon="12.14077256021981"><ele>0.0</ele><time>2026-05-03T16:38:28.002Z</time></trkpt><trkpt lat="44.43874092286286" lon="12.140568840845015"><ele>0.0</ele><time>2026-05-03T16:38:29.002Z</time></trkpt><trkpt lat="44.438895081194566" lon="12.140364036459543"><ele>0.0</ele><time>2026-05-03T16:38:30.002Z</time></trkpt><trkpt lat="44.43905476852621" lon="12.140154239932672"><ele>0.0</ele><time>2026-05-03T16:38:31.002Z</time></trkpt><trkpt lat="44.43921887228272" lon="12.139936009309439"><ele>0.0</ele><time>2026-05-03T16:38:32.002Z</time></trkpt><trkpt lat="44.43937908370759" lon="12.139716562204999"><ele>0.0</ele><time>2026-05-03T16:38:33.002Z</time></trkpt><trkpt lat="44.43953650454142" lon="12.139499647752537"><ele>0.0</ele><time>2026-05-03T16:38:34.002Z</time></trkpt><trkpt lat="44.43969242486532" lon="12.139289143706073"><ele>0.0</ele><time>2026-05-03T16:38:35.002Z</time></trkpt><trkpt lat="44.439848257515955" lon="12.139080928834247"><ele>0.0</ele><time>2026-05-03T16:38:36.002Z</time></trkpt><trkpt lat="44.4400084234874" lon="12.138872274004646"><ele>0.0</ele><time>2026-05-03T16:38:37.002Z</time></trkpt><trkpt lat="44.44016984916436" lon="12.13866060066826"><ele>0.0</ele><time>2026-05-03T16:38:38.002Z</time></trkpt><trkpt lat="44.440332264778945" lon="12.138446450838819"><ele>0.0</ele><time>2026-05-03T16:38:39.002Z</time></trkpt><trkpt lat="44.44049380257145" lon="12.138232993782745"><ele>0.0</ele><time>2026-05-03T16:38:40.002Z</time></trkpt><trkpt lat="44.440654958571095" lon="12.138021395340745"><ele>0.0</ele><time>2026-05-03T16:38:41.002Z</time></trkpt><trkpt lat="44.44081020503221" lon="12.137813828337144"><ele>0.0</ele><time>2026-05-03T16:38:42.002Z</time></trkpt><trkpt lat="44.440966006108944" lon="12.137608641024551"><ele>0.0</ele><time>2026-05-03T16:38:43.002Z</time></trkpt><trkpt lat="44.44111971583829" lon="12.137403245832816"><ele>0.0</ele><time>2026-05-03T16:38:44.002Z</time></trkpt><trkpt lat="44.44127428517217" lon="12.137197025927193"><ele>0.3333333333333333</ele><time>2026-05-03T16:38:45.002Z</time></trkpt><trkpt lat="44.44142500240426" lon="12.136992122176254"><ele>0.6666666666666666</ele><time>2026-05-03T16:38:46.003Z</time></trkpt><trkpt lat="44.44157911511523" lon="12.136781514396668"><ele>1.0</ele><time>2026-05-03T16:38:47.003Z</time></trkpt><trkpt lat="44.44173232475423" lon="12.136577670423268"><ele>1.0</ele><time>2026-05-03T16:38:48.003Z</time></trkpt><trkpt lat="44.44188743183758" lon="12.1363790909212"><ele>1.0</ele><time>2026-05-03T16:38:49.003Z</time></trkpt><trkpt lat="44.442041260412935" lon="12.136179555527827"><ele>1.0</ele><time>2026-05-03T16:38:50.003Z</time></trkpt><trkpt lat="44.442191898720225" lon="12.135977016366306"><ele>1.0</ele><time>2026-05-03T16:38:51.003Z</time></trkpt><trkpt lat="44.44234144212252" lon="12.135774836600596"><ele>1.0</ele><time>2026-05-03T16:38:52.003Z</time></trkpt><trkpt lat="44.44249062185584" lon="12.135571937947276"><ele>1.0</ele><time>2026-05-03T16:38:53.003Z</time></trkpt><trkpt lat="44.442639702211345" lon="12.135370169690246"><ele>1.0</ele><time>2026-05-03T16:38:54.003Z</time></trkpt><trkpt lat="44.44278755354126" lon="12.135174667950908"><ele>1.0</ele><time>2026-05-03T16:38:55.003Z</time></trkpt><trkpt lat="44.44292835164822" lon="12.134983855508723"><ele>1.0</ele><time>2026-05-03T16:38:56.003Z</time></trkpt><trkpt lat="44.44306911029537" lon="12.134798525007342"><ele>1.0</ele><time>2026-05-03T16:38:57.003Z</time></trkpt><trkpt lat="44.44320614971012" lon="12.134609062893283"><ele>1.0</ele><time>2026-05-03T16:38:58.003Z</time></trkpt><trkpt lat="44.44333983506991" lon="12.13443102559222"><ele>1.0</ele><time>2026-05-03T16:38:59.003Z</time></trkpt><trkpt lat="44.44346440426507" lon="12.134267921856033"><ele>1.0</ele><time>2026-05-03T16:39:00.003Z</time></trkpt><trkpt lat="44.44359538982371" lon="12.134092646963607"><ele>1.0</ele><time>2026-05-03T16:39:01.003Z</time></trkpt><trkpt lat="44.44373483029532" lon="12.133910190595905"><ele>1.0</ele><time>2026-05-03T16:39:02.003Z</time></trkpt><trkpt lat="44.443876292421955" lon="12.133726847642626"><ele>1.6666666666666665</ele><time>2026-05-03T16:39:03.003Z</time></trkpt><trkpt lat="44.44401556842634" lon="12.133542204417996"><ele>2.3333333333333335</ele><time>2026-05-03T16:39:04.003Z</time></trkpt><trkpt lat="44.444156630966326" lon="12.133361371869064"><ele>3.0</ele><time>2026-05-03T16:39:05.003Z</time></trkpt><trkpt lat="44.44428542578036" lon="12.133185711417404"><ele>3.0</ele><time>2026-05-03T16:39:06.003Z</time></trkpt><trkpt lat="44.44441235286866" lon="12.133015590446375"><ele>3.0</ele><time>2026-05-03T16:39:07.003Z</time></trkpt><trkpt lat="44.44454364769292" lon="12.13284411449586"><ele>3.0</ele><time>2026-05-03T16:39:08.003Z</time></trkpt><trkpt lat="44.44467318786163" lon="12.132674578031224"><ele>2.6666666666666665</ele><time>2026-05-03T16:39:09.003Z</time></trkpt><trkpt lat="44.444796715410405" lon="12.132490925642742"><ele>2.333333333333333</ele><time>2026-05-03T16:39:10.003Z</time></trkpt><trkpt lat="44.44491057389845" lon="12.132274719392612"><ele>2.0</ele><time>2026-05-03T16:39:11.003Z</time></trkpt><trkpt lat="44.445001917978715" lon="12.132045957841644"><ele>1.3333333333333333</ele><time>2026-05-03T16:39:12.003Z</time></trkpt><trkpt lat="44.44508903870921" lon="12.13181263365456"><ele>0.6666666666666666</ele><time>2026-05-03T16:39:13.003Z</time></trkpt><trkpt lat="44.445180796022335" lon="12.131575167985588"><ele>0.0</ele><time>2026-05-03T16:39:14.003Z</time></trkpt><trkpt lat="44.44527832759559" lon="12.131334069354223"><ele>0.0</ele><time>2026-05-03T16:39:15.003Z</time></trkpt><trkpt lat="44.445376293784086" lon="12.131091142711027"><ele>0.0</ele><time>2026-05-03T16:39:16.003Z</time></trkpt><trkpt lat="44.44547271430541" lon="12.13084655640739"><ele>0.0</ele><time>2026-05-03T16:39:17.003Z</time></trkpt><trkpt lat="44.445569464388825" lon="12.130603026817699"><ele>0.0</ele><time>2026-05-03T16:39:18.003Z</time></trkpt><trkpt lat="44.44566885608019" lon="12.130353038278205"><ele>0.0</ele><time>2026-05-03T16:39:19.002Z</time></trkpt><trkpt lat="44.44577013534545" lon="12.130102727877278"><ele>0.0</ele><time>2026-05-03T16:39:20.001Z</time></trkpt><trkpt lat="44.44587143339919" lon="12.129851469642876"><ele>-0.3333333333333333</ele><time>2026-05-03T16:39:21.001Z</time></trkpt><trkpt lat="44.44597316478531" lon="12.129598906133534"><ele>-0.6666666666666666</ele><time>2026-05-03T16:39:22.001Z</time></trkpt><trkpt lat="44.44607249000861" lon="12.12934813049103"><ele>-1.0</ele><time>2026-05-03T16:39:23.001Z</time></trkpt><trkpt lat="44.44616976215338" lon="12.1290928619503"><ele>-1.0</ele><time>2026-05-03T16:39:24.001Z</time></trkpt><trkpt lat="44.44627025699943" lon="12.128843752139028"><ele>-1.0</ele><time>2026-05-03T16:39:25.001Z</time></trkpt><trkpt lat="44.446372546262516" lon="12.128592098040913"><ele>-1.0</ele><time>2026-05-03T16:39:26.001Z</time></trkpt><trkpt lat="44.44647163941718" lon="12.128347431019094"><ele>-1.0</ele><time>2026-05-03T16:39:27.001Z</time></trkpt><trkpt lat="44.446566133424035" lon="12.128107030390007"><ele>-1.0</ele><time>2026-05-03T16:39:28.001Z</time></trkpt><trkpt lat="44.44666076532742" lon="12.127869704501194"><ele>-1.0</ele><time>2026-05-03T16:39:29.001Z</time></trkpt><trkpt lat="44.44675605744953" lon="12.127633339334885"><ele>-1.0</ele><time>2026-05-03T16:39:30.001Z</time></trkpt><trkpt lat="44.44684874651529" lon="12.127403929658563"><ele>-1.0</ele><time>2026-05-03T16:39:31.001Z</time></trkpt><trkpt lat="44.4469354955316" lon="12.127185165201439"><ele>-1.0</ele><time>2026-05-03T16:39:32Z</time></trkpt><trkpt lat="44.44701832229809" lon="12.126976563123744"><ele>-1.0</ele><time>2026-05-03T16:39:33Z</time></trkpt><trkpt lat="44.447096376635486" lon="12.126779316567417"><ele>-1.0</ele><time>2026-05-03T16:39:34Z</time></trkpt><trkpt lat="44.4471692805291" lon="12.12659936469214"><ele>-1.0</ele><time>2026-05-03T16:39:35Z</time></trkpt><trkpt lat="44.44723564473729" lon="12.126429968469813"><ele>-1.0</ele><time>2026-05-03T16:39:36Z</time></trkpt><trkpt lat="44.44730302202664" lon="12.126258643310026"><ele>-0.3333333333333333</ele><time>2026-05-03T16:39:37Z</time></trkpt><trkpt lat="44.447373863408856" lon="12.126069880516729"><ele>0.3333333333333333</ele><time>2026-05-03T16:39:38Z</time></trkpt><trkpt lat="44.447448377234316" lon="12.125868395179754"><ele>1.0</ele><time>2026-05-03T16:39:39Z</time></trkpt><trkpt lat="44.44753030424812" lon="12.125651733270798"><ele>1.3333333333333333</ele><time>2026-05-03T16:39:40Z</time></trkpt><trkpt lat="44.4476183717433" lon="12.125418815920504"><ele>1.6666666666666665</ele><time>2026-05-03T16:39:41Z</time></trkpt><trkpt lat="44.44771551957708" lon="12.125165483546748"><ele>2.0</ele><time>2026-05-03T16:39:42Z</time></trkpt><trkpt lat="44.44781806422966" lon="12.124904250468855"><ele>1.5</ele><time>2026-05-03T16:39:43Z</time></trkpt><trkpt lat="44.44792674502082" lon="12.124620785586343"><ele>1.0</ele><time>2026-05-03T16:39:44Z</time></trkpt><trkpt lat="44.44804944364567" lon="12.124301710119767"><ele>1.0</ele><time>2026-05-03T16:39:45Z</time></trkpt><trkpt lat="44.44817846987146" lon="12.123983799940223"><ele>1.0</ele><time>2026-05-03T16:39:46Z</time></trkpt><trkpt lat="44.448297192383784" lon="12.123701773217967"><ele>1.0</ele><time>2026-05-03T16:39:47Z</time></trkpt><trkpt lat="44.44840715644544" lon="12.123441317011071"><ele>1.0</ele><time>2026-05-03T16:39:48Z</time></trkpt><trkpt lat="44.448509530510705" lon="12.123200861240012"><ele>1.0</ele><time>2026-05-03T16:39:49Z</time></trkpt><trkpt lat="44.448607987800976" lon="12.122964670207963"><ele>1.0</ele><time>2026-05-03T16:39:50Z</time></trkpt><trkpt lat="44.448705685557876" lon="12.12273058954271"><ele>1.0</ele><time>2026-05-03T16:39:51Z</time></trkpt><trkpt lat="44.448803248163486" lon="12.12248388915018"><ele>1.0</ele><time>2026-05-03T16:39:52Z</time></trkpt><trkpt lat="44.4489001353451" lon="12.12223429635181"><ele>1.0</ele><time>2026-05-03T16:39:53Z</time></trkpt><trkpt lat="44.449002392797134" lon="12.121973885154386"><ele>1.0</ele><time>2026-05-03T16:39:54Z</time></trkpt><trkpt lat="44.44910070275676" lon="12.121732693084546"><ele>1.0</ele><time>2026-05-03T16:39:55Z</time></trkpt><trkpt lat="44.449184826712596" lon="12.121516539888892"><ele>1.25</ele><time>2026-05-03T16:39:56Z</time></trkpt><trkpt lat="44.44925786324383" lon="12.121327082643774"><ele>1.5</ele><time>2026-05-03T16:39:57Z</time></trkpt><trkpt lat="44.44932604079508" lon="12.1211512493524"><ele>1.75</ele><time>2026-05-03T16:39:58Z</time></trkpt><trkpt lat="44.44939548312773" lon="12.120974739406178"><ele>2.0</ele><time>2026-05-03T16:39:59Z</time></trkpt><trkpt lat="44.44946546092284" lon="12.120799643382837"><ele>1.75</ele><time>2026-05-03T16:40:00Z</time></trkpt><trkpt lat="44.44953370850848" lon="12.12062970422276"><ele>1.5</ele><time>2026-05-03T16:40:01Z</time></trkpt><trkpt lat="44.4496000643696" lon="12.120468713868155"><ele>1.25</ele><time>2026-05-03T16:40:02Z</time></trkpt><trkpt lat="44.449657120494" lon="12.12031912398778"><ele>1.0</ele><time>2026-05-03T16:40:03Z</time></trkpt><trkpt lat="44.44971105921895" lon="12.12018177731729"><ele>1.0</ele><time>2026-05-03T16:40:04.001Z</time></trkpt><trkpt lat="44.449765177374196" lon="12.120043200889222"><ele>1.0</ele><time>2026-05-03T16:40:05.001Z</time></trkpt><trkpt lat="44.44982345573305" lon="12.119891342709654"><ele>1.0</ele><time>2026-05-03T16:40:06.001Z</time></trkpt><trkpt lat="44.44988265323735" lon="12.119740976868423"><ele>1.0</ele><time>2026-05-03T16:40:07.001Z</time></trkpt><trkpt lat="44.449938490313606" lon="12.119610560264686"><ele>0.75</ele><time>2026-05-03T16:40:08.001Z</time></trkpt><trkpt lat="44.449991148577034" lon="12.119477401056372"><ele>0.5</ele><time>2026-05-03T16:40:09.001Z</time></trkpt><trkpt lat="44.450051854720925" lon="12.119322928871778"><ele>0.25</ele><time>2026-05-03T16:40:10.001Z</time></trkpt><trkpt lat="44.45012063819476" lon="12.11914415475165"><ele>0.0</ele><time>2026-05-03T16:40:11.001Z</time></trkpt><trkpt lat="44.45020311789284" lon="12.118930061127756"><ele>0.0</ele><time>2026-05-03T16:40:12.001Z</time></trkpt><trkpt lat="44.450299498836564" lon="12.118688141722666"><ele>0.0</ele><time>2026-05-03T16:40:13.001Z</time></trkpt><trkpt lat="44.45038981199295" lon="12.118462376047775"><ele>0.0</ele><time>2026-05-03T16:40:14.001Z</time></trkpt><trkpt lat="44.450471920100114" lon="12.118247753861061"><ele>-0.3333333333333333</ele><time>2026-05-03T16:40:15.001Z</time></trkpt><trkpt lat="44.45056117906489" lon="12.118009738814335"><ele>-0.6666666666666666</ele><time>2026-05-03T16:40:16.001Z</time></trkpt><trkpt lat="44.450660609843254" lon="12.11774520369183"><ele>-1.0</ele><time>2026-05-03T16:40:17.001Z</time></trkpt><trkpt lat="44.4507834191613" lon="12.117479550183164"><ele>-0.6666666666666666</ele><time>2026-05-03T16:40:18.001Z</time></trkpt><trkpt lat="44.450898516001125" lon="12.11719093393133"><ele>-0.3333333333333333</ele><time>2026-05-03T16:40:19.001Z</time></trkpt><trkpt lat="44.45099874029874" lon="12.116938523178696"><ele>0.0</ele><time>2026-05-03T16:40:20.001Z</time></trkpt><trkpt lat="44.451084304527996" lon="12.116686731370521"><ele>0.0</ele><time>2026-05-03T16:40:21.001Z</time></trkpt><trkpt lat="44.45118245303262" lon="12.116463137761688"><ele>0.0</ele><time>2026-05-03T16:40:22.001Z</time></trkpt><trkpt lat="44.45127449852871" lon="12.11624737181444"><ele>0.0</ele><time>2026-05-03T16:40:23.001Z</time></trkpt><trkpt lat="44.451363290892445" lon="12.116029056047273"><ele>-0.3333333333333333</ele><time>2026-05-03T16:40:24.001Z</time></trkpt><trkpt lat="44.45144492417919" lon="12.115821445674262"><ele>-0.6666666666666666</ele><time>2026-05-03T16:40:25.001Z</time></trkpt><trkpt lat="44.45152485281269" lon="12.1156202621789"><ele>-1.0</ele><time>2026-05-03T16:40:26.001Z</time></trkpt><trkpt lat="44.45160491506627" lon="12.115414826247518"><ele>-1.0</ele><time>2026-05-03T16:40:27.001Z</time></trkpt><trkpt lat="44.45168547027542" lon="12.1152131651296"><ele>-1.0</ele><time>2026-05-03T16:40:28.001Z</time></trkpt><trkpt lat="44.451764757160355" lon="12.11501168608796"><ele>-1.0</ele><time>2026-05-03T16:40:29.001Z</time></trkpt><trkpt lat="44.45184439137534" lon="12.114808979399097"><ele>-0.6666666666666666</ele><time>2026-05-03T16:40:30.001Z</time></trkpt><trkpt lat="44.451926547771016" lon="12.114595221941789"><ele>-0.3333333333333333</ele><time>2026-05-03T16:40:31.001Z</time></trkpt><trkpt lat="44.45201156678548" lon="12.114364272369496"><ele>0.0</ele><time>2026-05-03T16:40:32.001Z</time></trkpt><trkpt lat="44.45209594141479" lon="12.114140754351673"><ele>-0.3333333333333333</ele><time>2026-05-03T16:40:33.001Z</time></trkpt><trkpt lat="44.452186542921474" lon="12.113916743005623"><ele>-0.6666666666666666</ele><time>2026-05-03T16:40:34.001Z</time></trkpt><trkpt lat="44.45227144895268" lon="12.11370647531528"><ele>-1.0</ele><time>2026-05-03T16:40:35.001Z</time></trkpt><trkpt lat="44.45235346024577" lon="12.113513156802675"><ele>-1.0</ele><time>2026-05-03T16:40:36.001Z</time></trkpt><trkpt lat="44.452427081982115" lon="12.113342072057925"><ele>-1.0</ele><time>2026-05-03T16:40:37.001Z</time></trkpt><trkpt lat="44.45248719757798" lon="12.113196027725808"><ele>-1.0</ele><time>2026-05-03T16:40:38.001Z</time></trkpt><trkpt lat="44.452534264537945" lon="12.11306973985244"><ele>-1.0</ele><time>2026-05-03T16:40:39.001Z</time></trkpt><trkpt lat="44.45256974357376" lon="12.112952265150664"><ele>-1.0</ele><time>2026-05-03T16:40:40.001Z</time></trkpt><trkpt lat="44.452626303219475" lon="12.112851374066283"><ele>-1.0</ele><time>2026-05-03T16:40:41.001Z</time></trkpt><trkpt lat="44.4526674482485" lon="12.112704676115923"><ele>-1.0</ele><time>2026-05-03T16:40:42.001Z</time></trkpt><trkpt lat="44.452728192756716" lon="12.112546965856877"><ele>-1.0</ele><time>2026-05-03T16:40:43.001Z</time></trkpt><trkpt lat="44.45279855681626" lon="12.11238074871782"><ele>-1.0</ele><time>2026-05-03T16:40:44.001Z</time></trkpt><trkpt lat="44.45286478794106" lon="12.112218965039071"><ele>-1.0</ele><time>2026-05-03T16:40:45.001Z</time></trkpt><trkpt lat="44.45292833652953" lon="12.11206245926773"><ele>-1.0</ele><time>2026-05-03T16:40:46.001Z</time></trkpt><trkpt lat="44.45298455719503" lon="12.111921676507574"><ele>-1.0</ele><time>2026-05-03T16:40:47.001Z</time></trkpt><trkpt lat="44.45303805475099" lon="12.111784095011943"><ele>-1.0</ele><time>2026-05-03T16:40:48.001Z</time></trkpt><trkpt lat="44.45309024439305" lon="12.111657824139293"><ele>-1.0</ele><time>2026-05-03T16:40:49.001Z</time></trkpt><trkpt lat="44.45313388048032" lon="12.111544437145147"><ele>-1.0</ele><time>2026-05-03T16:40:50.001Z</time></trkpt><trkpt lat="44.45318331359415" lon="12.111418538821392"><ele>-1.0</ele><time>2026-05-03T16:40:51.001Z</time></trkpt><trkpt lat="44.45323708793939" lon="12.111284002532761"><ele>-1.0</ele><time>2026-05-03T16:40:52.001Z</time></trkpt><trkpt lat="44.453285189368316" lon="12.11116416866123"><ele>-0.6666666666666666</ele><time>2026-05-03T16:40:53.001Z</time></trkpt><trkpt lat="44.45333433913735" lon="12.1110532484012"><ele>-0.3333333333333333</ele><time>2026-05-03T16:40:54.001Z</time></trkpt><trkpt lat="44.453380006096474" lon="12.110940974517451"><ele>0.0</ele><time>2026-05-03T16:40:55.001Z</time></trkpt><trkpt lat="44.45342463206152" lon="12.110833067134749"><ele>0.3333333333333333</ele><time>2026-05-03T16:40:56.001Z</time></trkpt><trkpt lat="44.453469812713465" lon="12.110717648317005"><ele>0.6666666666666666</ele><time>2026-05-03T16:40:57.001Z</time></trkpt><trkpt lat="44.453508561611116" lon="12.110623427103107"><ele>1.0</ele><time>2026-05-03T16:40:58.001Z</time></trkpt><trkpt lat="44.453560345940524" lon="12.110506983487515"><ele>1.4</ele><time>2026-05-03T16:41:00.001Z</time></trkpt><trkpt lat="44.453596572546196" lon="12.11041786937703"><ele>1.8</ele><time>2026-05-03T16:41:02.001Z</time></trkpt><trkpt lat="44.45362729498697" lon="12.110333479630581"><ele>2.1999999999999997</ele><time>2026-05-03T16:41:04.002Z</time></trkpt><trkpt lat="44.453497935710715" lon="12.110217373712597"><ele>2.6</ele><time>2026-05-03T16:41:06.002Z</time></trkpt><trkpt lat="44.45339168434802" lon="12.110177923889083"><ele>3.0</ele><time>2026-05-03T16:41:07.002Z</time></trkpt><trkpt lat="44.45327646843674" lon="12.110128594815937"><ele>3.0</ele><time>2026-05-03T16:41:08.002Z</time></trkpt><trkpt lat="44.45315085729008" lon="12.11006421287613"><ele>3.0</ele><time>2026-05-03T16:41:09.002Z</time></trkpt><trkpt lat="44.45299476854873" lon="12.109989049962543"><ele>3.0</ele><time>2026-05-03T16:41:10.002Z</time></trkpt><trkpt lat="44.452784765080835" lon="12.109899343744024"><ele>1.5</ele><time>2026-05-03T16:41:11.002Z</time></trkpt><trkpt lat="44.452547927818486" lon="12.10978493152259"><ele>0.0</ele><time>2026-05-03T16:41:12.002Z</time></trkpt><trkpt lat="44.45230849554659" lon="12.109670452017586"><ele>0.0</ele><time>2026-05-03T16:41:13.002Z</time></trkpt><trkpt lat="44.45206415246537" lon="12.109550847530251"><ele>0.0</ele><time>2026-05-03T16:41:14.002Z</time></trkpt><trkpt lat="44.451822522918064" lon="12.10943389625298"><ele>0.0</ele><time>2026-05-03T16:41:15.002Z</time></trkpt><trkpt lat="44.451606735561384" lon="12.10932629613223"><ele>0.0</ele><time>2026-05-03T16:41:16.002Z</time></trkpt><trkpt lat="44.45140450446299" lon="12.109218476087625"><ele>0.0</ele><time>2026-05-03T16:41:17.002Z</time></trkpt><trkpt lat="44.45119557014231" lon="12.109120790946251"><ele>-0.3333333333333333</ele><time>2026-05-03T16:41:18.002Z</time></trkpt><trkpt lat="44.45098263288514" lon="12.109017283822478"><ele>-0.6666666666666666</ele><time>2026-05-03T16:41:19.002Z</time></trkpt><trkpt lat="44.450775033357836" lon="12.108910453389502"><ele>-1.0</ele><time>2026-05-03T16:41:20.002Z</time></trkpt><trkpt lat="44.450565576484564" lon="12.108806430850933"><ele>-0.5</ele><time>2026-05-03T16:41:21.002Z</time></trkpt><trkpt lat="44.45035071164976" lon="12.108698384567125"><ele>0.0</ele><time>2026-05-03T16:41:22.002Z</time></trkpt><trkpt lat="44.45013449680139" lon="12.108592003261881"><ele>0.0</ele><time>2026-05-03T16:41:23.002Z</time></trkpt><trkpt lat="44.449924792972176" lon="12.108488369904185"><ele>0.0</ele><time>2026-05-03T16:41:24.002Z</time></trkpt><trkpt lat="44.44971759335166" lon="12.108388528249174"><ele>0.0</ele><time>2026-05-03T16:41:24.997Z</time></trkpt><trkpt lat="44.4495091665111" lon="12.108286721161175"><ele>0.0</ele><time>2026-05-03T16:41:25.997Z</time></trkpt><trkpt lat="44.449302841887516" lon="12.10818707839777"><ele>0.0</ele><time>2026-05-03T16:41:26.997Z</time></trkpt><trkpt lat="44.44909564182723" lon="12.108087508291375"><ele>0.0</ele><time>2026-05-03T16:41:27.997Z</time></trkpt><trkpt lat="44.44888636570531" lon="12.107988898406614"><ele>-0.3333333333333333</ele><time>2026-05-03T16:41:28.998Z</time></trkpt><trkpt lat="44.44867412676148" lon="12.107892213898843"><ele>-0.6666666666666666</ele><time>2026-05-03T16:41:29.998Z</time></trkpt><trkpt lat="44.44846709442969" lon="12.10780025851114"><ele>-1.0</ele><time>2026-05-03T16:41:30.998Z</time></trkpt><trkpt lat="44.44825794801368" lon="12.107709188465476"><ele>-1.0</ele><time>2026-05-03T16:41:31.998Z</time></trkpt><trkpt lat="44.44805159630847" lon="12.107616730474396"><ele>-1.0</ele><time>2026-05-03T16:41:32.998Z</time></trkpt><trkpt lat="44.44784788868107" lon="12.107525580750673"><ele>-1.0</ele><time>2026-05-03T16:41:33.998Z</time></trkpt><trkpt lat="44.44764225919811" lon="12.107433937665606"><ele>-0.6666666666666666</ele><time>2026-05-03T16:41:34.998Z</time></trkpt><trkpt lat="44.44743384422918" lon="12.107342128868694"><ele>-0.3333333333333333</ele><time>2026-05-03T16:41:35.998Z</time></trkpt><trkpt lat="44.44722552970186" lon="12.107249186167786"><ele>0.0</ele><time>2026-05-03T16:41:36.998Z</time></trkpt><trkpt lat="44.447019637835105" lon="12.107154250870291"><ele>0.3333333333333333</ele><time>2026-05-03T16:41:37.998Z</time></trkpt><trkpt lat="44.446815050427674" lon="12.107059602930985"><ele>0.6666666666666666</ele><time>2026-05-03T16:41:38.999Z</time></trkpt><trkpt lat="44.446611819121294" lon="12.10696468622325"><ele>1.0</ele><time>2026-05-03T16:41:39.999Z</time></trkpt><trkpt lat="44.44640904220256" lon="12.106872488765463"><ele>1.3333333333333333</ele><time>2026-05-03T16:41:40.999Z</time></trkpt><trkpt lat="44.44620563290203" lon="12.10678340110928"><ele>1.6666666666666665</ele><time>2026-05-03T16:41:41.999Z</time></trkpt><trkpt lat="44.445999340378954" lon="12.106693281693827"><ele>2.0</ele><time>2026-05-03T16:41:42.999Z</time></trkpt><trkpt lat="44.44579331642348" lon="12.106604639680224"><ele>2.0</ele><time>2026-05-03T16:41:43.999Z</time></trkpt><trkpt lat="44.445589814996026" lon="12.106507045789964"><ele>2.0</ele><time>2026-05-03T16:41:44.999Z</time></trkpt><trkpt lat="44.445382105448665" lon="12.10641622764909"><ele>2.0</ele><time>2026-05-03T16:41:45.999Z</time></trkpt><trkpt lat="44.4451704225064" lon="12.106323327911806"><ele>2.0</ele><time>2026-05-03T16:41:46.999Z</time></trkpt><trkpt lat="44.44495927813568" lon="12.10622832174983"><ele>2.0</ele><time>2026-05-03T16:41:47.999Z</time></trkpt><trkpt lat="44.44474607904825" lon="12.106130359313783"><ele>2.0</ele><time>2026-05-03T16:41:48.999Z</time></trkpt><trkpt lat="44.44453279994379" lon="12.106033715253943"><ele>2.333333333333333</ele><time>2026-05-03T16:41:50Z</time></trkpt><trkpt lat="44.444321462248816" lon="12.105935443910562"><ele>2.6666666666666665</ele><time>2026-05-03T16:41:51Z</time></trkpt><trkpt lat="44.44411839001608" lon="12.105835762624743"><ele>3.0</ele><time>2026-05-03T16:41:52Z</time></trkpt><trkpt lat="44.443919318507156" lon="12.105727185007504"><ele>3.666666666666667</ele><time>2026-05-03T16:41:53Z</time></trkpt><trkpt lat="44.44372653364286" lon="12.105612090230393"><ele>4.333333333333334</ele><time>2026-05-03T16:41:54Z</time></trkpt><trkpt lat="44.44353427140363" lon="12.105491190360768"><ele>5.0</ele><time>2026-05-03T16:41:55Z</time></trkpt><trkpt lat="44.44334456555139" lon="12.10537125248337"><ele>5.0</ele><time>2026-05-03T16:41:56Z</time></trkpt><trkpt lat="44.443153038681395" lon="12.105259827986455"><ele>5.0</ele><time>2026-05-03T16:41:57Z</time></trkpt><trkpt lat="44.44296588749379" lon="12.105145211395365"><ele>5.0</ele><time>2026-05-03T16:41:58Z</time></trkpt><trkpt lat="44.44277246222441" lon="12.105041773443823"><ele>4.333333333333334</ele><time>2026-05-03T16:41:59Z</time></trkpt><trkpt lat="44.44257514476916" lon="12.104939796478094"><ele>3.666666666666667</ele><time>2026-05-03T16:42:00Z</time></trkpt><trkpt lat="44.44237280702961" lon="12.104836853425228"><ele>3.0</ele><time>2026-05-03T16:42:01Z</time></trkpt><trkpt lat="44.44217586605429" lon="12.104735682829988"><ele>2.3333333333333335</ele><time>2026-05-03T16:42:02Z</time></trkpt><trkpt lat="44.44196865349915" lon="12.104636087223394"><ele>1.6666666666666665</ele><time>2026-05-03T16:42:03Z</time></trkpt><trkpt lat="44.44176024713264" lon="12.104531990923126"><ele>1.0</ele><time>2026-05-03T16:42:04Z</time></trkpt><trkpt lat="44.44155285323984" lon="12.104427591007616"><ele>1.0</ele><time>2026-05-03T16:42:05Z</time></trkpt><trkpt lat="44.44134419106939" lon="12.10432282136716"><ele>1.0</ele><time>2026-05-03T16:42:06Z</time></trkpt><trkpt lat="44.441137152846586" lon="12.104218337348062"><ele>1.0</ele><time>2026-05-03T16:42:07Z</time></trkpt><trkpt lat="44.440927769619954" lon="12.104112868636415"><ele>1.0</ele><time>2026-05-03T16:42:08Z</time></trkpt><trkpt lat="44.440718983233644" lon="12.104014043834953"><ele>1.0</ele><time>2026-05-03T16:42:09Z</time></trkpt><trkpt lat="44.440514226372855" lon="12.10391247975879"><ele>1.0</ele><time>2026-05-03T16:42:10.001Z</time></trkpt><trkpt lat="44.44030770212515" lon="12.103811272572408"><ele>0.6666666666666666</ele><time>2026-05-03T16:42:11.001Z</time></trkpt><trkpt lat="44.440100077476" lon="12.103708939722733"><ele>0.3333333333333333</ele><time>2026-05-03T16:42:12.001Z</time></trkpt><trkpt lat="44.43989313850625" lon="12.103605333065856"><ele>0.0</ele><time>2026-05-03T16:42:13.001Z</time></trkpt><trkpt lat="44.43968835531511" lon="12.103503384319044"><ele>0.6666666666666666</ele><time>2026-05-03T16:42:14.001Z</time></trkpt><trkpt lat="44.439481855020645" lon="12.103402266708846"><ele>1.3333333333333333</ele><time>2026-05-03T16:42:15.001Z</time></trkpt><trkpt lat="44.43927686953712" lon="12.103300032805858"><ele>2.0</ele><time>2026-05-03T16:42:16.001Z</time></trkpt><trkpt lat="44.43906790484959" lon="12.103196464774975"><ele>2.0</ele><time>2026-05-03T16:42:17.001Z</time></trkpt><trkpt lat="44.43886450269494" lon="12.103095570688575"><ele>2.0</ele><time>2026-05-03T16:42:18.001Z</time></trkpt><trkpt lat="44.438655251672465" lon="12.102998296841706"><ele>2.0</ele><time>2026-05-03T16:42:19.001Z</time></trkpt><trkpt lat="44.4384476018067" lon="12.102899206314849"><ele>2.0</ele><time>2026-05-03T16:42:20.001Z</time></trkpt><trkpt lat="44.438242448291064" lon="12.10280081000293"><ele>2.0</ele><time>2026-05-03T16:42:21.001Z</time></trkpt><trkpt lat="44.43804228318847" lon="12.102695408129557"><ele>2.0</ele><time>2026-05-03T16:42:22.001Z</time></trkpt><trkpt lat="44.43783342364991" lon="12.102603428632115"><ele>2.0</ele><time>2026-05-03T16:42:23.001Z</time></trkpt><trkpt lat="44.437620960355005" lon="12.102508269016145"><ele>2.0</ele><time>2026-05-03T16:42:24.001Z</time></trkpt><trkpt lat="44.43741153193065" lon="12.102416598258985"><ele>2.0</ele><time>2026-05-03T16:42:25.001Z</time></trkpt><trkpt lat="44.43720113850787" lon="12.102321037558319"><ele>1.6666666666666665</ele><time>2026-05-03T16:42:26.001Z</time></trkpt><trkpt lat="44.436985534127324" lon="12.102230690219457"><ele>1.3333333333333333</ele><time>2026-05-03T16:42:27.001Z</time></trkpt><trkpt lat="44.436782416317556" lon="12.102143829620351"><ele>1.0</ele><time>2026-05-03T16:42:28.001Z</time></trkpt><trkpt lat="44.43659411231641" lon="12.10206190458297"><ele>1.0</ele><time>2026-05-03T16:42:29.001Z</time></trkpt><trkpt lat="44.436416230016135" lon="12.101986724963114"><ele>1.0</ele><time>2026-05-03T16:42:30.001Z</time></trkpt><trkpt lat="44.436249619281675" lon="12.101911881521312"><ele>1.0</ele><time>2026-05-03T16:42:31.001Z</time></trkpt><trkpt lat="44.43609006582442" lon="12.101848278653305"><ele>1.6666666666666665</ele><time>2026-05-03T16:42:32.001Z</time></trkpt><trkpt lat="44.4359469602509" lon="12.101775937302952"><ele>2.3333333333333335</ele><time>2026-05-03T16:42:33.001Z</time></trkpt><trkpt lat="44.43580410177133" lon="12.101709926298073"><ele>3.0</ele><time>2026-05-03T16:42:34.001Z</time></trkpt><trkpt lat="44.43565434470854" lon="12.10163817287738"><ele>2.5</ele><time>2026-05-03T16:42:35.001Z</time></trkpt><trkpt lat="44.435509604896644" lon="12.101572272109742"><ele>2.0</ele><time>2026-05-03T16:42:36.001Z</time></trkpt><trkpt lat="44.435379269190264" lon="12.101514805712458"><ele>1.5</ele><time>2026-05-03T16:42:37.001Z</time></trkpt><trkpt lat="44.43524933570655" lon="12.101455919273064"><ele>1.0</ele><time>2026-05-03T16:42:38.002Z</time></trkpt><trkpt lat="44.43511831793463" lon="12.10139511395354"><ele>1.0</ele><time>2026-05-03T16:42:39.002Z</time></trkpt><trkpt lat="44.43500023712308" lon="12.101344309496971"><ele>1.0</ele><time>2026-05-03T16:42:40.002Z</time></trkpt><trkpt lat="44.43489881029851" lon="12.101302012556628"><ele>1.0</ele><time>2026-05-03T16:42:41.002Z</time></trkpt><trkpt lat="44.43480553418635" lon="12.101262103334541"><ele>1.0</ele><time>2026-05-03T16:42:42.002Z</time></trkpt><trkpt lat="44.43472542934631" lon="12.101229087426624"><ele>1.0</ele><time>2026-05-03T16:42:43.002Z</time></trkpt><trkpt lat="44.434656443477984" lon="12.101203152534996"><ele>1.0</ele><time>2026-05-03T16:42:44.002Z</time></trkpt><trkpt lat="44.434554582744376" lon="12.10115749597312"><ele>1.0</ele><time>2026-05-03T16:42:46.002Z</time></trkpt><trkpt lat="44.43456652497044" lon="12.101016139607815"><ele>1.0</ele><time>2026-05-03T16:42:48.002Z</time></trkpt><trkpt lat="44.43461460353721" lon="12.10091121127191"><ele>1.0</ele><time>2026-05-03T16:42:49.002Z</time></trkpt><trkpt lat="44.43466954297198" lon="12.100776684863689"><ele>1.0</ele><time>2026-05-03T16:42:50.002Z</time></trkpt><trkpt lat="44.43472354163365" lon="12.100635006697946"><ele>0.6666666666666666</ele><time>2026-05-03T16:42:51.002Z</time></trkpt><trkpt lat="44.434788316635135" lon="12.100464225372995"><ele>0.3333333333333333</ele><time>2026-05-03T16:42:52.002Z</time></trkpt><trkpt lat="44.43486277488045" lon="12.100267711861921"><ele>0.0</ele><time>2026-05-03T16:42:53.002Z</time></trkpt><trkpt lat="44.43493980742711" lon="12.100068674908256"><ele>0.3333333333333333</ele><time>2026-05-03T16:42:54.002Z</time></trkpt><trkpt lat="44.43501832930367" lon="12.099859870655312"><ele>0.6666666666666666</ele><time>2026-05-03T16:42:55.002Z</time></trkpt><trkpt lat="44.435094652648495" lon="12.09964934391055"><ele>1.0</ele><time>2026-05-03T16:42:56.002Z</time></trkpt><trkpt lat="44.435171286792254" lon="12.099425317994186"><ele>1.0</ele><time>2026-05-03T16:42:57.002Z</time></trkpt><trkpt lat="44.4352452808821" lon="12.099185552089773"><ele>1.0</ele><time>2026-05-03T16:42:58.002Z</time></trkpt><trkpt lat="44.43532418554058" lon="12.098934109575575"><ele>1.0</ele><time>2026-05-03T16:42:59.002Z</time></trkpt><trkpt lat="44.43540171689486" lon="12.098690690911198"><ele>1.0</ele><time>2026-05-03T16:43:00.002Z</time></trkpt><trkpt lat="44.43548069082069" lon="12.09844663115611"><ele>1.0</ele><time>2026-05-03T16:43:01.002Z</time></trkpt><trkpt lat="44.435559354894295" lon="12.098204636511504"><ele>1.0</ele><time>2026-05-03T16:43:02.002Z</time></trkpt><trkpt lat="44.43563937335035" lon="12.097956514503547"><ele>1.0</ele><time>2026-05-03T16:43:03.002Z</time></trkpt><trkpt lat="44.435719144991936" lon="12.097707295768439"><ele>1.0</ele><time>2026-05-03T16:43:04.002Z</time></trkpt><trkpt lat="44.43579964792787" lon="12.097456046516323"><ele>1.0</ele><time>2026-05-03T16:43:05.002Z</time></trkpt><trkpt lat="44.43588064471471" lon="12.097203993876672"><ele>1.0</ele><time>2026-05-03T16:43:06.002Z</time></trkpt><trkpt lat="44.4359661461857" lon="12.09694588795258"><ele>1.0</ele><time>2026-05-03T16:43:07.002Z</time></trkpt><trkpt lat="44.436051996797296" lon="12.096689155706429"><ele>1.0</ele><time>2026-05-03T16:43:08.002Z</time></trkpt><trkpt lat="44.43613637834908" lon="12.096433784164674"><ele>1.0</ele><time>2026-05-03T16:43:09.002Z</time></trkpt><trkpt lat="44.43622351889515" lon="12.096170189796462"><ele>1.0</ele><time>2026-05-03T16:43:10.002Z</time></trkpt><trkpt lat="44.4363155757581" lon="12.095911800305936"><ele>1.0</ele><time>2026-05-03T16:43:11.003Z</time></trkpt><trkpt lat="44.43641808115145" lon="12.095653674635656"><ele>1.0</ele><time>2026-05-03T16:43:12.003Z</time></trkpt><trkpt lat="44.436523720693486" lon="12.095403356445267"><ele>1.0</ele><time>2026-05-03T16:43:13.003Z</time></trkpt><trkpt lat="44.43663385811955" lon="12.09515490810213"><ele>1.0</ele><time>2026-05-03T16:43:14.003Z</time></trkpt><trkpt lat="44.43674455405462" lon="12.094903563374254"><ele>1.3333333333333333</ele><time>2026-05-03T16:43:15.003Z</time></trkpt><trkpt lat="44.436852116621104" lon="12.094657980613164"><ele>1.6666666666666665</ele><time>2026-05-03T16:43:16.003Z</time></trkpt><trkpt lat="44.43695618859484" lon="12.09441470100664"><ele>2.0</ele><time>2026-05-03T16:43:17.003Z</time></trkpt><trkpt lat="44.43706316686755" lon="12.094167892834088"><ele>1.0</ele><time>2026-05-03T16:43:18.003Z</time></trkpt><trkpt lat="44.437172426004835" lon="12.093918134163939"><ele>0.0</ele><time>2026-05-03T16:43:19.003Z</time></trkpt><trkpt lat="44.43728033728037" lon="12.093667720187264"><ele>-1.0</ele><time>2026-05-03T16:43:20.003Z</time></trkpt><trkpt lat="44.43739087501726" lon="12.093417547169944"><ele>-0.3333333333333333</ele><time>2026-05-03T16:43:21.003Z</time></trkpt><trkpt lat="44.43750783745182" lon="12.093176489944986"><ele>0.3333333333333333</ele><time>2026-05-03T16:43:22.003Z</time></trkpt><trkpt lat="44.43760439627704" lon="12.092910908293948"><ele>1.0</ele><time>2026-05-03T16:43:23.003Z</time></trkpt><trkpt lat="44.43771628690415" lon="12.09266136143079"><ele>1.0</ele><time>2026-05-03T16:43:24.003Z</time></trkpt><trkpt lat="44.437826815781904" lon="12.092411248804137"><ele>1.0</ele><time>2026-05-03T16:43:25.003Z</time></trkpt><trkpt lat="44.43793774296642" lon="12.09215705260947"><ele>1.0</ele><time>2026-05-03T16:43:26.003Z</time></trkpt><trkpt lat="44.438052014000206" lon="12.091898692363753"><ele>0.6666666666666666</ele><time>2026-05-03T16:43:27.003Z</time></trkpt><trkpt lat="44.43816319606587" lon="12.09163858213403"><ele>0.3333333333333333</ele><time>2026-05-03T16:43:28.003Z</time></trkpt><trkpt lat="44.43827663100092" lon="12.09138451191887"><ele>0.0</ele><time>2026-05-03T16:43:29.003Z</time></trkpt><trkpt lat="44.438393145162685" lon="12.091122303933073"><ele>-0.3333333333333333</ele><time>2026-05-03T16:43:30.003Z</time></trkpt><trkpt lat="44.43850801145881" lon="12.090856085300832"><ele>-0.6666666666666666</ele><time>2026-05-03T16:43:31.002Z</time></trkpt><trkpt lat="44.438621560958765" lon="12.090595963720181"><ele>-1.0</ele><time>2026-05-03T16:43:32.002Z</time></trkpt><trkpt lat="44.43873653043576" lon="12.090329738777061"><ele>-0.6666666666666666</ele><time>2026-05-03T16:43:33.002Z</time></trkpt><trkpt lat="44.43885442321864" lon="12.09006156600853"><ele>-0.3333333333333333</ele><time>2026-05-03T16:43:34.002Z</time></trkpt><trkpt lat="44.43896875999488" lon="12.089798906670161"><ele>0.0</ele><time>2026-05-03T16:43:35.002Z</time></trkpt><trkpt lat="44.439086444006804" lon="12.089531276934641"><ele>0.5</ele><time>2026-05-03T16:43:36.002Z</time></trkpt><trkpt lat="44.43920358978746" lon="12.089260904418484"><ele>1.0</ele><time>2026-05-03T16:43:37.002Z</time></trkpt><trkpt lat="44.43931849173161" lon="12.088991296604231"><ele>1.0</ele><time>2026-05-03T16:43:38.002Z</time></trkpt><trkpt lat="44.43943301471384" lon="12.08872040667868"><ele>1.0</ele><time>2026-05-03T16:43:39.002Z</time></trkpt><trkpt lat="44.43953967869583" lon="12.088446969086466"><ele>1.0</ele><time>2026-05-03T16:43:40.001Z</time></trkpt><trkpt lat="44.43964186750224" lon="12.088158524213137"><ele>1.0</ele><time>2026-05-03T16:43:41.001Z</time></trkpt><trkpt lat="44.43973910332072" lon="12.087867153169784"><ele>1.0</ele><time>2026-05-03T16:43:42.001Z</time></trkpt><trkpt lat="44.43983643484519" lon="12.087576394506026"><ele>1.3333333333333333</ele><time>2026-05-03T16:43:43.001Z</time></trkpt><trkpt lat="44.43993366293567" lon="12.08729104339668"><ele>1.6666666666666665</ele><time>2026-05-03T16:43:44.001Z</time></trkpt><trkpt lat="44.44003148288865" lon="12.087011233194179"><ele>2.0</ele><time>2026-05-03T16:43:45.001Z</time></trkpt><trkpt lat="44.44012670476252" lon="12.086729232264357"><ele>1.6666666666666665</ele><time>2026-05-03T16:43:46.001Z</time></trkpt><trkpt lat="44.44021876742827" lon="12.08644929229956"><ele>1.3333333333333333</ele><time>2026-05-03T16:43:47.001Z</time></trkpt><trkpt lat="44.44031463016932" lon="12.086169002448784"><ele>1.0</ele><time>2026-05-03T16:43:48.001Z</time></trkpt><trkpt lat="44.44040864975135" lon="12.085890656435385"><ele>0.6666666666666666</ele><time>2026-05-03T16:43:49.001Z</time></trkpt><trkpt lat="44.44050194608449" lon="12.08561357581812"><ele>0.3333333333333333</ele><time>2026-05-03T16:43:50.001Z</time></trkpt><trkpt lat="44.44059648247536" lon="12.08533678903363"><ele>0.0</ele><time>2026-05-03T16:43:51.001Z</time></trkpt><trkpt lat="44.440686529660674" lon="12.085065096548657"><ele>0.3333333333333333</ele><time>2026-05-03T16:43:52.001Z</time></trkpt><trkpt lat="44.440778357384204" lon="12.084788288657467"><ele>0.6666666666666666</ele><time>2026-05-03T16:43:53.001Z</time></trkpt><trkpt lat="44.44086703982579" lon="12.084516296661457"><ele>1.0</ele><time>2026-05-03T16:43:54.001Z</time></trkpt><trkpt lat="44.44095415107665" lon="12.084237890102377"><ele>1.0</ele><time>2026-05-03T16:43:55.001Z</time></trkpt><trkpt lat="44.44104663550503" lon="12.083962637912753"><ele>1.0</ele><time>2026-05-03T16:43:56.001Z</time></trkpt><trkpt lat="44.44113713289612" lon="12.083686328586808"><ele>1.0</ele><time>2026-05-03T16:43:57.001Z</time></trkpt><trkpt lat="44.44122637810631" lon="12.083417100394353"><ele>1.3333333333333333</ele><time>2026-05-03T16:43:58.001Z</time></trkpt><trkpt lat="44.441320188082564" lon="12.083142328139946"><ele>1.6666666666666665</ele><time>2026-05-03T16:43:59.001Z</time></trkpt><trkpt lat="44.44141478640325" lon="12.08286785742643"><ele>2.0</ele><time>2026-05-03T16:44:00.001Z</time></trkpt><trkpt lat="44.44150869043553" lon="12.082599437352892"><ele>1.6666666666666665</ele><time>2026-05-03T16:44:01.001Z</time></trkpt><trkpt lat="44.441604400138054" lon="12.082328112472984"><ele>1.3333333333333333</ele><time>2026-05-03T16:44:02.001Z</time></trkpt><trkpt lat="44.441694943127075" lon="12.082058556667194"><ele>1.0</ele><time>2026-05-03T16:44:03.001Z</time></trkpt><trkpt lat="44.4417864466214" lon="12.08179080009589"><ele>0.3333333333333333</ele><time>2026-05-03T16:44:04.001Z</time></trkpt><trkpt lat="44.441878891516964" lon="12.081517829531172"><ele>-0.3333333333333333</ele><time>2026-05-03T16:44:05.001Z</time></trkpt><trkpt lat="44.44197432739451" lon="12.0812498582672"><ele>-1.0</ele><time>2026-05-03T16:44:06.001Z</time></trkpt><trkpt lat="44.44207341066206" lon="12.080981691367853"><ele>0.0</ele><time>2026-05-03T16:44:07.001Z</time></trkpt><trkpt lat="44.44217221786808" lon="12.080717489210423"><ele>1.0</ele><time>2026-05-03T16:44:08.001Z</time></trkpt><trkpt lat="44.442271272704346" lon="12.08044903901421"><ele>2.0</ele><time>2026-05-03T16:44:09.001Z</time></trkpt><trkpt lat="44.442364614588875" lon="12.08018071958237"><ele>2.0</ele><time>2026-05-03T16:44:10.001Z</time></trkpt><trkpt lat="44.44246030632624" lon="12.079905652814816"><ele>2.0</ele><time>2026-05-03T16:44:11.001Z</time></trkpt><trkpt lat="44.442550700518126" lon="12.079628942110007"><ele>2.0</ele><time>2026-05-03T16:44:12.001Z</time></trkpt><trkpt lat="44.442642517376754" lon="12.079350548766346"><ele>1.6666666666666665</ele><time>2026-05-03T16:44:13.001Z</time></trkpt><trkpt lat="44.44274120900036" lon="12.079079097838326"><ele>1.3333333333333333</ele><time>2026-05-03T16:44:14.001Z</time></trkpt><trkpt lat="44.442841773341215" lon="12.078805406446747"><ele>1.0</ele><time>2026-05-03T16:44:15.001Z</time></trkpt><trkpt lat="44.4429437408931" lon="12.078529055178569"><ele>1.6666666666666665</ele><time>2026-05-03T16:44:16.001Z</time></trkpt><trkpt lat="44.443043656634934" lon="12.078254169713846"><ele>2.3333333333333335</ele><time>2026-05-03T16:44:17.001Z</time></trkpt><trkpt lat="44.443141487771165" lon="12.077986332640844"><ele>3.0</ele><time>2026-05-03T16:44:18.001Z</time></trkpt><trkpt lat="44.443237064346015" lon="12.07772282690133"><ele>3.0</ele><time>2026-05-03T16:44:19.001Z</time></trkpt><trkpt lat="44.443317997699666" lon="12.077478292134549"><ele>3.0</ele><time>2026-05-03T16:44:20.001Z</time></trkpt><trkpt lat="44.44339811559488" lon="12.07723880128752"><ele>3.0</ele><time>2026-05-03T16:44:21.001Z</time></trkpt><trkpt lat="44.443479762256096" lon="12.077000714261779"><ele>3.0</ele><time>2026-05-03T16:44:22.002Z</time></trkpt><trkpt lat="44.44355696902735" lon="12.0767740836312"><ele>3.0</ele><time>2026-05-03T16:44:23.002Z</time></trkpt><trkpt lat="44.443633436104406" lon="12.076541557617555"><ele>3.0</ele><time>2026-05-03T16:44:24.002Z</time></trkpt><trkpt lat="44.443716097975056" lon="12.076308193061593"><ele>2.6666666666666665</ele><time>2026-05-03T16:44:25.002Z</time></trkpt><trkpt lat="44.443795902760925" lon="12.076081185545398"><ele>2.333333333333333</ele><time>2026-05-03T16:44:26.002Z</time></trkpt><trkpt lat="44.443876524515225" lon="12.075856512241765"><ele>2.0</ele><time>2026-05-03T16:44:27.002Z</time></trkpt><trkpt lat="44.4439583417179" lon="12.075613386829914"><ele>2.0</ele><time>2026-05-03T16:44:28.002Z</time></trkpt><trkpt lat="44.44403095923845" lon="12.075366553697954"><ele>2.0</ele><time>2026-05-03T16:44:29.002Z</time></trkpt><trkpt lat="44.44410387223563" lon="12.07511679945326"><ele>2.0</ele><time>2026-05-03T16:44:30.002Z</time></trkpt><trkpt lat="44.44417483433835" lon="12.074866080884197"><ele>2.0</ele><time>2026-05-03T16:44:31.002Z</time></trkpt><trkpt lat="44.44424558937619" lon="12.074621717238408"><ele>2.0</ele><time>2026-05-03T16:44:32.002Z</time></trkpt><trkpt lat="44.444320242304116" lon="12.07437329464724"><ele>2.0</ele><time>2026-05-03T16:44:33.002Z</time></trkpt><trkpt lat="44.4443963505943" lon="12.07412411802511"><ele>2.333333333333333</ele><time>2026-05-03T16:44:34.002Z</time></trkpt><trkpt lat="44.444470502314836" lon="12.07387621699247"><ele>2.6666666666666665</ele><time>2026-05-03T16:44:35.002Z</time></trkpt><trkpt lat="44.44454288899215" lon="12.073637819179316"><ele>3.0</ele><time>2026-05-03T16:44:36.002Z</time></trkpt><trkpt lat="44.444619891209115" lon="12.073399602628454"><ele>3.333333333333333</ele><time>2026-05-03T16:44:37.002Z</time></trkpt><trkpt lat="44.4446902144983" lon="12.073147040073254"><ele>3.6666666666666665</ele><time>2026-05-03T16:44:38.002Z</time></trkpt><trkpt lat="44.444763870205286" lon="12.072898716421792"><ele>4.0</ele><time>2026-05-03T16:44:39.002Z</time></trkpt><trkpt lat="44.44484193327879" lon="12.07265801948238"><ele>3.6666666666666665</ele><time>2026-05-03T16:44:40.002Z</time></trkpt><trkpt lat="44.44493025451932" lon="12.072418039313641"><ele>3.333333333333333</ele><time>2026-05-03T16:44:41.002Z</time></trkpt><trkpt lat="44.44502327506456" lon="12.072188429286884"><ele>3.0</ele><time>2026-05-03T16:44:42.002Z</time></trkpt><trkpt lat="44.44511996956121" lon="12.07198464718201"><ele>3.0</ele><time>2026-05-03T16:44:43.002Z</time></trkpt><trkpt lat="44.44521453810154" lon="12.071756425312762"><ele>3.0</ele><time>2026-05-03T16:44:44.002Z</time></trkpt><trkpt lat="44.44530283663375" lon="12.071524360227302"><ele>3.0</ele><time>2026-05-03T16:44:45.002Z</time></trkpt><trkpt lat="44.44537023512781" lon="12.071281893910959"><ele>3.0</ele><time>2026-05-03T16:44:46.002Z</time></trkpt><trkpt lat="44.44542523897668" lon="12.071040863079599"><ele>3.0</ele><time>2026-05-03T16:44:47.002Z</time></trkpt><trkpt lat="44.445476124557885" lon="12.070804913975216"><ele>3.0</ele><time>2026-05-03T16:44:48.002Z</time></trkpt><trkpt lat="44.44553366764145" lon="12.070582489297857"><ele>3.666666666666667</ele><time>2026-05-03T16:44:49.002Z</time></trkpt><trkpt lat="44.44558994097981" lon="12.070356884312691"><ele>4.333333333333334</ele><time>2026-05-03T16:44:50.002Z</time></trkpt><trkpt lat="44.44565744714855" lon="12.070126432959515"><ele>5.0</ele><time>2026-05-03T16:44:51.002Z</time></trkpt><trkpt lat="44.44572456434472" lon="12.069897352459213"><ele>5.0</ele><time>2026-05-03T16:44:52.002Z</time></trkpt><trkpt lat="44.44577126486516" lon="12.069674896821702"><ele>5.0</ele><time>2026-05-03T16:44:53.002Z</time></trkpt><trkpt lat="44.44579648906308" lon="12.069463336282627"><ele>5.0</ele><time>2026-05-03T16:44:54.002Z</time></trkpt><trkpt lat="44.44581093544413" lon="12.069260474136982"><ele>5.0</ele><time>2026-05-03T16:44:55.002Z</time></trkpt><trkpt lat="44.44581522488214" lon="12.069076389133766"><ele>5.0</ele><time>2026-05-03T16:44:56.002Z</time></trkpt><trkpt lat="44.44582288875712" lon="12.068891531820311"><ele>5.0</ele><time>2026-05-03T16:44:57.002Z</time></trkpt><trkpt lat="44.44585787187482" lon="12.068705454597593"><ele>5.0</ele><time>2026-05-03T16:44:58.002Z</time></trkpt><trkpt lat="44.44592770907219" lon="12.068526996738205"><ele>5.0</ele><time>2026-05-03T16:44:59.002Z</time></trkpt><trkpt lat="44.44601587163083" lon="12.06835831813914"><ele>5.0</ele><time>2026-05-03T16:45:00.002Z</time></trkpt><trkpt lat="44.44611518208568" lon="12.068184567803709"><ele>5.0</ele><time>2026-05-03T16:45:01.002Z</time></trkpt><trkpt lat="44.44622912240739" lon="12.06802767708956"><ele>4.333333333333334</ele><time>2026-05-03T16:45:02.002Z</time></trkpt><trkpt lat="44.44634347155022" lon="12.067870486573664"><ele>3.666666666666667</ele><time>2026-05-03T16:45:03.002Z</time></trkpt><trkpt lat="44.446452290934054" lon="12.067701137438544"><ele>3.0</ele><time>2026-05-03T16:45:04.002Z</time></trkpt><trkpt lat="44.446545711283925" lon="12.067527138462344"><ele>3.25</ele><time>2026-05-03T16:45:05.003Z</time></trkpt><trkpt lat="44.446622759976954" lon="12.067357473454585"><ele>3.5</ele><time>2026-05-03T16:45:06.003Z</time></trkpt><trkpt lat="44.44669655457834" lon="12.067181562659638"><ele>3.75</ele><time>2026-05-03T16:45:07.003Z</time></trkpt><trkpt lat="44.44676805020558" lon="12.067000677560904"><ele>4.0</ele><time>2026-05-03T16:45:08.003Z</time></trkpt><trkpt lat="44.44684193016373" lon="12.066826217148401"><ele>4.0</ele><time>2026-05-03T16:45:09.003Z</time></trkpt><trkpt lat="44.446913939791195" lon="12.066662200847963"><ele>4.0</ele><time>2026-05-03T16:45:10.003Z</time></trkpt><trkpt lat="44.44697671388488" lon="12.066516912820326"><ele>4.0</ele><time>2026-05-03T16:45:11.003Z</time></trkpt><trkpt lat="44.447037030649426" lon="12.066381562996865"><ele>4.0</ele><time>2026-05-03T16:45:12.003Z</time></trkpt><trkpt lat="44.44709296204983" lon="12.066253368834976"><ele>4.2</ele><time>2026-05-03T16:45:13.003Z</time></trkpt><trkpt lat="44.44714560578268" lon="12.066129554331049"><ele>4.4</ele><time>2026-05-03T16:45:14.003Z</time></trkpt><trkpt lat="44.44719998233515" lon="12.066011765066165"><ele>4.6</ele><time>2026-05-03T16:45:15.003Z</time></trkpt><trkpt lat="44.44724408201911" lon="12.06590888021797"><ele>4.8</ele><time>2026-05-03T16:45:16.003Z</time></trkpt><trkpt lat="44.44728325324545" lon="12.065817194933256"><ele>5.0</ele><time>2026-05-03T16:45:17.003Z</time></trkpt><trkpt lat="44.44734275414781" lon="12.065680554178096"><ele>5.0</ele><time>2026-05-03T16:45:19.003Z</time></trkpt><trkpt lat="44.447382890096065" lon="12.06558303574404"><ele>5.0</ele><time>2026-05-03T16:45:21.003Z</time></trkpt><trkpt lat="44.447416411280855" lon="12.065507429028912"><ele>5.0</ele><time>2026-05-03T16:45:23.003Z</time></trkpt><trkpt lat="44.447465082903015" lon="12.06542304480922"><ele>5.0</ele><time>2026-05-03T16:45:26.003Z</time></trkpt><trkpt lat="44.447503380446" lon="12.065331093124495"><ele>5.0</ele><time>2026-05-03T16:45:30.003Z</time></trkpt><trkpt lat="44.447471104932" lon="12.065223509814102"><ele>5.0</ele><time>2026-05-03T16:45:32.003Z</time></trkpt><trkpt lat="44.4473756874869" lon="12.06515079166749"><ele>5.0</ele><time>2026-05-03T16:45:33.003Z</time></trkpt><trkpt lat="44.447290428188765" lon="12.065082347365616"><ele>5.0</ele><time>2026-05-03T16:45:34.003Z</time></trkpt><trkpt lat="44.447196309339404" lon="12.065002862509191"><ele>5.0</ele><time>2026-05-03T16:45:35.003Z</time></trkpt><trkpt lat="44.44709248856556" lon="12.064912197627093"><ele>5.0</ele><time>2026-05-03T16:45:36.003Z</time></trkpt><trkpt lat="44.446974985147875" lon="12.064808797109555"><ele>4.333333333333334</ele><time>2026-05-03T16:45:37.002Z</time></trkpt><trkpt lat="44.446854288207135" lon="12.064703995798709"><ele>3.666666666666667</ele><time>2026-05-03T16:45:38.002Z</time></trkpt><trkpt lat="44.44672615720373" lon="12.06458763736772"><ele>3.0</ele><time>2026-05-03T16:45:39.002Z</time></trkpt><trkpt lat="44.44659877541541" lon="12.06446399547716"><ele>3.0</ele><time>2026-05-03T16:45:40.002Z</time></trkpt><trkpt lat="44.44647736697203" lon="12.064332442516948"><ele>3.0</ele><time>2026-05-03T16:45:41.002Z</time></trkpt><trkpt lat="44.446351550658704" lon="12.064190968442555"><ele>3.0</ele><time>2026-05-03T16:45:42.002Z</time></trkpt><trkpt lat="44.44621912921467" lon="12.064046255995988"><ele>3.333333333333333</ele><time>2026-05-03T16:45:43.002Z</time></trkpt><trkpt lat="44.44608345435098" lon="12.063898842857158"><ele>3.6666666666666665</ele><time>2026-05-03T16:45:44.002Z</time></trkpt><trkpt lat="44.445958546869505" lon="12.063758366035932"><ele>4.0</ele><time>2026-05-03T16:45:45.002Z</time></trkpt><trkpt lat="44.4458450857436" lon="12.06362475458462"><ele>4.0</ele><time>2026-05-03T16:45:46.002Z</time></trkpt><trkpt lat="44.445731252431685" lon="12.063484638754916"><ele>4.0</ele><time>2026-05-03T16:45:47.002Z</time></trkpt><trkpt lat="44.44561358066797" lon="12.06333492145914"><ele>4.0</ele><time>2026-05-03T16:45:48.002Z</time></trkpt><trkpt lat="44.44549581925111" lon="12.063174083850496"><ele>4.333333333333333</ele><time>2026-05-03T16:45:49.002Z</time></trkpt><trkpt lat="44.445381884254" lon="12.063014790650858"><ele>4.666666666666667</ele><time>2026-05-03T16:45:50.002Z</time></trkpt><trkpt lat="44.445275831493014" lon="12.062860255412403"><ele>5.0</ele><time>2026-05-03T16:45:51.002Z</time></trkpt><trkpt lat="44.44518213098138" lon="12.062719422502084"><ele>5.0</ele><time>2026-05-03T16:45:52.002Z</time></trkpt><trkpt lat="44.445103021672175" lon="12.062592742497948"><ele>5.0</ele><time>2026-05-03T16:45:53.002Z</time></trkpt><trkpt lat="44.44504104130939" lon="12.062482401781887"><ele>5.0</ele><time>2026-05-03T16:45:54.002Z</time></trkpt><trkpt lat="44.44498287393977" lon="12.06237853529533"><ele>5.0</ele><time>2026-05-03T16:45:55.002Z</time></trkpt><trkpt lat="44.444937526368825" lon="12.062302916231037"><ele>5.0</ele><time>2026-05-03T16:45:56.002Z</time></trkpt><trkpt lat="44.44490211707235" lon="12.062141256260979"><ele>5.0</ele><time>2026-05-03T16:45:58.002Z</time></trkpt><trkpt lat="44.444999256014675" lon="12.062020130196988"><ele>5.0</ele><time>2026-05-03T16:45:59.002Z</time></trkpt><trkpt lat="44.4450647108153" lon="12.061881476603366"><ele>5.0</ele><time>2026-05-03T16:46:00.001Z</time></trkpt><trkpt lat="44.44514609362562" lon="12.061730807528894"><ele>5.0</ele><time>2026-05-03T16:46:01.001Z</time></trkpt><trkpt lat="44.4452241981861" lon="12.061568192283834"><ele>5.0</ele><time>2026-05-03T16:46:02.001Z</time></trkpt><trkpt lat="44.44530865835837" lon="12.06140494558898"><ele>5.0</ele><time>2026-05-03T16:46:03.001Z</time></trkpt><trkpt lat="44.44540062339853" lon="12.061223021782581"><ele>5.0</ele><time>2026-05-03T16:46:04.001Z</time></trkpt><trkpt lat="44.44550049356992" lon="12.06102641630968"><ele>5.0</ele><time>2026-05-03T16:46:05.001Z</time></trkpt><trkpt lat="44.44561297081348" lon="12.06080413957057"><ele>5.0</ele><time>2026-05-03T16:46:06.001Z</time></trkpt><trkpt lat="44.445732374166546" lon="12.060560793886648"><ele>5.0</ele><time>2026-05-03T16:46:07.001Z</time></trkpt><trkpt lat="44.44584523151906" lon="12.06033428849411"><ele>4.666666666666667</ele><time>2026-05-03T16:46:08.001Z</time></trkpt><trkpt lat="44.44594522641002" lon="12.060122818102517"><ele>4.333333333333333</ele><time>2026-05-03T16:46:09.001Z</time></trkpt><trkpt lat="44.44605049256146" lon="12.059911482944662"><ele>4.0</ele><time>2026-05-03T16:46:10.001Z</time></trkpt><trkpt lat="44.44616308916105" lon="12.059687827412375"><ele>4.0</ele><time>2026-05-03T16:46:11.001Z</time></trkpt><trkpt lat="44.44627884684841" lon="12.059451259906087"><ele>4.0</ele><time>2026-05-03T16:46:12.001Z</time></trkpt><trkpt lat="44.44639662144674" lon="12.05921249251322"><ele>4.0</ele><time>2026-05-03T16:46:13.001Z</time></trkpt><trkpt lat="44.44651586474674" lon="12.058973434201485"><ele>4.666666666666666</ele><time>2026-05-03T16:46:14.001Z</time></trkpt><trkpt lat="44.44663607077036" lon="12.058736427793436"><ele>5.333333333333333</ele><time>2026-05-03T16:46:15.001Z</time></trkpt><trkpt lat="44.44675866826913" lon="12.058489218544981"><ele>6.0</ele><time>2026-05-03T16:46:16.001Z</time></trkpt><trkpt lat="44.44687763637941" lon="12.058247031389385"><ele>6.0</ele><time>2026-05-03T16:46:17.001Z</time></trkpt><trkpt lat="44.44699397921929" lon="12.058009785436738"><ele>6.0</ele><time>2026-05-03T16:46:18.001Z</time></trkpt><trkpt lat="44.447104813423486" lon="12.057786279421185"><ele>6.0</ele><time>2026-05-03T16:46:19.001Z</time></trkpt><trkpt lat="44.447207591001934" lon="12.057581126000132"><ele>6.0</ele><time>2026-05-03T16:46:20.002Z</time></trkpt><trkpt lat="44.44730443691867" lon="12.05739358741586"><ele>6.0</ele><time>2026-05-03T16:46:21.002Z</time></trkpt><trkpt lat="44.447391578949016" lon="12.057212998872034"><ele>6.0</ele><time>2026-05-03T16:46:22.002Z</time></trkpt><trkpt lat="44.447464686225025" lon="12.05705134346393"><ele>6.0</ele><time>2026-05-03T16:46:23.002Z</time></trkpt><trkpt lat="44.4475371402943" lon="12.056914406921456"><ele>6.0</ele><time>2026-05-03T16:46:24.002Z</time></trkpt><trkpt lat="44.447598907886466" lon="12.056786031684291"><ele>6.0</ele><time>2026-05-03T16:46:25.002Z</time></trkpt><trkpt lat="44.44763089099495" lon="12.056660240401191"><ele>6.0</ele><time>2026-05-03T16:46:26.002Z</time></trkpt><trkpt lat="44.44762466431511" lon="12.056522092843387"><ele>6.0</ele><time>2026-05-03T16:46:27.002Z</time></trkpt><trkpt lat="44.447579649033806" lon="12.056368775299328"><ele>6.333333333333334</ele><time>2026-05-03T16:46:28.002Z</time></trkpt><trkpt lat="44.447484247091715" lon="12.056214990599257"><ele>6.666666666666667</ele><time>2026-05-03T16:46:29.002Z</time></trkpt><trkpt lat="44.447374936733205" lon="12.05605860916569"><ele>7.0</ele><time>2026-05-03T16:46:30.002Z</time></trkpt><trkpt lat="44.447260350719176" lon="12.055880319887889"><ele>7.333333333333334</ele><time>2026-05-03T16:46:31.002Z</time></trkpt><trkpt lat="44.44715443375723" lon="12.055702710222802"><ele>7.666666666666666</ele><time>2026-05-03T16:46:32.002Z</time></trkpt><trkpt lat="44.447046937366004" lon="12.055517324704384"><ele>8.0</ele><time>2026-05-03T16:46:33.002Z</time></trkpt><trkpt lat="44.44694486084759" lon="12.055324747121627"><ele>8.0</ele><time>2026-05-03T16:46:34.002Z</time></trkpt><trkpt lat="44.44683831787456" lon="12.055128511169455"><ele>8.0</ele><time>2026-05-03T16:46:35.002Z</time></trkpt><trkpt lat="44.44674160083926" lon="12.054951889637643"><ele>8.0</ele><time>2026-05-03T16:46:36.002Z</time></trkpt><trkpt lat="44.446643888880445" lon="12.054782845566152"><ele>7.5</ele><time>2026-05-03T16:46:37.002Z</time></trkpt><trkpt lat="44.446555394189076" lon="12.054639136083118"><ele>7.0</ele><time>2026-05-03T16:46:38.002Z</time></trkpt><trkpt lat="44.446477497823416" lon="12.054514792217091"><ele>6.5</ele><time>2026-05-03T16:46:39.002Z</time></trkpt><trkpt lat="44.44640254215698" lon="12.054397026377787"><ele>6.0</ele><time>2026-05-03T16:46:40.002Z</time></trkpt><trkpt lat="44.44633244848094" lon="12.05428804928277"><ele>6.0</ele><time>2026-05-03T16:46:41.002Z</time></trkpt><trkpt lat="44.44627546591537" lon="12.05420144914187"><ele>6.0</ele><time>2026-05-03T16:46:42.002Z</time></trkpt><trkpt lat="44.446208084778775" lon="12.054104569882163"><ele>6.0</ele><time>2026-05-03T16:46:44.002Z</time></trkpt><trkpt lat="44.446159852614606" lon="12.054029468917074"><ele>6.0</ele><time>2026-05-03T16:46:46.002Z</time></trkpt><trkpt lat="44.446211411796945" lon="12.053935052717543"><ele>6.0</ele><time>2026-05-03T16:46:49.002Z</time></trkpt><trkpt lat="44.44627272071042" lon="12.05389225661408"><ele>6.0</ele><time>2026-05-03T16:46:50.002Z</time></trkpt><trkpt lat="44.44634603984211" lon="12.053879675209664"><ele>6.0</ele><time>2026-05-03T16:46:51.002Z</time></trkpt><trkpt lat="44.44642121999167" lon="12.053862713148737"><ele>6.0</ele><time>2026-05-03T16:46:52.002Z</time></trkpt><trkpt lat="44.44651766392385" lon="12.053837836589562"><ele>6.0</ele><time>2026-05-03T16:46:53.002Z</time></trkpt><trkpt lat="44.44661927206447" lon="12.053814590544846"><ele>6.0</ele><time>2026-05-03T16:46:54.002Z</time></trkpt><trkpt lat="44.44670087584064" lon="12.053791568337187"><ele>6.0</ele><time>2026-05-03T16:46:55.002Z</time></trkpt><trkpt lat="44.44676476007149" lon="12.053766617658361"><ele>6.0</ele><time>2026-05-03T16:46:56.002Z</time></trkpt><trkpt lat="44.44682826203925" lon="12.05373986941458"><ele>6.0</ele><time>2026-05-03T16:46:57.002Z</time></trkpt><trkpt lat="44.446939283465674" lon="12.053775559970221"><ele>6.0</ele><time>2026-05-03T16:46:59.002Z</time></trkpt><trkpt lat="44.44697380177436" lon="12.05385383660098"><ele>6.0</ele><time>2026-05-03T16:47:00.002Z</time></trkpt><trkpt lat="44.447013054939084" lon="12.05396071584268"><ele>6.0</ele><time>2026-05-03T16:47:01.002Z</time></trkpt><trkpt lat="44.44707166623597" lon="12.054082895204381"><ele>6.0</ele><time>2026-05-03T16:47:02.002Z</time></trkpt><trkpt lat="44.447148677347506" lon="12.054211503604803"><ele>6.0</ele><time>2026-05-03T16:47:03.002Z</time></trkpt><trkpt lat="44.44722656214967" lon="12.054332588462534"><ele>6.0</ele><time>2026-05-03T16:47:04.002Z</time></trkpt><trkpt lat="44.44730974578719" lon="12.054457028681934"><ele>6.0</ele><time>2026-05-03T16:47:05.002Z</time></trkpt><trkpt lat="44.44738938558314" lon="12.054569428064012"><ele>6.0</ele><time>2026-05-03T16:47:06.002Z</time></trkpt><trkpt lat="44.44745101712902" lon="12.054673553436038"><ele>6.0</ele><time>2026-05-03T16:47:07.002Z</time></trkpt><trkpt lat="44.44751571786263" lon="12.054767461740683"><ele>6.0</ele><time>2026-05-03T16:47:08.002Z</time></trkpt><trkpt lat="44.4475729868194" lon="12.054857463718099"><ele>6.0</ele><time>2026-05-03T16:47:09.002Z</time></trkpt><trkpt lat="44.44763040819655" lon="12.054931705600177"><ele>6.0</ele><time>2026-05-03T16:47:10.002Z</time></trkpt><trkpt lat="44.447695593938164" lon="12.054991211569305"><ele>6.0</ele><time>2026-05-03T16:47:11.002Z</time></trkpt><trkpt lat="44.44776317574613" lon="12.05501263296972"><ele>6.0</ele><time>2026-05-03T16:47:12.002Z</time></trkpt><trkpt lat="44.44783922931123" lon="12.054985619335316"><ele>6.0</ele><time>2026-05-03T16:47:13.002Z</time></trkpt><trkpt lat="44.447905285300344" lon="12.054927621472734"><ele>6.166666666666667</ele><time>2026-05-03T16:47:14.002Z</time></trkpt><trkpt lat="44.447973470320434" lon="12.054851898498978"><ele>6.333333333333334</ele><time>2026-05-03T16:47:15.002Z</time></trkpt><trkpt lat="44.44804994644972" lon="12.054771635755444"><ele>6.5</ele><time>2026-05-03T16:47:16.002Z</time></trkpt><trkpt lat="44.44812490790222" lon="12.05470301576202"><ele>6.666666666666667</ele><time>2026-05-03T16:47:17.002Z</time></trkpt><trkpt lat="44.44818651174408" lon="12.054651937081028"><ele>6.833333333333334</ele><time>2026-05-03T16:47:18.002Z</time></trkpt><trkpt lat="44.44824917334868" lon="12.0546330700839"><ele>7.0</ele><time>2026-05-03T16:47:19.002Z</time></trkpt><trkpt lat="44.44835781268172" lon="12.05467448332701"><ele>7.0</ele><time>2026-05-03T16:47:21.003Z</time></trkpt><trkpt lat="44.44846962603392" lon="12.05468809217887"><ele>6.999999999999999</ele><time>2026-05-03T16:47:23.003Z</time></trkpt><trkpt lat="44.44849575967635" lon="12.054786896845668"><ele>6.999999999999999</ele><time>2026-05-03T16:47:24.003Z</time></trkpt><trkpt lat="44.448509300496234" lon="12.054609403208348"><ele>7.0</ele><time>2026-05-03T16:47:26.003Z</time></trkpt><trkpt lat="44.44850305037241" lon="12.054497721513593"><ele>7.0</ele><time>2026-05-03T16:47:27.003Z</time></trkpt><trkpt lat="44.44849381118922" lon="12.054387334356239"><ele>7.0</ele><time>2026-05-03T16:47:28.003Z</time></trkpt><trkpt lat="44.44847006189989" lon="12.05427987856602"><ele>6.999999999999999</ele><time>2026-05-03T16:47:29.003Z</time></trkpt><trkpt lat="44.44843035482132" lon="12.054182980739478"><ele>6.999999999999999</ele><time>2026-05-03T16:47:30.003Z</time></trkpt><trkpt lat="44.44837583013027" lon="12.05407587737909"><ele>7.0</ele><time>2026-05-03T16:47:31.003Z</time></trkpt><trkpt lat="44.44830201994098" lon="12.053952053957314"><ele>7.0</ele><time>2026-05-03T16:47:32.003Z</time></trkpt><trkpt lat="44.44822616017531" lon="12.053836284203713"><ele>6.75</ele><time>2026-05-03T16:47:33.003Z</time></trkpt><trkpt lat="44.448160742422104" lon="12.053716275987686"><ele>6.5</ele><time>2026-05-03T16:47:34.003Z</time></trkpt><trkpt lat="44.44808884628421" lon="12.053594264091702"><ele>6.25</ele><time>2026-05-03T16:47:35.003Z</time></trkpt><trkpt lat="44.44801497637512" lon="12.053461295864377"><ele>6.0</ele><time>2026-05-03T16:47:36.003Z</time></trkpt><trkpt lat="44.44794005890965" lon="12.053342718375239"><ele>5.75</ele><time>2026-05-03T16:47:37.003Z</time></trkpt><trkpt lat="44.447860177070694" lon="12.053230302744566"><ele>5.5</ele><time>2026-05-03T16:47:38.003Z</time></trkpt><trkpt lat="44.44777173912973" lon="12.05310732894241"><ele>5.25</ele><time>2026-05-03T16:47:39.003Z</time></trkpt><trkpt lat="44.44768552038687" lon="12.052982796991856"><ele>5.0</ele><time>2026-05-03T16:47:40.003Z</time></trkpt><trkpt lat="44.44759262568101" lon="12.052862252252988"><ele>5.0</ele><time>2026-05-03T16:47:41.003Z</time></trkpt><trkpt lat="44.44750004256203" lon="12.052743394876543"><ele>5.0</ele><time>2026-05-03T16:47:42.003Z</time></trkpt><trkpt lat="44.44739605476636" lon="12.052634396744999"><ele>5.0</ele><time>2026-05-03T16:47:43.002Z</time></trkpt><trkpt lat="44.447288242776715" lon="12.052533634542105"><ele>5.0</ele><time>2026-05-03T16:47:44.002Z</time></trkpt><trkpt lat="44.44718791300253" lon="12.052427064424894"><ele>5.0</ele><time>2026-05-03T16:47:45.002Z</time></trkpt><trkpt lat="44.44707481538866" lon="12.052338967302385"><ele>5.0</ele><time>2026-05-03T16:47:46.002Z</time></trkpt><trkpt lat="44.44695995496815" lon="12.052257880066422"><ele>5.0</ele><time>2026-05-03T16:47:47.002Z</time></trkpt><trkpt lat="44.44684249249716" lon="12.052176056438046"><ele>5.0</ele><time>2026-05-03T16:47:48.002Z</time></trkpt><trkpt lat="44.446729629355595" lon="12.052088481794389"><ele>5.0</ele><time>2026-05-03T16:47:49.002Z</time></trkpt><trkpt lat="44.446613104829304" lon="12.051997158205454"><ele>5.0</ele><time>2026-05-03T16:47:50.002Z</time></trkpt><trkpt lat="44.44649297388209" lon="12.051915784149807"><ele>5.0</ele><time>2026-05-03T16:47:51.002Z</time></trkpt><trkpt lat="44.44636698606968" lon="12.051829320659243"><ele>5.0</ele><time>2026-05-03T16:47:52.001Z</time></trkpt><trkpt lat="44.44624487090379" lon="12.051740008787792"><ele>5.0</ele><time>2026-05-03T16:47:53.001Z</time></trkpt><trkpt lat="44.44612095749827" lon="12.051654136992486"><ele>5.0</ele><time>2026-05-03T16:47:54.001Z</time></trkpt><trkpt lat="44.44600023855779" lon="12.051569084067273"><ele>5.0</ele><time>2026-05-03T16:47:55.001Z</time></trkpt><trkpt lat="44.44588019557132" lon="12.05148286592777"><ele>5.0</ele><time>2026-05-03T16:47:56.001Z</time></trkpt><trkpt lat="44.445762173432534" lon="12.051397827299958"><ele>5.0</ele><time>2026-05-03T16:47:57.001Z</time></trkpt><trkpt lat="44.44564744362963" lon="12.051310176715003"><ele>5.0</ele><time>2026-05-03T16:47:58.001Z</time></trkpt><trkpt lat="44.44552939589845" lon="12.051220422808232"><ele>5.0</ele><time>2026-05-03T16:47:59.001Z</time></trkpt><trkpt lat="44.445411855431516" lon="12.051125118601053"><ele>5.0</ele><time>2026-05-03T16:48:00.001Z</time></trkpt><trkpt lat="44.445287476300486" lon="12.05102977544805"><ele>5.0</ele><time>2026-05-03T16:48:01.001Z</time></trkpt><trkpt lat="44.44517062243675" lon="12.050920093332447"><ele>5.0</ele><time>2026-05-03T16:48:02.001Z</time></trkpt><trkpt lat="44.4450524586661" lon="12.050813036580424"><ele>5.0</ele><time>2026-05-03T16:48:03.001Z</time></trkpt><trkpt lat="44.444931175250595" lon="12.050712376753584"><ele>5.0</ele><time>2026-05-03T16:48:04.001Z</time></trkpt><trkpt lat="44.44480698996295" lon="12.050612491407382"><ele>5.0</ele><time>2026-05-03T16:48:05.001Z</time></trkpt><trkpt lat="44.4446794156285" lon="12.050513238490122"><ele>5.0</ele><time>2026-05-03T16:48:06.001Z</time></trkpt><trkpt lat="44.44455903474607" lon="12.050409011415796"><ele>5.0</ele><time>2026-05-03T16:48:07.001Z</time></trkpt><trkpt lat="44.44443355494934" lon="12.050303286261792"><ele>5.0</ele><time>2026-05-03T16:48:08.001Z</time></trkpt><trkpt lat="44.444309914393614" lon="12.05019953420581"><ele>5.0</ele><time>2026-05-03T16:48:09.001Z</time></trkpt><trkpt lat="44.444191047486036" lon="12.05009749969328"><ele>5.0</ele><time>2026-05-03T16:48:10.001Z</time></trkpt><trkpt lat="44.444069519793814" lon="12.049995256779617"><ele>5.0</ele><time>2026-05-03T16:48:11.001Z</time></trkpt><trkpt lat="44.44395106993718" lon="12.04989521250333"><ele>5.0</ele><time>2026-05-03T16:48:12.001Z</time></trkpt><trkpt lat="44.443832444226324" lon="12.049794584805968"><ele>4.75</ele><time>2026-05-03T16:48:13.001Z</time></trkpt><trkpt lat="44.44371627254199" lon="12.049695948063478"><ele>4.5</ele><time>2026-05-03T16:48:14.001Z</time></trkpt><trkpt lat="44.443607405940256" lon="12.049596534788614"><ele>4.25</ele><time>2026-05-03T16:48:15.001Z</time></trkpt><trkpt lat="44.44349652676539" lon="12.04950935157366"><ele>4.0</ele><time>2026-05-03T16:48:16.001Z</time></trkpt><trkpt lat="44.44338303696352" lon="12.049419037893534"><ele>4.0</ele><time>2026-05-03T16:48:17.001Z</time></trkpt><trkpt lat="44.44328132081328" lon="12.049319662131392"><ele>4.0</ele><time>2026-05-03T16:48:18.001Z</time></trkpt><trkpt lat="44.44317948717341" lon="12.049231089977319"><ele>4.0</ele><time>2026-05-03T16:48:19.001Z</time></trkpt><trkpt lat="44.44307907818207" lon="12.049146515617592"><ele>4.0</ele><time>2026-05-03T16:48:20.001Z</time></trkpt><trkpt lat="44.44297759965696" lon="12.049065117168649"><ele>4.25</ele><time>2026-05-03T16:48:21.001Z</time></trkpt><trkpt lat="44.442877421634755" lon="12.048981618708234"><ele>4.5</ele><time>2026-05-03T16:48:22.001Z</time></trkpt><trkpt lat="44.44277922569147" lon="12.048895604546074"><ele>4.75</ele><time>2026-05-03T16:48:23.001Z</time></trkpt><trkpt lat="44.44268315713337" lon="12.048810789367975"><ele>5.0</ele><time>2026-05-03T16:48:24.001Z</time></trkpt><trkpt lat="44.442587083451485" lon="12.048721851651896"><ele>5.0</ele><time>2026-05-03T16:48:25.001Z</time></trkpt><trkpt lat="44.44248094433299" lon="12.048630548199533"><ele>5.0</ele><time>2026-05-03T16:48:26.001Z</time></trkpt><trkpt lat="44.44237083519462" lon="12.048538146064773"><ele>5.0</ele><time>2026-05-03T16:48:27.001Z</time></trkpt><trkpt lat="44.44226105150513" lon="12.048442397328662"><ele>5.0</ele><time>2026-05-03T16:48:28.001Z</time></trkpt><trkpt lat="44.44214856863209" lon="12.048349523412186"><ele>5.0</ele><time>2026-05-03T16:48:29.001Z</time></trkpt><trkpt lat="44.44203325105222" lon="12.048254356920273"><ele>5.0</ele><time>2026-05-03T16:48:30.001Z</time></trkpt><trkpt lat="44.44192391428721" lon="12.048153878714912"><ele>5.0</ele><time>2026-05-03T16:48:31.001Z</time></trkpt><trkpt lat="44.441811960835715" lon="12.048057461408499"><ele>5.0</ele><time>2026-05-03T16:48:32.001Z</time></trkpt><trkpt lat="44.44169890457594" lon="12.047960574975392"><ele>5.0</ele><time>2026-05-03T16:48:33.001Z</time></trkpt><trkpt lat="44.44158462336447" lon="12.047860112066877"><ele>5.0</ele><time>2026-05-03T16:48:34.001Z</time></trkpt><trkpt lat="44.44147041193562" lon="12.04775607523458"><ele>5.0</ele><time>2026-05-03T16:48:35.001Z</time></trkpt><trkpt lat="44.4413585482944" lon="12.047650864716788"><ele>5.0</ele><time>2026-05-03T16:48:36.001Z</time></trkpt><trkpt lat="44.44124921713915" lon="12.04754238251432"><ele>4.75</ele><time>2026-05-03T16:48:37.001Z</time></trkpt><trkpt lat="44.44114193213068" lon="12.047437717170052"><ele>4.5</ele><time>2026-05-03T16:48:38.001Z</time></trkpt><trkpt lat="44.441034932883625" lon="12.047327295748785"><ele>4.25</ele><time>2026-05-03T16:48:39.001Z</time></trkpt><trkpt lat="44.440930295299246" lon="12.047207739173981"><ele>4.0</ele><time>2026-05-03T16:48:40.001Z</time></trkpt><trkpt lat="44.4408255311752" lon="12.04708750734591"><ele>4.0</ele><time>2026-05-03T16:48:41.001Z</time></trkpt><trkpt lat="44.44072360705707" lon="12.046969376760506"><ele>4.0</ele><time>2026-05-03T16:48:42.001Z</time></trkpt><trkpt lat="44.44062639114619" lon="12.046839269465572"><ele>4.0</ele><time>2026-05-03T16:48:43.001Z</time></trkpt><trkpt lat="44.44053767555966" lon="12.046706466606215"><ele>4.0</ele><time>2026-05-03T16:48:44.001Z</time></trkpt><trkpt lat="44.44045735674003" lon="12.046561023276196"><ele>4.25</ele><time>2026-05-03T16:48:45.001Z</time></trkpt><trkpt lat="44.44037213069684" lon="12.046416061073417"><ele>4.5</ele><time>2026-05-03T16:48:46.001Z</time></trkpt><trkpt lat="44.440289733223416" lon="12.046269016173643"><ele>4.75</ele><time>2026-05-03T16:48:47.001Z</time></trkpt><trkpt lat="44.4402119406461" lon="12.046129848667167"><ele>5.0</ele><time>2026-05-03T16:48:48.001Z</time></trkpt><trkpt lat="44.44014290722039" lon="12.045996043622074"><ele>5.0</ele><time>2026-05-03T16:48:49.001Z</time></trkpt><trkpt lat="44.440071459552485" lon="12.045879139416352"><ele>5.0</ele><time>2026-05-03T16:48:50.001Z</time></trkpt><trkpt lat="44.440009316484804" lon="12.045770469062887"><ele>5.0</ele><time>2026-05-03T16:48:51.001Z</time></trkpt><trkpt lat="44.43995624234407" lon="12.045671701513188"><ele>5.0</ele><time>2026-05-03T16:48:52.001Z</time></trkpt><trkpt lat="44.43991630894911" lon="12.04559362607431"><ele>5.0</ele><time>2026-05-03T16:48:53.001Z</time></trkpt><trkpt lat="44.43985581183711" lon="12.045460830431596"><ele>5.166666666666667</ele><time>2026-05-03T16:48:55.001Z</time></trkpt><trkpt lat="44.43985946117523" lon="12.045356667266505"><ele>5.333333333333334</ele><time>2026-05-03T16:48:57.001Z</time></trkpt><trkpt lat="44.439924864158414" lon="12.045273898628981"><ele>5.5</ele><time>2026-05-03T16:48:58.001Z</time></trkpt><trkpt lat="44.439977477991036" lon="12.045206883029088"><ele>5.666666666666667</ele><time>2026-05-03T16:49:00.001Z</time></trkpt><trkpt lat="44.440031267349084" lon="12.045132132733082"><ele>5.833333333333333</ele><time>2026-05-03T16:49:03.002Z</time></trkpt><trkpt lat="44.44008412794508" lon="12.045047108602278"><ele>6.0</ele><time>2026-05-03T16:49:07.002Z</time></trkpt><trkpt lat="44.439987338002524" lon="12.045129693266597"><ele>6.0</ele><time>2026-05-03T16:49:14.002Z</time></trkpt><trkpt lat="44.43994384167685" lon="12.045230084193303"><ele>6.0</ele><time>2026-05-03T16:49:16.002Z</time></trkpt><trkpt lat="44.43987907499564" lon="12.0452889897772"><ele>6.0</ele><time>2026-05-03T16:49:18.002Z</time></trkpt><trkpt lat="44.439848539596994" lon="12.045377561323358"><ele>6.0</ele><time>2026-05-03T16:49:21.002Z</time></trkpt><trkpt lat="44.43972575103547" lon="12.045235758004953"><ele>6.0</ele><time>2026-05-03T16:49:26.002Z</time></trkpt><trkpt lat="44.439667793275945" lon="12.045102926246834"><ele>6.0</ele><time>2026-05-03T16:49:28.002Z</time></trkpt><trkpt lat="44.43959078059243" lon="12.044976859789992"><ele>6.0</ele><time>2026-05-03T16:49:30.002Z</time></trkpt><trkpt lat="44.43957121744922" lon="12.044843038643002"><ele>6.0</ele><time>2026-05-03T16:49:32.002Z</time></trkpt><trkpt lat="44.4396759470114" lon="12.044683829285406"><ele>6.0</ele><time>2026-05-03T16:49:34.002Z</time></trkpt><trkpt lat="44.43974631627958" lon="12.044577305644708"><ele>6.0</ele><time>2026-05-03T16:49:35.002Z</time></trkpt><trkpt lat="44.43981916265966" lon="12.044456951696484"><ele>6.0</ele><time>2026-05-03T16:49:36.002Z</time></trkpt><trkpt lat="44.43988836611701" lon="12.044340510434651"><ele>6.0</ele><time>2026-05-03T16:49:37.002Z</time></trkpt><trkpt lat="44.43996271053561" lon="12.044216856326532"><ele>6.0</ele><time>2026-05-03T16:49:38.002Z</time></trkpt><trkpt lat="44.44004024405583" lon="12.044085366250139"><ele>5.75</ele><time>2026-05-03T16:49:39.002Z</time></trkpt><trkpt lat="44.44011796282488" lon="12.043958230280648"><ele>5.5</ele><time>2026-05-03T16:49:40.002Z</time></trkpt><trkpt lat="44.44019960768504" lon="12.043816521143027"><ele>5.25</ele><time>2026-05-03T16:49:41.002Z</time></trkpt><trkpt lat="44.44028768418279" lon="12.043673101665352"><ele>5.0</ele><time>2026-05-03T16:49:42.002Z</time></trkpt><trkpt lat="44.44037450125702" lon="12.043530186646962"><ele>5.0</ele><time>2026-05-03T16:49:43.002Z</time></trkpt><trkpt lat="44.44046051764759" lon="12.043389224497547"><ele>5.0</ele><time>2026-05-03T16:49:44.002Z</time></trkpt><trkpt lat="44.44054801099594" lon="12.043242864047162"><ele>5.0</ele><time>2026-05-03T16:49:45.002Z</time></trkpt><trkpt lat="44.44064065477458" lon="12.043091245327519"><ele>5.0</ele><time>2026-05-03T16:49:46.002Z</time></trkpt><trkpt lat="44.440730688092536" lon="12.042932260037954"><ele>5.0</ele><time>2026-05-03T16:49:47.002Z</time></trkpt><trkpt lat="44.44082364430058" lon="12.042782921236824"><ele>5.0</ele><time>2026-05-03T16:49:48.002Z</time></trkpt><trkpt lat="44.4409140447732" lon="12.042635309243714"><ele>5.0</ele><time>2026-05-03T16:49:49.001Z</time></trkpt><trkpt lat="44.4410077122406" lon="12.042482042404117"><ele>5.0</ele><time>2026-05-03T16:49:50.001Z</time></trkpt><trkpt lat="44.44109745757836" lon="12.042330395213874"><ele>5.0</ele><time>2026-05-03T16:49:51.001Z</time></trkpt><trkpt lat="44.44118949664893" lon="12.042174295265813"><ele>5.0</ele><time>2026-05-03T16:49:52.001Z</time></trkpt><trkpt lat="44.44128082795363" lon="12.04202003094324"><ele>5.0</ele><time>2026-05-03T16:49:53.001Z</time></trkpt><trkpt lat="44.44137794707904" lon="12.041868056793147"><ele>5.0</ele><time>2026-05-03T16:49:54.001Z</time></trkpt><trkpt lat="44.441475679426254" lon="12.041699784539341"><ele>5.0</ele><time>2026-05-03T16:49:55.001Z</time></trkpt><trkpt lat="44.44158009564828" lon="12.041527901253371"><ele>5.0</ele><time>2026-05-03T16:49:56.001Z</time></trkpt><trkpt lat="44.441686421559865" lon="12.041349933168611"><ele>5.0</ele><time>2026-05-03T16:49:57.001Z</time></trkpt><trkpt lat="44.441796391898315" lon="12.041164124781206"><ele>5.0</ele><time>2026-05-03T16:49:58.001Z</time></trkpt><trkpt lat="44.44190480199356" lon="12.04098033181236"><ele>5.0</ele><time>2026-05-03T16:49:59.001Z</time></trkpt><trkpt lat="44.44200701747465" lon="12.040807288214943"><ele>5.0</ele><time>2026-05-03T16:50:00.001Z</time></trkpt><trkpt lat="44.44210836602955" lon="12.040634985010271"><ele>5.0</ele><time>2026-05-03T16:50:01.001Z</time></trkpt><trkpt lat="44.4422121517723" lon="12.040461326820244"><ele>5.0</ele><time>2026-05-03T16:50:02Z</time></trkpt><trkpt lat="44.44231329939773" lon="12.040287055892126"><ele>5.0</ele><time>2026-05-03T16:50:03Z</time></trkpt><trkpt lat="44.44241478092936" lon="12.040114878781251"><ele>5.0</ele><time>2026-05-03T16:50:04Z</time></trkpt><trkpt lat="44.442515193584256" lon="12.03994702193973"><ele>5.0</ele><time>2026-05-03T16:50:05Z</time></trkpt><trkpt lat="44.442613758730225" lon="12.03978539718651"><ele>5.0</ele><time>2026-05-03T16:50:06Z</time></trkpt><trkpt lat="44.44271250655934" lon="12.03961853947344"><ele>5.0</ele><time>2026-05-03T16:50:07Z</time></trkpt><trkpt lat="44.44281233352802" lon="12.039450605846485"><ele>5.0</ele><time>2026-05-03T16:50:08Z</time></trkpt><trkpt lat="44.44291158952124" lon="12.039284724582153"><ele>5.0</ele><time>2026-05-03T16:50:09Z</time></trkpt><trkpt lat="44.44301178371568" lon="12.039120347685511"><ele>4.666666666666667</ele><time>2026-05-03T16:50:10Z</time></trkpt><trkpt lat="44.443110355035415" lon="12.038957398083916"><ele>4.333333333333333</ele><time>2026-05-03T16:50:11Z</time></trkpt><trkpt lat="44.44320875524886" lon="12.038789724837757"><ele>4.0</ele><time>2026-05-03T16:50:12Z</time></trkpt><trkpt lat="44.44330535263736" lon="12.038625394612316"><ele>4.0</ele><time>2026-05-03T16:50:13Z</time></trkpt><trkpt lat="44.44340131017662" lon="12.038460828175667"><ele>4.0</ele><time>2026-05-03T16:50:14Z</time></trkpt><trkpt lat="44.44349808921782" lon="12.038298561716145"><ele>4.0</ele><time>2026-05-03T16:50:15Z</time></trkpt><trkpt lat="44.44359327460215" lon="12.038139015530477"><ele>4.0</ele><time>2026-05-03T16:50:16.001Z</time></trkpt><trkpt lat="44.443689495190014" lon="12.037978661654533"><ele>4.0</ele><time>2026-05-03T16:50:17.001Z</time></trkpt><trkpt lat="44.443789133977965" lon="12.037813035273105"><ele>4.0</ele><time>2026-05-03T16:50:18.001Z</time></trkpt><trkpt lat="44.443886289817485" lon="12.037650753642122"><ele>3.333333333333333</ele><time>2026-05-03T16:50:19.001Z</time></trkpt><trkpt lat="44.44398273910079" lon="12.037485757735986"><ele>2.6666666666666665</ele><time>2026-05-03T16:50:20.001Z</time></trkpt><trkpt lat="44.44408164243521" lon="12.037319832030704"><ele>2.0</ele><time>2026-05-03T16:50:21.001Z</time></trkpt><trkpt lat="44.44417720515329" lon="12.03716117810314"><ele>2.0</ele><time>2026-05-03T16:50:22.001Z</time></trkpt><trkpt lat="44.4442691211998" lon="12.037006967446208"><ele>2.0</ele><time>2026-05-03T16:50:23.001Z</time></trkpt><trkpt lat="44.44436354338345" lon="12.036848496192203"><ele>2.0</ele><time>2026-05-03T16:50:24.001Z</time></trkpt><trkpt lat="44.44445910961223" lon="12.036689530065665"><ele>2.0</ele><time>2026-05-03T16:50:25.001Z</time></trkpt><trkpt lat="44.44455210351657" lon="12.036535912908354"><ele>2.0</ele><time>2026-05-03T16:50:26.001Z</time></trkpt><trkpt lat="44.44464701499664" lon="12.036378460317502"><ele>2.0</ele><time>2026-05-03T16:50:27.001Z</time></trkpt><trkpt lat="44.4447375673979" lon="12.036224663047232"><ele>2.0</ele><time>2026-05-03T16:50:28.001Z</time></trkpt><trkpt lat="44.444830592563484" lon="12.036066990532959"><ele>2.0</ele><time>2026-05-03T16:50:29.001Z</time></trkpt><trkpt lat="44.44492524460995" lon="12.035905462973224"><ele>2.0</ele><time>2026-05-03T16:50:30.001Z</time></trkpt><trkpt lat="44.44502087505766" lon="12.03574284140659"><ele>2.0</ele><time>2026-05-03T16:50:31.001Z</time></trkpt><trkpt lat="44.44511826295545" lon="12.03558182482255"><ele>2.0</ele><time>2026-05-03T16:50:32.001Z</time></trkpt><trkpt lat="44.4452139053186" lon="12.035418325616135"><ele>2.0</ele><time>2026-05-03T16:50:33.001Z</time></trkpt><trkpt lat="44.445312062387224" lon="12.035253709506264"><ele>2.0</ele><time>2026-05-03T16:50:34.001Z</time></trkpt><trkpt lat="44.44540872818062" lon="12.035088085760362"><ele>2.0</ele><time>2026-05-03T16:50:35.001Z</time></trkpt><trkpt lat="44.445503828988286" lon="12.034916740795632"><ele>2.6666666666666665</ele><time>2026-05-03T16:50:36.001Z</time></trkpt><trkpt lat="44.44560210628096" lon="12.034743779008164"><ele>3.333333333333333</ele><time>2026-05-03T16:50:37.001Z</time></trkpt><trkpt lat="44.4457081263979" lon="12.03455784779229"><ele>4.0</ele><time>2026-05-03T16:50:38.001Z</time></trkpt><trkpt lat="44.44581355916548" lon="12.03437162867403"><ele>4.0</ele><time>2026-05-03T16:50:39.001Z</time></trkpt><trkpt lat="44.44591935281045" lon="12.034183887965419"><ele>4.0</ele><time>2026-05-03T16:50:40.001Z</time></trkpt><trkpt lat="44.44602204936254" lon="12.034001651026793"><ele>4.0</ele><time>2026-05-03T16:50:41.001Z</time></trkpt><trkpt lat="44.44613270357287" lon="12.033816213794202"><ele>4.0</ele><time>2026-05-03T16:50:42.001Z</time></trkpt><trkpt lat="44.44624600506192" lon="12.033628473233817"><ele>4.0</ele><time>2026-05-03T16:50:43.001Z</time></trkpt><trkpt lat="44.446358106149965" lon="12.033441272719397"><ele>4.0</ele><time>2026-05-03T16:50:44.001Z</time></trkpt><trkpt lat="44.446470347297215" lon="12.033250354175475"><ele>3.6666666666666665</ele><time>2026-05-03T16:50:45.001Z</time></trkpt><trkpt lat="44.446584463279585" lon="12.033063260451092"><ele>3.333333333333333</ele><time>2026-05-03T16:50:46.001Z</time></trkpt><trkpt lat="44.446697366671245" lon="12.03287460916304"><ele>3.0</ele><time>2026-05-03T16:50:47.001Z</time></trkpt><trkpt lat="44.44680792666155" lon="12.032692677325453"><ele>3.0</ele><time>2026-05-03T16:50:48.001Z</time></trkpt><trkpt lat="44.446923547119816" lon="12.032507832529964"><ele>3.0</ele><time>2026-05-03T16:50:49.001Z</time></trkpt><trkpt lat="44.447035656146184" lon="12.03232900554753"><ele>3.0</ele><time>2026-05-03T16:50:50.001Z</time></trkpt><trkpt lat="44.4471518585359" lon="12.032153333258972"><ele>3.0</ele><time>2026-05-03T16:50:51.001Z</time></trkpt><trkpt lat="44.447267699398516" lon="12.031979640453212"><ele>3.0</ele><time>2026-05-03T16:50:52.001Z</time></trkpt><trkpt lat="44.44738278861709" lon="12.031804658692616"><ele>3.0</ele><time>2026-05-03T16:50:53.001Z</time></trkpt><trkpt lat="44.447502909269325" lon="12.03162663411735"><ele>2.6666666666666665</ele><time>2026-05-03T16:50:54.001Z</time></trkpt><trkpt lat="44.44761654307493" lon="12.0314577827773"><ele>2.333333333333333</ele><time>2026-05-03T16:50:55.001Z</time></trkpt><trkpt lat="44.44773251776095" lon="12.031276788597488"><ele>2.0</ele><time>2026-05-03T16:50:56.001Z</time></trkpt><trkpt lat="44.44784870262284" lon="12.031096539145217"><ele>1.6666666666666665</ele><time>2026-05-03T16:50:57.001Z</time></trkpt><trkpt lat="44.44796651321414" lon="12.03092136020673"><ele>1.3333333333333333</ele><time>2026-05-03T16:50:58.001Z</time></trkpt><trkpt lat="44.4480794318946" lon="12.030745473827839"><ele>1.0</ele><time>2026-05-03T16:50:59.001Z</time></trkpt><trkpt lat="44.448195606953306" lon="12.030567804710666"><ele>1.0</ele><time>2026-05-03T16:51:00.001Z</time></trkpt><trkpt lat="44.448313072455626" lon="12.030389481840201"><ele>1.0</ele><time>2026-05-03T16:51:01.001Z</time></trkpt><trkpt lat="44.44843050542101" lon="12.030209142551271"><ele>1.0</ele><time>2026-05-03T16:51:02.001Z</time></trkpt><trkpt lat="44.44854712664364" lon="12.030025424648057"><ele>1.0</ele><time>2026-05-03T16:51:03.001Z</time></trkpt><trkpt lat="44.448663559390546" lon="12.02984028945051"><ele>1.0</ele><time>2026-05-03T16:51:04.001Z</time></trkpt><trkpt lat="44.44878038941562" lon="12.029660995350186"><ele>1.0</ele><time>2026-05-03T16:51:05.001Z</time></trkpt><trkpt lat="44.448901026424785" lon="12.029478227831595"><ele>1.0</ele><time>2026-05-03T16:51:06.001Z</time></trkpt><trkpt lat="44.449022822967436" lon="12.029285880393328"><ele>1.0</ele><time>2026-05-03T16:51:07.001Z</time></trkpt><trkpt lat="44.44914697199069" lon="12.029090994130351"><ele>1.0</ele><time>2026-05-03T16:51:08.001Z</time></trkpt><trkpt lat="44.44927245366064" lon="12.028895811716902"><ele>1.3333333333333333</ele><time>2026-05-03T16:51:09.001Z</time></trkpt><trkpt lat="44.449399960725685" lon="12.028700347533569"><ele>1.6666666666666665</ele><time>2026-05-03T16:51:10.001Z</time></trkpt><trkpt lat="44.44952955808157" lon="12.028504241309491"><ele>2.0</ele><time>2026-05-03T16:51:11.001Z</time></trkpt><trkpt lat="44.4496592524403" lon="12.02829859630165"><ele>2.333333333333333</ele><time>2026-05-03T16:51:12.001Z</time></trkpt><trkpt lat="44.44978662063769" lon="12.028072750361904"><ele>2.6666666666666665</ele><time>2026-05-03T16:51:13.001Z</time></trkpt><trkpt lat="44.449898417370036" lon="12.027834887620003"><ele>3.0</ele><time>2026-05-03T16:51:14.001Z</time></trkpt><trkpt lat="44.45000304787745" lon="12.027585027295446"><ele>3.0</ele><time>2026-05-03T16:51:15.001Z</time></trkpt><trkpt lat="44.45010933300676" lon="12.027317861388571"><ele>3.0</ele><time>2026-05-03T16:51:16.001Z</time></trkpt><trkpt lat="44.45021879504814" lon="12.027050465382777"><ele>3.0</ele><time>2026-05-03T16:51:17.001Z</time></trkpt><trkpt lat="44.45032785490626" lon="12.026787009449793"><ele>3.0</ele><time>2026-05-03T16:51:18.001Z</time></trkpt><trkpt lat="44.45043748599728" lon="12.026526082658217"><ele>3.0</ele><time>2026-05-03T16:51:19.001Z</time></trkpt><trkpt lat="44.45054740352252" lon="12.026262164407775"><ele>3.0</ele><time>2026-05-03T16:51:20.001Z</time></trkpt><trkpt lat="44.45065778035351" lon="12.026001858989002"><ele>2.3333333333333335</ele><time>2026-05-03T16:51:21.001Z</time></trkpt><trkpt lat="44.450768509713335" lon="12.025740687613226"><ele>1.6666666666666665</ele><time>2026-05-03T16:51:22.001Z</time></trkpt><trkpt lat="44.45087648785586" lon="12.025474153796853"><ele>1.0</ele><time>2026-05-03T16:51:23.001Z</time></trkpt><trkpt lat="44.45098550961889" lon="12.025214914366034"><ele>1.0</ele><time>2026-05-03T16:51:24.001Z</time></trkpt><trkpt lat="44.45109834286692" lon="12.024950429087582"><ele>1.0</ele><time>2026-05-03T16:51:25.001Z</time></trkpt><trkpt lat="44.45121398496079" lon="12.024681994931449"><ele>1.0</ele><time>2026-05-03T16:51:26.001Z</time></trkpt><trkpt lat="44.45132969064696" lon="12.02440934304568"><ele>1.0</ele><time>2026-05-03T16:51:27.001Z</time></trkpt><trkpt lat="44.45144310958967" lon="12.024137293292732"><ele>1.0</ele><time>2026-05-03T16:51:28.001Z</time></trkpt><trkpt lat="44.45155567454782" lon="12.023869229007"><ele>1.0</ele><time>2026-05-03T16:51:29.001Z</time></trkpt><trkpt lat="44.45167039571743" lon="12.023597477417917"><ele>1.0</ele><time>2026-05-03T16:51:30.001Z</time></trkpt><trkpt lat="44.45178470699912" lon="12.023326076449768"><ele>1.0</ele><time>2026-05-03T16:51:31.001Z</time></trkpt><trkpt lat="44.45189784709841" lon="12.023054436999002"><ele>1.0</ele><time>2026-05-03T16:51:32.001Z</time></trkpt><trkpt lat="44.4520102866021" lon="12.022788417985462"><ele>1.0</ele><time>2026-05-03T16:51:33.001Z</time></trkpt><trkpt lat="44.45212197541858" lon="12.022521573732375"><ele>1.0</ele><time>2026-05-03T16:51:34.001Z</time></trkpt><trkpt lat="44.45223317361638" lon="12.022254702071232"><ele>1.0</ele><time>2026-05-03T16:51:35.001Z</time></trkpt><trkpt lat="44.452342992521686" lon="12.0219913307051"><ele>1.6666666666666665</ele><time>2026-05-03T16:51:36.001Z</time></trkpt><trkpt lat="44.45245214293707" lon="12.021728179788976"><ele>2.3333333333333335</ele><time>2026-05-03T16:51:37.001Z</time></trkpt><trkpt lat="44.452558733884736" lon="12.021472656494494"><ele>3.0</ele><time>2026-05-03T16:51:38.001Z</time></trkpt><trkpt lat="44.452663982416006" lon="12.02122905583798"><ele>3.0</ele><time>2026-05-03T16:51:39.001Z</time></trkpt><trkpt lat="44.45275851132822" lon="12.021004644540719"><ele>3.0</ele><time>2026-05-03T16:51:40.001Z</time></trkpt><trkpt lat="44.452849082020194" lon="12.0207894631873"><ele>3.0</ele><time>2026-05-03T16:51:41.001Z</time></trkpt><trkpt lat="44.45293930322206" lon="12.020557158245714"><ele>2.6666666666666665</ele><time>2026-05-03T16:51:42.001Z</time></trkpt><trkpt lat="44.4530313061774" lon="12.020317317319464"><ele>2.333333333333333</ele><time>2026-05-03T16:51:43.001Z</time></trkpt><trkpt lat="44.45312170973524" lon="12.020065580552435"><ele>2.0</ele><time>2026-05-03T16:51:44.002Z</time></trkpt><trkpt lat="44.45320656696092" lon="12.019821995035299"><ele>1.6666666666666665</ele><time>2026-05-03T16:51:45.002Z</time></trkpt><trkpt lat="44.453293290088745" lon="12.019561164240578"><ele>1.3333333333333333</ele><time>2026-05-03T16:51:46.002Z</time></trkpt><trkpt lat="44.453384237224235" lon="12.019290602737165"><ele>1.0</ele><time>2026-05-03T16:51:47.002Z</time></trkpt><trkpt lat="44.453474352682974" lon="12.01903119837497"><ele>1.0</ele><time>2026-05-03T16:51:48.002Z</time></trkpt><trkpt lat="44.45356298980088" lon="12.018770744713658"><ele>1.0</ele><time>2026-05-03T16:51:49.002Z</time></trkpt><trkpt lat="44.453649920586585" lon="12.01850706447021"><ele>1.0</ele><time>2026-05-03T16:51:50.002Z</time></trkpt><trkpt lat="44.453736432752656" lon="12.018243759984205"><ele>1.0</ele><time>2026-05-03T16:51:51.002Z</time></trkpt><trkpt lat="44.453824362620026" lon="12.017977396201625"><ele>1.0</ele><time>2026-05-03T16:51:52.002Z</time></trkpt><trkpt lat="44.453911040344785" lon="12.017720994811786"><ele>1.0</ele><time>2026-05-03T16:51:53.002Z</time></trkpt><trkpt lat="44.453996322398275" lon="12.017467259351331"><ele>1.0</ele><time>2026-05-03T16:51:54.002Z</time></trkpt><trkpt lat="44.45408019126557" lon="12.017215807362879"><ele>1.0</ele><time>2026-05-03T16:51:54.997Z</time></trkpt><trkpt lat="44.45415951068645" lon="12.0169797452615"><ele>1.0</ele><time>2026-05-03T16:51:55.997Z</time></trkpt><trkpt lat="44.45423414051644" lon="12.01676006101433"><ele>1.6666666666666665</ele><time>2026-05-03T16:51:56.997Z</time></trkpt><trkpt lat="44.45430450843037" lon="12.016551414609898"><ele>2.3333333333333335</ele><time>2026-05-03T16:51:57.997Z</time></trkpt><trkpt lat="44.45436849452895" lon="12.016361400349036"><ele>3.0</ele><time>2026-05-03T16:51:58.997Z</time></trkpt><trkpt lat="44.45442809855299" lon="12.016184356334177"><ele>3.0</ele><time>2026-05-03T16:51:59.997Z</time></trkpt><trkpt lat="44.45448104266635" lon="12.016028691415357"><ele>3.0</ele><time>2026-05-03T16:52:00.997Z</time></trkpt><trkpt lat="44.454527392043126" lon="12.015886087136085"><ele>3.0</ele><time>2026-05-03T16:52:01.997Z</time></trkpt><trkpt lat="44.45457101812989" lon="12.015753169561734"><ele>3.0</ele><time>2026-05-03T16:52:02.998Z</time></trkpt><trkpt lat="44.45460627107364" lon="12.015642801787548"><ele>3.0</ele><time>2026-05-03T16:52:03.998Z</time></trkpt><trkpt lat="44.45463700256148" lon="12.015553061627193"><ele>3.0</ele><time>2026-05-03T16:52:04.998Z</time></trkpt><trkpt lat="44.454665222030265" lon="12.01546176582773"><ele>3.0</ele><time>2026-05-03T16:52:06.998Z</time></trkpt><trkpt lat="44.45469623719248" lon="12.015377855412678"><ele>3.0</ele><time>2026-05-03T16:52:16.999Z</time></trkpt><trkpt lat="44.45446063922138" lon="12.015203613569847"><ele>3.0</ele><time>2026-05-03T16:52:19.999Z</time></trkpt><trkpt lat="44.454373849129176" lon="12.015145682035044"><ele>2.75</ele><time>2026-05-03T16:52:20.999Z</time></trkpt><trkpt lat="44.45427477656352" lon="12.015080236344966"><ele>2.5</ele><time>2026-05-03T16:52:21.999Z</time></trkpt><trkpt lat="44.45415975222584" lon="12.015006291527762"><ele>2.25</ele><time>2026-05-03T16:52:22.999Z</time></trkpt><trkpt lat="44.45404035783087" lon="12.014931209585356"><ele>2.0</ele><time>2026-05-03T16:52:23.999Z</time></trkpt><trkpt lat="44.4539284887807" lon="12.0148559238384"><ele>2.0</ele><time>2026-05-03T16:52:24.999Z</time></trkpt><trkpt lat="44.45381263271552" lon="12.014773147503705"><ele>2.0</ele><time>2026-05-03T16:52:25.999Z</time></trkpt><trkpt lat="44.453690933677336" lon="12.01469448702853"><ele>2.0</ele><time>2026-05-03T16:52:26.999Z</time></trkpt><trkpt lat="44.45357488508479" lon="12.01461770241095"><ele>2.0</ele><time>2026-05-03T16:52:27.999Z</time></trkpt><trkpt lat="44.4534515571444" lon="12.01453634788035"><ele>2.5</ele><time>2026-05-03T16:52:28.999Z</time></trkpt><trkpt lat="44.45332676424161" lon="12.01444986740391"><ele>3.0</ele><time>2026-05-03T16:52:29.999Z</time></trkpt><trkpt lat="44.453187027633696" lon="12.014366090730443"><ele>3.5</ele><time>2026-05-03T16:52:30.999Z</time></trkpt><trkpt lat="44.45305876301664" lon="12.014283712347563"><ele>4.0</ele><time>2026-05-03T16:52:31.999Z</time></trkpt><trkpt lat="44.452940647318634" lon="12.014203499540514"><ele>3.75</ele><time>2026-05-03T16:52:32.999Z</time></trkpt><trkpt lat="44.452817765171325" lon="12.0141243639436"><ele>3.5</ele><time>2026-05-03T16:52:33.999Z</time></trkpt><trkpt lat="44.452694687635436" lon="12.014041207361789"><ele>3.25</ele><time>2026-05-03T16:52:34.999Z</time></trkpt><trkpt lat="44.452574023438814" lon="12.013960980471223"><ele>3.0</ele><time>2026-05-03T16:52:35.999Z</time></trkpt><trkpt lat="44.45244860794545" lon="12.013884048909961"><ele>3.0</ele><time>2026-05-03T16:52:36.999Z</time></trkpt><trkpt lat="44.45232429835525" lon="12.01380354632124"><ele>3.0</ele><time>2026-05-03T16:52:37.999Z</time></trkpt><trkpt lat="44.452198526210324" lon="12.013715294266595"><ele>3.0</ele><time>2026-05-03T16:52:39Z</time></trkpt><trkpt lat="44.45206769537973" lon="12.013631148714012"><ele>3.0</ele><time>2026-05-03T16:52:40Z</time></trkpt><trkpt lat="44.451939421759576" lon="12.01354765508597"><ele>3.0</ele><time>2026-05-03T16:52:41Z</time></trkpt><trkpt lat="44.451808308263686" lon="12.013461285935538"><ele>3.0</ele><time>2026-05-03T16:52:42Z</time></trkpt><trkpt lat="44.45167058727279" lon="12.013374768143887"><ele>3.0</ele><time>2026-05-03T16:52:43Z</time></trkpt><trkpt lat="44.451532323127" lon="12.01328802828948"><ele>3.0</ele><time>2026-05-03T16:52:44Z</time></trkpt><trkpt lat="44.451394216693934" lon="12.013198184388829"><ele>3.333333333333333</ele><time>2026-05-03T16:52:45Z</time></trkpt><trkpt lat="44.45125527630758" lon="12.013109481539738"><ele>3.6666666666666665</ele><time>2026-05-03T16:52:46Z</time></trkpt><trkpt lat="44.45111602156047" lon="12.013015928884958"><ele>4.0</ele><time>2026-05-03T16:52:47Z</time></trkpt><trkpt lat="44.45096961075414" lon="12.012923464813442"><ele>4.0</ele><time>2026-05-03T16:52:48Z</time></trkpt><trkpt lat="44.450829149086594" lon="12.012829541766457"><ele>4.0</ele><time>2026-05-03T16:52:49Z</time></trkpt><trkpt lat="44.45068767597922" lon="12.01273440553172"><ele>4.0</ele><time>2026-05-03T16:52:50Z</time></trkpt><trkpt lat="44.45053745794453" lon="12.012642066594632"><ele>4.0</ele><time>2026-05-03T16:52:51Z</time></trkpt><trkpt lat="44.45039467388574" lon="12.012550241774797"><ele>4.0</ele><time>2026-05-03T16:52:52Z</time></trkpt><trkpt lat="44.45024948484071" lon="12.012451126986956"><ele>4.0</ele><time>2026-05-03T16:52:53Z</time></trkpt><trkpt lat="44.45010548072381" lon="12.01235378580404"><ele>4.0</ele><time>2026-05-03T16:52:54Z</time></trkpt><trkpt lat="44.44997129226469" lon="12.012257381271324"><ele>4.0</ele><time>2026-05-03T16:52:55Z</time></trkpt><trkpt lat="44.449843752274525" lon="12.012169292155498"><ele>4.0</ele><time>2026-05-03T16:52:56Z</time></trkpt><trkpt lat="44.449731550148165" lon="12.012085764318467"><ele>4.0</ele><time>2026-05-03T16:52:57Z</time></trkpt><trkpt lat="44.44962723737036" lon="12.012010686519607"><ele>4.2</ele><time>2026-05-03T16:52:58Z</time></trkpt><trkpt lat="44.44953804648811" lon="12.011945743676085"><ele>4.4</ele><time>2026-05-03T16:52:59Z</time></trkpt><trkpt lat="44.44946138759894" lon="12.011889976014912"><ele>4.6</ele><time>2026-05-03T16:53:00Z</time></trkpt><trkpt lat="44.449396328945035" lon="12.011841889871262"><ele>4.8</ele><time>2026-05-03T16:53:01Z</time></trkpt><trkpt lat="44.44929065336217" lon="12.011752934498707"><ele>5.0</ele><time>2026-05-03T16:53:03Z</time></trkpt><trkpt lat="44.44925324792877" lon="12.011662683096636"><ele>4.6</ele><time>2026-05-03T16:53:04Z</time></trkpt><trkpt lat="44.44925389645906" lon="12.01154533537662"><ele>4.2</ele><time>2026-05-03T16:53:05Z</time></trkpt><trkpt lat="44.44929855409606" lon="12.011424739587229"><ele>3.8</ele><time>2026-05-03T16:53:06Z</time></trkpt><trkpt lat="44.449381472618974" lon="12.011312564329609"><ele>3.4</ele><time>2026-05-03T16:53:07Z</time></trkpt><trkpt lat="44.44946863070302" lon="12.011179946192128"><ele>3.0</ele><time>2026-05-03T16:53:08Z</time></trkpt><trkpt lat="44.449559775609096" lon="12.011031734183902"><ele>3.25</ele><time>2026-05-03T16:53:09Z</time></trkpt><trkpt lat="44.449651646490175" lon="12.01089391223755"><ele>3.5</ele><time>2026-05-03T16:53:10Z</time></trkpt><trkpt lat="44.4497476758882" lon="12.01074124569902"><ele>3.75</ele><time>2026-05-03T16:53:11Z</time></trkpt><trkpt lat="44.44984255213045" lon="12.010579699554153"><ele>4.0</ele><time>2026-05-03T16:53:12Z</time></trkpt><trkpt lat="44.44993574375099" lon="12.010418663900788"><ele>3.0</ele><time>2026-05-03T16:53:13Z</time></trkpt><trkpt lat="44.450030309219244" lon="12.010251119148714"><ele>2.0</ele><time>2026-05-03T16:53:14Z</time></trkpt><trkpt lat="44.450134647957505" lon="12.010082232038718"><ele>1.0</ele><time>2026-05-03T16:53:15Z</time></trkpt><trkpt lat="44.45023779736528" lon="12.009913337881612"><ele>0.6666666666666666</ele><time>2026-05-03T16:53:16Z</time></trkpt><trkpt lat="44.45033326921978" lon="12.009758818761247"><ele>0.3333333333333333</ele><time>2026-05-03T16:53:17Z</time></trkpt><trkpt lat="44.45043346016032" lon="12.009592815354747"><ele>0.0</ele><time>2026-05-03T16:53:18Z</time></trkpt><trkpt lat="44.45053685239198" lon="12.009425744579778"><ele>0.6666666666666666</ele><time>2026-05-03T16:53:19Z</time></trkpt><trkpt lat="44.45063433573723" lon="12.00924711600954"><ele>1.3333333333333333</ele><time>2026-05-03T16:53:20Z</time></trkpt><trkpt lat="44.45071638796923" lon="12.009053442824275"><ele>2.0</ele><time>2026-05-03T16:53:21Z</time></trkpt><trkpt lat="44.45078050719535" lon="12.008830460740729"><ele>2.0</ele><time>2026-05-03T16:53:22.001Z</time></trkpt><trkpt lat="44.45082948421045" lon="12.008589319531636"><ele>2.0</ele><time>2026-05-03T16:53:23.001Z</time></trkpt><trkpt lat="44.450882454228086" lon="12.00835759724498"><ele>2.0</ele><time>2026-05-03T16:53:24.001Z</time></trkpt><trkpt lat="44.450938030563336" lon="12.008131733917525"><ele>2.0</ele><time>2026-05-03T16:53:25.001Z</time></trkpt><trkpt lat="44.45099120467029" lon="12.007908364751037"><ele>2.0</ele><time>2026-05-03T16:53:26.001Z</time></trkpt><trkpt lat="44.4510353892009" lon="12.007692913950494"><ele>2.0</ele><time>2026-05-03T16:53:27.001Z</time></trkpt><trkpt lat="44.45107361393748" lon="12.007490762652392"><ele>2.0</ele><time>2026-05-03T16:53:28.001Z</time></trkpt><trkpt lat="44.45110720906122" lon="12.0073054172347"><ele>2.0</ele><time>2026-05-03T16:53:29.001Z</time></trkpt><trkpt lat="44.451138314727146" lon="12.007132548356962"><ele>2.0</ele><time>2026-05-03T16:53:30.001Z</time></trkpt><trkpt lat="44.45116462246687" lon="12.006985964054739"><ele>2.0</ele><time>2026-05-03T16:53:31.001Z</time></trkpt><trkpt lat="44.4511900223307" lon="12.006857046307045"><ele>2.0</ele><time>2026-05-03T16:53:32.001Z</time></trkpt><trkpt lat="44.45123608623073" lon="12.00674977652582"><ele>2.0</ele><time>2026-05-03T16:53:33.001Z</time></trkpt><trkpt lat="44.45131943297958" lon="12.006663666148745"><ele>2.0</ele><time>2026-05-03T16:53:34.001Z</time></trkpt><trkpt lat="44.45144155782082" lon="12.006631512218018"><ele>2.0</ele><time>2026-05-03T16:53:35.001Z</time></trkpt><trkpt lat="44.45156432965671" lon="12.006719602532847"><ele>2.0</ele><time>2026-05-03T16:53:36.001Z</time></trkpt><trkpt lat="44.45168507600656" lon="12.006802562981276"><ele>2.0</ele><time>2026-05-03T16:53:37.001Z</time></trkpt><trkpt lat="44.45180823664608" lon="12.006873708870469"><ele>2.0</ele><time>2026-05-03T16:53:38.001Z</time></trkpt><trkpt lat="44.451906493648025" lon="12.006936997548841"><ele>2.0</ele><time>2026-05-03T16:53:39.001Z</time></trkpt><trkpt lat="44.45200042150758" lon="12.006998541290178"><ele>2.0</ele><time>2026-05-03T16:53:40.001Z</time></trkpt><trkpt lat="44.45209398619024" lon="12.007040627395172"><ele>2.0</ele><time>2026-05-03T16:53:41.001Z</time></trkpt><trkpt lat="44.452199835006574" lon="12.0070305659369"><ele>2.0</ele><time>2026-05-03T16:53:42.001Z</time></trkpt><trkpt lat="44.45230238566146" lon="12.006950456789"><ele>2.0</ele><time>2026-05-03T16:53:43.001Z</time></trkpt><trkpt lat="44.45238859587764" lon="12.006811577572783"><ele>2.25</ele><time>2026-05-03T16:53:44.001Z</time></trkpt><trkpt lat="44.45246806440416" lon="12.006661522458597"><ele>2.5</ele><time>2026-05-03T16:53:45.001Z</time></trkpt><trkpt lat="44.45255801585637" lon="12.006503945924255"><ele>2.75</ele><time>2026-05-03T16:53:46.001Z</time></trkpt><trkpt lat="44.45265747957846" lon="12.006326595801054"><ele>3.0</ele><time>2026-05-03T16:53:47.001Z</time></trkpt><trkpt lat="44.45275198381305" lon="12.006145980393617"><ele>3.0</ele><time>2026-05-03T16:53:48.001Z</time></trkpt><trkpt lat="44.452844842404" lon="12.005968565812303"><ele>3.0</ele><time>2026-05-03T16:53:49.001Z</time></trkpt><trkpt lat="44.4529420748387" lon="12.005774352339538"><ele>3.0</ele><time>2026-05-03T16:53:50.001Z</time></trkpt><trkpt lat="44.453048368586074" lon="12.005554700439813"><ele>3.0</ele><time>2026-05-03T16:53:51.001Z</time></trkpt><trkpt lat="44.453153096033155" lon="12.005346421209135"><ele>3.0</ele><time>2026-05-03T16:53:52.001Z</time></trkpt><trkpt lat="44.45325754072666" lon="12.005138049832913"><ele>3.0</ele><time>2026-05-03T16:53:53.001Z</time></trkpt><trkpt lat="44.453364084016634" lon="12.004928965964815"><ele>3.0</ele><time>2026-05-03T16:53:54.001Z</time></trkpt><trkpt lat="44.45347345893927" lon="12.004713556379619"><ele>3.0</ele><time>2026-05-03T16:53:55.001Z</time></trkpt><trkpt lat="44.453588175405216" lon="12.004487426585326"><ele>3.0</ele><time>2026-05-03T16:53:56.001Z</time></trkpt><trkpt lat="44.45370432167676" lon="12.004273385033567"><ele>2.6666666666666665</ele><time>2026-05-03T16:53:57.001Z</time></trkpt><trkpt lat="44.453823670906" lon="12.004059746678024"><ele>2.333333333333333</ele><time>2026-05-03T16:53:58.001Z</time></trkpt><trkpt lat="44.453951373107444" lon="12.003827153247363"><ele>2.0</ele><time>2026-05-03T16:53:59.001Z</time></trkpt><trkpt lat="44.45408173389008" lon="12.003592352525486"><ele>2.0</ele><time>2026-05-03T16:54:00.001Z</time></trkpt><trkpt lat="44.454212710111236" lon="12.003361103407691"><ele>2.0</ele><time>2026-05-03T16:54:01Z</time></trkpt><trkpt lat="44.45434898756489" lon="12.003117435116193"><ele>2.0</ele><time>2026-05-03T16:54:02Z</time></trkpt><trkpt lat="44.4544918364539" lon="12.002863005402604"><ele>2.0</ele><time>2026-05-03T16:54:03Z</time></trkpt><trkpt lat="44.45463416529686" lon="12.002611426578586"><ele>2.0</ele><time>2026-05-03T16:54:04Z</time></trkpt><trkpt lat="44.45477769796755" lon="12.002358431231393"><ele>2.0</ele><time>2026-05-03T16:54:05Z</time></trkpt><trkpt lat="44.454924487048814" lon="12.00210214550857"><ele>2.0</ele><time>2026-05-03T16:54:06Z</time></trkpt><trkpt lat="44.455069818857744" lon="12.001845416821652"><ele>1.5</ele><time>2026-05-03T16:54:07Z</time></trkpt><trkpt lat="44.45521397362562" lon="12.001589739624139"><ele>1.0</ele><time>2026-05-03T16:54:08Z</time></trkpt><trkpt lat="44.4553547914575" lon="12.001339116236124"><ele>2.0</ele><time>2026-05-03T16:54:09Z</time></trkpt><trkpt lat="44.45549681063116" lon="12.001087961541053"><ele>3.0</ele><time>2026-05-03T16:54:10Z</time></trkpt><trkpt lat="44.455641311565344" lon="12.000835328987726"><ele>3.0</ele><time>2026-05-03T16:54:11Z</time></trkpt><trkpt lat="44.45578627689505" lon="12.0005831854482"><ele>3.0</ele><time>2026-05-03T16:54:12Z</time></trkpt><trkpt lat="44.45592952736604" lon="12.000330332189856"><ele>3.0</ele><time>2026-05-03T16:54:13Z</time></trkpt><trkpt lat="44.45607232556777" lon="12.000079594343378"><ele>3.0</ele><time>2026-05-03T16:54:14Z</time></trkpt><trkpt lat="44.456215628287744" lon="11.999827349509545"><ele>3.0</ele><time>2026-05-03T16:54:15Z</time></trkpt><trkpt lat="44.45635444931568" lon="11.999576803868733"><ele>3.0</ele><time>2026-05-03T16:54:16Z</time></trkpt><trkpt lat="44.45649453096181" lon="11.999328587218894"><ele>2.5</ele><time>2026-05-03T16:54:17Z</time></trkpt><trkpt lat="44.45663780814759" lon="11.99907791965347"><ele>2.0</ele><time>2026-05-03T16:54:18Z</time></trkpt><trkpt lat="44.4567806874536" lon="11.998826843251216"><ele>2.0</ele><time>2026-05-03T16:54:19Z</time></trkpt><trkpt lat="44.45692170097716" lon="11.998575071517807"><ele>2.0</ele><time>2026-05-03T16:54:20Z</time></trkpt><trkpt lat="44.45706314885386" lon="11.998324035871685"><ele>3.0</ele><time>2026-05-03T16:54:21Z</time></trkpt><trkpt lat="44.45720736485436" lon="11.998070380340016"><ele>4.0</ele><time>2026-05-03T16:54:22Z</time></trkpt><trkpt lat="44.457349221385286" lon="11.997818092537763"><ele>4.0</ele><time>2026-05-03T16:54:23Z</time></trkpt><trkpt lat="44.457491124629954" lon="11.997565467239252"><ele>4.0</ele><time>2026-05-03T16:54:24Z</time></trkpt><trkpt lat="44.45763081703386" lon="11.997318712107834"><ele>3.0</ele><time>2026-05-03T16:54:25Z</time></trkpt><trkpt lat="44.45777234812452" lon="11.997065048234592"><ele>2.0</ele><time>2026-05-03T16:54:26Z</time></trkpt><trkpt lat="44.45791315513244" lon="11.996814334682924"><ele>2.0</ele><time>2026-05-03T16:54:27Z</time></trkpt><trkpt lat="44.45805650620303" lon="11.996562490817377"><ele>2.0</ele><time>2026-05-03T16:54:28Z</time></trkpt><trkpt lat="44.45819946002992" lon="11.996310327606832"><ele>2.0</ele><time>2026-05-03T16:54:29Z</time></trkpt><trkpt lat="44.458340886396" lon="11.996063371070548"><ele>2.0</ele><time>2026-05-03T16:54:30Z</time></trkpt><trkpt lat="44.45848411253556" lon="11.995811740938258"><ele>2.5</ele><time>2026-05-03T16:54:31Z</time></trkpt><trkpt lat="44.45862524594193" lon="11.995563754847627"><ele>3.0</ele><time>2026-05-03T16:54:32Z</time></trkpt><trkpt lat="44.45876638048935" lon="11.99531617263432"><ele>3.0</ele><time>2026-05-03T16:54:33Z</time></trkpt><trkpt lat="44.45890948837069" lon="11.995069072645887"><ele>3.0</ele><time>2026-05-03T16:54:34Z</time></trkpt><trkpt lat="44.459049347474426" lon="11.994824245614591"><ele>2.5</ele><time>2026-05-03T16:54:35Z</time></trkpt><trkpt lat="44.459190381368074" lon="11.994576432022283"><ele>2.0</ele><time>2026-05-03T16:54:36Z</time></trkpt><trkpt lat="44.45933301552017" lon="11.994325456617718"><ele>2.5</ele><time>2026-05-03T16:54:37Z</time></trkpt><trkpt lat="44.45947600030787" lon="11.994075775028563"><ele>3.0</ele><time>2026-05-03T16:54:38Z</time></trkpt><trkpt lat="44.459618907848764" lon="11.993827328272351"><ele>3.333333333333333</ele><time>2026-05-03T16:54:39Z</time></trkpt><trkpt lat="44.45976049818655" lon="11.993580659781685"><ele>3.6666666666666665</ele><time>2026-05-03T16:54:40Z</time></trkpt><trkpt lat="44.459899657628505" lon="11.993336595894661"><ele>4.0</ele><time>2026-05-03T16:54:41Z</time></trkpt><trkpt lat="44.46003750963168" lon="11.99309941063295"><ele>3.6666666666666665</ele><time>2026-05-03T16:54:42Z</time></trkpt><trkpt lat="44.46017762793596" lon="11.992853741636779"><ele>3.333333333333333</ele><time>2026-05-03T16:54:43Z</time></trkpt><trkpt lat="44.460316337224434" lon="11.992608005231377"><ele>3.0</ele><time>2026-05-03T16:54:44.001Z</time></trkpt><trkpt lat="44.46045362512777" lon="11.99236249861966"><ele>3.0</ele><time>2026-05-03T16:54:45.001Z</time></trkpt><trkpt lat="44.460592964605006" lon="11.992116160766027"><ele>3.0</ele><time>2026-05-03T16:54:46.001Z</time></trkpt><trkpt lat="44.46073050047581" lon="11.991864762830291"><ele>3.0</ele><time>2026-05-03T16:54:47.001Z</time></trkpt><trkpt lat="44.46086878699551" lon="11.9916057515886"><ele>3.0</ele><time>2026-05-03T16:54:48.001Z</time></trkpt><trkpt lat="44.4610054073206" lon="11.991345121844267"><ele>3.0</ele><time>2026-05-03T16:54:49.001Z</time></trkpt><trkpt lat="44.46113975994563" lon="11.99108165152459"><ele>3.0</ele><time>2026-05-03T16:54:50.001Z</time></trkpt><trkpt lat="44.461273055051706" lon="11.990817578891805"><ele>2.5</ele><time>2026-05-03T16:54:51.001Z</time></trkpt><trkpt lat="44.4614094137965" lon="11.990552461403045"><ele>2.0</ele><time>2026-05-03T16:54:52.001Z</time></trkpt><trkpt lat="44.461546520711586" lon="11.990294492353424"><ele>2.0</ele><time>2026-05-03T16:54:53.001Z</time></trkpt><trkpt lat="44.461688381409935" lon="11.990035710091762"><ele>2.0</ele><time>2026-05-03T16:54:54.001Z</time></trkpt><trkpt lat="44.46183449152756" lon="11.9897809228621"><ele>2.0</ele><time>2026-05-03T16:54:55.001Z</time></trkpt><trkpt lat="44.46198383427651" lon="11.989535811712996"><ele>2.0</ele><time>2026-05-03T16:54:56.001Z</time></trkpt><trkpt lat="44.46214043125638" lon="11.989288719404643"><ele>2.5</ele><time>2026-05-03T16:54:57.001Z</time></trkpt><trkpt lat="44.462296034128194" lon="11.989043986177029"><ele>3.0</ele><time>2026-05-03T16:54:58.001Z</time></trkpt><trkpt lat="44.462451069949786" lon="11.988800685876425"><ele>3.0</ele><time>2026-05-03T16:54:59.001Z</time></trkpt><trkpt lat="44.46260749304609" lon="11.988561038207507"><ele>3.0</ele><time>2026-05-03T16:55:00.001Z</time></trkpt><trkpt lat="44.46276162831022" lon="11.988326518882003"><ele>3.0</ele><time>2026-05-03T16:55:01.001Z</time></trkpt><trkpt lat="44.46291213264673" lon="11.98809752937377"><ele>3.0</ele><time>2026-05-03T16:55:02.001Z</time></trkpt><trkpt lat="44.46305847672646" lon="11.987871982416824"><ele>3.0</ele><time>2026-05-03T16:55:03.001Z</time></trkpt><trkpt lat="44.463207371800486" lon="11.98764773042018"><ele>3.333333333333333</ele><time>2026-05-03T16:55:04.001Z</time></trkpt><trkpt lat="44.463358283374575" lon="11.987427319919574"><ele>3.6666666666666665</ele><time>2026-05-03T16:55:05.001Z</time></trkpt><trkpt lat="44.463511536632545" lon="11.987209271518287"><ele>4.0</ele><time>2026-05-03T16:55:06.001Z</time></trkpt><trkpt lat="44.46366656520533" lon="11.986994310824576"><ele>4.333333333333333</ele><time>2026-05-03T16:55:07.001Z</time></trkpt><trkpt lat="44.46382642494514" lon="11.986790173842675"><ele>4.666666666666667</ele><time>2026-05-03T16:55:08.001Z</time></trkpt><trkpt lat="44.46399217162267" lon="11.986591460297662"><ele>5.0</ele><time>2026-05-03T16:55:09.001Z</time></trkpt><trkpt lat="44.46415320140564" lon="11.986406313047334"><ele>5.0</ele><time>2026-05-03T16:55:10.001Z</time></trkpt><trkpt lat="44.464314479551824" lon="11.986217039543881"><ele>5.0</ele><time>2026-05-03T16:55:11.001Z</time></trkpt><trkpt lat="44.46447261778633" lon="11.986029006037802"><ele>5.0</ele><time>2026-05-03T16:55:12.001Z</time></trkpt><trkpt lat="44.46462643620123" lon="11.9858409241361"><ele>4.666666666666667</ele><time>2026-05-03T16:55:13.001Z</time></trkpt><trkpt lat="44.46478458902797" lon="11.985658049060527"><ele>4.333333333333333</ele><time>2026-05-03T16:55:14.001Z</time></trkpt><trkpt lat="44.464945381941305" lon="11.985478648007463"><ele>4.0</ele><time>2026-05-03T16:55:15.001Z</time></trkpt><trkpt lat="44.46510998436068" lon="11.985298499856858"><ele>4.0</ele><time>2026-05-03T16:55:16.001Z</time></trkpt><trkpt lat="44.46527816333994" lon="11.985125742470968"><ele>4.0</ele><time>2026-05-03T16:55:17.001Z</time></trkpt><trkpt lat="44.465452751584685" lon="11.984970992991954"><ele>4.0</ele><time>2026-05-03T16:55:18.001Z</time></trkpt><trkpt lat="44.46563547605362" lon="11.984822206246445"><ele>4.333333333333333</ele><time>2026-05-03T16:55:19.001Z</time></trkpt><trkpt lat="44.46581370276088" lon="11.984679744789156"><ele>4.666666666666667</ele><time>2026-05-03T16:55:20.001Z</time></trkpt><trkpt lat="44.46599216186023" lon="11.984532304962766"><ele>5.0</ele><time>2026-05-03T16:55:21.001Z</time></trkpt><trkpt lat="44.46617072820422" lon="11.984382150691154"><ele>5.0</ele><time>2026-05-03T16:55:22.001Z</time></trkpt><trkpt lat="44.46634728826309" lon="11.98423257381536"><ele>5.0</ele><time>2026-05-03T16:55:23.001Z</time></trkpt><trkpt lat="44.4665237892041" lon="11.984083539598519"><ele>5.0</ele><time>2026-05-03T16:55:24.001Z</time></trkpt><trkpt lat="44.466701436435535" lon="11.983932691711306"><ele>5.0</ele><time>2026-05-03T16:55:25.001Z</time></trkpt><trkpt lat="44.46688184574296" lon="11.983782012145985"><ele>5.0</ele><time>2026-05-03T16:55:26.001Z</time></trkpt><trkpt lat="44.46705965273822" lon="11.983634778086033"><ele>5.0</ele><time>2026-05-03T16:55:27.001Z</time></trkpt><trkpt lat="44.467240222793976" lon="11.983486216103808"><ele>5.666666666666667</ele><time>2026-05-03T16:55:28.001Z</time></trkpt><trkpt lat="44.46741803453317" lon="11.983337335153927"><ele>6.333333333333334</ele><time>2026-05-03T16:55:29.001Z</time></trkpt><trkpt lat="44.46759529185145" lon="11.983181830323186"><ele>7.0</ele><time>2026-05-03T16:55:30.001Z</time></trkpt><trkpt lat="44.46777143714057" lon="11.983030287137684"><ele>6.666666666666667</ele><time>2026-05-03T16:55:31.001Z</time></trkpt><trkpt lat="44.46795246936505" lon="11.982877309353274"><ele>6.333333333333334</ele><time>2026-05-03T16:55:32.002Z</time></trkpt><trkpt lat="44.46812828718708" lon="11.982725748210987"><ele>6.0</ele><time>2026-05-03T16:55:33.002Z</time></trkpt><trkpt lat="44.468302155287105" lon="11.982578904731302"><ele>6.333333333333334</ele><time>2026-05-03T16:55:34.002Z</time></trkpt><trkpt lat="44.46847247084919" lon="11.982437281845872"><ele>6.666666666666667</ele><time>2026-05-03T16:55:35.002Z</time></trkpt><trkpt lat="44.46862759268753" lon="11.982307395924584"><ele>7.0</ele><time>2026-05-03T16:55:36.002Z</time></trkpt><trkpt lat="44.46877188442851" lon="11.982182384225961"><ele>6.75</ele><time>2026-05-03T16:55:37.002Z</time></trkpt><trkpt lat="44.46890597494598" lon="11.982068673545577"><ele>6.5</ele><time>2026-05-03T16:55:38.002Z</time></trkpt><trkpt lat="44.46903121316902" lon="11.981965019234044"><ele>6.25</ele><time>2026-05-03T16:55:39.002Z</time></trkpt><trkpt lat="44.46914460690829" lon="11.981870958368324"><ele>6.0</ele><time>2026-05-03T16:55:40.002Z</time></trkpt><trkpt lat="44.46924949809011" lon="11.98178287924961"><ele>6.0</ele><time>2026-05-03T16:55:41.002Z</time></trkpt><trkpt lat="44.469335886356546" lon="11.981705335644557"><ele>6.0</ele><time>2026-05-03T16:55:42.002Z</time></trkpt><trkpt lat="44.469401592911105" lon="11.981652394243747"><ele>6.0</ele><time>2026-05-03T16:55:43.002Z</time></trkpt><trkpt lat="44.46949745542365" lon="11.981572872632954"><ele>6.0</ele><time>2026-05-03T16:55:45.002Z</time></trkpt><trkpt lat="44.46955549890512" lon="11.981524718787647"><ele>6.0</ele><time>2026-05-03T16:55:47.002Z</time></trkpt><trkpt lat="44.46961093361395" lon="11.98146027914305"><ele>6.0</ele><time>2026-05-03T16:55:55.002Z</time></trkpt><trkpt lat="44.469602084965096" lon="11.98130930939526"><ele>5.8</ele><time>2026-05-03T16:55:57.002Z</time></trkpt><trkpt lat="44.46954836472178" lon="11.981222089126513"><ele>5.6</ele><time>2026-05-03T16:55:58.002Z</time></trkpt><trkpt lat="44.4695059749056" lon="11.981139213021521"><ele>5.4</ele><time>2026-05-03T16:55:59.002Z</time></trkpt><trkpt lat="44.469450538507246" lon="11.981036206121608"><ele>5.2</ele><time>2026-05-03T16:56:00.002Z</time></trkpt><trkpt lat="44.46938844621798" lon="11.980904001673293"><ele>5.0</ele><time>2026-05-03T16:56:01.002Z</time></trkpt><trkpt lat="44.469318048860764" lon="11.980752373054145"><ele>5.0</ele><time>2026-05-03T16:56:02.002Z</time></trkpt><trkpt lat="44.46924289693195" lon="11.98058518096768"><ele>5.0</ele><time>2026-05-03T16:56:03.002Z</time></trkpt><trkpt lat="44.469170933162815" lon="11.980417670438154"><ele>5.0</ele><time>2026-05-03T16:56:04.002Z</time></trkpt><trkpt lat="44.469107178152264" lon="11.980240975555372"><ele>5.0</ele><time>2026-05-03T16:56:05.002Z</time></trkpt><trkpt lat="44.46905716614113" lon="11.98005404380633"><ele>5.666666666666667</ele><time>2026-05-03T16:56:06.002Z</time></trkpt><trkpt lat="44.46902036591293" lon="11.979855704253078"><ele>6.333333333333334</ele><time>2026-05-03T16:56:07.001Z</time></trkpt><trkpt lat="44.46899024067875" lon="11.979636400349472"><ele>7.0</ele><time>2026-05-03T16:56:08.001Z</time></trkpt><trkpt lat="44.46896681757112" lon="11.97940716718435"><ele>7.333333333333334</ele><time>2026-05-03T16:56:09.001Z</time></trkpt><trkpt lat="44.468944720275054" lon="11.97917144785325"><ele>7.666666666666666</ele><time>2026-05-03T16:56:10.001Z</time></trkpt><trkpt lat="44.46891854272728" lon="11.978937782447577"><ele>8.0</ele><time>2026-05-03T16:56:11.001Z</time></trkpt><trkpt lat="44.46889040168242" lon="11.978701705986888"><ele>8.0</ele><time>2026-05-03T16:56:12.001Z</time></trkpt><trkpt lat="44.46886443907857" lon="11.978459308733651"><ele>8.0</ele><time>2026-05-03T16:56:13.001Z</time></trkpt><trkpt lat="44.4688391963631" lon="11.97822135353293"><ele>8.0</ele><time>2026-05-03T16:56:14.001Z</time></trkpt><trkpt lat="44.46881124199838" lon="11.97797816036356"><ele>8.0</ele><time>2026-05-03T16:56:15.001Z</time></trkpt><trkpt lat="44.46878247477055" lon="11.977718409586087"><ele>8.0</ele><time>2026-05-03T16:56:16.001Z</time></trkpt><trkpt lat="44.468751728721415" lon="11.97746200483027"><ele>8.0</ele><time>2026-05-03T16:56:17.001Z</time></trkpt><trkpt lat="44.46872067931208" lon="11.97720212289492"><ele>8.0</ele><time>2026-05-03T16:56:18.001Z</time></trkpt><trkpt lat="44.46869215060135" lon="11.976948220664136"><ele>8.0</ele><time>2026-05-03T16:56:19.001Z</time></trkpt><trkpt lat="44.46865961269801" lon="11.976696594427947"><ele>8.0</ele><time>2026-05-03T16:56:20.001Z</time></trkpt><trkpt lat="44.4686282323717" lon="11.976437774682326"><ele>8.0</ele><time>2026-05-03T16:56:21.001Z</time></trkpt><trkpt lat="44.4685894037414" lon="11.976180828535947"><ele>8.0</ele><time>2026-05-03T16:56:22.001Z</time></trkpt><trkpt lat="44.46853375303961" lon="11.975932771359616"><ele>8.0</ele><time>2026-05-03T16:56:23.001Z</time></trkpt><trkpt lat="44.468462789584315" lon="11.975678564608794"><ele>8.0</ele><time>2026-05-03T16:56:24.001Z</time></trkpt><trkpt lat="44.4683818077081" lon="11.975423326908874"><ele>8.0</ele><time>2026-05-03T16:56:25.001Z</time></trkpt><trkpt lat="44.46830083046373" lon="11.975177724493546"><ele>8.0</ele><time>2026-05-03T16:56:26.001Z</time></trkpt><trkpt lat="44.46821270533456" lon="11.974929509945374"><ele>8.0</ele><time>2026-05-03T16:56:27.001Z</time></trkpt><trkpt lat="44.468121231130674" lon="11.974693190126793"><ele>8.0</ele><time>2026-05-03T16:56:28.001Z</time></trkpt><trkpt lat="44.468016976719746" lon="11.974470382503853"><ele>8.0</ele><time>2026-05-03T16:56:29.001Z</time></trkpt><trkpt lat="44.467902780251514" lon="11.974262176233735"><ele>7.666666666666666</ele><time>2026-05-03T16:56:30.001Z</time></trkpt><trkpt lat="44.46778333483246" lon="11.974060891543601"><ele>7.333333333333334</ele><time>2026-05-03T16:56:31.001Z</time></trkpt><trkpt lat="44.46765691736195" lon="11.973866577286193"><ele>7.0</ele><time>2026-05-03T16:56:32.001Z</time></trkpt><trkpt lat="44.46752561164265" lon="11.973670484193741"><ele>7.0</ele><time>2026-05-03T16:56:33.001Z</time></trkpt><trkpt lat="44.46739558964285" lon="11.973469673583626"><ele>7.0</ele><time>2026-05-03T16:56:34.001Z</time></trkpt><trkpt lat="44.467267536083746" lon="11.973249980209133"><ele>7.0</ele><time>2026-05-03T16:56:35.001Z</time></trkpt><trkpt lat="44.46714945622504" lon="11.973023170177562"><ele>7.0</ele><time>2026-05-03T16:56:36.001Z</time></trkpt><trkpt lat="44.467036376630936" lon="11.97278787707589"><ele>7.0</ele><time>2026-05-03T16:56:37.001Z</time></trkpt><trkpt lat="44.466928512111316" lon="11.972538134502415"><ele>7.0</ele><time>2026-05-03T16:56:38.001Z</time></trkpt><trkpt lat="44.4668248227296" lon="11.972297457744355"><ele>7.666666666666667</ele><time>2026-05-03T16:56:39.001Z</time></trkpt><trkpt lat="44.46672045155435" lon="11.97206060926258"><ele>8.333333333333334</ele><time>2026-05-03T16:56:40.001Z</time></trkpt><trkpt lat="44.4666140795327" lon="11.971819586549435"><ele>9.0</ele><time>2026-05-03T16:56:41.001Z</time></trkpt><trkpt lat="44.46650954050221" lon="11.971576655974893"><ele>9.0</ele><time>2026-05-03T16:56:42.001Z</time></trkpt><trkpt lat="44.46640782445106" lon="11.97133432583294"><ele>9.0</ele><time>2026-05-03T16:56:43.001Z</time></trkpt><trkpt lat="44.46630328515457" lon="11.971093264438176"><ele>9.0</ele><time>2026-05-03T16:56:44.001Z</time></trkpt><trkpt lat="44.466206232554235" lon="11.970865545329374"><ele>8.0</ele><time>2026-05-03T16:56:45.001Z</time></trkpt><trkpt lat="44.46611481485947" lon="11.970644515928754"><ele>7.0</ele><time>2026-05-03T16:56:46.001Z</time></trkpt><trkpt lat="44.46602870149748" lon="11.970433819676657"><ele>6.0</ele><time>2026-05-03T16:56:47.001Z</time></trkpt><trkpt lat="44.46595085433081" lon="11.97024785760855"><ele>6.0</ele><time>2026-05-03T16:56:48.001Z</time></trkpt><trkpt lat="44.465873231731585" lon="11.970065741016583"><ele>6.0</ele><time>2026-05-03T16:56:49.001Z</time></trkpt><trkpt lat="44.46580078974794" lon="11.969894467789691"><ele>6.0</ele><time>2026-05-03T16:56:50.001Z</time></trkpt><trkpt lat="44.46573427994022" lon="11.969729639471096"><ele>6.0</ele><time>2026-05-03T16:56:51.001Z</time></trkpt><trkpt lat="44.46566782337082" lon="11.969565745269616"><ele>6.4</ele><time>2026-05-03T16:56:52.001Z</time></trkpt><trkpt lat="44.46560389289999" lon="11.969406899674754"><ele>6.8</ele><time>2026-05-03T16:56:53.001Z</time></trkpt><trkpt lat="44.465544053653545" lon="11.969262123757472"><ele>7.200000000000001</ele><time>2026-05-03T16:56:54.001Z</time></trkpt><trkpt lat="44.46549044707872" lon="11.96913145727491"><ele>7.6000000000000005</ele><time>2026-05-03T16:56:55.001Z</time></trkpt><trkpt lat="44.46544471850791" lon="11.969019543032726"><ele>8.0</ele><time>2026-05-03T16:56:56.001Z</time></trkpt><trkpt lat="44.46540330388744" lon="11.96891402516603"><ele>7.999999999999999</ele><time>2026-05-03T16:56:57.001Z</time></trkpt><trkpt lat="44.46536748219788" lon="11.968827176810803"><ele>8.0</ele><time>2026-05-03T16:56:58.001Z</time></trkpt><trkpt lat="44.46533619133408" lon="11.968750167013736"><ele>8.0</ele><time>2026-05-03T16:56:59.001Z</time></trkpt><trkpt lat="44.465288622205485" lon="11.968633518432954"><ele>8.0</ele><time>2026-05-03T16:57:01.001Z</time></trkpt><trkpt lat="44.465240437686354" lon="11.968530498728068"><ele>7.999999999999999</ele><time>2026-05-03T16:57:04.001Z</time></trkpt><trkpt lat="44.465226351776856" lon="11.968442830305962"><ele>8.0</ele><time>2026-05-03T16:57:07.001Z</time></trkpt><trkpt lat="44.465347891945825" lon="11.968283106465686"><ele>8.200000000000001</ele><time>2026-05-03T16:57:12.001Z</time></trkpt><trkpt lat="44.46541552317363" lon="11.968227825085137"><ele>8.4</ele><time>2026-05-03T16:57:13.001Z</time></trkpt><trkpt lat="44.465487554932665" lon="11.968163514898343"><ele>8.600000000000001</ele><time>2026-05-03T16:57:14.001Z</time></trkpt><trkpt lat="44.46557278234695" lon="11.968083594262403"><ele>8.8</ele><time>2026-05-03T16:57:15.001Z</time></trkpt><trkpt lat="44.46566169437341" lon="11.96799918562076"><ele>9.0</ele><time>2026-05-03T16:57:16.001Z</time></trkpt><trkpt lat="44.46575166791979" lon="11.96791232004682"><ele>9.0</ele><time>2026-05-03T16:57:17.001Z</time></trkpt><trkpt lat="44.465846789585605" lon="11.967816968572656"><ele>9.0</ele><time>2026-05-03T16:57:18.002Z</time></trkpt><trkpt lat="44.465947073594876" lon="11.967725204782269"><ele>9.0</ele><time>2026-05-03T16:57:19.002Z</time></trkpt><trkpt lat="44.466032731399196" lon="11.967623365321916"><ele>9.0</ele><time>2026-05-03T16:57:20.002Z</time></trkpt><trkpt lat="44.46611648364635" lon="11.967492496166116"><ele>9.25</ele><time>2026-05-03T16:57:21.002Z</time></trkpt><trkpt lat="44.46619022745595" lon="11.967358739746848"><ele>9.5</ele><time>2026-05-03T16:57:22.002Z</time></trkpt><trkpt lat="44.46626449583694" lon="11.96721510385951"><ele>9.75</ele><time>2026-05-03T16:57:23.002Z</time></trkpt><trkpt lat="44.46632247449432" lon="11.967068645748457"><ele>10.0</ele><time>2026-05-03T16:57:24.002Z</time></trkpt><trkpt lat="44.466375511025866" lon="11.966898358780043"><ele>9.5</ele><time>2026-05-03T16:57:25.002Z</time></trkpt><trkpt lat="44.46641431972006" lon="11.966727403537044"><ele>9.0</ele><time>2026-05-03T16:57:26.002Z</time></trkpt><trkpt lat="44.46644243292479" lon="11.966558699688738"><ele>8.5</ele><time>2026-05-03T16:57:27.002Z</time></trkpt><trkpt lat="44.4664701955878" lon="11.966399256351393"><ele>8.0</ele><time>2026-05-03T16:57:28.002Z</time></trkpt><trkpt lat="44.46649314062607" lon="11.966234215430509"><ele>8.0</ele><time>2026-05-03T16:57:29.002Z</time></trkpt><trkpt lat="44.4665136487468" lon="11.966075470796184"><ele>8.0</ele><time>2026-05-03T16:57:30.002Z</time></trkpt><trkpt lat="44.466533291131526" lon="11.965930948144175"><ele>8.0</ele><time>2026-05-03T16:57:31.002Z</time></trkpt><trkpt lat="44.46655874081916" lon="11.96578555490081"><ele>8.0</ele><time>2026-05-03T16:57:32.002Z</time></trkpt><trkpt lat="44.46658387378637" lon="11.965622248463838"><ele>8.0</ele><time>2026-05-03T16:57:33.002Z</time></trkpt><trkpt lat="44.466611320880716" lon="11.96545692706832"><ele>8.0</ele><time>2026-05-03T16:57:34.002Z</time></trkpt><trkpt lat="44.46664032456702" lon="11.965294929264267"><ele>8.0</ele><time>2026-05-03T16:57:35.002Z</time></trkpt><trkpt lat="44.46666289333424" lon="11.965139958633221"><ele>8.0</ele><time>2026-05-03T16:57:36.002Z</time></trkpt><trkpt lat="44.46668537335932" lon="11.964998512847092"><ele>8.0</ele><time>2026-05-03T16:57:37.002Z</time></trkpt><trkpt lat="44.46670461742178" lon="11.964862627728186"><ele>8.0</ele><time>2026-05-03T16:57:38.002Z</time></trkpt><trkpt lat="44.46672807828933" lon="11.964728807858158"><ele>8.0</ele><time>2026-05-03T16:57:39.002Z</time></trkpt><trkpt lat="44.46674635446659" lon="11.96460818029716"><ele>8.0</ele><time>2026-05-03T16:57:40.002Z</time></trkpt><trkpt lat="44.46676111459297" lon="11.964505815646124"><ele>8.0</ele><time>2026-05-03T16:57:41.002Z</time></trkpt><trkpt lat="44.46677019020618" lon="11.964410114539325"><ele>8.0</ele><time>2026-05-03T16:57:42.002Z</time></trkpt><trkpt lat="44.46679277533646" lon="11.964234094586374"><ele>8.0</ele><time>2026-05-03T16:57:44.002Z</time></trkpt><trkpt lat="44.46692106982888" lon="11.96409539327341"><ele>8.200000000000001</ele><time>2026-05-03T16:57:46.002Z</time></trkpt><trkpt lat="44.46702192617876" lon="11.964105741704289"><ele>8.4</ele><time>2026-05-03T16:57:47.002Z</time></trkpt><trkpt lat="44.467128041330916" lon="11.9641529662833"><ele>8.600000000000001</ele><time>2026-05-03T16:57:48.002Z</time></trkpt><trkpt lat="44.467234406676845" lon="11.964204813276503"><ele>8.8</ele><time>2026-05-03T16:57:49.002Z</time></trkpt><trkpt lat="44.46732486721565" lon="11.964243180413636"><ele>9.0</ele><time>2026-05-03T16:57:50.002Z</time></trkpt><trkpt lat="44.467417097509134" lon="11.96427608688544"><ele>9.0</ele><time>2026-05-03T16:57:51.002Z</time></trkpt><trkpt lat="44.467497772683046" lon="11.964306201321557"><ele>9.0</ele><time>2026-05-03T16:57:52.002Z</time></trkpt><trkpt lat="44.46757687748723" lon="11.964334115611472"><ele>9.0</ele><time>2026-05-03T16:57:53.002Z</time></trkpt><trkpt lat="44.467676708976896" lon="11.964375469851626"><ele>9.0</ele><time>2026-05-03T16:57:54.002Z</time></trkpt><trkpt lat="44.46779029132606" lon="11.96442354383488"><ele>9.0</ele><time>2026-05-03T16:57:55.002Z</time></trkpt><trkpt lat="44.46791422509297" lon="11.964473998860145"><ele>8.75</ele><time>2026-05-03T16:57:56.002Z</time></trkpt><trkpt lat="44.468040110598125" lon="11.964532118613205"><ele>8.5</ele><time>2026-05-03T16:57:57.002Z</time></trkpt><trkpt lat="44.46817893638215" lon="11.964586064622988"><ele>8.25</ele><time>2026-05-03T16:57:58.002Z</time></trkpt><trkpt lat="44.46831704978867" lon="11.9646467382566"><ele>8.0</ele><time>2026-05-03T16:57:59.002Z</time></trkpt><trkpt lat="44.46845235848055" lon="11.964707550148692"><ele>8.0</ele><time>2026-05-03T16:58:00.002Z</time></trkpt><trkpt lat="44.46858800190361" lon="11.964770536403064"><ele>8.0</ele><time>2026-05-03T16:58:01.002Z</time></trkpt><trkpt lat="44.46872889275141" lon="11.964842070589897"><ele>8.0</ele><time>2026-05-03T16:58:02.002Z</time></trkpt><trkpt lat="44.46886957313988" lon="11.964914535542437"><ele>8.0</ele><time>2026-05-03T16:58:03.002Z</time></trkpt><trkpt lat="44.4690118373459" lon="11.964985036718277"><ele>7.666666666666666</ele><time>2026-05-03T16:58:04.002Z</time></trkpt><trkpt lat="44.46916293522279" lon="11.96504918344068"><ele>7.333333333333334</ele><time>2026-05-03T16:58:05.002Z</time></trkpt><trkpt lat="44.469314700262544" lon="11.965112586615984"><ele>7.0</ele><time>2026-05-03T16:58:06.002Z</time></trkpt><trkpt lat="44.469467884728246" lon="11.96517656859581"><ele>7.0</ele><time>2026-05-03T16:58:07.002Z</time></trkpt><trkpt lat="44.46961965723286" lon="11.965244106458933"><ele>7.0</ele><time>2026-05-03T16:58:08.002Z</time></trkpt><trkpt lat="44.46976965868372" lon="11.965311652923306"><ele>7.0</ele><time>2026-05-03T16:58:09.002Z</time></trkpt><trkpt lat="44.469907175570455" lon="11.965371699191694"><ele>7.0</ele><time>2026-05-03T16:58:10.002Z</time></trkpt><trkpt lat="44.47003593764835" lon="11.96542535925256"><ele>7.0</ele><time>2026-05-03T16:58:11.002Z</time></trkpt><trkpt lat="44.470171942481535" lon="11.965482865134296"><ele>7.0</ele><time>2026-05-03T16:58:12.002Z</time></trkpt><trkpt lat="44.4703055403533" lon="11.965548483703433"><ele>7.0</ele><time>2026-05-03T16:58:13.001Z</time></trkpt><trkpt lat="44.47044891333646" lon="11.965614375495596"><ele>7.0</ele><time>2026-05-03T16:58:14.001Z</time></trkpt><trkpt lat="44.4705878846403" lon="11.965681509630496"><ele>7.0</ele><time>2026-05-03T16:58:15.001Z</time></trkpt><trkpt lat="44.47072824135004" lon="11.965748475451482"><ele>7.0</ele><time>2026-05-03T16:58:16.001Z</time></trkpt><trkpt lat="44.47087507820117" lon="11.965814802323084"><ele>7.0</ele><time>2026-05-03T16:58:17.001Z</time></trkpt><trkpt lat="44.47102222016911" lon="11.965884542359275"><ele>7.0</ele><time>2026-05-03T16:58:18.001Z</time></trkpt><trkpt lat="44.47116815095248" lon="11.965950775475443"><ele>7.0</ele><time>2026-05-03T16:58:19.001Z</time></trkpt><trkpt lat="44.47131555514563" lon="11.96601911457943"><ele>7.0</ele><time>2026-05-03T16:58:20.001Z</time></trkpt><trkpt lat="44.47145812138709" lon="11.96608850571752"><ele>7.0</ele><time>2026-05-03T16:58:21.001Z</time></trkpt><trkpt lat="44.47160447965729" lon="11.966156793414278"><ele>7.0</ele><time>2026-05-03T16:58:22.001Z</time></trkpt><trkpt lat="44.47175184802033" lon="11.966221861945286"><ele>7.0</ele><time>2026-05-03T16:58:23.001Z</time></trkpt><trkpt lat="44.47189734785297" lon="11.966281451711339"><ele>7.0</ele><time>2026-05-03T16:58:24.001Z</time></trkpt><trkpt lat="44.472030785203714" lon="11.966328268264547"><ele>7.0</ele><time>2026-05-03T16:58:25.001Z</time></trkpt><trkpt lat="44.47215626878238" lon="11.966363023169372"><ele>7.0</ele><time>2026-05-03T16:58:26.001Z</time></trkpt><trkpt lat="44.47227418219502" lon="11.966395303401182"><ele>7.0</ele><time>2026-05-03T16:58:27.001Z</time></trkpt><trkpt lat="44.47238706264565" lon="11.9664265588894"><ele>6.999999999999999</ele><time>2026-05-03T16:58:28.001Z</time></trkpt><trkpt lat="44.47248732862031" lon="11.96644963043442"><ele>6.999999999999999</ele><time>2026-05-03T16:58:29.001Z</time></trkpt><trkpt lat="44.47258820092163" lon="11.966470911563398"><ele>7.0</ele><time>2026-05-03T16:58:30.001Z</time></trkpt><trkpt lat="44.47269392624542" lon="11.96649838597179"><ele>7.0</ele><time>2026-05-03T16:58:31.001Z</time></trkpt><trkpt lat="44.472789928642385" lon="11.966515908872235"><ele>7.0</ele><time>2026-05-03T16:58:32.001Z</time></trkpt><trkpt lat="44.47287369126192" lon="11.966533859935865"><ele>6.999999999999999</ele><time>2026-05-03T16:58:33.001Z</time></trkpt><trkpt lat="44.472946593531724" lon="11.966550194875726"><ele>6.999999999999999</ele><time>2026-05-03T16:58:34.001Z</time></trkpt><trkpt lat="44.47301267540533" lon="11.966569513389226"><ele>7.0</ele><time>2026-05-03T16:58:35.001Z</time></trkpt><trkpt lat="44.47311372518731" lon="11.966593436452623"><ele>7.0</ele><time>2026-05-03T16:58:37.001Z</time></trkpt><trkpt lat="44.47316392885151" lon="11.966370129945693"><ele>7.0</ele><time>2026-05-03T16:58:39.001Z</time></trkpt><trkpt lat="44.4731813038884" lon="11.966240826999195"><ele>6.999999999999999</ele><time>2026-05-03T16:58:40.001Z</time></trkpt><trkpt lat="44.47319913007851" lon="11.966104301081328"><ele>6.999999999999999</ele><time>2026-05-03T16:58:41.001Z</time></trkpt><trkpt lat="44.473226106537716" lon="11.965946038609289"><ele>7.0</ele><time>2026-05-03T16:58:42.001Z</time></trkpt><trkpt lat="44.473255823359494" lon="11.96577556103929"><ele>7.0</ele><time>2026-05-03T16:58:43.001Z</time></trkpt><trkpt lat="44.47328157867357" lon="11.965608688176793"><ele>7.0</ele><time>2026-05-03T16:58:44.001Z</time></trkpt><trkpt lat="44.473308181773" lon="11.965434171652863"><ele>7.0</ele><time>2026-05-03T16:58:45.001Z</time></trkpt><trkpt lat="44.4733377233965" lon="11.96525298089313"><ele>7.0</ele><time>2026-05-03T16:58:46.001Z</time></trkpt><trkpt lat="44.4733691596875" lon="11.96505280077059"><ele>7.0</ele><time>2026-05-03T16:58:47.001Z</time></trkpt><trkpt lat="44.47340056357886" lon="11.964852466816376"><ele>7.0</ele><time>2026-05-03T16:58:48.001Z</time></trkpt><trkpt lat="44.473430211308155" lon="11.964654738837861"><ele>7.0</ele><time>2026-05-03T16:58:49.001Z</time></trkpt><trkpt lat="44.47346082759205" lon="11.964463563837146"><ele>7.0</ele><time>2026-05-03T16:58:50.001Z</time></trkpt><trkpt lat="44.47349090876814" lon="11.964278168835172"><ele>7.0</ele><time>2026-05-03T16:58:51.001Z</time></trkpt><trkpt lat="44.4735219063231" lon="11.964097781908833"><ele>7.0</ele><time>2026-05-03T16:58:52.001Z</time></trkpt><trkpt lat="44.473547920739065" lon="11.963937262208217"><ele>6.999999999999999</ele><time>2026-05-03T16:58:53.001Z</time></trkpt><trkpt lat="44.47357478572212" lon="11.963790607119169"><ele>6.999999999999999</ele><time>2026-05-03T16:58:54.001Z</time></trkpt><trkpt lat="44.47359512542428" lon="11.963654430101474"><ele>7.0</ele><time>2026-05-03T16:58:55.001Z</time></trkpt><trkpt lat="44.47362040083488" lon="11.9635216998024"><ele>7.0</ele><time>2026-05-03T16:58:56.001Z</time></trkpt><trkpt lat="44.47364060106887" lon="11.963372737171062"><ele>6.6</ele><time>2026-05-03T16:58:57.001Z</time></trkpt><trkpt lat="44.47366187561281" lon="11.963226344581196"><ele>6.199999999999999</ele><time>2026-05-03T16:58:58.001Z</time></trkpt><trkpt lat="44.473682933514866" lon="11.963088295826992"><ele>5.8</ele><time>2026-05-03T16:58:59.001Z</time></trkpt><trkpt lat="44.4737038834561" lon="11.962968531401316"><ele>5.4</ele><time>2026-05-03T16:59:00.001Z</time></trkpt><trkpt lat="44.473721895411146" lon="11.962860706078951"><ele>5.0</ele><time>2026-05-03T16:59:01.001Z</time></trkpt><trkpt lat="44.473743569121815" lon="11.962753860727215"><ele>5.0</ele><time>2026-05-03T16:59:02.001Z</time></trkpt><trkpt lat="44.47376754926104" lon="11.962645388035314"><ele>5.0</ele><time>2026-05-03T16:59:03.001Z</time></trkpt><trkpt lat="44.47379544187856" lon="11.962530200545254"><ele>5.0</ele><time>2026-05-03T16:59:04.001Z</time></trkpt><trkpt lat="44.473829428428395" lon="11.96239678040049"><ele>5.0</ele><time>2026-05-03T16:59:05.001Z</time></trkpt><trkpt lat="44.47386484174025" lon="11.962253779589666"><ele>5.0</ele><time>2026-05-03T16:59:06.001Z</time></trkpt><trkpt lat="44.47389776772596" lon="11.96212120545992"><ele>5.0</ele><time>2026-05-03T16:59:07.001Z</time></trkpt><trkpt lat="44.473927097482736" lon="11.962015426256315"><ele>5.0</ele><time>2026-05-03T16:59:08.001Z</time></trkpt><trkpt lat="44.473951717708445" lon="11.961922595815935"><ele>5.0</ele><time>2026-05-03T16:59:09.001Z</time></trkpt><trkpt lat="44.473988099469466" lon="11.961801652685521"><ele>5.0</ele><time>2026-05-03T16:59:11.001Z</time></trkpt><trkpt lat="44.47403157717499" lon="11.961733327381486"><ele>5.0</ele><time>2026-05-03T16:59:13.001Z</time></trkpt><trkpt lat="44.47406634981123" lon="11.961622648555837"><ele>5.0</ele><time>2026-05-03T16:59:17.001Z</time></trkpt><trkpt lat="44.474081584557" lon="11.96153667794772"><ele>4.8</ele><time>2026-05-03T16:59:18.001Z</time></trkpt><trkpt lat="44.47409628412975" lon="11.961424730985986"><ele>4.6</ele><time>2026-05-03T16:59:19.001Z</time></trkpt><trkpt lat="44.47412519362518" lon="11.961312003023648"><ele>4.4</ele><time>2026-05-03T16:59:20.001Z</time></trkpt><trkpt lat="44.47415111749484" lon="11.961199254118538"><ele>4.2</ele><time>2026-05-03T16:59:21.001Z</time></trkpt><trkpt lat="44.474183479079976" lon="11.961057862607134"><ele>4.0</ele><time>2026-05-03T16:59:22.001Z</time></trkpt><trkpt lat="44.47422315851426" lon="11.960905605798372"><ele>3.75</ele><time>2026-05-03T16:59:23.001Z</time></trkpt><trkpt lat="44.474238367776486" lon="11.96073941915938"><ele>3.5</ele><time>2026-05-03T16:59:24.001Z</time></trkpt><trkpt lat="44.474258263980495" lon="11.960546722219489"><ele>3.25</ele><time>2026-05-03T16:59:25.001Z</time></trkpt><trkpt lat="44.474281129539186" lon="11.960322160500956"><ele>3.0</ele><time>2026-05-03T16:59:26.001Z</time></trkpt><trkpt lat="44.47430455371497" lon="11.960101597951185"><ele>3.5</ele><time>2026-05-03T16:59:27.001Z</time></trkpt><trkpt lat="44.47432416009093" lon="11.959914184003038"><ele>4.0</ele><time>2026-05-03T16:59:28.001Z</time></trkpt><trkpt lat="44.47434667673598" lon="11.959741306772314"><ele>4.5</ele><time>2026-05-03T16:59:29.001Z</time></trkpt><trkpt lat="44.4743748926303" lon="11.959584911803757"><ele>5.0</ele><time>2026-05-03T16:59:30.001Z</time></trkpt><trkpt lat="44.4744096186625" lon="11.959417484427574"><ele>5.0</ele><time>2026-05-03T16:59:31.001Z</time></trkpt><trkpt lat="44.47445669162889" lon="11.959229885569943"><ele>5.0</ele><time>2026-05-03T16:59:32.001Z</time></trkpt><trkpt lat="44.474509630814076" lon="11.959037307902022"><ele>5.0</ele><time>2026-05-03T16:59:33.002Z</time></trkpt><trkpt lat="44.47457303015368" lon="11.958844078329188"><ele>5.0</ele><time>2026-05-03T16:59:34.002Z</time></trkpt><trkpt lat="44.47463496527971" lon="11.958644622757262"><ele>4.666666666666667</ele><time>2026-05-03T16:59:35.002Z</time></trkpt><trkpt lat="44.47469998668974" lon="11.958446215496739"><ele>4.333333333333333</ele><time>2026-05-03T16:59:36.002Z</time></trkpt><trkpt lat="44.474769283807134" lon="11.958242382136095"><ele>4.0</ele><time>2026-05-03T16:59:37.002Z</time></trkpt><trkpt lat="44.47484056999757" lon="11.958039972072239"><ele>4.0</ele><time>2026-05-03T16:59:38.002Z</time></trkpt><trkpt lat="44.47491388295991" lon="11.957839945446276"><ele>4.0</ele><time>2026-05-03T16:59:39.002Z</time></trkpt><trkpt lat="44.47498673233542" lon="11.957651590652043"><ele>4.0</ele><time>2026-05-03T16:59:40.002Z</time></trkpt><trkpt lat="44.475058114742914" lon="11.95747876264675"><ele>4.333333333333333</ele><time>2026-05-03T16:59:41.002Z</time></trkpt><trkpt lat="44.47513398593824" lon="11.957311133977885"><ele>4.666666666666667</ele><time>2026-05-03T16:59:42.002Z</time></trkpt><trkpt lat="44.475211564878954" lon="11.957131671099255"><ele>5.0</ele><time>2026-05-03T16:59:43.002Z</time></trkpt><trkpt lat="44.475290980265534" lon="11.956937204350105"><ele>5.0</ele><time>2026-05-03T16:59:44.002Z</time></trkpt><trkpt lat="44.475374470537176" lon="11.956716943689692"><ele>5.0</ele><time>2026-05-03T16:59:45.002Z</time></trkpt><trkpt lat="44.47546725338176" lon="11.956471912485476"><ele>5.0</ele><time>2026-05-03T16:59:46.002Z</time></trkpt><trkpt lat="44.4755664944689" lon="11.95621352962789"><ele>5.0</ele><time>2026-05-03T16:59:47.002Z</time></trkpt><trkpt lat="44.47566269865577" lon="11.955964008903614"><ele>5.0</ele><time>2026-05-03T16:59:48.002Z</time></trkpt><trkpt lat="44.47575030760147" lon="11.955733106608376"><ele>5.0</ele><time>2026-05-03T16:59:49.002Z</time></trkpt><trkpt lat="44.475838548409556" lon="11.955509890410202"><ele>4.666666666666667</ele><time>2026-05-03T16:59:50.002Z</time></trkpt><trkpt lat="44.47593125362453" lon="11.955274496159356"><ele>4.333333333333333</ele><time>2026-05-03T16:59:51.002Z</time></trkpt><trkpt lat="44.476020657974274" lon="11.955043813196916"><ele>4.0</ele><time>2026-05-03T16:59:52.002Z</time></trkpt><trkpt lat="44.476106968181355" lon="11.954817987670875"><ele>3.6666666666666665</ele><time>2026-05-03T16:59:53.002Z</time></trkpt><trkpt lat="44.47618794257833" lon="11.954606208816793"><ele>3.333333333333333</ele><time>2026-05-03T16:59:54.002Z</time></trkpt><trkpt lat="44.47626319973043" lon="11.954403314719459"><ele>3.0</ele><time>2026-05-03T16:59:55.002Z</time></trkpt><trkpt lat="44.476354799550606" lon="11.95421630010049"><ele>3.5</ele><time>2026-05-03T16:59:56.002Z</time></trkpt><trkpt lat="44.47641359066301" lon="11.954018186889387"><ele>4.0</ele><time>2026-05-03T16:59:57.002Z</time></trkpt><trkpt lat="44.47648848890814" lon="11.953837965057762"><ele>4.5</ele><time>2026-05-03T16:59:58.002Z</time></trkpt><trkpt lat="44.47655154418159" lon="11.953673942527033"><ele>5.0</ele><time>2026-05-03T16:59:59.002Z</time></trkpt><trkpt lat="44.47661371860842" lon="11.953520026039282"><ele>5.0</ele><time>2026-05-03T17:00:00.002Z</time></trkpt><trkpt lat="44.476672697788075" lon="11.95337576952368"><ele>5.0</ele><time>2026-05-03T17:00:01.002Z</time></trkpt><trkpt lat="44.476727412697485" lon="11.953239022238824"><ele>5.0</ele><time>2026-05-03T17:00:02.002Z</time></trkpt><trkpt lat="44.47678719478825" lon="11.953099400911022"><ele>5.0</ele><time>2026-05-03T17:00:03.002Z</time></trkpt><trkpt lat="44.47684853026568" lon="11.952948285345604"><ele>5.0</ele><time>2026-05-03T17:00:04.002Z</time></trkpt><trkpt lat="44.47691596744783" lon="11.952777677824352"><ele>5.0</ele><time>2026-05-03T17:00:05.002Z</time></trkpt><trkpt lat="44.476991785684085" lon="11.952598741480053"><ele>5.0</ele><time>2026-05-03T17:00:06.002Z</time></trkpt><trkpt lat="44.47706472793609" lon="11.952411763906444"><ele>5.0</ele><time>2026-05-03T17:00:07.002Z</time></trkpt><trkpt lat="44.477139952278655" lon="11.952224085663671"><ele>5.0</ele><time>2026-05-03T17:00:08.002Z</time></trkpt><trkpt lat="44.47721474567685" lon="11.952032527495415"><ele>5.0</ele><time>2026-05-03T17:00:09.002Z</time></trkpt><trkpt lat="44.47729834137588" lon="11.951831340705274"><ele>5.0</ele><time>2026-05-03T17:00:10.002Z</time></trkpt><trkpt lat="44.47738242044674" lon="11.95162616354735"><ele>5.0</ele><time>2026-05-03T17:00:11.002Z</time></trkpt><trkpt lat="44.477467481755234" lon="11.9514190616117"><ele>5.0</ele><time>2026-05-03T17:00:12.002Z</time></trkpt><trkpt lat="44.47755438303109" lon="11.951211668715475"><ele>5.0</ele><time>2026-05-03T17:00:13.002Z</time></trkpt><trkpt lat="44.47764060825228" lon="11.951009946231961"><ele>5.0</ele><time>2026-05-03T17:00:14.002Z</time></trkpt><trkpt lat="44.477723856023424" lon="11.950806348471216"><ele>5.0</ele><time>2026-05-03T17:00:15.002Z</time></trkpt><trkpt lat="44.47780491522342" lon="11.950603061790433"><ele>5.0</ele><time>2026-05-03T17:00:16.002Z</time></trkpt><trkpt lat="44.47788703250485" lon="11.950405829853905"><ele>5.0</ele><time>2026-05-03T17:00:17.002Z</time></trkpt><trkpt lat="44.47796786760181" lon="11.950212036577303"><ele>5.0</ele><time>2026-05-03T17:00:18.002Z</time></trkpt><trkpt lat="44.47804843488897" lon="11.950014415548825"><ele>5.0</ele><time>2026-05-03T17:00:19.001Z</time></trkpt><trkpt lat="44.47812112950192" lon="11.949824954586326"><ele>5.0</ele><time>2026-05-03T17:00:20.001Z</time></trkpt><trkpt lat="44.478197961447535" lon="11.949630848160888"><ele>5.0</ele><time>2026-05-03T17:00:21.001Z</time></trkpt><trkpt lat="44.4782917586491" lon="11.949440715404137"><ele>5.0</ele><time>2026-05-03T17:00:22.001Z</time></trkpt><trkpt lat="44.478374362146695" lon="11.949235733363562"><ele>4.333333333333334</ele><time>2026-05-03T17:00:23.001Z</time></trkpt><trkpt lat="44.47844637596225" lon="11.94901616036849"><ele>3.666666666666667</ele><time>2026-05-03T17:00:24.001Z</time></trkpt><trkpt lat="44.4785287752773" lon="11.948812994110291"><ele>3.0</ele><time>2026-05-03T17:00:25.001Z</time></trkpt><trkpt lat="44.478609764416916" lon="11.94861950897848"><ele>3.0</ele><time>2026-05-03T17:00:26.001Z</time></trkpt><trkpt lat="44.47870466428377" lon="11.948431718451157"><ele>3.0</ele><time>2026-05-03T17:00:27.001Z</time></trkpt><trkpt lat="44.478777063678294" lon="11.948251190900615"><ele>3.0</ele><time>2026-05-03T17:00:28.001Z</time></trkpt><trkpt lat="44.47883207481751" lon="11.94806727470935"><ele>3.75</ele><time>2026-05-03T17:00:29.001Z</time></trkpt><trkpt lat="44.47889552496714" lon="11.94791169487365"><ele>4.5</ele><time>2026-05-03T17:00:30.001Z</time></trkpt><trkpt lat="44.47895529573065" lon="11.947766030258448"><ele>5.25</ele><time>2026-05-03T17:00:31.001Z</time></trkpt><trkpt lat="44.47902137321449" lon="11.947628760816789"><ele>6.0</ele><time>2026-05-03T17:00:32.001Z</time></trkpt><trkpt lat="44.47907203485946" lon="11.947496658491945"><ele>6.0</ele><time>2026-05-03T17:00:33.001Z</time></trkpt><trkpt lat="44.47912355266826" lon="11.947370081436842"><ele>6.0</ele><time>2026-05-03T17:00:34.001Z</time></trkpt><trkpt lat="44.47917353165728" lon="11.947250595708375"><ele>6.0</ele><time>2026-05-03T17:00:35.001Z</time></trkpt><trkpt lat="44.479218401952004" lon="11.94713934208948"><ele>6.0</ele><time>2026-05-03T17:00:36.001Z</time></trkpt><trkpt lat="44.47926490137569" lon="11.947034426030456"><ele>6.0</ele><time>2026-05-03T17:00:37.001Z</time></trkpt><trkpt lat="44.47930480618559" lon="11.946936287609017"><ele>6.0</ele><time>2026-05-03T17:00:38.001Z</time></trkpt><trkpt lat="44.47934765100983" lon="11.946835180453956"><ele>6.0</ele><time>2026-05-03T17:00:39.001Z</time></trkpt><trkpt lat="44.479386643608" lon="11.946731940358788"><ele>6.0</ele><time>2026-05-03T17:00:40.001Z</time></trkpt><trkpt lat="44.479419914794406" lon="11.946643775022316"><ele>6.0</ele><time>2026-05-03T17:00:41.001Z</time></trkpt><trkpt lat="44.47945782511888" lon="11.94656375180347"><ele>6.0</ele><time>2026-05-03T17:00:42.001Z</time></trkpt><trkpt lat="44.47949800765374" lon="11.946440721137158"><ele>6.0</ele><time>2026-05-03T17:00:44.001Z</time></trkpt><trkpt lat="44.47954819935591" lon="11.946328930809239"><ele>6.199999999999999</ele><time>2026-05-03T17:00:48.001Z</time></trkpt><trkpt lat="44.47958166038538" lon="11.946245343345772"><ele>6.3999999999999995</ele><time>2026-05-03T17:00:49.001Z</time></trkpt><trkpt lat="44.479615962400096" lon="11.946130904968252"><ele>6.6</ele><time>2026-05-03T17:00:50.001Z</time></trkpt><trkpt lat="44.47966086412178" lon="11.946006571675236"><ele>6.8</ele><time>2026-05-03T17:00:51.001Z</time></trkpt><trkpt lat="44.479708434854096" lon="11.945886639948956"><ele>7.0</ele><time>2026-05-03T17:00:52.001Z</time></trkpt><trkpt lat="44.479738708284955" lon="11.945738774290867"><ele>7.25</ele><time>2026-05-03T17:00:53.001Z</time></trkpt><trkpt lat="44.479830732737845" lon="11.94558406877992"><ele>7.5</ele><time>2026-05-03T17:00:54.001Z</time></trkpt><trkpt lat="44.47988455831859" lon="11.945422873134836"><ele>7.75</ele><time>2026-05-03T17:00:55.001Z</time></trkpt><trkpt lat="44.4799226938198" lon="11.945255752420717"><ele>8.0</ele><time>2026-05-03T17:00:56.001Z</time></trkpt><trkpt lat="44.47997977602208" lon="11.945085425338833"><ele>7.75</ele><time>2026-05-03T17:00:57.001Z</time></trkpt><trkpt lat="44.48003903719277" lon="11.944907469732849"><ele>7.5</ele><time>2026-05-03T17:00:58.001Z</time></trkpt><trkpt lat="44.48009862214388" lon="11.944728518593864"><ele>7.25</ele><time>2026-05-03T17:00:59.001Z</time></trkpt><trkpt lat="44.48015601307925" lon="11.944543304426796"><ele>7.0</ele><time>2026-05-03T17:01:00.001Z</time></trkpt><trkpt lat="44.48021270476157" lon="11.944363812261642"><ele>7.0</ele><time>2026-05-03T17:01:01.001Z</time></trkpt><trkpt lat="44.48027028452852" lon="11.94419359414169"><ele>7.0</ele><time>2026-05-03T17:01:02.001Z</time></trkpt><trkpt lat="44.4803261665958" lon="11.94401563493067"><ele>7.0</ele><time>2026-05-03T17:01:03.001Z</time></trkpt><trkpt lat="44.48038469104526" lon="11.943833300353004"><ele>7.0</ele><time>2026-05-03T17:01:04.001Z</time></trkpt><trkpt lat="44.48044606408696" lon="11.94365006592822"><ele>6.75</ele><time>2026-05-03T17:01:05.001Z</time></trkpt><trkpt lat="44.480508184730276" lon="11.9434678195041"><ele>6.5</ele><time>2026-05-03T17:01:06.001Z</time></trkpt><trkpt lat="44.48056443857511" lon="11.943286849841394"><ele>6.25</ele><time>2026-05-03T17:01:07.001Z</time></trkpt><trkpt lat="44.480622591076134" lon="11.94310136596579"><ele>6.0</ele><time>2026-05-03T17:01:08.001Z</time></trkpt><trkpt lat="44.48068831771063" lon="11.94290732681205"><ele>6.0</ele><time>2026-05-03T17:01:09.001Z</time></trkpt><trkpt lat="44.48075370424535" lon="11.94271001445331"><ele>6.0</ele><time>2026-05-03T17:01:10.001Z</time></trkpt><trkpt lat="44.480819650663946" lon="11.942503572673905"><ele>6.0</ele><time>2026-05-03T17:01:11.001Z</time></trkpt><trkpt lat="44.480893654693375" lon="11.942273152649697"><ele>5.666666666666667</ele><time>2026-05-03T17:01:12.001Z</time></trkpt><trkpt lat="44.48097301593022" lon="11.942042632667883"><ele>5.333333333333334</ele><time>2026-05-03T17:01:13.001Z</time></trkpt><trkpt lat="44.48105534578362" lon="11.94180329093252"><ele>5.0</ele><time>2026-05-03T17:01:14.001Z</time></trkpt><trkpt lat="44.48114644019129" lon="11.941549561404452"><ele>4.666666666666667</ele><time>2026-05-03T17:01:15.001Z</time></trkpt><trkpt lat="44.48124990202884" lon="11.941289903562652"><ele>4.333333333333333</ele><time>2026-05-03T17:01:16.001Z</time></trkpt><trkpt lat="44.481376160374715" lon="11.9410715336564"><ele>4.0</ele><time>2026-05-03T17:01:17.001Z</time></trkpt><trkpt lat="44.48147861891728" lon="11.940836868403016"><ele>4.0</ele><time>2026-05-03T17:01:18.001Z</time></trkpt><trkpt lat="44.48159569466259" lon="11.940617768852402"><ele>4.0</ele><time>2026-05-03T17:01:19.001Z</time></trkpt><trkpt lat="44.48171225528872" lon="11.940398173710346"><ele>4.0</ele><time>2026-05-03T17:01:20.001Z</time></trkpt><trkpt lat="44.481826756724566" lon="11.940173742034064"><ele>4.0</ele><time>2026-05-03T17:01:21.001Z</time></trkpt><trkpt lat="44.48194259809437" lon="11.939949887460267"><ele>4.0</ele><time>2026-05-03T17:01:22.001Z</time></trkpt><trkpt lat="44.4820589354986" lon="11.939730485668424"><ele>4.0</ele><time>2026-05-03T17:01:23.001Z</time></trkpt><trkpt lat="44.48217512587105" lon="11.93950788058481"><ele>4.0</ele><time>2026-05-03T17:01:24.001Z</time></trkpt><trkpt lat="44.48229087463132" lon="11.939293556780164"><ele>4.0</ele><time>2026-05-03T17:01:25.001Z</time></trkpt><trkpt lat="44.48240619106597" lon="11.939071770565066"><ele>4.0</ele><time>2026-05-03T17:01:26.001Z</time></trkpt><trkpt lat="44.48253663402852" lon="11.938852158953775"><ele>4.0</ele><time>2026-05-03T17:01:27.001Z</time></trkpt><trkpt lat="44.48265944789532" lon="11.938621091949896"><ele>4.0</ele><time>2026-05-03T17:01:28.001Z</time></trkpt><trkpt lat="44.48278670739066" lon="11.938392991813398"><ele>4.0</ele><time>2026-05-03T17:01:29.001Z</time></trkpt><trkpt lat="44.48292056161215" lon="11.93818551528372"><ele>4.0</ele><time>2026-05-03T17:01:30.001Z</time></trkpt><trkpt lat="44.483060861719984" lon="11.937971017991922"><ele>4.0</ele><time>2026-05-03T17:01:31.001Z</time></trkpt><trkpt lat="44.483186920126414" lon="11.937741230865225"><ele>4.0</ele><time>2026-05-03T17:01:32.001Z</time></trkpt><trkpt lat="44.48331840090043" lon="11.93752933080881"><ele>4.0</ele><time>2026-05-03T17:01:33.001Z</time></trkpt><trkpt lat="44.48344590388063" lon="11.937306280966705"><ele>4.0</ele><time>2026-05-03T17:01:34.001Z</time></trkpt><trkpt lat="44.4835663233556" lon="11.937067094969256"><ele>4.0</ele><time>2026-05-03T17:01:35.001Z</time></trkpt><trkpt lat="44.48367903837019" lon="11.93682313162781"><ele>4.333333333333333</ele><time>2026-05-03T17:01:36.001Z</time></trkpt><trkpt lat="44.48380713859164" lon="11.936595570691372"><ele>4.666666666666667</ele><time>2026-05-03T17:01:37.001Z</time></trkpt><trkpt lat="44.48390669869803" lon="11.936340031169909"><ele>5.0</ele><time>2026-05-03T17:01:38.001Z</time></trkpt><trkpt lat="44.48402170248089" lon="11.936101390021262"><ele>5.666666666666667</ele><time>2026-05-03T17:01:39.001Z</time></trkpt><trkpt lat="44.48414973857868" lon="11.935871967733586"><ele>6.333333333333334</ele><time>2026-05-03T17:01:40.001Z</time></trkpt><trkpt lat="44.48426583382075" lon="11.93562951536497"><ele>7.0</ele><time>2026-05-03T17:01:41.001Z</time></trkpt><trkpt lat="44.484379303448506" lon="11.935390495879988"><ele>7.0</ele><time>2026-05-03T17:01:42.001Z</time></trkpt><trkpt lat="44.48449521456823" lon="11.93514633348636"><ele>7.0</ele><time>2026-05-03T17:01:43.001Z</time></trkpt><trkpt lat="44.48460994826889" lon="11.93490465130338"><ele>7.0</ele><time>2026-05-03T17:01:44.001Z</time></trkpt><trkpt lat="44.48472247596728" lon="11.934665350813034"><ele>6.666666666666667</ele><time>2026-05-03T17:01:45.001Z</time></trkpt><trkpt lat="44.48481974909675" lon="11.934410037086506"><ele>6.333333333333334</ele><time>2026-05-03T17:01:46.001Z</time></trkpt><trkpt lat="44.484932826513784" lon="11.93417161417245"><ele>6.0</ele><time>2026-05-03T17:01:47.001Z</time></trkpt><trkpt lat="44.48504388117179" lon="11.933931734340778"><ele>5.666666666666667</ele><time>2026-05-03T17:01:48.001Z</time></trkpt><trkpt lat="44.48515452049834" lon="11.933693049085646"><ele>5.333333333333334</ele><time>2026-05-03T17:01:49.001Z</time></trkpt><trkpt lat="44.48526547346565" lon="11.933455810041734"><ele>5.0</ele><time>2026-05-03T17:01:50.001Z</time></trkpt><trkpt lat="44.48537411200632" lon="11.933225318993665"><ele>4.666666666666667</ele><time>2026-05-03T17:01:51.001Z</time></trkpt><trkpt lat="44.485483200881866" lon="11.932990680247713"><ele>4.333333333333333</ele><time>2026-05-03T17:01:52.001Z</time></trkpt><trkpt lat="44.48559564601989" lon="11.932755793998187"><ele>4.0</ele><time>2026-05-03T17:01:53.001Z</time></trkpt><trkpt lat="44.48570962873558" lon="11.932522874853351"><ele>3.6666666666666665</ele><time>2026-05-03T17:01:54.001Z</time></trkpt><trkpt lat="44.485822457433166" lon="11.932293233917111"><ele>3.333333333333333</ele><time>2026-05-03T17:01:55.001Z</time></trkpt><trkpt lat="44.48593811882381" lon="11.932056468295887"><ele>3.0</ele><time>2026-05-03T17:01:56.001Z</time></trkpt><trkpt lat="44.48605200449877" lon="11.931828308917423"><ele>3.0</ele><time>2026-05-03T17:01:57.001Z</time></trkpt><trkpt lat="44.48616711448419" lon="11.931583236211846"><ele>3.0</ele><time>2026-05-03T17:01:58.001Z</time></trkpt><trkpt lat="44.48628374174844" lon="11.931341206350368"><ele>3.0</ele><time>2026-05-03T17:01:59.001Z</time></trkpt><trkpt lat="44.48639691090704" lon="11.93110661516701"><ele>3.666666666666667</ele><time>2026-05-03T17:02:00.001Z</time></trkpt><trkpt lat="44.48650909840502" lon="11.930874871192012"><ele>4.333333333333334</ele><time>2026-05-03T17:02:01.001Z</time></trkpt><trkpt lat="44.48662682884762" lon="11.930640705207807"><ele>5.0</ele><time>2026-05-03T17:02:02.002Z</time></trkpt><trkpt lat="44.48674598984398" lon="11.930406487615272"><ele>5.0</ele><time>2026-05-03T17:02:03.002Z</time></trkpt><trkpt lat="44.48686587315524" lon="11.930176790996383"><ele>5.0</ele><time>2026-05-03T17:02:04.002Z</time></trkpt><trkpt lat="44.48698315925434" lon="11.929950975261901"><ele>5.0</ele><time>2026-05-03T17:02:05.002Z</time></trkpt><trkpt lat="44.487107377792405" lon="11.929721521369302"><ele>4.666666666666667</ele><time>2026-05-03T17:02:06.002Z</time></trkpt><trkpt lat="44.487231689303066" lon="11.929491980732884"><ele>4.333333333333333</ele><time>2026-05-03T17:02:07.002Z</time></trkpt><trkpt lat="44.48735005501827" lon="11.929268410743848"><ele>4.0</ele><time>2026-05-03T17:02:08.002Z</time></trkpt><trkpt lat="44.48747108037118" lon="11.929043917794615"><ele>4.0</ele><time>2026-05-03T17:02:09.002Z</time></trkpt><trkpt lat="44.487590807761926" lon="11.928822170233406"><ele>4.0</ele><time>2026-05-03T17:02:10.002Z</time></trkpt><trkpt lat="44.48771491966101" lon="11.928598278205497"><ele>4.0</ele><time>2026-05-03T17:02:11.002Z</time></trkpt><trkpt lat="44.48783682602795" lon="11.928373549209713"><ele>4.0</ele><time>2026-05-03T17:02:12.002Z</time></trkpt><trkpt lat="44.48795759097906" lon="11.92814587551702"><ele>4.0</ele><time>2026-05-03T17:02:13.002Z</time></trkpt><trkpt lat="44.48808121346281" lon="11.927917853783832"><ele>4.0</ele><time>2026-05-03T17:02:14.002Z</time></trkpt><trkpt lat="44.48820659807914" lon="11.927682186767349"><ele>4.333333333333333</ele><time>2026-05-03T17:02:15.002Z</time></trkpt><trkpt lat="44.48833199176317" lon="11.927451638790503"><ele>4.666666666666667</ele><time>2026-05-03T17:02:16.002Z</time></trkpt><trkpt lat="44.48845445196712" lon="11.927226367702994"><ele>5.0</ele><time>2026-05-03T17:02:17.002Z</time></trkpt><trkpt lat="44.488581349122065" lon="11.926995503734217"><ele>5.0</ele><time>2026-05-03T17:02:18.002Z</time></trkpt><trkpt lat="44.48870620511818" lon="11.926765543756005"><ele>5.0</ele><time>2026-05-03T17:02:19.002Z</time></trkpt><trkpt lat="44.488830430855835" lon="11.926535223029886"><ele>5.0</ele><time>2026-05-03T17:02:20.002Z</time></trkpt><trkpt lat="44.48895000160671" lon="11.926307712032866"><ele>4.0</ele><time>2026-05-03T17:02:21.002Z</time></trkpt><trkpt lat="44.489072422752535" lon="11.926076431155495"><ele>3.0</ele><time>2026-05-03T17:02:22.002Z</time></trkpt><trkpt lat="44.48919667644697" lon="11.925850247413244"><ele>2.0</ele><time>2026-05-03T17:02:23.002Z</time></trkpt><trkpt lat="44.489317206955164" lon="11.925627978529166"><ele>2.0</ele><time>2026-05-03T17:02:24.002Z</time></trkpt><trkpt lat="44.48943734727518" lon="11.925402765429821"><ele>2.0</ele><time>2026-05-03T17:02:25Z</time></trkpt><trkpt lat="44.489553207708305" lon="11.925181510219597"><ele>2.0</ele><time>2026-05-03T17:02:26Z</time></trkpt><trkpt lat="44.48967306917035" lon="11.924957800533772"><ele>2.6666666666666665</ele><time>2026-05-03T17:02:27Z</time></trkpt><trkpt lat="44.48979259271328" lon="11.924735101665995"><ele>3.333333333333333</ele><time>2026-05-03T17:02:28Z</time></trkpt><trkpt lat="44.48990812898065" lon="11.924515661230473"><ele>4.0</ele><time>2026-05-03T17:02:29Z</time></trkpt><trkpt lat="44.49002486894237" lon="11.924292442817821"><ele>4.333333333333333</ele><time>2026-05-03T17:02:30Z</time></trkpt><trkpt lat="44.49014197871821" lon="11.924072675381272"><ele>4.666666666666667</ele><time>2026-05-03T17:02:31Z</time></trkpt><trkpt lat="44.490262827459766" lon="11.923850203657684"><ele>5.0</ele><time>2026-05-03T17:02:32Z</time></trkpt><trkpt lat="44.490386084181296" lon="11.92363370334603"><ele>4.666666666666667</ele><time>2026-05-03T17:02:33Z</time></trkpt><trkpt lat="44.49052054218668" lon="11.923429806576708"><ele>4.333333333333333</ele><time>2026-05-03T17:02:34Z</time></trkpt><trkpt lat="44.49067195645611" lon="11.92324913697687"><ele>4.0</ele><time>2026-05-03T17:02:35Z</time></trkpt><trkpt lat="44.4908288522792" lon="11.923075378509"><ele>4.0</ele><time>2026-05-03T17:02:36Z</time></trkpt><trkpt lat="44.49098336922965" lon="11.922891641392873"><ele>4.0</ele><time>2026-05-03T17:02:37Z</time></trkpt><trkpt lat="44.49113475754264" lon="11.922696499050556"><ele>4.0</ele><time>2026-05-03T17:02:38Z</time></trkpt><trkpt lat="44.491274807126274" lon="11.92248947767449"><ele>3.6666666666666665</ele><time>2026-05-03T17:02:39Z</time></trkpt><trkpt lat="44.49140232454113" lon="11.92225446982973"><ele>3.333333333333333</ele><time>2026-05-03T17:02:40Z</time></trkpt><trkpt lat="44.49150959228653" lon="11.922000552715707"><ele>3.0</ele><time>2026-05-03T17:02:41Z</time></trkpt><trkpt lat="44.49160787117027" lon="11.921742823327378"><ele>2.6666666666666665</ele><time>2026-05-03T17:02:42Z</time></trkpt><trkpt lat="44.491704294884975" lon="11.921492023141408"><ele>2.333333333333333</ele><time>2026-05-03T17:02:43Z</time></trkpt><trkpt lat="44.49180478167899" lon="11.92124883505686"><ele>2.0</ele><time>2026-05-03T17:02:44Z</time></trkpt><trkpt lat="44.491901719556914" lon="11.921013815760267"><ele>2.6666666666666665</ele><time>2026-05-03T17:02:45Z</time></trkpt><trkpt lat="44.49199464767654" lon="11.920778899583084"><ele>3.333333333333333</ele><time>2026-05-03T17:02:46Z</time></trkpt><trkpt lat="44.49208425687116" lon="11.920559316648072"><ele>4.0</ele><time>2026-05-03T17:02:47Z</time></trkpt><trkpt lat="44.49217511300566" lon="11.920336031302101"><ele>4.333333333333333</ele><time>2026-05-03T17:02:48Z</time></trkpt><trkpt lat="44.49226627014246" lon="11.920112707898522"><ele>4.666666666666667</ele><time>2026-05-03T17:02:49Z</time></trkpt><trkpt lat="44.49235747880615" lon="11.919889968242385"><ele>5.0</ele><time>2026-05-03T17:02:50Z</time></trkpt><trkpt lat="44.492447722563135" lon="11.91966720971724"><ele>5.0</ele><time>2026-05-03T17:02:51Z</time></trkpt><trkpt lat="44.492532762861" lon="11.91945016006717"><ele>5.0</ele><time>2026-05-03T17:02:52Z</time></trkpt><trkpt lat="44.4926197378389" lon="11.919233747868011"><ele>5.0</ele><time>2026-05-03T17:02:53Z</time></trkpt><trkpt lat="44.49270029770579" lon="11.919027210546378"><ele>4.666666666666667</ele><time>2026-05-03T17:02:54Z</time></trkpt><trkpt lat="44.49277892467225" lon="11.918830975841031"><ele>4.333333333333333</ele><time>2026-05-03T17:02:55Z</time></trkpt><trkpt lat="44.49285825576364" lon="11.918646728612586"><ele>4.0</ele><time>2026-05-03T17:02:56Z</time></trkpt><trkpt lat="44.49294991977752" lon="11.918476588686609"><ele>4.0</ele><time>2026-05-03T17:02:57Z</time></trkpt><trkpt lat="44.493066235478906" lon="11.918308605239172"><ele>4.0</ele><time>2026-05-03T17:02:58Z</time></trkpt><trkpt lat="44.49320305627947" lon="11.918146673390947"><ele>4.0</ele><time>2026-05-03T17:02:59Z</time></trkpt><trkpt lat="44.49335155608674" lon="11.917996924037357"><ele>4.0</ele><time>2026-05-03T17:03:00Z</time></trkpt><trkpt lat="44.49350358991918" lon="11.917864011686484"><ele>4.0</ele><time>2026-05-03T17:03:01Z</time></trkpt><trkpt lat="44.49365128693798" lon="11.917728547268899"><ele>4.0</ele><time>2026-05-03T17:03:02Z</time></trkpt><trkpt lat="44.49379761606869" lon="11.917589579637452"><ele>4.0</ele><time>2026-05-03T17:03:03Z</time></trkpt><trkpt lat="44.49393838514918" lon="11.917453359057525"><ele>4.0</ele><time>2026-05-03T17:03:04Z</time></trkpt><trkpt lat="44.49408095595185" lon="11.917315496645582"><ele>4.0</ele><time>2026-05-03T17:03:05.001Z</time></trkpt><trkpt lat="44.49422184997234" lon="11.91718408923674"><ele>4.0</ele><time>2026-05-03T17:03:06.001Z</time></trkpt><trkpt lat="44.494347750517186" lon="11.91706347567981"><ele>4.0</ele><time>2026-05-03T17:03:07.001Z</time></trkpt><trkpt lat="44.494468250979324" lon="11.916933912878937"><ele>4.0</ele><time>2026-05-03T17:03:08.001Z</time></trkpt><trkpt lat="44.494583140310844" lon="11.916780548945034"><ele>3.6666666666666665</ele><time>2026-05-03T17:03:09.001Z</time></trkpt><trkpt lat="44.494691929486216" lon="11.91659110903937"><ele>3.333333333333333</ele><time>2026-05-03T17:03:10.001Z</time></trkpt><trkpt lat="44.49479061176381" lon="11.9163770537348"><ele>3.0</ele><time>2026-05-03T17:03:11.001Z</time></trkpt><trkpt lat="44.49487787750761" lon="11.916154231371417"><ele>3.0</ele><time>2026-05-03T17:03:12.001Z</time></trkpt><trkpt lat="44.49496469384086" lon="11.915930394149596"><ele>3.0</ele><time>2026-05-03T17:03:13.001Z</time></trkpt><trkpt lat="44.49506696680765" lon="11.915728308825345"><ele>3.0</ele><time>2026-05-03T17:03:14.001Z</time></trkpt><trkpt lat="44.49515789145444" lon="11.915512713334657"><ele>3.0</ele><time>2026-05-03T17:03:15.001Z</time></trkpt><trkpt lat="44.495251026685786" lon="11.915289468170593"><ele>3.0</ele><time>2026-05-03T17:03:16.001Z</time></trkpt><trkpt lat="44.49535078505059" lon="11.91505034736084"><ele>3.0</ele><time>2026-05-03T17:03:17.001Z</time></trkpt><trkpt lat="44.49545307612578" lon="11.914805155631909"><ele>3.0</ele><time>2026-05-03T17:03:18.001Z</time></trkpt><trkpt lat="44.495554502293906" lon="11.914562037085501"><ele>3.0</ele><time>2026-05-03T17:03:19.001Z</time></trkpt><trkpt lat="44.49565707447157" lon="11.914316171564902"><ele>3.0</ele><time>2026-05-03T17:03:20.001Z</time></trkpt><trkpt lat="44.49575950501028" lon="11.914072042622346"><ele>3.0</ele><time>2026-05-03T17:03:21.001Z</time></trkpt><trkpt lat="44.49586345930326" lon="11.913827031224812"><ele>3.0</ele><time>2026-05-03T17:03:22.001Z</time></trkpt><trkpt lat="44.49597119486684" lon="11.913571869769259"><ele>3.0</ele><time>2026-05-03T17:03:23.001Z</time></trkpt><trkpt lat="44.49607819081446" lon="11.913314862164881"><ele>3.0</ele><time>2026-05-03T17:03:24.001Z</time></trkpt><trkpt lat="44.496181552274926" lon="11.913066584709128"><ele>3.0</ele><time>2026-05-03T17:03:25.001Z</time></trkpt><trkpt lat="44.49628699832151" lon="11.91281330001139"><ele>3.0</ele><time>2026-05-03T17:03:26.001Z</time></trkpt><trkpt lat="44.49637730716265" lon="11.912552239072149"><ele>3.666666666666667</ele><time>2026-05-03T17:03:27.001Z</time></trkpt><trkpt lat="44.49649727648285" lon="11.912313548786654"><ele>4.333333333333334</ele><time>2026-05-03T17:03:28.001Z</time></trkpt><trkpt lat="44.49658709309975" lon="11.912054400324504"><ele>5.0</ele><time>2026-05-03T17:03:29.001Z</time></trkpt><trkpt lat="44.496697634812456" lon="11.911798002922954"><ele>4.666666666666667</ele><time>2026-05-03T17:03:30.001Z</time></trkpt><trkpt lat="44.496811760942094" lon="11.911525529981356"><ele>4.333333333333333</ele><time>2026-05-03T17:03:31.001Z</time></trkpt><trkpt lat="44.496921010104835" lon="11.911261074540516"><ele>4.0</ele><time>2026-05-03T17:03:32.001Z</time></trkpt><trkpt lat="44.49702649598901" lon="11.911006104976238"><ele>5.0</ele><time>2026-05-03T17:03:33.001Z</time></trkpt><trkpt lat="44.49713052910421" lon="11.910752326507042"><ele>6.0</ele><time>2026-05-03T17:03:34.001Z</time></trkpt><trkpt lat="44.49722849277383" lon="11.910519367824485"><ele>7.0</ele><time>2026-05-03T17:03:35.001Z</time></trkpt><trkpt lat="44.497321906606" lon="11.91029740573406"><ele>7.0</ele><time>2026-05-03T17:03:36.001Z</time></trkpt><trkpt lat="44.49742807980283" lon="11.91008924801394"><ele>7.0</ele><time>2026-05-03T17:03:37.001Z</time></trkpt><trkpt lat="44.49749936994537" lon="11.90987435297783"><ele>7.0</ele><time>2026-05-03T17:03:38.001Z</time></trkpt><trkpt lat="44.497582915547696" lon="11.909685181308866"><ele>7.25</ele><time>2026-05-03T17:03:39.001Z</time></trkpt><trkpt lat="44.49765889952987" lon="11.909506612850883"><ele>7.5</ele><time>2026-05-03T17:03:40.001Z</time></trkpt><trkpt lat="44.497728491807024" lon="11.909340005046868"><ele>7.75</ele><time>2026-05-03T17:03:41.001Z</time></trkpt><trkpt lat="44.497795188857644" lon="11.90918174741533"><ele>8.0</ele><time>2026-05-03T17:03:42.001Z</time></trkpt><trkpt lat="44.49785753104584" lon="11.909034965059853"><ele>8.200000000000001</ele><time>2026-05-03T17:03:43.001Z</time></trkpt><trkpt lat="44.49791775526771" lon="11.908907164731495"><ele>8.4</ele><time>2026-05-03T17:03:44.001Z</time></trkpt><trkpt lat="44.49798227017941" lon="11.90879841789846"><ele>8.600000000000001</ele><time>2026-05-03T17:03:45.001Z</time></trkpt><trkpt lat="44.49805518442892" lon="11.90872254629257"><ele>8.8</ele><time>2026-05-03T17:03:46.001Z</time></trkpt><trkpt lat="44.49813763631219" lon="11.908665879008494"><ele>9.0</ele><time>2026-05-03T17:03:47.001Z</time></trkpt><trkpt lat="44.49817965884122" lon="11.908573511956"><ele>9.0</ele><time>2026-05-03T17:03:48.001Z</time></trkpt><trkpt lat="44.49829393847606" lon="11.90859901711639"><ele>9.0</ele><time>2026-05-03T17:03:49.001Z</time></trkpt><trkpt lat="44.498386876864046" lon="11.908598217458499"><ele>9.0</ele><time>2026-05-03T17:03:51.001Z</time></trkpt><trkpt lat="44.49847113250463" lon="11.908610610076586"><ele>9.0</ele><time>2026-05-03T17:03:53.001Z</time></trkpt><trkpt lat="44.49858177461866" lon="11.90864038337666"><ele>9.0</ele><time>2026-05-03T17:03:55.001Z</time></trkpt><trkpt lat="44.49865388542938" lon="11.908686255757663"><ele>9.0</ele><time>2026-05-03T17:03:56.001Z</time></trkpt><trkpt lat="44.49872767146608" lon="11.90876105617653"><ele>9.0</ele><time>2026-05-03T17:03:57.001Z</time></trkpt><trkpt lat="44.49879890068125" lon="11.90884726644018"><ele>9.0</ele><time>2026-05-03T17:03:58.001Z</time></trkpt><trkpt lat="44.49888458165477" lon="11.908943571925096"><ele>9.0</ele><time>2026-05-03T17:03:59.001Z</time></trkpt><trkpt lat="44.49897574292317" lon="11.909037184461141"><ele>9.0</ele><time>2026-05-03T17:04:00.001Z</time></trkpt><trkpt lat="44.49905939626003" lon="11.90912259133755"><ele>8.25</ele><time>2026-05-03T17:04:01.001Z</time></trkpt><trkpt lat="44.49914715926871" lon="11.909209224562964"><ele>7.5</ele><time>2026-05-03T17:04:02.001Z</time></trkpt><trkpt lat="44.499239566307324" lon="11.909302455545443"><ele>6.75</ele><time>2026-05-03T17:04:03.001Z</time></trkpt><trkpt lat="44.4993335262487" lon="11.909395513029562"><ele>6.0</ele><time>2026-05-03T17:04:04.001Z</time></trkpt><trkpt lat="44.4994326210994" lon="11.909495893891654"><ele>6.0</ele><time>2026-05-03T17:04:05.001Z</time></trkpt><trkpt lat="44.499529134717804" lon="11.909587509688269"><ele>6.0</ele><time>2026-05-03T17:04:06.001Z</time></trkpt><trkpt lat="44.499625968984745" lon="11.909682830113617"><ele>6.0</ele><time>2026-05-03T17:04:07.001Z</time></trkpt><trkpt lat="44.499728729393084" lon="11.909785872682574"><ele>6.0</ele><time>2026-05-03T17:04:08.001Z</time></trkpt><trkpt lat="44.499828508600395" lon="11.909890417205409"><ele>6.25</ele><time>2026-05-03T17:04:09.001Z</time></trkpt><trkpt lat="44.49993204801911" lon="11.909997984130175"><ele>6.5</ele><time>2026-05-03T17:04:10.001Z</time></trkpt><trkpt lat="44.50004722729878" lon="11.910109597653017"><ele>6.75</ele><time>2026-05-03T17:04:11.001Z</time></trkpt><trkpt lat="44.50016819631506" lon="11.910218718389414"><ele>7.0</ele><time>2026-05-03T17:04:12.001Z</time></trkpt><trkpt lat="44.5002888160241" lon="11.910321452732255"><ele>7.0</ele><time>2026-05-03T17:04:13.001Z</time></trkpt><trkpt lat="44.500416350379396" lon="11.910397301378422"><ele>7.0</ele><time>2026-05-03T17:04:14.001Z</time></trkpt><trkpt lat="44.50055115915565" lon="11.910468390156097"><ele>7.0</ele><time>2026-05-03T17:04:15.001Z</time></trkpt><trkpt lat="44.50069098146273" lon="11.91051715047988"><ele>7.0</ele><time>2026-05-03T17:04:16.001Z</time></trkpt><trkpt lat="44.50083711391062" lon="11.910546163464627"><ele>6.666666666666667</ele><time>2026-05-03T17:04:17.001Z</time></trkpt><trkpt lat="44.50099276571135" lon="11.910557048202172"><ele>6.333333333333334</ele><time>2026-05-03T17:04:18.001Z</time></trkpt><trkpt lat="44.50114006389876" lon="11.910554023604988"><ele>6.0</ele><time>2026-05-03T17:04:19.001Z</time></trkpt><trkpt lat="44.50128656926168" lon="11.910536346232997"><ele>6.0</ele><time>2026-05-03T17:04:20.001Z</time></trkpt><trkpt lat="44.50144895768938" lon="11.910505188186303"><ele>6.0</ele><time>2026-05-03T17:04:21.001Z</time></trkpt><trkpt lat="44.501608327606334" lon="11.910481129114588"><ele>6.0</ele><time>2026-05-03T17:04:22.001Z</time></trkpt><trkpt lat="44.50177038235122" lon="11.910459298671332"><ele>6.0</ele><time>2026-05-03T17:04:23.001Z</time></trkpt><trkpt lat="44.501927144183455" lon="11.91043963118611"><ele>6.0</ele><time>2026-05-03T17:04:24.001Z</time></trkpt><trkpt lat="44.50209036620327" lon="11.910414506113986"><ele>6.0</ele><time>2026-05-03T17:04:25.001Z</time></trkpt><trkpt lat="44.5022506058935" lon="11.910391287366323"><ele>5.666666666666667</ele><time>2026-05-03T17:04:26.001Z</time></trkpt><trkpt lat="44.50240727192052" lon="11.91037175383054"><ele>5.333333333333334</ele><time>2026-05-03T17:04:27.001Z</time></trkpt><trkpt lat="44.50256760191451" lon="11.91035206507852"><ele>5.0</ele><time>2026-05-03T17:04:28.001Z</time></trkpt><trkpt lat="44.502726526868834" lon="11.910329151119639"><ele>5.0</ele><time>2026-05-03T17:04:29.002Z</time></trkpt><trkpt lat="44.50288214356918" lon="11.910314131359511"><ele>5.0</ele><time>2026-05-03T17:04:30.002Z</time></trkpt><trkpt lat="44.50303689588429" lon="11.910320756858459"><ele>5.0</ele><time>2026-05-03T17:04:31Z</time></trkpt><trkpt lat="44.503183942722984" lon="11.910360799239534"><ele>5.0</ele><time>2026-05-03T17:04:32Z</time></trkpt><trkpt lat="44.503330335343165" lon="11.91041598853922"><ele>5.0</ele><time>2026-05-03T17:04:33Z</time></trkpt><trkpt lat="44.503472256477274" lon="11.910480005331971"><ele>5.0</ele><time>2026-05-03T17:04:34Z</time></trkpt><trkpt lat="44.50361384178143" lon="11.910539458391925"><ele>5.0</ele><time>2026-05-03T17:04:35Z</time></trkpt><trkpt lat="44.50375055534303" lon="11.91059133024044"><ele>5.25</ele><time>2026-05-03T17:04:36Z</time></trkpt><trkpt lat="44.503889181989656" lon="11.910644894366436"><ele>5.5</ele><time>2026-05-03T17:04:37Z</time></trkpt><trkpt lat="44.50402247941995" lon="11.910698653437981"><ele>5.75</ele><time>2026-05-03T17:04:38Z</time></trkpt><trkpt lat="44.50416086660404" lon="11.910748270714187"><ele>6.0</ele><time>2026-05-03T17:04:39Z</time></trkpt><trkpt lat="44.504294978035645" lon="11.910798159813206"><ele>6.0</ele><time>2026-05-03T17:04:40Z</time></trkpt><trkpt lat="44.5044289796755" lon="11.910841616806138"><ele>6.0</ele><time>2026-05-03T17:04:41Z</time></trkpt><trkpt lat="44.50456354857701" lon="11.910885906290547"><ele>6.0</ele><time>2026-05-03T17:04:42Z</time></trkpt><trkpt lat="44.504704335928224" lon="11.91092944545876"><ele>6.0</ele><time>2026-05-03T17:04:43Z</time></trkpt><trkpt lat="44.50484802330795" lon="11.910971282151465"><ele>6.0</ele><time>2026-05-03T17:04:44Z</time></trkpt><trkpt lat="44.504989887102866" lon="11.91100705712267"><ele>6.0</ele><time>2026-05-03T17:04:45Z</time></trkpt><trkpt lat="44.505129287344616" lon="11.91103721400799"><ele>6.0</ele><time>2026-05-03T17:04:46Z</time></trkpt><trkpt lat="44.50527054706302" lon="11.911042923211417"><ele>6.0</ele><time>2026-05-03T17:04:47Z</time></trkpt><trkpt lat="44.505402011199" lon="11.911034908261465"><ele>6.0</ele><time>2026-05-03T17:04:48Z</time></trkpt><trkpt lat="44.50554136730735" lon="11.911020437805805"><ele>6.0</ele><time>2026-05-03T17:04:49Z</time></trkpt><trkpt lat="44.50568592973082" lon="11.910994605229948"><ele>6.0</ele><time>2026-05-03T17:04:50Z</time></trkpt><trkpt lat="44.5058264345739" lon="11.910967085272055"><ele>6.0</ele><time>2026-05-03T17:04:51Z</time></trkpt><trkpt lat="44.50596791628751" lon="11.910934643330487"><ele>6.0</ele><time>2026-05-03T17:04:52Z</time></trkpt><trkpt lat="44.50611056282382" lon="11.910904038404315"><ele>6.0</ele><time>2026-05-03T17:04:53Z</time></trkpt><trkpt lat="44.50625150232945" lon="11.910876290992443"><ele>6.0</ele><time>2026-05-03T17:04:54Z</time></trkpt><trkpt lat="44.50638998208632" lon="11.910849396624986"><ele>6.0</ele><time>2026-05-03T17:04:55Z</time></trkpt><trkpt lat="44.506534202422" lon="11.910813372139533"><ele>6.25</ele><time>2026-05-03T17:04:56Z</time></trkpt><trkpt lat="44.50666904092887" lon="11.91078893210318"><ele>6.5</ele><time>2026-05-03T17:04:57Z</time></trkpt><trkpt lat="44.50680813853398" lon="11.910759846637102"><ele>6.75</ele><time>2026-05-03T17:04:58Z</time></trkpt><trkpt lat="44.506951210475236" lon="11.910730955043944"><ele>7.0</ele><time>2026-05-03T17:04:59Z</time></trkpt><trkpt lat="44.5071025629953" lon="11.9107046006635"><ele>7.25</ele><time>2026-05-03T17:05:00Z</time></trkpt><trkpt lat="44.50724768836014" lon="11.910665381903357"><ele>7.5</ele><time>2026-05-03T17:05:01Z</time></trkpt><trkpt lat="44.507392806230264" lon="11.910631122853276"><ele>7.75</ele><time>2026-05-03T17:05:02Z</time></trkpt><trkpt lat="44.5075393075368" lon="11.910617087674781"><ele>8.0</ele><time>2026-05-03T17:05:03Z</time></trkpt><trkpt lat="44.50767544307915" lon="11.910583543240357"><ele>8.0</ele><time>2026-05-03T17:05:04Z</time></trkpt><trkpt lat="44.50780548537055" lon="11.910557151594055"><ele>8.0</ele><time>2026-05-03T17:05:05Z</time></trkpt><trkpt lat="44.50792733488838" lon="11.91053251754599"><ele>8.0</ele><time>2026-05-03T17:05:06Z</time></trkpt><trkpt lat="44.50804585892202" lon="11.91051522355208"><ele>8.0</ele><time>2026-05-03T17:05:07Z</time></trkpt><trkpt lat="44.508167944927315" lon="11.910490306926393"><ele>7.5</ele><time>2026-05-03T17:05:08Z</time></trkpt><trkpt lat="44.50830140998499" lon="11.910459748986643"><ele>7.0</ele><time>2026-05-03T17:05:09Z</time></trkpt><trkpt lat="44.50844842760332" lon="11.910430204668089"><ele>6.5</ele><time>2026-05-03T17:05:10Z</time></trkpt><trkpt lat="44.508599306542685" lon="11.910394390340299"><ele>6.0</ele><time>2026-05-03T17:05:11Z</time></trkpt><trkpt lat="44.5087565268782" lon="11.910347195590905"><ele>6.0</ele><time>2026-05-03T17:05:12Z</time></trkpt><trkpt lat="44.50891173640131" lon="11.910288408609253"><ele>6.0</ele><time>2026-05-03T17:05:13Z</time></trkpt><trkpt lat="44.50906512044584" lon="11.910221654756334"><ele>6.0</ele><time>2026-05-03T17:05:14Z</time></trkpt><trkpt lat="44.509217156459805" lon="11.910154115243206"><ele>6.0</ele><time>2026-05-03T17:05:15Z</time></trkpt><trkpt lat="44.50935859211117" lon="11.910076226682063"><ele>6.0</ele><time>2026-05-03T17:05:16Z</time></trkpt><trkpt lat="44.50950718555755" lon="11.910004184211399"><ele>6.0</ele><time>2026-05-03T17:05:17Z</time></trkpt><trkpt lat="44.50965014721428" lon="11.909932555997278"><ele>5.5</ele><time>2026-05-03T17:05:18Z</time></trkpt><trkpt lat="44.50979165131034" lon="11.909860551017994"><ele>5.0</ele><time>2026-05-03T17:05:19Z</time></trkpt><trkpt lat="44.50992988168022" lon="11.909790292861238"><ele>4.5</ele><time>2026-05-03T17:05:20Z</time></trkpt><trkpt lat="44.51006620766945" lon="11.909720908875247"><ele>4.0</ele><time>2026-05-03T17:05:21Z</time></trkpt><trkpt lat="44.510204727869834" lon="11.909650052016802"><ele>4.0</ele><time>2026-05-03T17:05:22.001Z</time></trkpt><trkpt lat="44.510340748237496" lon="11.909580048405669"><ele>4.0</ele><time>2026-05-03T17:05:23.001Z</time></trkpt><trkpt lat="44.51047488292681" lon="11.90950301851755"><ele>4.0</ele><time>2026-05-03T17:05:24.001Z</time></trkpt><trkpt lat="44.5105940196726" lon="11.909421873173446"><ele>4.0</ele><time>2026-05-03T17:05:25.001Z</time></trkpt><trkpt lat="44.510711400634996" lon="11.90932429132038"><ele>4.25</ele><time>2026-05-03T17:05:26.001Z</time></trkpt><trkpt lat="44.51082374323384" lon="11.909213675145562"><ele>4.5</ele><time>2026-05-03T17:05:27.001Z</time></trkpt><trkpt lat="44.51092807641114" lon="11.909105906738908"><ele>4.75</ele><time>2026-05-03T17:05:28.001Z</time></trkpt><trkpt lat="44.511018998773885" lon="11.909014093070107"><ele>5.0</ele><time>2026-05-03T17:05:29.001Z</time></trkpt><trkpt lat="44.51110691356525" lon="11.908930807761296"><ele>5.0</ele><time>2026-05-03T17:05:30.001Z</time></trkpt><trkpt lat="44.511201168149306" lon="11.908883586284981"><ele>5.0</ele><time>2026-05-03T17:05:31.001Z</time></trkpt><trkpt lat="44.51128671890726" lon="11.908820713833931"><ele>5.0</ele><time>2026-05-03T17:05:32.001Z</time></trkpt><trkpt lat="44.51136675590023" lon="11.908740381729276"><ele>5.0</ele><time>2026-05-03T17:05:33.001Z</time></trkpt><trkpt lat="44.51145860787698" lon="11.908700298618864"><ele>5.0</ele><time>2026-05-03T17:05:34.001Z</time></trkpt><trkpt lat="44.5115391259777" lon="11.908643735485782"><ele>5.333333333333334</ele><time>2026-05-03T17:05:35.001Z</time></trkpt><trkpt lat="44.51150627230552" lon="11.908342889182174"><ele>5.666666666666667</ele><time>2026-05-03T17:05:36.001Z</time></trkpt><trkpt lat="44.511535599235074" lon="11.908144640025101"><ele>6.0</ele><time>2026-05-03T17:05:37.001Z</time></trkpt><trkpt lat="44.5115559770787" lon="11.907935872394988"><ele>6.0</ele><time>2026-05-03T17:05:38.001Z</time></trkpt><trkpt lat="44.511591346527844" lon="11.907710033138779"><ele>6.0</ele><time>2026-05-03T17:05:39.001Z</time></trkpt><trkpt lat="44.511633768692505" lon="11.907488117460058"><ele>6.0</ele><time>2026-05-03T17:05:40.001Z</time></trkpt><trkpt lat="44.51167355860477" lon="11.907268083454893"><ele>6.333333333333334</ele><time>2026-05-03T17:05:41.001Z</time></trkpt><trkpt lat="44.51171019698583" lon="11.90704394026345"><ele>6.666666666666667</ele><time>2026-05-03T17:05:42.001Z</time></trkpt><trkpt lat="44.51174790398217" lon="11.906809648574184"><ele>7.0</ele><time>2026-05-03T17:05:43.001Z</time></trkpt><trkpt lat="44.511786709550826" lon="11.906575486745425"><ele>6.333333333333334</ele><time>2026-05-03T17:05:44.001Z</time></trkpt><trkpt lat="44.51183078361639" lon="11.906338251281579"><ele>5.666666666666667</ele><time>2026-05-03T17:05:45.001Z</time></trkpt><trkpt lat="44.51187491560458" lon="11.906097275671954"><ele>5.0</ele><time>2026-05-03T17:05:46.001Z</time></trkpt><trkpt lat="44.51191724576341" lon="11.905857180297405"><ele>4.666666666666667</ele><time>2026-05-03T17:05:47.001Z</time></trkpt><trkpt lat="44.511962845795914" lon="11.905617704576724"><ele>4.333333333333333</ele><time>2026-05-03T17:05:48.001Z</time></trkpt><trkpt lat="44.51200653190569" lon="11.905380750524598"><ele>4.0</ele><time>2026-05-03T17:05:49.001Z</time></trkpt><trkpt lat="44.51204837368271" lon="11.90515137655603"><ele>3.6666666666666665</ele><time>2026-05-03T17:05:50.001Z</time></trkpt><trkpt lat="44.512090011449914" lon="11.904916238006505"><ele>3.333333333333333</ele><time>2026-05-03T17:05:51.001Z</time></trkpt><trkpt lat="44.51213149454239" lon="11.90468487356672"><ele>3.0</ele><time>2026-05-03T17:05:52.001Z</time></trkpt><trkpt lat="44.512170185479654" lon="11.904450147738366"><ele>3.333333333333333</ele><time>2026-05-03T17:05:53.001Z</time></trkpt><trkpt lat="44.51221304721197" lon="11.904219878441285"><ele>3.6666666666666665</ele><time>2026-05-03T17:05:54.001Z</time></trkpt><trkpt lat="44.51225598377739" lon="11.903996494323644"><ele>4.0</ele><time>2026-05-03T17:05:55.001Z</time></trkpt><trkpt lat="44.51229453823043" lon="11.903778903155011"><ele>4.0</ele><time>2026-05-03T17:05:56.001Z</time></trkpt><trkpt lat="44.512333857641465" lon="11.903557519116047"><ele>4.0</ele><time>2026-05-03T17:05:57.001Z</time></trkpt><trkpt lat="44.51237192771804" lon="11.90333753882601"><ele>4.0</ele><time>2026-05-03T17:05:58.001Z</time></trkpt><trkpt lat="44.51240992155911" lon="11.903117153034106"><ele>4.0</ele><time>2026-05-03T17:05:59.001Z</time></trkpt><trkpt lat="44.51244424202995" lon="11.902898847618204"><ele>4.0</ele><time>2026-05-03T17:06:00.001Z</time></trkpt><trkpt lat="44.51248234026735" lon="11.902673553708187"><ele>4.0</ele><time>2026-05-03T17:06:01.001Z</time></trkpt><trkpt lat="44.512520045921875" lon="11.902448322810256"><ele>4.0</ele><time>2026-05-03T17:06:02.001Z</time></trkpt><trkpt lat="44.51255862975376" lon="11.902219453835693"><ele>4.0</ele><time>2026-05-03T17:06:03.001Z</time></trkpt><trkpt lat="44.51260005020193" lon="11.901988706535837"><ele>4.0</ele><time>2026-05-03T17:06:04.001Z</time></trkpt><trkpt lat="44.51264156232069" lon="11.901762766124106"><ele>4.333333333333333</ele><time>2026-05-03T17:06:05.001Z</time></trkpt><trkpt lat="44.512680333768955" lon="11.901534628370639"><ele>4.666666666666667</ele><time>2026-05-03T17:06:06.001Z</time></trkpt><trkpt lat="44.51272036308711" lon="11.901311574192306"><ele>5.0</ele><time>2026-05-03T17:06:07.001Z</time></trkpt><trkpt lat="44.5127583109707" lon="11.901103818101307"><ele>5.0</ele><time>2026-05-03T17:06:08.001Z</time></trkpt><trkpt lat="44.51279542642376" lon="11.900890369371988"><ele>5.0</ele><time>2026-05-03T17:06:09.001Z</time></trkpt><trkpt lat="44.512831790150095" lon="11.900683104426657"><ele>5.0</ele><time>2026-05-03T17:06:10.001Z</time></trkpt><trkpt lat="44.512870238606986" lon="11.900465945577773"><ele>4.333333333333334</ele><time>2026-05-03T17:06:11.001Z</time></trkpt><trkpt lat="44.51290854852227" lon="11.900252662484567"><ele>3.666666666666667</ele><time>2026-05-03T17:06:12.001Z</time></trkpt><trkpt lat="44.51294858779641" lon="11.900038616095024"><ele>3.0</ele><time>2026-05-03T17:06:13.001Z</time></trkpt><trkpt lat="44.512989122236945" lon="11.899824359242333"><ele>3.0</ele><time>2026-05-03T17:06:14.001Z</time></trkpt><trkpt lat="44.513029529058436" lon="11.899603758670425"><ele>3.0</ele><time>2026-05-03T17:06:15.001Z</time></trkpt><trkpt lat="44.51306874977705" lon="11.899384616321711"><ele>3.0</ele><time>2026-05-03T17:06:16.001Z</time></trkpt><trkpt lat="44.51310697192217" lon="11.899170735553913"><ele>2.6666666666666665</ele><time>2026-05-03T17:06:17.001Z</time></trkpt><trkpt lat="44.513142554729676" lon="11.89896150236673"><ele>2.333333333333333</ele><time>2026-05-03T17:06:18.001Z</time></trkpt><trkpt lat="44.513178109763324" lon="11.898753520557348"><ele>2.0</ele><time>2026-05-03T17:06:19.001Z</time></trkpt><trkpt lat="44.513215631936895" lon="11.898544735050368"><ele>2.333333333333333</ele><time>2026-05-03T17:06:20.001Z</time></trkpt><trkpt lat="44.51325213518259" lon="11.898332112646154"><ele>2.6666666666666665</ele><time>2026-05-03T17:06:21.001Z</time></trkpt><trkpt lat="44.513287153540745" lon="11.898117188372739"><ele>3.0</ele><time>2026-05-03T17:06:22.001Z</time></trkpt><trkpt lat="44.513321695734234" lon="11.897905648043698"><ele>3.0</ele><time>2026-05-03T17:06:23.001Z</time></trkpt><trkpt lat="44.51336209047657" lon="11.897693033470311"><ele>3.0</ele><time>2026-05-03T17:06:24.001Z</time></trkpt><trkpt lat="44.513402661525795" lon="11.897478135919396"><ele>3.0</ele><time>2026-05-03T17:06:25.001Z</time></trkpt><trkpt lat="44.513442451875484" lon="11.897261831373019"><ele>3.0</ele><time>2026-05-03T17:06:26.001Z</time></trkpt><trkpt lat="44.51348338943632" lon="11.897042147117661"><ele>3.0</ele><time>2026-05-03T17:06:27.001Z</time></trkpt><trkpt lat="44.51352256042889" lon="11.896826759914077"><ele>3.0</ele><time>2026-05-03T17:06:28.001Z</time></trkpt><trkpt lat="44.513559691136706" lon="11.896607617905797"><ele>3.0</ele><time>2026-05-03T17:06:29.001Z</time></trkpt><trkpt lat="44.51360043670748" lon="11.896388055772585"><ele>3.0</ele><time>2026-05-03T17:06:30.001Z</time></trkpt><trkpt lat="44.51363937838522" lon="11.89617281935862"><ele>3.0</ele><time>2026-05-03T17:06:31.001Z</time></trkpt><trkpt lat="44.51368002825951" lon="11.89595832335678"><ele>3.333333333333333</ele><time>2026-05-03T17:06:32.001Z</time></trkpt><trkpt lat="44.51371833552601" lon="11.895731261329894"><ele>3.6666666666666665</ele><time>2026-05-03T17:06:33.001Z</time></trkpt><trkpt lat="44.51375809745523" lon="11.895504968744193"><ele>4.0</ele><time>2026-05-03T17:06:34.001Z</time></trkpt><trkpt lat="44.51380132510816" lon="11.895270460757429"><ele>4.0</ele><time>2026-05-03T17:06:35.001Z</time></trkpt><trkpt lat="44.513844240445074" lon="11.89503677175879"><ele>4.0</ele><time>2026-05-03T17:06:36.001Z</time></trkpt><trkpt lat="44.51388538801545" lon="11.894798193349597"><ele>4.0</ele><time>2026-05-03T17:06:37Z</time></trkpt><trkpt lat="44.513926760890406" lon="11.894564071354463"><ele>4.0</ele><time>2026-05-03T17:06:38Z</time></trkpt><trkpt lat="44.51396574069015" lon="11.894338119404413"><ele>4.0</ele><time>2026-05-03T17:06:39Z</time></trkpt><trkpt lat="44.51400549999032" lon="11.89411488716092"><ele>4.0</ele><time>2026-05-03T17:06:40Z</time></trkpt><trkpt lat="44.51404500783396" lon="11.893893052413901"><ele>4.0</ele><time>2026-05-03T17:06:41Z</time></trkpt><trkpt lat="44.51408583447172" lon="11.893674041661814"><ele>4.0</ele><time>2026-05-03T17:06:42Z</time></trkpt><trkpt lat="44.51412386549762" lon="11.89346198331658"><ele>4.0</ele><time>2026-05-03T17:06:43Z</time></trkpt><trkpt lat="44.51416450386065" lon="11.893239438060398"><ele>4.0</ele><time>2026-05-03T17:06:44Z</time></trkpt><trkpt lat="44.51420532780959" lon="11.893014358187651"><ele>4.0</ele><time>2026-05-03T17:06:45Z</time></trkpt><trkpt lat="44.514244812331974" lon="11.892790362691724"><ele>4.0</ele><time>2026-05-03T17:06:46Z</time></trkpt><trkpt lat="44.51428153083766" lon="11.892572961881752"><ele>4.0</ele><time>2026-05-03T17:06:47Z</time></trkpt><trkpt lat="44.51432124469147" lon="11.892352674619024"><ele>4.0</ele><time>2026-05-03T17:06:48Z</time></trkpt><trkpt lat="44.514356295684166" lon="11.89214911344065"><ele>4.0</ele><time>2026-05-03T17:06:49Z</time></trkpt><trkpt lat="44.514390116912224" lon="11.891949028606936"><ele>4.25</ele><time>2026-05-03T17:06:50Z</time></trkpt><trkpt lat="44.514428272286445" lon="11.891742479281328"><ele>4.5</ele><time>2026-05-03T17:06:51Z</time></trkpt><trkpt lat="44.5144648304799" lon="11.89154074529727"><ele>4.75</ele><time>2026-05-03T17:06:52Z</time></trkpt><trkpt lat="44.51449815831272" lon="11.891357856819598"><ele>5.0</ele><time>2026-05-03T17:06:53Z</time></trkpt><trkpt lat="44.514530064254835" lon="11.891183748049594"><ele>5.0</ele><time>2026-05-03T17:06:54Z</time></trkpt><trkpt lat="44.51455977075046" lon="11.891008564590363"><ele>5.0</ele><time>2026-05-03T17:06:55Z</time></trkpt><trkpt lat="44.51458695755198" lon="11.890846167857365"><ele>5.0</ele><time>2026-05-03T17:06:56Z</time></trkpt><trkpt lat="44.51461427964688" lon="11.890685713435305"><ele>5.0</ele><time>2026-05-03T17:06:57Z</time></trkpt><trkpt lat="44.51464255378995" lon="11.890520080643695"><ele>4.75</ele><time>2026-05-03T17:06:58Z</time></trkpt><trkpt lat="44.51467430555408" lon="11.890338836704384"><ele>4.5</ele><time>2026-05-03T17:06:59Z</time></trkpt><trkpt lat="44.51470709815011" lon="11.89015402372631"><ele>4.25</ele><time>2026-05-03T17:07:00Z</time></trkpt><trkpt lat="44.514741513719464" lon="11.889973571220215"><ele>4.0</ele><time>2026-05-03T17:07:01Z</time></trkpt><trkpt lat="44.514772198177255" lon="11.889786764267445"><ele>4.5</ele><time>2026-05-03T17:07:02Z</time></trkpt><trkpt lat="44.514806539619784" lon="11.889602854168114"><ele>5.0</ele><time>2026-05-03T17:07:03Z</time></trkpt><trkpt lat="44.51483685733017" lon="11.889420371186164"><ele>5.5</ele><time>2026-05-03T17:07:04Z</time></trkpt><trkpt lat="44.51486846971645" lon="11.889234354846547"><ele>6.0</ele><time>2026-05-03T17:07:05Z</time></trkpt><trkpt lat="44.51490366406421" lon="11.88904890379384"><ele>6.0</ele><time>2026-05-03T17:07:06Z</time></trkpt><trkpt lat="44.51494215091535" lon="11.888864914137013"><ele>6.0</ele><time>2026-05-03T17:07:07Z</time></trkpt><trkpt lat="44.51497865037391" lon="11.888677048751758"><ele>6.0</ele><time>2026-05-03T17:07:08Z</time></trkpt><trkpt lat="44.515008844618414" lon="11.88848015824009"><ele>6.0</ele><time>2026-05-03T17:07:09Z</time></trkpt><trkpt lat="44.515044688224506" lon="11.88828648398927"><ele>6.25</ele><time>2026-05-03T17:07:10Z</time></trkpt><trkpt lat="44.51507978267775" lon="11.888086357763411"><ele>6.5</ele><time>2026-05-03T17:07:11Z</time></trkpt><trkpt lat="44.515110343409674" lon="11.887884589421377"><ele>6.75</ele><time>2026-05-03T17:07:12Z</time></trkpt><trkpt lat="44.51514953828996" lon="11.887685417739936"><ele>7.0</ele><time>2026-05-03T17:07:13Z</time></trkpt><trkpt lat="44.51518539355938" lon="11.88748159196887"><ele>7.0</ele><time>2026-05-03T17:07:14Z</time></trkpt><trkpt lat="44.515222447507874" lon="11.88727549372777"><ele>7.0</ele><time>2026-05-03T17:07:15Z</time></trkpt><trkpt lat="44.515260670088466" lon="11.887083467741196"><ele>7.0</ele><time>2026-05-03T17:07:16Z</time></trkpt><trkpt lat="44.51529462297365" lon="11.886893982732305"><ele>7.0</ele><time>2026-05-03T17:07:17Z</time></trkpt><trkpt lat="44.51532761172895" lon="11.886708177306001"><ele>6.75</ele><time>2026-05-03T17:07:18Z</time></trkpt><trkpt lat="44.515359210215344" lon="11.886516084481679"><ele>6.5</ele><time>2026-05-03T17:07:19Z</time></trkpt><trkpt lat="44.515389443902485" lon="11.886321630711869"><ele>6.25</ele><time>2026-05-03T17:07:20.001Z</time></trkpt><trkpt lat="44.515417462840695" lon="11.88613407963337"><ele>6.0</ele><time>2026-05-03T17:07:21.001Z</time></trkpt><trkpt lat="44.51545285105718" lon="11.8859305194748"><ele>6.25</ele><time>2026-05-03T17:07:22.001Z</time></trkpt><trkpt lat="44.51548993902881" lon="11.885737639357703"><ele>6.5</ele><time>2026-05-03T17:07:23.001Z</time></trkpt><trkpt lat="44.515524879172666" lon="11.885540423972865"><ele>6.75</ele><time>2026-05-03T17:07:24.001Z</time></trkpt><trkpt lat="44.51555971974396" lon="11.885350608319095"><ele>7.0</ele><time>2026-05-03T17:07:25.001Z</time></trkpt><trkpt lat="44.51559242393111" lon="11.885162126341957"><ele>7.25</ele><time>2026-05-03T17:07:26.001Z</time></trkpt><trkpt lat="44.515626729542014" lon="11.884971737692242"><ele>7.5</ele><time>2026-05-03T17:07:27.001Z</time></trkpt><trkpt lat="44.5156593790569" lon="11.88478365167699"><ele>7.75</ele><time>2026-05-03T17:07:28.001Z</time></trkpt><trkpt lat="44.515690886870594" lon="11.884606040769006"><ele>8.0</ele><time>2026-05-03T17:07:29.001Z</time></trkpt><trkpt lat="44.51572258488585" lon="11.884427662782631"><ele>8.0</ele><time>2026-05-03T17:07:30.001Z</time></trkpt><trkpt lat="44.515754251609486" lon="11.88425105313161"><ele>8.0</ele><time>2026-05-03T17:07:31.001Z</time></trkpt><trkpt lat="44.51578860088958" lon="11.884074292277106"><ele>8.0</ele><time>2026-05-03T17:07:32.001Z</time></trkpt><trkpt lat="44.515820200624866" lon="11.883894353050344"><ele>8.0</ele><time>2026-05-03T17:07:33.001Z</time></trkpt><trkpt lat="44.51584969159692" lon="11.883715254568559"><ele>8.0</ele><time>2026-05-03T17:07:34.001Z</time></trkpt><trkpt lat="44.51588238146209" lon="11.883532745491861"><ele>8.0</ele><time>2026-05-03T17:07:35.001Z</time></trkpt><trkpt lat="44.51591661035313" lon="11.88334363867579"><ele>8.0</ele><time>2026-05-03T17:07:36.001Z</time></trkpt><trkpt lat="44.5159509506642" lon="11.883156267593925"><ele>8.0</ele><time>2026-05-03T17:07:37.001Z</time></trkpt><trkpt lat="44.51598544409784" lon="11.882970935645076"><ele>8.0</ele><time>2026-05-03T17:07:38.001Z</time></trkpt><trkpt lat="44.51602117660405" lon="11.88277855247781"><ele>8.0</ele><time>2026-05-03T17:07:39.001Z</time></trkpt><trkpt lat="44.51605421958197" lon="11.882601064572887"><ele>8.0</ele><time>2026-05-03T17:07:40.001Z</time></trkpt><trkpt lat="44.51608427051953" lon="11.882429645488434"><ele>8.0</ele><time>2026-05-03T17:07:41.001Z</time></trkpt><trkpt lat="44.51611276213018" lon="11.882269851222011"><ele>7.5</ele><time>2026-05-03T17:07:42.001Z</time></trkpt><trkpt lat="44.51614016512432" lon="11.882111845962342"><ele>7.0</ele><time>2026-05-03T17:07:43.001Z</time></trkpt><trkpt lat="44.5161664059685" lon="11.881946528608609"><ele>6.5</ele><time>2026-05-03T17:07:44.001Z</time></trkpt><trkpt lat="44.516196490019716" lon="11.881770998789301"><ele>6.0</ele><time>2026-05-03T17:07:45.001Z</time></trkpt><trkpt lat="44.516229733239676" lon="11.881594086512802"><ele>5.25</ele><time>2026-05-03T17:07:46.001Z</time></trkpt><trkpt lat="44.51626147705833" lon="11.881428459456439"><ele>4.5</ele><time>2026-05-03T17:07:47.001Z</time></trkpt><trkpt lat="44.516288992745565" lon="11.881268859918855"><ele>3.75</ele><time>2026-05-03T17:07:48.001Z</time></trkpt><trkpt lat="44.51631620705375" lon="11.881101602751562"><ele>3.0</ele><time>2026-05-03T17:07:49.001Z</time></trkpt><trkpt lat="44.51634786439806" lon="11.880925352895398"><ele>3.0</ele><time>2026-05-03T17:07:50.001Z</time></trkpt><trkpt lat="44.51638101212272" lon="11.88074904451379"><ele>3.0</ele><time>2026-05-03T17:07:51.001Z</time></trkpt><trkpt lat="44.51641102394903" lon="11.880587415195814"><ele>3.0</ele><time>2026-05-03T17:07:52.001Z</time></trkpt><trkpt lat="44.51644028512955" lon="11.880431498304484"><ele>3.0</ele><time>2026-05-03T17:07:53.001Z</time></trkpt><trkpt lat="44.51646963561414" lon="11.880275203426892"><ele>3.0</ele><time>2026-05-03T17:07:54.001Z</time></trkpt><trkpt lat="44.51649884684327" lon="11.880123362034674"><ele>3.0</ele><time>2026-05-03T17:07:55.001Z</time></trkpt><trkpt lat="44.51652863119074" lon="11.879983380361677"><ele>3.0</ele><time>2026-05-03T17:07:56.001Z</time></trkpt><trkpt lat="44.516567702311974" lon="11.879844801012311"><ele>3.0</ele><time>2026-05-03T17:07:57.001Z</time></trkpt><trkpt lat="44.51659112387363" lon="11.879704018348828"><ele>3.0</ele><time>2026-05-03T17:07:58.001Z</time></trkpt><trkpt lat="44.51661256049972" lon="11.879597870255461"><ele>3.25</ele><time>2026-05-03T17:07:59.001Z</time></trkpt><trkpt lat="44.516782240256354" lon="11.879574917600287"><ele>3.5</ele><time>2026-05-03T17:08:00.001Z</time></trkpt><trkpt lat="44.51688067978292" lon="11.879535352338877"><ele>3.75</ele><time>2026-05-03T17:08:01.001Z</time></trkpt><trkpt lat="44.516993115030694" lon="11.87953172183108"><ele>4.0</ele><time>2026-05-03T17:08:02.001Z</time></trkpt><trkpt lat="44.51712303920581" lon="11.879513599896505"><ele>3.0</ele><time>2026-05-03T17:08:03.001Z</time></trkpt><trkpt lat="44.51729892081368" lon="11.879618793635046"><ele>2.0</ele><time>2026-05-03T17:08:04.001Z</time></trkpt><trkpt lat="44.517518198478655" lon="11.87971382776814"><ele>1.0</ele><time>2026-05-03T17:08:05.001Z</time></trkpt><trkpt lat="44.51772540678299" lon="11.879799537610985"><ele>1.3333333333333333</ele><time>2026-05-03T17:08:06.001Z</time></trkpt><trkpt lat="44.517915895972585" lon="11.879876308749532"><ele>1.6666666666666665</ele><time>2026-05-03T17:08:07.001Z</time></trkpt><trkpt lat="44.518099625774106" lon="11.879944184494896"><ele>2.0</ele><time>2026-05-03T17:08:08.001Z</time></trkpt><trkpt lat="44.518290063095215" lon="11.880019952389267"><ele>2.0</ele><time>2026-05-03T17:08:09.001Z</time></trkpt><trkpt lat="44.518499997125666" lon="11.880108818482752"><ele>2.0</ele><time>2026-05-03T17:08:10.001Z</time></trkpt><trkpt lat="44.51873311562148" lon="11.880207357401705"><ele>2.0</ele><time>2026-05-03T17:08:11.001Z</time></trkpt><trkpt lat="44.51896297008949" lon="11.880300551716065"><ele>2.0</ele><time>2026-05-03T17:08:12.001Z</time></trkpt><trkpt lat="44.519192425733614" lon="11.88039451777086"><ele>2.0</ele><time>2026-05-03T17:08:13.001Z</time></trkpt><trkpt lat="44.51942454709139" lon="11.880489093614024"><ele>2.0</ele><time>2026-05-03T17:08:14.001Z</time></trkpt><trkpt lat="44.51966648411394" lon="11.880588452051525"><ele>3.0</ele><time>2026-05-03T17:08:15.001Z</time></trkpt><trkpt lat="44.51991038875153" lon="11.880688161458643"><ele>4.0</ele><time>2026-05-03T17:08:16.001Z</time></trkpt><trkpt lat="44.52015482840258" lon="11.880789379099335"><ele>3.5</ele><time>2026-05-03T17:08:17.001Z</time></trkpt><trkpt lat="44.5204100323392" lon="11.8808919736226"><ele>3.0</ele><time>2026-05-03T17:08:18.001Z</time></trkpt><trkpt lat="44.5206558916929" lon="11.880992574279873"><ele>3.0</ele><time>2026-05-03T17:08:19.001Z</time></trkpt><trkpt lat="44.52088905262933" lon="11.88108660605211"><ele>3.0</ele><time>2026-05-03T17:08:20.001Z</time></trkpt><trkpt lat="44.52111198078929" lon="11.881178332231752"><ele>3.0</ele><time>2026-05-03T17:08:21.001Z</time></trkpt><trkpt lat="44.521325747363356" lon="11.881267642466614"><ele>3.0</ele><time>2026-05-03T17:08:22.001Z</time></trkpt><trkpt lat="44.521534803719035" lon="11.88135710783288"><ele>3.0</ele><time>2026-05-03T17:08:23.001Z</time></trkpt><trkpt lat="44.52174711145386" lon="11.881445534694082"><ele>3.0</ele><time>2026-05-03T17:08:24.001Z</time></trkpt><trkpt lat="44.52196037554876" lon="11.881538002974043"><ele>3.0</ele><time>2026-05-03T17:08:25.001Z</time></trkpt><trkpt lat="44.522176173981364" lon="11.88162706695272"><ele>3.0</ele><time>2026-05-03T17:08:26.001Z</time></trkpt><trkpt lat="44.522392004541196" lon="11.88171466425593"><ele>3.0</ele><time>2026-05-03T17:08:27.001Z</time></trkpt><trkpt lat="44.5226060116955" lon="11.881804463336575"><ele>3.0</ele><time>2026-05-03T17:08:28.001Z</time></trkpt><trkpt lat="44.52282446855552" lon="11.881894138865347"><ele>3.0</ele><time>2026-05-03T17:08:29.001Z</time></trkpt><trkpt lat="44.523047614660506" lon="11.881981546500034"><ele>3.0</ele><time>2026-05-03T17:08:30.001Z</time></trkpt><trkpt lat="44.52327036892256" lon="11.88206452000909"><ele>3.0</ele><time>2026-05-03T17:08:31.001Z</time></trkpt><trkpt lat="44.523498363694124" lon="11.882142360188407"><ele>3.0</ele><time>2026-05-03T17:08:32.001Z</time></trkpt><trkpt lat="44.52372810622045" lon="11.882210696924489"><ele>3.0</ele><time>2026-05-03T17:08:33.001Z</time></trkpt><trkpt lat="44.52396183920578" lon="11.882274841549986"><ele>3.0</ele><time>2026-05-03T17:08:34.001Z</time></trkpt><trkpt lat="44.52419441052929" lon="11.88233599287098"><ele>3.0</ele><time>2026-05-03T17:08:35.001Z</time></trkpt><trkpt lat="44.52443093319995" lon="11.882386416956471"><ele>3.0</ele><time>2026-05-03T17:08:36.001Z</time></trkpt><trkpt lat="44.524669619294066" lon="11.882432414769704"><ele>3.5</ele><time>2026-05-03T17:08:37.001Z</time></trkpt><trkpt lat="44.52490513214627" lon="11.882475416604969"><ele>4.0</ele><time>2026-05-03T17:08:38.001Z</time></trkpt><trkpt lat="44.52514062378764" lon="11.88251754854646"><ele>4.0</ele><time>2026-05-03T17:08:39.001Z</time></trkpt><trkpt lat="44.52537475249883" lon="11.88255109881146"><ele>4.0</ele><time>2026-05-03T17:08:40.001Z</time></trkpt><trkpt lat="44.52560868086039" lon="11.88257926156166"><ele>5.5</ele><time>2026-05-03T17:08:41.001Z</time></trkpt><trkpt lat="44.525843535034895" lon="11.88259836144317"><ele>7.0</ele><time>2026-05-03T17:08:42.001Z</time></trkpt><trkpt lat="44.526072525997066" lon="11.88260982022685"><ele>6.666666666666667</ele><time>2026-05-03T17:08:43Z</time></trkpt><trkpt lat="44.52629554263764" lon="11.882609798980756"><ele>6.333333333333334</ele><time>2026-05-03T17:08:44Z</time></trkpt><trkpt lat="44.526514822767716" lon="11.882600962501005"><ele>6.0</ele><time>2026-05-03T17:08:45Z</time></trkpt><trkpt lat="44.52673203678113" lon="11.882587732791071"><ele>5.666666666666667</ele><time>2026-05-03T17:08:46Z</time></trkpt><trkpt lat="44.526939657428905" lon="11.882589397407514"><ele>5.333333333333334</ele><time>2026-05-03T17:08:47Z</time></trkpt><trkpt lat="44.52713906920459" lon="11.88252940731093"><ele>5.0</ele><time>2026-05-03T17:08:48Z</time></trkpt><trkpt lat="44.527337693796696" lon="11.882497387403715"><ele>5.666666666666667</ele><time>2026-05-03T17:08:49Z</time></trkpt><trkpt lat="44.527542780757955" lon="11.882451475296705"><ele>6.333333333333334</ele><time>2026-05-03T17:08:49.999Z</time></trkpt><trkpt lat="44.52774757647499" lon="11.882400974266348"><ele>7.0</ele><time>2026-05-03T17:08:50.999Z</time></trkpt><trkpt lat="44.52795456208255" lon="11.882341000051703"><ele>7.0</ele><time>2026-05-03T17:08:51.999Z</time></trkpt><trkpt lat="44.52816358256045" lon="11.882281799032576"><ele>7.0</ele><time>2026-05-03T17:08:52.999Z</time></trkpt><trkpt lat="44.52837625953341" lon="11.882216971912746"><ele>7.0</ele><time>2026-05-03T17:08:53.999Z</time></trkpt><trkpt lat="44.52858763006301" lon="11.88214815960451"><ele>7.0</ele><time>2026-05-03T17:08:54.999Z</time></trkpt><trkpt lat="44.5287969033867" lon="11.882082356733479"><ele>7.0</ele><time>2026-05-03T17:08:55.999Z</time></trkpt><trkpt lat="44.529003620160935" lon="11.882019229256436"><ele>7.0</ele><time>2026-05-03T17:08:56.999Z</time></trkpt><trkpt lat="44.529208594335955" lon="11.881954665250705"><ele>7.0</ele><time>2026-05-03T17:08:57.999Z</time></trkpt><trkpt lat="44.52940747072469" lon="11.881894480838216"><ele>7.0</ele><time>2026-05-03T17:08:58.999Z</time></trkpt><trkpt lat="44.52960922808789" lon="11.88182883948801"><ele>7.0</ele><time>2026-05-03T17:08:59.999Z</time></trkpt><trkpt lat="44.529810687185034" lon="11.881767272488359"><ele>7.0</ele><time>2026-05-03T17:09:00.999Z</time></trkpt><trkpt lat="44.53000667512559" lon="11.881710019605457"><ele>7.0</ele><time>2026-05-03T17:09:01.999Z</time></trkpt><trkpt lat="44.53018693103829" lon="11.881656066398653"><ele>7.0</ele><time>2026-05-03T17:09:03Z</time></trkpt><trkpt lat="44.5303616844758" lon="11.881601335093293"><ele>7.0</ele><time>2026-05-03T17:09:04Z</time></trkpt><trkpt lat="44.530525450568824" lon="11.881550803739966"><ele>7.0</ele><time>2026-05-03T17:09:05Z</time></trkpt><trkpt lat="44.53067321041681" lon="11.881510650658688"><ele>7.0</ele><time>2026-05-03T17:09:06Z</time></trkpt><trkpt lat="44.530821257506055" lon="11.881476311170333"><ele>7.0</ele><time>2026-05-03T17:09:07Z</time></trkpt><trkpt lat="44.53097888909176" lon="11.881455903217827"><ele>7.0</ele><time>2026-05-03T17:09:08Z</time></trkpt><trkpt lat="44.53113655568865" lon="11.881464680689405"><ele>7.0</ele><time>2026-05-03T17:09:09Z</time></trkpt><trkpt lat="44.531287210081395" lon="11.881496973071833"><ele>6.666666666666667</ele><time>2026-05-03T17:09:10Z</time></trkpt><trkpt lat="44.531441990051505" lon="11.881537131833346"><ele>6.333333333333334</ele><time>2026-05-03T17:09:11Z</time></trkpt><trkpt lat="44.531602170293276" lon="11.881569998731747"><ele>6.0</ele><time>2026-05-03T17:09:12Z</time></trkpt><trkpt lat="44.53175440590412" lon="11.881599588567894"><ele>6.0</ele><time>2026-05-03T17:09:13Z</time></trkpt><trkpt lat="44.53189431877653" lon="11.881627183347936"><ele>6.0</ele><time>2026-05-03T17:09:14Z</time></trkpt><trkpt lat="44.532023625155865" lon="11.881655778224404"><ele>6.0</ele><time>2026-05-03T17:09:15Z</time></trkpt><trkpt lat="44.53213787767742" lon="11.881681034415733"><ele>6.0</ele><time>2026-05-03T17:09:16Z</time></trkpt><trkpt lat="44.532239545143014" lon="11.881697755681499"><ele>6.166666666666667</ele><time>2026-05-03T17:09:17Z</time></trkpt><trkpt lat="44.532332998263904" lon="11.881711123146859"><ele>6.333333333333334</ele><time>2026-05-03T17:09:18Z</time></trkpt><trkpt lat="44.53242094366908" lon="11.881713821133568"><ele>6.5</ele><time>2026-05-03T17:09:19Z</time></trkpt><trkpt lat="44.53249803816268" lon="11.881708201241132"><ele>6.666666666666667</ele><time>2026-05-03T17:09:20Z</time></trkpt><trkpt lat="44.53256917253402" lon="11.881681281556512"><ele>6.833333333333334</ele><time>2026-05-03T17:09:21Z</time></trkpt><trkpt lat="44.53263664984265" lon="11.881615476868797"><ele>7.0</ele><time>2026-05-03T17:09:22Z</time></trkpt><trkpt lat="44.53267417684095" lon="11.881486156232409"><ele>7.0</ele><time>2026-05-03T17:09:23Z</time></trkpt><trkpt lat="44.53268217124118" lon="11.881327139256143"><ele>7.0</ele><time>2026-05-03T17:09:24Z</time></trkpt><trkpt lat="44.53267717519607" lon="11.881135297371484"><ele>7.0</ele><time>2026-05-03T17:09:25Z</time></trkpt><trkpt lat="44.53267397898712" lon="11.880943213822865"><ele>7.0</ele><time>2026-05-03T17:09:26Z</time></trkpt><trkpt lat="44.53267291828963" lon="11.880736702984187"><ele>6.666666666666667</ele><time>2026-05-03T17:09:27Z</time></trkpt><trkpt lat="44.53267179564829" lon="11.88052440904693"><ele>6.333333333333334</ele><time>2026-05-03T17:09:28Z</time></trkpt><trkpt lat="44.532673968056166" lon="11.880299547995262"><ele>6.0</ele><time>2026-05-03T17:09:29Z</time></trkpt><trkpt lat="44.532678425103306" lon="11.880054233959774"><ele>5.666666666666667</ele><time>2026-05-03T17:09:30Z</time></trkpt><trkpt lat="44.532683208624924" lon="11.879803925754015"><ele>5.333333333333334</ele><time>2026-05-03T17:09:31Z</time></trkpt><trkpt lat="44.532686349699354" lon="11.879531193314433"><ele>5.0</ele><time>2026-05-03T17:09:32Z</time></trkpt><trkpt lat="44.532691369743624" lon="11.879266319703564"><ele>4.666666666666667</ele><time>2026-05-03T17:09:33Z</time></trkpt><trkpt lat="44.53269390266346" lon="11.878989643021534"><ele>4.333333333333333</ele><time>2026-05-03T17:09:34Z</time></trkpt><trkpt lat="44.532702057225386" lon="11.878705330491641"><ele>4.0</ele><time>2026-05-03T17:09:35Z</time></trkpt><trkpt lat="44.532710424738674" lon="11.878415398938618"><ele>4.0</ele><time>2026-05-03T17:09:36Z</time></trkpt><trkpt lat="44.53271665802607" lon="11.878129278991588"><ele>4.0</ele><time>2026-05-03T17:09:37Z</time></trkpt><trkpt lat="44.53272193806537" lon="11.877848861720093"><ele>4.0</ele><time>2026-05-03T17:09:38Z</time></trkpt><trkpt lat="44.53272765467973" lon="11.877572502389201"><ele>4.0</ele><time>2026-05-03T17:09:39Z</time></trkpt><trkpt lat="44.532734829558706" lon="11.877297452901738"><ele>4.0</ele><time>2026-05-03T17:09:40Z</time></trkpt><trkpt lat="44.53274279742896" lon="11.877016495121019"><ele>4.0</ele><time>2026-05-03T17:09:41Z</time></trkpt><trkpt lat="44.53275126331531" lon="11.876740541797348"><ele>4.0</ele><time>2026-05-03T17:09:42Z</time></trkpt><trkpt lat="44.53275813586057" lon="11.87645399056567"><ele>4.0</ele><time>2026-05-03T17:09:43Z</time></trkpt><trkpt lat="44.53276767338657" lon="11.876171073088683"><ele>4.0</ele><time>2026-05-03T17:09:44Z</time></trkpt><trkpt lat="44.532775351686965" lon="11.875879931049678"><ele>3.6666666666666665</ele><time>2026-05-03T17:09:45Z</time></trkpt><trkpt lat="44.53278481080094" lon="11.875587725761022"><ele>3.333333333333333</ele><time>2026-05-03T17:09:46Z</time></trkpt><trkpt lat="44.532793276716866" lon="11.875291130806428"><ele>3.0</ele><time>2026-05-03T17:09:47Z</time></trkpt><trkpt lat="44.53279947907055" lon="11.87499435496492"><ele>3.0</ele><time>2026-05-03T17:09:48Z</time></trkpt><trkpt lat="44.53280411199845" lon="11.874696395262793"><ele>3.0</ele><time>2026-05-03T17:09:49Z</time></trkpt><trkpt lat="44.53280739419406" lon="11.874398240938891"><ele>3.0</ele><time>2026-05-03T17:09:50Z</time></trkpt><trkpt lat="44.53281254127656" lon="11.874104048081902"><ele>2.3333333333333335</ele><time>2026-05-03T17:09:51Z</time></trkpt><trkpt lat="44.53281891760184" lon="11.873826963739088"><ele>1.6666666666666665</ele><time>2026-05-03T17:09:52Z</time></trkpt><trkpt lat="44.53282561130453" lon="11.873551358842096"><ele>1.0</ele><time>2026-05-03T17:09:53Z</time></trkpt><trkpt lat="44.53283212884424" lon="11.873265414753186"><ele>1.0</ele><time>2026-05-03T17:09:54Z</time></trkpt><trkpt lat="44.5328365703714" lon="11.872977554486255"><ele>1.0</ele><time>2026-05-03T17:09:55Z</time></trkpt><trkpt lat="44.53284125910382" lon="11.872688889153471"><ele>1.0</ele><time>2026-05-03T17:09:56Z</time></trkpt><trkpt lat="44.53284609910282" lon="11.872403574700337"><ele>1.3333333333333333</ele><time>2026-05-03T17:09:57Z</time></trkpt><trkpt lat="44.53284988810934" lon="11.872107071629095"><ele>1.6666666666666665</ele><time>2026-05-03T17:09:58Z</time></trkpt><trkpt lat="44.53285458168329" lon="11.871818784110399"><ele>2.0</ele><time>2026-05-03T17:09:59Z</time></trkpt><trkpt lat="44.53284307502779" lon="11.87152316430996"><ele>2.0</ele><time>2026-05-03T17:10:00Z</time></trkpt><trkpt lat="44.53284757148806" lon="11.871224299634012"><ele>2.0</ele><time>2026-05-03T17:10:01Z</time></trkpt><trkpt lat="44.532852093374714" lon="11.870923744848724"><ele>2.0</ele><time>2026-05-03T17:10:02Z</time></trkpt><trkpt lat="44.532856611172356" lon="11.870623461878857"><ele>1.3333333333333333</ele><time>2026-05-03T17:10:03Z</time></trkpt><trkpt lat="44.53287599480259" lon="11.87032847361837"><ele>0.6666666666666666</ele><time>2026-05-03T17:10:04Z</time></trkpt><trkpt lat="44.53287999222546" lon="11.87002399122732"><ele>0.0</ele><time>2026-05-03T17:10:05Z</time></trkpt><trkpt lat="44.532883788620225" lon="11.869723831983013"><ele>0.0</ele><time>2026-05-03T17:10:06Z</time></trkpt><trkpt lat="44.53288806240842" lon="11.8694245647522"><ele>0.0</ele><time>2026-05-03T17:10:07.001Z</time></trkpt><trkpt lat="44.532892685856694" lon="11.869125276368198"><ele>0.0</ele><time>2026-05-03T17:10:08.001Z</time></trkpt><trkpt lat="44.53289817796353" lon="11.86882890503648"><ele>0.6666666666666666</ele><time>2026-05-03T17:10:09.001Z</time></trkpt><trkpt lat="44.53289958204653" lon="11.86853163729874"><ele>1.3333333333333333</ele><time>2026-05-03T17:10:10.001Z</time></trkpt><trkpt lat="44.5329024555922" lon="11.868238171945412"><ele>2.0</ele><time>2026-05-03T17:10:11.001Z</time></trkpt><trkpt lat="44.532905441381054" lon="11.867942908436062"><ele>2.0</ele><time>2026-05-03T17:10:12.001Z</time></trkpt><trkpt lat="44.53291034053612" lon="11.867645057830023"><ele>2.0</ele><time>2026-05-03T17:10:13.001Z</time></trkpt><trkpt lat="44.53291335757764" lon="11.867350911009538"><ele>2.0</ele><time>2026-05-03T17:10:14.001Z</time></trkpt><trkpt lat="44.53291612447608" lon="11.86705605626434"><ele>2.333333333333333</ele><time>2026-05-03T17:10:15.001Z</time></trkpt><trkpt lat="44.532917735241455" lon="11.866759727783801"><ele>2.6666666666666665</ele><time>2026-05-03T17:10:16.001Z</time></trkpt><trkpt lat="44.53291966284037" lon="11.866460427999042"><ele>3.0</ele><time>2026-05-03T17:10:17.001Z</time></trkpt><trkpt lat="44.532923442636985" lon="11.86616842543898"><ele>2.6666666666666665</ele><time>2026-05-03T17:10:18.001Z</time></trkpt><trkpt lat="44.532925953664574" lon="11.8658828699932"><ele>2.333333333333333</ele><time>2026-05-03T17:10:19.001Z</time></trkpt><trkpt lat="44.532926736611145" lon="11.865600657843457"><ele>2.0</ele><time>2026-05-03T17:10:20.001Z</time></trkpt><trkpt lat="44.532926491414386" lon="11.86532140559505"><ele>2.333333333333333</ele><time>2026-05-03T17:10:21.001Z</time></trkpt><trkpt lat="44.53292737791192" lon="11.865047524833503"><ele>2.6666666666666665</ele><time>2026-05-03T17:10:22.001Z</time></trkpt><trkpt lat="44.53292997791777" lon="11.864764354384155"><ele>3.0</ele><time>2026-05-03T17:10:23.001Z</time></trkpt><trkpt lat="44.532927404798116" lon="11.864483755681189"><ele>2.6666666666666665</ele><time>2026-05-03T17:10:24.001Z</time></trkpt><trkpt lat="44.53292510198286" lon="11.86419917693426"><ele>2.333333333333333</ele><time>2026-05-03T17:10:25.001Z</time></trkpt><trkpt lat="44.53292706177853" lon="11.863905213104335"><ele>2.0</ele><time>2026-05-03T17:10:26.001Z</time></trkpt><trkpt lat="44.53293051728474" lon="11.863621303060695"><ele>1.6666666666666665</ele><time>2026-05-03T17:10:27.001Z</time></trkpt><trkpt lat="44.532930727346496" lon="11.863335647990219"><ele>1.3333333333333333</ele><time>2026-05-03T17:10:28.001Z</time></trkpt><trkpt lat="44.5329296681274" lon="11.863048610219419"><ele>1.0</ele><time>2026-05-03T17:10:29.001Z</time></trkpt><trkpt lat="44.53293046093048" lon="11.862764573061346"><ele>1.3333333333333333</ele><time>2026-05-03T17:10:30.001Z</time></trkpt><trkpt lat="44.532933664111745" lon="11.862478287667626"><ele>1.6666666666666665</ele><time>2026-05-03T17:10:31.001Z</time></trkpt><trkpt lat="44.532937161342375" lon="11.86219168830015"><ele>2.0</ele><time>2026-05-03T17:10:32.001Z</time></trkpt><trkpt lat="44.532942050583785" lon="11.861903282592193"><ele>2.6666666666666665</ele><time>2026-05-03T17:10:33.001Z</time></trkpt><trkpt lat="44.53294492973906" lon="11.86162286301975"><ele>3.333333333333333</ele><time>2026-05-03T17:10:34.001Z</time></trkpt><trkpt lat="44.53294663930837" lon="11.861338792542654"><ele>4.0</ele><time>2026-05-03T17:10:35.001Z</time></trkpt><trkpt lat="44.53294894807115" lon="11.861065171684919"><ele>3.6666666666666665</ele><time>2026-05-03T17:10:36.001Z</time></trkpt><trkpt lat="44.53295176578055" lon="11.860791125236366"><ele>3.333333333333333</ele><time>2026-05-03T17:10:37.001Z</time></trkpt><trkpt lat="44.53295780494996" lon="11.860519546542417"><ele>3.0</ele><time>2026-05-03T17:10:38.001Z</time></trkpt><trkpt lat="44.532959470607075" lon="11.860242713223341"><ele>3.333333333333333</ele><time>2026-05-03T17:10:39.001Z</time></trkpt><trkpt lat="44.532963497710234" lon="11.8599716632654"><ele>3.6666666666666665</ele><time>2026-05-03T17:10:40.001Z</time></trkpt><trkpt lat="44.53296754936857" lon="11.85969465512751"><ele>4.0</ele><time>2026-05-03T17:10:41.001Z</time></trkpt><trkpt lat="44.53297225569041" lon="11.859412620635792"><ele>3.6666666666666665</ele><time>2026-05-03T17:10:42.001Z</time></trkpt><trkpt lat="44.532977348435104" lon="11.859139626751588"><ele>3.333333333333333</ele><time>2026-05-03T17:10:43.001Z</time></trkpt><trkpt lat="44.5329832462944" lon="11.858871176839845"><ele>3.0</ele><time>2026-05-03T17:10:44.001Z</time></trkpt><trkpt lat="44.53299070137446" lon="11.85860812144726"><ele>3.0</ele><time>2026-05-03T17:10:45.001Z</time></trkpt><trkpt lat="44.532994098247705" lon="11.858327665595672"><ele>3.0</ele><time>2026-05-03T17:10:46.001Z</time></trkpt><trkpt lat="44.53300051430745" lon="11.858055364774824"><ele>3.0</ele><time>2026-05-03T17:10:47.001Z</time></trkpt><trkpt lat="44.53300594236003" lon="11.857785510961543"><ele>3.0</ele><time>2026-05-03T17:10:48.001Z</time></trkpt><trkpt lat="44.53301162994645" lon="11.857517033759363"><ele>3.0</ele><time>2026-05-03T17:10:48.998Z</time></trkpt><trkpt lat="44.53301795790995" lon="11.857244652114586"><ele>3.0</ele><time>2026-05-03T17:10:49.998Z</time></trkpt><trkpt lat="44.533023376935056" lon="11.856964912508692"><ele>2.6666666666666665</ele><time>2026-05-03T17:10:50.998Z</time></trkpt><trkpt lat="44.53302838991351" lon="11.856689382503584"><ele>2.333333333333333</ele><time>2026-05-03T17:10:51.998Z</time></trkpt><trkpt lat="44.53303409993875" lon="11.85641543800687"><ele>2.0</ele><time>2026-05-03T17:10:52.998Z</time></trkpt><trkpt lat="44.53304001890127" lon="11.856147266568058"><ele>2.333333333333333</ele><time>2026-05-03T17:10:53.998Z</time></trkpt><trkpt lat="44.53304518657805" lon="11.85589215736922"><ele>2.6666666666666665</ele><time>2026-05-03T17:10:54.998Z</time></trkpt><trkpt lat="44.5330501418876" lon="11.855660958181984"><ele>3.0</ele><time>2026-05-03T17:10:55.998Z</time></trkpt><trkpt lat="44.53305699394555" lon="11.85544104731127"><ele>3.0</ele><time>2026-05-03T17:10:56.998Z</time></trkpt><trkpt lat="44.533059436646" lon="11.855234659257901"><ele>3.0</ele><time>2026-05-03T17:10:57.998Z</time></trkpt><trkpt lat="44.53306326416738" lon="11.855050352567476"><ele>3.0</ele><time>2026-05-03T17:10:58.998Z</time></trkpt><trkpt lat="44.53306710758977" lon="11.854890950289496"><ele>3.0</ele><time>2026-05-03T17:10:59.998Z</time></trkpt><trkpt lat="44.53307046527532" lon="11.854742765355077"><ele>2.8</ele><time>2026-05-03T17:11:00.998Z</time></trkpt><trkpt lat="44.5330713623439" lon="11.854613284482415"><ele>2.5999999999999996</ele><time>2026-05-03T17:11:01.998Z</time></trkpt><trkpt lat="44.53307370441671" lon="11.854489947752448"><ele>2.4000000000000004</ele><time>2026-05-03T17:11:02.999Z</time></trkpt><trkpt lat="44.533076860480485" lon="11.854345388451916"><ele>2.2</ele><time>2026-05-03T17:11:03.999Z</time></trkpt><trkpt lat="44.53307995109002" lon="11.854164702525365"><ele>2.0</ele><time>2026-05-03T17:11:04.999Z</time></trkpt><trkpt lat="44.53308191445562" lon="11.853963446878257"><ele>1.3333333333333333</ele><time>2026-05-03T17:11:05.999Z</time></trkpt><trkpt lat="44.53307948002608" lon="11.853740379196188"><ele>0.6666666666666666</ele><time>2026-05-03T17:11:06.999Z</time></trkpt><trkpt lat="44.53307599859547" lon="11.85349830216047"><ele>0.0</ele><time>2026-05-03T17:11:07.999Z</time></trkpt><trkpt lat="44.53306847630551" lon="11.853232826145998"><ele>0.0</ele><time>2026-05-03T17:11:08.999Z</time></trkpt><trkpt lat="44.53307797604965" lon="11.852960341300237"><ele>0.0</ele><time>2026-05-03T17:11:09.999Z</time></trkpt><trkpt lat="44.53308112526415" lon="11.85269794034897"><ele>0.0</ele><time>2026-05-03T17:11:10.999Z</time></trkpt><trkpt lat="44.53308440860928" lon="11.85242436321503"><ele>0.3333333333333333</ele><time>2026-05-03T17:11:11.999Z</time></trkpt><trkpt lat="44.5330878641397" lon="11.852136439170186"><ele>0.6666666666666666</ele><time>2026-05-03T17:11:12.999Z</time></trkpt><trkpt lat="44.53309138118788" lon="11.851843389273993"><ele>1.0</ele><time>2026-05-03T17:11:13.999Z</time></trkpt><trkpt lat="44.53309496274292" lon="11.851544964526116"><ele>1.0</ele><time>2026-05-03T17:11:14.999Z</time></trkpt><trkpt lat="44.5330985933266" lon="11.851242454583737"><ele>1.0</ele><time>2026-05-03T17:11:15.999Z</time></trkpt><trkpt lat="44.5330899651402" lon="11.850940046693546"><ele>1.0</ele><time>2026-05-03T17:11:16.999Z</time></trkpt><trkpt lat="44.53310383215051" lon="11.850638727203131"><ele>0.6666666666666666</ele><time>2026-05-03T17:11:17.999Z</time></trkpt><trkpt lat="44.53311633806332" lon="11.850342689188384"><ele>0.3333333333333333</ele><time>2026-05-03T17:11:18.999Z</time></trkpt><trkpt lat="44.533125321760416" lon="11.850048479647159"><ele>0.0</ele><time>2026-05-03T17:11:19.999Z</time></trkpt><trkpt lat="44.53313311596214" lon="11.849755091811327"><ele>0.0</ele><time>2026-05-03T17:11:20.999Z</time></trkpt><trkpt lat="44.533142792726025" lon="11.849460138830423"><ele>0.0</ele><time>2026-05-03T17:11:21.999Z</time></trkpt><trkpt lat="44.533155385667044" lon="11.849164970386063"><ele>0.0</ele><time>2026-05-03T17:11:22.999Z</time></trkpt><trkpt lat="44.533147523944145" lon="11.848876688449675"><ele>0.0</ele><time>2026-05-03T17:11:23.999Z</time></trkpt><trkpt lat="44.53315033318939" lon="11.848580869841308"><ele>0.0</ele><time>2026-05-03T17:11:25Z</time></trkpt><trkpt lat="44.53315484891589" lon="11.84827962137599"><ele>0.0</ele><time>2026-05-03T17:11:26Z</time></trkpt><trkpt lat="44.53316636668201" lon="11.847974129708684"><ele>-0.3333333333333333</ele><time>2026-05-03T17:11:27Z</time></trkpt><trkpt lat="44.53318878706043" lon="11.847667395934717"><ele>-0.6666666666666666</ele><time>2026-05-03T17:11:28Z</time></trkpt><trkpt lat="44.5332164071714" lon="11.84736793279205"><ele>-1.0</ele><time>2026-05-03T17:11:29Z</time></trkpt><trkpt lat="44.53324475397619" lon="11.847073370241295"><ele>-0.3333333333333333</ele><time>2026-05-03T17:11:30Z</time></trkpt><trkpt lat="44.53325824323175" lon="11.846767179510056"><ele>0.3333333333333333</ele><time>2026-05-03T17:11:31Z</time></trkpt><trkpt lat="44.533271442877826" lon="11.84645947359048"><ele>1.0</ele><time>2026-05-03T17:11:32Z</time></trkpt><trkpt lat="44.53331456817786" lon="11.846157691927187"><ele>1.0</ele><time>2026-05-03T17:11:33Z</time></trkpt><trkpt lat="44.53334467470798" lon="11.84585215043364"><ele>1.0</ele><time>2026-05-03T17:11:34Z</time></trkpt><trkpt lat="44.533372222003834" lon="11.845539289559577"><ele>1.0</ele><time>2026-05-03T17:11:35Z</time></trkpt><trkpt lat="44.533399980135506" lon="11.84523061730751"><ele>0.0</ele><time>2026-05-03T17:11:36Z</time></trkpt><trkpt lat="44.533430693298904" lon="11.844913816312362"><ele>-1.0</ele><time>2026-05-03T17:11:37Z</time></trkpt><trkpt lat="44.53346176372393" lon="11.84459475803093"><ele>0.5</ele><time>2026-05-03T17:11:38Z</time></trkpt><trkpt lat="44.533493556437506" lon="11.844270957247398"><ele>2.0</ele><time>2026-05-03T17:11:39Z</time></trkpt><trkpt lat="44.5335250183485" lon="11.843953905219735"><ele>2.0</ele><time>2026-05-03T17:11:40Z</time></trkpt><trkpt lat="44.53355773443953" lon="11.843624214423059"><ele>2.0</ele><time>2026-05-03T17:11:41Z</time></trkpt><trkpt lat="44.53359028345685" lon="11.843296207275275"><ele>2.0</ele><time>2026-05-03T17:11:42Z</time></trkpt><trkpt lat="44.53362183100004" lon="11.842965381815622"><ele>2.0</ele><time>2026-05-03T17:11:43Z</time></trkpt><trkpt lat="44.53365223569034" lon="11.842645178450306"><ele>1.5</ele><time>2026-05-03T17:11:44Z</time></trkpt><trkpt lat="44.53368229931061" lon="11.842318905933489"><ele>1.0</ele><time>2026-05-03T17:11:45Z</time></trkpt><trkpt lat="44.53370218329852" lon="11.841994377514482"><ele>0.5</ele><time>2026-05-03T17:11:46Z</time></trkpt><trkpt lat="44.53374150700914" lon="11.841668758428218"><ele>0.0</ele><time>2026-05-03T17:11:47Z</time></trkpt><trkpt lat="44.53377887890366" lon="11.841345780002307"><ele>0.0</ele><time>2026-05-03T17:11:48Z</time></trkpt><trkpt lat="44.53381299185834" lon="11.841020856300258"><ele>0.0</ele><time>2026-05-03T17:11:49Z</time></trkpt><trkpt lat="44.533845812480855" lon="11.84070934468729"><ele>0.3333333333333333</ele><time>2026-05-03T17:11:50Z</time></trkpt><trkpt lat="44.53387153227411" lon="11.840414380303155"><ele>0.6666666666666666</ele><time>2026-05-03T17:11:51Z</time></trkpt><trkpt lat="44.53389588334564" lon="11.840134131609378"><ele>1.0</ele><time>2026-05-03T17:11:52Z</time></trkpt><trkpt lat="44.53391765847554" lon="11.839880636337334"><ele>1.3333333333333333</ele><time>2026-05-03T17:11:53Z</time></trkpt><trkpt lat="44.53393892039318" lon="11.839636317531104"><ele>1.6666666666666665</ele><time>2026-05-03T17:11:54Z</time></trkpt><trkpt lat="44.53395934390113" lon="11.83939570908509"><ele>2.0</ele><time>2026-05-03T17:11:55Z</time></trkpt><trkpt lat="44.53397611361865" lon="11.83915488873331"><ele>2.0</ele><time>2026-05-03T17:11:56Z</time></trkpt><trkpt lat="44.533991643700595" lon="11.838909803261307"><ele>2.0</ele><time>2026-05-03T17:11:57Z</time></trkpt><trkpt lat="44.53402134865397" lon="11.83867898663102"><ele>2.0</ele><time>2026-05-03T17:11:58Z</time></trkpt><trkpt lat="44.534036695349336" lon="11.838472357659466"><ele>2.2</ele><time>2026-05-03T17:11:59Z</time></trkpt><trkpt lat="44.53404862548412" lon="11.838283606036693"><ele>2.4000000000000004</ele><time>2026-05-03T17:12:00Z</time></trkpt><trkpt lat="44.534058602604055" lon="11.838111231400765"><ele>2.5999999999999996</ele><time>2026-05-03T17:12:01Z</time></trkpt><trkpt lat="44.53405588040622" lon="11.83796531522452"><ele>2.8</ele><time>2026-05-03T17:12:02Z</time></trkpt><trkpt lat="44.53407964609175" lon="11.837850314142408"><ele>3.0</ele><time>2026-05-03T17:12:03Z</time></trkpt><trkpt lat="44.53410606889889" lon="11.83776182642949"><ele>3.2</ele><time>2026-05-03T17:12:04Z</time></trkpt><trkpt lat="44.53414053696648" lon="11.837614311558424"><ele>3.4</ele><time>2026-05-03T17:12:06Z</time></trkpt><trkpt lat="44.534090369527064" lon="11.837520355147387"><ele>3.6000000000000005</ele><time>2026-05-03T17:12:08Z</time></trkpt><trkpt lat="44.53406153832343" lon="11.837392570979599"><ele>3.8000000000000003</ele><time>2026-05-03T17:12:14.001Z</time></trkpt><trkpt lat="44.533922556458116" lon="11.83734970485814"><ele>4.0</ele><time>2026-05-03T17:12:16.001Z</time></trkpt><trkpt lat="44.53382584475217" lon="11.837352942090764"><ele>4.0</ele><time>2026-05-03T17:12:17.001Z</time></trkpt><trkpt lat="44.53373427749596" lon="11.837345169597526"><ele>4.0</ele><time>2026-05-03T17:12:18.001Z</time></trkpt><trkpt lat="44.53365784785985" lon="11.837334625033357"><ele>4.0</ele><time>2026-05-03T17:12:19.001Z</time></trkpt><trkpt lat="44.533569178694506" lon="11.837330139770586"><ele>4.0</ele><time>2026-05-03T17:12:20.001Z</time></trkpt><trkpt lat="44.53346441442154" lon="11.837324506706207"><ele>4.0</ele><time>2026-05-03T17:12:21.001Z</time></trkpt><trkpt lat="44.53334016268387" lon="11.83731182426628"><ele>4.25</ele><time>2026-05-03T17:12:22.001Z</time></trkpt><trkpt lat="44.53321062242284" lon="11.837296715197468"><ele>4.5</ele><time>2026-05-03T17:12:23.001Z</time></trkpt><trkpt lat="44.53308116841574" lon="11.837268506901427"><ele>4.75</ele><time>2026-05-03T17:12:24.001Z</time></trkpt><trkpt lat="44.532945324159925" lon="11.837233536670347"><ele>5.0</ele><time>2026-05-03T17:12:25.001Z</time></trkpt><trkpt lat="44.5328071112622" lon="11.83719433488511"><ele>5.0</ele><time>2026-05-03T17:12:26.001Z</time></trkpt><trkpt lat="44.5326647196464" lon="11.837147833599046"><ele>5.0</ele><time>2026-05-03T17:12:27.001Z</time></trkpt><trkpt lat="44.53251404463441" lon="11.837098433097553"><ele>5.0</ele><time>2026-05-03T17:12:28.001Z</time></trkpt><trkpt lat="44.53236501527569" lon="11.837049013966825"><ele>5.0</ele><time>2026-05-03T17:12:29.001Z</time></trkpt><trkpt lat="44.53221903077101" lon="11.837001827620202"><ele>5.0</ele><time>2026-05-03T17:12:30.001Z</time></trkpt><trkpt lat="44.53206638358768" lon="11.836951814088403"><ele>5.0</ele><time>2026-05-03T17:12:31.001Z</time></trkpt><trkpt lat="44.53191175219032" lon="11.836896814414718"><ele>4.666666666666667</ele><time>2026-05-03T17:12:32.001Z</time></trkpt><trkpt lat="44.53175217029892" lon="11.836840586091608"><ele>4.333333333333333</ele><time>2026-05-03T17:12:33.001Z</time></trkpt><trkpt lat="44.531590374364384" lon="11.836789419270277"><ele>4.0</ele><time>2026-05-03T17:12:34.001Z</time></trkpt><trkpt lat="44.53143090727674" lon="11.836733452521134"><ele>4.0</ele><time>2026-05-03T17:12:35.001Z</time></trkpt><trkpt lat="44.53126860092309" lon="11.836677681600557"><ele>4.0</ele><time>2026-05-03T17:12:36.001Z</time></trkpt><trkpt lat="44.531104000104364" lon="11.836618419369369"><ele>4.0</ele><time>2026-05-03T17:12:37.001Z</time></trkpt><trkpt lat="44.53093751505291" lon="11.836558866454123"><ele>4.0</ele><time>2026-05-03T17:12:38.001Z</time></trkpt><trkpt lat="44.530767177104416" lon="11.836504218544002"><ele>4.0</ele><time>2026-05-03T17:12:39.001Z</time></trkpt><trkpt lat="44.53059455413262" lon="11.836444770145205"><ele>4.0</ele><time>2026-05-03T17:12:40.001Z</time></trkpt><trkpt lat="44.53042499172503" lon="11.836383301612077"><ele>4.0</ele><time>2026-05-03T17:12:41.001Z</time></trkpt><trkpt lat="44.53025489898897" lon="11.836320559001184"><ele>4.0</ele><time>2026-05-03T17:12:42.001Z</time></trkpt><trkpt lat="44.53008220733966" lon="11.836259137957454"><ele>4.0</ele><time>2026-05-03T17:12:43.001Z</time></trkpt><trkpt lat="44.52990861452732" lon="11.836196687017276"><ele>4.0</ele><time>2026-05-03T17:12:44.001Z</time></trkpt><trkpt lat="44.529732986415" lon="11.836134465079098"><ele>4.0</ele><time>2026-05-03T17:12:45.001Z</time></trkpt><trkpt lat="44.529556475031704" lon="11.8360715126203"><ele>4.0</ele><time>2026-05-03T17:12:46.001Z</time></trkpt><trkpt lat="44.529381188569914" lon="11.836010613524554"><ele>3.333333333333333</ele><time>2026-05-03T17:12:47.001Z</time></trkpt><trkpt lat="44.529202043587276" lon="11.835948023274407"><ele>2.6666666666666665</ele><time>2026-05-03T17:12:48.001Z</time></trkpt><trkpt lat="44.52902581886187" lon="11.83588444594542"><ele>2.0</ele><time>2026-05-03T17:12:49.001Z</time></trkpt><trkpt lat="44.52884733304676" lon="11.835823193555196"><ele>2.6666666666666665</ele><time>2026-05-03T17:12:50.001Z</time></trkpt><trkpt lat="44.52867103880564" lon="11.835763721714201"><ele>3.333333333333333</ele><time>2026-05-03T17:12:51.001Z</time></trkpt><trkpt lat="44.528494385245864" lon="11.83570023837755"><ele>4.0</ele><time>2026-05-03T17:12:52.001Z</time></trkpt><trkpt lat="44.52831735762408" lon="11.835637777573265"><ele>4.0</ele><time>2026-05-03T17:12:53.001Z</time></trkpt><trkpt lat="44.52813940208925" lon="11.835577242558355"><ele>4.0</ele><time>2026-05-03T17:12:54.001Z</time></trkpt><trkpt lat="44.52796248646555" lon="11.835515929092088"><ele>4.0</ele><time>2026-05-03T17:12:54.999Z</time></trkpt><trkpt lat="44.52778495675198" lon="11.835452973476396"><ele>4.333333333333333</ele><time>2026-05-03T17:12:55.999Z</time></trkpt><trkpt lat="44.52760855727534" lon="11.835388795088384"><ele>4.666666666666667</ele><time>2026-05-03T17:12:56.999Z</time></trkpt><trkpt lat="44.527434610504876" lon="11.835326792871763"><ele>5.0</ele><time>2026-05-03T17:12:57.999Z</time></trkpt><trkpt lat="44.527256366673164" lon="11.835266155473882"><ele>5.0</ele><time>2026-05-03T17:12:58.999Z</time></trkpt><trkpt lat="44.527073045169544" lon="11.835205452045386"><ele>5.0</ele><time>2026-05-03T17:12:59.999Z</time></trkpt><trkpt lat="44.526892333846995" lon="11.835141173085356"><ele>5.0</ele><time>2026-05-03T17:13:00.999Z</time></trkpt><trkpt lat="44.52670976976686" lon="11.835075923392106"><ele>4.666666666666667</ele><time>2026-05-03T17:13:01.999Z</time></trkpt><trkpt lat="44.52652422799993" lon="11.835008638980991"><ele>4.333333333333333</ele><time>2026-05-03T17:13:02.999Z</time></trkpt><trkpt lat="44.526324052847414" lon="11.834941395766515"><ele>4.0</ele><time>2026-05-03T17:13:03.999Z</time></trkpt><trkpt lat="44.52613190114065" lon="11.834872978148363"><ele>4.0</ele><time>2026-05-03T17:13:04.999Z</time></trkpt><trkpt lat="44.52593717288866" lon="11.83480457326792"><ele>4.0</ele><time>2026-05-03T17:13:05.999Z</time></trkpt><trkpt lat="44.52574586621904" lon="11.834736832311917"><ele>4.0</ele><time>2026-05-03T17:13:06.999Z</time></trkpt><trkpt lat="44.52555790490375" lon="11.834670154392702"><ele>4.333333333333333</ele><time>2026-05-03T17:13:07.999Z</time></trkpt><trkpt lat="44.52536865693498" lon="11.83460317805782"><ele>4.666666666666667</ele><time>2026-05-03T17:13:08.999Z</time></trkpt><trkpt lat="44.525177773002696" lon="11.834538828048005"><ele>5.0</ele><time>2026-05-03T17:13:09.999Z</time></trkpt><trkpt lat="44.52498943576373" lon="11.834474777888127"><ele>5.0</ele><time>2026-05-03T17:13:10.999Z</time></trkpt><trkpt lat="44.52479842485135" lon="11.834409702240094"><ele>5.0</ele><time>2026-05-03T17:13:11.999Z</time></trkpt><trkpt lat="44.52461640686732" lon="11.834341716650284"><ele>5.0</ele><time>2026-05-03T17:13:12.999Z</time></trkpt><trkpt lat="44.5244235058529" lon="11.83427535792614"><ele>5.0</ele><time>2026-05-03T17:13:13.999Z</time></trkpt><trkpt lat="44.52423208623572" lon="11.83420711864102"><ele>5.0</ele><time>2026-05-03T17:13:14.999Z</time></trkpt><trkpt lat="44.52403919824594" lon="11.834135952752861"><ele>5.0</ele><time>2026-05-03T17:13:15.999Z</time></trkpt><trkpt lat="44.523844620356144" lon="11.834060514474954"><ele>4.333333333333334</ele><time>2026-05-03T17:13:16.999Z</time></trkpt><trkpt lat="44.523653176347054" lon="11.8339780047148"><ele>3.666666666666667</ele><time>2026-05-03T17:13:17.999Z</time></trkpt><trkpt lat="44.52346181552227" lon="11.83388380956799"><ele>3.0</ele><time>2026-05-03T17:13:18.999Z</time></trkpt><trkpt lat="44.52327370506532" lon="11.833778522600817"><ele>3.0</ele><time>2026-05-03T17:13:20Z</time></trkpt><trkpt lat="44.52308474617069" lon="11.83366981188162"><ele>3.0</ele><time>2026-05-03T17:13:21Z</time></trkpt><trkpt lat="44.52290373827284" lon="11.833559395801183"><ele>3.0</ele><time>2026-05-03T17:13:22Z</time></trkpt><trkpt lat="44.52272109383335" lon="11.833443774301106"><ele>3.333333333333333</ele><time>2026-05-03T17:13:23Z</time></trkpt><trkpt lat="44.52254219572853" lon="11.833325260344687"><ele>3.6666666666666665</ele><time>2026-05-03T17:13:24Z</time></trkpt><trkpt lat="44.52236548760474" lon="11.833210448949238"><ele>4.0</ele><time>2026-05-03T17:13:25Z</time></trkpt><trkpt lat="44.52219468326825" lon="11.83310281966947"><ele>3.6666666666666665</ele><time>2026-05-03T17:13:26Z</time></trkpt><trkpt lat="44.52201786802492" lon="11.833000112069906"><ele>3.333333333333333</ele><time>2026-05-03T17:13:27Z</time></trkpt><trkpt lat="44.52184204656095" lon="11.83289675399969"><ele>3.0</ele><time>2026-05-03T17:13:28Z</time></trkpt><trkpt lat="44.5216628691463" lon="11.832799140491964"><ele>3.0</ele><time>2026-05-03T17:13:29Z</time></trkpt><trkpt lat="44.52149322463402" lon="11.83270044863759"><ele>3.0</ele><time>2026-05-03T17:13:30Z</time></trkpt><trkpt lat="44.521321111758944" lon="11.832607540912836"><ele>3.0</ele><time>2026-05-03T17:13:31Z</time></trkpt><trkpt lat="44.521144048000316" lon="11.832516775784402"><ele>3.666666666666667</ele><time>2026-05-03T17:13:32Z</time></trkpt><trkpt lat="44.520974385686" lon="11.83242184035272"><ele>4.333333333333334</ele><time>2026-05-03T17:13:33Z</time></trkpt><trkpt lat="44.52080163079616" lon="11.83232281622709"><ele>5.0</ele><time>2026-05-03T17:13:34Z</time></trkpt><trkpt lat="44.520635864420356" lon="11.83221775799328"><ele>5.0</ele><time>2026-05-03T17:13:35Z</time></trkpt><trkpt lat="44.520463211262175" lon="11.832111393288246"><ele>5.0</ele><time>2026-05-03T17:13:36Z</time></trkpt><trkpt lat="44.520285628541814" lon="11.832006004666882"><ele>5.0</ele><time>2026-05-03T17:13:37Z</time></trkpt><trkpt lat="44.52010830815165" lon="11.831900576223292"><ele>4.666666666666667</ele><time>2026-05-03T17:13:38Z</time></trkpt><trkpt lat="44.51993995137496" lon="11.831799235272303"><ele>4.333333333333333</ele><time>2026-05-03T17:13:39Z</time></trkpt><trkpt lat="44.51978278689064" lon="11.831705143225754"><ele>4.0</ele><time>2026-05-03T17:13:40Z</time></trkpt><trkpt lat="44.51963373999709" lon="11.83161442953461"><ele>3.6666666666666665</ele><time>2026-05-03T17:13:41Z</time></trkpt><trkpt lat="44.51947854855185" lon="11.831524413230419"><ele>3.333333333333333</ele><time>2026-05-03T17:13:42Z</time></trkpt><trkpt lat="44.51932020304726" lon="11.831424662039854"><ele>3.0</ele><time>2026-05-03T17:13:43Z</time></trkpt><trkpt lat="44.51917375644415" lon="11.831327104861096"><ele>3.0</ele><time>2026-05-03T17:13:44Z</time></trkpt><trkpt lat="44.519037683996544" lon="11.831235735114022"><ele>3.0</ele><time>2026-05-03T17:13:45Z</time></trkpt><trkpt lat="44.518900960329" lon="11.831151512218463"><ele>3.0</ele><time>2026-05-03T17:13:46Z</time></trkpt><trkpt lat="44.51877400718988" lon="11.831068599237668"><ele>3.0</ele><time>2026-05-03T17:13:47Z</time></trkpt><trkpt lat="44.518656305916224" lon="11.830993443849884"><ele>3.5</ele><time>2026-05-03T17:13:48Z</time></trkpt><trkpt lat="44.51854877279899" lon="11.830917263827624"><ele>4.0</ele><time>2026-05-03T17:13:49Z</time></trkpt><trkpt lat="44.518443999147244" lon="11.83083604838509"><ele>4.5</ele><time>2026-05-03T17:13:50Z</time></trkpt><trkpt lat="44.518335627803324" lon="11.830756319155205"><ele>5.0</ele><time>2026-05-03T17:13:51Z</time></trkpt><trkpt lat="44.51823039005987" lon="11.830677171481014"><ele>5.0</ele><time>2026-05-03T17:13:52Z</time></trkpt><trkpt lat="44.518114820513276" lon="11.830599660071424"><ele>5.0</ele><time>2026-05-03T17:13:53Z</time></trkpt><trkpt lat="44.51799163325702" lon="11.83051548458934"><ele>5.0</ele><time>2026-05-03T17:13:54Z</time></trkpt><trkpt lat="44.517865196158795" lon="11.83042516904379"><ele>5.0</ele><time>2026-05-03T17:13:55Z</time></trkpt><trkpt lat="44.51773480466899" lon="11.830333343540758"><ele>5.0</ele><time>2026-05-03T17:13:56.001Z</time></trkpt><trkpt lat="44.51760683130561" lon="11.830244959001535"><ele>5.0</ele><time>2026-05-03T17:13:57.001Z</time></trkpt><trkpt lat="44.51747993828609" lon="11.830153523706555"><ele>5.0</ele><time>2026-05-03T17:13:58.001Z</time></trkpt><trkpt lat="44.51735647048872" lon="11.830066451897423"><ele>5.0</ele><time>2026-05-03T17:13:59.001Z</time></trkpt><trkpt lat="44.517227105037065" lon="11.829976680570255"><ele>5.0</ele><time>2026-05-03T17:14:00.001Z</time></trkpt><trkpt lat="44.51710240794019" lon="11.829888515118078"><ele>5.0</ele><time>2026-05-03T17:14:01.001Z</time></trkpt><trkpt lat="44.516979650399314" lon="11.829800406950318"><ele>5.0</ele><time>2026-05-03T17:14:02.001Z</time></trkpt><trkpt lat="44.51686770173183" lon="11.829720024417908"><ele>5.0</ele><time>2026-05-03T17:14:03.001Z</time></trkpt><trkpt lat="44.51676427584726" lon="11.829646954732576"><ele>5.0</ele><time>2026-05-03T17:14:04.001Z</time></trkpt><trkpt lat="44.51666944679008" lon="11.829577249752337"><ele>5.0</ele><time>2026-05-03T17:14:05.001Z</time></trkpt><trkpt lat="44.516579889918695" lon="11.829514247184719"><ele>5.0</ele><time>2026-05-03T17:14:06.001Z</time></trkpt><trkpt lat="44.516497533110524" lon="11.82945530199722"><ele>5.0</ele><time>2026-05-03T17:14:07.001Z</time></trkpt><trkpt lat="44.5164161279772" lon="11.829398797296566"><ele>5.0</ele><time>2026-05-03T17:14:08.001Z</time></trkpt><trkpt lat="44.51634245336836" lon="11.829345649641628"><ele>5.0</ele><time>2026-05-03T17:14:09.001Z</time></trkpt><trkpt lat="44.516270019268894" lon="11.829295998789865"><ele>5.0</ele><time>2026-05-03T17:14:10.001Z</time></trkpt><trkpt lat="44.51620337948868" lon="11.82924952102574"><ele>5.0</ele><time>2026-05-03T17:14:11.001Z</time></trkpt><trkpt lat="44.51614147748964" lon="11.829206019056276"><ele>5.0</ele><time>2026-05-03T17:14:12.001Z</time></trkpt><trkpt lat="44.51607949991498" lon="11.829163296047223"><ele>5.0</ele><time>2026-05-03T17:14:13.001Z</time></trkpt><trkpt lat="44.51602277881365" lon="11.829122556092628"><ele>5.0</ele><time>2026-05-03T17:14:14.001Z</time></trkpt><trkpt lat="44.51593524981053" lon="11.829053201276446"><ele>5.0</ele><time>2026-05-03T17:14:16.001Z</time></trkpt><trkpt lat="44.51586159078303" lon="11.829002725339084"><ele>5.0</ele><time>2026-05-03T17:14:18.001Z</time></trkpt><trkpt lat="44.51579517536001" lon="11.828952671932385"><ele>5.0</ele><time>2026-05-03T17:14:21.001Z</time></trkpt><trkpt lat="44.515719289808764" lon="11.828900494687325"><ele>5.0</ele><time>2026-05-03T17:14:25.001Z</time></trkpt><trkpt lat="44.5156644382319" lon="11.82885158172507"><ele>5.0</ele><time>2026-05-03T17:14:30.001Z</time></trkpt><trkpt lat="44.51559410413411" lon="11.828793281994427"><ele>5.0</ele><time>2026-05-03T17:14:36.001Z</time></trkpt><trkpt lat="44.51551906835887" lon="11.828740018864757"><ele>5.0</ele><time>2026-05-03T17:14:38.001Z</time></trkpt><trkpt lat="44.51541937388562" lon="11.828668224525273"><ele>5.0</ele><time>2026-05-03T17:14:40.001Z</time></trkpt><trkpt lat="44.51533946223801" lon="11.828611486638078"><ele>5.0</ele><time>2026-05-03T17:14:42.002Z</time></trkpt><trkpt lat="44.51526262673055" lon="11.828554812889989"><ele>5.0</ele><time>2026-05-03T17:14:44.002Z</time></trkpt><trkpt lat="44.51520618051959" lon="11.828510736146155"><ele>5.0</ele><time>2026-05-03T17:14:45.002Z</time></trkpt><trkpt lat="44.51514932787342" lon="11.82846690094982"><ele>5.0</ele><time>2026-05-03T17:14:46.002Z</time></trkpt><trkpt lat="44.51508320226759" lon="11.828413284479897"><ele>5.166666666666667</ele><time>2026-05-03T17:14:47.002Z</time></trkpt><trkpt lat="44.515012764899524" lon="11.82836220077578"><ele>5.333333333333334</ele><time>2026-05-03T17:14:48.002Z</time></trkpt><trkpt lat="44.51493997498878" lon="11.828302000171593"><ele>5.5</ele><time>2026-05-03T17:14:49.002Z</time></trkpt><trkpt lat="44.51487923778929" lon="11.82824675550341"><ele>5.666666666666667</ele><time>2026-05-03T17:14:50.002Z</time></trkpt><trkpt lat="44.514814689343375" lon="11.828180376077444"><ele>5.833333333333333</ele><time>2026-05-03T17:14:51.002Z</time></trkpt><trkpt lat="44.51473093508314" lon="11.82809505192712"><ele>6.0</ele><time>2026-05-03T17:14:52.002Z</time></trkpt><trkpt lat="44.51464311097004" lon="11.827996445934975"><ele>6.0</ele><time>2026-05-03T17:14:53.002Z</time></trkpt><trkpt lat="44.514558095029734" lon="11.827895091958135"><ele>6.0</ele><time>2026-05-03T17:14:54.002Z</time></trkpt><trkpt lat="44.51447342267578" lon="11.827787924572613"><ele>6.0</ele><time>2026-05-03T17:14:55.002Z</time></trkpt><trkpt lat="44.51438179997527" lon="11.827659924994823"><ele>6.0</ele><time>2026-05-03T17:14:56.002Z</time></trkpt><trkpt lat="44.51427153198159" lon="11.827509934211488"><ele>6.333333333333334</ele><time>2026-05-03T17:14:57.002Z</time></trkpt><trkpt lat="44.51414569927053" lon="11.82734056979663"><ele>6.666666666666667</ele><time>2026-05-03T17:14:58.002Z</time></trkpt><trkpt lat="44.51400204241763" lon="11.827110266918837"><ele>7.0</ele><time>2026-05-03T17:14:59.002Z</time></trkpt><trkpt lat="44.51384572445546" lon="11.826888284792542"><ele>6.666666666666667</ele><time>2026-05-03T17:15:00.002Z</time></trkpt><trkpt lat="44.513703491867425" lon="11.826689447886436"><ele>6.333333333333334</ele><time>2026-05-03T17:15:01Z</time></trkpt><trkpt lat="44.51355948620084" lon="11.826507813454898"><ele>6.0</ele><time>2026-05-03T17:15:02Z</time></trkpt><trkpt lat="44.51341511269839" lon="11.826298980026218"><ele>6.0</ele><time>2026-05-03T17:15:03Z</time></trkpt><trkpt lat="44.513266839946" lon="11.826098940719802"><ele>6.0</ele><time>2026-05-03T17:15:04Z</time></trkpt><trkpt lat="44.513115558878305" lon="11.825899238684617"><ele>6.0</ele><time>2026-05-03T17:15:05Z</time></trkpt><trkpt lat="44.51296751359626" lon="11.825702720540958"><ele>5.333333333333333</ele><time>2026-05-03T17:15:06Z</time></trkpt><trkpt lat="44.51281825353909" lon="11.825509175072405"><ele>4.666666666666666</ele><time>2026-05-03T17:15:07Z</time></trkpt><trkpt lat="44.51267053278323" lon="11.825317016052686"><ele>4.0</ele><time>2026-05-03T17:15:08Z</time></trkpt><trkpt lat="44.51252184642912" lon="11.825121811517036"><ele>3.0</ele><time>2026-05-03T17:15:09Z</time></trkpt><trkpt lat="44.512372546662185" lon="11.824928405737062"><ele>2.0</ele><time>2026-05-03T17:15:10Z</time></trkpt><trkpt lat="44.51222621344644" lon="11.824724764722449"><ele>1.0</ele><time>2026-05-03T17:15:11Z</time></trkpt><trkpt lat="44.51208477287976" lon="11.82451810507118"><ele>1.6666666666666665</ele><time>2026-05-03T17:15:12Z</time></trkpt><trkpt lat="44.51195374353145" lon="11.824301202347627"><ele>2.3333333333333335</ele><time>2026-05-03T17:15:13Z</time></trkpt><trkpt lat="44.511822189119925" lon="11.824080405327896"><ele>3.0</ele><time>2026-05-03T17:15:14Z</time></trkpt><trkpt lat="44.51169037815911" lon="11.823860675356789"><ele>3.0</ele><time>2026-05-03T17:15:15Z</time></trkpt><trkpt lat="44.511567097707406" lon="11.82364414972238"><ele>3.0</ele><time>2026-05-03T17:15:16Z</time></trkpt><trkpt lat="44.511436498857" lon="11.823434738122703"><ele>3.0</ele><time>2026-05-03T17:15:17Z</time></trkpt><trkpt lat="44.51130919886282" lon="11.823229215205464"><ele>3.0</ele><time>2026-05-03T17:15:18Z</time></trkpt><trkpt lat="44.511183395295184" lon="11.823019883746037"><ele>3.0</ele><time>2026-05-03T17:15:19Z</time></trkpt><trkpt lat="44.511058568339955" lon="11.822805975399184"><ele>3.0</ele><time>2026-05-03T17:15:20Z</time></trkpt><trkpt lat="44.5109415810261" lon="11.822611248459907"><ele>3.333333333333333</ele><time>2026-05-03T17:15:21Z</time></trkpt><trkpt lat="44.51081480553906" lon="11.822393901066958"><ele>3.6666666666666665</ele><time>2026-05-03T17:15:22Z</time></trkpt><trkpt lat="44.510685724788964" lon="11.822180289517863"><ele>4.0</ele><time>2026-05-03T17:15:23Z</time></trkpt><trkpt lat="44.51056071698045" lon="11.821977595350228"><ele>3.6666666666666665</ele><time>2026-05-03T17:15:24.001Z</time></trkpt><trkpt lat="44.510432785872005" lon="11.821771808848045"><ele>3.333333333333333</ele><time>2026-05-03T17:15:25.001Z</time></trkpt><trkpt lat="44.51029779366429" lon="11.82156788522972"><ele>3.0</ele><time>2026-05-03T17:15:26.001Z</time></trkpt><trkpt lat="44.51016352387741" lon="11.82138198494518"><ele>3.0</ele><time>2026-05-03T17:15:27.001Z</time></trkpt><trkpt lat="44.510028238713154" lon="11.821218191747977"><ele>3.0</ele><time>2026-05-03T17:15:28.001Z</time></trkpt><trkpt lat="44.50989121850482" lon="11.82108566267554"><ele>3.0</ele><time>2026-05-03T17:15:29.001Z</time></trkpt><trkpt lat="44.509754956428274" lon="11.820966211827027"><ele>3.0</ele><time>2026-05-03T17:15:30.001Z</time></trkpt><trkpt lat="44.509606998950126" lon="11.820850140825161"><ele>3.0</ele><time>2026-05-03T17:15:31.001Z</time></trkpt><trkpt lat="44.50945143812719" lon="11.820741463169464"><ele>3.0</ele><time>2026-05-03T17:15:32.001Z</time></trkpt><trkpt lat="44.509279990462694" lon="11.820653295367144"><ele>3.0</ele><time>2026-05-03T17:15:33.001Z</time></trkpt><trkpt lat="44.509108429099165" lon="11.820578016599258"><ele>3.0</ele><time>2026-05-03T17:15:34.001Z</time></trkpt><trkpt lat="44.50892420683355" lon="11.820510247916356"><ele>3.0</ele><time>2026-05-03T17:15:35.001Z</time></trkpt><trkpt lat="44.50873527190683" lon="11.820443036408031"><ele>3.0</ele><time>2026-05-03T17:15:36.001Z</time></trkpt><trkpt lat="44.50854882699911" lon="11.820376913960322"><ele>3.0</ele><time>2026-05-03T17:15:37.001Z</time></trkpt><trkpt lat="44.50836540852287" lon="11.820308917287514"><ele>3.0</ele><time>2026-05-03T17:15:38.001Z</time></trkpt><trkpt lat="44.508183159239074" lon="11.820239141801567"><ele>3.0</ele><time>2026-05-03T17:15:39.001Z</time></trkpt><trkpt lat="44.50799983392849" lon="11.820170489041534"><ele>3.0</ele><time>2026-05-03T17:15:40.001Z</time></trkpt><trkpt lat="44.50782084656743" lon="11.820104059485839"><ele>3.0</ele><time>2026-05-03T17:15:41.001Z</time></trkpt><trkpt lat="44.507643382140316" lon="11.820036840026127"><ele>3.0</ele><time>2026-05-03T17:15:42.001Z</time></trkpt><trkpt lat="44.50747088237068" lon="11.81997168625713"><ele>3.0</ele><time>2026-05-03T17:15:43.001Z</time></trkpt><trkpt lat="44.50730657761831" lon="11.819914091974619"><ele>3.0</ele><time>2026-05-03T17:15:44.001Z</time></trkpt><trkpt lat="44.50715040272226" lon="11.81986065012894"><ele>3.0</ele><time>2026-05-03T17:15:45.001Z</time></trkpt><trkpt lat="44.507001636768884" lon="11.819821190550998"><ele>3.0</ele><time>2026-05-03T17:15:46.001Z</time></trkpt><trkpt lat="44.50686574082589" lon="11.819801780501773"><ele>3.0</ele><time>2026-05-03T17:15:47.001Z</time></trkpt><trkpt lat="44.506731046019674" lon="11.81979567090821"><ele>3.0</ele><time>2026-05-03T17:15:48.001Z</time></trkpt><trkpt lat="44.5066160741652" lon="11.81979246124976"><ele>3.0</ele><time>2026-05-03T17:15:49.001Z</time></trkpt><trkpt lat="44.50651326760062" lon="11.819800869012024"><ele>3.0</ele><time>2026-05-03T17:15:50.001Z</time></trkpt><trkpt lat="44.50642607986818" lon="11.819799766967593"><ele>3.0</ele><time>2026-05-03T17:15:51.001Z</time></trkpt><trkpt lat="44.50635096655977" lon="11.81980953255543"><ele>3.0</ele><time>2026-05-03T17:15:52.001Z</time></trkpt><trkpt lat="44.50628859394042" lon="11.819777685924604"><ele>3.0</ele><time>2026-05-03T17:15:53.001Z</time></trkpt><trkpt lat="44.50624405326036" lon="11.81969360416745"><ele>3.0</ele><time>2026-05-03T17:15:54.001Z</time></trkpt><trkpt lat="44.506209975008545" lon="11.819578420206135"><ele>3.0</ele><time>2026-05-03T17:15:55.001Z</time></trkpt><trkpt lat="44.50620653736998" lon="11.819433794136529"><ele>3.0</ele><time>2026-05-03T17:15:56.001Z</time></trkpt><trkpt lat="44.506233988732674" lon="11.819280574079697"><ele>3.0</ele><time>2026-05-03T17:15:57.001Z</time></trkpt><trkpt lat="44.506274481021265" lon="11.819116327471864"><ele>3.0</ele><time>2026-05-03T17:15:58.001Z</time></trkpt><trkpt lat="44.5063082570686" lon="11.818945576505982"><ele>3.25</ele><time>2026-05-03T17:15:59.001Z</time></trkpt><trkpt lat="44.50634521461459" lon="11.818768091428126"><ele>3.5</ele><time>2026-05-03T17:16:00.001Z</time></trkpt><trkpt lat="44.506391094290045" lon="11.81858276769781"><ele>3.75</ele><time>2026-05-03T17:16:01.001Z</time></trkpt><trkpt lat="44.506435952493014" lon="11.818396398909496"><ele>4.0</ele><time>2026-05-03T17:16:02.001Z</time></trkpt><trkpt lat="44.50647827476932" lon="11.818213218088147"><ele>3.333333333333333</ele><time>2026-05-03T17:16:03.001Z</time></trkpt><trkpt lat="44.50653114605021" lon="11.818001244175534"><ele>2.6666666666666665</ele><time>2026-05-03T17:16:04.001Z</time></trkpt><trkpt lat="44.506588843848775" lon="11.817774974466229"><ele>2.0</ele><time>2026-05-03T17:16:05.001Z</time></trkpt><trkpt lat="44.506643134275066" lon="11.817552523062396"><ele>2.0</ele><time>2026-05-03T17:16:06.001Z</time></trkpt><trkpt lat="44.50669614030172" lon="11.817324341127481"><ele>2.0</ele><time>2026-05-03T17:16:07.001Z</time></trkpt><trkpt lat="44.50675370395415" lon="11.817092171979999"><ele>2.0</ele><time>2026-05-03T17:16:08.001Z</time></trkpt><trkpt lat="44.5068147277873" lon="11.816852293863427"><ele>2.333333333333333</ele><time>2026-05-03T17:16:09.001Z</time></trkpt><trkpt lat="44.50687098138765" lon="11.816613883497668"><ele>2.6666666666666665</ele><time>2026-05-03T17:16:10.001Z</time></trkpt><trkpt lat="44.50692759479371" lon="11.816374234984359"><ele>3.0</ele><time>2026-05-03T17:16:11.001Z</time></trkpt><trkpt lat="44.50698472098926" lon="11.81612767559314"><ele>3.0</ele><time>2026-05-03T17:16:12.001Z</time></trkpt><trkpt lat="44.50704218596427" lon="11.815889798619132"><ele>3.0</ele><time>2026-05-03T17:16:13.001Z</time></trkpt><trkpt lat="44.50710138334801" lon="11.815646951769518"><ele>3.0</ele><time>2026-05-03T17:16:14.001Z</time></trkpt><trkpt lat="44.50715865104392" lon="11.81540754445939"><ele>3.333333333333333</ele><time>2026-05-03T17:16:15.001Z</time></trkpt><trkpt lat="44.50721743354464" lon="11.815154814714539"><ele>3.6666666666666665</ele><time>2026-05-03T17:16:16.001Z</time></trkpt><trkpt lat="44.50727745256174" lon="11.814897145074307"><ele>4.0</ele><time>2026-05-03T17:16:17.001Z</time></trkpt><trkpt lat="44.507334075895336" lon="11.814637679236437"><ele>4.0</ele><time>2026-05-03T17:16:18.001Z</time></trkpt><trkpt lat="44.5073981826928" lon="11.814366031490362"><ele>4.0</ele><time>2026-05-03T17:16:19.001Z</time></trkpt><trkpt lat="44.5074645004946" lon="11.814102890171126"><ele>4.0</ele><time>2026-05-03T17:16:20.002Z</time></trkpt><trkpt lat="44.50753242000851" lon="11.813842080553124"><ele>3.6666666666666665</ele><time>2026-05-03T17:16:21.002Z</time></trkpt><trkpt lat="44.50759592430142" lon="11.813583864479725"><ele>3.333333333333333</ele><time>2026-05-03T17:16:22.002Z</time></trkpt><trkpt lat="44.507657965211706" lon="11.81331823189664"><ele>3.0</ele><time>2026-05-03T17:16:23.002Z</time></trkpt><trkpt lat="44.50772427942044" lon="11.813040762725144"><ele>3.0</ele><time>2026-05-03T17:16:24.002Z</time></trkpt><trkpt lat="44.507787070160454" lon="11.812785530391725"><ele>3.0</ele><time>2026-05-03T17:16:25.002Z</time></trkpt><trkpt lat="44.507848365754185" lon="11.812556094286013"><ele>3.0</ele><time>2026-05-03T17:16:26.002Z</time></trkpt><trkpt lat="44.507905564029606" lon="11.812342251125045"><ele>3.666666666666667</ele><time>2026-05-03T17:16:27.002Z</time></trkpt><trkpt lat="44.50796814522325" lon="11.812127223884689"><ele>4.333333333333334</ele><time>2026-05-03T17:16:28.002Z</time></trkpt><trkpt lat="44.50805632679966" lon="11.81191083685533"><ele>5.0</ele><time>2026-05-03T17:16:29.002Z</time></trkpt><trkpt lat="44.50813516214377" lon="11.81168878538606"><ele>5.0</ele><time>2026-05-03T17:16:30.002Z</time></trkpt><trkpt lat="44.50821081890138" lon="11.811446286753121"><ele>5.0</ele><time>2026-05-03T17:16:31.002Z</time></trkpt><trkpt lat="44.50830697996248" lon="11.811216473735314"><ele>5.0</ele><time>2026-05-03T17:16:32.002Z</time></trkpt><trkpt lat="44.508407900818916" lon="11.810975714285908"><ele>5.0</ele><time>2026-05-03T17:16:33.002Z</time></trkpt><trkpt lat="44.508530062286" lon="11.810752797623858"><ele>5.0</ele><time>2026-05-03T17:16:34.002Z</time></trkpt><trkpt lat="44.508641389459456" lon="11.810522939995543"><ele>5.0</ele><time>2026-05-03T17:16:35.002Z</time></trkpt><trkpt lat="44.50874754177448" lon="11.810272857305012"><ele>5.0</ele><time>2026-05-03T17:16:36.002Z</time></trkpt><trkpt lat="44.50886661615646" lon="11.81003278619887"><ele>5.0</ele><time>2026-05-03T17:16:37.002Z</time></trkpt><trkpt lat="44.50898796049485" lon="11.809790690859671"><ele>5.0</ele><time>2026-05-03T17:16:38.002Z</time></trkpt><trkpt lat="44.509112682339705" lon="11.809540908884694"><ele>5.0</ele><time>2026-05-03T17:16:39.002Z</time></trkpt><trkpt lat="44.50925355342722" lon="11.809313339050362"><ele>5.0</ele><time>2026-05-03T17:16:40.002Z</time></trkpt><trkpt lat="44.50937164614095" lon="11.809054475045274"><ele>5.0</ele><time>2026-05-03T17:16:41.002Z</time></trkpt><trkpt lat="44.50951300490916" lon="11.80882372467235"><ele>4.333333333333334</ele><time>2026-05-03T17:16:42.002Z</time></trkpt><trkpt lat="44.50964167049243" lon="11.8085809184279"><ele>3.666666666666667</ele><time>2026-05-03T17:16:43.002Z</time></trkpt><trkpt lat="44.50977301446075" lon="11.808333057581851"><ele>3.0</ele><time>2026-05-03T17:16:44.002Z</time></trkpt><trkpt lat="44.50990369029407" lon="11.808084996434395"><ele>3.0</ele><time>2026-05-03T17:16:45.002Z</time></trkpt><trkpt lat="44.51003248724237" lon="11.807838921071802"><ele>3.0</ele><time>2026-05-03T17:16:46.002Z</time></trkpt><trkpt lat="44.51016355411191" lon="11.807588508747067"><ele>3.0</ele><time>2026-05-03T17:16:47.002Z</time></trkpt><trkpt lat="44.51028166282112" lon="11.807323983890061"><ele>3.666666666666667</ele><time>2026-05-03T17:16:48.002Z</time></trkpt><trkpt lat="44.51041008666697" lon="11.80707914034989"><ele>4.333333333333334</ele><time>2026-05-03T17:16:49.002Z</time></trkpt><trkpt lat="44.51054154124503" lon="11.806829850309164"><ele>5.0</ele><time>2026-05-03T17:16:50.002Z</time></trkpt><trkpt lat="44.51067519554188" lon="11.80657445574073"><ele>5.333333333333334</ele><time>2026-05-03T17:16:51.002Z</time></trkpt><trkpt lat="44.51080623009628" lon="11.806326957434013"><ele>5.666666666666667</ele><time>2026-05-03T17:16:52.002Z</time></trkpt><trkpt lat="44.510952042108066" lon="11.806091748654595"><ele>6.0</ele><time>2026-05-03T17:16:53.002Z</time></trkpt><trkpt lat="44.511083435419124" lon="11.805846082284887"><ele>6.0</ele><time>2026-05-03T17:16:54.002Z</time></trkpt><trkpt lat="44.51121259425963" lon="11.805603528672323"><ele>6.0</ele><time>2026-05-03T17:16:55.002Z</time></trkpt><trkpt lat="44.511335660885344" lon="11.805370667563768"><ele>6.0</ele><time>2026-05-03T17:16:56.002Z</time></trkpt><trkpt lat="44.51144891607052" lon="11.80515307192381"><ele>6.333333333333334</ele><time>2026-05-03T17:16:57.002Z</time></trkpt><trkpt lat="44.51155416412143" lon="11.804950457299322"><ele>6.666666666666667</ele><time>2026-05-03T17:16:58.002Z</time></trkpt><trkpt lat="44.51164844620372" lon="11.804767585998805"><ele>7.0</ele><time>2026-05-03T17:16:59.002Z</time></trkpt><trkpt lat="44.511736991070926" lon="11.804592236475088"><ele>7.0</ele><time>2026-05-03T17:17:00.002Z</time></trkpt><trkpt lat="44.51182771995475" lon="11.804407786310714"><ele>7.0</ele><time>2026-05-03T17:17:01.002Z</time></trkpt><trkpt lat="44.51192377572356" lon="11.804215669784215"><ele>7.0</ele><time>2026-05-03T17:17:02.002Z</time></trkpt><trkpt lat="44.51202173109101" lon="11.80402571975964"><ele>7.0</ele><time>2026-05-03T17:17:03.002Z</time></trkpt><trkpt lat="44.51212767546254" lon="11.803824384983322"><ele>7.0</ele><time>2026-05-03T17:17:04.002Z</time></trkpt><trkpt lat="44.51224133416065" lon="11.803610640564358"><ele>7.0</ele><time>2026-05-03T17:17:05.002Z</time></trkpt><trkpt lat="44.51236211539015" lon="11.803383091703887"><ele>7.0</ele><time>2026-05-03T17:17:06.002Z</time></trkpt><trkpt lat="44.512487757275565" lon="11.803151344184943"><ele>7.0</ele><time>2026-05-03T17:17:07.001Z</time></trkpt><trkpt lat="44.51261781287492" lon="11.802912404029398"><ele>7.0</ele><time>2026-05-03T17:17:08.001Z</time></trkpt><trkpt lat="44.51275023593399" lon="11.802669114307662"><ele>7.0</ele><time>2026-05-03T17:17:09.001Z</time></trkpt><trkpt lat="44.51288645969445" lon="11.802418841881982"><ele>7.0</ele><time>2026-05-03T17:17:10.001Z</time></trkpt><trkpt lat="44.513019219413756" lon="11.802174934862359"><ele>7.0</ele><time>2026-05-03T17:17:11.001Z</time></trkpt><trkpt lat="44.513148263839504" lon="11.801937613564254"><ele>6.666666666666667</ele><time>2026-05-03T17:17:12.001Z</time></trkpt><trkpt lat="44.513280840004136" lon="11.801691159483436"><ele>6.333333333333334</ele><time>2026-05-03T17:17:13.001Z</time></trkpt><trkpt lat="44.51341480011846" lon="11.801442132818122"><ele>6.0</ele><time>2026-05-03T17:17:14.001Z</time></trkpt><trkpt lat="44.513544256706794" lon="11.801201477997514"><ele>6.0</ele><time>2026-05-03T17:17:15.001Z</time></trkpt><trkpt lat="44.51367390109802" lon="11.80096047399711"><ele>6.0</ele><time>2026-05-03T17:17:16.001Z</time></trkpt><trkpt lat="44.513786447149734" lon="11.800712972441016"><ele>6.0</ele><time>2026-05-03T17:17:17.001Z</time></trkpt><trkpt lat="44.51391762692206" lon="11.800472407287103"><ele>5.666666666666667</ele><time>2026-05-03T17:17:18.001Z</time></trkpt><trkpt lat="44.51404974412638" lon="11.800228812521786"><ele>5.333333333333334</ele><time>2026-05-03T17:17:19.001Z</time></trkpt><trkpt lat="44.514183060164456" lon="11.799981660226672"><ele>5.0</ele><time>2026-05-03T17:17:20.001Z</time></trkpt><trkpt lat="44.514317281866816" lon="11.799734726663749"><ele>5.333333333333334</ele><time>2026-05-03T17:17:21.001Z</time></trkpt><trkpt lat="44.51445359882023" lon="11.799487876801548"><ele>5.666666666666667</ele><time>2026-05-03T17:17:22.001Z</time></trkpt><trkpt lat="44.51458802409257" lon="11.799243396430166"><ele>6.0</ele><time>2026-05-03T17:17:23.001Z</time></trkpt><trkpt lat="44.51472398240326" lon="11.79899346182901"><ele>6.0</ele><time>2026-05-03T17:17:24.001Z</time></trkpt><trkpt lat="44.5148597021839" lon="11.798739554810844"><ele>6.0</ele><time>2026-05-03T17:17:25.001Z</time></trkpt><trkpt lat="44.5149952071385" lon="11.798481477520118"><ele>6.5</ele><time>2026-05-03T17:17:26.001Z</time></trkpt><trkpt lat="44.51513304443553" lon="11.798221976935896"><ele>7.0</ele><time>2026-05-03T17:17:27.001Z</time></trkpt><trkpt lat="44.51527206349285" lon="11.797968134086307"><ele>7.0</ele><time>2026-05-03T17:17:28.001Z</time></trkpt><trkpt lat="44.51541003338266" lon="11.797716567536225"><ele>7.0</ele><time>2026-05-03T17:17:29.001Z</time></trkpt><trkpt lat="44.5155501651586" lon="11.797460953941783"><ele>7.0</ele><time>2026-05-03T17:17:30.001Z</time></trkpt><trkpt lat="44.5156890546107" lon="11.79720454458716"><ele>7.0</ele><time>2026-05-03T17:17:31.001Z</time></trkpt><trkpt lat="44.51582895253792" lon="11.79694372942534"><ele>7.5</ele><time>2026-05-03T17:17:32.001Z</time></trkpt><trkpt lat="44.51596800370999" lon="11.796683122658985"><ele>8.0</ele><time>2026-05-03T17:17:33.001Z</time></trkpt><trkpt lat="44.51610966661633" lon="11.796421080717424"><ele>7.0</ele><time>2026-05-03T17:17:34.001Z</time></trkpt><trkpt lat="44.51625074159347" lon="11.796162854303589"><ele>6.0</ele><time>2026-05-03T17:17:35.001Z</time></trkpt><trkpt lat="44.51639206506815" lon="11.795900332812169"><ele>5.5</ele><time>2026-05-03T17:17:36.001Z</time></trkpt><trkpt lat="44.51653247197623" lon="11.795637461172964"><ele>5.0</ele><time>2026-05-03T17:17:37.001Z</time></trkpt><trkpt lat="44.516675431509185" lon="11.79537134763046"><ele>5.0</ele><time>2026-05-03T17:17:38.001Z</time></trkpt><trkpt lat="44.51681924146212" lon="11.795103118928616"><ele>5.0</ele><time>2026-05-03T17:17:39.001Z</time></trkpt><trkpt lat="44.51696227960388" lon="11.794838842094677"><ele>5.5</ele><time>2026-05-03T17:17:40.001Z</time></trkpt><trkpt lat="44.5171039462617" lon="11.7945742838118"><ele>6.0</ele><time>2026-05-03T17:17:41.001Z</time></trkpt><trkpt lat="44.51724590914041" lon="11.794311548417198"><ele>6.5</ele><time>2026-05-03T17:17:42.001Z</time></trkpt><trkpt lat="44.51738368620763" lon="11.794050251028096"><ele>7.0</ele><time>2026-05-03T17:17:43.001Z</time></trkpt><trkpt lat="44.51752425964191" lon="11.793788051442448"><ele>7.0</ele><time>2026-05-03T17:17:44.001Z</time></trkpt><trkpt lat="44.517665491560265" lon="11.793526183559942"><ele>7.0</ele><time>2026-05-03T17:17:45.001Z</time></trkpt><trkpt lat="44.51780674658258" lon="11.793264624284012"><ele>6.5</ele><time>2026-05-03T17:17:46.001Z</time></trkpt><trkpt lat="44.51794851020347" lon="11.793002011824976"><ele>6.0</ele><time>2026-05-03T17:17:47.001Z</time></trkpt><trkpt lat="44.518091915847066" lon="11.792736242498577"><ele>6.5</ele><time>2026-05-03T17:17:48.001Z</time></trkpt><trkpt lat="44.518235624046476" lon="11.792471925077052"><ele>7.0</ele><time>2026-05-03T17:17:49.001Z</time></trkpt><trkpt lat="44.51837752650581" lon="11.792204210735774"><ele>7.0</ele><time>2026-05-03T17:17:50.001Z</time></trkpt><trkpt lat="44.518521676973556" lon="11.791935190678952"><ele>7.0</ele><time>2026-05-03T17:17:51.001Z</time></trkpt><trkpt lat="44.518666157963594" lon="11.791672838853872"><ele>6.0</ele><time>2026-05-03T17:17:52.001Z</time></trkpt><trkpt lat="44.51881087699858" lon="11.791408149871476"><ele>5.0</ele><time>2026-05-03T17:17:53.001Z</time></trkpt><trkpt lat="44.518957574113905" lon="11.791139058040157"><ele>6.0</ele><time>2026-05-03T17:17:54.001Z</time></trkpt><trkpt lat="44.519102175656975" lon="11.790874176445904"><ele>7.0</ele><time>2026-05-03T17:17:55.001Z</time></trkpt><trkpt lat="44.51923382338715" lon="11.790626705160303"><ele>7.0</ele><time>2026-05-03T17:17:56.001Z</time></trkpt><trkpt lat="44.51936961977226" lon="11.790375265510376"><ele>7.0</ele><time>2026-05-03T17:17:57.001Z</time></trkpt><trkpt lat="44.51950924112461" lon="11.790117029815116"><ele>6.0</ele><time>2026-05-03T17:17:58.001Z</time></trkpt><trkpt lat="44.51965045833321" lon="11.789859280717428"><ele>5.0</ele><time>2026-05-03T17:17:59.001Z</time></trkpt><trkpt lat="44.51978766410817" lon="11.789604570030987"><ele>5.0</ele><time>2026-05-03T17:18:00.001Z</time></trkpt><trkpt lat="44.519925706109866" lon="11.789350471628197"><ele>5.0</ele><time>2026-05-03T17:18:01.001Z</time></trkpt><trkpt lat="44.520063776384504" lon="11.789094881102272"><ele>5.0</ele><time>2026-05-03T17:18:02.001Z</time></trkpt><trkpt lat="44.520202451556514" lon="11.788840458434613"><ele>5.0</ele><time>2026-05-03T17:18:03.001Z</time></trkpt><trkpt lat="44.52034022381829" lon="11.788581447544521"><ele>5.0</ele><time>2026-05-03T17:18:04.001Z</time></trkpt><trkpt lat="44.52047876278103" lon="11.788322721635724"><ele>5.0</ele><time>2026-05-03T17:18:05.001Z</time></trkpt><trkpt lat="44.52061574414589" lon="11.788067272046048"><ele>5.0</ele><time>2026-05-03T17:18:06.001Z</time></trkpt><trkpt lat="44.520754940780186" lon="11.78781393380029"><ele>5.0</ele><time>2026-05-03T17:18:07.001Z</time></trkpt><trkpt lat="44.52089453369797" lon="11.787558194044154"><ele>5.0</ele><time>2026-05-03T17:18:08.001Z</time></trkpt><trkpt lat="44.521032837051656" lon="11.787301684984632"><ele>5.0</ele><time>2026-05-03T17:18:09.001Z</time></trkpt><trkpt lat="44.521170329881244" lon="11.787046226815818"><ele>5.0</ele><time>2026-05-03T17:18:10.001Z</time></trkpt><trkpt lat="44.52130974404909" lon="11.786786952291848"><ele>5.0</ele><time>2026-05-03T17:18:11.001Z</time></trkpt><trkpt lat="44.521449270160446" lon="11.78653091816862"><ele>5.0</ele><time>2026-05-03T17:18:12.001Z</time></trkpt><trkpt lat="44.52158896140411" lon="11.786274598952476"><ele>5.0</ele><time>2026-05-03T17:18:13.001Z</time></trkpt><trkpt lat="44.521730099102065" lon="11.786015471911277"><ele>5.0</ele><time>2026-05-03T17:18:14.001Z</time></trkpt><trkpt lat="44.52187187995024" lon="11.78575311813647"><ele>5.0</ele><time>2026-05-03T17:18:15.001Z</time></trkpt><trkpt lat="44.52200706475001" lon="11.785503376801325"><ele>5.0</ele><time>2026-05-03T17:18:16.001Z</time></trkpt><trkpt lat="44.52213122135869" lon="11.785271001355417"><ele>5.0</ele><time>2026-05-03T17:18:17.002Z</time></trkpt><trkpt lat="44.52224757371346" lon="11.78505290391568"><ele>5.0</ele><time>2026-05-03T17:18:18.002Z</time></trkpt><trkpt lat="44.52236298375851" lon="11.784836530285792"><ele>5.666666666666667</ele><time>2026-05-03T17:18:19.002Z</time></trkpt><trkpt lat="44.52247995112121" lon="11.78462155174254"><ele>6.333333333333334</ele><time>2026-05-03T17:18:20.002Z</time></trkpt><trkpt lat="44.52259795226044" lon="11.784405135456947"><ele>7.0</ele><time>2026-05-03T17:18:21.002Z</time></trkpt><trkpt lat="44.522705015849354" lon="11.784208371689973"><ele>7.0</ele><time>2026-05-03T17:18:22.002Z</time></trkpt><trkpt lat="44.52280068317862" lon="11.784033225103832"><ele>7.0</ele><time>2026-05-03T17:18:23.002Z</time></trkpt><trkpt lat="44.52290162214778" lon="11.783853252370287"><ele>7.0</ele><time>2026-05-03T17:18:24.002Z</time></trkpt><trkpt lat="44.52300799606639" lon="11.783658928923236"><ele>6.666666666666667</ele><time>2026-05-03T17:18:25.002Z</time></trkpt><trkpt lat="44.523116004719476" lon="11.783457453720782"><ele>6.333333333333334</ele><time>2026-05-03T17:18:26.002Z</time></trkpt><trkpt lat="44.5232209760792" lon="11.783266697777021"><ele>6.0</ele><time>2026-05-03T17:18:27.002Z</time></trkpt><trkpt lat="44.52332849062387" lon="11.78307207143506"><ele>6.0</ele><time>2026-05-03T17:18:28.002Z</time></trkpt><trkpt lat="44.52343294339256" lon="11.782884073330987"><ele>6.0</ele><time>2026-05-03T17:18:29.002Z</time></trkpt><trkpt lat="44.523532989308656" lon="11.782699966546963"><ele>6.0</ele><time>2026-05-03T17:18:30.002Z</time></trkpt><trkpt lat="44.523630070786204" lon="11.782524508393113"><ele>6.0</ele><time>2026-05-03T17:18:31.002Z</time></trkpt><trkpt lat="44.52372014856963" lon="11.782360713439939"><ele>6.0</ele><time>2026-05-03T17:18:32.002Z</time></trkpt><trkpt lat="44.52380529530215" lon="11.782207342681515"><ele>6.0</ele><time>2026-05-03T17:18:33.002Z</time></trkpt><trkpt lat="44.52388985068371" lon="11.782055055787728"><ele>6.0</ele><time>2026-05-03T17:18:34.002Z</time></trkpt><trkpt lat="44.523972855372705" lon="11.781902512678714"><ele>6.0</ele><time>2026-05-03T17:18:35.002Z</time></trkpt><trkpt lat="44.52404986154155" lon="11.781762918684448"><ele>6.0</ele><time>2026-05-03T17:18:36.002Z</time></trkpt><trkpt lat="44.524122648367" lon="11.781632186448178"><ele>6.0</ele><time>2026-05-03T17:18:37.002Z</time></trkpt><trkpt lat="44.52419576993268" lon="11.781502262577344"><ele>6.0</ele><time>2026-05-03T17:18:38.002Z</time></trkpt><trkpt lat="44.52426709188162" lon="11.781371476766545"><ele>6.0</ele><time>2026-05-03T17:18:39.002Z</time></trkpt><trkpt lat="44.524336695956244" lon="11.781255251870155"><ele>6.0</ele><time>2026-05-03T17:18:40.002Z</time></trkpt><trkpt lat="44.524395011065856" lon="11.78114409298778"><ele>6.0</ele><time>2026-05-03T17:18:41.002Z</time></trkpt><trkpt lat="44.52444227633508" lon="11.781048802989805"><ele>6.0</ele><time>2026-05-03T17:18:42.002Z</time></trkpt><trkpt lat="44.524482464089594" lon="11.780978402864553"><ele>6.0</ele><time>2026-05-03T17:18:43.002Z</time></trkpt><trkpt lat="44.524527207632254" lon="11.780911549686449"><ele>6.0</ele><time>2026-05-03T17:18:45.002Z</time></trkpt><trkpt lat="44.52456348111902" lon="11.780817769308454"><ele>6.4</ele><time>2026-05-03T17:18:53.002Z</time></trkpt><trkpt lat="44.524621971551376" lon="11.780774016343047"><ele>6.8</ele><time>2026-05-03T17:18:54.002Z</time></trkpt><trkpt lat="44.52463526700457" lon="11.780649488459545"><ele>7.200000000000001</ele><time>2026-05-03T17:18:55.002Z</time></trkpt><trkpt lat="44.52466316535511" lon="11.780536731781483"><ele>7.6000000000000005</ele><time>2026-05-03T17:18:56.002Z</time></trkpt><trkpt lat="44.52469291123477" lon="11.780396353806276"><ele>8.0</ele><time>2026-05-03T17:18:57.002Z</time></trkpt><trkpt lat="44.52471877181305" lon="11.78024746893607"><ele>7.75</ele><time>2026-05-03T17:18:58.002Z</time></trkpt><trkpt lat="44.52474760224605" lon="11.780072100058016"><ele>7.5</ele><time>2026-05-03T17:18:59.002Z</time></trkpt><trkpt lat="44.524778860128315" lon="11.77986974519448"><ele>7.25</ele><time>2026-05-03T17:19:00.002Z</time></trkpt><trkpt lat="44.5248143363549" lon="11.779658472282946"><ele>7.0</ele><time>2026-05-03T17:19:01.002Z</time></trkpt><trkpt lat="44.52485228832137" lon="11.779432641001602"><ele>5.666666666666667</ele><time>2026-05-03T17:19:02.002Z</time></trkpt><trkpt lat="44.5248901849456" lon="11.779210467291056"><ele>4.333333333333334</ele><time>2026-05-03T17:19:03.002Z</time></trkpt><trkpt lat="44.52492825342318" lon="11.778973473604982"><ele>3.0</ele><time>2026-05-03T17:19:04.002Z</time></trkpt><trkpt lat="44.524967406082574" lon="11.778716413384858"><ele>4.0</ele><time>2026-05-03T17:19:05.002Z</time></trkpt><trkpt lat="44.52500903445816" lon="11.77845905245491"><ele>5.0</ele><time>2026-05-03T17:19:06.002Z</time></trkpt><trkpt lat="44.52505272364212" lon="11.778189462416847"><ele>6.0</ele><time>2026-05-03T17:19:07.002Z</time></trkpt><trkpt lat="44.52509525528124" lon="11.777916824760592"><ele>6.666666666666666</ele><time>2026-05-03T17:19:08.002Z</time></trkpt><trkpt lat="44.52514019422922" lon="11.777639435321099"><ele>7.333333333333333</ele><time>2026-05-03T17:19:09.002Z</time></trkpt><trkpt lat="44.525188575290095" lon="11.77735270639739"><ele>8.0</ele><time>2026-05-03T17:19:10.002Z</time></trkpt><trkpt lat="44.52523348772212" lon="11.777066868360645"><ele>7.333333333333333</ele><time>2026-05-03T17:19:11.002Z</time></trkpt><trkpt lat="44.52527841157976" lon="11.776780736899116"><ele>6.666666666666666</ele><time>2026-05-03T17:19:12.002Z</time></trkpt><trkpt lat="44.525324112843855" lon="11.776499315774133"><ele>6.0</ele><time>2026-05-03T17:19:13.001Z</time></trkpt><trkpt lat="44.52537065348161" lon="11.77621399916237"><ele>5.333333333333333</ele><time>2026-05-03T17:19:14.001Z</time></trkpt><trkpt lat="44.52541590645921" lon="11.775929607766702"><ele>4.666666666666666</ele><time>2026-05-03T17:19:15.001Z</time></trkpt><trkpt lat="44.52546318062317" lon="11.775645950415399"><ele>4.0</ele><time>2026-05-03T17:19:16.001Z</time></trkpt><trkpt lat="44.5255096494218" lon="11.775361850035312"><ele>4.333333333333333</ele><time>2026-05-03T17:19:17.001Z</time></trkpt><trkpt lat="44.52555405247286" lon="11.77508149889087"><ele>4.666666666666667</ele><time>2026-05-03T17:19:18.001Z</time></trkpt><trkpt lat="44.52559872141134" lon="11.774802688176315"><ele>5.0</ele><time>2026-05-03T17:19:19.001Z</time></trkpt><trkpt lat="44.52564365526838" lon="11.774521767614576"><ele>5.666666666666667</ele><time>2026-05-03T17:19:20.001Z</time></trkpt><trkpt lat="44.5256880521351" lon="11.774237966664408"><ele>6.333333333333334</ele><time>2026-05-03T17:19:21.001Z</time></trkpt><trkpt lat="44.52573359960139" lon="11.773952929762187"><ele>7.0</ele><time>2026-05-03T17:19:22.001Z</time></trkpt><trkpt lat="44.52578006571168" lon="11.773663477215324"><ele>7.0</ele><time>2026-05-03T17:19:23.001Z</time></trkpt><trkpt lat="44.52582551249058" lon="11.773378179327091"><ele>7.0</ele><time>2026-05-03T17:19:24.001Z</time></trkpt><trkpt lat="44.52587124202885" lon="11.773091261036537"><ele>7.0</ele><time>2026-05-03T17:19:25.001Z</time></trkpt><trkpt lat="44.52591566644673" lon="11.772807121439072"><ele>6.333333333333334</ele><time>2026-05-03T17:19:26.001Z</time></trkpt><trkpt lat="44.52596036896723" lon="11.772525482411568"><ele>5.666666666666667</ele><time>2026-05-03T17:19:27.001Z</time></trkpt><trkpt lat="44.526005003364574" lon="11.77224160807321"><ele>5.0</ele><time>2026-05-03T17:19:28.001Z</time></trkpt><trkpt lat="44.52605048316923" lon="11.771952845962401"><ele>5.0</ele><time>2026-05-03T17:19:29.001Z</time></trkpt><trkpt lat="44.52609770064992" lon="11.771665898201933"><ele>5.0</ele><time>2026-05-03T17:19:30.001Z</time></trkpt><trkpt lat="44.52614295015206" lon="11.771381342802277"><ele>5.0</ele><time>2026-05-03T17:19:31.001Z</time></trkpt><trkpt lat="44.526187042484416" lon="11.771100664813115"><ele>5.666666666666667</ele><time>2026-05-03T17:19:32.001Z</time></trkpt><trkpt lat="44.526247832399044" lon="11.770827815457974"><ele>6.333333333333334</ele><time>2026-05-03T17:19:33.001Z</time></trkpt><trkpt lat="44.52629257284791" lon="11.770548393157377"><ele>7.0</ele><time>2026-05-03T17:19:34.001Z</time></trkpt><trkpt lat="44.52632200585873" lon="11.770262957472173"><ele>6.666666666666667</ele><time>2026-05-03T17:19:35.001Z</time></trkpt><trkpt lat="44.52636839580437" lon="11.769983869087984"><ele>6.333333333333334</ele><time>2026-05-03T17:19:36.001Z</time></trkpt><trkpt lat="44.52641345262281" lon="11.769705313951704"><ele>6.0</ele><time>2026-05-03T17:19:37.001Z</time></trkpt><trkpt lat="44.52645713347008" lon="11.769427463317717"><ele>6.0</ele><time>2026-05-03T17:19:38.001Z</time></trkpt><trkpt lat="44.52650158604542" lon="11.76915271054679"><ele>6.0</ele><time>2026-05-03T17:19:39.001Z</time></trkpt><trkpt lat="44.52654517579822" lon="11.76888055305833"><ele>6.0</ele><time>2026-05-03T17:19:40.001Z</time></trkpt><trkpt lat="44.526589670945256" lon="11.768600674807518"><ele>6.0</ele><time>2026-05-03T17:19:41.001Z</time></trkpt><trkpt lat="44.52663461338458" lon="11.768321973460543"><ele>6.0</ele><time>2026-05-03T17:19:42.001Z</time></trkpt><trkpt lat="44.526676647232264" lon="11.768057944791172"><ele>6.0</ele><time>2026-05-03T17:19:43.001Z</time></trkpt><trkpt lat="44.526715703075936" lon="11.767810759679458"><ele>6.0</ele><time>2026-05-03T17:19:44.001Z</time></trkpt><trkpt lat="44.52675448089419" lon="11.76756221944463"><ele>6.0</ele><time>2026-05-03T17:19:45.001Z</time></trkpt><trkpt lat="44.526795640891955" lon="11.76731624954932"><ele>6.0</ele><time>2026-05-03T17:19:46.001Z</time></trkpt><trkpt lat="44.526838680452144" lon="11.767061269031723"><ele>6.0</ele><time>2026-05-03T17:19:47.001Z</time></trkpt><trkpt lat="44.5268815008945" lon="11.7668182765001"><ele>6.0</ele><time>2026-05-03T17:19:48.001Z</time></trkpt><trkpt lat="44.526920203667096" lon="11.766591129557147"><ele>6.0</ele><time>2026-05-03T17:19:49.001Z</time></trkpt><trkpt lat="44.52695797288279" lon="11.76638214574745"><ele>6.0</ele><time>2026-05-03T17:19:50.001Z</time></trkpt><trkpt lat="44.526991941924365" lon="11.766173209164682"><ele>6.0</ele><time>2026-05-03T17:19:51.001Z</time></trkpt><trkpt lat="44.52702340718835" lon="11.76596671840788"><ele>6.0</ele><time>2026-05-03T17:19:52.001Z</time></trkpt><trkpt lat="44.5270511550918" lon="11.765778566286734"><ele>6.0</ele><time>2026-05-03T17:19:53.001Z</time></trkpt><trkpt lat="44.52708547946985" lon="11.765609844863137"><ele>6.4</ele><time>2026-05-03T17:19:54.001Z</time></trkpt><trkpt lat="44.527104995693705" lon="11.7654444284028"><ele>6.8</ele><time>2026-05-03T17:19:55.001Z</time></trkpt><trkpt lat="44.527131581631984" lon="11.765297628938505"><ele>7.200000000000001</ele><time>2026-05-03T17:19:56.001Z</time></trkpt><trkpt lat="44.5271513778476" lon="11.765166129438066"><ele>7.6000000000000005</ele><time>2026-05-03T17:19:57.001Z</time></trkpt><trkpt lat="44.52719089663015" lon="11.76504195182139"><ele>8.0</ele><time>2026-05-03T17:19:58.001Z</time></trkpt><trkpt lat="44.5272668445403" lon="11.764935362693016"><ele>8.25</ele><time>2026-05-03T17:19:59.001Z</time></trkpt><trkpt lat="44.52737810384514" lon="11.764860979740625"><ele>8.5</ele><time>2026-05-03T17:20:00.001Z</time></trkpt><trkpt lat="44.52750632165762" lon="11.764838889139664"><ele>8.75</ele><time>2026-05-03T17:20:01.001Z</time></trkpt><trkpt lat="44.527628005006235" lon="11.764824909423881"><ele>9.0</ele><time>2026-05-03T17:20:02.001Z</time></trkpt><trkpt lat="44.52773597233122" lon="11.764795673383466"><ele>9.0</ele><time>2026-05-03T17:20:03.001Z</time></trkpt><trkpt lat="44.527835332331975" lon="11.76476239367969"><ele>9.0</ele><time>2026-05-03T17:20:04.001Z</time></trkpt><trkpt lat="44.52792385698733" lon="11.764743291811975"><ele>9.0</ele><time>2026-05-03T17:20:05.001Z</time></trkpt><trkpt lat="44.52799477657103" lon="11.764737937782106"><ele>9.0</ele><time>2026-05-03T17:20:06.001Z</time></trkpt><trkpt lat="44.52809764899056" lon="11.764686447414597"><ele>9.0</ele><time>2026-05-03T17:20:08.001Z</time></trkpt><trkpt lat="44.52812956247034" lon="11.764602277820567"><ele>9.0</ele><time>2026-05-03T17:20:09.001Z</time></trkpt><trkpt lat="44.52812876107975" lon="11.764480238379061"><ele>9.333333333333334</ele><time>2026-05-03T17:20:10.001Z</time></trkpt><trkpt lat="44.52810714905265" lon="11.764341394944555"><ele>9.666666666666666</ele><time>2026-05-03T17:20:11.001Z</time></trkpt><trkpt lat="44.528084950454414" lon="11.7642186628207"><ele>10.0</ele><time>2026-05-03T17:20:12.001Z</time></trkpt><trkpt lat="44.52806664978185" lon="11.764114659160128"><ele>10.333333333333332</ele><time>2026-05-03T17:20:13.001Z</time></trkpt><trkpt lat="44.52804233272189" lon="11.76397393515146"><ele>10.666666666666666</ele><time>2026-05-03T17:20:15.001Z</time></trkpt><trkpt lat="44.52806738749251" lon="11.763891887420453"><ele>11.0</ele><time>2026-05-03T17:20:16.001Z</time></trkpt><trkpt lat="44.52813215233909" lon="11.763841949768304"><ele>11.0</ele><time>2026-05-03T17:20:17.001Z</time></trkpt><trkpt lat="44.528227218405846" lon="11.763826063288848"><ele>11.0</ele><time>2026-05-03T17:20:18.001Z</time></trkpt><trkpt lat="44.528340261222915" lon="11.763809738507348"><ele>11.0</ele><time>2026-05-03T17:20:19.001Z</time></trkpt><trkpt lat="44.52845130320107" lon="11.76378172287655"><ele>11.0</ele><time>2026-05-03T17:20:20.001Z</time></trkpt><trkpt lat="44.52857922422409" lon="11.763737473412071"><ele>11.0</ele><time>2026-05-03T17:20:21.001Z</time></trkpt><trkpt lat="44.52871351512967" lon="11.763690922329397"><ele>11.0</ele><time>2026-05-03T17:20:22.001Z</time></trkpt><trkpt lat="44.52885237126709" lon="11.763637723795098"><ele>11.0</ele><time>2026-05-03T17:20:23.001Z</time></trkpt><trkpt lat="44.52899549419326" lon="11.763573632582029"><ele>11.0</ele><time>2026-05-03T17:20:24.001Z</time></trkpt><trkpt lat="44.52913529365041" lon="11.76351106973747"><ele>10.75</ele><time>2026-05-03T17:20:25.001Z</time></trkpt><trkpt lat="44.529273811766316" lon="11.76344709672313"><ele>10.5</ele><time>2026-05-03T17:20:26.001Z</time></trkpt><trkpt lat="44.529413672161105" lon="11.763383048689999"><ele>10.25</ele><time>2026-05-03T17:20:27.001Z</time></trkpt><trkpt lat="44.52955300724788" lon="11.76331917861967"><ele>10.0</ele><time>2026-05-03T17:20:28.001Z</time></trkpt><trkpt lat="44.52969075425532" lon="11.76325763677643"><ele>10.0</ele><time>2026-05-03T17:20:29.001Z</time></trkpt><trkpt lat="44.52982594889154" lon="11.763197357409428"><ele>10.0</ele><time>2026-05-03T17:20:30.001Z</time></trkpt><trkpt lat="44.529962130470444" lon="11.76313803071387"><ele>10.0</ele><time>2026-05-03T17:20:31.001Z</time></trkpt><trkpt lat="44.53009299042896" lon="11.763082229920688"><ele>10.0</ele><time>2026-05-03T17:20:32.001Z</time></trkpt><trkpt lat="44.53022485999464" lon="11.763023853459512"><ele>10.0</ele><time>2026-05-03T17:20:33.001Z</time></trkpt><trkpt lat="44.53034883323121" lon="11.762970424289335"><ele>10.0</ele><time>2026-05-03T17:20:34.001Z</time></trkpt><trkpt lat="44.53045614213619" lon="11.762924311085582"><ele>10.0</ele><time>2026-05-03T17:20:35.001Z</time></trkpt><trkpt lat="44.530557326033595" lon="11.762884926916286"><ele>10.0</ele><time>2026-05-03T17:20:36.001Z</time></trkpt><trkpt lat="44.53065915236993" lon="11.762845402290134"><ele>10.0</ele><time>2026-05-03T17:20:37.001Z</time></trkpt><trkpt lat="44.530768351288756" lon="11.762804521293242"><ele>10.0</ele><time>2026-05-03T17:20:38.001Z</time></trkpt><trkpt lat="44.53087431317619" lon="11.762764958443714"><ele>10.0</ele><time>2026-05-03T17:20:39.001Z</time></trkpt><trkpt lat="44.53096729568971" lon="11.762720257641861"><ele>10.0</ele><time>2026-05-03T17:20:40.002Z</time></trkpt><trkpt lat="44.53105833339219" lon="11.762665520219937"><ele>10.0</ele><time>2026-05-03T17:20:41.002Z</time></trkpt><trkpt lat="44.53113546930054" lon="11.762588342202008"><ele>10.0</ele><time>2026-05-03T17:20:42.002Z</time></trkpt><trkpt lat="44.53119409568858" lon="11.762488529116055"><ele>10.0</ele><time>2026-05-03T17:20:43.002Z</time></trkpt><trkpt lat="44.53123311208249" lon="11.762360767032495"><ele>10.0</ele><time>2026-05-03T17:20:44.002Z</time></trkpt><trkpt lat="44.53125188346672" lon="11.762202835743636"><ele>10.0</ele><time>2026-05-03T17:20:45.002Z</time></trkpt><trkpt lat="44.53125709382142" lon="11.762025238233152"><ele>10.0</ele><time>2026-05-03T17:20:46.002Z</time></trkpt><trkpt lat="44.53125509975596" lon="11.76184002414368"><ele>9.75</ele><time>2026-05-03T17:20:47.002Z</time></trkpt><trkpt lat="44.531255573127446" lon="11.761646788823407"><ele>9.5</ele><time>2026-05-03T17:20:48.002Z</time></trkpt><trkpt lat="44.531262978489046" lon="11.761442442155165"><ele>9.25</ele><time>2026-05-03T17:20:49.002Z</time></trkpt><trkpt lat="44.53126975781542" lon="11.761231689745134"><ele>9.0</ele><time>2026-05-03T17:20:50.002Z</time></trkpt><trkpt lat="44.531278968159135" lon="11.761024377231298"><ele>9.0</ele><time>2026-05-03T17:20:51.002Z</time></trkpt><trkpt lat="44.53129247248999" lon="11.760844701820593"><ele>9.0</ele><time>2026-05-03T17:20:52.002Z</time></trkpt><trkpt lat="44.53129831716908" lon="11.760685792687395"><ele>9.0</ele><time>2026-05-03T17:20:53.002Z</time></trkpt><trkpt lat="44.53130780273116" lon="11.760541378027625"><ele>9.0</ele><time>2026-05-03T17:20:54.002Z</time></trkpt><trkpt lat="44.53133433367956" lon="11.76039817827125"><ele>9.0</ele><time>2026-05-03T17:20:55.002Z</time></trkpt><trkpt lat="44.53139916704283" lon="11.76023690082982"><ele>9.0</ele><time>2026-05-03T17:20:56.002Z</time></trkpt><trkpt lat="44.53151760710734" lon="11.760111654374011"><ele>9.0</ele><time>2026-05-03T17:20:57.002Z</time></trkpt><trkpt lat="44.53162881445284" lon="11.759970961649394"><ele>9.0</ele><time>2026-05-03T17:20:58.002Z</time></trkpt><trkpt lat="44.53174190988656" lon="11.759821387835734"><ele>8.333333333333334</ele><time>2026-05-03T17:20:59.002Z</time></trkpt><trkpt lat="44.531869355839284" lon="11.759672263799922"><ele>7.666666666666667</ele><time>2026-05-03T17:21:00.002Z</time></trkpt><trkpt lat="44.53200431260291" lon="11.759516147895052"><ele>7.0</ele><time>2026-05-03T17:21:01.002Z</time></trkpt><trkpt lat="44.53213475914484" lon="11.759356423702432"><ele>6.333333333333334</ele><time>2026-05-03T17:21:02.002Z</time></trkpt><trkpt lat="44.53226813030848" lon="11.759196771562882"><ele>5.666666666666667</ele><time>2026-05-03T17:21:03.002Z</time></trkpt><trkpt lat="44.532403338647704" lon="11.759028184191257"><ele>5.0</ele><time>2026-05-03T17:21:04.002Z</time></trkpt><trkpt lat="44.532534925025296" lon="11.75886620332625"><ele>5.0</ele><time>2026-05-03T17:21:05.002Z</time></trkpt><trkpt lat="44.532662909332046" lon="11.75871300515357"><ele>5.0</ele><time>2026-05-03T17:21:06.002Z</time></trkpt><trkpt lat="44.532787522629064" lon="11.758562006388052"><ele>5.0</ele><time>2026-05-03T17:21:07.002Z</time></trkpt><trkpt lat="44.53290629909458" lon="11.758415661653412"><ele>5.0</ele><time>2026-05-03T17:21:08.002Z</time></trkpt><trkpt lat="44.53302400872394" lon="11.758269075040607"><ele>5.0</ele><time>2026-05-03T17:21:09.002Z</time></trkpt><trkpt lat="44.533144834251544" lon="11.758117995484481"><ele>5.0</ele><time>2026-05-03T17:21:10.002Z</time></trkpt><trkpt lat="44.53327119233767" lon="11.757964595503488"><ele>5.0</ele><time>2026-05-03T17:21:11.002Z</time></trkpt><trkpt lat="44.5333955333031" lon="11.757812881078417"><ele>5.0</ele><time>2026-05-03T17:21:12.002Z</time></trkpt><trkpt lat="44.533517899349356" lon="11.757663728042814"><ele>5.0</ele><time>2026-05-03T17:21:13.002Z</time></trkpt><trkpt lat="44.53362970964851" lon="11.757524802492975"><ele>5.0</ele><time>2026-05-03T17:21:14.002Z</time></trkpt><trkpt lat="44.533734147882754" lon="11.757397679843473"><ele>5.0</ele><time>2026-05-03T17:21:15.002Z</time></trkpt><trkpt lat="44.533834243240065" lon="11.757275287749623"><ele>5.0</ele><time>2026-05-03T17:21:16.002Z</time></trkpt><trkpt lat="44.533934732437025" lon="11.757154563761489"><ele>5.0</ele><time>2026-05-03T17:21:17.002Z</time></trkpt><trkpt lat="44.534039698612396" lon="11.757026401164262"><ele>5.0</ele><time>2026-05-03T17:21:18.002Z</time></trkpt><trkpt lat="44.53414853483816" lon="11.756894638433636"><ele>5.0</ele><time>2026-05-03T17:21:19Z</time></trkpt><trkpt lat="44.53425165679547" lon="11.756771311798929"><ele>5.0</ele><time>2026-05-03T17:21:20Z</time></trkpt><trkpt lat="44.53434275317993" lon="11.75666069844811"><ele>5.0</ele><time>2026-05-03T17:21:21Z</time></trkpt><trkpt lat="44.534427131159205" lon="11.756557810625056"><ele>5.25</ele><time>2026-05-03T17:21:22Z</time></trkpt><trkpt lat="44.53451464240097" lon="11.7564533333203"><ele>5.5</ele><time>2026-05-03T17:21:23Z</time></trkpt><trkpt lat="44.53460151810273" lon="11.756347557172875"><ele>5.75</ele><time>2026-05-03T17:21:24Z</time></trkpt><trkpt lat="44.53469377423417" lon="11.75623726793923"><ele>6.0</ele><time>2026-05-03T17:21:25Z</time></trkpt><trkpt lat="44.53479404204035" lon="11.756110757931925"><ele>6.0</ele><time>2026-05-03T17:21:26Z</time></trkpt><trkpt lat="44.53490983874029" lon="11.755962214342363"><ele>6.0</ele><time>2026-05-03T17:21:27Z</time></trkpt><trkpt lat="44.535027866805464" lon="11.75581805434329"><ele>6.0</ele><time>2026-05-03T17:21:28Z</time></trkpt><trkpt lat="44.53515106709888" lon="11.755666056157683"><ele>6.0</ele><time>2026-05-03T17:21:29Z</time></trkpt><trkpt lat="44.535281734582355" lon="11.755509926507662"><ele>6.0</ele><time>2026-05-03T17:21:30Z</time></trkpt><trkpt lat="44.53541586174" lon="11.755349339763008"><ele>6.0</ele><time>2026-05-03T17:21:31Z</time></trkpt><trkpt lat="44.53555029162347" lon="11.755186732215453"><ele>5.666666666666667</ele><time>2026-05-03T17:21:32Z</time></trkpt><trkpt lat="44.53568387343066" lon="11.755018863503711"><ele>5.333333333333334</ele><time>2026-05-03T17:21:33Z</time></trkpt><trkpt lat="44.53583038411135" lon="11.754866435810175"><ele>5.0</ele><time>2026-05-03T17:21:34Z</time></trkpt><trkpt lat="44.53596957107692" lon="11.754697322562558"><ele>5.0</ele><time>2026-05-03T17:21:35Z</time></trkpt><trkpt lat="44.53610426105356" lon="11.754505079956846"><ele>5.0</ele><time>2026-05-03T17:21:36Z</time></trkpt><trkpt lat="44.53625819942473" lon="11.754318422008243"><ele>5.0</ele><time>2026-05-03T17:21:37Z</time></trkpt><trkpt lat="44.53641114322613" lon="11.754134464018602"><ele>5.333333333333334</ele><time>2026-05-03T17:21:38Z</time></trkpt><trkpt lat="44.53657140963069" lon="11.753940266038326"><ele>5.666666666666667</ele><time>2026-05-03T17:21:39Z</time></trkpt><trkpt lat="44.53673396759233" lon="11.753737654892541"><ele>6.0</ele><time>2026-05-03T17:21:40Z</time></trkpt><trkpt lat="44.536911920663684" lon="11.753550356380737"><ele>5.333333333333333</ele><time>2026-05-03T17:21:41Z</time></trkpt><trkpt lat="44.53707717353828" lon="11.753349037038188"><ele>4.666666666666666</ele><time>2026-05-03T17:21:42Z</time></trkpt><trkpt lat="44.53724454866339" lon="11.753145130692397"><ele>4.0</ele><time>2026-05-03T17:21:43Z</time></trkpt><trkpt lat="44.53741050662573" lon="11.75294295081866"><ele>4.0</ele><time>2026-05-03T17:21:44Z</time></trkpt><trkpt lat="44.537566027399556" lon="11.752723236917655"><ele>4.0</ele><time>2026-05-03T17:21:45Z</time></trkpt><trkpt lat="44.53773394916785" lon="11.752520101511793"><ele>4.0</ele><time>2026-05-03T17:21:46Z</time></trkpt><trkpt lat="44.53790273944159" lon="11.752312921858246"><ele>4.5</ele><time>2026-05-03T17:21:47Z</time></trkpt><trkpt lat="44.53807347203009" lon="11.75210592931539"><ele>5.0</ele><time>2026-05-03T17:21:48Z</time></trkpt><trkpt lat="44.53824367924631" lon="11.751900571825248"><ele>5.0</ele><time>2026-05-03T17:21:49Z</time></trkpt><trkpt lat="44.538414502598464" lon="11.751693324342853"><ele>5.0</ele><time>2026-05-03T17:21:50Z</time></trkpt><trkpt lat="44.53858721742844" lon="11.751482905510898"><ele>6.0</ele><time>2026-05-03T17:21:51Z</time></trkpt><trkpt lat="44.53875802239077" lon="11.751273465277492"><ele>7.0</ele><time>2026-05-03T17:21:52Z</time></trkpt><trkpt lat="44.53893096642694" lon="11.751061662791313"><ele>6.0</ele><time>2026-05-03T17:21:53Z</time></trkpt><trkpt lat="44.539103943824834" lon="11.750849879653355"><ele>5.0</ele><time>2026-05-03T17:21:54Z</time></trkpt><trkpt lat="44.539291159586995" lon="11.750650238120192"><ele>5.0</ele><time>2026-05-03T17:21:55Z</time></trkpt><trkpt lat="44.539457319088115" lon="11.750417114742783"><ele>5.0</ele><time>2026-05-03T17:21:56Z</time></trkpt><trkpt lat="44.53963572225344" lon="11.750199595339309"><ele>4.5</ele><time>2026-05-03T17:21:57Z</time></trkpt><trkpt lat="44.53982230422527" lon="11.750002211974182"><ele>4.0</ele><time>2026-05-03T17:21:58Z</time></trkpt><trkpt lat="44.54000076514369" lon="11.74978460336306"><ele>4.0</ele><time>2026-05-03T17:21:59Z</time></trkpt><trkpt lat="44.54016428487295" lon="11.749556076198086"><ele>4.0</ele><time>2026-05-03T17:22:00Z</time></trkpt><trkpt lat="44.540338604810984" lon="11.749344198884245"><ele>4.5</ele><time>2026-05-03T17:22:01Z</time></trkpt><trkpt lat="44.540512774874784" lon="11.749131072403332"><ele>5.0</ele><time>2026-05-03T17:22:02Z</time></trkpt><trkpt lat="44.54068356867745" lon="11.748923602582348"><ele>5.0</ele><time>2026-05-03T17:22:03Z</time></trkpt><trkpt lat="44.54085346163241" lon="11.748717329419883"><ele>5.0</ele><time>2026-05-03T17:22:04Z</time></trkpt><trkpt lat="44.54102342718782" lon="11.748509809978003"><ele>5.0</ele><time>2026-05-03T17:22:05Z</time></trkpt><trkpt lat="44.54119387481909" lon="11.74830112916481"><ele>5.0</ele><time>2026-05-03T17:22:06Z</time></trkpt><trkpt lat="44.541363300448474" lon="11.748097123212364"><ele>5.0</ele><time>2026-05-03T17:22:07Z</time></trkpt><trkpt lat="44.54153222618323" lon="11.747893632471058"><ele>5.333333333333334</ele><time>2026-05-03T17:22:08Z</time></trkpt><trkpt lat="44.5416959221209" lon="11.747692805049658"><ele>5.666666666666667</ele><time>2026-05-03T17:22:09Z</time></trkpt><trkpt lat="44.54186239423084" lon="11.747490161242757"><ele>6.0</ele><time>2026-05-03T17:22:10.001Z</time></trkpt><trkpt lat="44.5420301201931" lon="11.747286254759384"><ele>6.333333333333334</ele><time>2026-05-03T17:22:11.001Z</time></trkpt><trkpt lat="44.54219244033478" lon="11.747088829792034"><ele>6.666666666666667</ele><time>2026-05-03T17:22:12.001Z</time></trkpt><trkpt lat="44.54235363413415" lon="11.746888095643827"><ele>7.0</ele><time>2026-05-03T17:22:13.001Z</time></trkpt><trkpt lat="44.54251833210912" lon="11.746686556772369"><ele>6.333333333333334</ele><time>2026-05-03T17:22:14.001Z</time></trkpt><trkpt lat="44.542684939681315" lon="11.746478177913026"><ele>5.666666666666667</ele><time>2026-05-03T17:22:15.001Z</time></trkpt><trkpt lat="44.54285452227045" lon="11.746272033237592"><ele>5.0</ele><time>2026-05-03T17:22:16.001Z</time></trkpt><trkpt lat="44.543028253452825" lon="11.746059249247471"><ele>4.0</ele><time>2026-05-03T17:22:17.001Z</time></trkpt><trkpt lat="44.54320366249868" lon="11.745843197476296"><ele>3.0</ele><time>2026-05-03T17:22:18.001Z</time></trkpt><trkpt lat="44.543385491539425" lon="11.745625178970725"><ele>3.0</ele><time>2026-05-03T17:22:19.001Z</time></trkpt><trkpt lat="44.54356866357226" lon="11.745404473086401"><ele>3.0</ele><time>2026-05-03T17:22:20.001Z</time></trkpt><trkpt lat="44.54374975503342" lon="11.745182730112"><ele>3.5</ele><time>2026-05-03T17:22:21.001Z</time></trkpt><trkpt lat="44.54393486921073" lon="11.744957132485485"><ele>4.0</ele><time>2026-05-03T17:22:22.001Z</time></trkpt><trkpt lat="44.54411993303753" lon="11.744732524330649"><ele>4.0</ele><time>2026-05-03T17:22:23.001Z</time></trkpt><trkpt lat="44.54430239988445" lon="11.744512086429932"><ele>4.0</ele><time>2026-05-03T17:22:24.001Z</time></trkpt><trkpt lat="44.54448577905503" lon="11.744289447621638"><ele>4.5</ele><time>2026-05-03T17:22:25.001Z</time></trkpt><trkpt lat="44.54466846969402" lon="11.744067423462855"><ele>5.0</ele><time>2026-05-03T17:22:26.001Z</time></trkpt><trkpt lat="44.54485229108587" lon="11.743841450407228"><ele>5.0</ele><time>2026-05-03T17:22:27.001Z</time></trkpt><trkpt lat="44.545036631386594" lon="11.743618566411886"><ele>5.0</ele><time>2026-05-03T17:22:28.001Z</time></trkpt><trkpt lat="44.54521983083377" lon="11.743397950162004"><ele>5.5</ele><time>2026-05-03T17:22:29.001Z</time></trkpt><trkpt lat="44.54540424754733" lon="11.743177674122672"><ele>6.0</ele><time>2026-05-03T17:22:30.001Z</time></trkpt><trkpt lat="44.545586065463" lon="11.742956231967016"><ele>6.0</ele><time>2026-05-03T17:22:31.001Z</time></trkpt><trkpt lat="44.5457656525344" lon="11.742735333499308"><ele>6.0</ele><time>2026-05-03T17:22:32.001Z</time></trkpt><trkpt lat="44.54594227472016" lon="11.742519951531103"><ele>6.5</ele><time>2026-05-03T17:22:33.001Z</time></trkpt><trkpt lat="44.54612597203982" lon="11.74229864541335"><ele>7.0</ele><time>2026-05-03T17:22:34.001Z</time></trkpt><trkpt lat="44.546307943792065" lon="11.742081360178245"><ele>6.5</ele><time>2026-05-03T17:22:35.001Z</time></trkpt><trkpt lat="44.54649383495406" lon="11.741859425333798"><ele>6.0</ele><time>2026-05-03T17:22:36.001Z</time></trkpt><trkpt lat="44.54667937265406" lon="11.741633517763"><ele>6.0</ele><time>2026-05-03T17:22:37.001Z</time></trkpt><trkpt lat="44.54686504745507" lon="11.741408962689434"><ele>6.0</ele><time>2026-05-03T17:22:38.001Z</time></trkpt><trkpt lat="44.54705030030414" lon="11.741186625290046"><ele>6.0</ele><time>2026-05-03T17:22:39.001Z</time></trkpt><trkpt lat="44.547228903065566" lon="11.740975915547166"><ele>6.0</ele><time>2026-05-03T17:22:40.001Z</time></trkpt><trkpt lat="44.547403269867445" lon="11.740771474747516"><ele>6.0</ele><time>2026-05-03T17:22:41.001Z</time></trkpt><trkpt lat="44.547576056888595" lon="11.74056592350163"><ele>6.0</ele><time>2026-05-03T17:22:42.001Z</time></trkpt><trkpt lat="44.54774277085646" lon="11.740363591444494"><ele>6.0</ele><time>2026-05-03T17:22:43.001Z</time></trkpt><trkpt lat="44.547915144898354" lon="11.740154975738635"><ele>4.5</ele><time>2026-05-03T17:22:44.001Z</time></trkpt><trkpt lat="44.5480874460244" lon="11.739949337430039"><ele>3.0</ele><time>2026-05-03T17:22:45.001Z</time></trkpt><trkpt lat="44.548260584169725" lon="11.739736992069771"><ele>3.0</ele><time>2026-05-03T17:22:46.001Z</time></trkpt><trkpt lat="44.54843365292004" lon="11.739521549683854"><ele>3.0</ele><time>2026-05-03T17:22:47.001Z</time></trkpt><trkpt lat="44.54860756421901" lon="11.739307282275117"><ele>3.0</ele><time>2026-05-03T17:22:48.001Z</time></trkpt><trkpt lat="44.54878699974385" lon="11.739097457723553"><ele>3.0</ele><time>2026-05-03T17:22:49.001Z</time></trkpt><trkpt lat="44.54896248198615" lon="11.738895428950102"><ele>3.0</ele><time>2026-05-03T17:22:50.001Z</time></trkpt><trkpt lat="44.54913338748449" lon="11.73869383925181"><ele>3.0</ele><time>2026-05-03T17:22:51.001Z</time></trkpt><trkpt lat="44.54930591377924" lon="11.73848316217415"><ele>3.333333333333333</ele><time>2026-05-03T17:22:52.001Z</time></trkpt><trkpt lat="44.54947719742423" lon="11.738274645633059"><ele>3.6666666666666665</ele><time>2026-05-03T17:22:53.001Z</time></trkpt><trkpt lat="44.54964375136199" lon="11.73807445743668"><ele>4.0</ele><time>2026-05-03T17:22:54.001Z</time></trkpt><trkpt lat="44.54980797609839" lon="11.737875501053823"><ele>5.0</ele><time>2026-05-03T17:22:55.001Z</time></trkpt><trkpt lat="44.5499713263401" lon="11.737675989911818"><ele>6.0</ele><time>2026-05-03T17:22:56.001Z</time></trkpt><trkpt lat="44.55013392555739" lon="11.737477433298245"><ele>7.0</ele><time>2026-05-03T17:22:57.001Z</time></trkpt><trkpt lat="44.55029882846875" lon="11.737278678195736"><ele>7.333333333333334</ele><time>2026-05-03T17:22:58.001Z</time></trkpt><trkpt lat="44.550462538420625" lon="11.737081191345254"><ele>7.666666666666666</ele><time>2026-05-03T17:22:59.001Z</time></trkpt><trkpt lat="44.550624591638275" lon="11.736886733761017"><ele>8.0</ele><time>2026-05-03T17:23:00.001Z</time></trkpt><trkpt lat="44.550788084678665" lon="11.73669183966646"><ele>7.333333333333333</ele><time>2026-05-03T17:23:01.001Z</time></trkpt><trkpt lat="44.5509501788277" lon="11.736498777385433"><ele>6.666666666666666</ele><time>2026-05-03T17:23:02.001Z</time></trkpt><trkpt lat="44.5511139182198" lon="11.73630614301554"><ele>6.0</ele><time>2026-05-03T17:23:03.001Z</time></trkpt><trkpt lat="44.551277293369765" lon="11.736114174984293"><ele>6.0</ele><time>2026-05-03T17:23:04.001Z</time></trkpt><trkpt lat="44.551439988308836" lon="11.735921975213891"><ele>6.0</ele><time>2026-05-03T17:23:05.001Z</time></trkpt><trkpt lat="44.55159683236183" lon="11.735735111873487"><ele>6.0</ele><time>2026-05-03T17:23:06.001Z</time></trkpt><trkpt lat="44.55174774149978" lon="11.73555271336264"><ele>6.0</ele><time>2026-05-03T17:23:07.001Z</time></trkpt><trkpt lat="44.55188876589918" lon="11.7353823776616"><ele>6.0</ele><time>2026-05-03T17:23:08.001Z</time></trkpt><trkpt lat="44.552025798340175" lon="11.735213786780905"><ele>6.0</ele><time>2026-05-03T17:23:09.001Z</time></trkpt><trkpt lat="44.55215766711804" lon="11.735054690524391"><ele>6.0</ele><time>2026-05-03T17:23:10.001Z</time></trkpt><trkpt lat="44.55228527802623" lon="11.734899232150376"><ele>6.0</ele><time>2026-05-03T17:23:11.001Z</time></trkpt><trkpt lat="44.552409839756706" lon="11.734743794657971"><ele>6.0</ele><time>2026-05-03T17:23:12.001Z</time></trkpt><trkpt lat="44.55254384911527" lon="11.734579098635798"><ele>6.0</ele><time>2026-05-03T17:23:13.001Z</time></trkpt><trkpt lat="44.552682582161424" lon="11.734409187221779"><ele>6.0</ele><time>2026-05-03T17:23:14.001Z</time></trkpt><trkpt lat="44.552828478210614" lon="11.734233654994782"><ele>6.0</ele><time>2026-05-03T17:23:15.001Z</time></trkpt><trkpt lat="44.55297975870891" lon="11.734054782275015"><ele>5.333333333333333</ele><time>2026-05-03T17:23:16.001Z</time></trkpt><trkpt lat="44.553136075956246" lon="11.733867764080271"><ele>4.666666666666666</ele><time>2026-05-03T17:23:17.001Z</time></trkpt><trkpt lat="44.553294250609945" lon="11.733682319509587"><ele>4.0</ele><time>2026-05-03T17:23:18.001Z</time></trkpt><trkpt lat="44.55346245625425" lon="11.73349800341008"><ele>4.0</ele><time>2026-05-03T17:23:19.001Z</time></trkpt><trkpt lat="44.55363859527217" lon="11.733329165323845"><ele>4.0</ele><time>2026-05-03T17:23:20.001Z</time></trkpt><trkpt lat="44.55383723561583" lon="11.733196058303271"><ele>4.0</ele><time>2026-05-03T17:23:21.001Z</time></trkpt><trkpt lat="44.554034001847675" lon="11.733062205218651"><ele>4.5</ele><time>2026-05-03T17:23:22.002Z</time></trkpt><trkpt lat="44.5542479300944" lon="11.73293030296995"><ele>5.0</ele><time>2026-05-03T17:23:23.002Z</time></trkpt><trkpt lat="44.55445738058528" lon="11.732780314672924"><ele>5.0</ele><time>2026-05-03T17:23:24.002Z</time></trkpt><trkpt lat="44.55466735380889" lon="11.732649722859529"><ele>5.0</ele><time>2026-05-03T17:23:25Z</time></trkpt><trkpt lat="44.55487712112118" lon="11.732519705561806"><ele>5.0</ele><time>2026-05-03T17:23:26Z</time></trkpt><trkpt lat="44.55508925255892" lon="11.732392000970439"><ele>5.0</ele><time>2026-05-03T17:23:27Z</time></trkpt><trkpt lat="44.55530263385082" lon="11.732261132745379"><ele>5.5</ele><time>2026-05-03T17:23:28Z</time></trkpt><trkpt lat="44.555511644676415" lon="11.732129264513137"><ele>6.0</ele><time>2026-05-03T17:23:29Z</time></trkpt><trkpt lat="44.55572142500701" lon="11.731995803902956"><ele>6.0</ele><time>2026-05-03T17:23:30Z</time></trkpt><trkpt lat="44.55593148280488" lon="11.731866823635164"><ele>6.0</ele><time>2026-05-03T17:23:31Z</time></trkpt><trkpt lat="44.556138178057516" lon="11.731737397369804"><ele>6.0</ele><time>2026-05-03T17:23:32Z</time></trkpt><trkpt lat="44.55634860178209" lon="11.731605517541023"><ele>6.0</ele><time>2026-05-03T17:23:33Z</time></trkpt><trkpt lat="44.556560187581574" lon="11.731472019774529"><ele>6.0</ele><time>2026-05-03T17:23:34Z</time></trkpt><trkpt lat="44.55677514594054" lon="11.731341348954878"><ele>6.0</ele><time>2026-05-03T17:23:35Z</time></trkpt><trkpt lat="44.556986584016336" lon="11.731211904652007"><ele>6.0</ele><time>2026-05-03T17:23:36Z</time></trkpt><trkpt lat="44.55719365383366" lon="11.731083169497913"><ele>6.0</ele><time>2026-05-03T17:23:37Z</time></trkpt><trkpt lat="44.557395887682546" lon="11.730961400785164"><ele>6.0</ele><time>2026-05-03T17:23:38Z</time></trkpt><trkpt lat="44.55759944055873" lon="11.730859149288936"><ele>6.0</ele><time>2026-05-03T17:23:39Z</time></trkpt><trkpt lat="44.55778957090512" lon="11.730740921745884"><ele>6.0</ele><time>2026-05-03T17:23:40Z</time></trkpt><trkpt lat="44.55796598493371" lon="11.73060856758444"><ele>6.0</ele><time>2026-05-03T17:23:41Z</time></trkpt><trkpt lat="44.55815065551965" lon="11.730495528129188"><ele>6.0</ele><time>2026-05-03T17:23:42Z</time></trkpt><trkpt lat="44.55833710001055" lon="11.730383884286203"><ele>6.0</ele><time>2026-05-03T17:23:43Z</time></trkpt><trkpt lat="44.558524829834475" lon="11.730267762917869"><ele>6.0</ele><time>2026-05-03T17:23:44Z</time></trkpt><trkpt lat="44.55871146653238" lon="11.730151241739424"><ele>6.0</ele><time>2026-05-03T17:23:45Z</time></trkpt><trkpt lat="44.55889952008459" lon="11.73003705222993"><ele>6.0</ele><time>2026-05-03T17:23:46Z</time></trkpt><trkpt lat="44.559089711579276" lon="11.72991804925269"><ele>6.0</ele><time>2026-05-03T17:23:47Z</time></trkpt><trkpt lat="44.55928280176308" lon="11.72979608029224"><ele>6.0</ele><time>2026-05-03T17:23:48Z</time></trkpt><trkpt lat="44.55948076659477" lon="11.729672695733784"><ele>6.0</ele><time>2026-05-03T17:23:49Z</time></trkpt><trkpt lat="44.55968647407456" lon="11.729540151143482"><ele>6.0</ele><time>2026-05-03T17:23:50Z</time></trkpt><trkpt lat="44.55988268524076" lon="11.729420062859235"><ele>5.666666666666667</ele><time>2026-05-03T17:23:51Z</time></trkpt><trkpt lat="44.56006624088106" lon="11.72930533737326"><ele>5.333333333333334</ele><time>2026-05-03T17:23:52Z</time></trkpt><trkpt lat="44.56023284964916" lon="11.729200433175608"><ele>5.0</ele><time>2026-05-03T17:23:53Z</time></trkpt><trkpt lat="44.56038712834528" lon="11.729104547272422"><ele>4.666666666666667</ele><time>2026-05-03T17:23:54Z</time></trkpt><trkpt lat="44.5605376597124" lon="11.729013297183773"><ele>4.333333333333333</ele><time>2026-05-03T17:23:55Z</time></trkpt><trkpt lat="44.560690988711386" lon="11.728922420408814"><ele>4.0</ele><time>2026-05-03T17:23:56Z</time></trkpt><trkpt lat="44.56084561423171" lon="11.728829253144204"><ele>4.0</ele><time>2026-05-03T17:23:57Z</time></trkpt><trkpt lat="44.561000771304876" lon="11.728732850546233"><ele>4.0</ele><time>2026-05-03T17:23:58Z</time></trkpt><trkpt lat="44.56116174818322" lon="11.728633759912704"><ele>4.0</ele><time>2026-05-03T17:23:59Z</time></trkpt><trkpt lat="44.56132188824546" lon="11.728531493894177"><ele>4.666666666666666</ele><time>2026-05-03T17:24:00Z</time></trkpt><trkpt lat="44.56148248621648" lon="11.72843154364213"><ele>5.333333333333333</ele><time>2026-05-03T17:24:01Z</time></trkpt><trkpt lat="44.56164513931839" lon="11.728330562080686"><ele>6.0</ele><time>2026-05-03T17:24:02Z</time></trkpt><trkpt lat="44.561805395614336" lon="11.728230645192422"><ele>6.0</ele><time>2026-05-03T17:24:03Z</time></trkpt><trkpt lat="44.56195828292982" lon="11.728136647565549"><ele>6.0</ele><time>2026-05-03T17:24:04Z</time></trkpt><trkpt lat="44.56210237135711" lon="11.728049082837838"><ele>6.0</ele><time>2026-05-03T17:24:05Z</time></trkpt><trkpt lat="44.56223222802527" lon="11.727970664689643"><ele>6.199999999999999</ele><time>2026-05-03T17:24:06Z</time></trkpt><trkpt lat="44.562351511210295" lon="11.727896546179672"><ele>6.3999999999999995</ele><time>2026-05-03T17:24:07Z</time></trkpt><trkpt lat="44.56245583274904" lon="11.727832481113012"><ele>6.6</ele><time>2026-05-03T17:24:08Z</time></trkpt><trkpt lat="44.56254388771073" lon="11.727778877636235"><ele>6.8</ele><time>2026-05-03T17:24:09Z</time></trkpt><trkpt lat="44.562611855300105" lon="11.727735603875384"><ele>7.0</ele><time>2026-05-03T17:24:10Z</time></trkpt><trkpt lat="44.56268782706012" lon="11.727686005020614"><ele>7.199999999999999</ele><time>2026-05-03T17:24:12Z</time></trkpt><trkpt lat="44.56277355406536" lon="11.727628938809021"><ele>7.3999999999999995</ele><time>2026-05-03T17:24:17.001Z</time></trkpt><trkpt lat="44.5627413239056" lon="11.727472770821283"><ele>7.6000000000000005</ele><time>2026-05-03T17:24:19.001Z</time></trkpt><trkpt lat="44.56269680451992" lon="11.727376327333902"><ele>7.800000000000001</ele><time>2026-05-03T17:24:20.001Z</time></trkpt><trkpt lat="44.56265989969027" lon="11.727261276634167"><ele>8.0</ele><time>2026-05-03T17:24:21.001Z</time></trkpt><trkpt lat="44.56262213718257" lon="11.72714087304698"><ele>8.0</ele><time>2026-05-03T17:24:22.001Z</time></trkpt><trkpt lat="44.56257387553579" lon="11.72700074268532"><ele>8.0</ele><time>2026-05-03T17:24:23.001Z</time></trkpt><trkpt lat="44.56252458583606" lon="11.72684803810359"><ele>8.0</ele><time>2026-05-03T17:24:24.001Z</time></trkpt><trkpt lat="44.56247947180526" lon="11.726699382972452"><ele>8.0</ele><time>2026-05-03T17:24:25.001Z</time></trkpt><trkpt lat="44.562428609276" lon="11.726549283121958"><ele>8.0</ele><time>2026-05-03T17:24:26.001Z</time></trkpt><trkpt lat="44.562373084324264" lon="11.726383510576591"><ele>8.0</ele><time>2026-05-03T17:24:27.001Z</time></trkpt><trkpt lat="44.562316032647956" lon="11.726209844948293"><ele>8.0</ele><time>2026-05-03T17:24:28.001Z</time></trkpt><trkpt lat="44.562256391229695" lon="11.726029605022674"><ele>8.0</ele><time>2026-05-03T17:24:29.001Z</time></trkpt><trkpt lat="44.56219805773539" lon="11.725851274025619"><ele>7.75</ele><time>2026-05-03T17:24:30.001Z</time></trkpt><trkpt lat="44.5621411528456" lon="11.725679440812236"><ele>7.5</ele><time>2026-05-03T17:24:31.001Z</time></trkpt><trkpt lat="44.562085307238405" lon="11.7255095136872"><ele>7.25</ele><time>2026-05-03T17:24:32.001Z</time></trkpt><trkpt lat="44.56202767291708" lon="11.72533340509901"><ele>7.0</ele><time>2026-05-03T17:24:33.001Z</time></trkpt><trkpt lat="44.561969194052075" lon="11.725158215140755"><ele>7.0</ele><time>2026-05-03T17:24:34.001Z</time></trkpt><trkpt lat="44.56190778731378" lon="11.724974071202709"><ele>7.0</ele><time>2026-05-03T17:24:35.001Z</time></trkpt><trkpt lat="44.561843017937406" lon="11.72478324470745"><ele>7.0</ele><time>2026-05-03T17:24:36.001Z</time></trkpt><trkpt lat="44.56177987508294" lon="11.72459122829979"><ele>7.0</ele><time>2026-05-03T17:24:37.001Z</time></trkpt><trkpt lat="44.56171691431812" lon="11.724402310531689"><ele>7.25</ele><time>2026-05-03T17:24:38.001Z</time></trkpt><trkpt lat="44.56165392581353" lon="11.7242168479031"><ele>7.5</ele><time>2026-05-03T17:24:39.001Z</time></trkpt><trkpt lat="44.561593754857206" lon="11.724036711100029"><ele>7.75</ele><time>2026-05-03T17:24:40.001Z</time></trkpt><trkpt lat="44.56153225511656" lon="11.72385552306031"><ele>8.0</ele><time>2026-05-03T17:24:41.001Z</time></trkpt><trkpt lat="44.56146987662108" lon="11.723670315413733"><ele>7.75</ele><time>2026-05-03T17:24:42.001Z</time></trkpt><trkpt lat="44.561407810992634" lon="11.72348555721794"><ele>7.5</ele><time>2026-05-03T17:24:43.001Z</time></trkpt><trkpt lat="44.56134483112551" lon="11.72330140605118"><ele>7.25</ele><time>2026-05-03T17:24:44.001Z</time></trkpt><trkpt lat="44.56128542960947" lon="11.723114318401482"><ele>7.0</ele><time>2026-05-03T17:24:45.001Z</time></trkpt><trkpt lat="44.5612238654263" lon="11.722925706893264"><ele>6.75</ele><time>2026-05-03T17:24:46.001Z</time></trkpt><trkpt lat="44.56116431545407" lon="11.722743915370542"><ele>6.5</ele><time>2026-05-03T17:24:47.001Z</time></trkpt><trkpt lat="44.56110435508341" lon="11.722575559079473"><ele>6.25</ele><time>2026-05-03T17:24:48.001Z</time></trkpt><trkpt lat="44.56105100097399" lon="11.722424013007144"><ele>6.0</ele><time>2026-05-03T17:24:49.001Z</time></trkpt><trkpt lat="44.56101846295836" lon="11.722275035354572"><ele>6.4</ele><time>2026-05-03T17:24:50.001Z</time></trkpt><trkpt lat="44.56097443888245" lon="11.722140802539451"><ele>6.8</ele><time>2026-05-03T17:24:51.001Z</time></trkpt><trkpt lat="44.56092236011299" lon="11.722018722468926"><ele>7.200000000000001</ele><time>2026-05-03T17:24:52.001Z</time></trkpt><trkpt lat="44.560875232969096" lon="11.721871561851549"><ele>7.6000000000000005</ele><time>2026-05-03T17:24:53.001Z</time></trkpt><trkpt lat="44.56082782706484" lon="11.72172214102937"><ele>8.0</ele><time>2026-05-03T17:24:54.001Z</time></trkpt><trkpt lat="44.56078194858015" lon="11.721585713867162"><ele>8.200000000000001</ele><time>2026-05-03T17:24:55.001Z</time></trkpt><trkpt lat="44.56074096877506" lon="11.721466596665323"><ele>8.4</ele><time>2026-05-03T17:24:56.001Z</time></trkpt><trkpt lat="44.56070173224606" lon="11.7213545381658"><ele>8.600000000000001</ele><time>2026-05-03T17:24:57.001Z</time></trkpt><trkpt lat="44.560668627240936" lon="11.721257280082893"><ele>8.8</ele><time>2026-05-03T17:24:58.001Z</time></trkpt><trkpt lat="44.56064540174767" lon="11.721092649339107"><ele>9.0</ele><time>2026-05-03T17:25:00.001Z</time></trkpt><trkpt lat="44.56073630515867" lon="11.721018287424892"><ele>9.0</ele><time>2026-05-03T17:25:01.001Z</time></trkpt><trkpt lat="44.56080805482227" lon="11.720977393091099"><ele>9.0</ele><time>2026-05-03T17:25:02.001Z</time></trkpt><trkpt lat="44.56087126033761" lon="11.720826627296137"><ele>9.0</ele><time>2026-05-03T17:25:03.001Z</time></trkpt><trkpt lat="44.56099105845372" lon="11.720728247916366"><ele>9.0</ele><time>2026-05-03T17:25:04.001Z</time></trkpt><trkpt lat="44.561103900041616" lon="11.720619110673852"><ele>8.75</ele><time>2026-05-03T17:25:05.001Z</time></trkpt><trkpt lat="44.5612117450985" lon="11.720523906456744"><ele>8.5</ele><time>2026-05-03T17:25:06.001Z</time></trkpt><trkpt lat="44.56131860525544" lon="11.720422477661675"><ele>8.25</ele><time>2026-05-03T17:25:07.001Z</time></trkpt><trkpt lat="44.56142665306069" lon="11.720322200791871"><ele>8.0</ele><time>2026-05-03T17:25:08.001Z</time></trkpt><trkpt lat="44.561536368545376" lon="11.720224312851826"><ele>8.0</ele><time>2026-05-03T17:25:09.001Z</time></trkpt><trkpt lat="44.561643893553594" lon="11.720124136094691"><ele>8.0</ele><time>2026-05-03T17:25:10.001Z</time></trkpt><trkpt lat="44.5617445676565" lon="11.720023927615156"><ele>8.0</ele><time>2026-05-03T17:25:11.001Z</time></trkpt><trkpt lat="44.56184813576054" lon="11.71992986652404"><ele>8.0</ele><time>2026-05-03T17:25:12.001Z</time></trkpt><trkpt lat="44.56195384614761" lon="11.719839149083377"><ele>7.25</ele><time>2026-05-03T17:25:13.001Z</time></trkpt><trkpt lat="44.56205533748323" lon="11.719745316614882"><ele>6.5</ele><time>2026-05-03T17:25:14.001Z</time></trkpt><trkpt lat="44.56215980391791" lon="11.719651892575751"><ele>5.75</ele><time>2026-05-03T17:25:15.001Z</time></trkpt><trkpt lat="44.56225832416653" lon="11.71955697974997"><ele>5.0</ele><time>2026-05-03T17:25:16.001Z</time></trkpt><trkpt lat="44.56236962869233" lon="11.719455398258889"><ele>5.0</ele><time>2026-05-03T17:25:17.001Z</time></trkpt><trkpt lat="44.56249517383676" lon="11.719337555523689"><ele>5.0</ele><time>2026-05-03T17:25:18.001Z</time></trkpt><trkpt lat="44.56261967289485" lon="11.719220536032603"><ele>5.0</ele><time>2026-05-03T17:25:19.001Z</time></trkpt><trkpt lat="44.56274727094866" lon="11.719097271245188"><ele>5.0</ele><time>2026-05-03T17:25:20.001Z</time></trkpt><trkpt lat="44.562873320730624" lon="11.718976024716424"><ele>5.0</ele><time>2026-05-03T17:25:21.002Z</time></trkpt><trkpt lat="44.5629998283986" lon="11.7188556860915"><ele>5.0</ele><time>2026-05-03T17:25:22.002Z</time></trkpt><trkpt lat="44.5631274142883" lon="11.718736575131947"><ele>5.0</ele><time>2026-05-03T17:25:23.002Z</time></trkpt><trkpt lat="44.56325160257367" lon="11.718620273465993"><ele>5.0</ele><time>2026-05-03T17:25:24.002Z</time></trkpt><trkpt lat="44.56337845610171" lon="11.718500389455665"><ele>5.0</ele><time>2026-05-03T17:25:25.002Z</time></trkpt><trkpt lat="44.56351289186739" lon="11.718402509844129"><ele>5.0</ele><time>2026-05-03T17:25:26.002Z</time></trkpt><trkpt lat="44.56363728294897" lon="11.718287237649903"><ele>5.0</ele><time>2026-05-03T17:25:27.002Z</time></trkpt><trkpt lat="44.56375231691258" lon="11.71815307387861"><ele>5.0</ele><time>2026-05-03T17:25:28.002Z</time></trkpt><trkpt lat="44.56388301387047" lon="11.718033312553473"><ele>5.0</ele><time>2026-05-03T17:25:29.002Z</time></trkpt><trkpt lat="44.56400774680332" lon="11.717920194547567"><ele>5.0</ele><time>2026-05-03T17:25:30.002Z</time></trkpt><trkpt lat="44.564132916676435" lon="11.717807271967613"><ele>5.0</ele><time>2026-05-03T17:25:31Z</time></trkpt><trkpt lat="44.56426216535463" lon="11.717687714657902"><ele>5.333333333333334</ele><time>2026-05-03T17:25:32Z</time></trkpt><trkpt lat="44.56440145133597" lon="11.717561724584295"><ele>5.666666666666667</ele><time>2026-05-03T17:25:33Z</time></trkpt><trkpt lat="44.564544323226535" lon="11.71743571414511"><ele>6.0</ele><time>2026-05-03T17:25:34Z</time></trkpt><trkpt lat="44.56469154301328" lon="11.717303557362403"><ele>6.0</ele><time>2026-05-03T17:25:35Z</time></trkpt><trkpt lat="44.56483705359876" lon="11.717163655099528"><ele>6.0</ele><time>2026-05-03T17:25:36Z</time></trkpt><trkpt lat="44.56498033403783" lon="11.717027766650945"><ele>6.0</ele><time>2026-05-03T17:25:37Z</time></trkpt><trkpt lat="44.56512681385324" lon="11.716890456370415"><ele>5.666666666666667</ele><time>2026-05-03T17:25:38Z</time></trkpt><trkpt lat="44.56527842409189" lon="11.716779640301176"><ele>5.333333333333334</ele><time>2026-05-03T17:25:39Z</time></trkpt><trkpt lat="44.56541890209565" lon="11.716654335691901"><ele>5.0</ele><time>2026-05-03T17:25:40Z</time></trkpt><trkpt lat="44.56555858251917" lon="11.716515432142574"><ele>5.0</ele><time>2026-05-03T17:25:41Z</time></trkpt><trkpt lat="44.56571334459183" lon="11.716403125219257"><ele>5.0</ele><time>2026-05-03T17:25:42Z</time></trkpt><trkpt lat="44.56587188238809" lon="11.716290756887863"><ele>5.0</ele><time>2026-05-03T17:25:43Z</time></trkpt><trkpt lat="44.566036073626194" lon="11.71617085730414"><ele>5.666666666666667</ele><time>2026-05-03T17:25:44Z</time></trkpt><trkpt lat="44.56620805520408" lon="11.716048355472614"><ele>6.333333333333334</ele><time>2026-05-03T17:25:45Z</time></trkpt><trkpt lat="44.56639141091271" lon="11.715933746558402"><ele>7.0</ele><time>2026-05-03T17:25:46Z</time></trkpt><trkpt lat="44.56655680748907" lon="11.715799110411602"><ele>7.0</ele><time>2026-05-03T17:25:47Z</time></trkpt><trkpt lat="44.5667268807058" lon="11.715650250286709"><ele>7.0</ele><time>2026-05-03T17:25:48Z</time></trkpt><trkpt lat="44.566885745578105" lon="11.71550514737237"><ele>7.0</ele><time>2026-05-03T17:25:49Z</time></trkpt><trkpt lat="44.56703218856254" lon="11.715370642326727"><ele>7.0</ele><time>2026-05-03T17:25:50Z</time></trkpt><trkpt lat="44.56716295110352" lon="11.715223528078768"><ele>7.0</ele><time>2026-05-03T17:25:51Z</time></trkpt><trkpt lat="44.56731607085703" lon="11.715082416449901"><ele>7.0</ele><time>2026-05-03T17:25:52Z</time></trkpt><trkpt lat="44.56747894249434" lon="11.714931457610682"><ele>7.0</ele><time>2026-05-03T17:25:53Z</time></trkpt><trkpt lat="44.56764912499672" lon="11.714772434255986"><ele>7.0</ele><time>2026-05-03T17:25:54Z</time></trkpt><trkpt lat="44.56781654522775" lon="11.714617547277355"><ele>7.0</ele><time>2026-05-03T17:25:55Z</time></trkpt><trkpt lat="44.56798574102837" lon="11.714461211787695"><ele>7.333333333333334</ele><time>2026-05-03T17:25:56Z</time></trkpt><trkpt lat="44.56815765176436" lon="11.714297859926882"><ele>7.666666666666666</ele><time>2026-05-03T17:25:57Z</time></trkpt><trkpt lat="44.568328355932266" lon="11.714139367488604"><ele>8.0</ele><time>2026-05-03T17:25:58Z</time></trkpt><trkpt lat="44.56849688318128" lon="11.713985132564577"><ele>8.0</ele><time>2026-05-03T17:25:59Z</time></trkpt><trkpt lat="44.56866138090876" lon="11.713835587025589"><ele>8.0</ele><time>2026-05-03T17:26:00Z</time></trkpt><trkpt lat="44.56882342091426" lon="11.71368659170558"><ele>8.0</ele><time>2026-05-03T17:26:01Z</time></trkpt><trkpt lat="44.56898128101764" lon="11.71353918464939"><ele>8.0</ele><time>2026-05-03T17:26:02Z</time></trkpt><trkpt lat="44.5691435067103" lon="11.713385919094492"><ele>8.0</ele><time>2026-05-03T17:26:03.001Z</time></trkpt><trkpt lat="44.569301604820794" lon="11.713239686429889"><ele>8.0</ele><time>2026-05-03T17:26:04.001Z</time></trkpt><trkpt lat="44.569462973653216" lon="11.71309164015231"><ele>8.0</ele><time>2026-05-03T17:26:05.001Z</time></trkpt><trkpt lat="44.569617716376726" lon="11.712949203802651"><ele>8.0</ele><time>2026-05-03T17:26:06.001Z</time></trkpt><trkpt lat="44.569774408838995" lon="11.712804964937321"><ele>8.0</ele><time>2026-05-03T17:26:07.001Z</time></trkpt><trkpt lat="44.56993148334795" lon="11.712659891483368"><ele>8.333333333333332</ele><time>2026-05-03T17:26:08.001Z</time></trkpt><trkpt lat="44.570084535435015" lon="11.71251934648876"><ele>8.666666666666666</ele><time>2026-05-03T17:26:09.001Z</time></trkpt><trkpt lat="44.57022743608422" lon="11.712388522321286"><ele>9.0</ele><time>2026-05-03T17:26:10.001Z</time></trkpt><trkpt lat="44.57036946378609" lon="11.71225441159577"><ele>9.0</ele><time>2026-05-03T17:26:11.001Z</time></trkpt><trkpt lat="44.57051655528914" lon="11.712117032756318"><ele>9.0</ele><time>2026-05-03T17:26:12.001Z</time></trkpt><trkpt lat="44.57067255518338" lon="11.711975529800277"><ele>9.0</ele><time>2026-05-03T17:26:13.001Z</time></trkpt><trkpt lat="44.570827144820115" lon="11.711833438365636"><ele>9.0</ele><time>2026-05-03T17:26:14.001Z</time></trkpt><trkpt lat="44.57098254287291" lon="11.711687950439442"><ele>9.0</ele><time>2026-05-03T17:26:15.001Z</time></trkpt><trkpt lat="44.57113310891995" lon="11.711544646199982"><ele>9.0</ele><time>2026-05-03T17:26:16.001Z</time></trkpt><trkpt lat="44.57129162254073" lon="11.711426422977514"><ele>8.666666666666666</ele><time>2026-05-03T17:26:17.001Z</time></trkpt><trkpt lat="44.57143543431451" lon="11.711293473159051"><ele>8.333333333333332</ele><time>2026-05-03T17:26:18.001Z</time></trkpt><trkpt lat="44.5715637036082" lon="11.711148254319083"><ele>8.0</ele><time>2026-05-03T17:26:19.001Z</time></trkpt><trkpt lat="44.571698474544036" lon="11.711024601621942"><ele>8.0</ele><time>2026-05-03T17:26:20.001Z</time></trkpt><trkpt lat="44.57182459021572" lon="11.710906663682058"><ele>8.0</ele><time>2026-05-03T17:26:21.001Z</time></trkpt><trkpt lat="44.571954938181015" lon="11.71081285573054"><ele>8.0</ele><time>2026-05-03T17:26:22.001Z</time></trkpt><trkpt lat="44.57207775603695" lon="11.710698850929546"><ele>8.0</ele><time>2026-05-03T17:26:23.001Z</time></trkpt><trkpt lat="44.57220533705542" lon="11.710580424754244"><ele>7.666666666666666</ele><time>2026-05-03T17:26:24.001Z</time></trkpt><trkpt lat="44.57234106081074" lon="11.710454440144124"><ele>7.333333333333334</ele><time>2026-05-03T17:26:25.001Z</time></trkpt><trkpt lat="44.572476958339855" lon="11.710328031780232"><ele>7.0</ele><time>2026-05-03T17:26:26.001Z</time></trkpt><trkpt lat="44.572615487525134" lon="11.710198163737873"><ele>7.0</ele><time>2026-05-03T17:26:27.001Z</time></trkpt><trkpt lat="44.57274931736218" lon="11.710072701190848"><ele>7.0</ele><time>2026-05-03T17:26:28.001Z</time></trkpt><trkpt lat="44.5728819349949" lon="11.709948375076838"><ele>7.0</ele><time>2026-05-03T17:26:29.001Z</time></trkpt><trkpt lat="44.573012323335824" lon="11.709826138867621"><ele>7.0</ele><time>2026-05-03T17:26:30.001Z</time></trkpt><trkpt lat="44.57314091076455" lon="11.709706764778355"><ele>7.0</ele><time>2026-05-03T17:26:31.001Z</time></trkpt><trkpt lat="44.57327360791629" lon="11.70958363068231"><ele>7.0</ele><time>2026-05-03T17:26:32.001Z</time></trkpt><trkpt lat="44.57341089190627" lon="11.709456781924281"><ele>7.0</ele><time>2026-05-03T17:26:33.001Z</time></trkpt><trkpt lat="44.57354128705107" lon="11.70933731489526"><ele>7.0</ele><time>2026-05-03T17:26:34.001Z</time></trkpt><trkpt lat="44.57366199767735" lon="11.709226720738387"><ele>7.0</ele><time>2026-05-03T17:26:35.001Z</time></trkpt><trkpt lat="44.57377349319366" lon="11.709123720625925"><ele>7.0</ele><time>2026-05-03T17:26:36.001Z</time></trkpt><trkpt lat="44.57387765408402" lon="11.709027333877989"><ele>7.199999999999999</ele><time>2026-05-03T17:26:37.001Z</time></trkpt><trkpt lat="44.57397249084447" lon="11.708939575311643"><ele>7.3999999999999995</ele><time>2026-05-03T17:26:38.001Z</time></trkpt><trkpt lat="44.57406202448068" lon="11.708857547920177"><ele>7.6000000000000005</ele><time>2026-05-03T17:26:39.001Z</time></trkpt><trkpt lat="44.57415637599473" lon="11.708769633392532"><ele>7.800000000000001</ele><time>2026-05-03T17:26:40.001Z</time></trkpt><trkpt lat="44.574237013191556" lon="11.70865889785714"><ele>8.0</ele><time>2026-05-03T17:26:41.001Z</time></trkpt><trkpt lat="44.57431841018716" lon="11.70856693171102"><ele>8.75</ele><time>2026-05-03T17:26:42.001Z</time></trkpt><trkpt lat="44.57438377626977" lon="11.708434356632448"><ele>9.5</ele><time>2026-05-03T17:26:43.001Z</time></trkpt><trkpt lat="44.57441280985052" lon="11.70826801309348"><ele>10.25</ele><time>2026-05-03T17:26:44.001Z</time></trkpt><trkpt lat="44.574401438043424" lon="11.708088263144052"><ele>11.0</ele><time>2026-05-03T17:26:45.001Z</time></trkpt><trkpt lat="44.574372399129494" lon="11.70791846370132"><ele>11.0</ele><time>2026-05-03T17:26:46.001Z</time></trkpt><trkpt lat="44.57436488118735" lon="11.70774904558795"><ele>11.0</ele><time>2026-05-03T17:26:47.001Z</time></trkpt><trkpt lat="44.57434324820255" lon="11.707574149823593"><ele>11.0</ele><time>2026-05-03T17:26:48.001Z</time></trkpt><trkpt lat="44.574319616478874" lon="11.707383094807547"><ele>11.0</ele><time>2026-05-03T17:26:49.001Z</time></trkpt><trkpt lat="44.57429736153927" lon="11.707207914736145"><ele>11.0</ele><time>2026-05-03T17:26:50.001Z</time></trkpt><trkpt lat="44.574277426185766" lon="11.70705115564791"><ele>11.0</ele><time>2026-05-03T17:26:51.001Z</time></trkpt><trkpt lat="44.57424442855463" lon="11.70690830645502"><ele>11.0</ele><time>2026-05-03T17:26:52.001Z</time></trkpt><trkpt lat="44.574231938888126" lon="11.706780541040995"><ele>11.0</ele><time>2026-05-03T17:26:53.001Z</time></trkpt><trkpt lat="44.57421663925751" lon="11.706668050641811"><ele>11.0</ele><time>2026-05-03T17:26:54.001Z</time></trkpt><trkpt lat="44.57419980005086" lon="11.706551408304422"><ele>10.833333333333332</ele><time>2026-05-03T17:26:55.001Z</time></trkpt><trkpt lat="44.57419222176221" lon="11.70645468962706"><ele>10.666666666666666</ele><time>2026-05-03T17:26:56.001Z</time></trkpt><trkpt lat="44.57419864811995" lon="11.706305935100298"><ele>10.5</ele><time>2026-05-03T17:26:58.001Z</time></trkpt><trkpt lat="44.57425165047167" lon="11.706189606044619"><ele>10.333333333333334</ele><time>2026-05-03T17:27:00.001Z</time></trkpt><trkpt lat="44.57432575147712" lon="11.706193344623035"><ele>10.166666666666668</ele><time>2026-05-03T17:27:01.001Z</time></trkpt><trkpt lat="44.57439238283213" lon="11.70615239459573"><ele>10.0</ele><time>2026-05-03T17:27:02.001Z</time></trkpt><trkpt lat="44.57446959743388" lon="11.706135421118042"><ele>10.166666666666668</ele><time>2026-05-03T17:27:03.001Z</time></trkpt><trkpt lat="44.574536079751134" lon="11.706118896621657"><ele>10.333333333333334</ele><time>2026-05-03T17:27:04.001Z</time></trkpt><trkpt lat="44.57460086116632" lon="11.706102887553461"><ele>10.5</ele><time>2026-05-03T17:27:05.001Z</time></trkpt><trkpt lat="44.574670516271084" lon="11.70608215408997"><ele>10.666666666666666</ele><time>2026-05-03T17:27:06.001Z</time></trkpt><trkpt lat="44.5747514725716" lon="11.706062000443257"><ele>10.833333333333332</ele><time>2026-05-03T17:27:07.001Z</time></trkpt><trkpt lat="44.57481961665489" lon="11.706045154074863"><ele>11.0</ele><time>2026-05-03T17:27:08.001Z</time></trkpt><trkpt lat="44.57493620876182" lon="11.706017159522256"><ele>11.0</ele><time>2026-05-03T17:27:10.001Z</time></trkpt><trkpt lat="44.57499637612637" lon="11.705988557485599"><ele>11.0</ele><time>2026-05-03T17:27:11.001Z</time></trkpt><trkpt lat="44.57508693950106" lon="11.705845681991855"><ele>11.0</ele><time>2026-05-03T17:27:13.001Z</time></trkpt><trkpt lat="44.57505081613087" lon="11.705684596980133"><ele>11.0</ele><time>2026-05-03T17:27:14.001Z</time></trkpt><trkpt lat="44.57503175889153" lon="11.705534953501193"><ele>11.0</ele><time>2026-05-03T17:27:15.001Z</time></trkpt><trkpt lat="44.57502380792969" lon="11.705377870170494"><ele>11.0</ele><time>2026-05-03T17:27:16.001Z</time></trkpt><trkpt lat="44.57499069175384" lon="11.705250051223404"><ele>11.0</ele><time>2026-05-03T17:27:17.001Z</time></trkpt><trkpt lat="44.57498717271945" lon="11.705131353799894"><ele>11.0</ele><time>2026-05-03T17:27:18.001Z</time></trkpt><trkpt lat="44.574965903372444" lon="11.70501056334102"><ele>11.0</ele><time>2026-05-03T17:27:19.001Z</time></trkpt><trkpt lat="44.574946738155504" lon="11.704869142214735"><ele>11.0</ele><time>2026-05-03T17:27:20.002Z</time></trkpt><trkpt lat="44.57492955313266" lon="11.704730442668996"><ele>10.600000000000001</ele><time>2026-05-03T17:27:21.002Z</time></trkpt><trkpt lat="44.57491492371336" lon="11.704596635154763"><ele>10.200000000000001</ele><time>2026-05-03T17:27:22.002Z</time></trkpt><trkpt lat="44.57489727612619" lon="11.704462174493479"><ele>9.8</ele><time>2026-05-03T17:27:23.002Z</time></trkpt><trkpt lat="44.574885029627424" lon="11.704332922701447"><ele>9.4</ele><time>2026-05-03T17:27:24.002Z</time></trkpt><trkpt lat="44.57489614810876" lon="11.704207188349454"><ele>9.0</ele><time>2026-05-03T17:27:25.002Z</time></trkpt><trkpt lat="44.57488735416501" lon="11.704087545911737"><ele>8.666666666666666</ele><time>2026-05-03T17:27:26.002Z</time></trkpt><trkpt lat="44.57491193844704" lon="11.703974112405339"><ele>8.333333333333334</ele><time>2026-05-03T17:27:27.002Z</time></trkpt><trkpt lat="44.574957826421475" lon="11.703881507620073"><ele>8.0</ele><time>2026-05-03T17:27:28.002Z</time></trkpt><trkpt lat="44.575024075520396" lon="11.703811994136727"><ele>7.666666666666667</ele><time>2026-05-03T17:27:29.002Z</time></trkpt><trkpt lat="44.57510650841663" lon="11.703770058185155"><ele>7.333333333333334</ele><time>2026-05-03T17:27:30.002Z</time></trkpt><trkpt lat="44.575209063730945" lon="11.703740467197939"><ele>7.0</ele><time>2026-05-03T17:27:31.002Z</time></trkpt><trkpt lat="44.575321767723864" lon="11.703715733145058"><ele>7.0</ele><time>2026-05-03T17:27:32.002Z</time></trkpt><trkpt lat="44.57544289335166" lon="11.703684802363615"><ele>6.999999999999999</ele><time>2026-05-03T17:27:33.002Z</time></trkpt><trkpt lat="44.57556207234086" lon="11.703647537211072"><ele>6.999999999999999</ele><time>2026-05-03T17:27:34.002Z</time></trkpt><trkpt lat="44.57566544991609" lon="11.70361480760371"><ele>7.0</ele><time>2026-05-03T17:27:35.002Z</time></trkpt><trkpt lat="44.57575974861303" lon="11.703588919155694"><ele>7.0</ele><time>2026-05-03T17:27:36.002Z</time></trkpt><trkpt lat="44.57584559903922" lon="11.703567729344744"><ele>7.0</ele><time>2026-05-03T17:27:37.001Z</time></trkpt><trkpt lat="44.575924237742264" lon="11.703551989565316"><ele>6.999999999999999</ele><time>2026-05-03T17:27:38.001Z</time></trkpt><trkpt lat="44.575996630536814" lon="11.70355786717971"><ele>6.999999999999999</ele><time>2026-05-03T17:27:39.001Z</time></trkpt><trkpt lat="44.57606188853131" lon="11.703549846033793"><ele>7.0</ele><time>2026-05-03T17:27:40.001Z</time></trkpt><trkpt lat="44.576102667676565" lon="11.703344896318885"><ele>7.0</ele><time>2026-05-03T17:27:41.001Z</time></trkpt><trkpt lat="44.57612669204135" lon="11.703178293627461"><ele>7.0</ele><time>2026-05-03T17:27:42.001Z</time></trkpt><trkpt lat="44.57615160006748" lon="11.702995219806715"><ele>7.0</ele><time>2026-05-03T17:27:43.001Z</time></trkpt><trkpt lat="44.57617242002651" lon="11.702777259251182"><ele>7.0</ele><time>2026-05-03T17:27:44.001Z</time></trkpt><trkpt lat="44.576193093606186" lon="11.702549942728705"><ele>7.333333333333334</ele><time>2026-05-03T17:27:45.001Z</time></trkpt><trkpt lat="44.576212860054326" lon="11.702332077636505"><ele>7.666666666666666</ele><time>2026-05-03T17:27:46.001Z</time></trkpt><trkpt lat="44.57623292198444" lon="11.702110955775293"><ele>8.0</ele><time>2026-05-03T17:27:47.001Z</time></trkpt><trkpt lat="44.57625385869255" lon="11.701880191780972"><ele>8.0</ele><time>2026-05-03T17:27:48.001Z</time></trkpt><trkpt lat="44.5762755928705" lon="11.701635118668023"><ele>8.0</ele><time>2026-05-03T17:27:49.001Z</time></trkpt><trkpt lat="44.57629686357763" lon="11.701387982559794"><ele>8.0</ele><time>2026-05-03T17:27:50.001Z</time></trkpt><trkpt lat="44.57630405604095" lon="11.7011408852296"><ele>7.666666666666666</ele><time>2026-05-03T17:27:51.001Z</time></trkpt><trkpt lat="44.57632706861849" lon="11.70089511527296"><ele>7.333333333333334</ele><time>2026-05-03T17:27:52.001Z</time></trkpt><trkpt lat="44.57634846916388" lon="11.700643624929654"><ele>7.0</ele><time>2026-05-03T17:27:53.001Z</time></trkpt><trkpt lat="44.57637460528514" lon="11.700403485003804"><ele>7.0</ele><time>2026-05-03T17:27:54.001Z</time></trkpt><trkpt lat="44.57642432900713" lon="11.700157304628517"><ele>7.0</ele><time>2026-05-03T17:27:55.001Z</time></trkpt><trkpt lat="44.576475283682065" lon="11.699916299561334"><ele>7.0</ele><time>2026-05-03T17:27:56.001Z</time></trkpt><trkpt lat="44.57651673964568" lon="11.699654984249548"><ele>6.666666666666667</ele><time>2026-05-03T17:27:57.001Z</time></trkpt><trkpt lat="44.57658122129518" lon="11.699409169968016"><ele>6.333333333333334</ele><time>2026-05-03T17:27:58.001Z</time></trkpt><trkpt lat="44.576639144895715" lon="11.699153796592077"><ele>6.0</ele><time>2026-05-03T17:27:59.001Z</time></trkpt><trkpt lat="44.576692680787836" lon="11.69890982520981"><ele>6.0</ele><time>2026-05-03T17:28:00.001Z</time></trkpt><trkpt lat="44.576746705738806" lon="11.698657849584098"><ele>6.0</ele><time>2026-05-03T17:28:01.001Z</time></trkpt><trkpt lat="44.576799768127486" lon="11.698424086334843"><ele>6.0</ele><time>2026-05-03T17:28:02.001Z</time></trkpt><trkpt lat="44.576851779533165" lon="11.698185037356287"><ele>6.333333333333334</ele><time>2026-05-03T17:28:03.001Z</time></trkpt><trkpt lat="44.576904407182354" lon="11.697954163820667"><ele>6.666666666666667</ele><time>2026-05-03T17:28:04.001Z</time></trkpt><trkpt lat="44.57695581291522" lon="11.697719274775071"><ele>7.0</ele><time>2026-05-03T17:28:05.001Z</time></trkpt><trkpt lat="44.57700793387884" lon="11.697479650700156"><ele>7.0</ele><time>2026-05-03T17:28:06.001Z</time></trkpt><trkpt lat="44.577076684882186" lon="11.697245328141552"><ele>7.0</ele><time>2026-05-03T17:28:07.001Z</time></trkpt><trkpt lat="44.577113310392235" lon="11.69701007321063"><ele>7.0</ele><time>2026-05-03T17:28:08.001Z</time></trkpt><trkpt lat="44.57717820140245" lon="11.696799808430846"><ele>7.0</ele><time>2026-05-03T17:28:09.001Z</time></trkpt><trkpt lat="44.577226127172295" lon="11.69658887599166"><ele>7.0</ele><time>2026-05-03T17:28:10.001Z</time></trkpt><trkpt lat="44.577277153195936" lon="11.696364716746755"><ele>7.0</ele><time>2026-05-03T17:28:11.001Z</time></trkpt><trkpt lat="44.57732881868418" lon="11.696137748364015"><ele>6.666666666666667</ele><time>2026-05-03T17:28:12.001Z</time></trkpt><trkpt lat="44.57738002043221" lon="11.695912817222798"><ele>6.333333333333334</ele><time>2026-05-03T17:28:13.001Z</time></trkpt><trkpt lat="44.57742911111708" lon="11.695697159963332"><ele>6.0</ele><time>2026-05-03T17:28:14.001Z</time></trkpt><trkpt lat="44.57747744080996" lon="11.6954848458168"><ele>6.0</ele><time>2026-05-03T17:28:15.001Z</time></trkpt><trkpt lat="44.577526347672304" lon="11.69526999617009"><ele>6.0</ele><time>2026-05-03T17:28:16.001Z</time></trkpt><trkpt lat="44.57757385458127" lon="11.695061296570435"><ele>6.0</ele><time>2026-05-03T17:28:17.001Z</time></trkpt><trkpt lat="44.57761933566309" lon="11.694861496483327"><ele>6.0</ele><time>2026-05-03T17:28:18.001Z</time></trkpt><trkpt lat="44.5776642019408" lon="11.694663615911466"><ele>6.0</ele><time>2026-05-03T17:28:19.001Z</time></trkpt><trkpt lat="44.577709479057056" lon="11.69446295477328"><ele>6.0</ele><time>2026-05-03T17:28:20.001Z</time></trkpt><trkpt lat="44.5777579645835" lon="11.69424807420187"><ele>6.0</ele><time>2026-05-03T17:28:21.001Z</time></trkpt><trkpt lat="44.5778062945252" lon="11.694033883278868"><ele>6.0</ele><time>2026-05-03T17:28:22.001Z</time></trkpt><trkpt lat="44.57785558796865" lon="11.693815422190218"><ele>6.0</ele><time>2026-05-03T17:28:23.001Z</time></trkpt><trkpt lat="44.57790444098254" lon="11.693598913113018"><ele>6.0</ele><time>2026-05-03T17:28:24.001Z</time></trkpt><trkpt lat="44.57795288722971" lon="11.693384206746115"><ele>6.0</ele><time>2026-05-03T17:28:25.001Z</time></trkpt><trkpt lat="44.578000898025806" lon="11.693173221197412"><ele>6.0</ele><time>2026-05-03T17:28:26.001Z</time></trkpt><trkpt lat="44.578048189239716" lon="11.69296542713322"><ele>6.0</ele><time>2026-05-03T17:28:27.001Z</time></trkpt><trkpt lat="44.57809661977747" lon="11.692752626999539"><ele>6.0</ele><time>2026-05-03T17:28:28.001Z</time></trkpt><trkpt lat="44.578143604662614" lon="11.692546178964792"><ele>6.0</ele><time>2026-05-03T17:28:29.001Z</time></trkpt><trkpt lat="44.57819155500463" lon="11.692333960598289"><ele>6.0</ele><time>2026-05-03T17:28:30.001Z</time></trkpt><trkpt lat="44.578240171625055" lon="11.692117231888368"><ele>6.0</ele><time>2026-05-03T17:28:31.001Z</time></trkpt><trkpt lat="44.57828735208936" lon="11.691906905457683"><ele>6.0</ele><time>2026-05-03T17:28:32.001Z</time></trkpt><trkpt lat="44.578335640985316" lon="11.691691637722162"><ele>6.0</ele><time>2026-05-03T17:28:33.001Z</time></trkpt><trkpt lat="44.578383265997104" lon="11.691479329501373"><ele>6.0</ele><time>2026-05-03T17:28:34.001Z</time></trkpt><trkpt lat="44.578429657687245" lon="11.691272519378423"><ele>6.0</ele><time>2026-05-03T17:28:35.001Z</time></trkpt><trkpt lat="44.578477136483805" lon="11.691065654933741"><ele>6.0</ele><time>2026-05-03T17:28:36.001Z</time></trkpt><trkpt lat="44.57852499884156" lon="11.690859574968423"><ele>6.0</ele><time>2026-05-03T17:28:37.001Z</time></trkpt><trkpt lat="44.57857380797064" lon="11.690649418459769"><ele>6.0</ele><time>2026-05-03T17:28:38.001Z</time></trkpt><trkpt lat="44.57862135547173" lon="11.690441334803854"><ele>6.333333333333334</ele><time>2026-05-03T17:28:39.001Z</time></trkpt><trkpt lat="44.57866784213814" lon="11.690232902587296"><ele>6.666666666666667</ele><time>2026-05-03T17:28:40.001Z</time></trkpt><trkpt lat="44.5787128727862" lon="11.690030973116265"><ele>7.0</ele><time>2026-05-03T17:28:41.001Z</time></trkpt><trkpt lat="44.57876084676446" lon="11.689815844953094"><ele>7.0</ele><time>2026-05-03T17:28:42.001Z</time></trkpt><trkpt lat="44.57880910046136" lon="11.689599462477073"><ele>7.0</ele><time>2026-05-03T17:28:43.001Z</time></trkpt><trkpt lat="44.57885915658154" lon="11.689375634640164"><ele>7.0</ele><time>2026-05-03T17:28:44.001Z</time></trkpt><trkpt lat="44.57889820152538" lon="11.689139614189811"><ele>7.333333333333334</ele><time>2026-05-03T17:28:45.001Z</time></trkpt><trkpt lat="44.57895346914653" lon="11.688901584986757"><ele>7.666666666666666</ele><time>2026-05-03T17:28:46.001Z</time></trkpt><trkpt lat="44.5790047211381" lon="11.688662689913466"><ele>8.0</ele><time>2026-05-03T17:28:47.001Z</time></trkpt><trkpt lat="44.579059410024726" lon="11.688415571133234"><ele>8.0</ele><time>2026-05-03T17:28:48.001Z</time></trkpt><trkpt lat="44.579115986743766" lon="11.688165970124183"><ele>8.0</ele><time>2026-05-03T17:28:49.001Z</time></trkpt><trkpt lat="44.579173816569245" lon="11.68791106791208"><ele>8.0</ele><time>2026-05-03T17:28:50.001Z</time></trkpt><trkpt lat="44.579233110655245" lon="11.687648421026433"><ele>8.0</ele><time>2026-05-03T17:28:51.001Z</time></trkpt><trkpt lat="44.5792922618414" lon="11.687375975817874"><ele>8.0</ele><time>2026-05-03T17:28:52.001Z</time></trkpt><trkpt lat="44.57936825484173" lon="11.68710888345899"><ele>8.0</ele><time>2026-05-03T17:28:53.001Z</time></trkpt><trkpt lat="44.57942874188326" lon="11.68684399841772"><ele>7.666666666666666</ele><time>2026-05-03T17:28:54.001Z</time></trkpt><trkpt lat="44.57948974138966" lon="11.68657884173786"><ele>7.333333333333334</ele><time>2026-05-03T17:28:55.001Z</time></trkpt><trkpt lat="44.57954945046821" lon="11.686317125884115"><ele>7.0</ele><time>2026-05-03T17:28:56.001Z</time></trkpt><trkpt lat="44.57960897748534" lon="11.686053055239205"><ele>7.0</ele><time>2026-05-03T17:28:57.001Z</time></trkpt><trkpt lat="44.579669069329015" lon="11.685786458462513"><ele>7.0</ele><time>2026-05-03T17:28:58.001Z</time></trkpt><trkpt lat="44.57973181624099" lon="11.685505915340563"><ele>7.0</ele><time>2026-05-03T17:28:59.001Z</time></trkpt><trkpt lat="44.57979471239527" lon="11.685224704226808"><ele>6.666666666666667</ele><time>2026-05-03T17:29:00.001Z</time></trkpt><trkpt lat="44.57985782835481" lon="11.684942510748272"><ele>6.333333333333334</ele><time>2026-05-03T17:29:01.001Z</time></trkpt><trkpt lat="44.57992269998267" lon="11.684652467464824"><ele>6.0</ele><time>2026-05-03T17:29:02.001Z</time></trkpt><trkpt lat="44.57998377043423" lon="11.684379419111469"><ele>6.666666666666666</ele><time>2026-05-03T17:29:03.001Z</time></trkpt><trkpt lat="44.58004589352004" lon="11.684101665305956"><ele>7.333333333333333</ele><time>2026-05-03T17:29:04.001Z</time></trkpt><trkpt lat="44.580108777591995" lon="11.683820199094498"><ele>8.0</ele><time>2026-05-03T17:29:05.001Z</time></trkpt><trkpt lat="44.580172393064046" lon="11.683535534727152"><ele>8.333333333333332</ele><time>2026-05-03T17:29:06.001Z</time></trkpt><trkpt lat="44.58023560476723" lon="11.683252677128424"><ele>8.666666666666666</ele><time>2026-05-03T17:29:07.001Z</time></trkpt><trkpt lat="44.58030126584171" lon="11.682963550123807"><ele>9.0</ele><time>2026-05-03T17:29:08.001Z</time></trkpt><trkpt lat="44.58036708005061" lon="11.6826740678924"><ele>8.0</ele><time>2026-05-03T17:29:09.001Z</time></trkpt><trkpt lat="44.5804320345605" lon="11.682388367025164"><ele>7.0</ele><time>2026-05-03T17:29:10.001Z</time></trkpt><trkpt lat="44.58049709691583" lon="11.682102191797652"><ele>6.0</ele><time>2026-05-03T17:29:11.001Z</time></trkpt><trkpt lat="44.58055996994589" lon="11.681824311718188"><ele>6.0</ele><time>2026-05-03T17:29:12.001Z</time></trkpt><trkpt lat="44.58062535118018" lon="11.68153744177868"><ele>6.0</ele><time>2026-05-03T17:29:13.001Z</time></trkpt><trkpt lat="44.58068765149925" lon="11.681264315026446"><ele>6.0</ele><time>2026-05-03T17:29:14.001Z</time></trkpt><trkpt lat="44.58074877705395" lon="11.680996297807175"><ele>6.333333333333334</ele><time>2026-05-03T17:29:15.001Z</time></trkpt><trkpt lat="44.580809713593354" lon="11.680725644584784"><ele>6.666666666666667</ele><time>2026-05-03T17:29:16.001Z</time></trkpt><trkpt lat="44.58086991230738" lon="11.680458268478738"><ele>7.0</ele><time>2026-05-03T17:29:17.001Z</time></trkpt><trkpt lat="44.58093090152277" lon="11.680188080704951"><ele>7.0</ele><time>2026-05-03T17:29:18.001Z</time></trkpt><trkpt lat="44.58099118175723" lon="11.679921049600356"><ele>7.0</ele><time>2026-05-03T17:29:19.001Z</time></trkpt><trkpt lat="44.581048748369206" lon="11.679666039364596"><ele>7.0</ele><time>2026-05-03T17:29:20.001Z</time></trkpt><trkpt lat="44.58110425338364" lon="11.679421338263538"><ele>7.0</ele><time>2026-05-03T17:29:21.001Z</time></trkpt><trkpt lat="44.58116508568395" lon="11.679156049811033"><ele>7.0</ele><time>2026-05-03T17:29:22.001Z</time></trkpt><trkpt lat="44.58122600186476" lon="11.678886800205285"><ele>7.0</ele><time>2026-05-03T17:29:23.001Z</time></trkpt><trkpt lat="44.58128566282363" lon="11.678620066618342"><ele>7.666666666666667</ele><time>2026-05-03T17:29:24.001Z</time></trkpt><trkpt lat="44.581342740015295" lon="11.6783649985177"><ele>8.333333333333334</ele><time>2026-05-03T17:29:25.001Z</time></trkpt><trkpt lat="44.58140165544464" lon="11.678101873703717"><ele>9.0</ele><time>2026-05-03T17:29:26.001Z</time></trkpt><trkpt lat="44.58146130990652" lon="11.677835448259344"><ele>8.666666666666666</ele><time>2026-05-03T17:29:27.001Z</time></trkpt><trkpt lat="44.581522496416206" lon="11.677563765062708"><ele>8.333333333333332</ele><time>2026-05-03T17:29:28.001Z</time></trkpt><trkpt lat="44.58158378442528" lon="11.677293864511192"><ele>8.0</ele><time>2026-05-03T17:29:29.001Z</time></trkpt><trkpt lat="44.58164521720352" lon="11.677023303357682"><ele>8.0</ele><time>2026-05-03T17:29:30.001Z</time></trkpt><trkpt lat="44.58170783011145" lon="11.676746189380575"><ele>8.0</ele><time>2026-05-03T17:29:31.001Z</time></trkpt><trkpt lat="44.58176767612831" lon="11.676481321158972"><ele>8.0</ele><time>2026-05-03T17:29:32.002Z</time></trkpt><trkpt lat="44.58183084521653" lon="11.676201745639732"><ele>7.666666666666666</ele><time>2026-05-03T17:29:33.002Z</time></trkpt><trkpt lat="44.58189446004196" lon="11.675920197316886"><ele>7.333333333333334</ele><time>2026-05-03T17:29:34.002Z</time></trkpt><trkpt lat="44.581960181502076" lon="11.675629325412222"><ele>7.0</ele><time>2026-05-03T17:29:35.002Z</time></trkpt><trkpt lat="44.582025926613206" lon="11.675338348839928"><ele>6.333333333333334</ele><time>2026-05-03T17:29:36.002Z</time></trkpt><trkpt lat="44.58209233810412" lon="11.67504442297811"><ele>5.666666666666667</ele><time>2026-05-03T17:29:37.002Z</time></trkpt><trkpt lat="44.58215941417129" lon="11.674747555784323"><ele>5.0</ele><time>2026-05-03T17:29:38.002Z</time></trkpt><trkpt lat="44.58222665340997" lon="11.674449966474056"><ele>5.333333333333334</ele><time>2026-05-03T17:29:39.002Z</time></trkpt><trkpt lat="44.5822935949708" lon="11.674153694461655"><ele>5.666666666666667</ele><time>2026-05-03T17:29:40.002Z</time></trkpt><trkpt lat="44.58235854909892" lon="11.673864282444862"><ele>6.0</ele><time>2026-05-03T17:29:41.002Z</time></trkpt><trkpt lat="44.58242565099288" lon="11.673565405986741"><ele>6.0</ele><time>2026-05-03T17:29:42.002Z</time></trkpt><trkpt lat="44.5824922219886" lon="11.673275661445466"><ele>6.0</ele><time>2026-05-03T17:29:43Z</time></trkpt><trkpt lat="44.582557143145856" lon="11.672985073783376"><ele>6.0</ele><time>2026-05-03T17:29:44Z</time></trkpt><trkpt lat="44.582621370613765" lon="11.672697591077814"><ele>6.666666666666666</ele><time>2026-05-03T17:29:45Z</time></trkpt><trkpt lat="44.58268585161743" lon="11.672408438689521"><ele>7.333333333333333</ele><time>2026-05-03T17:29:46Z</time></trkpt><trkpt lat="44.58275011217988" lon="11.672121767691356"><ele>8.0</ele><time>2026-05-03T17:29:47Z</time></trkpt><trkpt lat="44.582817277187374" lon="11.671826723099961"><ele>8.666666666666666</ele><time>2026-05-03T17:29:48Z</time></trkpt><trkpt lat="44.582883328061286" lon="11.671536572437933"><ele>9.333333333333334</ele><time>2026-05-03T17:29:49Z</time></trkpt><trkpt lat="44.58295093631786" lon="11.671240975241009"><ele>10.0</ele><time>2026-05-03T17:29:50Z</time></trkpt><trkpt lat="44.583017252297516" lon="11.670947882200691"><ele>10.0</ele><time>2026-05-03T17:29:51Z</time></trkpt><trkpt lat="44.58308408643262" lon="11.67065249908528"><ele>10.0</ele><time>2026-05-03T17:29:52Z</time></trkpt><trkpt lat="44.58315165176535" lon="11.670353884327621"><ele>10.0</ele><time>2026-05-03T17:29:53Z</time></trkpt><trkpt lat="44.58321906919812" lon="11.670055923246357"><ele>9.333333333333334</ele><time>2026-05-03T17:29:54Z</time></trkpt><trkpt lat="44.58328495621148" lon="11.669764726058803"><ele>8.666666666666666</ele><time>2026-05-03T17:29:55Z</time></trkpt><trkpt lat="44.583353762214905" lon="11.669460627985352"><ele>8.0</ele><time>2026-05-03T17:29:56Z</time></trkpt><trkpt lat="44.583420625771396" lon="11.669165114858759"><ele>7.666666666666666</ele><time>2026-05-03T17:29:57Z</time></trkpt><trkpt lat="44.58348794183329" lon="11.668869551683068"><ele>7.333333333333334</ele><time>2026-05-03T17:29:58Z</time></trkpt><trkpt lat="44.583555519888094" lon="11.668575053225846"><ele>7.0</ele><time>2026-05-03T17:29:59Z</time></trkpt><trkpt lat="44.583621955330834" lon="11.668285534803791"><ele>7.333333333333334</ele><time>2026-05-03T17:30:00Z</time></trkpt><trkpt lat="44.583687739703116" lon="11.667998852832522"><ele>7.666666666666666</ele><time>2026-05-03T17:30:01Z</time></trkpt><trkpt lat="44.58375351323795" lon="11.667712218313588"><ele>8.0</ele><time>2026-05-03T17:30:02Z</time></trkpt><trkpt lat="44.58381663145233" lon="11.667437156080183"><ele>8.0</ele><time>2026-05-03T17:30:03Z</time></trkpt><trkpt lat="44.58387816500926" lon="11.667169002521911"><ele>8.0</ele><time>2026-05-03T17:30:04Z</time></trkpt><trkpt lat="44.58393951192845" lon="11.666901662302617"><ele>8.0</ele><time>2026-05-03T17:30:05Z</time></trkpt><trkpt lat="44.58399647431737" lon="11.66664746310047"><ele>8.0</ele><time>2026-05-03T17:30:06Z</time></trkpt><trkpt lat="44.58403454554308" lon="11.666369930430847"><ele>8.0</ele><time>2026-05-03T17:30:07Z</time></trkpt><trkpt lat="44.58409150284262" lon="11.666109827210395"><ele>8.0</ele><time>2026-05-03T17:30:08Z</time></trkpt><trkpt lat="44.58415117466249" lon="11.665861338057526"><ele>8.0</ele><time>2026-05-03T17:30:09Z</time></trkpt><trkpt lat="44.58420745616375" lon="11.66562324166961"><ele>8.0</ele><time>2026-05-03T17:30:10Z</time></trkpt><trkpt lat="44.584258762046865" lon="11.665382316136881"><ele>8.0</ele><time>2026-05-03T17:30:11Z</time></trkpt><trkpt lat="44.58430774097892" lon="11.66515951642907"><ele>8.0</ele><time>2026-05-03T17:30:12Z</time></trkpt><trkpt lat="44.58435419132591" lon="11.66494624403518"><ele>8.0</ele><time>2026-05-03T17:30:13Z</time></trkpt><trkpt lat="44.58439777437605" lon="11.664754449335316"><ele>8.0</ele><time>2026-05-03T17:30:14Z</time></trkpt><trkpt lat="44.58444114905092" lon="11.664573074207679"><ele>8.0</ele><time>2026-05-03T17:30:15Z</time></trkpt><trkpt lat="44.58448085373016" lon="11.664402818028732"><ele>8.200000000000001</ele><time>2026-05-03T17:30:16Z</time></trkpt><trkpt lat="44.58451872077331" lon="11.66424969434909"><ele>8.4</ele><time>2026-05-03T17:30:17Z</time></trkpt><trkpt lat="44.584550251598486" lon="11.664107041405229"><ele>8.600000000000001</ele><time>2026-05-03T17:30:18Z</time></trkpt><trkpt lat="44.58457585293218" lon="11.66397524908116"><ele>8.8</ele><time>2026-05-03T17:30:19Z</time></trkpt><trkpt lat="44.58459587042383" lon="11.663855419997734"><ele>9.0</ele><time>2026-05-03T17:30:20Z</time></trkpt><trkpt lat="44.58461986939431" lon="11.663757360016879"><ele>9.0</ele><time>2026-05-03T17:30:21Z</time></trkpt><trkpt lat="44.58466967658979" lon="11.66368978717571"><ele>9.0</ele><time>2026-05-03T17:30:22Z</time></trkpt><trkpt lat="44.58475056688317" lon="11.663665871634636"><ele>9.0</ele><time>2026-05-03T17:30:23.001Z</time></trkpt><trkpt lat="44.58484669401082" lon="11.663715491220598"><ele>9.0</ele><time>2026-05-03T17:30:24.001Z</time></trkpt><trkpt lat="44.58496234058347" lon="11.663783944544765"><ele>9.0</ele><time>2026-05-03T17:30:25.001Z</time></trkpt><trkpt lat="44.58510378577832" lon="11.663855606727045"><ele>9.0</ele><time>2026-05-03T17:30:26.001Z</time></trkpt><trkpt lat="44.585271898120425" lon="11.663935840508458"><ele>9.0</ele><time>2026-05-03T17:30:27.001Z</time></trkpt><trkpt lat="44.58544155249623" lon="11.66402137473734"><ele>9.0</ele><time>2026-05-03T17:30:28.001Z</time></trkpt><trkpt lat="44.585612129955706" lon="11.66410469145569"><ele>9.0</ele><time>2026-05-03T17:30:29.001Z</time></trkpt><trkpt lat="44.58579695210871" lon="11.664193490953886"><ele>9.0</ele><time>2026-05-03T17:30:30.001Z</time></trkpt><trkpt lat="44.58600206050484" lon="11.66428719555268"><ele>9.0</ele><time>2026-05-03T17:30:31.001Z</time></trkpt><trkpt lat="44.58622603496441" lon="11.664389673134792"><ele>9.0</ele><time>2026-05-03T17:30:32.001Z</time></trkpt><trkpt lat="44.58644137603157" lon="11.664491951345074"><ele>9.0</ele><time>2026-05-03T17:30:33.001Z</time></trkpt><trkpt lat="44.586657056494474" lon="11.6645925757993"><ele>9.0</ele><time>2026-05-03T17:30:34.001Z</time></trkpt><trkpt lat="44.58688103465637" lon="11.664695720585005"><ele>9.0</ele><time>2026-05-03T17:30:35.001Z</time></trkpt><trkpt lat="44.587106631779" lon="11.664799772327006"><ele>9.0</ele><time>2026-05-03T17:30:36.001Z</time></trkpt><trkpt lat="44.587328834847966" lon="11.664903625332913"><ele>9.0</ele><time>2026-05-03T17:30:37.001Z</time></trkpt><trkpt lat="44.58754422275315" lon="11.66500378913942"><ele>9.0</ele><time>2026-05-03T17:30:38.001Z</time></trkpt><trkpt lat="44.58775043809165" lon="11.665102581897726"><ele>9.0</ele><time>2026-05-03T17:30:39.001Z</time></trkpt><trkpt lat="44.58794641336308" lon="11.665195751015464"><ele>9.0</ele><time>2026-05-03T17:30:40.001Z</time></trkpt><trkpt lat="44.58812820290228" lon="11.665281131134098"><ele>9.0</ele><time>2026-05-03T17:30:41.001Z</time></trkpt><trkpt lat="44.588309014453884" lon="11.665365972188109"><ele>9.0</ele><time>2026-05-03T17:30:42.001Z</time></trkpt><trkpt lat="44.58848896254746" lon="11.665452274192948"><ele>9.0</ele><time>2026-05-03T17:30:43.001Z</time></trkpt><trkpt lat="44.58866697644862" lon="11.66553584421937"><ele>8.666666666666666</ele><time>2026-05-03T17:30:44.001Z</time></trkpt><trkpt lat="44.5888514008146" lon="11.665619147825211"><ele>8.333333333333332</ele><time>2026-05-03T17:30:45.001Z</time></trkpt><trkpt lat="44.58903055945788" lon="11.665701420832162"><ele>8.0</ele><time>2026-05-03T17:30:46.001Z</time></trkpt><trkpt lat="44.58921031597668" lon="11.66578226694351"><ele>8.0</ele><time>2026-05-03T17:30:47.001Z</time></trkpt><trkpt lat="44.58938682496847" lon="11.665861813416617"><ele>8.0</ele><time>2026-05-03T17:30:48.001Z</time></trkpt><trkpt lat="44.589568419446884" lon="11.665946052425163"><ele>8.0</ele><time>2026-05-03T17:30:49.001Z</time></trkpt><trkpt lat="44.58974921254622" lon="11.666033714312851"><ele>8.0</ele><time>2026-05-03T17:30:50.001Z</time></trkpt><trkpt lat="44.58992752202547" lon="11.666120818984275"><ele>8.0</ele><time>2026-05-03T17:30:51.001Z</time></trkpt><trkpt lat="44.59010827428212" lon="11.666205850367167"><ele>8.0</ele><time>2026-05-03T17:30:52.001Z</time></trkpt><trkpt lat="44.590290832611444" lon="11.666290760607534"><ele>8.0</ele><time>2026-05-03T17:30:53.001Z</time></trkpt><trkpt lat="44.59047536908737" lon="11.666373829872713"><ele>8.0</ele><time>2026-05-03T17:30:54.001Z</time></trkpt><trkpt lat="44.59065938599202" lon="11.666457275234979"><ele>8.0</ele><time>2026-05-03T17:30:55.001Z</time></trkpt><trkpt lat="44.590847164582726" lon="11.666546269066211"><ele>8.0</ele><time>2026-05-03T17:30:56.001Z</time></trkpt><trkpt lat="44.59103827549353" lon="11.666631311884228"><ele>8.0</ele><time>2026-05-03T17:30:57.001Z</time></trkpt><trkpt lat="44.591236514101" lon="11.666714153797727"><ele>8.0</ele><time>2026-05-03T17:30:58.001Z</time></trkpt><trkpt lat="44.59143306087654" lon="11.666790534984699"><ele>8.0</ele><time>2026-05-03T17:30:59.001Z</time></trkpt><trkpt lat="44.591633313095215" lon="11.666867346732115"><ele>8.0</ele><time>2026-05-03T17:31:00.001Z</time></trkpt><trkpt lat="44.5918314411516" lon="11.666945889330838"><ele>8.0</ele><time>2026-05-03T17:31:01.001Z</time></trkpt><trkpt lat="44.592028951292136" lon="11.667022393376666"><ele>7.666666666666666</ele><time>2026-05-03T17:31:02.001Z</time></trkpt><trkpt lat="44.592234108692026" lon="11.667097942315586"><ele>7.333333333333334</ele><time>2026-05-03T17:31:03.001Z</time></trkpt><trkpt lat="44.59243399154166" lon="11.667173907948746"><ele>7.0</ele><time>2026-05-03T17:31:04.001Z</time></trkpt><trkpt lat="44.59263639489601" lon="11.667246742452333"><ele>7.0</ele><time>2026-05-03T17:31:05.001Z</time></trkpt><trkpt lat="44.59283495655193" lon="11.667322382700108"><ele>7.0</ele><time>2026-05-03T17:31:06.001Z</time></trkpt><trkpt lat="44.59303312083963" lon="11.667398441127514"><ele>7.0</ele><time>2026-05-03T17:31:07.001Z</time></trkpt><trkpt lat="44.593228628313696" lon="11.667474725241599"><ele>7.666666666666667</ele><time>2026-05-03T17:31:08.001Z</time></trkpt><trkpt lat="44.59342372089262" lon="11.667550255439293"><ele>8.333333333333334</ele><time>2026-05-03T17:31:09.001Z</time></trkpt><trkpt lat="44.593618845236726" lon="11.667624052427863"><ele>9.0</ele><time>2026-05-03T17:31:10.001Z</time></trkpt><trkpt lat="44.59381205362173" lon="11.667698582643302"><ele>9.0</ele><time>2026-05-03T17:31:11.001Z</time></trkpt><trkpt lat="44.594010890518916" lon="11.66777329500618"><ele>9.0</ele><time>2026-05-03T17:31:12.001Z</time></trkpt><trkpt lat="44.59420569637446" lon="11.667871889862978"><ele>9.0</ele><time>2026-05-03T17:31:13.001Z</time></trkpt><trkpt lat="44.59440335725202" lon="11.667949069483758"><ele>8.0</ele><time>2026-05-03T17:31:14.001Z</time></trkpt><trkpt lat="44.5945965611043" lon="11.668023941696315"><ele>7.0</ele><time>2026-05-03T17:31:15.001Z</time></trkpt><trkpt lat="44.59478997574557" lon="11.668098835908065"><ele>6.0</ele><time>2026-05-03T17:31:16.001Z</time></trkpt><trkpt lat="44.59498244246316" lon="11.668172933098766"><ele>6.0</ele><time>2026-05-03T17:31:17.001Z</time></trkpt><trkpt lat="44.59517720175534" lon="11.66822418836617"><ele>6.0</ele><time>2026-05-03T17:31:18.001Z</time></trkpt><trkpt lat="44.595369820065244" lon="11.668298211176635"><ele>6.0</ele><time>2026-05-03T17:31:19.001Z</time></trkpt><trkpt lat="44.59555865106353" lon="11.66837027181859"><ele>6.333333333333334</ele><time>2026-05-03T17:31:20.001Z</time></trkpt><trkpt lat="44.595746917973024" lon="11.66844318995085"><ele>6.666666666666667</ele><time>2026-05-03T17:31:21.001Z</time></trkpt><trkpt lat="44.59593252000221" lon="11.66852154495106"><ele>7.0</ele><time>2026-05-03T17:31:22.001Z</time></trkpt><trkpt lat="44.596127787169365" lon="11.668596294335465"><ele>6.666666666666667</ele><time>2026-05-03T17:31:23.001Z</time></trkpt><trkpt lat="44.596315608122595" lon="11.668666736898574"><ele>6.333333333333334</ele><time>2026-05-03T17:31:24.001Z</time></trkpt><trkpt lat="44.59650130859803" lon="11.66876098017244"><ele>6.0</ele><time>2026-05-03T17:31:25.001Z</time></trkpt><trkpt lat="44.59669204669759" lon="11.668835851424518"><ele>6.0</ele><time>2026-05-03T17:31:26.001Z</time></trkpt><trkpt lat="44.5968779845627" lon="11.668908838414845"><ele>6.0</ele><time>2026-05-03T17:31:27.001Z</time></trkpt><trkpt lat="44.59706720077274" lon="11.668983112276596"><ele>6.0</ele><time>2026-05-03T17:31:28.001Z</time></trkpt><trkpt lat="44.597258214936616" lon="11.66905809189322"><ele>6.0</ele><time>2026-05-03T17:31:29.001Z</time></trkpt><trkpt lat="44.59743628875918" lon="11.669127991983638"><ele>6.0</ele><time>2026-05-03T17:31:30.001Z</time></trkpt><trkpt lat="44.597619789836074" lon="11.66917742638499"><ele>6.0</ele><time>2026-05-03T17:31:31.001Z</time></trkpt><trkpt lat="44.59780391806122" lon="11.669247822839061"><ele>6.333333333333334</ele><time>2026-05-03T17:31:32.001Z</time></trkpt><trkpt lat="44.59798021390418" lon="11.669318366709765"><ele>6.666666666666667</ele><time>2026-05-03T17:31:33.001Z</time></trkpt><trkpt lat="44.59815907166905" lon="11.669388140285907"><ele>7.0</ele><time>2026-05-03T17:31:34.001Z</time></trkpt><trkpt lat="44.59833271703488" lon="11.669455681538487"><ele>7.0</ele><time>2026-05-03T17:31:35.001Z</time></trkpt><trkpt lat="44.59850169074978" lon="11.66951557255411"><ele>7.0</ele><time>2026-05-03T17:31:36.001Z</time></trkpt><trkpt lat="44.598672913616355" lon="11.669560312993768"><ele>7.0</ele><time>2026-05-03T17:31:37.001Z</time></trkpt><trkpt lat="44.598844833548505" lon="11.669580116419338"><ele>7.0</ele><time>2026-05-03T17:31:38.001Z</time></trkpt><trkpt lat="44.59902272308228" lon="11.669581162463658"><ele>7.0</ele><time>2026-05-03T17:31:39.001Z</time></trkpt><trkpt lat="44.599194115887464" lon="11.669557853769541"><ele>7.0</ele><time>2026-05-03T17:31:40.001Z</time></trkpt><trkpt lat="44.599373460727996" lon="11.669510577659869"><ele>7.333333333333334</ele><time>2026-05-03T17:31:41.001Z</time></trkpt><trkpt lat="44.59955814545843" lon="11.669445019431594"><ele>7.666666666666666</ele><time>2026-05-03T17:31:42.001Z</time></trkpt><trkpt lat="44.5997449144914" lon="11.669374649775397"><ele>8.0</ele><time>2026-05-03T17:31:43.001Z</time></trkpt><trkpt lat="44.59992458051259" lon="11.669309584616283"><ele>7.5</ele><time>2026-05-03T17:31:44.001Z</time></trkpt><trkpt lat="44.60009225650108" lon="11.669277513919784"><ele>7.0</ele><time>2026-05-03T17:31:45.001Z</time></trkpt><trkpt lat="44.60023905664074" lon="11.669228647464294"><ele>6.5</ele><time>2026-05-03T17:31:46.001Z</time></trkpt><trkpt lat="44.600359868488944" lon="11.669188267755706"><ele>6.0</ele><time>2026-05-03T17:31:47.001Z</time></trkpt><trkpt lat="44.60045377051281" lon="11.669136638412702"><ele>5.75</ele><time>2026-05-03T17:31:48.001Z</time></trkpt><trkpt lat="44.60054683968375" lon="11.669107948043356"><ele>5.5</ele><time>2026-05-03T17:31:49Z</time></trkpt><trkpt lat="44.60064947790672" lon="11.669070162450026"><ele>5.25</ele><time>2026-05-03T17:31:50Z</time></trkpt><trkpt lat="44.60077450571552" lon="11.66902509823466"><ele>5.0</ele><time>2026-05-03T17:31:51Z</time></trkpt><trkpt lat="44.60091711141274" lon="11.668976497749552"><ele>5.0</ele><time>2026-05-03T17:31:52Z</time></trkpt><trkpt lat="44.60106494281251" lon="11.668929562926746"><ele>5.0</ele><time>2026-05-03T17:31:53Z</time></trkpt><trkpt lat="44.601224707532246" lon="11.668875914911554"><ele>5.0</ele><time>2026-05-03T17:31:54Z</time></trkpt><trkpt lat="44.601403231243026" lon="11.668816011099233"><ele>5.666666666666667</ele><time>2026-05-03T17:31:55Z</time></trkpt><trkpt lat="44.601572373351416" lon="11.668759831987776"><ele>6.333333333333334</ele><time>2026-05-03T17:31:56Z</time></trkpt><trkpt lat="44.60175038765679" lon="11.668704599876191"><ele>7.0</ele><time>2026-05-03T17:31:57Z</time></trkpt><trkpt lat="44.601928318634364" lon="11.668647697941886"><ele>6.666666666666667</ele><time>2026-05-03T17:31:58Z</time></trkpt><trkpt lat="44.60211184892404" lon="11.668591696604913"><ele>6.333333333333334</ele><time>2026-05-03T17:31:59Z</time></trkpt><trkpt lat="44.602286309152824" lon="11.668533321094305"><ele>6.0</ele><time>2026-05-03T17:32:00Z</time></trkpt><trkpt lat="44.60245557041773" lon="11.668472188424827"><ele>6.0</ele><time>2026-05-03T17:32:01Z</time></trkpt><trkpt lat="44.602629049180194" lon="11.66841724141853"><ele>6.0</ele><time>2026-05-03T17:32:02Z</time></trkpt><trkpt lat="44.60280068952878" lon="11.66836626148568"><ele>6.0</ele><time>2026-05-03T17:32:03Z</time></trkpt><trkpt lat="44.6029750144448" lon="11.66830898122796"><ele>5.666666666666667</ele><time>2026-05-03T17:32:04Z</time></trkpt><trkpt lat="44.603153108810716" lon="11.668247792956082"><ele>5.333333333333334</ele><time>2026-05-03T17:32:05Z</time></trkpt><trkpt lat="44.60333170041237" lon="11.668186516580041"><ele>5.0</ele><time>2026-05-03T17:32:06Z</time></trkpt><trkpt lat="44.603509251585834" lon="11.668126724853538"><ele>5.333333333333334</ele><time>2026-05-03T17:32:07Z</time></trkpt><trkpt lat="44.60368764238419" lon="11.668068838514557"><ele>5.666666666666667</ele><time>2026-05-03T17:32:08Z</time></trkpt><trkpt lat="44.60386477872174" lon="11.668008841758564"><ele>6.0</ele><time>2026-05-03T17:32:09Z</time></trkpt><trkpt lat="44.60403789040186" lon="11.667948716462204"><ele>6.0</ele><time>2026-05-03T17:32:10Z</time></trkpt><trkpt lat="44.60420751573628" lon="11.667888893862017"><ele>6.0</ele><time>2026-05-03T17:32:11Z</time></trkpt><trkpt lat="44.60437350682895" lon="11.66782890789712"><ele>6.0</ele><time>2026-05-03T17:32:12Z</time></trkpt><trkpt lat="44.60454681753741" lon="11.667772277607126"><ele>5.666666666666667</ele><time>2026-05-03T17:32:13Z</time></trkpt><trkpt lat="44.604718849873635" lon="11.667714890234421"><ele>5.333333333333334</ele><time>2026-05-03T17:32:14Z</time></trkpt><trkpt lat="44.604892404167046" lon="11.667659598722894"><ele>5.0</ele><time>2026-05-03T17:32:15Z</time></trkpt><trkpt lat="44.60505757850462" lon="11.667605009519791"><ele>5.0</ele><time>2026-05-03T17:32:16Z</time></trkpt><trkpt lat="44.605210175901675" lon="11.667556001980802"><ele>5.0</ele><time>2026-05-03T17:32:17Z</time></trkpt><trkpt lat="44.60534500436736" lon="11.667510434155224"><ele>5.0</ele><time>2026-05-03T17:32:18Z</time></trkpt><trkpt lat="44.60546417514739" lon="11.667470564754588"><ele>5.0</ele><time>2026-05-03T17:32:19Z</time></trkpt><trkpt lat="44.60558369134749" lon="11.667438735342323"><ele>4.333333333333334</ele><time>2026-05-03T17:32:20Z</time></trkpt><trkpt lat="44.60571522827261" lon="11.667381990583774"><ele>3.666666666666667</ele><time>2026-05-03T17:32:21Z</time></trkpt><trkpt lat="44.60586621370185" lon="11.667320793944123"><ele>3.0</ele><time>2026-05-03T17:32:22Z</time></trkpt><trkpt lat="44.6060252068334" lon="11.667268963349626"><ele>3.0</ele><time>2026-05-03T17:32:23Z</time></trkpt><trkpt lat="44.6061910183863" lon="11.667220328142669"><ele>3.0</ele><time>2026-05-03T17:32:24Z</time></trkpt><trkpt lat="44.60635400327076" lon="11.667172404985521"><ele>3.0</ele><time>2026-05-03T17:32:25Z</time></trkpt><trkpt lat="44.60651547700829" lon="11.667132139510187"><ele>3.0</ele><time>2026-05-03T17:32:26Z</time></trkpt><trkpt lat="44.60668386789327" lon="11.667100070868683"><ele>3.0</ele><time>2026-05-03T17:32:27Z</time></trkpt><trkpt lat="44.60685702111384" lon="11.667079061718418"><ele>3.0</ele><time>2026-05-03T17:32:28Z</time></trkpt><trkpt lat="44.6070325490803" lon="11.667070354942211"><ele>3.0</ele><time>2026-05-03T17:32:29Z</time></trkpt><trkpt lat="44.60720990341369" lon="11.667078064750333"><ele>3.0</ele><time>2026-05-03T17:32:30Z</time></trkpt><trkpt lat="44.60739782988969" lon="11.667097005766987"><ele>3.0</ele><time>2026-05-03T17:32:31Z</time></trkpt><trkpt lat="44.607588698237784" lon="11.66712593787923"><ele>3.0</ele><time>2026-05-03T17:32:32Z</time></trkpt><trkpt lat="44.60778010701114" lon="11.667162338529927"><ele>3.0</ele><time>2026-05-03T17:32:33Z</time></trkpt><trkpt lat="44.607963116375835" lon="11.66719396493084"><ele>3.0</ele><time>2026-05-03T17:32:34Z</time></trkpt><trkpt lat="44.608144620390604" lon="11.667226419000952"><ele>3.0</ele><time>2026-05-03T17:32:35Z</time></trkpt><trkpt lat="44.608325254505594" lon="11.667260302056961"><ele>3.0</ele><time>2026-05-03T17:32:36Z</time></trkpt><trkpt lat="44.608508241187955" lon="11.667295806052994"><ele>3.0</ele><time>2026-05-03T17:32:37Z</time></trkpt><trkpt lat="44.60868742736517" lon="11.667334726756293"><ele>4.333333333333334</ele><time>2026-05-03T17:32:38Z</time></trkpt><trkpt lat="44.60885501778738" lon="11.667373699228017"><ele>5.666666666666667</ele><time>2026-05-03T17:32:39Z</time></trkpt><trkpt lat="44.60902983503036" lon="11.667413836507162"><ele>7.0</ele><time>2026-05-03T17:32:40Z</time></trkpt><trkpt lat="44.60920727007676" lon="11.667458243823319"><ele>7.0</ele><time>2026-05-03T17:32:41Z</time></trkpt><trkpt lat="44.60938676476026" lon="11.667501569584472"><ele>7.0</ele><time>2026-05-03T17:32:42Z</time></trkpt><trkpt lat="44.60957559500937" lon="11.667542662580132"><ele>7.0</ele><time>2026-05-03T17:32:43.001Z</time></trkpt><trkpt lat="44.609764182495326" lon="11.667582543411529"><ele>7.0</ele><time>2026-05-03T17:32:44.001Z</time></trkpt><trkpt lat="44.60994576875804" lon="11.667619223139162"><ele>7.0</ele><time>2026-05-03T17:32:45.001Z</time></trkpt><trkpt lat="44.61011691812926" lon="11.667655509280772"><ele>7.0</ele><time>2026-05-03T17:32:46.001Z</time></trkpt><trkpt lat="44.61027129319779" lon="11.667691030949472"><ele>6.666666666666667</ele><time>2026-05-03T17:32:47.001Z</time></trkpt><trkpt lat="44.61043115301768" lon="11.667725298054279"><ele>6.333333333333334</ele><time>2026-05-03T17:32:48.001Z</time></trkpt><trkpt lat="44.6105862758169" lon="11.667760347004098"><ele>6.0</ele><time>2026-05-03T17:32:49.001Z</time></trkpt><trkpt lat="44.610727250056186" lon="11.667793317629373"><ele>6.0</ele><time>2026-05-03T17:32:50.001Z</time></trkpt><trkpt lat="44.610858833208425" lon="11.66782119342398"><ele>6.0</ele><time>2026-05-03T17:32:51.001Z</time></trkpt><trkpt lat="44.61097866151532" lon="11.667848162876933"><ele>6.0</ele><time>2026-05-03T17:32:52.001Z</time></trkpt><trkpt lat="44.611092359621" lon="11.667875192880553"><ele>6.0</ele><time>2026-05-03T17:32:53.001Z</time></trkpt><trkpt lat="44.61119766342887" lon="11.667902127112725"><ele>5.8</ele><time>2026-05-03T17:32:54.001Z</time></trkpt><trkpt lat="44.611292035208514" lon="11.667924723149198"><ele>5.6</ele><time>2026-05-03T17:32:55.001Z</time></trkpt><trkpt lat="44.611369951556334" lon="11.667941754623731"><ele>5.4</ele><time>2026-05-03T17:32:56.001Z</time></trkpt><trkpt lat="44.61146401193263" lon="11.667967290197943"><ele>5.2</ele><time>2026-05-03T17:32:58.001Z</time></trkpt><trkpt lat="44.61150088943502" lon="11.667753623638244"><ele>5.0</ele><time>2026-05-03T17:33:00.001Z</time></trkpt><trkpt lat="44.61149565499614" lon="11.66765185088896"><ele>5.333333333333334</ele><time>2026-05-03T17:33:01.001Z</time></trkpt><trkpt lat="44.611487339849056" lon="11.66752875514106"><ele>5.666666666666667</ele><time>2026-05-03T17:33:02.001Z</time></trkpt><trkpt lat="44.6114822526648" lon="11.667397416247434"><ele>6.0</ele><time>2026-05-03T17:33:03.001Z</time></trkpt><trkpt lat="44.61149439475179" lon="11.66727132545142"><ele>6.333333333333334</ele><time>2026-05-03T17:33:04.001Z</time></trkpt><trkpt lat="44.61150163146262" lon="11.66716970776005"><ele>6.666666666666667</ele><time>2026-05-03T17:33:05.001Z</time></trkpt><trkpt lat="44.611508523928585" lon="11.66708064798494"><ele>7.0</ele><time>2026-05-03T17:33:06.001Z</time></trkpt><trkpt lat="44.61152021802876" lon="11.666937815068575"><ele>7.199999999999999</ele><time>2026-05-03T17:33:08.001Z</time></trkpt><trkpt lat="44.611526948013264" lon="11.666818446007902"><ele>7.3999999999999995</ele><time>2026-05-03T17:33:10.001Z</time></trkpt><trkpt lat="44.611547252132006" lon="11.666728765983096"><ele>7.6000000000000005</ele><time>2026-05-03T17:33:12.001Z</time></trkpt><trkpt lat="44.611556854529134" lon="11.66662129389263"><ele>7.800000000000001</ele><time>2026-05-03T17:33:16.001Z</time></trkpt><trkpt lat="44.61144619919934" lon="11.6665366127792"><ele>8.0</ele><time>2026-05-03T17:34:23Z</time></trkpt><trkpt lat="44.61148140755112" lon="11.666659619123262"><ele>8.0</ele><time>2026-05-03T17:38:57.001Z</time></trkpt><trkpt lat="44.611510596594776" lon="11.666811471698624"><ele>8.0</ele><time>2026-05-03T17:38:59.001Z</time></trkpt><trkpt lat="44.611491871607704" lon="11.666975914316222"><ele>8.0</ele><time>2026-05-03T17:39:01.001Z</time></trkpt><trkpt lat="44.611484633220066" lon="11.667096867239573"><ele>8.0</ele><time>2026-05-03T17:39:02.001Z</time></trkpt><trkpt lat="44.61147406154688" lon="11.667224090172821"><ele>8.0</ele><time>2026-05-03T17:39:03.001Z</time></trkpt><trkpt lat="44.61146276411383" lon="11.667372314498023"><ele>7.833333333333333</ele><time>2026-05-03T17:39:04.001Z</time></trkpt><trkpt lat="44.611452116865415" lon="11.667523930655594"><ele>7.666666666666666</ele><time>2026-05-03T17:39:05.001Z</time></trkpt><trkpt lat="44.611445765619735" lon="11.667640078125313"><ele>7.5</ele><time>2026-05-03T17:39:06.001Z</time></trkpt><trkpt lat="44.61144051839662" lon="11.667733477766298"><ele>7.333333333333334</ele><time>2026-05-03T17:39:07.001Z</time></trkpt><trkpt lat="44.61143593056915" lon="11.667829801825464"><ele>7.166666666666667</ele><time>2026-05-03T17:39:09.001Z</time></trkpt><trkpt lat="44.61144440137915" lon="11.667973427021806"><ele>7.0</ele><time>2026-05-03T17:39:15.001Z</time></trkpt><trkpt lat="44.61155987957116" lon="11.66799732546713"><ele>6.6</ele><time>2026-05-03T17:39:16.001Z</time></trkpt><trkpt lat="44.61165498322999" lon="11.66800222261539"><ele>6.199999999999999</ele><time>2026-05-03T17:39:17.001Z</time></trkpt><trkpt lat="44.6117532352889" lon="11.668022025087861"><ele>5.8</ele><time>2026-05-03T17:39:18.001Z</time></trkpt><trkpt lat="44.61185886178836" lon="11.6680502067103"><ele>5.4</ele><time>2026-05-03T17:39:19.001Z</time></trkpt><trkpt lat="44.61198738566637" lon="11.668078962262609"><ele>5.0</ele><time>2026-05-03T17:39:20.001Z</time></trkpt><trkpt lat="44.61213640868464" lon="11.668113322100231"><ele>4.666666666666667</ele><time>2026-05-03T17:39:21.001Z</time></trkpt><trkpt lat="44.61228501266674" lon="11.668146305212913"><ele>4.333333333333333</ele><time>2026-05-03T17:39:22.001Z</time></trkpt><trkpt lat="44.612436006074375" lon="11.668180214313978"><ele>4.0</ele><time>2026-05-03T17:39:23.001Z</time></trkpt><trkpt lat="44.61261186552773" lon="11.66822208439383"><ele>4.0</ele><time>2026-05-03T17:39:24.001Z</time></trkpt><trkpt lat="44.612805924738424" lon="11.668270476394435"><ele>4.0</ele><time>2026-05-03T17:39:25.001Z</time></trkpt><trkpt lat="44.61298997835672" lon="11.668310025352962"><ele>4.0</ele><time>2026-05-03T17:39:26.001Z</time></trkpt><trkpt lat="44.6131517193781" lon="11.668343084047486"><ele>4.0</ele><time>2026-05-03T17:39:27.001Z</time></trkpt><trkpt lat="44.61329632728495" lon="11.668373268928475"><ele>4.0</ele><time>2026-05-03T17:39:28.001Z</time></trkpt><trkpt lat="44.6134307802617" lon="11.668402861059928"><ele>4.0</ele><time>2026-05-03T17:39:29.001Z</time></trkpt><trkpt lat="44.613549715234605" lon="11.668431010291242"><ele>4.0</ele><time>2026-05-03T17:39:30.001Z</time></trkpt><trkpt lat="44.61366494674545" lon="11.668454877905583"><ele>4.0</ele><time>2026-05-03T17:39:31.001Z</time></trkpt><trkpt lat="44.61376576683393" lon="11.668476626709422"><ele>4.0</ele><time>2026-05-03T17:39:32.001Z</time></trkpt><trkpt lat="44.61384554468705" lon="11.66848378697982"><ele>4.0</ele><time>2026-05-03T17:39:33.001Z</time></trkpt><trkpt lat="44.61391016308579" lon="11.668488451244144"><ele>4.0</ele><time>2026-05-03T17:39:34.001Z</time></trkpt><trkpt lat="44.61404322168183" lon="11.668507946618172"><ele>4.0</ele><time>2026-05-03T17:39:36.001Z</time></trkpt><trkpt lat="44.61411809792863" lon="11.668499206085851"><ele>4.0</ele><time>2026-05-03T17:39:37.001Z</time></trkpt><trkpt lat="44.614182068984036" lon="11.668446466695421"><ele>4.0</ele><time>2026-05-03T17:39:38.001Z</time></trkpt><trkpt lat="44.61421916866696" lon="11.668346904845455"><ele>4.0</ele><time>2026-05-03T17:39:39.001Z</time></trkpt><trkpt lat="44.61423228983229" lon="11.668217870014695"><ele>4.0</ele><time>2026-05-03T17:39:40.001Z</time></trkpt><trkpt lat="44.61425044785837" lon="11.668069569912484"><ele>4.0</ele><time>2026-05-03T17:39:41.001Z</time></trkpt><trkpt lat="44.61429508665738" lon="11.667918167863283"><ele>4.25</ele><time>2026-05-03T17:39:42.001Z</time></trkpt><trkpt lat="44.61434524868828" lon="11.66775589155537"><ele>4.5</ele><time>2026-05-03T17:39:43.001Z</time></trkpt><trkpt lat="44.61438563368891" lon="11.667586118170703"><ele>4.75</ele><time>2026-05-03T17:39:44.001Z</time></trkpt><trkpt lat="44.614412817666285" lon="11.667406454078481"><ele>5.0</ele><time>2026-05-03T17:39:45.001Z</time></trkpt><trkpt lat="44.614426925339615" lon="11.667210583528945"><ele>5.0</ele><time>2026-05-03T17:39:46.001Z</time></trkpt><trkpt lat="44.61443423591607" lon="11.667007424209542"><ele>5.0</ele><time>2026-05-03T17:39:47.001Z</time></trkpt><trkpt lat="44.61444722217869" lon="11.666806909057513"><ele>5.0</ele><time>2026-05-03T17:39:48.001Z</time></trkpt><trkpt lat="44.61446258906416" lon="11.666606751529253"><ele>5.0</ele><time>2026-05-03T17:39:49.001Z</time></trkpt><trkpt lat="44.61447622933448" lon="11.66639974790659"><ele>5.0</ele><time>2026-05-03T17:39:50.001Z</time></trkpt><trkpt lat="44.6144916353273" lon="11.666197105703159"><ele>5.0</ele><time>2026-05-03T17:39:51.001Z</time></trkpt><trkpt lat="44.614512719773245" lon="11.665987502526985"><ele>5.0</ele><time>2026-05-03T17:39:52.001Z</time></trkpt><trkpt lat="44.61453819017004" lon="11.665784373219726"><ele>5.0</ele><time>2026-05-03T17:39:53.001Z</time></trkpt><trkpt lat="44.61456133078022" lon="11.66558854015243"><ele>5.25</ele><time>2026-05-03T17:39:54.001Z</time></trkpt><trkpt lat="44.614579380421844" lon="11.665389195466583"><ele>5.5</ele><time>2026-05-03T17:39:55.001Z</time></trkpt><trkpt lat="44.614596790833716" lon="11.665195108901141"><ele>5.75</ele><time>2026-05-03T17:39:56.001Z</time></trkpt><trkpt lat="44.61460638716202" lon="11.665005206590546"><ele>6.0</ele><time>2026-05-03T17:39:57.001Z</time></trkpt><trkpt lat="44.61461858081604" lon="11.664836961632043"><ele>6.0</ele><time>2026-05-03T17:39:58.001Z</time></trkpt><trkpt lat="44.61463460943986" lon="11.664681329450103"><ele>6.0</ele><time>2026-05-03T17:39:59.001Z</time></trkpt><trkpt lat="44.61466297837136" lon="11.664547104425576"><ele>6.0</ele><time>2026-05-03T17:40:00.001Z</time></trkpt><trkpt lat="44.614701138779175" lon="11.664414250242382"><ele>6.0</ele><time>2026-05-03T17:40:01.001Z</time></trkpt><trkpt lat="44.614728374112644" lon="11.664271793315027"><ele>6.0</ele><time>2026-05-03T17:40:02.001Z</time></trkpt><trkpt lat="44.61478994726468" lon="11.664162274276293"><ele>6.4</ele><time>2026-05-03T17:40:03.001Z</time></trkpt><trkpt lat="44.614823861405135" lon="11.664063165078376"><ele>6.8</ele><time>2026-05-03T17:40:04.001Z</time></trkpt><trkpt lat="44.61485543329058" lon="11.663965034710571"><ele>7.200000000000001</ele><time>2026-05-03T17:40:05.001Z</time></trkpt><trkpt lat="44.61488160784379" lon="11.663878246569364"><ele>7.6000000000000005</ele><time>2026-05-03T17:40:06.001Z</time></trkpt><trkpt lat="44.61497113878754" lon="11.663761799688693"><ele>8.0</ele><time>2026-05-03T17:40:08.001Z</time></trkpt><trkpt lat="44.615125500602375" lon="11.663844000020722"><ele>8.0</ele><time>2026-05-03T17:40:10.001Z</time></trkpt><trkpt lat="44.61522391541841" lon="11.663917659264321"><ele>8.0</ele><time>2026-05-03T17:40:11.001Z</time></trkpt><trkpt lat="44.61534114529189" lon="11.663994579717768"><ele>8.0</ele><time>2026-05-03T17:40:12.001Z</time></trkpt><trkpt lat="44.6154666762021" lon="11.664071796239666"><ele>8.0</ele><time>2026-05-03T17:40:13Z</time></trkpt><trkpt lat="44.61560251290687" lon="11.66415330709292"><ele>8.0</ele><time>2026-05-03T17:40:14Z</time></trkpt><trkpt lat="44.615739686924556" lon="11.664238598596153"><ele>8.0</ele><time>2026-05-03T17:40:15Z</time></trkpt><trkpt lat="44.615875160031905" lon="11.664327102521929"><ele>8.0</ele><time>2026-05-03T17:40:16Z</time></trkpt><trkpt lat="44.616003340350765" lon="11.66441570664996"><ele>8.0</ele><time>2026-05-03T17:40:17Z</time></trkpt><trkpt lat="44.61614552605701" lon="11.664510241570325"><ele>7.75</ele><time>2026-05-03T17:40:18Z</time></trkpt><trkpt lat="44.61629195762493" lon="11.664612941198513"><ele>7.5</ele><time>2026-05-03T17:40:19Z</time></trkpt><trkpt lat="44.61642425341645" lon="11.664698800550834"><ele>7.25</ele><time>2026-05-03T17:40:20Z</time></trkpt><trkpt lat="44.6165437912047" lon="11.664767753198714"><ele>7.0</ele><time>2026-05-03T17:40:21Z</time></trkpt><trkpt lat="44.616644740604976" lon="11.664838361870837"><ele>7.0</ele><time>2026-05-03T17:40:22Z</time></trkpt><trkpt lat="44.61675398445537" lon="11.664911330428119"><ele>7.0</ele><time>2026-05-03T17:40:23Z</time></trkpt><trkpt lat="44.61686705930288" lon="11.664985529840896"><ele>7.0</ele><time>2026-05-03T17:40:24Z</time></trkpt><trkpt lat="44.616977967954504" lon="11.665063001549797"><ele>7.0</ele><time>2026-05-03T17:40:25Z</time></trkpt><trkpt lat="44.617091310735894" lon="11.665135759021467"><ele>7.0</ele><time>2026-05-03T17:40:26Z</time></trkpt><trkpt lat="44.617198765135896" lon="11.66520255471709"><ele>6.999999999999999</ele><time>2026-05-03T17:40:27Z</time></trkpt><trkpt lat="44.617295731565754" lon="11.665259485844002"><ele>6.999999999999999</ele><time>2026-05-03T17:40:28Z</time></trkpt><trkpt lat="44.61738749709232" lon="11.665309695395335"><ele>7.0</ele><time>2026-05-03T17:40:29Z</time></trkpt><trkpt lat="44.61745669206313" lon="11.665358698877437"><ele>7.0</ele><time>2026-05-03T17:40:30Z</time></trkpt><trkpt lat="44.61752069632125" lon="11.665399700553962"><ele>6.666666666666667</ele><time>2026-05-03T17:40:31Z</time></trkpt><trkpt lat="44.617575042259666" lon="11.665451367149789"><ele>6.333333333333334</ele><time>2026-05-03T17:40:32Z</time></trkpt><trkpt lat="44.61758878005873" lon="11.6656255154558"><ele>6.0</ele><time>2026-05-03T17:40:34Z</time></trkpt><trkpt lat="44.617543831288884" lon="11.665723232823785"><ele>5.666666666666667</ele><time>2026-05-03T17:40:35Z</time></trkpt><trkpt lat="44.61749037114985" lon="11.66582953189261"><ele>5.333333333333334</ele><time>2026-05-03T17:40:36Z</time></trkpt><trkpt lat="44.61744973704722" lon="11.665922635418921"><ele>5.0</ele><time>2026-05-03T17:40:37Z</time></trkpt><trkpt lat="44.617421514772765" lon="11.666074649847774"><ele>5.2</ele><time>2026-05-03T17:40:39Z</time></trkpt><trkpt lat="44.61743387394403" lon="11.66619380015181"><ele>5.4</ele><time>2026-05-03T17:40:41Z</time></trkpt><trkpt lat="44.61759680487191" lon="11.6661536796118"><ele>5.6</ele><time>2026-05-03T17:40:42Z</time></trkpt><trkpt lat="44.61766416896892" lon="11.666194387910759"><ele>5.8</ele><time>2026-05-03T17:40:43Z</time></trkpt><trkpt lat="44.61776551058866" lon="11.666224058939768"><ele>6.0</ele><time>2026-05-03T17:40:45Z</time></trkpt><trkpt lat="44.61787174649965" lon="11.666060508258536"><ele>6.0</ele><time>2026-05-03T17:40:47Z</time></trkpt><trkpt lat="44.61791050479915" lon="11.665974703017552"><ele>6.0</ele><time>2026-05-03T17:40:48Z</time></trkpt><trkpt lat="44.617958139129115" lon="11.665901195263217"><ele>6.0</ele><time>2026-05-03T17:40:49Z</time></trkpt><trkpt lat="44.618040155103444" lon="11.665795760688873"><ele>6.0</ele><time>2026-05-03T17:40:51Z</time></trkpt><trkpt lat="44.61809978075896" lon="11.665740775166633"><ele>6.0</ele><time>2026-05-03T17:40:52Z</time></trkpt><trkpt lat="44.618166553950125" lon="11.665688083903117"><ele>6.0</ele><time>2026-05-03T17:40:53Z</time></trkpt><trkpt lat="44.61829851025622" lon="11.665771982855139"><ele>6.0</ele><time>2026-05-03T17:40:54Z</time></trkpt><trkpt lat="44.61840775202843" lon="11.665783283244622"><ele>6.0</ele><time>2026-05-03T17:40:55Z</time></trkpt><trkpt lat="44.61851339320783" lon="11.665789138013604"><ele>6.0</ele><time>2026-05-03T17:40:56Z</time></trkpt><trkpt lat="44.61862631762493" lon="11.665785437407795"><ele>6.0</ele><time>2026-05-03T17:40:57Z</time></trkpt><trkpt lat="44.61873420822226" lon="11.665785511693509"><ele>6.0</ele><time>2026-05-03T17:40:58Z</time></trkpt><trkpt lat="44.61883507838281" lon="11.665790288428589"><ele>6.199999999999999</ele><time>2026-05-03T17:40:59Z</time></trkpt><trkpt lat="44.61892760387208" lon="11.665790851157416"><ele>6.3999999999999995</ele><time>2026-05-03T17:41:00Z</time></trkpt><trkpt lat="44.619012681772055" lon="11.665792030008127"><ele>6.6</ele><time>2026-05-03T17:41:01Z</time></trkpt><trkpt lat="44.61909492553867" lon="11.665790326819486"><ele>6.8</ele><time>2026-05-03T17:41:02Z</time></trkpt><trkpt lat="44.61920107880721" lon="11.66578880849213"><ele>7.0</ele><time>2026-05-03T17:41:03Z</time></trkpt><trkpt lat="44.61931300213545" lon="11.665787363718474"><ele>7.000000000000001</ele><time>2026-05-03T17:41:04Z</time></trkpt><trkpt lat="44.61941597569686" lon="11.665791374392496"><ele>7.0</ele><time>2026-05-03T17:41:05Z</time></trkpt><trkpt lat="44.61950143431769" lon="11.66579296931806"><ele>7.0</ele><time>2026-05-03T17:41:06Z</time></trkpt><trkpt lat="44.619578990834846" lon="11.665793256295917"><ele>7.0</ele><time>2026-05-03T17:41:07Z</time></trkpt><trkpt lat="44.619650130992106" lon="11.665796628638702"><ele>7.000000000000001</ele><time>2026-05-03T17:41:08Z</time></trkpt><trkpt lat="44.61971744156315" lon="11.66579604571546"><ele>7.0</ele><time>2026-05-03T17:41:09Z</time></trkpt><trkpt lat="44.619781704934496" lon="11.665796437778377"><ele>7.166666666666667</ele><time>2026-05-03T17:41:10Z</time></trkpt><trkpt lat="44.619866668143786" lon="11.665798578917828"><ele>7.333333333333334</ele><time>2026-05-03T17:41:12Z</time></trkpt><trkpt lat="44.619939809378884" lon="11.665799888485248"><ele>7.5</ele><time>2026-05-03T17:41:16Z</time></trkpt><trkpt lat="44.62002894828955" lon="11.665802362159726"><ele>7.666666666666666</ele><time>2026-05-03T17:41:43Z</time></trkpt><trkpt lat="44.620094193504485" lon="11.665803181551745"><ele>7.833333333333333</ele><time>2026-05-03T17:41:44Z</time></trkpt><trkpt lat="44.620171376055616" lon="11.665807971556644"><ele>8.0</ele><time>2026-05-03T17:41:45Z</time></trkpt><trkpt lat="44.62027048609394" lon="11.665835993792944"><ele>8.0</ele><time>2026-05-03T17:41:46Z</time></trkpt><trkpt lat="44.62039768608015" lon="11.665888540348682"><ele>8.0</ele><time>2026-05-03T17:41:47Z</time></trkpt><trkpt lat="44.62054167553469" lon="11.66596078737767"><ele>8.0</ele><time>2026-05-03T17:41:48Z</time></trkpt><trkpt lat="44.62067962846747" lon="11.66603638440509"><ele>8.0</ele><time>2026-05-03T17:41:49Z</time></trkpt><trkpt lat="44.62083003993439" lon="11.666122903448002"><ele>7.666666666666666</ele><time>2026-05-03T17:41:50Z</time></trkpt><trkpt lat="44.62097867154684" lon="11.666206809444096"><ele>7.333333333333334</ele><time>2026-05-03T17:41:51Z</time></trkpt><trkpt lat="44.62112036899888" lon="11.666286890821636"><ele>7.0</ele><time>2026-05-03T17:41:52Z</time></trkpt><trkpt lat="44.62125149168427" lon="11.666371967118899"><ele>6.666666666666667</ele><time>2026-05-03T17:41:53Z</time></trkpt><trkpt lat="44.62138495790755" lon="11.66645595138956"><ele>6.333333333333334</ele><time>2026-05-03T17:41:54Z</time></trkpt><trkpt lat="44.62152292085262" lon="11.666538926206446"><ele>6.0</ele><time>2026-05-03T17:41:55Z</time></trkpt><trkpt lat="44.621664989669185" lon="11.666622640652585"><ele>6.0</ele><time>2026-05-03T17:41:56Z</time></trkpt><trkpt lat="44.62180577313825" lon="11.66670577147683"><ele>6.0</ele><time>2026-05-03T17:41:57Z</time></trkpt><trkpt lat="44.62194267402392" lon="11.666785045472835"><ele>6.0</ele><time>2026-05-03T17:41:58Z</time></trkpt><trkpt lat="44.62208754707982" lon="11.66685357097009"><ele>6.0</ele><time>2026-05-03T17:41:59Z</time></trkpt><trkpt lat="44.62222045150794" lon="11.66693264126186"><ele>6.0</ele><time>2026-05-03T17:42:00Z</time></trkpt><trkpt lat="44.6223475080253" lon="11.6670048529494"><ele>6.0</ele><time>2026-05-03T17:42:01Z</time></trkpt><trkpt lat="44.62248238885809" lon="11.667081606917677"><ele>6.0</ele><time>2026-05-03T17:42:02Z</time></trkpt><trkpt lat="44.62261650754832" lon="11.667158705513101"><ele>6.0</ele><time>2026-05-03T17:42:03Z</time></trkpt><trkpt lat="44.62275002472123" lon="11.667233298715491"><ele>6.0</ele><time>2026-05-03T17:42:04Z</time></trkpt><trkpt lat="44.622883993112865" lon="11.667313899055037"><ele>6.0</ele><time>2026-05-03T17:42:05Z</time></trkpt><trkpt lat="44.62302652957721" lon="11.667396158400674"><ele>6.0</ele><time>2026-05-03T17:42:06Z</time></trkpt><trkpt lat="44.62317176437013" lon="11.667474816223777"><ele>6.0</ele><time>2026-05-03T17:42:07Z</time></trkpt><trkpt lat="44.6233158171404" lon="11.667554471813881"><ele>6.0</ele><time>2026-05-03T17:42:08Z</time></trkpt><trkpt lat="44.623461613947775" lon="11.667634067085576"><ele>6.0</ele><time>2026-05-03T17:42:09Z</time></trkpt><trkpt lat="44.62360847588124" lon="11.66770795019772"><ele>6.0</ele><time>2026-05-03T17:42:10Z</time></trkpt><trkpt lat="44.623757048507045" lon="11.667781872147202"><ele>6.0</ele><time>2026-05-03T17:42:11Z</time></trkpt><trkpt lat="44.623904561811024" lon="11.66785332733615"><ele>6.0</ele><time>2026-05-03T17:42:12Z</time></trkpt><trkpt lat="44.62405110002402" lon="11.667923959471173"><ele>6.0</ele><time>2026-05-03T17:42:13Z</time></trkpt><trkpt lat="44.624198273673954" lon="11.66799767688789"><ele>6.0</ele><time>2026-05-03T17:42:14Z</time></trkpt><trkpt lat="44.62434992728861" lon="11.668069153669197"><ele>6.0</ele><time>2026-05-03T17:42:15Z</time></trkpt><trkpt lat="44.62450170263514" lon="11.668125819198641"><ele>6.333333333333334</ele><time>2026-05-03T17:42:16Z</time></trkpt><trkpt lat="44.62465701002091" lon="11.668166004838673"><ele>6.666666666666667</ele><time>2026-05-03T17:42:17Z</time></trkpt><trkpt lat="44.624819614117364" lon="11.66819330415883"><ele>7.0</ele><time>2026-05-03T17:42:18Z</time></trkpt><trkpt lat="44.624973712870975" lon="11.668220205068657"><ele>7.0</ele><time>2026-05-03T17:42:18.999Z</time></trkpt><trkpt lat="44.6251232256329" lon="11.668249455022377"><ele>7.0</ele><time>2026-05-03T17:42:19.999Z</time></trkpt><trkpt lat="44.625276936051655" lon="11.668278666232775"><ele>7.0</ele><time>2026-05-03T17:42:20.999Z</time></trkpt><trkpt lat="44.62543610612318" lon="11.668311759501533"><ele>6.666666666666667</ele><time>2026-05-03T17:42:21.999Z</time></trkpt><trkpt lat="44.62559752562448" lon="11.668338486171766"><ele>6.333333333333334</ele><time>2026-05-03T17:42:22.999Z</time></trkpt><trkpt lat="44.62576749157393" lon="11.668370695750573"><ele>6.0</ele><time>2026-05-03T17:42:23.999Z</time></trkpt><trkpt lat="44.62594479982431" lon="11.668402211788584"><ele>6.0</ele><time>2026-05-03T17:42:24.999Z</time></trkpt><trkpt lat="44.626106452509326" lon="11.668431113359878"><ele>6.0</ele><time>2026-05-03T17:42:25.999Z</time></trkpt><trkpt lat="44.62625421869997" lon="11.66845672609639"><ele>6.0</ele><time>2026-05-03T17:42:26.999Z</time></trkpt><trkpt lat="44.626397085959795" lon="11.668483328138416"><ele>5.75</ele><time>2026-05-03T17:42:27.999Z</time></trkpt><trkpt lat="44.62652919010093" lon="11.668508390555237"><ele>5.5</ele><time>2026-05-03T17:42:28.999Z</time></trkpt><trkpt lat="44.62664848230067" lon="11.668530938212912"><ele>5.25</ele><time>2026-05-03T17:42:29.999Z</time></trkpt><trkpt lat="44.62675863700013" lon="11.668543699212272"><ele>5.0</ele><time>2026-05-03T17:42:30.999Z</time></trkpt><trkpt lat="44.62685055913953" lon="11.668551320372066"><ele>5.0</ele><time>2026-05-03T17:42:31.999Z</time></trkpt><trkpt lat="44.6269318723102" lon="11.668566296417813"><ele>5.0</ele><time>2026-05-03T17:42:32.999Z</time></trkpt><trkpt lat="44.62699941231875" lon="11.668612963724952"><ele>5.0</ele><time>2026-05-03T17:42:33.999Z</time></trkpt><trkpt lat="44.627052270915755" lon="11.668702059930052"><ele>5.0</ele><time>2026-05-03T17:42:34.999Z</time></trkpt><trkpt lat="44.627079490779025" lon="11.668824805892461"><ele>5.0</ele><time>2026-05-03T17:42:35.999Z</time></trkpt><trkpt lat="44.62706882777852" lon="11.668959017443003"><ele>5.0</ele><time>2026-05-03T17:42:36.999Z</time></trkpt><trkpt lat="44.627031692226645" lon="11.669102871541323"><ele>5.4</ele><time>2026-05-03T17:42:37.999Z</time></trkpt><trkpt lat="44.62698084227692" lon="11.669261860119118"><ele>5.8</ele><time>2026-05-03T17:42:39Z</time></trkpt><trkpt lat="44.62694599833073" lon="11.669414445524891"><ele>6.199999999999999</ele><time>2026-05-03T17:42:40Z</time></trkpt><trkpt lat="44.626920386513625" lon="11.669539639652946"><ele>6.6</ele><time>2026-05-03T17:42:41Z</time></trkpt><trkpt lat="44.62690004798657" lon="11.669649188876253"><ele>7.0</ele><time>2026-05-03T17:42:42Z</time></trkpt><trkpt lat="44.62688518652057" lon="11.669749963475882"><ele>7.199999999999999</ele><time>2026-05-03T17:42:43Z</time></trkpt><trkpt lat="44.62689797990972" lon="11.669840751598295"><ele>7.3999999999999995</ele><time>2026-05-03T17:42:44Z</time></trkpt><trkpt lat="44.626938037462075" lon="11.669926890007313"><ele>7.6000000000000005</ele><time>2026-05-03T17:42:45Z</time></trkpt><trkpt lat="44.62701333408369" lon="11.669986876254557"><ele>7.800000000000001</ele><time>2026-05-03T17:42:46Z</time></trkpt><trkpt lat="44.627120809025165" lon="11.670006695011798"><ele>8.0</ele><time>2026-05-03T17:42:47Z</time></trkpt><trkpt lat="44.62725404560253" lon="11.669981715736567"><ele>8.25</ele><time>2026-05-03T17:42:48Z</time></trkpt><trkpt lat="44.62739150208552" lon="11.669945791162332"><ele>8.5</ele><time>2026-05-03T17:42:49Z</time></trkpt><trkpt lat="44.62751509045468" lon="11.669920773866348"><ele>8.75</ele><time>2026-05-03T17:42:50Z</time></trkpt><trkpt lat="44.62762710380134" lon="11.669902418621064"><ele>9.0</ele><time>2026-05-03T17:42:51Z</time></trkpt><trkpt lat="44.627727882914684" lon="11.669880162438892"><ele>8.4</ele><time>2026-05-03T17:42:52Z</time></trkpt><trkpt lat="44.62783080481156" lon="11.669868267047114"><ele>7.800000000000001</ele><time>2026-05-03T17:42:53Z</time></trkpt><trkpt lat="44.62793249413069" lon="11.669853617547599"><ele>7.199999999999999</ele><time>2026-05-03T17:42:54Z</time></trkpt><trkpt lat="44.628033919192326" lon="11.669842568361299"><ele>6.6</ele><time>2026-05-03T17:42:55Z</time></trkpt><trkpt lat="44.62814182236385" lon="11.669820548669978"><ele>6.0</ele><time>2026-05-03T17:42:56Z</time></trkpt><trkpt lat="44.628260002233944" lon="11.669798946067987"><ele>6.0</ele><time>2026-05-03T17:42:57Z</time></trkpt><trkpt lat="44.62838144476653" lon="11.669777050952405"><ele>6.0</ele><time>2026-05-03T17:42:58Z</time></trkpt><trkpt lat="44.6285073163429" lon="11.669747818354148"><ele>6.0</ele><time>2026-05-03T17:42:59Z</time></trkpt><trkpt lat="44.62863330664716" lon="11.669715856371178"><ele>6.0</ele><time>2026-05-03T17:43:00Z</time></trkpt><trkpt lat="44.62877593228537" lon="11.669701946311777"><ele>7.0</ele><time>2026-05-03T17:43:01Z</time></trkpt><trkpt lat="44.62893053715262" lon="11.669701779908696"><ele>8.0</ele><time>2026-05-03T17:43:02Z</time></trkpt><trkpt lat="44.62908166997658" lon="11.669737437640316"><ele>9.0</ele><time>2026-05-03T17:43:03Z</time></trkpt><trkpt lat="44.62923158255985" lon="11.66981869742835"><ele>9.0</ele><time>2026-05-03T17:43:04Z</time></trkpt><trkpt lat="44.629375099632526" lon="11.669930430934318"><ele>9.0</ele><time>2026-05-03T17:43:05Z</time></trkpt><trkpt lat="44.629525252261686" lon="11.670059255389225"><ele>9.0</ele><time>2026-05-03T17:43:06Z</time></trkpt><trkpt lat="44.62968173280551" lon="11.670194684990118"><ele>9.0</ele><time>2026-05-03T17:43:07Z</time></trkpt><trkpt lat="44.62983817788717" lon="11.670320720561598"><ele>9.0</ele><time>2026-05-03T17:43:08Z</time></trkpt><trkpt lat="44.62998859552312" lon="11.670445819629043"><ele>9.0</ele><time>2026-05-03T17:43:09Z</time></trkpt><trkpt lat="44.63013736505009" lon="11.670570979504147"><ele>9.0</ele><time>2026-05-03T17:43:10Z</time></trkpt><trkpt lat="44.63028475570748" lon="11.670690279026921"><ele>9.0</ele><time>2026-05-03T17:43:11Z</time></trkpt><trkpt lat="44.630439275455146" lon="11.670817480016112"><ele>9.0</ele><time>2026-05-03T17:43:12Z</time></trkpt><trkpt lat="44.630590033362964" lon="11.670943954559506"><ele>8.666666666666666</ele><time>2026-05-03T17:43:13Z</time></trkpt><trkpt lat="44.63074205397551" lon="11.6710652989573"><ele>8.333333333333332</ele><time>2026-05-03T17:43:14Z</time></trkpt><trkpt lat="44.63089417624217" lon="11.67118863917235"><ele>8.0</ele><time>2026-05-03T17:43:15Z</time></trkpt><trkpt lat="44.631045189960034" lon="11.671315079660236"><ele>7.666666666666666</ele><time>2026-05-03T17:43:16Z</time></trkpt><trkpt lat="44.6312011278686" lon="11.671441735855169"><ele>7.333333333333334</ele><time>2026-05-03T17:43:17Z</time></trkpt><trkpt lat="44.63135760804385" lon="11.671569386493472"><ele>7.0</ele><time>2026-05-03T17:43:18Z</time></trkpt><trkpt lat="44.63151268353394" lon="11.671696455322511"><ele>7.0</ele><time>2026-05-03T17:43:19Z</time></trkpt><trkpt lat="44.631672975268835" lon="11.67182765540457"><ele>7.0</ele><time>2026-05-03T17:43:20Z</time></trkpt><trkpt lat="44.631822194402" lon="11.67195041982647"><ele>7.0</ele><time>2026-05-03T17:43:21Z</time></trkpt><trkpt lat="44.63195301965402" lon="11.6720647477866"><ele>7.25</ele><time>2026-05-03T17:43:22Z</time></trkpt><trkpt lat="44.63208063967095" lon="11.672166974544366"><ele>7.5</ele><time>2026-05-03T17:43:23Z</time></trkpt><trkpt lat="44.632210569355905" lon="11.672261455074196"><ele>7.75</ele><time>2026-05-03T17:43:24Z</time></trkpt><trkpt lat="44.632344402957145" lon="11.67236325581418"><ele>8.0</ele><time>2026-05-03T17:43:25Z</time></trkpt><trkpt lat="44.63247668186491" lon="11.672471721957907"><ele>8.0</ele><time>2026-05-03T17:43:26Z</time></trkpt><trkpt lat="44.632601243419735" lon="11.672576080783791"><ele>8.0</ele><time>2026-05-03T17:43:27Z</time></trkpt><trkpt lat="44.63271088380512" lon="11.67266556234604"><ele>8.0</ele><time>2026-05-03T17:43:28Z</time></trkpt><trkpt lat="44.63279674492811" lon="11.672736960649237"><ele>8.0</ele><time>2026-05-03T17:43:29Z</time></trkpt><trkpt lat="44.63286219105833" lon="11.67281318442761"><ele>8.200000000000001</ele><time>2026-05-03T17:43:30Z</time></trkpt><trkpt lat="44.63290349047667" lon="11.672903052578656"><ele>8.4</ele><time>2026-05-03T17:43:31Z</time></trkpt><trkpt lat="44.63293175568671" lon="11.672995271321927"><ele>8.600000000000001</ele><time>2026-05-03T17:43:32Z</time></trkpt><trkpt lat="44.63301543506561" lon="11.673113792519185"><ele>8.8</ele><time>2026-05-03T17:43:34Z</time></trkpt><trkpt lat="44.633156169408345" lon="11.673019366580213"><ele>9.0</ele><time>2026-05-03T17:43:35Z</time></trkpt><trkpt lat="44.63325446126367" lon="11.672918739359362"><ele>9.0</ele><time>2026-05-03T17:43:36Z</time></trkpt><trkpt lat="44.633363475906705" lon="11.672790096501487"><ele>9.0</ele><time>2026-05-03T17:43:37Z</time></trkpt><trkpt lat="44.6334762839396" lon="11.672671735313955"><ele>9.0</ele><time>2026-05-03T17:43:38Z</time></trkpt><trkpt lat="44.63361142538306" lon="11.672529461031788"><ele>8.333333333333334</ele><time>2026-05-03T17:43:39Z</time></trkpt><trkpt lat="44.633751743367824" lon="11.672386031918803"><ele>7.666666666666667</ele><time>2026-05-03T17:43:40Z</time></trkpt><trkpt lat="44.633913114891364" lon="11.672223949652917"><ele>7.0</ele><time>2026-05-03T17:43:41Z</time></trkpt><trkpt lat="44.63406740852713" lon="11.672058113037247"><ele>7.333333333333334</ele><time>2026-05-03T17:43:42Z</time></trkpt><trkpt lat="44.63422262957192" lon="11.671905658590386"><ele>7.666666666666666</ele><time>2026-05-03T17:43:43Z</time></trkpt><trkpt lat="44.634379933782824" lon="11.671741449473371"><ele>8.0</ele><time>2026-05-03T17:43:44Z</time></trkpt><trkpt lat="44.63453419541846" lon="11.671584061568558"><ele>8.0</ele><time>2026-05-03T17:43:45Z</time></trkpt><trkpt lat="44.63469449044222" lon="11.671425244891212"><ele>8.0</ele><time>2026-05-03T17:43:46Z</time></trkpt><trkpt lat="44.634846452190956" lon="11.67126769356562"><ele>8.0</ele><time>2026-05-03T17:43:47Z</time></trkpt><trkpt lat="44.63500386725364" lon="11.671112104984285"><ele>8.0</ele><time>2026-05-03T17:43:48Z</time></trkpt><trkpt lat="44.635160122582796" lon="11.67094979938162"><ele>8.0</ele><time>2026-05-03T17:43:49Z</time></trkpt><trkpt lat="44.63531943888152" lon="11.670792160966045"><ele>8.0</ele><time>2026-05-03T17:43:50Z</time></trkpt><trkpt lat="44.63547304279996" lon="11.670631776080644"><ele>8.0</ele><time>2026-05-03T17:43:51Z</time></trkpt><trkpt lat="44.63562674643455" lon="11.670475296789206"><ele>8.0</ele><time>2026-05-03T17:43:52Z</time></trkpt><trkpt lat="44.63578604243725" lon="11.670308276608612"><ele>8.0</ele><time>2026-05-03T17:43:53Z</time></trkpt><trkpt lat="44.63593878946559" lon="11.670148759180684"><ele>8.0</ele><time>2026-05-03T17:43:54Z</time></trkpt><trkpt lat="44.6360917137986" lon="11.669994294995568"><ele>8.0</ele><time>2026-05-03T17:43:55Z</time></trkpt><trkpt lat="44.63623783971659" lon="11.669842226836737"><ele>8.0</ele><time>2026-05-03T17:43:56Z</time></trkpt><trkpt lat="44.63641073346066" lon="11.669667121794857"><ele>8.0</ele><time>2026-05-03T17:43:57Z</time></trkpt><trkpt lat="44.636572743547674" lon="11.669503453154336"><ele>8.0</ele><time>2026-05-03T17:43:58Z</time></trkpt><trkpt lat="44.63673355214752" lon="11.669336776898033"><ele>8.0</ele><time>2026-05-03T17:43:59Z</time></trkpt><trkpt lat="44.63688400062684" lon="11.669175042685893"><ele>7.666666666666666</ele><time>2026-05-03T17:44:00Z</time></trkpt><trkpt lat="44.637041144922655" lon="11.669016595016492"><ele>7.333333333333334</ele><time>2026-05-03T17:44:01Z</time></trkpt><trkpt lat="44.63720380608724" lon="11.668852252900626"><ele>7.0</ele><time>2026-05-03T17:44:02Z</time></trkpt><trkpt lat="44.63735896522474" lon="11.668692742388894"><ele>8.333333333333334</ele><time>2026-05-03T17:44:03Z</time></trkpt><trkpt lat="44.63753121969103" lon="11.668530687195412"><ele>9.666666666666666</ele><time>2026-05-03T17:44:04Z</time></trkpt><trkpt lat="44.637673770467565" lon="11.668364049604797"><ele>11.0</ele><time>2026-05-03T17:44:05Z</time></trkpt><trkpt lat="44.637824112427325" lon="11.668211565081474"><ele>11.0</ele><time>2026-05-03T17:44:06Z</time></trkpt><trkpt lat="44.63797441888075" lon="11.668054964997781"><ele>11.0</ele><time>2026-05-03T17:44:07Z</time></trkpt><trkpt lat="44.63813710987246" lon="11.6679158566342"><ele>11.0</ele><time>2026-05-03T17:44:08Z</time></trkpt><trkpt lat="44.638288887325615" lon="11.66775967541874"><ele>11.0</ele><time>2026-05-03T17:44:09Z</time></trkpt><trkpt lat="44.63843950505606" lon="11.66760507026659"><ele>11.0</ele><time>2026-05-03T17:44:10Z</time></trkpt><trkpt lat="44.63859566584228" lon="11.6674451134015"><ele>11.0</ele><time>2026-05-03T17:44:11Z</time></trkpt><trkpt lat="44.638749761641286" lon="11.667262798726982"><ele>10.666666666666666</ele><time>2026-05-03T17:44:12Z</time></trkpt><trkpt lat="44.63891422083253" lon="11.667094616047736"><ele>10.333333333333334</ele><time>2026-05-03T17:44:13Z</time></trkpt><trkpt lat="44.63908661483325" lon="11.666944290654238"><ele>10.0</ele><time>2026-05-03T17:44:14Z</time></trkpt><trkpt lat="44.639252985382306" lon="11.666774081182083"><ele>10.0</ele><time>2026-05-03T17:44:15Z</time></trkpt><trkpt lat="44.63941332904899" lon="11.66658484406152"><ele>10.0</ele><time>2026-05-03T17:44:16Z</time></trkpt><trkpt lat="44.63958191047796" lon="11.666412768149716"><ele>10.0</ele><time>2026-05-03T17:44:17Z</time></trkpt><trkpt lat="44.63975555234391" lon="11.666259836234673"><ele>9.333333333333334</ele><time>2026-05-03T17:44:18Z</time></trkpt><trkpt lat="44.639924652632914" lon="11.666088246523513"><ele>8.666666666666666</ele><time>2026-05-03T17:44:19Z</time></trkpt><trkpt lat="44.640084504925895" lon="11.665895908786164"><ele>8.0</ele><time>2026-05-03T17:44:20Z</time></trkpt><trkpt lat="44.640252944672646" lon="11.665723734060085"><ele>9.666666666666666</ele><time>2026-05-03T17:44:21Z</time></trkpt><trkpt lat="44.64042222629732" lon="11.665551189019773"><ele>11.333333333333332</ele><time>2026-05-03T17:44:22Z</time></trkpt><trkpt lat="44.640595018653876" lon="11.665376087241258"><ele>13.0</ele><time>2026-05-03T17:44:23Z</time></trkpt><trkpt lat="44.64076304856914" lon="11.665203232328832"><ele>13.0</ele><time>2026-05-03T17:44:24Z</time></trkpt><trkpt lat="44.640932459150704" lon="11.665030371189287"><ele>13.0</ele><time>2026-05-03T17:44:24.999Z</time></trkpt><trkpt lat="44.64110215322497" lon="11.664857076212893"><ele>13.0</ele><time>2026-05-03T17:44:25.999Z</time></trkpt><trkpt lat="44.641271411199426" lon="11.664682917530387"><ele>12.333333333333332</ele><time>2026-05-03T17:44:26.999Z</time></trkpt><trkpt lat="44.641438634036966" lon="11.664511779653157"><ele>11.666666666666666</ele><time>2026-05-03T17:44:27.999Z</time></trkpt><trkpt lat="44.64161072388408" lon="11.664339130367965"><ele>11.0</ele><time>2026-05-03T17:44:28.999Z</time></trkpt><trkpt lat="44.64177871895286" lon="11.664170518570229"><ele>10.666666666666666</ele><time>2026-05-03T17:44:29.999Z</time></trkpt><trkpt lat="44.64194552493431" lon="11.66400119102372"><ele>10.333333333333334</ele><time>2026-05-03T17:44:30.999Z</time></trkpt><trkpt lat="44.64211308627935" lon="11.66383123260146"><ele>10.0</ele><time>2026-05-03T17:44:31.999Z</time></trkpt><trkpt lat="44.64227998633954" lon="11.66366126952659"><ele>9.333333333333334</ele><time>2026-05-03T17:44:32.999Z</time></trkpt><trkpt lat="44.64244603021117" lon="11.663490753288576"><ele>8.666666666666666</ele><time>2026-05-03T17:44:33.999Z</time></trkpt><trkpt lat="44.64261235359066" lon="11.663321426607995"><ele>8.0</ele><time>2026-05-03T17:44:34.999Z</time></trkpt><trkpt lat="44.642777845794036" lon="11.663151714514932"><ele>7.333333333333333</ele><time>2026-05-03T17:44:35.999Z</time></trkpt><trkpt lat="44.64294747842708" lon="11.662978870982132"><ele>6.666666666666666</ele><time>2026-05-03T17:44:36.999Z</time></trkpt><trkpt lat="44.643116542490944" lon="11.662804600637983"><ele>6.0</ele><time>2026-05-03T17:44:37.999Z</time></trkpt><trkpt lat="44.64328296523794" lon="11.662633148579229"><ele>7.333333333333334</ele><time>2026-05-03T17:44:38.999Z</time></trkpt><trkpt lat="44.64344885311688" lon="11.662462576343332"><ele>8.666666666666668</ele><time>2026-05-03T17:44:39.999Z</time></trkpt><trkpt lat="44.64361695807993" lon="11.66229098740537"><ele>10.0</ele><time>2026-05-03T17:44:40.999Z</time></trkpt><trkpt lat="44.64378610189301" lon="11.66211931410413"><ele>10.666666666666668</ele><time>2026-05-03T17:44:41.999Z</time></trkpt><trkpt lat="44.64395830433937" lon="11.661947618746112"><ele>11.333333333333334</ele><time>2026-05-03T17:44:42.999Z</time></trkpt><trkpt lat="44.64412723230847" lon="11.661775566141815"><ele>12.0</ele><time>2026-05-03T17:44:43.999Z</time></trkpt><trkpt lat="44.64429953067394" lon="11.66160143470166"><ele>11.666666666666666</ele><time>2026-05-03T17:44:44.999Z</time></trkpt><trkpt lat="44.64446884550818" lon="11.661427058405918"><ele>11.333333333333332</ele><time>2026-05-03T17:44:45.999Z</time></trkpt><trkpt lat="44.64463776894589" lon="11.661261848102955"><ele>11.0</ele><time>2026-05-03T17:44:46.999Z</time></trkpt><trkpt lat="44.644799758859165" lon="11.661095727866426"><ele>10.666666666666666</ele><time>2026-05-03T17:44:47.999Z</time></trkpt><trkpt lat="44.64495332321359" lon="11.66094179118217"><ele>10.333333333333334</ele><time>2026-05-03T17:44:49Z</time></trkpt><trkpt lat="44.645094940808676" lon="11.660797400802533"><ele>10.0</ele><time>2026-05-03T17:44:50Z</time></trkpt><trkpt lat="44.64523606025811" lon="11.660654263491336"><ele>10.0</ele><time>2026-05-03T17:44:51Z</time></trkpt><trkpt lat="44.64537474240284" lon="11.660516282547299"><ele>10.0</ele><time>2026-05-03T17:44:52Z</time></trkpt><trkpt lat="44.64550593480217" lon="11.660384944431167"><ele>10.0</ele><time>2026-05-03T17:44:53Z</time></trkpt><trkpt lat="44.645626508239474" lon="11.660263777443902"><ele>10.0</ele><time>2026-05-03T17:44:54Z</time></trkpt><trkpt lat="44.64575186339681" lon="11.660138271547094"><ele>10.0</ele><time>2026-05-03T17:44:55Z</time></trkpt><trkpt lat="44.645876207785854" lon="11.66000644797657"><ele>10.0</ele><time>2026-05-03T17:44:56Z</time></trkpt><trkpt lat="44.64599705836995" lon="11.659857307972164"><ele>10.0</ele><time>2026-05-03T17:44:57Z</time></trkpt><trkpt lat="44.64610481485785" lon="11.659676109200907"><ele>10.0</ele><time>2026-05-03T17:44:58Z</time></trkpt><trkpt lat="44.6461916284583" lon="11.659461693138358"><ele>10.0</ele><time>2026-05-03T17:44:59Z</time></trkpt><trkpt lat="44.64626299640645" lon="11.659223995891542"><ele>9.666666666666668</ele><time>2026-05-03T17:45:00Z</time></trkpt><trkpt lat="44.64632453696028" lon="11.658975870593503"><ele>9.333333333333334</ele><time>2026-05-03T17:45:01Z</time></trkpt><trkpt lat="44.64638673357263" lon="11.65872358328223"><ele>9.0</ele><time>2026-05-03T17:45:02Z</time></trkpt><trkpt lat="44.64646171802036" lon="11.658473776866574"><ele>9.666666666666666</ele><time>2026-05-03T17:45:03Z</time></trkpt><trkpt lat="44.646537595659545" lon="11.658225138444173"><ele>10.333333333333332</ele><time>2026-05-03T17:45:04Z</time></trkpt><trkpt lat="44.64661275924049" lon="11.657964959486122"><ele>11.0</ele><time>2026-05-03T17:45:05Z</time></trkpt><trkpt lat="44.64669113137448" lon="11.657703468881902"><ele>11.0</ele><time>2026-05-03T17:45:06Z</time></trkpt><trkpt lat="44.64676457980129" lon="11.657445802710017"><ele>11.0</ele><time>2026-05-03T17:45:07Z</time></trkpt><trkpt lat="44.64683683438273" lon="11.657191729440385"><ele>11.0</ele><time>2026-05-03T17:45:08Z</time></trkpt><trkpt lat="44.64691334761" lon="11.656931987464775"><ele>10.333333333333332</ele><time>2026-05-03T17:45:09Z</time></trkpt><trkpt lat="44.646984962528606" lon="11.656677719539465"><ele>9.666666666666666</ele><time>2026-05-03T17:45:10Z</time></trkpt><trkpt lat="44.64705841666781" lon="11.656414356649849"><ele>9.0</ele><time>2026-05-03T17:45:11Z</time></trkpt><trkpt lat="44.6471331955461" lon="11.656151439543889"><ele>8.666666666666666</ele><time>2026-05-03T17:45:12Z</time></trkpt><trkpt lat="44.64720861968609" lon="11.655884482625844"><ele>8.333333333333332</ele><time>2026-05-03T17:45:13Z</time></trkpt><trkpt lat="44.647288712063826" lon="11.655619340009375"><ele>8.0</ele><time>2026-05-03T17:45:14Z</time></trkpt><trkpt lat="44.64736958373916" lon="11.655346192763178"><ele>8.0</ele><time>2026-05-03T17:45:15Z</time></trkpt><trkpt lat="44.647446508400186" lon="11.655079929084314"><ele>8.0</ele><time>2026-05-03T17:45:16Z</time></trkpt><trkpt lat="44.64752150151604" lon="11.654814015291269"><ele>8.0</ele><time>2026-05-03T17:45:17Z</time></trkpt><trkpt lat="44.64759701094033" lon="11.654547462684846"><ele>8.0</ele><time>2026-05-03T17:45:18Z</time></trkpt><trkpt lat="44.647672937014036" lon="11.654283873826415"><ele>8.0</ele><time>2026-05-03T17:45:19Z</time></trkpt><trkpt lat="44.647748903519705" lon="11.65402555042761"><ele>8.0</ele><time>2026-05-03T17:45:20Z</time></trkpt><trkpt lat="44.64782699317962" lon="11.653761649959371"><ele>8.333333333333332</ele><time>2026-05-03T17:45:21Z</time></trkpt><trkpt lat="44.647905157232266" lon="11.653497004119068"><ele>8.666666666666666</ele><time>2026-05-03T17:45:22Z</time></trkpt><trkpt lat="44.64797610293034" lon="11.6532305940688"><ele>9.0</ele><time>2026-05-03T17:45:23Z</time></trkpt><trkpt lat="44.64805139260257" lon="11.65296585238037"><ele>9.0</ele><time>2026-05-03T17:45:24Z</time></trkpt><trkpt lat="44.64812515458781" lon="11.652708636220106"><ele>9.0</ele><time>2026-05-03T17:45:25Z</time></trkpt><trkpt lat="44.64820169259446" lon="11.652456744670394"><ele>9.0</ele><time>2026-05-03T17:45:26Z</time></trkpt><trkpt lat="44.648272486082654" lon="11.652201542238085"><ele>9.0</ele><time>2026-05-03T17:45:27Z</time></trkpt><trkpt lat="44.64834528905533" lon="11.651945712947468"><ele>9.0</ele><time>2026-05-03T17:45:28Z</time></trkpt><trkpt lat="44.648407589829645" lon="11.651709140786451"><ele>9.0</ele><time>2026-05-03T17:45:29Z</time></trkpt><trkpt lat="44.64847543005567" lon="11.651487029956817"><ele>9.0</ele><time>2026-05-03T17:45:30Z</time></trkpt><trkpt lat="44.648545338365885" lon="11.651257822222552"><ele>9.0</ele><time>2026-05-03T17:45:31Z</time></trkpt><trkpt lat="44.64862524456041" lon="11.65103083209889"><ele>9.0</ele><time>2026-05-03T17:45:32Z</time></trkpt><trkpt lat="44.648710062732924" lon="11.650807070931153"><ele>9.0</ele><time>2026-05-03T17:45:33Z</time></trkpt><trkpt lat="44.64880985491769" lon="11.650587511132883"><ele>9.0</ele><time>2026-05-03T17:45:34Z</time></trkpt><trkpt lat="44.64892237640433" lon="11.650378857522005"><ele>9.0</ele><time>2026-05-03T17:45:35Z</time></trkpt><trkpt lat="44.64904644907543" lon="11.650187438524972"><ele>9.0</ele><time>2026-05-03T17:45:36Z</time></trkpt><trkpt lat="44.6491820455933" lon="11.650002361012273"><ele>9.0</ele><time>2026-05-03T17:45:37Z</time></trkpt><trkpt lat="44.64932330198947" lon="11.649824473116459"><ele>9.0</ele><time>2026-05-03T17:45:38Z</time></trkpt><trkpt lat="44.649618127149054" lon="11.64947256077378"><ele>8.0</ele><time>2026-05-03T17:45:40Z</time></trkpt><trkpt lat="44.6497644637391" lon="11.649295400812527"><ele>7.0</ele><time>2026-05-03T17:45:41Z</time></trkpt><trkpt lat="44.64990981443959" lon="11.649118269702136"><ele>6.0</ele><time>2026-05-03T17:45:42Z</time></trkpt><trkpt lat="44.650058192513114" lon="11.648932353132937"><ele>6.0</ele><time>2026-05-03T17:45:43Z</time></trkpt><trkpt lat="44.650206237609304" lon="11.648754966521848"><ele>6.0</ele><time>2026-05-03T17:45:44Z</time></trkpt><trkpt lat="44.650347129420965" lon="11.648585209604327"><ele>6.0</ele><time>2026-05-03T17:45:45Z</time></trkpt><trkpt lat="44.65047855069513" lon="11.648429778893941"><ele>6.333333333333334</ele><time>2026-05-03T17:45:46Z</time></trkpt><trkpt lat="44.65060270656099" lon="11.648280779856117"><ele>6.666666666666667</ele><time>2026-05-03T17:45:47Z</time></trkpt><trkpt lat="44.650727373258185" lon="11.648136134967261"><ele>7.0</ele><time>2026-05-03T17:45:48Z</time></trkpt><trkpt lat="44.65085384362884" lon="11.647985158742312"><ele>7.0</ele><time>2026-05-03T17:45:49Z</time></trkpt><trkpt lat="44.650979668809896" lon="11.647836592849723"><ele>7.0</ele><time>2026-05-03T17:45:50Z</time></trkpt><trkpt lat="44.65110198442413" lon="11.6476865958513"><ele>7.0</ele><time>2026-05-03T17:45:51Z</time></trkpt><trkpt lat="44.65123057452378" lon="11.647526182098613"><ele>7.333333333333334</ele><time>2026-05-03T17:45:52Z</time></trkpt><trkpt lat="44.65136082799827" lon="11.647362386449908"><ele>7.666666666666666</ele><time>2026-05-03T17:45:53Z</time></trkpt><trkpt lat="44.65149965578833" lon="11.647189701429562"><ele>8.0</ele><time>2026-05-03T17:45:54Z</time></trkpt><trkpt lat="44.65164266869018" lon="11.647015148743824"><ele>8.333333333333332</ele><time>2026-05-03T17:45:55Z</time></trkpt><trkpt lat="44.65179328597549" lon="11.646837989817655"><ele>8.666666666666666</ele><time>2026-05-03T17:45:56Z</time></trkpt><trkpt lat="44.651943575923674" lon="11.646660409310483"><ele>9.0</ele><time>2026-05-03T17:45:57Z</time></trkpt><trkpt lat="44.652089904291664" lon="11.646484435873509"><ele>8.333333333333334</ele><time>2026-05-03T17:45:58Z</time></trkpt><trkpt lat="44.65222869145352" lon="11.646307067897867"><ele>7.666666666666667</ele><time>2026-05-03T17:45:59Z</time></trkpt><trkpt lat="44.652381013406846" lon="11.646121273281965"><ele>7.0</ele><time>2026-05-03T17:46:00Z</time></trkpt><trkpt lat="44.65253285672896" lon="11.645933608741016"><ele>7.0</ele><time>2026-05-03T17:46:01Z</time></trkpt><trkpt lat="44.65267423175416" lon="11.645759386525473"><ele>7.0</ele><time>2026-05-03T17:46:02Z</time></trkpt><trkpt lat="44.65280629790895" lon="11.645593934541125"><ele>7.0</ele><time>2026-05-03T17:46:03Z</time></trkpt><trkpt lat="44.652942058703516" lon="11.645432126081372"><ele>7.333333333333334</ele><time>2026-05-03T17:46:04Z</time></trkpt><trkpt lat="44.653075848300396" lon="11.645274118441893"><ele>7.666666666666666</ele><time>2026-05-03T17:46:05Z</time></trkpt><trkpt lat="44.65320017724578" lon="11.645126108623566"><ele>8.0</ele><time>2026-05-03T17:46:06Z</time></trkpt><trkpt lat="44.653318044047325" lon="11.644985836749132"><ele>8.0</ele><time>2026-05-03T17:46:07Z</time></trkpt><trkpt lat="44.65344098739814" lon="11.644835700422114"><ele>8.0</ele><time>2026-05-03T17:46:08Z</time></trkpt><trkpt lat="44.653557099046004" lon="11.644690333973767"><ele>8.0</ele><time>2026-05-03T17:46:09Z</time></trkpt><trkpt lat="44.65366584760595" lon="11.644560309531936"><ele>8.0</ele><time>2026-05-03T17:46:10Z</time></trkpt><trkpt lat="44.65376446766942" lon="11.644439282649783"><ele>8.0</ele><time>2026-05-03T17:46:11Z</time></trkpt><trkpt lat="44.653856616959814" lon="11.64432458331453"><ele>8.0</ele><time>2026-05-03T17:46:12Z</time></trkpt><trkpt lat="44.65395125609478" lon="11.644208664721237"><ele>8.0</ele><time>2026-05-03T17:46:13Z</time></trkpt><trkpt lat="44.65404556295417" lon="11.644099292060295"><ele>7.999999999999999</ele><time>2026-05-03T17:46:14Z</time></trkpt><trkpt lat="44.65411917455542" lon="11.644008429528007"><ele>8.0</ele><time>2026-05-03T17:46:15Z</time></trkpt><trkpt lat="44.65417533956914" lon="11.643942560497875"><ele>8.0</ele><time>2026-05-03T17:46:16Z</time></trkpt><trkpt lat="44.65422996967906" lon="11.643885352750024"><ele>8.0</ele><time>2026-05-03T17:46:17Z</time></trkpt><trkpt lat="44.654313552394626" lon="11.643787063999943"><ele>7.999999999999999</ele><time>2026-05-03T17:46:19Z</time></trkpt><trkpt lat="44.65438258842419" lon="11.643711042835362"><ele>8.0</ele><time>2026-05-03T17:46:21Z</time></trkpt><trkpt lat="44.65444616928366" lon="11.64364664130994"><ele>7.800000000000001</ele><time>2026-05-03T17:46:23Z</time></trkpt><trkpt lat="44.65451046999532" lon="11.643598942300478"><ele>7.6000000000000005</ele><time>2026-05-03T17:46:26Z</time></trkpt><trkpt lat="44.654573115935584" lon="11.643531365164955"><ele>7.3999999999999995</ele><time>2026-05-03T17:47:00Z</time></trkpt><trkpt lat="44.65465346915167" lon="11.643443817954816"><ele>7.199999999999999</ele><time>2026-05-03T17:47:03Z</time></trkpt><trkpt lat="44.65473082693151" lon="11.643348787924566"><ele>7.0</ele><time>2026-05-03T17:47:05Z</time></trkpt><trkpt lat="44.6548264264406" lon="11.643251402831615"><ele>7.0</ele><time>2026-05-03T17:47:07Z</time></trkpt><trkpt lat="44.654939340573854" lon="11.643178922715455"><ele>7.0</ele><time>2026-05-03T17:47:09Z</time></trkpt><trkpt lat="44.65505772295219" lon="11.643314080993079"><ele>7.0</ele><time>2026-05-03T17:47:11Z</time></trkpt><trkpt lat="44.655117777829766" lon="11.643445461543497"><ele>7.0</ele><time>2026-05-03T17:47:12Z</time></trkpt><trkpt lat="44.655175714064626" lon="11.643564077802553"><ele>7.25</ele><time>2026-05-03T17:47:13Z</time></trkpt><trkpt lat="44.655221023404486" lon="11.64365780889683"><ele>7.5</ele><time>2026-05-03T17:47:14Z</time></trkpt><trkpt lat="44.65526166986749" lon="11.643741000615385"><ele>7.75</ele><time>2026-05-03T17:47:15Z</time></trkpt><trkpt lat="44.65544384004874" lon="11.64368401302295"><ele>8.0</ele><time>2026-05-03T17:47:17Z</time></trkpt><trkpt lat="44.655540242065676" lon="11.643583307938007"><ele>8.5</ele><time>2026-05-03T17:47:18Z</time></trkpt><trkpt lat="44.655642492265" lon="11.643453902750444"><ele>9.0</ele><time>2026-05-03T17:47:19Z</time></trkpt><trkpt lat="44.65575118665611" lon="11.643330078626336"><ele>9.5</ele><time>2026-05-03T17:47:20Z</time></trkpt><trkpt lat="44.65587371174109" lon="11.64319565659648"><ele>10.0</ele><time>2026-05-03T17:47:21Z</time></trkpt><trkpt lat="44.655987262567756" lon="11.643073290958224"><ele>10.0</ele><time>2026-05-03T17:47:22Z</time></trkpt><trkpt lat="44.65609139043552" lon="11.642963192810564"><ele>10.0</ele><time>2026-05-03T17:47:23Z</time></trkpt><trkpt lat="44.65619561859134" lon="11.64284924357253"><ele>10.0</ele><time>2026-05-03T17:47:24Z</time></trkpt><trkpt lat="44.65630907176406" lon="11.64272622069787"><ele>10.0</ele><time>2026-05-03T17:47:25Z</time></trkpt><trkpt lat="44.65642124997539" lon="11.642610662475697"><ele>9.5</ele><time>2026-05-03T17:47:26Z</time></trkpt><trkpt lat="44.65651744554791" lon="11.642504029357795"><ele>9.0</ele><time>2026-05-03T17:47:27Z</time></trkpt><trkpt lat="44.65661681916058" lon="11.64239304519169"><ele>8.5</ele><time>2026-05-03T17:47:28Z</time></trkpt><trkpt lat="44.656715606908705" lon="11.64228061709744"><ele>8.0</ele><time>2026-05-03T17:47:29Z</time></trkpt><trkpt lat="44.65680576298224" lon="11.642184906924264"><ele>8.0</ele><time>2026-05-03T17:47:30Z</time></trkpt><trkpt lat="44.65689248140753" lon="11.642113586254213"><ele>8.0</ele><time>2026-05-03T17:47:31Z</time></trkpt><trkpt lat="44.65700103604057" lon="11.642081348000655"><ele>8.0</ele><time>2026-05-03T17:47:32Z</time></trkpt><trkpt lat="44.65711697927352" lon="11.642117561468881"><ele>8.0</ele><time>2026-05-03T17:47:33Z</time></trkpt><trkpt lat="44.65724795986361" lon="11.64221379909426"><ele>7.666666666666666</ele><time>2026-05-03T17:47:34Z</time></trkpt><trkpt lat="44.657382303953305" lon="11.642327932459606"><ele>7.333333333333334</ele><time>2026-05-03T17:47:35Z</time></trkpt><trkpt lat="44.657512029945984" lon="11.642420654090065"><ele>7.0</ele><time>2026-05-03T17:47:36Z</time></trkpt><trkpt lat="44.65764693872788" lon="11.642505295461106"><ele>7.0</ele><time>2026-05-03T17:47:37Z</time></trkpt><trkpt lat="44.657782814268465" lon="11.642591101776963"><ele>7.0</ele><time>2026-05-03T17:47:38Z</time></trkpt><trkpt lat="44.657915784790035" lon="11.642673874616978"><ele>7.0</ele><time>2026-05-03T17:47:39Z</time></trkpt><trkpt lat="44.658042832225355" lon="11.642752965411502"><ele>7.0</ele><time>2026-05-03T17:47:40Z</time></trkpt><trkpt lat="44.658166790543575" lon="11.642829518368172"><ele>7.75</ele><time>2026-05-03T17:47:41Z</time></trkpt><trkpt lat="44.6582964265371" lon="11.642909390376957"><ele>8.5</ele><time>2026-05-03T17:47:42Z</time></trkpt><trkpt lat="44.65842579715981" lon="11.64298179715556"><ele>9.25</ele><time>2026-05-03T17:47:43Z</time></trkpt><trkpt lat="44.658549964393366" lon="11.643050276823733"><ele>10.0</ele><time>2026-05-03T17:47:44Z</time></trkpt><trkpt lat="44.658658781468304" lon="11.643118740211715"><ele>10.0</ele><time>2026-05-03T17:47:45Z</time></trkpt><trkpt lat="44.658752310291966" lon="11.643179988959217"><ele>10.0</ele><time>2026-05-03T17:47:46Z</time></trkpt><trkpt lat="44.65883111500303" lon="11.643237696827272"><ele>10.0</ele><time>2026-05-03T17:47:47Z</time></trkpt><trkpt lat="44.658912708125015" lon="11.643299119529859"><ele>10.0</ele><time>2026-05-03T17:47:48Z</time></trkpt><trkpt lat="44.65900087850725" lon="11.64337756758269"><ele>10.0</ele><time>2026-05-03T17:47:49Z</time></trkpt><trkpt lat="44.659082356266424" lon="11.643487285835436"><ele>10.0</ele><time>2026-05-03T17:47:50Z</time></trkpt><trkpt lat="44.65916807132292" lon="11.643627814886615"><ele>10.0</ele><time>2026-05-03T17:47:51Z</time></trkpt><trkpt lat="44.6592547918904" lon="11.643765613304721"><ele>10.0</ele><time>2026-05-03T17:47:52Z</time></trkpt><trkpt lat="44.65932785635677" lon="11.643880287501515"><ele>10.0</ele><time>2026-05-03T17:47:53Z</time></trkpt><trkpt lat="44.659393755838614" lon="11.643979822112737"><ele>10.4</ele><time>2026-05-03T17:47:54Z</time></trkpt><trkpt lat="44.65945802480474" lon="11.644076672308278"><ele>10.8</ele><time>2026-05-03T17:47:55Z</time></trkpt><trkpt lat="44.659515130846074" lon="11.644164690522485"><ele>11.2</ele><time>2026-05-03T17:47:56Z</time></trkpt><trkpt lat="44.65956328116978" lon="11.644232704180329"><ele>11.6</ele><time>2026-05-03T17:47:57Z</time></trkpt><trkpt lat="44.6596793421832" lon="11.644304859579657"><ele>12.0</ele><time>2026-05-03T17:47:59Z</time></trkpt><trkpt lat="44.65976821197458" lon="11.644292820627323"><ele>12.0</ele><time>2026-05-03T17:48:00Z</time></trkpt><trkpt lat="44.65986092617781" lon="11.644241376682391"><ele>12.0</ele><time>2026-05-03T17:48:01.001Z</time></trkpt><trkpt lat="44.659942065000585" lon="11.644182978580092"><ele>12.0</ele><time>2026-05-03T17:48:02.001Z</time></trkpt><trkpt lat="44.66001362241396" lon="11.644159551775934"><ele>12.0</ele><time>2026-05-03T17:48:03.001Z</time></trkpt><trkpt lat="44.66009144334249" lon="11.6441673094879"><ele>12.0</ele><time>2026-05-03T17:48:04.001Z</time></trkpt><trkpt lat="44.66016791003804" lon="11.644184751758115"><ele>12.0</ele><time>2026-05-03T17:48:05.001Z</time></trkpt><trkpt lat="44.660255234964126" lon="11.644231370855566"><ele>11.666666666666666</ele><time>2026-05-03T17:48:06.001Z</time></trkpt><trkpt lat="44.66033247578706" lon="11.64428214724239"><ele>11.333333333333334</ele><time>2026-05-03T17:48:07.001Z</time></trkpt><trkpt lat="44.660397943673296" lon="11.644320478828023"><ele>11.0</ele><time>2026-05-03T17:48:08.001Z</time></trkpt><trkpt lat="44.660472398414946" lon="11.644394671691256"><ele>10.666666666666668</ele><time>2026-05-03T17:48:10.001Z</time></trkpt><trkpt lat="44.6605648855709" lon="11.64444893318842"><ele>10.333333333333334</ele><time>2026-05-03T17:48:13.001Z</time></trkpt><trkpt lat="44.660627703927986" lon="11.644495037487196"><ele>10.0</ele><time>2026-05-03T17:48:16.001Z</time></trkpt><trkpt lat="44.660683631503275" lon="11.644535694549473"><ele>9.8</ele><time>2026-05-03T17:48:20.001Z</time></trkpt><trkpt lat="44.660765341203046" lon="11.644577687878854"><ele>9.6</ele><time>2026-05-03T17:49:04Z</time></trkpt><trkpt lat="44.66087326532398" lon="11.644647131615184"><ele>9.4</ele><time>2026-05-03T17:49:06Z</time></trkpt><trkpt lat="44.660942693129265" lon="11.644691158842523"><ele>9.2</ele><time>2026-05-03T17:49:07Z</time></trkpt><trkpt lat="44.661039971541776" lon="11.644753336109257"><ele>9.0</ele><time>2026-05-03T17:49:08Z</time></trkpt><trkpt lat="44.66116616498983" lon="11.6448338073042"><ele>9.0</ele><time>2026-05-03T17:49:09Z</time></trkpt><trkpt lat="44.661302460863496" lon="11.644923547918173"><ele>9.0</ele><time>2026-05-03T17:49:10Z</time></trkpt><trkpt lat="44.6614402236665" lon="11.645015136838841"><ele>9.0</ele><time>2026-05-03T17:49:11Z</time></trkpt><trkpt lat="44.661570059947636" lon="11.645101456011393"><ele>9.0</ele><time>2026-05-03T17:49:12Z</time></trkpt><trkpt lat="44.66169715687808" lon="11.645185953819645"><ele>9.0</ele><time>2026-05-03T17:49:13Z</time></trkpt><trkpt lat="44.66182542309002" lon="11.645271230720237"><ele>9.0</ele><time>2026-05-03T17:49:14Z</time></trkpt><trkpt lat="44.66196305412747" lon="11.645331784701185"><ele>9.0</ele><time>2026-05-03T17:49:15Z</time></trkpt><trkpt lat="44.662112098466594" lon="11.645425024205915"><ele>9.0</ele><time>2026-05-03T17:49:16Z</time></trkpt><trkpt lat="44.6622680739238" lon="11.645527827463711"><ele>9.0</ele><time>2026-05-03T17:49:17Z</time></trkpt><trkpt lat="44.66241994160482" lon="11.645636451507219"><ele>9.0</ele><time>2026-05-03T17:49:18Z</time></trkpt><trkpt lat="44.66257012767779" lon="11.645736665760904"><ele>9.0</ele><time>2026-05-03T17:49:19Z</time></trkpt><trkpt lat="44.66270166749557" lon="11.645855158335342"><ele>9.25</ele><time>2026-05-03T17:49:20Z</time></trkpt><trkpt lat="44.6628411559121" lon="11.645947616821154"><ele>9.5</ele><time>2026-05-03T17:49:21Z</time></trkpt><trkpt lat="44.6629729313993" lon="11.646034853099211"><ele>9.75</ele><time>2026-05-03T17:49:22Z</time></trkpt><trkpt lat="44.66310276355669" lon="11.646120799755913"><ele>10.0</ele><time>2026-05-03T17:49:23Z</time></trkpt><trkpt lat="44.663239333057206" lon="11.64618464147218"><ele>10.0</ele><time>2026-05-03T17:49:24Z</time></trkpt><trkpt lat="44.663364275104655" lon="11.646268649474825"><ele>10.0</ele><time>2026-05-03T17:49:25Z</time></trkpt><trkpt lat="44.66348741425126" lon="11.646349622523285"><ele>10.0</ele><time>2026-05-03T17:49:26Z</time></trkpt><trkpt lat="44.66360893102694" lon="11.646431127886796"><ele>10.0</ele><time>2026-05-03T17:49:27Z</time></trkpt><trkpt lat="44.663731033090286" lon="11.646513140329482"><ele>9.5</ele><time>2026-05-03T17:49:28Z</time></trkpt><trkpt lat="44.6638543006357" lon="11.64659486235201"><ele>9.0</ele><time>2026-05-03T17:49:29Z</time></trkpt><trkpt lat="44.66397264385359" lon="11.646676796638582"><ele>8.5</ele><time>2026-05-03T17:49:30Z</time></trkpt><trkpt lat="44.66409144098038" lon="11.64675898122491"><ele>8.0</ele><time>2026-05-03T17:49:31Z</time></trkpt><trkpt lat="44.664216176008985" lon="11.6468386689016"><ele>8.0</ele><time>2026-05-03T17:49:32Z</time></trkpt><trkpt lat="44.6643314584156" lon="11.646918403407314"><ele>8.0</ele><time>2026-05-03T17:49:33Z</time></trkpt><trkpt lat="44.66445171036819" lon="11.64699507053398"><ele>8.0</ele><time>2026-05-03T17:49:34Z</time></trkpt><trkpt lat="44.66457746056722" lon="11.647071276143832"><ele>8.0</ele><time>2026-05-03T17:49:35Z</time></trkpt><trkpt lat="44.664706253132806" lon="11.647148043832894"><ele>8.25</ele><time>2026-05-03T17:49:36Z</time></trkpt><trkpt lat="44.664839242685794" lon="11.647232159007064"><ele>8.5</ele><time>2026-05-03T17:49:37Z</time></trkpt><trkpt lat="44.66497165304978" lon="11.647321051767966"><ele>8.75</ele><time>2026-05-03T17:49:38Z</time></trkpt><trkpt lat="44.665097664243994" lon="11.647405226254708"><ele>9.0</ele><time>2026-05-03T17:49:39Z</time></trkpt><trkpt lat="44.66522963023447" lon="11.647493010285734"><ele>9.0</ele><time>2026-05-03T17:49:40Z</time></trkpt><trkpt lat="44.665357390786795" lon="11.647574918764503"><ele>9.0</ele><time>2026-05-03T17:49:41Z</time></trkpt><trkpt lat="44.66548344555634" lon="11.647661283584196"><ele>9.0</ele><time>2026-05-03T17:49:42Z</time></trkpt><trkpt lat="44.66561116057752" lon="11.647749607510637"><ele>9.0</ele><time>2026-05-03T17:49:43Z</time></trkpt><trkpt lat="44.665734444961906" lon="11.64783555399025"><ele>9.0</ele><time>2026-05-03T17:49:44Z</time></trkpt><trkpt lat="44.66586281195501" lon="11.647927370216639"><ele>9.0</ele><time>2026-05-03T17:49:45.001Z</time></trkpt><trkpt lat="44.66598880982198" lon="11.648024765136853"><ele>9.0</ele><time>2026-05-03T17:49:46.001Z</time></trkpt><trkpt lat="44.6661122452703" lon="11.648119662450611"><ele>9.0</ele><time>2026-05-03T17:49:47.001Z</time></trkpt><trkpt lat="44.66623581777775" lon="11.64821848342827"><ele>8.75</ele><time>2026-05-03T17:49:48.001Z</time></trkpt><trkpt lat="44.66636098320564" lon="11.648314711787464"><ele>8.5</ele><time>2026-05-03T17:49:49.001Z</time></trkpt><trkpt lat="44.66648095954608" lon="11.648410726498179"><ele>8.25</ele><time>2026-05-03T17:49:50.001Z</time></trkpt><trkpt lat="44.66660561465887" lon="11.648508742085303"><ele>8.0</ele><time>2026-05-03T17:49:51.001Z</time></trkpt><trkpt lat="44.66673235197049" lon="11.648609016037716"><ele>7.75</ele><time>2026-05-03T17:49:52.001Z</time></trkpt><trkpt lat="44.66686019691051" lon="11.648708867523467"><ele>7.5</ele><time>2026-05-03T17:49:53.001Z</time></trkpt><trkpt lat="44.66698720809075" lon="11.648803808968596"><ele>7.25</ele><time>2026-05-03T17:49:54.001Z</time></trkpt><trkpt lat="44.66711619938534" lon="11.64890269521134"><ele>7.0</ele><time>2026-05-03T17:49:55.001Z</time></trkpt><trkpt lat="44.667240957158086" lon="11.649000907070297"><ele>7.0</ele><time>2026-05-03T17:49:56.001Z</time></trkpt><trkpt lat="44.667368360757884" lon="11.64910137701788"><ele>7.0</ele><time>2026-05-03T17:49:57.001Z</time></trkpt><trkpt lat="44.66749522095729" lon="11.649201242541658"><ele>7.0</ele><time>2026-05-03T17:49:58.001Z</time></trkpt><trkpt lat="44.66762266919679" lon="11.649309719314841"><ele>7.0</ele><time>2026-05-03T17:49:59.001Z</time></trkpt><trkpt lat="44.66774805724687" lon="11.649412534420067"><ele>7.5</ele><time>2026-05-03T17:50:00.001Z</time></trkpt><trkpt lat="44.66787498209967" lon="11.649513276758869"><ele>8.0</ele><time>2026-05-03T17:50:01.001Z</time></trkpt><trkpt lat="44.668001757243566" lon="11.649618234387527"><ele>8.5</ele><time>2026-05-03T17:50:02.001Z</time></trkpt><trkpt lat="44.66812896264724" lon="11.649717754391235"><ele>9.0</ele><time>2026-05-03T17:50:03.001Z</time></trkpt><trkpt lat="44.6682564969642" lon="11.649825494752731"><ele>9.0</ele><time>2026-05-03T17:50:04.001Z</time></trkpt><trkpt lat="44.668385530909156" lon="11.649931791363406"><ele>9.0</ele><time>2026-05-03T17:50:05.001Z</time></trkpt><trkpt lat="44.66851125602151" lon="11.65004442365342"><ele>9.0</ele><time>2026-05-03T17:50:06.001Z</time></trkpt><trkpt lat="44.66863571286058" lon="11.650159069131051"><ele>9.0</ele><time>2026-05-03T17:50:07.001Z</time></trkpt><trkpt lat="44.66876347458997" lon="11.650266188152148"><ele>8.75</ele><time>2026-05-03T17:50:08.001Z</time></trkpt><trkpt lat="44.66888697715769" lon="11.650383062628187"><ele>8.5</ele><time>2026-05-03T17:50:09.001Z</time></trkpt><trkpt lat="44.669006076225095" lon="11.65050242124869"><ele>8.25</ele><time>2026-05-03T17:50:10.001Z</time></trkpt><trkpt lat="44.66912965401601" lon="11.650618066909448"><ele>8.0</ele><time>2026-05-03T17:50:11.001Z</time></trkpt><trkpt lat="44.669252181019864" lon="11.650733051620206"><ele>8.0</ele><time>2026-05-03T17:50:12.001Z</time></trkpt><trkpt lat="44.669381036977974" lon="11.650849647022827"><ele>8.0</ele><time>2026-05-03T17:50:13.001Z</time></trkpt><trkpt lat="44.66951007210695" lon="11.650962924520172"><ele>8.0</ele><time>2026-05-03T17:50:14.001Z</time></trkpt><trkpt lat="44.66962907296183" lon="11.651077383707111"><ele>8.0</ele><time>2026-05-03T17:50:15.001Z</time></trkpt><trkpt lat="44.669747560758935" lon="11.651184512139627"><ele>8.0</ele><time>2026-05-03T17:50:16.001Z</time></trkpt><trkpt lat="44.66986742554162" lon="11.65129382869063"><ele>8.0</ele><time>2026-05-03T17:50:17.001Z</time></trkpt><trkpt lat="44.669981922376735" lon="11.651405187886883"><ele>8.0</ele><time>2026-05-03T17:50:18.001Z</time></trkpt><trkpt lat="44.67010998567292" lon="11.651499355905784"><ele>8.0</ele><time>2026-05-03T17:50:19.001Z</time></trkpt><trkpt lat="44.67022764336493" lon="11.651616548595563"><ele>8.0</ele><time>2026-05-03T17:50:20.001Z</time></trkpt><trkpt lat="44.670337981737134" lon="11.651728871846444"><ele>8.0</ele><time>2026-05-03T17:50:21.001Z</time></trkpt><trkpt lat="44.6704590179815" lon="11.651844694591158"><ele>8.0</ele><time>2026-05-03T17:50:22.001Z</time></trkpt><trkpt lat="44.670580854529916" lon="11.651960727066289"><ele>8.0</ele><time>2026-05-03T17:50:23.001Z</time></trkpt><trkpt lat="44.67070414519645" lon="11.6520834970158"><ele>8.0</ele><time>2026-05-03T17:50:24.001Z</time></trkpt><trkpt lat="44.670824385040554" lon="11.652205946908298"><ele>8.0</ele><time>2026-05-03T17:50:25.001Z</time></trkpt><trkpt lat="44.67093929730522" lon="11.652321414139099"><ele>8.0</ele><time>2026-05-03T17:50:26.001Z</time></trkpt><trkpt lat="44.67104343564814" lon="11.652426821287325"><ele>8.0</ele><time>2026-05-03T17:50:27.001Z</time></trkpt><trkpt lat="44.67114498142138" lon="11.65253247442881"><ele>8.0</ele><time>2026-05-03T17:50:28.001Z</time></trkpt><trkpt lat="44.671243610809995" lon="11.652633889237999"><ele>8.0</ele><time>2026-05-03T17:50:29.001Z</time></trkpt><trkpt lat="44.67132960288571" lon="11.652733095844031"><ele>8.0</ele><time>2026-05-03T17:50:30.001Z</time></trkpt><trkpt lat="44.671411094292154" lon="11.652825016304465"><ele>7.999999999999999</ele><time>2026-05-03T17:50:31.001Z</time></trkpt><trkpt lat="44.67147570094788" lon="11.652908075428813"><ele>8.0</ele><time>2026-05-03T17:50:32.001Z</time></trkpt><trkpt lat="44.67153222867679" lon="11.652979443085727"><ele>8.0</ele><time>2026-05-03T17:50:33.001Z</time></trkpt><trkpt lat="44.67159262169029" lon="11.65307720180295"><ele>8.0</ele><time>2026-05-03T17:50:35.001Z</time></trkpt><trkpt lat="44.671694102806875" lon="11.652990778096008"><ele>7.999999999999999</ele><time>2026-05-03T17:50:37.001Z</time></trkpt><trkpt lat="44.67174286098148" lon="11.652930340108167"><ele>8.0</ele><time>2026-05-03T17:50:38.001Z</time></trkpt><trkpt lat="44.67180698351188" lon="11.652870026041764"><ele>8.0</ele><time>2026-05-03T17:50:39.001Z</time></trkpt><trkpt lat="44.6718888137999" lon="11.652798201016132"><ele>8.0</ele><time>2026-05-03T17:50:40.001Z</time></trkpt><trkpt lat="44.671969270607725" lon="11.652723733106047"><ele>8.0</ele><time>2026-05-03T17:50:41.001Z</time></trkpt><trkpt lat="44.672032613359626" lon="11.652667886063835"><ele>8.0</ele><time>2026-05-03T17:50:42.001Z</time></trkpt><trkpt lat="44.67212921181773" lon="11.652571508141985"><ele>8.0</ele><time>2026-05-03T17:50:44Z</time></trkpt><trkpt lat="44.67223287878182" lon="11.652477263361474"><ele>7.833333333333333</ele><time>2026-05-03T17:50:46Z</time></trkpt><trkpt lat="44.67231863021066" lon="11.652387585151075"><ele>7.666666666666666</ele><time>2026-05-03T17:50:48Z</time></trkpt><trkpt lat="44.67240384428787" lon="11.652304095183277"><ele>7.5</ele><time>2026-05-03T17:50:50Z</time></trkpt><trkpt lat="44.67247955494084" lon="11.652251602256813"><ele>7.333333333333334</ele><time>2026-05-03T17:50:52Z</time></trkpt><trkpt lat="44.672544511291065" lon="11.65219156527748"><ele>7.166666666666667</ele><time>2026-05-03T17:50:54Z</time></trkpt><trkpt lat="44.672602536940374" lon="11.652155889149142"><ele>7.0</ele><time>2026-05-03T17:50:58Z</time></trkpt><trkpt lat="44.672736330192734" lon="11.652333635419222"><ele>7.000000000000001</ele><time>2026-05-03T17:51:32Z</time></trkpt><trkpt lat="44.67278744017503" lon="11.6524338613718"><ele>7.0</ele><time>2026-05-03T17:51:35Z</time></trkpt><trkpt lat="44.672738370725426" lon="11.652522920097237"><ele>7.0</ele><time>2026-05-03T17:51:38Z</time></trkpt><trkpt lat="44.672673863279776" lon="11.652540477176137"><ele>7.0</ele><time>2026-05-03T17:51:42Z</time></trkpt><trkpt lat="44.67267645679796" lon="11.65241301854632"><ele>7.000000000000001</ele><time>2026-05-03T17:52:22.001Z</time></trkpt><trkpt lat="44.67263950924104" lon="11.652335977277634"><ele>7.0</ele><time>2026-05-03T17:52:25.001Z</time></trkpt><trkpt lat="44.67257845270633" lon="11.652171902256288"><ele>7.0</ele><time>2026-05-03T17:52:28.001Z</time></trkpt><trkpt lat="44.672540331342276" lon="11.652083218997184"><ele>7.0</ele><time>2026-05-03T17:52:30.001Z</time></trkpt><trkpt lat="44.67250674328381" lon="11.651987431888097"><ele>7.0</ele><time>2026-05-03T17:52:32.001Z</time></trkpt><trkpt lat="44.67260973930973" lon="11.652123809874524"><ele>7.0</ele><time>2026-05-03T17:52:57.999Z</time></trkpt><trkpt lat="44.6726863343052" lon="11.652219919800677"><ele>7.0</ele><time>2026-05-03T17:53:00.999Z</time></trkpt></trkseg></trk></gpx>